<?xml version='1.0' encoding='UTF-8'?><gpx version="1.1" creator="JPX - https://github.com/jenetics/jpx" xmlns="http://www.topografix.com/GPX/1/1"><trk><trkseg><trkpt lat="40.5534202" lon="16.6660581"><ele>342.66666666666663</ele><time>2026-03-22T13:51:38.5Z</time></trkpt><trkpt lat="40.5532067" lon="16.6661233"><ele>342.3333333333333</ele><time>2026-03-22T13:53:23.133Z</time></trkpt><trkpt lat="40.5530667" lon="16.6661667"><ele>342.0</ele><time>2026-03-22T13:53:24.135Z</time></trkpt><trkpt lat="40.5533583" lon="16.6661117"><ele>342.20000000000005</ele><time>2026-03-22T13:53:27.134Z</time></trkpt><trkpt lat="40.5533883" lon="16.666025"><ele>342.4</ele><time>2026-03-22T13:53:28.133Z</time></trkpt><trkpt lat="40.5534567" lon="16.665935"><ele>342.6</ele><time>2026-03-22T13:53:30.133Z</time></trkpt><trkpt lat="40.5535333" lon="16.6658667"><ele>342.79999999999995</ele><time>2026-03-22T13:53:31.134Z</time></trkpt><trkpt lat="40.553675" lon="16.6658783"><ele>343.0</ele><time>2026-03-22T13:53:33.451Z</time></trkpt><trkpt lat="40.5537267" lon="16.6659767"><ele>342.59999999999997</ele><time>2026-03-22T13:53:35.452Z</time></trkpt><trkpt lat="40.553785" lon="16.6660817"><ele>342.2</ele><time>2026-03-22T13:53:37.457Z</time></trkpt><trkpt lat="40.5538283" lon="16.666195"><ele>341.8</ele><time>2026-03-22T13:53:39.452Z</time></trkpt><trkpt lat="40.55387" lon="16.6663033"><ele>341.4</ele><time>2026-03-22T13:53:41.452Z</time></trkpt><trkpt lat="40.5539167" lon="16.6664117"><ele>341.0</ele><time>2026-03-22T13:53:43.452Z</time></trkpt><trkpt lat="40.553955" lon="16.6665167"><ele>340.8</ele><time>2026-03-22T13:53:45.452Z</time></trkpt><trkpt lat="40.5539867" lon="16.6666283"><ele>340.6</ele><time>2026-03-22T13:53:47.453Z</time></trkpt><trkpt lat="40.5540217" lon="16.6667467"><ele>340.4</ele><time>2026-03-22T13:53:49.453Z</time></trkpt><trkpt lat="40.5540683" lon="16.6668817"><ele>340.2</ele><time>2026-03-22T13:53:51.452Z</time></trkpt><trkpt lat="40.5541267" lon="16.6670083"><ele>340.0</ele><time>2026-03-22T13:53:53.453Z</time></trkpt><trkpt lat="40.5541817" lon="16.6671317"><ele>340.0</ele><time>2026-03-22T13:53:55.451Z</time></trkpt><trkpt lat="40.5542367" lon="16.6672367"><ele>340.0</ele><time>2026-03-22T13:53:57.452Z</time></trkpt><trkpt lat="40.554285" lon="16.6673233"><ele>340.0</ele><time>2026-03-22T13:53:59.457Z</time></trkpt><trkpt lat="40.5542383" lon="16.6674"><ele>340.0</ele><time>2026-03-22T13:54:02.452Z</time></trkpt><trkpt lat="40.5541283" lon="16.667425"><ele>340.0</ele><time>2026-03-22T13:54:04.451Z</time></trkpt><trkpt lat="40.5540017" lon="16.66743"><ele>340.0</ele><time>2026-03-22T13:54:06.452Z</time></trkpt><trkpt lat="40.5539317" lon="16.66743"><ele>340.0</ele><time>2026-03-22T13:54:07.453Z</time></trkpt><trkpt lat="40.5538483" lon="16.66744"><ele>340.0</ele><time>2026-03-22T13:54:08.452Z</time></trkpt><trkpt lat="40.5537617" lon="16.66744"><ele>340.0</ele><time>2026-03-22T13:54:09.453Z</time></trkpt><trkpt lat="40.5536917" lon="16.6674367"><ele>340.0</ele><time>2026-03-22T13:54:10.455Z</time></trkpt><trkpt lat="40.5536217" lon="16.66743"><ele>340.0</ele><time>2026-03-22T13:54:11.452Z</time></trkpt><trkpt lat="40.5535517" lon="16.6674233"><ele>339.16666666666663</ele><time>2026-03-22T13:54:12.452Z</time></trkpt><trkpt lat="40.5534833" lon="16.667415"><ele>338.3333333333333</ele><time>2026-03-22T13:54:13.452Z</time></trkpt><trkpt lat="40.55341" lon="16.6673983"><ele>337.5</ele><time>2026-03-22T13:54:14.452Z</time></trkpt><trkpt lat="40.553335" lon="16.667385"><ele>336.6666666666667</ele><time>2026-03-22T13:54:15.452Z</time></trkpt><trkpt lat="40.553255" lon="16.66737"><ele>335.83333333333337</ele><time>2026-03-22T13:54:16.453Z</time></trkpt><trkpt lat="40.5531733" lon="16.6673533"><ele>335.0</ele><time>2026-03-22T13:54:17.452Z</time></trkpt><trkpt lat="40.553095" lon="16.6673233"><ele>335.0</ele><time>2026-03-22T13:54:18.452Z</time></trkpt><trkpt lat="40.553015" lon="16.6672883"><ele>335.0</ele><time>2026-03-22T13:54:19.452Z</time></trkpt><trkpt lat="40.5529317" lon="16.66725"><ele>335.0</ele><time>2026-03-22T13:54:20.451Z</time></trkpt><trkpt lat="40.5528483" lon="16.667205"><ele>335.0</ele><time>2026-03-22T13:54:21.452Z</time></trkpt><trkpt lat="40.552765" lon="16.6671567"><ele>335.0</ele><time>2026-03-22T13:54:22.454Z</time></trkpt><trkpt lat="40.5526867" lon="16.667095"><ele>335.0</ele><time>2026-03-22T13:54:23.452Z</time></trkpt><trkpt lat="40.5526167" lon="16.6670133"><ele>334.8</ele><time>2026-03-22T13:54:24.453Z</time></trkpt><trkpt lat="40.5525517" lon="16.6669333"><ele>334.6</ele><time>2026-03-22T13:54:25.452Z</time></trkpt><trkpt lat="40.552485" lon="16.666845"><ele>334.4</ele><time>2026-03-22T13:54:26.455Z</time></trkpt><trkpt lat="40.5524217" lon="16.666755"><ele>334.2</ele><time>2026-03-22T13:54:27.452Z</time></trkpt><trkpt lat="40.5523633" lon="16.6666667"><ele>334.0</ele><time>2026-03-22T13:54:28.451Z</time></trkpt><trkpt lat="40.5523067" lon="16.6665783"><ele>334.0</ele><time>2026-03-22T13:54:29.451Z</time></trkpt><trkpt lat="40.552245" lon="16.666485"><ele>334.0</ele><time>2026-03-22T13:54:30.452Z</time></trkpt><trkpt lat="40.5522033" lon="16.6663833"><ele>334.0</ele><time>2026-03-22T13:54:31.452Z</time></trkpt><trkpt lat="40.5521833" lon="16.6662933"><ele>334.0</ele><time>2026-03-22T13:54:32.451Z</time></trkpt><trkpt lat="40.5521533" lon="16.6662183"><ele>334.0</ele><time>2026-03-22T13:54:33.451Z</time></trkpt><trkpt lat="40.5521033" lon="16.6661583"><ele>334.0</ele><time>2026-03-22T13:54:34.455Z</time></trkpt><trkpt lat="40.552045" lon="16.6661233"><ele>334.0</ele><time>2026-03-22T13:54:35.453Z</time></trkpt><trkpt lat="40.5519717" lon="16.66613"><ele>333.3333333333333</ele><time>2026-03-22T13:54:36.452Z</time></trkpt><trkpt lat="40.5519" lon="16.6661617"><ele>332.66666666666663</ele><time>2026-03-22T13:54:37.452Z</time></trkpt><trkpt lat="40.5518183" lon="16.6661767"><ele>332.0</ele><time>2026-03-22T13:54:38.454Z</time></trkpt><trkpt lat="40.5517333" lon="16.6661883"><ele>331.3333333333333</ele><time>2026-03-22T13:54:39.452Z</time></trkpt><trkpt lat="40.5516433" lon="16.6662033"><ele>330.6666666666667</ele><time>2026-03-22T13:54:40.453Z</time></trkpt><trkpt lat="40.551555" lon="16.66622"><ele>330.0</ele><time>2026-03-22T13:54:41.452Z</time></trkpt><trkpt lat="40.5514717" lon="16.6662317"><ele>330.0</ele><time>2026-03-22T13:54:42.453Z</time></trkpt><trkpt lat="40.5513883" lon="16.6662467"><ele>330.0</ele><time>2026-03-22T13:54:43.452Z</time></trkpt><trkpt lat="40.5513033" lon="16.6662667"><ele>330.0</ele><time>2026-03-22T13:54:44.452Z</time></trkpt><trkpt lat="40.5512217" lon="16.6662867"><ele>330.0</ele><time>2026-03-22T13:54:45.452Z</time></trkpt><trkpt lat="40.5511433" lon="16.666305"><ele>330.0</ele><time>2026-03-22T13:54:46.453Z</time></trkpt><trkpt lat="40.5510683" lon="16.6663167"><ele>330.0</ele><time>2026-03-22T13:54:47.452Z</time></trkpt><trkpt lat="40.551" lon="16.666325"><ele>329.6</ele><time>2026-03-22T13:54:48.453Z</time></trkpt><trkpt lat="40.55088" lon="16.66633"><ele>329.2</ele><time>2026-03-22T13:54:50.453Z</time></trkpt><trkpt lat="40.5507483" lon="16.6663367"><ele>328.79999999999995</ele><time>2026-03-22T13:54:52.454Z</time></trkpt><trkpt lat="40.5506683" lon="16.6663567"><ele>328.4</ele><time>2026-03-22T13:54:53.453Z</time></trkpt><trkpt lat="40.5505767" lon="16.66637"><ele>328.0</ele><time>2026-03-22T13:54:54.454Z</time></trkpt><trkpt lat="40.55048" lon="16.6663817"><ele>328.0</ele><time>2026-03-22T13:54:55.453Z</time></trkpt><trkpt lat="40.5503767" lon="16.6663883"><ele>328.0</ele><time>2026-03-22T13:54:56.453Z</time></trkpt><trkpt lat="40.550275" lon="16.6663767"><ele>328.0</ele><time>2026-03-22T13:54:57.452Z</time></trkpt><trkpt lat="40.550175" lon="16.6663683"><ele>328.0</ele><time>2026-03-22T13:54:58.452Z</time></trkpt><trkpt lat="40.5500717" lon="16.6663633"><ele>328.0</ele><time>2026-03-22T13:54:59.452Z</time></trkpt><trkpt lat="40.54997" lon="16.6663633"><ele>328.0</ele><time>2026-03-22T13:55:00.451Z</time></trkpt><trkpt lat="40.5498717" lon="16.6663667"><ele>328.0</ele><time>2026-03-22T13:55:01.451Z</time></trkpt><trkpt lat="40.54978" lon="16.6663767"><ele>328.0</ele><time>2026-03-22T13:55:02.453Z</time></trkpt><trkpt lat="40.5496933" lon="16.6663833"><ele>328.0</ele><time>2026-03-22T13:55:03.455Z</time></trkpt><trkpt lat="40.54961" lon="16.6663983"><ele>328.0</ele><time>2026-03-22T13:55:04.453Z</time></trkpt><trkpt lat="40.54953" lon="16.66642"><ele>328.0</ele><time>2026-03-22T13:55:05.453Z</time></trkpt><trkpt lat="40.5494517" lon="16.66644"><ele>326.66666666666663</ele><time>2026-03-22T13:55:06.452Z</time></trkpt><trkpt lat="40.5493733" lon="16.6664667"><ele>325.3333333333333</ele><time>2026-03-22T13:55:07.452Z</time></trkpt><trkpt lat="40.5492967" lon="16.666495"><ele>324.0</ele><time>2026-03-22T13:55:08.453Z</time></trkpt><trkpt lat="40.54922" lon="16.6665167"><ele>322.6666666666667</ele><time>2026-03-22T13:55:09.453Z</time></trkpt><trkpt lat="40.5491483" lon="16.6665433"><ele>321.33333333333337</ele><time>2026-03-22T13:55:10.453Z</time></trkpt><trkpt lat="40.549075" lon="16.66657"><ele>320.0</ele><time>2026-03-22T13:55:11.452Z</time></trkpt><trkpt lat="40.548995" lon="16.6665933"><ele>320.0</ele><time>2026-03-22T13:55:12.452Z</time></trkpt><trkpt lat="40.5489133" lon="16.66661"><ele>320.0</ele><time>2026-03-22T13:55:13.452Z</time></trkpt><trkpt lat="40.54884" lon="16.6666317"><ele>320.0</ele><time>2026-03-22T13:55:14.452Z</time></trkpt><trkpt lat="40.5487683" lon="16.6666517"><ele>320.0</ele><time>2026-03-22T13:55:15.453Z</time></trkpt><trkpt lat="40.5486967" lon="16.6666717"><ele>320.0</ele><time>2026-03-22T13:55:16.455Z</time></trkpt><trkpt lat="40.5486267" lon="16.6666933"><ele>320.0</ele><time>2026-03-22T13:55:17.453Z</time></trkpt><trkpt lat="40.5485117" lon="16.66673"><ele>318.6</ele><time>2026-03-22T13:55:19.453Z</time></trkpt><trkpt lat="40.5484067" lon="16.6667867"><ele>317.2</ele><time>2026-03-22T13:55:21.452Z</time></trkpt><trkpt lat="40.5482983" lon="16.66681"><ele>315.8</ele><time>2026-03-22T13:55:23.454Z</time></trkpt><trkpt lat="40.5481817" lon="16.6668517"><ele>314.4</ele><time>2026-03-22T13:55:25.459Z</time></trkpt><trkpt lat="40.5481167" lon="16.6668817"><ele>313.0</ele><time>2026-03-22T13:55:26.455Z</time></trkpt><trkpt lat="40.5480467" lon="16.6669183"><ele>313.5</ele><time>2026-03-22T13:55:27.452Z</time></trkpt><trkpt lat="40.5479667" lon="16.6669483"><ele>314.0</ele><time>2026-03-22T13:55:28.452Z</time></trkpt><trkpt lat="40.54788" lon="16.666975"><ele>314.5</ele><time>2026-03-22T13:55:29.455Z</time></trkpt><trkpt lat="40.5477933" lon="16.667"><ele>315.0</ele><time>2026-03-22T13:55:30.452Z</time></trkpt><trkpt lat="40.547705" lon="16.6670283"><ele>315.5</ele><time>2026-03-22T13:55:31.455Z</time></trkpt><trkpt lat="40.547615" lon="16.6670567"><ele>316.0</ele><time>2026-03-22T13:55:32.452Z</time></trkpt><trkpt lat="40.5475233" lon="16.667085"><ele>316.0</ele><time>2026-03-22T13:55:33.452Z</time></trkpt><trkpt lat="40.5474317" lon="16.6671167"><ele>316.0</ele><time>2026-03-22T13:55:34.452Z</time></trkpt><trkpt lat="40.5473383" lon="16.667145"><ele>316.0</ele><time>2026-03-22T13:55:35.454Z</time></trkpt><trkpt lat="40.5472467" lon="16.6671717"><ele>316.0</ele><time>2026-03-22T13:55:36.452Z</time></trkpt><trkpt lat="40.5471567" lon="16.6671983"><ele>316.0</ele><time>2026-03-22T13:55:37.453Z</time></trkpt><trkpt lat="40.547065" lon="16.667225"><ele>314.66666666666663</ele><time>2026-03-22T13:55:38.453Z</time></trkpt><trkpt lat="40.5469717" lon="16.66724"><ele>313.3333333333333</ele><time>2026-03-22T13:55:39.452Z</time></trkpt><trkpt lat="40.546885" lon="16.6672383"><ele>312.0</ele><time>2026-03-22T13:55:40.452Z</time></trkpt><trkpt lat="40.5468033" lon="16.6672333"><ele>310.6666666666667</ele><time>2026-03-22T13:55:41.453Z</time></trkpt><trkpt lat="40.54672" lon="16.6672217"><ele>309.33333333333337</ele><time>2026-03-22T13:55:42.452Z</time></trkpt><trkpt lat="40.546635" lon="16.6672133"><ele>308.0</ele><time>2026-03-22T13:55:43.453Z</time></trkpt><trkpt lat="40.5465517" lon="16.6671983"><ele>308.0</ele><time>2026-03-22T13:55:44.453Z</time></trkpt><trkpt lat="40.5464683" lon="16.6671817"><ele>308.0</ele><time>2026-03-22T13:55:45.453Z</time></trkpt><trkpt lat="40.5463817" lon="16.6671617"><ele>308.0</ele><time>2026-03-22T13:55:46.452Z</time></trkpt><trkpt lat="40.5462917" lon="16.6671467"><ele>308.0</ele><time>2026-03-22T13:55:47.453Z</time></trkpt><trkpt lat="40.5462017" lon="16.6671283"><ele>308.0</ele><time>2026-03-22T13:55:48.452Z</time></trkpt><trkpt lat="40.5461117" lon="16.6671083"><ele>308.0</ele><time>2026-03-22T13:55:49.453Z</time></trkpt><trkpt lat="40.5460217" lon="16.66709"><ele>307.83333333333337</ele><time>2026-03-22T13:55:50.452Z</time></trkpt><trkpt lat="40.5459333" lon="16.6670817"><ele>307.6666666666667</ele><time>2026-03-22T13:55:51.454Z</time></trkpt><trkpt lat="40.5458417" lon="16.6670817"><ele>307.5</ele><time>2026-03-22T13:55:52.451Z</time></trkpt><trkpt lat="40.5457533" lon="16.667095"><ele>307.3333333333333</ele><time>2026-03-22T13:55:53.451Z</time></trkpt><trkpt lat="40.5456683" lon="16.6671283"><ele>307.16666666666663</ele><time>2026-03-22T13:55:54.452Z</time></trkpt><trkpt lat="40.545585" lon="16.6671683"><ele>307.0</ele><time>2026-03-22T13:55:55.454Z</time></trkpt><trkpt lat="40.5455033" lon="16.66722"><ele>307.0</ele><time>2026-03-22T13:55:56.455Z</time></trkpt><trkpt lat="40.5454233" lon="16.6672733"><ele>307.0</ele><time>2026-03-22T13:55:57.452Z</time></trkpt><trkpt lat="40.5453433" lon="16.6673267"><ele>307.0</ele><time>2026-03-22T13:55:58.453Z</time></trkpt><trkpt lat="40.54526" lon="16.6673817"><ele>307.0</ele><time>2026-03-22T13:55:59.457Z</time></trkpt><trkpt lat="40.5451767" lon="16.6674367"><ele>307.0</ele><time>2026-03-22T13:56:00.453Z</time></trkpt><trkpt lat="40.5450983" lon="16.6674983"><ele>306.8</ele><time>2026-03-22T13:56:01.453Z</time></trkpt><trkpt lat="40.5450267" lon="16.66757"><ele>306.6</ele><time>2026-03-22T13:56:02.453Z</time></trkpt><trkpt lat="40.54496" lon="16.6676517"><ele>306.40000000000003</ele><time>2026-03-22T13:56:03.452Z</time></trkpt><trkpt lat="40.5449" lon="16.6677417"><ele>306.2</ele><time>2026-03-22T13:56:04.453Z</time></trkpt><trkpt lat="40.544845" lon="16.6678383"><ele>306.0</ele><time>2026-03-22T13:56:05.465Z</time></trkpt><trkpt lat="40.5447967" lon="16.66794"><ele>307.0</ele><time>2026-03-22T13:56:06.466Z</time></trkpt><trkpt lat="40.5447533" lon="16.6680433"><ele>308.0</ele><time>2026-03-22T13:56:07.456Z</time></trkpt><trkpt lat="40.5447117" lon="16.6681567"><ele>309.0</ele><time>2026-03-22T13:56:08.467Z</time></trkpt><trkpt lat="40.5446683" lon="16.6682683"><ele>310.0</ele><time>2026-03-22T13:56:09.465Z</time></trkpt><trkpt lat="40.5446233" lon="16.6683817"><ele>311.0</ele><time>2026-03-22T13:56:10.462Z</time></trkpt><trkpt lat="40.5445767" lon="16.66849"><ele>310.8</ele><time>2026-03-22T13:56:11.463Z</time></trkpt><trkpt lat="40.5445267" lon="16.6685917"><ele>310.6</ele><time>2026-03-22T13:56:12.462Z</time></trkpt><trkpt lat="40.544475" lon="16.6686967"><ele>310.4</ele><time>2026-03-22T13:56:13.462Z</time></trkpt><trkpt lat="40.5444317" lon="16.6687983"><ele>310.2</ele><time>2026-03-22T13:56:14.465Z</time></trkpt><trkpt lat="40.5443883" lon="16.6689067"><ele>310.0</ele><time>2026-03-22T13:56:15.463Z</time></trkpt><trkpt lat="40.5443383" lon="16.669"><ele>308.4</ele><time>2026-03-22T13:56:16.453Z</time></trkpt><trkpt lat="40.544285" lon="16.6690933"><ele>306.8</ele><time>2026-03-22T13:56:17.452Z</time></trkpt><trkpt lat="40.5442233" lon="16.66919"><ele>305.2</ele><time>2026-03-22T13:56:18.451Z</time></trkpt><trkpt lat="40.5441667" lon="16.6692883"><ele>303.6</ele><time>2026-03-22T13:56:19.452Z</time></trkpt><trkpt lat="40.5441067" lon="16.6693817"><ele>302.0</ele><time>2026-03-22T13:56:20.453Z</time></trkpt><trkpt lat="40.54405" lon="16.6694683"><ele>301.33333333333337</ele><time>2026-03-22T13:56:21.452Z</time></trkpt><trkpt lat="40.543995" lon="16.6695583"><ele>300.6666666666667</ele><time>2026-03-22T13:56:22.452Z</time></trkpt><trkpt lat="40.5439383" lon="16.6696433"><ele>300.0</ele><time>2026-03-22T13:56:23.454Z</time></trkpt><trkpt lat="40.5438867" lon="16.6697283"><ele>299.3333333333333</ele><time>2026-03-22T13:56:24.452Z</time></trkpt><trkpt lat="40.5438367" lon="16.66981"><ele>298.66666666666663</ele><time>2026-03-22T13:56:25.453Z</time></trkpt><trkpt lat="40.5437917" lon="16.669895"><ele>298.0</ele><time>2026-03-22T13:56:26.469Z</time></trkpt><trkpt lat="40.54374" lon="16.66999"><ele>297.0</ele><time>2026-03-22T13:56:27.454Z</time></trkpt><trkpt lat="40.5436733" lon="16.6700933"><ele>296.0</ele><time>2026-03-22T13:56:28.452Z</time></trkpt><trkpt lat="40.54361" lon="16.670195"><ele>295.0</ele><time>2026-03-22T13:56:29.453Z</time></trkpt><trkpt lat="40.54355" lon="16.6702917"><ele>294.0</ele><time>2026-03-22T13:56:30.452Z</time></trkpt><trkpt lat="40.54349" lon="16.6703967"><ele>293.0</ele><time>2026-03-22T13:56:31.452Z</time></trkpt><trkpt lat="40.543425" lon="16.6705"><ele>292.2</ele><time>2026-03-22T13:56:32.452Z</time></trkpt><trkpt lat="40.54337" lon="16.6705983"><ele>291.4</ele><time>2026-03-22T13:56:33.453Z</time></trkpt><trkpt lat="40.5433067" lon="16.6707017"><ele>290.59999999999997</ele><time>2026-03-22T13:56:34.453Z</time></trkpt><trkpt lat="40.5432467" lon="16.670805"><ele>289.8</ele><time>2026-03-22T13:56:35.453Z</time></trkpt><trkpt lat="40.5431933" lon="16.670905"><ele>289.0</ele><time>2026-03-22T13:56:36.452Z</time></trkpt><trkpt lat="40.5431367" lon="16.6710033"><ele>289.0</ele><time>2026-03-22T13:56:37.452Z</time></trkpt><trkpt lat="40.54308" lon="16.6711"><ele>289.0</ele><time>2026-03-22T13:56:38.453Z</time></trkpt><trkpt lat="40.54302" lon="16.671195"><ele>289.0</ele><time>2026-03-22T13:56:39.451Z</time></trkpt><trkpt lat="40.5429633" lon="16.671285"><ele>289.0</ele><time>2026-03-22T13:56:40.452Z</time></trkpt><trkpt lat="40.5429067" lon="16.6713767"><ele>289.0</ele><time>2026-03-22T13:56:41.452Z</time></trkpt><trkpt lat="40.5428517" lon="16.671465"><ele>289.16666666666663</ele><time>2026-03-22T13:56:42.452Z</time></trkpt><trkpt lat="40.5427983" lon="16.6715533"><ele>289.3333333333333</ele><time>2026-03-22T13:56:43.452Z</time></trkpt><trkpt lat="40.54274" lon="16.6716467"><ele>289.5</ele><time>2026-03-22T13:56:44.452Z</time></trkpt><trkpt lat="40.5426883" lon="16.6717433"><ele>289.6666666666667</ele><time>2026-03-22T13:56:45.452Z</time></trkpt><trkpt lat="40.5426367" lon="16.67184"><ele>289.83333333333337</ele><time>2026-03-22T13:56:46.453Z</time></trkpt><trkpt lat="40.5425817" lon="16.671935"><ele>290.0</ele><time>2026-03-22T13:56:47.455Z</time></trkpt><trkpt lat="40.5425233" lon="16.672025"><ele>290.0</ele><time>2026-03-22T13:56:48.454Z</time></trkpt><trkpt lat="40.5424683" lon="16.6721183"><ele>290.0</ele><time>2026-03-22T13:56:49.452Z</time></trkpt><trkpt lat="40.5424117" lon="16.6722167"><ele>290.0</ele><time>2026-03-22T13:56:50.453Z</time></trkpt><trkpt lat="40.542355" lon="16.6723133"><ele>290.0</ele><time>2026-03-22T13:56:51.452Z</time></trkpt><trkpt lat="40.5422933" lon="16.67241"><ele>290.0</ele><time>2026-03-22T13:56:52.453Z</time></trkpt><trkpt lat="40.5422333" lon="16.6725083"><ele>290.0</ele><time>2026-03-22T13:56:53.453Z</time></trkpt><trkpt lat="40.5421767" lon="16.6726067"><ele>290.0</ele><time>2026-03-22T13:56:54.453Z</time></trkpt><trkpt lat="40.54212" lon="16.6727033"><ele>290.0</ele><time>2026-03-22T13:56:55.454Z</time></trkpt><trkpt lat="40.5420633" lon="16.6727983"><ele>290.0</ele><time>2026-03-22T13:56:56.454Z</time></trkpt><trkpt lat="40.542005" lon="16.6728967"><ele>290.0</ele><time>2026-03-22T13:56:57.451Z</time></trkpt><trkpt lat="40.5419433" lon="16.6729933"><ele>287.8</ele><time>2026-03-22T13:56:58.451Z</time></trkpt><trkpt lat="40.541885" lon="16.6730967"><ele>285.6</ele><time>2026-03-22T13:56:59.451Z</time></trkpt><trkpt lat="40.5418267" lon="16.6732"><ele>283.4</ele><time>2026-03-22T13:57:00.452Z</time></trkpt><trkpt lat="40.5417667" lon="16.673305"><ele>281.2</ele><time>2026-03-22T13:57:01.453Z</time></trkpt><trkpt lat="40.5417183" lon="16.673415"><ele>279.0</ele><time>2026-03-22T13:57:02.452Z</time></trkpt><trkpt lat="40.541685" lon="16.6735317"><ele>279.4</ele><time>2026-03-22T13:57:03.453Z</time></trkpt><trkpt lat="40.5416633" lon="16.6736517"><ele>279.79999999999995</ele><time>2026-03-22T13:57:04.453Z</time></trkpt><trkpt lat="40.541655" lon="16.67378"><ele>280.20000000000005</ele><time>2026-03-22T13:57:05.453Z</time></trkpt><trkpt lat="40.541655" lon="16.6739067"><ele>280.6</ele><time>2026-03-22T13:57:06.452Z</time></trkpt><trkpt lat="40.5416483" lon="16.6740417"><ele>281.0</ele><time>2026-03-22T13:57:07.452Z</time></trkpt><trkpt lat="40.5416383" lon="16.67419"><ele>281.0</ele><time>2026-03-22T13:57:08.454Z</time></trkpt><trkpt lat="40.541635" lon="16.6743383"><ele>281.0</ele><time>2026-03-22T13:57:09.468Z</time></trkpt><trkpt lat="40.5416417" lon="16.6744617"><ele>281.0</ele><time>2026-03-22T13:57:10.461Z</time></trkpt><trkpt lat="40.541655" lon="16.6745833"><ele>281.0</ele><time>2026-03-22T13:57:11.454Z</time></trkpt><trkpt lat="40.5416617" lon="16.674705"><ele>281.0</ele><time>2026-03-22T13:57:12.452Z</time></trkpt><trkpt lat="40.5416683" lon="16.6748217"><ele>281.0</ele><time>2026-03-22T13:57:13.454Z</time></trkpt><trkpt lat="40.541675" lon="16.6749417"><ele>281.0</ele><time>2026-03-22T13:57:14.452Z</time></trkpt><trkpt lat="40.5416833" lon="16.6750633"><ele>281.0</ele><time>2026-03-22T13:57:15.452Z</time></trkpt><trkpt lat="40.5416917" lon="16.6751867"><ele>281.0</ele><time>2026-03-22T13:57:16.453Z</time></trkpt><trkpt lat="40.5416967" lon="16.6753083"><ele>281.0</ele><time>2026-03-22T13:57:17.452Z</time></trkpt><trkpt lat="40.5416983" lon="16.6754283"><ele>280.40000000000003</ele><time>2026-03-22T13:57:18.451Z</time></trkpt><trkpt lat="40.5416967" lon="16.67555"><ele>279.8</ele><time>2026-03-22T13:57:19.452Z</time></trkpt><trkpt lat="40.541685" lon="16.6756767"><ele>279.20000000000005</ele><time>2026-03-22T13:57:20.454Z</time></trkpt><trkpt lat="40.5416583" lon="16.6758033"><ele>278.6</ele><time>2026-03-22T13:57:21.452Z</time></trkpt><trkpt lat="40.5416183" lon="16.6759317"><ele>278.0</ele><time>2026-03-22T13:57:22.452Z</time></trkpt><trkpt lat="40.5415767" lon="16.6760617"><ele>276.0</ele><time>2026-03-22T13:57:23.452Z</time></trkpt><trkpt lat="40.5415183" lon="16.6761733"><ele>274.0</ele><time>2026-03-22T13:57:24.455Z</time></trkpt><trkpt lat="40.5414483" lon="16.6762683"><ele>272.0</ele><time>2026-03-22T13:57:25.453Z</time></trkpt><trkpt lat="40.5413767" lon="16.6763667"><ele>270.0</ele><time>2026-03-22T13:57:26.453Z</time></trkpt><trkpt lat="40.5413" lon="16.67646"><ele>268.0</ele><time>2026-03-22T13:57:27.452Z</time></trkpt><trkpt lat="40.5412233" lon="16.67656"><ele>270.6</ele><time>2026-03-22T13:57:28.455Z</time></trkpt><trkpt lat="40.54115" lon="16.6766583"><ele>273.20000000000005</ele><time>2026-03-22T13:57:29.453Z</time></trkpt><trkpt lat="40.5410783" lon="16.6767667"><ele>275.8</ele><time>2026-03-22T13:57:30.453Z</time></trkpt><trkpt lat="40.5410067" lon="16.6768733"><ele>278.40000000000003</ele><time>2026-03-22T13:57:31.452Z</time></trkpt><trkpt lat="40.5409383" lon="16.676985"><ele>281.0</ele><time>2026-03-22T13:57:32.455Z</time></trkpt><trkpt lat="40.5408867" lon="16.6770933"><ele>281.0</ele><time>2026-03-22T13:57:33.453Z</time></trkpt><trkpt lat="40.5408483" lon="16.6772317"><ele>281.0</ele><time>2026-03-22T13:57:34.452Z</time></trkpt><trkpt lat="40.5408167" lon="16.6773733"><ele>281.0</ele><time>2026-03-22T13:57:35.452Z</time></trkpt><trkpt lat="40.540785" lon="16.6775117"><ele>281.0</ele><time>2026-03-22T13:57:36.452Z</time></trkpt><trkpt lat="40.540745" lon="16.67765"><ele>281.0</ele><time>2026-03-22T13:57:37.451Z</time></trkpt><trkpt lat="40.5407033" lon="16.677775"><ele>278.8</ele><time>2026-03-22T13:57:38.452Z</time></trkpt><trkpt lat="40.5406617" lon="16.677905"><ele>276.6</ele><time>2026-03-22T13:57:39.455Z</time></trkpt><trkpt lat="40.5406333" lon="16.6780433"><ele>274.4</ele><time>2026-03-22T13:57:40.454Z</time></trkpt><trkpt lat="40.5406117" lon="16.678185"><ele>272.2</ele><time>2026-03-22T13:57:41.453Z</time></trkpt><trkpt lat="40.5406017" lon="16.6783317"><ele>270.0</ele><time>2026-03-22T13:57:42.452Z</time></trkpt><trkpt lat="40.5405967" lon="16.67848"><ele>268.25</ele><time>2026-03-22T13:57:43.453Z</time></trkpt><trkpt lat="40.5405933" lon="16.678635"><ele>266.5</ele><time>2026-03-22T13:57:44.455Z</time></trkpt><trkpt lat="40.5405867" lon="16.6787883"><ele>264.75</ele><time>2026-03-22T13:57:45.453Z</time></trkpt><trkpt lat="40.54058" lon="16.6789417"><ele>263.0</ele><time>2026-03-22T13:57:46.452Z</time></trkpt><trkpt lat="40.540575" lon="16.6790967"><ele>263.0</ele><time>2026-03-22T13:57:47.452Z</time></trkpt><trkpt lat="40.5405667" lon="16.67925"><ele>263.0</ele><time>2026-03-22T13:57:48.453Z</time></trkpt><trkpt lat="40.540555" lon="16.6794133"><ele>263.0</ele><time>2026-03-22T13:57:49.452Z</time></trkpt><trkpt lat="40.5405433" lon="16.6795733"><ele>263.0</ele><time>2026-03-22T13:57:50.455Z</time></trkpt><trkpt lat="40.540535" lon="16.6797333"><ele>263.5</ele><time>2026-03-22T13:57:51.453Z</time></trkpt><trkpt lat="40.540525" lon="16.6798883"><ele>264.0</ele><time>2026-03-22T13:57:52.453Z</time></trkpt><trkpt lat="40.54052" lon="16.680035"><ele>264.5</ele><time>2026-03-22T13:57:53.453Z</time></trkpt><trkpt lat="40.5405067" lon="16.680185"><ele>265.0</ele><time>2026-03-22T13:57:54.453Z</time></trkpt><trkpt lat="40.5404933" lon="16.6803317"><ele>264.6</ele><time>2026-03-22T13:57:55.453Z</time></trkpt><trkpt lat="40.54047" lon="16.6804733"><ele>264.2</ele><time>2026-03-22T13:57:56.455Z</time></trkpt><trkpt lat="40.5404317" lon="16.68061"><ele>263.8</ele><time>2026-03-22T13:57:57.452Z</time></trkpt><trkpt lat="40.5403783" lon="16.68074"><ele>263.4</ele><time>2026-03-22T13:57:58.453Z</time></trkpt><trkpt lat="40.5403217" lon="16.68086"><ele>263.0</ele><time>2026-03-22T13:57:59.452Z</time></trkpt><trkpt lat="40.540255" lon="16.6809767"><ele>263.0</ele><time>2026-03-22T13:58:00.453Z</time></trkpt><trkpt lat="40.540185" lon="16.68109"><ele>263.0</ele><time>2026-03-22T13:58:01.453Z</time></trkpt><trkpt lat="40.5401167" lon="16.6812"><ele>263.0</ele><time>2026-03-22T13:58:02.454Z</time></trkpt><trkpt lat="40.5400483" lon="16.68131"><ele>263.0</ele><time>2026-03-22T13:58:03.453Z</time></trkpt><trkpt lat="40.5399783" lon="16.681425"><ele>263.0</ele><time>2026-03-22T13:58:04.453Z</time></trkpt><trkpt lat="40.5399067" lon="16.681545"><ele>264.5</ele><time>2026-03-22T13:58:05.453Z</time></trkpt><trkpt lat="40.5398333" lon="16.681665"><ele>266.0</ele><time>2026-03-22T13:58:06.453Z</time></trkpt><trkpt lat="40.53976" lon="16.6817833"><ele>267.5</ele><time>2026-03-22T13:58:07.453Z</time></trkpt><trkpt lat="40.5396833" lon="16.6819"><ele>269.0</ele><time>2026-03-22T13:58:08.453Z</time></trkpt><trkpt lat="40.5396117" lon="16.6820183"><ele>268.75</ele><time>2026-03-22T13:58:09.453Z</time></trkpt><trkpt lat="40.53954" lon="16.6821367"><ele>268.5</ele><time>2026-03-22T13:58:10.453Z</time></trkpt><trkpt lat="40.53947" lon="16.6822567"><ele>268.25</ele><time>2026-03-22T13:58:11.453Z</time></trkpt><trkpt lat="40.5394017" lon="16.682375"><ele>268.0</ele><time>2026-03-22T13:58:12.453Z</time></trkpt><trkpt lat="40.5393283" lon="16.68249"><ele>268.0</ele><time>2026-03-22T13:58:13.453Z</time></trkpt><trkpt lat="40.53925" lon="16.6825983"><ele>268.0</ele><time>2026-03-22T13:58:14.454Z</time></trkpt><trkpt lat="40.53917" lon="16.6826967"><ele>268.0</ele><time>2026-03-22T13:58:15.453Z</time></trkpt><trkpt lat="40.53908" lon="16.6827833"><ele>268.0</ele><time>2026-03-22T13:58:16.453Z</time></trkpt><trkpt lat="40.5389867" lon="16.6828617"><ele>268.0</ele><time>2026-03-22T13:58:17.453Z</time></trkpt><trkpt lat="40.53889" lon="16.6829333"><ele>268.0</ele><time>2026-03-22T13:58:18.453Z</time></trkpt><trkpt lat="40.5387967" lon="16.6830117"><ele>268.0</ele><time>2026-03-22T13:58:19.453Z</time></trkpt><trkpt lat="40.538715" lon="16.6831083"><ele>268.0</ele><time>2026-03-22T13:58:20.453Z</time></trkpt><trkpt lat="40.53865" lon="16.6832317"><ele>268.0</ele><time>2026-03-22T13:58:21.453Z</time></trkpt><trkpt lat="40.538605" lon="16.6833683"><ele>268.0</ele><time>2026-03-22T13:58:22.454Z</time></trkpt><trkpt lat="40.5385717" lon="16.6835117"><ele>271.0</ele><time>2026-03-22T13:58:23.453Z</time></trkpt><trkpt lat="40.5385533" lon="16.6836617"><ele>274.0</ele><time>2026-03-22T13:58:24.454Z</time></trkpt><trkpt lat="40.5385383" lon="16.6838117"><ele>277.0</ele><time>2026-03-22T13:58:25.454Z</time></trkpt><trkpt lat="40.5385133" lon="16.6839567"><ele>280.0</ele><time>2026-03-22T13:58:26.454Z</time></trkpt><trkpt lat="40.53847" lon="16.68409"><ele>280.0</ele><time>2026-03-22T13:58:27.453Z</time></trkpt><trkpt lat="40.5384017" lon="16.6842133"><ele>280.0</ele><time>2026-03-22T13:58:28.454Z</time></trkpt><trkpt lat="40.5383083" lon="16.6843217"><ele>280.0</ele><time>2026-03-22T13:58:29.453Z</time></trkpt><trkpt lat="40.5382" lon="16.6844167"><ele>280.0</ele><time>2026-03-22T13:58:30.454Z</time></trkpt><trkpt lat="40.538085" lon="16.6845067"><ele>280.5</ele><time>2026-03-22T13:58:31.453Z</time></trkpt><trkpt lat="40.53797" lon="16.6845967"><ele>281.0</ele><time>2026-03-22T13:58:32.465Z</time></trkpt><trkpt lat="40.5378583" lon="16.6846917"><ele>281.5</ele><time>2026-03-22T13:58:33.46Z</time></trkpt><trkpt lat="40.5377583" lon="16.684795"><ele>282.0</ele><time>2026-03-22T13:58:34.463Z</time></trkpt><trkpt lat="40.53766" lon="16.6849033"><ele>280.75</ele><time>2026-03-22T13:58:35.453Z</time></trkpt><trkpt lat="40.5375617" lon="16.6850167"><ele>279.5</ele><time>2026-03-22T13:58:36.456Z</time></trkpt><trkpt lat="40.5374683" lon="16.6851367"><ele>278.25</ele><time>2026-03-22T13:58:37.452Z</time></trkpt><trkpt lat="40.5373783" lon="16.6852517"><ele>277.0</ele><time>2026-03-22T13:58:38.454Z</time></trkpt><trkpt lat="40.5372917" lon="16.6853583"><ele>277.0</ele><time>2026-03-22T13:58:39.452Z</time></trkpt><trkpt lat="40.53721" lon="16.68546"><ele>277.0</ele><time>2026-03-22T13:58:40.453Z</time></trkpt><trkpt lat="40.537135" lon="16.6855567"><ele>277.0</ele><time>2026-03-22T13:58:41.452Z</time></trkpt><trkpt lat="40.53707" lon="16.6856583"><ele>277.0</ele><time>2026-03-22T13:58:42.452Z</time></trkpt><trkpt lat="40.5370167" lon="16.6857583"><ele>277.0</ele><time>2026-03-22T13:58:43.452Z</time></trkpt><trkpt lat="40.5369717" lon="16.6858583"><ele>276.4</ele><time>2026-03-22T13:58:44.455Z</time></trkpt><trkpt lat="40.5369333" lon="16.68596"><ele>275.79999999999995</ele><time>2026-03-22T13:58:45.46Z</time></trkpt><trkpt lat="40.53689" lon="16.6860717"><ele>275.2</ele><time>2026-03-22T13:58:46.463Z</time></trkpt><trkpt lat="40.536845" lon="16.68619"><ele>274.59999999999997</ele><time>2026-03-22T13:58:47.452Z</time></trkpt><trkpt lat="40.5368017" lon="16.68631"><ele>274.0</ele><time>2026-03-22T13:58:48.452Z</time></trkpt><trkpt lat="40.5367483" lon="16.6864367"><ele>273.75</ele><time>2026-03-22T13:58:49.452Z</time></trkpt><trkpt lat="40.53669" lon="16.6865683"><ele>273.5</ele><time>2026-03-22T13:58:50.453Z</time></trkpt><trkpt lat="40.5366317" lon="16.6867033"><ele>273.25</ele><time>2026-03-22T13:58:51.453Z</time></trkpt><trkpt lat="40.536575" lon="16.68684"><ele>273.0</ele><time>2026-03-22T13:58:52.453Z</time></trkpt><trkpt lat="40.5365183" lon="16.6869733"><ele>272.4</ele><time>2026-03-22T13:58:53.452Z</time></trkpt><trkpt lat="40.5364633" lon="16.6871033"><ele>271.8</ele><time>2026-03-22T13:58:54.453Z</time></trkpt><trkpt lat="40.53641" lon="16.6872283"><ele>271.2</ele><time>2026-03-22T13:58:55.452Z</time></trkpt><trkpt lat="40.5363517" lon="16.6873467"><ele>270.6</ele><time>2026-03-22T13:58:56.454Z</time></trkpt><trkpt lat="40.53629" lon="16.6874533"><ele>270.0</ele><time>2026-03-22T13:58:57.453Z</time></trkpt><trkpt lat="40.5362217" lon="16.6875483"><ele>269.8</ele><time>2026-03-22T13:58:58.451Z</time></trkpt><trkpt lat="40.5361483" lon="16.6876317"><ele>269.6</ele><time>2026-03-22T13:58:59.451Z</time></trkpt><trkpt lat="40.5360717" lon="16.6877067"><ele>269.4</ele><time>2026-03-22T13:59:00.453Z</time></trkpt><trkpt lat="40.5359917" lon="16.687775"><ele>269.2</ele><time>2026-03-22T13:59:01.452Z</time></trkpt><trkpt lat="40.5359083" lon="16.68784"><ele>269.0</ele><time>2026-03-22T13:59:02.454Z</time></trkpt><trkpt lat="40.535825" lon="16.6879"><ele>269.0</ele><time>2026-03-22T13:59:03.453Z</time></trkpt><trkpt lat="40.53574" lon="16.6879617"><ele>269.0</ele><time>2026-03-22T13:59:04.452Z</time></trkpt><trkpt lat="40.5356517" lon="16.6880267"><ele>269.0</ele><time>2026-03-22T13:59:05.506Z</time></trkpt><trkpt lat="40.5355617" lon="16.68809"><ele>269.0</ele><time>2026-03-22T13:59:06.456Z</time></trkpt><trkpt lat="40.5353783" lon="16.6882217"><ele>268.59999999999997</ele><time>2026-03-22T13:59:08.453Z</time></trkpt><trkpt lat="40.5352867" lon="16.6882967"><ele>268.2</ele><time>2026-03-22T13:59:09.458Z</time></trkpt><trkpt lat="40.5351917" lon="16.68837"><ele>267.79999999999995</ele><time>2026-03-22T13:59:10.452Z</time></trkpt><trkpt lat="40.535095" lon="16.6884433"><ele>267.4</ele><time>2026-03-22T13:59:11.452Z</time></trkpt><trkpt lat="40.534995" lon="16.6885167"><ele>267.0</ele><time>2026-03-22T13:59:12.452Z</time></trkpt><trkpt lat="40.5348967" lon="16.68859"><ele>266.5</ele><time>2026-03-22T13:59:13.455Z</time></trkpt><trkpt lat="40.534795" lon="16.688665"><ele>266.0</ele><time>2026-03-22T13:59:14.452Z</time></trkpt><trkpt lat="40.5346917" lon="16.6887383"><ele>265.5</ele><time>2026-03-22T13:59:15.452Z</time></trkpt><trkpt lat="40.53459" lon="16.6888133"><ele>265.0</ele><time>2026-03-22T13:59:16.453Z</time></trkpt><trkpt lat="40.5344883" lon="16.6888867"><ele>264.25</ele><time>2026-03-22T13:59:17.451Z</time></trkpt><trkpt lat="40.5343867" lon="16.68896"><ele>263.5</ele><time>2026-03-22T13:59:18.452Z</time></trkpt><trkpt lat="40.53428" lon="16.6890367"><ele>262.75</ele><time>2026-03-22T13:59:19.452Z</time></trkpt><trkpt lat="40.5341767" lon="16.689115"><ele>262.0</ele><time>2026-03-22T13:59:20.455Z</time></trkpt><trkpt lat="40.534075" lon="16.6891933"><ele>262.0</ele><time>2026-03-22T13:59:21.453Z</time></trkpt><trkpt lat="40.5339733" lon="16.68927"><ele>262.0</ele><time>2026-03-22T13:59:22.452Z</time></trkpt><trkpt lat="40.533875" lon="16.6893483"><ele>262.0</ele><time>2026-03-22T13:59:23.452Z</time></trkpt><trkpt lat="40.5337783" lon="16.689425"><ele>262.0</ele><time>2026-03-22T13:59:24.453Z</time></trkpt><trkpt lat="40.53368" lon="16.6894983"><ele>261.0</ele><time>2026-03-22T13:59:25.454Z</time></trkpt><trkpt lat="40.5335833" lon="16.6895683"><ele>260.0</ele><time>2026-03-22T13:59:26.453Z</time></trkpt><trkpt lat="40.5334833" lon="16.689635"><ele>259.0</ele><time>2026-03-22T13:59:27.454Z</time></trkpt><trkpt lat="40.5333833" lon="16.689705"><ele>258.0</ele><time>2026-03-22T13:59:28.452Z</time></trkpt><trkpt lat="40.5332817" lon="16.6897817"><ele>258.0</ele><time>2026-03-22T13:59:29.452Z</time></trkpt><trkpt lat="40.5331817" lon="16.6898617"><ele>258.0</ele><time>2026-03-22T13:59:30.452Z</time></trkpt><trkpt lat="40.5330783" lon="16.6899367"><ele>258.0</ele><time>2026-03-22T13:59:31.454Z</time></trkpt><trkpt lat="40.5329733" lon="16.690005"><ele>258.0</ele><time>2026-03-22T13:59:32.453Z</time></trkpt><trkpt lat="40.5328683" lon="16.6900717"><ele>256.75</ele><time>2026-03-22T13:59:33.452Z</time></trkpt><trkpt lat="40.5327567" lon="16.6901267"><ele>255.5</ele><time>2026-03-22T13:59:34.452Z</time></trkpt><trkpt lat="40.5326467" lon="16.6901783"><ele>254.25</ele><time>2026-03-22T13:59:35.452Z</time></trkpt><trkpt lat="40.5325333" lon="16.690235"><ele>253.0</ele><time>2026-03-22T13:59:36.452Z</time></trkpt><trkpt lat="40.5324233" lon="16.6902867"><ele>253.0</ele><time>2026-03-22T13:59:37.451Z</time></trkpt><trkpt lat="40.532315" lon="16.6903367"><ele>253.0</ele><time>2026-03-22T13:59:38.452Z</time></trkpt><trkpt lat="40.53221" lon="16.6903917"><ele>253.0</ele><time>2026-03-22T13:59:39.453Z</time></trkpt><trkpt lat="40.5321117" lon="16.690455"><ele>253.0</ele><time>2026-03-22T13:59:40.452Z</time></trkpt><trkpt lat="40.53202" lon="16.6905433"><ele>250.0</ele><time>2026-03-22T13:59:41.452Z</time></trkpt><trkpt lat="40.53194" lon="16.6906567"><ele>247.0</ele><time>2026-03-22T13:59:42.453Z</time></trkpt><trkpt lat="40.5318717" lon="16.69079"><ele>244.0</ele><time>2026-03-22T13:59:43.452Z</time></trkpt><trkpt lat="40.53182" lon="16.6909383"><ele>241.0</ele><time>2026-03-22T13:59:44.452Z</time></trkpt><trkpt lat="40.5317767" lon="16.6910967"><ele>240.75</ele><time>2026-03-22T13:59:45.452Z</time></trkpt><trkpt lat="40.531735" lon="16.691255"><ele>240.5</ele><time>2026-03-22T13:59:46.452Z</time></trkpt><trkpt lat="40.5316917" lon="16.691415"><ele>240.25</ele><time>2026-03-22T13:59:47.452Z</time></trkpt><trkpt lat="40.53165" lon="16.6915783"><ele>240.0</ele><time>2026-03-22T13:59:48.452Z</time></trkpt><trkpt lat="40.531605" lon="16.69174"><ele>240.0</ele><time>2026-03-22T13:59:49.452Z</time></trkpt><trkpt lat="40.5315617" lon="16.6919033"><ele>240.0</ele><time>2026-03-22T13:59:50.453Z</time></trkpt><trkpt lat="40.5315183" lon="16.692065"><ele>240.0</ele><time>2026-03-22T13:59:51.452Z</time></trkpt><trkpt lat="40.531475" lon="16.6922267"><ele>240.0</ele><time>2026-03-22T13:59:52.453Z</time></trkpt><trkpt lat="40.53143" lon="16.6923883"><ele>239.0</ele><time>2026-03-22T13:59:53.453Z</time></trkpt><trkpt lat="40.53138" lon="16.692545"><ele>238.0</ele><time>2026-03-22T13:59:54.452Z</time></trkpt><trkpt lat="40.5313167" lon="16.6926933"><ele>237.0</ele><time>2026-03-22T13:59:55.452Z</time></trkpt><trkpt lat="40.5312433" lon="16.6928333"><ele>236.0</ele><time>2026-03-22T13:59:56.453Z</time></trkpt><trkpt lat="40.5311583" lon="16.6929617"><ele>233.75</ele><time>2026-03-22T13:59:57.453Z</time></trkpt><trkpt lat="40.5310717" lon="16.6930867"><ele>231.5</ele><time>2026-03-22T13:59:58.451Z</time></trkpt><trkpt lat="40.5309817" lon="16.69321"><ele>229.25</ele><time>2026-03-22T13:59:59.452Z</time></trkpt><trkpt lat="40.5308917" lon="16.6933267"><ele>227.0</ele><time>2026-03-22T14:00:00.452Z</time></trkpt><trkpt lat="40.5308017" lon="16.69344"><ele>227.0</ele><time>2026-03-22T14:00:01.453Z</time></trkpt><trkpt lat="40.530705" lon="16.6935467"><ele>227.0</ele><time>2026-03-22T14:00:02.454Z</time></trkpt><trkpt lat="40.5306033" lon="16.6936417"><ele>227.0</ele><time>2026-03-22T14:00:03.453Z</time></trkpt><trkpt lat="40.5304883" lon="16.6937183"><ele>227.0</ele><time>2026-03-22T14:00:04.453Z</time></trkpt><trkpt lat="40.5303733" lon="16.693785"><ele>227.25</ele><time>2026-03-22T14:00:05.452Z</time></trkpt><trkpt lat="40.53026" lon="16.6938517"><ele>227.5</ele><time>2026-03-22T14:00:06.454Z</time></trkpt><trkpt lat="40.530145" lon="16.69392"><ele>227.75</ele><time>2026-03-22T14:00:07.453Z</time></trkpt><trkpt lat="40.5300283" lon="16.69399"><ele>228.0</ele><time>2026-03-22T14:00:08.452Z</time></trkpt><trkpt lat="40.5299083" lon="16.6940617"><ele>228.0</ele><time>2026-03-22T14:00:09.452Z</time></trkpt><trkpt lat="40.5297883" lon="16.6941333"><ele>228.0</ele><time>2026-03-22T14:00:10.452Z</time></trkpt><trkpt lat="40.5296683" lon="16.6942083"><ele>228.0</ele><time>2026-03-22T14:00:11.453Z</time></trkpt><trkpt lat="40.5295517" lon="16.6942883"><ele>228.0</ele><time>2026-03-22T14:00:12.452Z</time></trkpt><trkpt lat="40.5294383" lon="16.6943833"><ele>227.25</ele><time>2026-03-22T14:00:13.452Z</time></trkpt><trkpt lat="40.5293367" lon="16.694495"><ele>226.5</ele><time>2026-03-22T14:00:14.453Z</time></trkpt><trkpt lat="40.5292433" lon="16.6946233"><ele>225.75</ele><time>2026-03-22T14:00:15.451Z</time></trkpt><trkpt lat="40.5291633" lon="16.6947667"><ele>225.0</ele><time>2026-03-22T14:00:16.452Z</time></trkpt><trkpt lat="40.5290967" lon="16.6949267"><ele>225.0</ele><time>2026-03-22T14:00:17.451Z</time></trkpt><trkpt lat="40.5290383" lon="16.6950933"><ele>225.0</ele><time>2026-03-22T14:00:18.451Z</time></trkpt><trkpt lat="40.5289917" lon="16.6952733"><ele>225.0</ele><time>2026-03-22T14:00:19.452Z</time></trkpt><trkpt lat="40.52895" lon="16.6954567"><ele>225.0</ele><time>2026-03-22T14:00:20.452Z</time></trkpt><trkpt lat="40.5289083" lon="16.6956367"><ele>223.25</ele><time>2026-03-22T14:00:21.452Z</time></trkpt><trkpt lat="40.5288583" lon="16.6958083"><ele>221.5</ele><time>2026-03-22T14:00:22.452Z</time></trkpt><trkpt lat="40.528795" lon="16.69597"><ele>219.75</ele><time>2026-03-22T14:00:23.452Z</time></trkpt><trkpt lat="40.528725" lon="16.6961233"><ele>218.0</ele><time>2026-03-22T14:00:24.454Z</time></trkpt><trkpt lat="40.5286517" lon="16.6962717"><ele>218.0</ele><time>2026-03-22T14:00:25.452Z</time></trkpt><trkpt lat="40.5285767" lon="16.6964167"><ele>218.0</ele><time>2026-03-22T14:00:26.453Z</time></trkpt><trkpt lat="40.5285" lon="16.6965617"><ele>218.0</ele><time>2026-03-22T14:00:27.452Z</time></trkpt><trkpt lat="40.5284267" lon="16.6967083"><ele>218.0</ele><time>2026-03-22T14:00:28.452Z</time></trkpt><trkpt lat="40.528355" lon="16.6968517"><ele>217.75</ele><time>2026-03-22T14:00:29.452Z</time></trkpt><trkpt lat="40.528275" lon="16.696985"><ele>217.5</ele><time>2026-03-22T14:00:30.452Z</time></trkpt><trkpt lat="40.5281817" lon="16.6970967"><ele>217.25</ele><time>2026-03-22T14:00:31.453Z</time></trkpt><trkpt lat="40.52807" lon="16.6971783"><ele>217.0</ele><time>2026-03-22T14:00:32.453Z</time></trkpt><trkpt lat="40.5279467" lon="16.6972233"><ele>215.75</ele><time>2026-03-22T14:00:33.453Z</time></trkpt><trkpt lat="40.527815" lon="16.69723"><ele>214.5</ele><time>2026-03-22T14:00:34.452Z</time></trkpt><trkpt lat="40.5276817" lon="16.6972067"><ele>213.25</ele><time>2026-03-22T14:00:35.453Z</time></trkpt><trkpt lat="40.5275467" lon="16.697165"><ele>212.0</ele><time>2026-03-22T14:00:36.452Z</time></trkpt><trkpt lat="40.527415" lon="16.6971167"><ele>212.0</ele><time>2026-03-22T14:00:37.451Z</time></trkpt><trkpt lat="40.5272833" lon="16.6970667"><ele>212.0</ele><time>2026-03-22T14:00:38.452Z</time></trkpt><trkpt lat="40.5271517" lon="16.6970217"><ele>212.0</ele><time>2026-03-22T14:00:39.452Z</time></trkpt><trkpt lat="40.5270183" lon="16.6969817"><ele>212.0</ele><time>2026-03-22T14:00:40.452Z</time></trkpt><trkpt lat="40.5268817" lon="16.6969483"><ele>211.25</ele><time>2026-03-22T14:00:41.453Z</time></trkpt><trkpt lat="40.5267433" lon="16.6969217"><ele>210.5</ele><time>2026-03-22T14:00:42.452Z</time></trkpt><trkpt lat="40.526605" lon="16.6969033"><ele>209.75</ele><time>2026-03-22T14:00:43.452Z</time></trkpt><trkpt lat="40.5264667" lon="16.6968917"><ele>209.0</ele><time>2026-03-22T14:00:44.453Z</time></trkpt><trkpt lat="40.5263283" lon="16.6968817"><ele>207.75</ele><time>2026-03-22T14:00:45.454Z</time></trkpt><trkpt lat="40.526195" lon="16.6968733"><ele>206.5</ele><time>2026-03-22T14:00:46.452Z</time></trkpt><trkpt lat="40.5260617" lon="16.6968617"><ele>205.25</ele><time>2026-03-22T14:00:47.453Z</time></trkpt><trkpt lat="40.525935" lon="16.6968467"><ele>204.0</ele><time>2026-03-22T14:00:48.452Z</time></trkpt><trkpt lat="40.5258183" lon="16.696845"><ele>204.0</ele><time>2026-03-22T14:00:49.453Z</time></trkpt><trkpt lat="40.5257133" lon="16.6968683"><ele>204.0</ele><time>2026-03-22T14:00:50.453Z</time></trkpt><trkpt lat="40.5256183" lon="16.6969233"><ele>204.0</ele><time>2026-03-22T14:00:51.452Z</time></trkpt><trkpt lat="40.5255333" lon="16.696995"><ele>204.0</ele><time>2026-03-22T14:00:52.452Z</time></trkpt><trkpt lat="40.5254533" lon="16.69706"><ele>204.0</ele><time>2026-03-22T14:00:53.452Z</time></trkpt><trkpt lat="40.5253683" lon="16.6971117"><ele>203.39999999999998</ele><time>2026-03-22T14:00:54.452Z</time></trkpt><trkpt lat="40.5252783" lon="16.69717"><ele>202.8</ele><time>2026-03-22T14:00:55.453Z</time></trkpt><trkpt lat="40.5251817" lon="16.6972433"><ele>202.2</ele><time>2026-03-22T14:00:56.453Z</time></trkpt><trkpt lat="40.5250867" lon="16.6973383"><ele>201.60000000000002</ele><time>2026-03-22T14:00:57.453Z</time></trkpt><trkpt lat="40.525005" lon="16.6974333"><ele>201.0</ele><time>2026-03-22T14:00:58.453Z</time></trkpt><trkpt lat="40.5249283" lon="16.697525"><ele>201.0</ele><time>2026-03-22T14:00:59.451Z</time></trkpt><trkpt lat="40.524855" lon="16.6976233"><ele>201.0</ele><time>2026-03-22T14:01:00.452Z</time></trkpt><trkpt lat="40.52478" lon="16.6977283"><ele>201.0</ele><time>2026-03-22T14:01:01.452Z</time></trkpt><trkpt lat="40.5247067" lon="16.6978383"><ele>201.0</ele><time>2026-03-22T14:01:02.454Z</time></trkpt><trkpt lat="40.524635" lon="16.6979517"><ele>201.0</ele><time>2026-03-22T14:01:03.454Z</time></trkpt><trkpt lat="40.5245633" lon="16.6980683"><ele>200.4</ele><time>2026-03-22T14:01:04.453Z</time></trkpt><trkpt lat="40.5244917" lon="16.6981833"><ele>199.8</ele><time>2026-03-22T14:01:05.452Z</time></trkpt><trkpt lat="40.52442" lon="16.6983"><ele>199.20000000000002</ele><time>2026-03-22T14:01:06.452Z</time></trkpt><trkpt lat="40.52435" lon="16.6984133"><ele>198.60000000000002</ele><time>2026-03-22T14:01:07.452Z</time></trkpt><trkpt lat="40.52428" lon="16.6985267"><ele>198.0</ele><time>2026-03-22T14:01:08.453Z</time></trkpt><trkpt lat="40.5242117" lon="16.6986333"><ele>197.60000000000002</ele><time>2026-03-22T14:01:09.452Z</time></trkpt><trkpt lat="40.5241467" lon="16.6987317"><ele>197.20000000000002</ele><time>2026-03-22T14:01:10.453Z</time></trkpt><trkpt lat="40.5240867" lon="16.69883"><ele>196.8</ele><time>2026-03-22T14:01:11.453Z</time></trkpt><trkpt lat="40.5240333" lon="16.6989433"><ele>196.4</ele><time>2026-03-22T14:01:12.452Z</time></trkpt><trkpt lat="40.52399" lon="16.6990717"><ele>196.0</ele><time>2026-03-22T14:01:13.453Z</time></trkpt><trkpt lat="40.52396" lon="16.6992067"><ele>196.0</ele><time>2026-03-22T14:01:14.452Z</time></trkpt><trkpt lat="40.5239383" lon="16.6993467"><ele>196.0</ele><time>2026-03-22T14:01:15.453Z</time></trkpt><trkpt lat="40.5239267" lon="16.6994867"><ele>196.0</ele><time>2026-03-22T14:01:16.452Z</time></trkpt><trkpt lat="40.523925" lon="16.6996267"><ele>196.0</ele><time>2026-03-22T14:01:17.451Z</time></trkpt><trkpt lat="40.5239317" lon="16.6997667"><ele>196.0</ele><time>2026-03-22T14:01:18.452Z</time></trkpt><trkpt lat="40.5239367" lon="16.699905"><ele>195.60000000000002</ele><time>2026-03-22T14:01:19.451Z</time></trkpt><trkpt lat="40.52394" lon="16.7000467"><ele>195.2</ele><time>2026-03-22T14:01:20.453Z</time></trkpt><trkpt lat="40.523945" lon="16.700185"><ele>194.8</ele><time>2026-03-22T14:01:21.453Z</time></trkpt><trkpt lat="40.52395" lon="16.7003183"><ele>194.39999999999998</ele><time>2026-03-22T14:01:22.452Z</time></trkpt><trkpt lat="40.5239583" lon="16.70044"><ele>194.0</ele><time>2026-03-22T14:01:23.452Z</time></trkpt><trkpt lat="40.523975" lon="16.700555"><ele>193.6</ele><time>2026-03-22T14:01:24.452Z</time></trkpt><trkpt lat="40.5239983" lon="16.70067"><ele>193.2</ele><time>2026-03-22T14:01:25.453Z</time></trkpt><trkpt lat="40.5240267" lon="16.7007867"><ele>192.79999999999998</ele><time>2026-03-22T14:01:26.453Z</time></trkpt><trkpt lat="40.5240617" lon="16.7009117"><ele>192.39999999999998</ele><time>2026-03-22T14:01:27.452Z</time></trkpt><trkpt lat="40.5240983" lon="16.7010417"><ele>192.0</ele><time>2026-03-22T14:01:28.452Z</time></trkpt><trkpt lat="40.524135" lon="16.7011733"><ele>192.0</ele><time>2026-03-22T14:01:29.452Z</time></trkpt><trkpt lat="40.5241683" lon="16.7013"><ele>192.0</ele><time>2026-03-22T14:01:30.453Z</time></trkpt><trkpt lat="40.5241967" lon="16.70143"><ele>192.0</ele><time>2026-03-22T14:01:31.453Z</time></trkpt><trkpt lat="40.5242217" lon="16.7015617"><ele>192.0</ele><time>2026-03-22T14:01:32.453Z</time></trkpt><trkpt lat="40.52425" lon="16.7017033"><ele>192.0</ele><time>2026-03-22T14:01:33.452Z</time></trkpt><trkpt lat="40.524285" lon="16.7018567"><ele>191.6</ele><time>2026-03-22T14:01:34.452Z</time></trkpt><trkpt lat="40.5243217" lon="16.7020017"><ele>191.2</ele><time>2026-03-22T14:01:35.452Z</time></trkpt><trkpt lat="40.524355" lon="16.70214"><ele>190.8</ele><time>2026-03-22T14:01:36.453Z</time></trkpt><trkpt lat="40.5243867" lon="16.7022767"><ele>190.4</ele><time>2026-03-22T14:01:37.454Z</time></trkpt><trkpt lat="40.5244167" lon="16.70241"><ele>190.0</ele><time>2026-03-22T14:01:38.454Z</time></trkpt><trkpt lat="40.5244467" lon="16.7025417"><ele>190.0</ele><time>2026-03-22T14:01:39.454Z</time></trkpt><trkpt lat="40.52448" lon="16.7026717"><ele>190.0</ele><time>2026-03-22T14:01:40.454Z</time></trkpt><trkpt lat="40.524515" lon="16.7028067"><ele>190.0</ele><time>2026-03-22T14:01:41.454Z</time></trkpt><trkpt lat="40.52455" lon="16.7029417"><ele>190.0</ele><time>2026-03-22T14:01:42.452Z</time></trkpt><trkpt lat="40.52458" lon="16.7030783"><ele>190.0</ele><time>2026-03-22T14:01:43.452Z</time></trkpt><trkpt lat="40.524605" lon="16.7032083"><ele>190.0</ele><time>2026-03-22T14:01:44.453Z</time></trkpt><trkpt lat="40.5246283" lon="16.7033367"><ele>190.0</ele><time>2026-03-22T14:01:45.452Z</time></trkpt><trkpt lat="40.524655" lon="16.7034617"><ele>190.0</ele><time>2026-03-22T14:01:46.452Z</time></trkpt><trkpt lat="40.52468" lon="16.7035833"><ele>190.0</ele><time>2026-03-22T14:01:47.453Z</time></trkpt><trkpt lat="40.5247033" lon="16.7037033"><ele>190.0</ele><time>2026-03-22T14:01:48.452Z</time></trkpt><trkpt lat="40.5247267" lon="16.7038217"><ele>189.6</ele><time>2026-03-22T14:01:49.453Z</time></trkpt><trkpt lat="40.5247667" lon="16.70394"><ele>189.2</ele><time>2026-03-22T14:01:50.453Z</time></trkpt><trkpt lat="40.524815" lon="16.7040667"><ele>188.8</ele><time>2026-03-22T14:01:51.452Z</time></trkpt><trkpt lat="40.524865" lon="16.704195"><ele>188.4</ele><time>2026-03-22T14:01:52.452Z</time></trkpt><trkpt lat="40.5249117" lon="16.7043217"><ele>188.0</ele><time>2026-03-22T14:01:53.453Z</time></trkpt><trkpt lat="40.5249517" lon="16.70445"><ele>187.60000000000002</ele><time>2026-03-22T14:01:54.452Z</time></trkpt><trkpt lat="40.52499" lon="16.7045767"><ele>187.20000000000002</ele><time>2026-03-22T14:01:55.453Z</time></trkpt><trkpt lat="40.52503" lon="16.7047033"><ele>186.8</ele><time>2026-03-22T14:01:56.453Z</time></trkpt><trkpt lat="40.5250717" lon="16.7048283"><ele>186.4</ele><time>2026-03-22T14:01:57.451Z</time></trkpt><trkpt lat="40.525115" lon="16.70495"><ele>186.0</ele><time>2026-03-22T14:01:58.452Z</time></trkpt><trkpt lat="40.5251583" lon="16.7050733"><ele>186.0</ele><time>2026-03-22T14:01:59.452Z</time></trkpt><trkpt lat="40.5252" lon="16.705195"><ele>186.0</ele><time>2026-03-22T14:02:00.452Z</time></trkpt><trkpt lat="40.52524" lon="16.70532"><ele>186.0</ele><time>2026-03-22T14:02:01.453Z</time></trkpt><trkpt lat="40.5252817" lon="16.7054433"><ele>186.0</ele><time>2026-03-22T14:02:02.453Z</time></trkpt><trkpt lat="40.5253217" lon="16.7055667"><ele>186.0</ele><time>2026-03-22T14:02:03.453Z</time></trkpt><trkpt lat="40.52536" lon="16.7056867"><ele>185.5</ele><time>2026-03-22T14:02:04.454Z</time></trkpt><trkpt lat="40.5253967" lon="16.7058033"><ele>185.0</ele><time>2026-03-22T14:02:05.454Z</time></trkpt><trkpt lat="40.5254333" lon="16.7059167"><ele>184.5</ele><time>2026-03-22T14:02:06.453Z</time></trkpt><trkpt lat="40.5254683" lon="16.7060267"><ele>184.0</ele><time>2026-03-22T14:02:07.454Z</time></trkpt><trkpt lat="40.5255017" lon="16.7061283"><ele>183.5</ele><time>2026-03-22T14:02:08.453Z</time></trkpt><trkpt lat="40.52553" lon="16.70622"><ele>183.0</ele><time>2026-03-22T14:02:09.453Z</time></trkpt><trkpt lat="40.5255483" lon="16.706315"><ele>182.66666666666666</ele><time>2026-03-22T14:02:10.452Z</time></trkpt><trkpt lat="40.5255483" lon="16.7064183"><ele>182.33333333333334</ele><time>2026-03-22T14:02:11.454Z</time></trkpt><trkpt lat="40.5255417" lon="16.706525"><ele>182.0</ele><time>2026-03-22T14:02:12.454Z</time></trkpt><trkpt lat="40.5255367" lon="16.706635"><ele>181.66666666666669</ele><time>2026-03-22T14:02:13.452Z</time></trkpt><trkpt lat="40.525545" lon="16.7067483"><ele>181.33333333333334</ele><time>2026-03-22T14:02:14.454Z</time></trkpt><trkpt lat="40.525565" lon="16.7068617"><ele>181.0</ele><time>2026-03-22T14:02:15.455Z</time></trkpt><trkpt lat="40.5255933" lon="16.7069733"><ele>181.0</ele><time>2026-03-22T14:02:16.454Z</time></trkpt><trkpt lat="40.5256317" lon="16.7070767"><ele>181.0</ele><time>2026-03-22T14:02:17.451Z</time></trkpt><trkpt lat="40.52568" lon="16.7071733"><ele>181.0</ele><time>2026-03-22T14:02:18.452Z</time></trkpt><trkpt lat="40.5257267" lon="16.70727"><ele>181.0</ele><time>2026-03-22T14:02:19.453Z</time></trkpt><trkpt lat="40.5257783" lon="16.7073733"><ele>181.0</ele><time>2026-03-22T14:02:20.454Z</time></trkpt><trkpt lat="40.5258367" lon="16.7074783"><ele>181.0</ele><time>2026-03-22T14:02:21.452Z</time></trkpt><trkpt lat="40.52589" lon="16.7075733"><ele>181.0</ele><time>2026-03-22T14:02:22.452Z</time></trkpt><trkpt lat="40.5259333" lon="16.7076617"><ele>181.0</ele><time>2026-03-22T14:02:23.452Z</time></trkpt><trkpt lat="40.525965" lon="16.7077617"><ele>181.0</ele><time>2026-03-22T14:02:24.452Z</time></trkpt><trkpt lat="40.52599" lon="16.707885"><ele>181.0</ele><time>2026-03-22T14:02:25.453Z</time></trkpt><trkpt lat="40.5260183" lon="16.7080017"><ele>181.0</ele><time>2026-03-22T14:02:26.455Z</time></trkpt><trkpt lat="40.5260567" lon="16.7081133"><ele>180.83333333333334</ele><time>2026-03-22T14:02:27.452Z</time></trkpt><trkpt lat="40.5261" lon="16.7082217"><ele>180.66666666666669</ele><time>2026-03-22T14:02:28.453Z</time></trkpt><trkpt lat="40.5261417" lon="16.708325"><ele>180.5</ele><time>2026-03-22T14:02:29.453Z</time></trkpt><trkpt lat="40.5261817" lon="16.7084183"><ele>180.33333333333334</ele><time>2026-03-22T14:02:30.452Z</time></trkpt><trkpt lat="40.5262083" lon="16.7085067"><ele>180.16666666666666</ele><time>2026-03-22T14:02:31.452Z</time></trkpt><trkpt lat="40.5262217" lon="16.70859"><ele>180.0</ele><time>2026-03-22T14:02:32.453Z</time></trkpt><trkpt lat="40.526185" lon="16.7087367"><ele>179.66666666666666</ele><time>2026-03-22T14:02:34.452Z</time></trkpt><trkpt lat="40.5261317" lon="16.7088067"><ele>179.33333333333334</ele><time>2026-03-22T14:02:35.452Z</time></trkpt><trkpt lat="40.5260633" lon="16.7088783"><ele>179.0</ele><time>2026-03-22T14:02:36.452Z</time></trkpt><trkpt lat="40.525995" lon="16.7089367"><ele>178.66666666666669</ele><time>2026-03-22T14:02:37.451Z</time></trkpt><trkpt lat="40.5259317" lon="16.7089817"><ele>178.33333333333334</ele><time>2026-03-22T14:02:38.453Z</time></trkpt><trkpt lat="40.525875" lon="16.7090283"><ele>178.0</ele><time>2026-03-22T14:02:39.452Z</time></trkpt><trkpt lat="40.5258083" lon="16.7091283"><ele>178.0</ele><time>2026-03-22T14:02:41.452Z</time></trkpt><trkpt lat="40.52578" lon="16.7092367"><ele>178.0</ele><time>2026-03-22T14:02:43.453Z</time></trkpt><trkpt lat="40.5257533" lon="16.7093717"><ele>178.0</ele><time>2026-03-22T14:02:45.452Z</time></trkpt><trkpt lat="40.5257583" lon="16.7095233"><ele>178.0</ele><time>2026-03-22T14:02:47.452Z</time></trkpt><trkpt lat="40.52577" lon="16.709665"><ele>178.0</ele><time>2026-03-22T14:02:49.452Z</time></trkpt><trkpt lat="40.5257767" lon="16.7098017"><ele>176.60000000000002</ele><time>2026-03-22T14:02:51.452Z</time></trkpt><trkpt lat="40.5257567" lon="16.7099283"><ele>175.20000000000002</ele><time>2026-03-22T14:02:53.452Z</time></trkpt><trkpt lat="40.52572" lon="16.71006"><ele>173.8</ele><time>2026-03-22T14:02:55.454Z</time></trkpt><trkpt lat="40.5256533" lon="16.710195"><ele>172.4</ele><time>2026-03-22T14:02:57.451Z</time></trkpt><trkpt lat="40.5256083" lon="16.7102667"><ele>171.0</ele><time>2026-03-22T14:02:58.451Z</time></trkpt><trkpt lat="40.5255633" lon="16.7103317"><ele>170.5</ele><time>2026-03-22T14:02:59.451Z</time></trkpt><trkpt lat="40.5254867" lon="16.71047"><ele>170.0</ele><time>2026-03-22T14:03:01.452Z</time></trkpt><trkpt lat="40.5254717" lon="16.7105567"><ele>169.5</ele><time>2026-03-22T14:03:02.453Z</time></trkpt><trkpt lat="40.52548" lon="16.7106467"><ele>169.0</ele><time>2026-03-22T14:03:03.452Z</time></trkpt><trkpt lat="40.52551" lon="16.7107383"><ele>168.5</ele><time>2026-03-22T14:03:04.452Z</time></trkpt><trkpt lat="40.5255517" lon="16.71083"><ele>168.0</ele><time>2026-03-22T14:03:05.452Z</time></trkpt><trkpt lat="40.525585" lon="16.710915"><ele>168.0</ele><time>2026-03-22T14:03:06.452Z</time></trkpt><trkpt lat="40.5256117" lon="16.7109933"><ele>168.0</ele><time>2026-03-22T14:03:07.452Z</time></trkpt><trkpt lat="40.525625" lon="16.711135"><ele>168.0</ele><time>2026-03-22T14:03:09.452Z</time></trkpt><trkpt lat="40.5255567" lon="16.71127"><ele>168.0</ele><time>2026-03-22T14:03:11.453Z</time></trkpt><trkpt lat="40.525485" lon="16.711325"><ele>168.0</ele><time>2026-03-22T14:03:12.453Z</time></trkpt><trkpt lat="40.525415" lon="16.7113917"><ele>168.66666666666666</ele><time>2026-03-22T14:03:13.453Z</time></trkpt><trkpt lat="40.5253517" lon="16.7114617"><ele>169.33333333333334</ele><time>2026-03-22T14:03:14.454Z</time></trkpt><trkpt lat="40.5252917" lon="16.7115333"><ele>170.0</ele><time>2026-03-22T14:03:15.453Z</time></trkpt><trkpt lat="40.5252333" lon="16.7116033"><ele>170.66666666666669</ele><time>2026-03-22T14:03:16.452Z</time></trkpt><trkpt lat="40.5251817" lon="16.7116683"><ele>171.33333333333334</ele><time>2026-03-22T14:03:17.452Z</time></trkpt><trkpt lat="40.5251317" lon="16.71173"><ele>172.0</ele><time>2026-03-22T14:03:18.451Z</time></trkpt><trkpt lat="40.5250783" lon="16.7117933"><ele>172.0</ele><time>2026-03-22T14:03:19.451Z</time></trkpt><trkpt lat="40.5250233" lon="16.7118517"><ele>172.0</ele><time>2026-03-22T14:03:20.453Z</time></trkpt><trkpt lat="40.5249717" lon="16.7119"><ele>172.0</ele><time>2026-03-22T14:03:21.453Z</time></trkpt><trkpt lat="40.524865" lon="16.7119133"><ele>172.0</ele><time>2026-03-22T14:03:23.452Z</time></trkpt><trkpt lat="40.52477" lon="16.7118217"><ele>172.0</ele><time>2026-03-22T14:03:25.453Z</time></trkpt><trkpt lat="40.5247267" lon="16.7117467"><ele>172.0</ele><time>2026-03-22T14:03:26.453Z</time></trkpt><trkpt lat="40.5246883" lon="16.71168"><ele>172.0</ele><time>2026-03-22T14:03:27.453Z</time></trkpt><trkpt lat="40.5246117" lon="16.71158"><ele>172.0</ele><time>2026-03-22T14:03:29.453Z</time></trkpt><trkpt lat="40.5245367" lon="16.71155"><ele>172.0</ele><time>2026-03-22T14:03:31.451Z</time></trkpt><trkpt lat="40.5244617" lon="16.7116133"><ele>172.0</ele><time>2026-03-22T14:03:33.453Z</time></trkpt><trkpt lat="40.5244033" lon="16.7117083"><ele>172.0</ele><time>2026-03-22T14:03:35.452Z</time></trkpt><trkpt lat="40.5243183" lon="16.7118217"><ele>171.33333333333334</ele><time>2026-03-22T14:03:37.452Z</time></trkpt><trkpt lat="40.52427" lon="16.7118867"><ele>170.66666666666669</ele><time>2026-03-22T14:03:38.452Z</time></trkpt><trkpt lat="40.524225" lon="16.7119533"><ele>170.0</ele><time>2026-03-22T14:03:39.452Z</time></trkpt><trkpt lat="40.5241833" lon="16.7120267"><ele>169.33333333333334</ele><time>2026-03-22T14:03:40.452Z</time></trkpt><trkpt lat="40.5241467" lon="16.712105"><ele>168.66666666666666</ele><time>2026-03-22T14:03:41.452Z</time></trkpt><trkpt lat="40.5241117" lon="16.712175"><ele>168.0</ele><time>2026-03-22T14:03:42.453Z</time></trkpt><trkpt lat="40.52406" lon="16.7123133"><ele>167.8</ele><time>2026-03-22T14:03:44.453Z</time></trkpt><trkpt lat="40.5240567" lon="16.712465"><ele>167.60000000000002</ele><time>2026-03-22T14:03:46.452Z</time></trkpt><trkpt lat="40.5240633" lon="16.7126133"><ele>167.39999999999998</ele><time>2026-03-22T14:03:48.452Z</time></trkpt><trkpt lat="40.5240817" lon="16.71275"><ele>167.2</ele><time>2026-03-22T14:03:50.453Z</time></trkpt><trkpt lat="40.524065" lon="16.7128683"><ele>167.0</ele><time>2026-03-22T14:03:52.452Z</time></trkpt><trkpt lat="40.5239967" lon="16.712965"><ele>166.33333333333331</ele><time>2026-03-22T14:03:54.455Z</time></trkpt><trkpt lat="40.523905" lon="16.71307"><ele>165.66666666666666</ele><time>2026-03-22T14:03:56.455Z</time></trkpt><trkpt lat="40.5238533" lon="16.7131267"><ele>165.0</ele><time>2026-03-22T14:03:57.452Z</time></trkpt><trkpt lat="40.5238017" lon="16.7131883"><ele>164.33333333333334</ele><time>2026-03-22T14:03:58.452Z</time></trkpt><trkpt lat="40.523755" lon="16.7132633"><ele>163.66666666666669</ele><time>2026-03-22T14:03:59.452Z</time></trkpt><trkpt lat="40.5237067" lon="16.713335"><ele>163.0</ele><time>2026-03-22T14:04:00.452Z</time></trkpt><trkpt lat="40.5236617" lon="16.71341"><ele>162.85714285714286</ele><time>2026-03-22T14:04:01.453Z</time></trkpt><trkpt lat="40.5236117" lon="16.7134783"><ele>162.7142857142857</ele><time>2026-03-22T14:04:02.453Z</time></trkpt><trkpt lat="40.5235633" lon="16.713545"><ele>162.57142857142856</ele><time>2026-03-22T14:04:03.453Z</time></trkpt><trkpt lat="40.5235183" lon="16.713615"><ele>162.42857142857144</ele><time>2026-03-22T14:04:04.452Z</time></trkpt><trkpt lat="40.52347" lon="16.7136817"><ele>162.28571428571428</ele><time>2026-03-22T14:04:05.453Z</time></trkpt><trkpt lat="40.5234217" lon="16.713745"><ele>162.14285714285714</ele><time>2026-03-22T14:04:06.452Z</time></trkpt><trkpt lat="40.5233817" lon="16.7138117"><ele>162.0</ele><time>2026-03-22T14:04:07.452Z</time></trkpt><trkpt lat="40.5233383" lon="16.71388"><ele>161.57142857142858</ele><time>2026-03-22T14:04:08.453Z</time></trkpt><trkpt lat="40.5232933" lon="16.71395"><ele>161.14285714285714</ele><time>2026-03-22T14:04:09.452Z</time></trkpt><trkpt lat="40.5232517" lon="16.71402"><ele>160.71428571428572</ele><time>2026-03-22T14:04:10.451Z</time></trkpt><trkpt lat="40.523215" lon="16.7140933"><ele>160.28571428571428</ele><time>2026-03-22T14:04:11.451Z</time></trkpt><trkpt lat="40.5231833" lon="16.7141733"><ele>159.85714285714286</ele><time>2026-03-22T14:04:12.451Z</time></trkpt><trkpt lat="40.523145" lon="16.7142483"><ele>159.42857142857142</ele><time>2026-03-22T14:04:13.451Z</time></trkpt><trkpt lat="40.5231" lon="16.7143117"><ele>159.0</ele><time>2026-03-22T14:04:14.453Z</time></trkpt><trkpt lat="40.5230517" lon="16.7143667"><ele>158.0</ele><time>2026-03-22T14:04:15.452Z</time></trkpt><trkpt lat="40.522975" lon="16.7144817"><ele>157.0</ele><time>2026-03-22T14:04:17.451Z</time></trkpt><trkpt lat="40.5229233" lon="16.7146267"><ele>156.0</ele><time>2026-03-22T14:04:19.451Z</time></trkpt><trkpt lat="40.5229" lon="16.714705"><ele>155.0</ele><time>2026-03-22T14:04:20.453Z</time></trkpt><trkpt lat="40.5228567" lon="16.714855"><ele>154.0</ele><time>2026-03-22T14:04:22.452Z</time></trkpt><trkpt lat="40.5228083" lon="16.7149967"><ele>154.0</ele><time>2026-03-22T14:04:24.452Z</time></trkpt><trkpt lat="40.5227833" lon="16.7150767"><ele>154.0</ele><time>2026-03-22T14:04:25.451Z</time></trkpt><trkpt lat="40.522725" lon="16.7151967"><ele>154.0</ele><time>2026-03-22T14:04:27.452Z</time></trkpt><trkpt lat="40.522655" lon="16.715245"><ele>154.0</ele><time>2026-03-22T14:04:29.452Z</time></trkpt><trkpt lat="40.5225467" lon="16.7152"><ele>154.0</ele><time>2026-03-22T14:04:31.454Z</time></trkpt><trkpt lat="40.5224867" lon="16.7151683"><ele>154.0</ele><time>2026-03-22T14:04:32.454Z</time></trkpt><trkpt lat="40.52238" lon="16.7151183"><ele>154.0</ele><time>2026-03-22T14:04:34.454Z</time></trkpt><trkpt lat="40.5223017" lon="16.7151133"><ele>154.0</ele><time>2026-03-22T14:04:36.451Z</time></trkpt><trkpt lat="40.5222267" lon="16.7151733"><ele>154.0</ele><time>2026-03-22T14:04:38.454Z</time></trkpt><trkpt lat="40.5221333" lon="16.7152867"><ele>154.0</ele><time>2026-03-22T14:04:40.453Z</time></trkpt><trkpt lat="40.522085" lon="16.71535"><ele>154.0</ele><time>2026-03-22T14:04:41.451Z</time></trkpt><trkpt lat="40.5220383" lon="16.71542"><ele>154.0</ele><time>2026-03-22T14:04:42.453Z</time></trkpt><trkpt lat="40.521995" lon="16.7154883"><ele>153.57142857142858</ele><time>2026-03-22T14:04:43.453Z</time></trkpt><trkpt lat="40.5219483" lon="16.7155533"><ele>153.14285714285714</ele><time>2026-03-22T14:04:44.451Z</time></trkpt><trkpt lat="40.521895" lon="16.7156167"><ele>152.71428571428572</ele><time>2026-03-22T14:04:45.452Z</time></trkpt><trkpt lat="40.52184" lon="16.7156783"><ele>152.28571428571428</ele><time>2026-03-22T14:04:46.451Z</time></trkpt><trkpt lat="40.5217867" lon="16.7157383"><ele>151.85714285714286</ele><time>2026-03-22T14:04:47.451Z</time></trkpt><trkpt lat="40.521735" lon="16.7158017"><ele>151.42857142857144</ele><time>2026-03-22T14:04:48.451Z</time></trkpt><trkpt lat="40.521685" lon="16.7158617"><ele>151.0</ele><time>2026-03-22T14:04:49.453Z</time></trkpt><trkpt lat="40.5215933" lon="16.715975"><ele>151.00000000000003</ele><time>2026-03-22T14:04:51.451Z</time></trkpt><trkpt lat="40.5215483" lon="16.7160383"><ele>151.0</ele><time>2026-03-22T14:04:52.452Z</time></trkpt><trkpt lat="40.5215017" lon="16.7161067"><ele>151.0</ele><time>2026-03-22T14:04:53.452Z</time></trkpt><trkpt lat="40.5214533" lon="16.716175"><ele>151.0</ele><time>2026-03-22T14:04:54.451Z</time></trkpt><trkpt lat="40.521405" lon="16.7162383"><ele>151.0</ele><time>2026-03-22T14:04:55.452Z</time></trkpt><trkpt lat="40.5213533" lon="16.7162967"><ele>151.00000000000003</ele><time>2026-03-22T14:04:56.452Z</time></trkpt><trkpt lat="40.5213017" lon="16.7163567"><ele>151.0</ele><time>2026-03-22T14:04:57.452Z</time></trkpt><trkpt lat="40.5212533" lon="16.7164167"><ele>150.71428571428572</ele><time>2026-03-22T14:04:58.451Z</time></trkpt><trkpt lat="40.5212" lon="16.7164783"><ele>150.42857142857144</ele><time>2026-03-22T14:04:59.45Z</time></trkpt><trkpt lat="40.52115" lon="16.71654"><ele>150.14285714285714</ele><time>2026-03-22T14:05:00.452Z</time></trkpt><trkpt lat="40.5210983" lon="16.716605"><ele>149.85714285714286</ele><time>2026-03-22T14:05:01.452Z</time></trkpt><trkpt lat="40.5210467" lon="16.7166683"><ele>149.57142857142856</ele><time>2026-03-22T14:05:02.452Z</time></trkpt><trkpt lat="40.5209967" lon="16.7167333"><ele>149.28571428571428</ele><time>2026-03-22T14:05:03.452Z</time></trkpt><trkpt lat="40.5209483" lon="16.716795"><ele>149.0</ele><time>2026-03-22T14:05:04.451Z</time></trkpt><trkpt lat="40.5209017" lon="16.7168533"><ele>147.5</ele><time>2026-03-22T14:05:05.452Z</time></trkpt><trkpt lat="40.5208117" lon="16.71696"><ele>146.0</ele><time>2026-03-22T14:05:07.453Z</time></trkpt><trkpt lat="40.520725" lon="16.71706"><ele>144.5</ele><time>2026-03-22T14:05:09.452Z</time></trkpt><trkpt lat="40.5206367" lon="16.7171617"><ele>143.0</ele><time>2026-03-22T14:05:11.451Z</time></trkpt><trkpt lat="40.52054" lon="16.7172633"><ele>142.99999999999997</ele><time>2026-03-22T14:05:13.452Z</time></trkpt><trkpt lat="40.5204917" lon="16.7173183"><ele>143.0</ele><time>2026-03-22T14:05:14.452Z</time></trkpt><trkpt lat="40.520445" lon="16.717375"><ele>143.0</ele><time>2026-03-22T14:05:15.452Z</time></trkpt><trkpt lat="40.5203967" lon="16.7174333"><ele>143.0</ele><time>2026-03-22T14:05:16.453Z</time></trkpt><trkpt lat="40.5203483" lon="16.7174933"><ele>143.0</ele><time>2026-03-22T14:05:17.452Z</time></trkpt><trkpt lat="40.5202983" lon="16.71755"><ele>142.99999999999997</ele><time>2026-03-22T14:05:18.452Z</time></trkpt><trkpt lat="40.520245" lon="16.717605"><ele>143.0</ele><time>2026-03-22T14:05:19.451Z</time></trkpt><trkpt lat="40.52019" lon="16.7176567"><ele>142.99999999999997</ele><time>2026-03-22T14:05:20.452Z</time></trkpt><trkpt lat="40.520135" lon="16.71771"><ele>143.0</ele><time>2026-03-22T14:05:21.452Z</time></trkpt><trkpt lat="40.5200817" lon="16.71776"><ele>143.0</ele><time>2026-03-22T14:05:22.452Z</time></trkpt><trkpt lat="40.5200267" lon="16.7178117"><ele>143.0</ele><time>2026-03-22T14:05:23.453Z</time></trkpt><trkpt lat="40.5199733" lon="16.7178633"><ele>143.0</ele><time>2026-03-22T14:05:24.452Z</time></trkpt><trkpt lat="40.519915" lon="16.71791"><ele>142.99999999999997</ele><time>2026-03-22T14:05:25.452Z</time></trkpt><trkpt lat="40.519855" lon="16.7179533"><ele>143.0</ele><time>2026-03-22T14:05:26.452Z</time></trkpt><trkpt lat="40.5197967" lon="16.7179917"><ele>142.5</ele><time>2026-03-22T14:05:27.452Z</time></trkpt><trkpt lat="40.5196883" lon="16.718065"><ele>142.0</ele><time>2026-03-22T14:05:29.451Z</time></trkpt><trkpt lat="40.5195867" lon="16.7181417"><ele>141.5</ele><time>2026-03-22T14:05:31.452Z</time></trkpt><trkpt lat="40.519505" lon="16.7182533"><ele>141.0</ele><time>2026-03-22T14:05:33.452Z</time></trkpt><trkpt lat="40.519445" lon="16.7183933"><ele>141.0</ele><time>2026-03-22T14:05:35.452Z</time></trkpt><trkpt lat="40.5194017" lon="16.71852"><ele>141.0</ele><time>2026-03-22T14:05:37.451Z</time></trkpt><trkpt lat="40.5193533" lon="16.718615"><ele>141.0</ele><time>2026-03-22T14:05:39.451Z</time></trkpt><trkpt lat="40.519325" lon="16.7186983"><ele>141.0</ele><time>2026-03-22T14:05:42.453Z</time></trkpt><trkpt lat="40.5192583" lon="16.7187967"><ele>141.0</ele><time>2026-03-22T14:05:52.451Z</time></trkpt><trkpt lat="40.519185" lon="16.718895"><ele>140.6</ele><time>2026-03-22T14:05:54.451Z</time></trkpt><trkpt lat="40.5190933" lon="16.719"><ele>140.2</ele><time>2026-03-22T14:05:56.452Z</time></trkpt><trkpt lat="40.5190017" lon="16.7190967"><ele>139.8</ele><time>2026-03-22T14:05:58.451Z</time></trkpt><trkpt lat="40.5189217" lon="16.71919"><ele>139.4</ele><time>2026-03-22T14:06:00.452Z</time></trkpt><trkpt lat="40.51885" lon="16.7192667"><ele>139.0</ele><time>2026-03-22T14:06:02.452Z</time></trkpt><trkpt lat="40.518795" lon="16.7193433"><ele>139.0</ele><time>2026-03-22T14:06:05.452Z</time></trkpt><trkpt lat="40.518865" lon="16.719255"><ele>139.0</ele><time>2026-03-22T14:06:19.451Z</time></trkpt><trkpt lat="40.5189483" lon="16.7191783"><ele>139.0</ele><time>2026-03-22T14:06:21.451Z</time></trkpt><trkpt lat="40.5190467" lon="16.7190717"><ele>139.0</ele><time>2026-03-22T14:06:23.452Z</time></trkpt><trkpt lat="40.5191017" lon="16.719015"><ele>139.0</ele><time>2026-03-22T14:06:24.452Z</time></trkpt><trkpt lat="40.5191817" lon="16.7189083"><ele>139.0</ele><time>2026-03-22T14:06:26.454Z</time></trkpt><trkpt lat="40.51926" lon="16.7187983"><ele>139.0</ele><time>2026-03-22T14:06:28.454Z</time></trkpt><trkpt lat="40.5193383" lon="16.7186833"><ele>139.0</ele><time>2026-03-22T14:06:30.452Z</time></trkpt><trkpt lat="40.5194067" lon="16.71856"><ele>139.0</ele><time>2026-03-22T14:06:32.453Z</time></trkpt><trkpt lat="40.519455" lon="16.71843"><ele>139.4</ele><time>2026-03-22T14:06:34.452Z</time></trkpt><trkpt lat="40.5194967" lon="16.7183067"><ele>139.8</ele><time>2026-03-22T14:06:36.452Z</time></trkpt><trkpt lat="40.519555" lon="16.7182"><ele>140.2</ele><time>2026-03-22T14:06:38.452Z</time></trkpt><trkpt lat="40.5196367" lon="16.7181233"><ele>140.6</ele><time>2026-03-22T14:06:40.451Z</time></trkpt><trkpt lat="40.5197233" lon="16.718065"><ele>141.0</ele><time>2026-03-22T14:06:42.452Z</time></trkpt><trkpt lat="40.5198183" lon="16.718"><ele>141.5</ele><time>2026-03-22T14:06:44.455Z</time></trkpt><trkpt lat="40.5199183" lon="16.7179283"><ele>142.0</ele><time>2026-03-22T14:06:46.451Z</time></trkpt><trkpt lat="40.520015" lon="16.71785"><ele>142.5</ele><time>2026-03-22T14:06:48.452Z</time></trkpt><trkpt lat="40.5201067" lon="16.7177567"><ele>143.0</ele><time>2026-03-22T14:06:50.452Z</time></trkpt><trkpt lat="40.520205" lon="16.7176617"><ele>143.0</ele><time>2026-03-22T14:06:52.452Z</time></trkpt><trkpt lat="40.5202917" lon="16.717565"><ele>143.0</ele><time>2026-03-22T14:06:54.452Z</time></trkpt><trkpt lat="40.5203833" lon="16.7174683"><ele>143.0</ele><time>2026-03-22T14:06:56.454Z</time></trkpt><trkpt lat="40.5204767" lon="16.7173667"><ele>143.0</ele><time>2026-03-22T14:06:58.451Z</time></trkpt><trkpt lat="40.5205633" lon="16.7172517"><ele>143.0</ele><time>2026-03-22T14:07:00.452Z</time></trkpt><trkpt lat="40.5206517" lon="16.71715"><ele>143.0</ele><time>2026-03-22T14:07:02.454Z</time></trkpt><trkpt lat="40.52074" lon="16.7170417"><ele>143.0</ele><time>2026-03-22T14:07:04.453Z</time></trkpt><trkpt lat="40.5208317" lon="16.7169433"><ele>143.0</ele><time>2026-03-22T14:07:06.452Z</time></trkpt><trkpt lat="40.52093" lon="16.71684"><ele>143.57142857142856</ele><time>2026-03-22T14:07:08.452Z</time></trkpt><trkpt lat="40.5209783" lon="16.7167817"><ele>144.14285714285714</ele><time>2026-03-22T14:07:09.453Z</time></trkpt><trkpt lat="40.5210267" lon="16.7167233"><ele>144.71428571428572</ele><time>2026-03-22T14:07:10.454Z</time></trkpt><trkpt lat="40.521075" lon="16.716665"><ele>145.28571428571428</ele><time>2026-03-22T14:07:11.451Z</time></trkpt><trkpt lat="40.5211233" lon="16.716605"><ele>145.85714285714286</ele><time>2026-03-22T14:07:12.452Z</time></trkpt><trkpt lat="40.5211683" lon="16.7165433"><ele>146.42857142857142</ele><time>2026-03-22T14:07:13.452Z</time></trkpt><trkpt lat="40.5212167" lon="16.7164833"><ele>147.0</ele><time>2026-03-22T14:07:14.452Z</time></trkpt><trkpt lat="40.5212633" lon="16.71642"><ele>147.0</ele><time>2026-03-22T14:07:15.452Z</time></trkpt><trkpt lat="40.5213133" lon="16.7163583"><ele>147.0</ele><time>2026-03-22T14:07:16.453Z</time></trkpt><trkpt lat="40.5213633" lon="16.7162967"><ele>147.0</ele><time>2026-03-22T14:07:17.451Z</time></trkpt><trkpt lat="40.5214133" lon="16.71623"><ele>147.0</ele><time>2026-03-22T14:07:18.455Z</time></trkpt><trkpt lat="40.5214633" lon="16.7161633"><ele>147.0</ele><time>2026-03-22T14:07:19.451Z</time></trkpt><trkpt lat="40.5215133" lon="16.7161"><ele>147.0</ele><time>2026-03-22T14:07:20.453Z</time></trkpt><trkpt lat="40.5215617" lon="16.7160367"><ele>147.0</ele><time>2026-03-22T14:07:21.451Z</time></trkpt><trkpt lat="40.5216083" lon="16.715975"><ele>147.57142857142858</ele><time>2026-03-22T14:07:22.452Z</time></trkpt><trkpt lat="40.5216533" lon="16.7159133"><ele>148.14285714285714</ele><time>2026-03-22T14:07:23.451Z</time></trkpt><trkpt lat="40.5217" lon="16.7158517"><ele>148.71428571428572</ele><time>2026-03-22T14:07:24.451Z</time></trkpt><trkpt lat="40.52175" lon="16.7157933"><ele>149.28571428571428</ele><time>2026-03-22T14:07:25.452Z</time></trkpt><trkpt lat="40.5218017" lon="16.7157383"><ele>149.85714285714286</ele><time>2026-03-22T14:07:26.455Z</time></trkpt><trkpt lat="40.5218517" lon="16.71568"><ele>150.42857142857144</ele><time>2026-03-22T14:07:27.454Z</time></trkpt><trkpt lat="40.5219" lon="16.7156233"><ele>151.0</ele><time>2026-03-22T14:07:28.452Z</time></trkpt><trkpt lat="40.521995" lon="16.7155167"><ele>151.0</ele><time>2026-03-22T14:07:30.452Z</time></trkpt><trkpt lat="40.5220417" lon="16.7154583"><ele>151.0</ele><time>2026-03-22T14:07:31.452Z</time></trkpt><trkpt lat="40.5220867" lon="16.7153967"><ele>151.0</ele><time>2026-03-22T14:07:32.453Z</time></trkpt><trkpt lat="40.52213" lon="16.7153317"><ele>151.0</ele><time>2026-03-22T14:07:33.452Z</time></trkpt><trkpt lat="40.522175" lon="16.715265"><ele>151.0</ele><time>2026-03-22T14:07:34.452Z</time></trkpt><trkpt lat="40.5222567" lon="16.7151633"><ele>151.0</ele><time>2026-03-22T14:07:36.452Z</time></trkpt><trkpt lat="40.52234" lon="16.71511"><ele>151.6</ele><time>2026-03-22T14:07:38.451Z</time></trkpt><trkpt lat="40.5224367" lon="16.7151283"><ele>152.2</ele><time>2026-03-22T14:07:40.452Z</time></trkpt><trkpt lat="40.522535" lon="16.7151733"><ele>152.8</ele><time>2026-03-22T14:07:42.452Z</time></trkpt><trkpt lat="40.5226333" lon="16.71522"><ele>153.4</ele><time>2026-03-22T14:07:44.453Z</time></trkpt><trkpt lat="40.5227333" lon="16.7152183"><ele>154.0</ele><time>2026-03-22T14:07:46.451Z</time></trkpt><trkpt lat="40.5228" lon="16.7151067"><ele>154.0</ele><time>2026-03-22T14:07:48.453Z</time></trkpt><trkpt lat="40.5228283" lon="16.7150267"><ele>154.0</ele><time>2026-03-22T14:07:49.453Z</time></trkpt><trkpt lat="40.52288" lon="16.7148817"><ele>154.0</ele><time>2026-03-22T14:07:51.452Z</time></trkpt><trkpt lat="40.5229017" lon="16.71473"><ele>154.0</ele><time>2026-03-22T14:07:53.451Z</time></trkpt><trkpt lat="40.5229133" lon="16.714645"><ele>154.0</ele><time>2026-03-22T14:07:54.452Z</time></trkpt><trkpt lat="40.5229383" lon="16.71455"><ele>154.0</ele><time>2026-03-22T14:07:55.452Z</time></trkpt><trkpt lat="40.5229767" lon="16.7144567"><ele>154.83333333333334</ele><time>2026-03-22T14:07:56.453Z</time></trkpt><trkpt lat="40.52302" lon="16.7143767"><ele>155.66666666666669</ele><time>2026-03-22T14:07:57.451Z</time></trkpt><trkpt lat="40.5230667" lon="16.7143167"><ele>156.5</ele><time>2026-03-22T14:07:58.45Z</time></trkpt><trkpt lat="40.5231183" lon="16.7142633"><ele>157.33333333333334</ele><time>2026-03-22T14:07:59.451Z</time></trkpt><trkpt lat="40.5231683" lon="16.7142083"><ele>158.16666666666666</ele><time>2026-03-22T14:08:00.452Z</time></trkpt><trkpt lat="40.52324" lon="16.7140717"><ele>159.0</ele><time>2026-03-22T14:08:02.452Z</time></trkpt><trkpt lat="40.5232683" lon="16.7139967"><ele>159.0</ele><time>2026-03-22T14:08:03.453Z</time></trkpt><trkpt lat="40.5233033" lon="16.7139267"><ele>159.0</ele><time>2026-03-22T14:08:04.452Z</time></trkpt><trkpt lat="40.5233467" lon="16.71386"><ele>159.0</ele><time>2026-03-22T14:08:05.452Z</time></trkpt><trkpt lat="40.523395" lon="16.7137983"><ele>159.0</ele><time>2026-03-22T14:08:06.452Z</time></trkpt><trkpt lat="40.5234433" lon="16.7137367"><ele>159.0</ele><time>2026-03-22T14:08:07.452Z</time></trkpt><trkpt lat="40.5234967" lon="16.7136717"><ele>159.0</ele><time>2026-03-22T14:08:08.453Z</time></trkpt><trkpt lat="40.5235517" lon="16.7136083"><ele>159.0</ele><time>2026-03-22T14:08:09.453Z</time></trkpt><trkpt lat="40.5236033" lon="16.7135433"><ele>159.42857142857142</ele><time>2026-03-22T14:08:10.452Z</time></trkpt><trkpt lat="40.52365" lon="16.7134717"><ele>159.85714285714286</ele><time>2026-03-22T14:08:11.451Z</time></trkpt><trkpt lat="40.523695" lon="16.7133967"><ele>160.28571428571428</ele><time>2026-03-22T14:08:12.453Z</time></trkpt><trkpt lat="40.523745" lon="16.713325"><ele>160.71428571428572</ele><time>2026-03-22T14:08:13.454Z</time></trkpt><trkpt lat="40.5237917" lon="16.7132567"><ele>161.14285714285714</ele><time>2026-03-22T14:08:14.453Z</time></trkpt><trkpt lat="40.523835" lon="16.7131867"><ele>161.57142857142858</ele><time>2026-03-22T14:08:15.453Z</time></trkpt><trkpt lat="40.52388" lon="16.7131183"><ele>162.0</ele><time>2026-03-22T14:08:16.452Z</time></trkpt><trkpt lat="40.5239217" lon="16.7130517"><ele>162.16666666666666</ele><time>2026-03-22T14:08:17.451Z</time></trkpt><trkpt lat="40.5239967" lon="16.712945"><ele>162.33333333333334</ele><time>2026-03-22T14:08:19.451Z</time></trkpt><trkpt lat="40.5240733" lon="16.7128383"><ele>162.5</ele><time>2026-03-22T14:08:21.451Z</time></trkpt><trkpt lat="40.52409" lon="16.7127583"><ele>162.66666666666669</ele><time>2026-03-22T14:08:22.455Z</time></trkpt><trkpt lat="40.5240917" lon="16.71266"><ele>162.83333333333334</ele><time>2026-03-22T14:08:23.451Z</time></trkpt><trkpt lat="40.5240783" lon="16.7125617"><ele>163.0</ele><time>2026-03-22T14:08:24.452Z</time></trkpt><trkpt lat="40.5240733" lon="16.712475"><ele>163.66666666666669</ele><time>2026-03-22T14:08:25.452Z</time></trkpt><trkpt lat="40.52407" lon="16.7123917"><ele>164.33333333333334</ele><time>2026-03-22T14:08:26.453Z</time></trkpt><trkpt lat="40.52409" lon="16.7122367"><ele>165.0</ele><time>2026-03-22T14:08:28.452Z</time></trkpt><trkpt lat="40.5241217" lon="16.712155"><ele>165.66666666666666</ele><time>2026-03-22T14:08:29.452Z</time></trkpt><trkpt lat="40.52417" lon="16.7120633"><ele>166.33333333333331</ele><time>2026-03-22T14:08:30.452Z</time></trkpt><trkpt lat="40.5242267" lon="16.711965"><ele>167.0</ele><time>2026-03-22T14:08:31.451Z</time></trkpt><trkpt lat="40.5242883" lon="16.7118667"><ele>167.16666666666666</ele><time>2026-03-22T14:08:32.452Z</time></trkpt><trkpt lat="40.5243483" lon="16.7117883"><ele>167.33333333333331</ele><time>2026-03-22T14:08:33.453Z</time></trkpt><trkpt lat="40.5244067" lon="16.7117133"><ele>167.5</ele><time>2026-03-22T14:08:34.452Z</time></trkpt><trkpt lat="40.5244583" lon="16.71165"><ele>167.66666666666666</ele><time>2026-03-22T14:08:35.453Z</time></trkpt><trkpt lat="40.5245033" lon="16.7115917"><ele>167.83333333333334</ele><time>2026-03-22T14:08:36.452Z</time></trkpt><trkpt lat="40.5245933" lon="16.71154"><ele>168.0</ele><time>2026-03-22T14:08:38.451Z</time></trkpt><trkpt lat="40.5246883" lon="16.7116117"><ele>168.4</ele><time>2026-03-22T14:08:40.452Z</time></trkpt><trkpt lat="40.5247333" lon="16.7116833"><ele>168.8</ele><time>2026-03-22T14:08:41.452Z</time></trkpt><trkpt lat="40.524775" lon="16.7117733"><ele>169.2</ele><time>2026-03-22T14:08:42.452Z</time></trkpt><trkpt lat="40.5248133" lon="16.7118467"><ele>169.6</ele><time>2026-03-22T14:08:43.452Z</time></trkpt><trkpt lat="40.5249183" lon="16.7119183"><ele>170.0</ele><time>2026-03-22T14:08:45.452Z</time></trkpt><trkpt lat="40.5250317" lon="16.7118867"><ele>170.33333333333331</ele><time>2026-03-22T14:08:47.452Z</time></trkpt><trkpt lat="40.525095" lon="16.7118133"><ele>170.66666666666666</ele><time>2026-03-22T14:08:48.452Z</time></trkpt><trkpt lat="40.5251567" lon="16.711725"><ele>171.0</ele><time>2026-03-22T14:08:49.455Z</time></trkpt><trkpt lat="40.5252167" lon="16.7116367"><ele>171.33333333333334</ele><time>2026-03-22T14:08:50.453Z</time></trkpt><trkpt lat="40.5252783" lon="16.711555"><ele>171.66666666666669</ele><time>2026-03-22T14:08:51.452Z</time></trkpt><trkpt lat="40.5253417" lon="16.7114767"><ele>172.0</ele><time>2026-03-22T14:08:52.453Z</time></trkpt><trkpt lat="40.5254017" lon="16.7114033"><ele>171.33333333333334</ele><time>2026-03-22T14:08:53.452Z</time></trkpt><trkpt lat="40.52546" lon="16.7113333"><ele>170.66666666666669</ele><time>2026-03-22T14:08:54.452Z</time></trkpt><trkpt lat="40.5255167" lon="16.7112683"><ele>170.0</ele><time>2026-03-22T14:08:55.451Z</time></trkpt><trkpt lat="40.52557" lon="16.7112067"><ele>169.33333333333334</ele><time>2026-03-22T14:08:56.453Z</time></trkpt><trkpt lat="40.5256133" lon="16.7111433"><ele>168.66666666666666</ele><time>2026-03-22T14:08:57.451Z</time></trkpt><trkpt lat="40.525645" lon="16.7110017"><ele>168.0</ele><time>2026-03-22T14:08:59.452Z</time></trkpt><trkpt lat="40.5256233" lon="16.7108767"><ele>168.0</ele><time>2026-03-22T14:09:01.453Z</time></trkpt><trkpt lat="40.5255583" lon="16.7107533"><ele>168.0</ele><time>2026-03-22T14:09:03.452Z</time></trkpt><trkpt lat="40.52551" lon="16.7106167"><ele>168.0</ele><time>2026-03-22T14:09:05.452Z</time></trkpt><trkpt lat="40.525505" lon="16.7104733"><ele>168.0</ele><time>2026-03-22T14:09:07.453Z</time></trkpt><trkpt lat="40.5255567" lon="16.7103483"><ele>168.0</ele><time>2026-03-22T14:09:09.452Z</time></trkpt><trkpt lat="40.5256283" lon="16.710225"><ele>168.60000000000002</ele><time>2026-03-22T14:09:11.452Z</time></trkpt><trkpt lat="40.5256917" lon="16.7100933"><ele>169.20000000000002</ele><time>2026-03-22T14:09:13.452Z</time></trkpt><trkpt lat="40.5257217" lon="16.7100167"><ele>169.8</ele><time>2026-03-22T14:09:14.452Z</time></trkpt><trkpt lat="40.5257617" lon="16.7098567"><ele>170.4</ele><time>2026-03-22T14:09:16.452Z</time></trkpt><trkpt lat="40.5257767" lon="16.7097617"><ele>171.0</ele><time>2026-03-22T14:09:17.452Z</time></trkpt><trkpt lat="40.52578" lon="16.7096667"><ele>171.0</ele><time>2026-03-22T14:09:18.45Z</time></trkpt><trkpt lat="40.5257783" lon="16.7095717"><ele>171.0</ele><time>2026-03-22T14:09:19.451Z</time></trkpt><trkpt lat="40.5257767" lon="16.7094833"><ele>171.0</ele><time>2026-03-22T14:09:20.453Z</time></trkpt><trkpt lat="40.5257733" lon="16.7093967"><ele>171.0</ele><time>2026-03-22T14:09:21.452Z</time></trkpt><trkpt lat="40.5257733" lon="16.7093083"><ele>171.0</ele><time>2026-03-22T14:09:22.452Z</time></trkpt><trkpt lat="40.52577" lon="16.7092233"><ele>171.0</ele><time>2026-03-22T14:09:23.451Z</time></trkpt><trkpt lat="40.5258067" lon="16.7090717"><ele>172.16666666666666</ele><time>2026-03-22T14:09:25.455Z</time></trkpt><trkpt lat="40.525905" lon="16.70896"><ele>173.33333333333334</ele><time>2026-03-22T14:09:27.453Z</time></trkpt><trkpt lat="40.5259617" lon="16.7089217"><ele>174.5</ele><time>2026-03-22T14:09:28.451Z</time></trkpt><trkpt lat="40.526015" lon="16.7088767"><ele>175.66666666666669</ele><time>2026-03-22T14:09:29.452Z</time></trkpt><trkpt lat="40.5260683" lon="16.708825"><ele>176.83333333333334</ele><time>2026-03-22T14:09:30.452Z</time></trkpt><trkpt lat="40.52612" lon="16.7087733"><ele>178.0</ele><time>2026-03-22T14:09:31.455Z</time></trkpt><trkpt lat="40.5262017" lon="16.7086717"><ele>178.4</ele><time>2026-03-22T14:09:33.452Z</time></trkpt><trkpt lat="40.52623" lon="16.7085217"><ele>178.8</ele><time>2026-03-22T14:09:35.452Z</time></trkpt><trkpt lat="40.52621" lon="16.70842"><ele>179.2</ele><time>2026-03-22T14:09:36.452Z</time></trkpt><trkpt lat="40.5261667" lon="16.70831"><ele>179.6</ele><time>2026-03-22T14:09:37.451Z</time></trkpt><trkpt lat="40.526115" lon="16.7082"><ele>180.0</ele><time>2026-03-22T14:09:38.452Z</time></trkpt><trkpt lat="40.526065" lon="16.7080933"><ele>180.0</ele><time>2026-03-22T14:09:39.451Z</time></trkpt><trkpt lat="40.5260233" lon="16.7079917"><ele>180.0</ele><time>2026-03-22T14:09:40.452Z</time></trkpt><trkpt lat="40.5259933" lon="16.7078933"><ele>180.0</ele><time>2026-03-22T14:09:41.452Z</time></trkpt><trkpt lat="40.52597" lon="16.707795"><ele>180.0</ele><time>2026-03-22T14:09:42.453Z</time></trkpt><trkpt lat="40.5259467" lon="16.70769"><ele>180.0</ele><time>2026-03-22T14:09:43.452Z</time></trkpt><trkpt lat="40.5259133" lon="16.7075817"><ele>180.0</ele><time>2026-03-22T14:09:44.452Z</time></trkpt><trkpt lat="40.5258533" lon="16.7074683"><ele>180.2</ele><time>2026-03-22T14:09:45.452Z</time></trkpt><trkpt lat="40.52579" lon="16.7073633"><ele>180.4</ele><time>2026-03-22T14:09:46.451Z</time></trkpt><trkpt lat="40.5257367" lon="16.7072617"><ele>180.60000000000002</ele><time>2026-03-22T14:09:47.452Z</time></trkpt><trkpt lat="40.5256867" lon="16.7071583"><ele>180.8</ele><time>2026-03-22T14:09:48.453Z</time></trkpt><trkpt lat="40.5256417" lon="16.70706"><ele>181.0</ele><time>2026-03-22T14:09:49.452Z</time></trkpt><trkpt lat="40.5256" lon="16.70696"><ele>180.83333333333334</ele><time>2026-03-22T14:09:50.453Z</time></trkpt><trkpt lat="40.5255667" lon="16.7068533"><ele>180.66666666666669</ele><time>2026-03-22T14:09:51.452Z</time></trkpt><trkpt lat="40.52555" lon="16.7067383"><ele>180.5</ele><time>2026-03-22T14:09:52.452Z</time></trkpt><trkpt lat="40.5255433" lon="16.7066183"><ele>180.33333333333334</ele><time>2026-03-22T14:09:53.452Z</time></trkpt><trkpt lat="40.5255467" lon="16.7064983"><ele>180.16666666666666</ele><time>2026-03-22T14:09:54.452Z</time></trkpt><trkpt lat="40.5255483" lon="16.70638"><ele>180.0</ele><time>2026-03-22T14:09:55.452Z</time></trkpt><trkpt lat="40.525545" lon="16.7062617"><ele>180.0</ele><time>2026-03-22T14:09:56.453Z</time></trkpt><trkpt lat="40.5255283" lon="16.7061483"><ele>180.0</ele><time>2026-03-22T14:09:57.452Z</time></trkpt><trkpt lat="40.5255" lon="16.7060367"><ele>180.0</ele><time>2026-03-22T14:09:58.451Z</time></trkpt><trkpt lat="40.5254617" lon="16.705925"><ele>180.0</ele><time>2026-03-22T14:09:59.451Z</time></trkpt><trkpt lat="40.5254217" lon="16.70581"><ele>180.0</ele><time>2026-03-22T14:10:00.452Z</time></trkpt><trkpt lat="40.52538" lon="16.7056933"><ele>181.0</ele><time>2026-03-22T14:10:01.453Z</time></trkpt><trkpt lat="40.52534" lon="16.7055717"><ele>182.0</ele><time>2026-03-22T14:10:02.453Z</time></trkpt><trkpt lat="40.5253017" lon="16.7054483"><ele>183.0</ele><time>2026-03-22T14:10:03.452Z</time></trkpt><trkpt lat="40.52526" lon="16.705325"><ele>184.0</ele><time>2026-03-22T14:10:04.453Z</time></trkpt><trkpt lat="40.52522" lon="16.7052017"><ele>185.0</ele><time>2026-03-22T14:10:05.452Z</time></trkpt><trkpt lat="40.52518" lon="16.70508"><ele>185.2</ele><time>2026-03-22T14:10:06.452Z</time></trkpt><trkpt lat="40.52514" lon="16.7049583"><ele>185.4</ele><time>2026-03-22T14:10:07.452Z</time></trkpt><trkpt lat="40.5251" lon="16.7048433"><ele>185.60000000000002</ele><time>2026-03-22T14:10:08.453Z</time></trkpt><trkpt lat="40.5250583" lon="16.7047283"><ele>185.8</ele><time>2026-03-22T14:10:09.452Z</time></trkpt><trkpt lat="40.5250167" lon="16.704615"><ele>186.0</ele><time>2026-03-22T14:10:10.452Z</time></trkpt><trkpt lat="40.52498" lon="16.7045017"><ele>186.4</ele><time>2026-03-22T14:10:11.452Z</time></trkpt><trkpt lat="40.524945" lon="16.7043917"><ele>186.8</ele><time>2026-03-22T14:10:12.453Z</time></trkpt><trkpt lat="40.5249083" lon="16.70428"><ele>187.20000000000002</ele><time>2026-03-22T14:10:13.452Z</time></trkpt><trkpt lat="40.52487" lon="16.704175"><ele>187.60000000000002</ele><time>2026-03-22T14:10:14.452Z</time></trkpt><trkpt lat="40.5248283" lon="16.7040717"><ele>188.0</ele><time>2026-03-22T14:10:15.452Z</time></trkpt><trkpt lat="40.52479" lon="16.703965"><ele>188.0</ele><time>2026-03-22T14:10:16.452Z</time></trkpt><trkpt lat="40.5247567" lon="16.703855"><ele>188.0</ele><time>2026-03-22T14:10:17.451Z</time></trkpt><trkpt lat="40.524725" lon="16.7037433"><ele>188.0</ele><time>2026-03-22T14:10:18.451Z</time></trkpt><trkpt lat="40.524695" lon="16.7036267"><ele>188.0</ele><time>2026-03-22T14:10:19.451Z</time></trkpt><trkpt lat="40.5246683" lon="16.70351"><ele>188.0</ele><time>2026-03-22T14:10:20.453Z</time></trkpt><trkpt lat="40.5246417" lon="16.703395"><ele>188.2</ele><time>2026-03-22T14:10:21.452Z</time></trkpt><trkpt lat="40.5246133" lon="16.7032783"><ele>188.4</ele><time>2026-03-22T14:10:22.453Z</time></trkpt><trkpt lat="40.5245883" lon="16.70316"><ele>188.6</ele><time>2026-03-22T14:10:23.453Z</time></trkpt><trkpt lat="40.5245667" lon="16.70304"><ele>188.79999999999998</ele><time>2026-03-22T14:10:24.452Z</time></trkpt><trkpt lat="40.5245433" lon="16.70292"><ele>189.0</ele><time>2026-03-22T14:10:25.452Z</time></trkpt><trkpt lat="40.5245183" lon="16.7028"><ele>189.2</ele><time>2026-03-22T14:10:26.453Z</time></trkpt><trkpt lat="40.5244917" lon="16.7026833"><ele>189.39999999999998</ele><time>2026-03-22T14:10:27.452Z</time></trkpt><trkpt lat="40.52446" lon="16.7025667"><ele>189.6</ele><time>2026-03-22T14:10:28.453Z</time></trkpt><trkpt lat="40.5244283" lon="16.7024483"><ele>189.8</ele><time>2026-03-22T14:10:29.452Z</time></trkpt><trkpt lat="40.524395" lon="16.702315"><ele>190.0</ele><time>2026-03-22T14:10:30.452Z</time></trkpt><trkpt lat="40.52436" lon="16.70217"><ele>190.0</ele><time>2026-03-22T14:10:31.451Z</time></trkpt><trkpt lat="40.52433" lon="16.7020383"><ele>190.0</ele><time>2026-03-22T14:10:32.453Z</time></trkpt><trkpt lat="40.5242983" lon="16.7019117"><ele>190.0</ele><time>2026-03-22T14:10:33.453Z</time></trkpt><trkpt lat="40.5242717" lon="16.7017883"><ele>190.0</ele><time>2026-03-22T14:10:34.453Z</time></trkpt><trkpt lat="40.5242483" lon="16.7016717"><ele>190.0</ele><time>2026-03-22T14:10:35.454Z</time></trkpt><trkpt lat="40.524225" lon="16.7015583"><ele>190.33333333333334</ele><time>2026-03-22T14:10:36.452Z</time></trkpt><trkpt lat="40.5242" lon="16.7014433"><ele>190.66666666666669</ele><time>2026-03-22T14:10:37.451Z</time></trkpt><trkpt lat="40.5241767" lon="16.7013283"><ele>191.0</ele><time>2026-03-22T14:10:38.453Z</time></trkpt><trkpt lat="40.5241517" lon="16.701215"><ele>191.33333333333334</ele><time>2026-03-22T14:10:39.451Z</time></trkpt><trkpt lat="40.5241283" lon="16.7011067"><ele>191.66666666666666</ele><time>2026-03-22T14:10:40.453Z</time></trkpt><trkpt lat="40.524105" lon="16.70101"><ele>192.0</ele><time>2026-03-22T14:10:41.452Z</time></trkpt><trkpt lat="40.5240783" lon="16.7009217"><ele>192.0</ele><time>2026-03-22T14:10:42.452Z</time></trkpt><trkpt lat="40.5240217" lon="16.700825"><ele>192.0</ele><time>2026-03-22T14:10:44.452Z</time></trkpt><trkpt lat="40.5239567" lon="16.700855"><ele>192.0</ele><time>2026-03-22T14:10:47.451Z</time></trkpt><trkpt lat="40.5239117" lon="16.70096"><ele>192.0</ele><time>2026-03-22T14:11:00.452Z</time></trkpt><trkpt lat="40.5238867" lon="16.7010817"><ele>192.0</ele><time>2026-03-22T14:11:02.453Z</time></trkpt><trkpt lat="40.52388" lon="16.7012067"><ele>192.0</ele><time>2026-03-22T14:11:04.452Z</time></trkpt><trkpt lat="40.5238717" lon="16.7013083"><ele>192.0</ele><time>2026-03-22T14:11:06.451Z</time></trkpt><trkpt lat="40.5238467" lon="16.7013867"><ele>192.0</ele><time>2026-03-22T14:11:08.452Z</time></trkpt><trkpt lat="40.5238067" lon="16.7014833"><ele>192.0</ele><time>2026-03-22T14:11:11.452Z</time></trkpt><trkpt lat="40.5237717" lon="16.7015717"><ele>192.0</ele><time>2026-03-22T14:11:32.451Z</time></trkpt><trkpt lat="40.523735" lon="16.7016867"><ele>192.0</ele><time>2026-03-22T14:11:34.452Z</time></trkpt><trkpt lat="40.5237033" lon="16.701845"><ele>192.0</ele><time>2026-03-22T14:11:36.452Z</time></trkpt><trkpt lat="40.5236917" lon="16.7019283"><ele>191.7142857142857</ele><time>2026-03-22T14:11:37.451Z</time></trkpt><trkpt lat="40.523675" lon="16.7020083"><ele>191.42857142857142</ele><time>2026-03-22T14:11:38.453Z</time></trkpt><trkpt lat="40.5236533" lon="16.7020867"><ele>191.14285714285714</ele><time>2026-03-22T14:11:39.451Z</time></trkpt><trkpt lat="40.5235917" lon="16.7022317"><ele>190.85714285714283</ele><time>2026-03-22T14:11:41.452Z</time></trkpt><trkpt lat="40.5235483" lon="16.7022983"><ele>190.57142857142858</ele><time>2026-03-22T14:11:42.452Z</time></trkpt><trkpt lat="40.5235" lon="16.702355"><ele>190.28571428571428</ele><time>2026-03-22T14:11:43.452Z</time></trkpt><trkpt lat="40.52345" lon="16.7024083"><ele>190.0</ele><time>2026-03-22T14:11:44.533Z</time></trkpt><trkpt lat="40.52336" lon="16.7025067"><ele>190.0</ele><time>2026-03-22T14:11:46.452Z</time></trkpt><trkpt lat="40.523285" lon="16.7026217"><ele>190.0</ele><time>2026-03-22T14:11:48.454Z</time></trkpt><trkpt lat="40.523215" lon="16.7027483"><ele>190.0</ele><time>2026-03-22T14:11:50.453Z</time></trkpt><trkpt lat="40.5231433" lon="16.7028733"><ele>190.0</ele><time>2026-03-22T14:11:52.452Z</time></trkpt><trkpt lat="40.5230733" lon="16.7029983"><ele>189.66666666666669</ele><time>2026-03-22T14:11:54.452Z</time></trkpt><trkpt lat="40.5230067" lon="16.7031267"><ele>189.33333333333334</ele><time>2026-03-22T14:11:56.452Z</time></trkpt><trkpt lat="40.5229733" lon="16.7032"><ele>189.0</ele><time>2026-03-22T14:11:57.451Z</time></trkpt><trkpt lat="40.5229383" lon="16.703275"><ele>188.66666666666666</ele><time>2026-03-22T14:11:58.451Z</time></trkpt><trkpt lat="40.5229033" lon="16.7033483"><ele>188.33333333333331</ele><time>2026-03-22T14:11:59.451Z</time></trkpt><trkpt lat="40.52283" lon="16.7034817"><ele>188.0</ele><time>2026-03-22T14:12:01.453Z</time></trkpt><trkpt lat="40.5227833" lon="16.7035433"><ele>187.57142857142856</ele><time>2026-03-22T14:12:02.452Z</time></trkpt><trkpt lat="40.5227333" lon="16.7035983"><ele>187.14285714285714</ele><time>2026-03-22T14:12:03.452Z</time></trkpt><trkpt lat="40.5226783" lon="16.7036483"><ele>186.71428571428572</ele><time>2026-03-22T14:12:04.453Z</time></trkpt><trkpt lat="40.5226267" lon="16.7037"><ele>186.28571428571428</ele><time>2026-03-22T14:12:05.452Z</time></trkpt><trkpt lat="40.5225833" lon="16.7037633"><ele>185.85714285714286</ele><time>2026-03-22T14:12:06.454Z</time></trkpt><trkpt lat="40.52254" lon="16.7038283"><ele>185.42857142857142</ele><time>2026-03-22T14:12:07.453Z</time></trkpt><trkpt lat="40.5224967" lon="16.70389"><ele>185.0</ele><time>2026-03-22T14:12:08.452Z</time></trkpt><trkpt lat="40.52245" lon="16.7039467"><ele>185.0</ele><time>2026-03-22T14:12:09.452Z</time></trkpt><trkpt lat="40.5223667" lon="16.7040517"><ele>185.0</ele><time>2026-03-22T14:12:11.452Z</time></trkpt><trkpt lat="40.5223033" lon="16.7041567"><ele>185.0</ele><time>2026-03-22T14:12:13.452Z</time></trkpt><trkpt lat="40.522255" lon="16.704275"><ele>185.0</ele><time>2026-03-22T14:12:15.452Z</time></trkpt><trkpt lat="40.52221" lon="16.7043983"><ele>185.0</ele><time>2026-03-22T14:12:17.451Z</time></trkpt><trkpt lat="40.5221817" lon="16.704475"><ele>184.4</ele><time>2026-03-22T14:12:18.452Z</time></trkpt><trkpt lat="40.5221367" lon="16.7045567"><ele>183.8</ele><time>2026-03-22T14:12:19.451Z</time></trkpt><trkpt lat="40.522065" lon="16.7046433"><ele>183.2</ele><time>2026-03-22T14:12:20.453Z</time></trkpt><trkpt lat="40.5219917" lon="16.7047267"><ele>182.6</ele><time>2026-03-22T14:12:21.452Z</time></trkpt><trkpt lat="40.521925" lon="16.70481"><ele>182.0</ele><time>2026-03-22T14:12:22.453Z</time></trkpt><trkpt lat="40.521865" lon="16.704895"><ele>181.57142857142858</ele><time>2026-03-22T14:12:23.452Z</time></trkpt><trkpt lat="40.5218133" lon="16.704975"><ele>181.14285714285714</ele><time>2026-03-22T14:12:24.452Z</time></trkpt><trkpt lat="40.521765" lon="16.7050483"><ele>180.71428571428572</ele><time>2026-03-22T14:12:25.452Z</time></trkpt><trkpt lat="40.521715" lon="16.7051167"><ele>180.28571428571428</ele><time>2026-03-22T14:12:26.453Z</time></trkpt><trkpt lat="40.521665" lon="16.705185"><ele>179.85714285714286</ele><time>2026-03-22T14:12:27.452Z</time></trkpt><trkpt lat="40.521615" lon="16.7052533"><ele>179.42857142857144</ele><time>2026-03-22T14:12:28.454Z</time></trkpt><trkpt lat="40.5215667" lon="16.705325"><ele>179.0</ele><time>2026-03-22T14:12:29.452Z</time></trkpt><trkpt lat="40.521515" lon="16.705395"><ele>179.00000000000003</ele><time>2026-03-22T14:12:30.453Z</time></trkpt><trkpt lat="40.5214633" lon="16.7054617"><ele>179.0</ele><time>2026-03-22T14:12:31.453Z</time></trkpt><trkpt lat="40.52141" lon="16.7055267"><ele>179.0</ele><time>2026-03-22T14:12:32.454Z</time></trkpt><trkpt lat="40.521355" lon="16.7055883"><ele>179.0</ele><time>2026-03-22T14:12:33.452Z</time></trkpt><trkpt lat="40.5213017" lon="16.7056483"><ele>179.0</ele><time>2026-03-22T14:12:34.453Z</time></trkpt><trkpt lat="40.52125" lon="16.7057033"><ele>179.00000000000003</ele><time>2026-03-22T14:12:35.452Z</time></trkpt><trkpt lat="40.5211983" lon="16.705765"><ele>179.0</ele><time>2026-03-22T14:12:36.454Z</time></trkpt><trkpt lat="40.5211483" lon="16.705835"><ele>178.71428571428572</ele><time>2026-03-22T14:12:37.451Z</time></trkpt><trkpt lat="40.5210983" lon="16.7059"><ele>178.42857142857144</ele><time>2026-03-22T14:12:38.451Z</time></trkpt><trkpt lat="40.52105" lon="16.7059683"><ele>178.14285714285717</ele><time>2026-03-22T14:12:39.452Z</time></trkpt><trkpt lat="40.521005" lon="16.7060417"><ele>177.85714285714286</ele><time>2026-03-22T14:12:40.452Z</time></trkpt><trkpt lat="40.520965" lon="16.70612"><ele>177.57142857142856</ele><time>2026-03-22T14:12:41.452Z</time></trkpt><trkpt lat="40.5209267" lon="16.7062"><ele>177.2857142857143</ele><time>2026-03-22T14:12:42.452Z</time></trkpt><trkpt lat="40.52089" lon="16.7062817"><ele>177.0</ele><time>2026-03-22T14:12:43.455Z</time></trkpt><trkpt lat="40.5208583" lon="16.7063667"><ele>176.85714285714286</ele><time>2026-03-22T14:12:44.453Z</time></trkpt><trkpt lat="40.5208233" lon="16.7064483"><ele>176.7142857142857</ele><time>2026-03-22T14:12:45.453Z</time></trkpt><trkpt lat="40.5207883" lon="16.7065267"><ele>176.57142857142856</ele><time>2026-03-22T14:12:46.454Z</time></trkpt><trkpt lat="40.5207483" lon="16.7066017"><ele>176.42857142857144</ele><time>2026-03-22T14:12:47.452Z</time></trkpt><trkpt lat="40.520705" lon="16.7066783"><ele>176.28571428571428</ele><time>2026-03-22T14:12:48.453Z</time></trkpt><trkpt lat="40.5206517" lon="16.7067467"><ele>176.14285714285714</ele><time>2026-03-22T14:12:49.452Z</time></trkpt><trkpt lat="40.5205917" lon="16.7068017"><ele>176.0</ele><time>2026-03-22T14:12:50.453Z</time></trkpt><trkpt lat="40.5205317" lon="16.7068417"><ele>176.0</ele><time>2026-03-22T14:12:51.452Z</time></trkpt><trkpt lat="40.52047" lon="16.706885"><ele>176.0</ele><time>2026-03-22T14:12:52.452Z</time></trkpt><trkpt lat="40.52041" lon="16.706935"><ele>176.0</ele><time>2026-03-22T14:12:53.453Z</time></trkpt><trkpt lat="40.5203517" lon="16.7069933"><ele>176.0</ele><time>2026-03-22T14:12:54.452Z</time></trkpt><trkpt lat="40.5202967" lon="16.70705"><ele>176.0</ele><time>2026-03-22T14:12:55.452Z</time></trkpt><trkpt lat="40.520245" lon="16.7071067"><ele>176.0</ele><time>2026-03-22T14:12:56.453Z</time></trkpt><trkpt lat="40.5201983" lon="16.7071633"><ele>176.0</ele><time>2026-03-22T14:12:57.454Z</time></trkpt><trkpt lat="40.52015" lon="16.707225"><ele>175.20000000000002</ele><time>2026-03-22T14:12:59.451Z</time></trkpt><trkpt lat="40.5201167" lon="16.7073"><ele>174.4</ele><time>2026-03-22T14:13:10.452Z</time></trkpt><trkpt lat="40.5200283" lon="16.7073867"><ele>173.6</ele><time>2026-03-22T14:13:12.453Z</time></trkpt><trkpt lat="40.5199267" lon="16.7074483"><ele>172.8</ele><time>2026-03-22T14:13:14.452Z</time></trkpt><trkpt lat="40.5198017" lon="16.707475"><ele>172.0</ele><time>2026-03-22T14:13:16.453Z</time></trkpt><trkpt lat="40.5197417" lon="16.7075017"><ele>172.0</ele><time>2026-03-22T14:13:17.451Z</time></trkpt><trkpt lat="40.51968" lon="16.7075333"><ele>172.0</ele><time>2026-03-22T14:13:18.452Z</time></trkpt><trkpt lat="40.51962" lon="16.7075633"><ele>172.0</ele><time>2026-03-22T14:13:19.451Z</time></trkpt><trkpt lat="40.5194983" lon="16.70761"><ele>172.0</ele><time>2026-03-22T14:13:21.452Z</time></trkpt><trkpt lat="40.51938" lon="16.707655"><ele>172.0</ele><time>2026-03-22T14:13:23.452Z</time></trkpt><trkpt lat="40.519265" lon="16.707695"><ele>171.39999999999998</ele><time>2026-03-22T14:13:25.453Z</time></trkpt><trkpt lat="40.519205" lon="16.7077317"><ele>170.79999999999998</ele><time>2026-03-22T14:13:26.453Z</time></trkpt><trkpt lat="40.5191517" lon="16.7077767"><ele>170.2</ele><time>2026-03-22T14:13:27.452Z</time></trkpt><trkpt lat="40.5190517" lon="16.70783"><ele>169.6</ele><time>2026-03-22T14:13:29.452Z</time></trkpt><trkpt lat="40.5189667" lon="16.7079"><ele>169.0</ele><time>2026-03-22T14:13:31.452Z</time></trkpt><trkpt lat="40.5188867" lon="16.70803"><ele>168.83333333333334</ele><time>2026-03-22T14:13:33.452Z</time></trkpt><trkpt lat="40.5188467" lon="16.708095"><ele>168.66666666666669</ele><time>2026-03-22T14:13:34.452Z</time></trkpt><trkpt lat="40.5187483" lon="16.7081767"><ele>168.5</ele><time>2026-03-22T14:13:36.452Z</time></trkpt><trkpt lat="40.5186483" lon="16.7082217"><ele>168.33333333333334</ele><time>2026-03-22T14:13:38.452Z</time></trkpt><trkpt lat="40.5185967" lon="16.7082767"><ele>168.16666666666666</ele><time>2026-03-22T14:13:39.451Z</time></trkpt><trkpt lat="40.51854" lon="16.708345"><ele>168.0</ele><time>2026-03-22T14:13:40.453Z</time></trkpt><trkpt lat="40.5184867" lon="16.70841"><ele>167.5</ele><time>2026-03-22T14:13:41.456Z</time></trkpt><trkpt lat="40.5184283" lon="16.7084767"><ele>167.0</ele><time>2026-03-22T14:13:42.452Z</time></trkpt><trkpt lat="40.51838" lon="16.7085383"><ele>166.5</ele><time>2026-03-22T14:13:43.453Z</time></trkpt><trkpt lat="40.5183317" lon="16.708595"><ele>166.0</ele><time>2026-03-22T14:13:44.453Z</time></trkpt><trkpt lat="40.5182467" lon="16.70869"><ele>165.5</ele><time>2026-03-22T14:13:46.452Z</time></trkpt><trkpt lat="40.5181817" lon="16.7087683"><ele>165.0</ele><time>2026-03-22T14:13:48.455Z</time></trkpt><trkpt lat="40.5181283" lon="16.7088217"><ele>164.4</ele><time>2026-03-22T14:13:50.453Z</time></trkpt><trkpt lat="40.51807" lon="16.7088783"><ele>163.8</ele><time>2026-03-22T14:13:52.452Z</time></trkpt><trkpt lat="40.5179967" lon="16.7089533"><ele>163.2</ele><time>2026-03-22T14:13:54.452Z</time></trkpt><trkpt lat="40.5179233" lon="16.7090517"><ele>162.6</ele><time>2026-03-22T14:13:56.453Z</time></trkpt><trkpt lat="40.51785" lon="16.7091533"><ele>162.0</ele><time>2026-03-22T14:13:58.451Z</time></trkpt><trkpt lat="40.5177633" lon="16.7092567"><ele>161.0</ele><time>2026-03-22T14:14:00.452Z</time></trkpt><trkpt lat="40.517695" lon="16.7093517"><ele>160.0</ele><time>2026-03-22T14:14:02.452Z</time></trkpt><trkpt lat="40.5176383" lon="16.7094633"><ele>159.0</ele><time>2026-03-22T14:14:04.452Z</time></trkpt><trkpt lat="40.5175467" lon="16.7095667"><ele>158.0</ele><time>2026-03-22T14:14:06.455Z</time></trkpt><trkpt lat="40.5174617" lon="16.7096783"><ele>157.0</ele><time>2026-03-22T14:14:08.452Z</time></trkpt><trkpt lat="40.5174017" lon="16.7098033"><ele>157.0</ele><time>2026-03-22T14:14:10.452Z</time></trkpt><trkpt lat="40.5173517" lon="16.7099383"><ele>157.0</ele><time>2026-03-22T14:14:12.452Z</time></trkpt><trkpt lat="40.5172917" lon="16.7100667"><ele>157.0</ele><time>2026-03-22T14:14:14.453Z</time></trkpt><trkpt lat="40.5172233" lon="16.710205"><ele>157.0</ele><time>2026-03-22T14:14:16.452Z</time></trkpt><trkpt lat="40.5171867" lon="16.7102767"><ele>157.0</ele><time>2026-03-22T14:14:17.451Z</time></trkpt><trkpt lat="40.5171467" lon="16.7103467"><ele>156.33333333333334</ele><time>2026-03-22T14:14:18.451Z</time></trkpt><trkpt lat="40.5171033" lon="16.7104167"><ele>155.66666666666669</ele><time>2026-03-22T14:14:19.453Z</time></trkpt><trkpt lat="40.5170583" lon="16.7104883"><ele>155.0</ele><time>2026-03-22T14:14:20.453Z</time></trkpt><trkpt lat="40.5170183" lon="16.7105683"><ele>154.33333333333334</ele><time>2026-03-22T14:14:21.456Z</time></trkpt><trkpt lat="40.5169833" lon="16.710645"><ele>153.66666666666666</ele><time>2026-03-22T14:14:22.452Z</time></trkpt><trkpt lat="40.5169567" lon="16.7107233"><ele>153.0</ele><time>2026-03-22T14:14:23.452Z</time></trkpt><trkpt lat="40.5169283" lon="16.7108717"><ele>152.5</ele><time>2026-03-22T14:14:25.452Z</time></trkpt><trkpt lat="40.5168883" lon="16.7110167"><ele>152.0</ele><time>2026-03-22T14:14:27.453Z</time></trkpt><trkpt lat="40.51684" lon="16.71116"><ele>151.5</ele><time>2026-03-22T14:14:29.452Z</time></trkpt><trkpt lat="40.5167967" lon="16.711305"><ele>151.0</ele><time>2026-03-22T14:14:31.455Z</time></trkpt><trkpt lat="40.5167733" lon="16.7114533"><ele>150.83333333333334</ele><time>2026-03-22T14:14:33.452Z</time></trkpt><trkpt lat="40.5167333" lon="16.7116"><ele>150.66666666666669</ele><time>2026-03-22T14:14:35.452Z</time></trkpt><trkpt lat="40.5167017" lon="16.711755"><ele>150.5</ele><time>2026-03-22T14:14:37.451Z</time></trkpt><trkpt lat="40.5166933" lon="16.7118433"><ele>150.33333333333334</ele><time>2026-03-22T14:14:38.454Z</time></trkpt><trkpt lat="40.516685" lon="16.7119333"><ele>150.16666666666666</ele><time>2026-03-22T14:14:39.452Z</time></trkpt><trkpt lat="40.5166783" lon="16.7120217"><ele>150.0</ele><time>2026-03-22T14:14:40.452Z</time></trkpt><trkpt lat="40.5166717" lon="16.71211"><ele>149.2</ele><time>2026-03-22T14:14:41.454Z</time></trkpt><trkpt lat="40.5166783" lon="16.71227"><ele>148.4</ele><time>2026-03-22T14:14:43.453Z</time></trkpt><trkpt lat="40.5166433" lon="16.7124183"><ele>147.6</ele><time>2026-03-22T14:14:45.453Z</time></trkpt><trkpt lat="40.5166167" lon="16.712495"><ele>146.8</ele><time>2026-03-22T14:14:46.452Z</time></trkpt><trkpt lat="40.5165667" lon="16.712635"><ele>146.0</ele><time>2026-03-22T14:14:48.453Z</time></trkpt><trkpt lat="40.5165167" lon="16.7127767"><ele>145.5</ele><time>2026-03-22T14:14:50.453Z</time></trkpt><trkpt lat="40.5164617" lon="16.7129267"><ele>145.0</ele><time>2026-03-22T14:14:52.452Z</time></trkpt><trkpt lat="40.5164267" lon="16.7130017"><ele>144.5</ele><time>2026-03-22T14:14:53.452Z</time></trkpt><trkpt lat="40.5163933" lon="16.7130767"><ele>144.0</ele><time>2026-03-22T14:14:54.452Z</time></trkpt><trkpt lat="40.5163617" lon="16.713155"><ele>143.5</ele><time>2026-03-22T14:14:55.452Z</time></trkpt><trkpt lat="40.5163333" lon="16.7132333"><ele>143.0</ele><time>2026-03-22T14:14:56.453Z</time></trkpt><trkpt lat="40.5163017" lon="16.7133083"><ele>143.0</ele><time>2026-03-22T14:14:57.451Z</time></trkpt><trkpt lat="40.51627" lon="16.71338"><ele>143.0</ele><time>2026-03-22T14:14:58.452Z</time></trkpt><trkpt lat="40.5162333" lon="16.7134483"><ele>143.0</ele><time>2026-03-22T14:14:59.452Z</time></trkpt><trkpt lat="40.5161717" lon="16.7135683"><ele>143.0</ele><time>2026-03-22T14:15:01.452Z</time></trkpt><trkpt lat="40.5161167" lon="16.7137067"><ele>143.0</ele><time>2026-03-22T14:15:03.452Z</time></trkpt><trkpt lat="40.5160917" lon="16.7137833"><ele>143.0</ele><time>2026-03-22T14:15:04.452Z</time></trkpt><trkpt lat="40.5160383" lon="16.71392"><ele>142.8</ele><time>2026-03-22T14:15:06.452Z</time></trkpt><trkpt lat="40.5159833" lon="16.7140483"><ele>142.60000000000002</ele><time>2026-03-22T14:15:08.454Z</time></trkpt><trkpt lat="40.515935" lon="16.7141767"><ele>142.39999999999998</ele><time>2026-03-22T14:15:10.452Z</time></trkpt><trkpt lat="40.51589" lon="16.714265"><ele>142.2</ele><time>2026-03-22T14:15:12.452Z</time></trkpt><trkpt lat="40.5158533" lon="16.71435"><ele>142.0</ele><time>2026-03-22T14:15:15.453Z</time></trkpt><trkpt lat="40.5158217" lon="16.7144517"><ele>140.85714285714286</ele><time>2026-03-22T14:15:18.452Z</time></trkpt><trkpt lat="40.5157983" lon="16.7145617"><ele>139.7142857142857</ele><time>2026-03-22T14:15:21.452Z</time></trkpt><trkpt lat="40.51579" lon="16.714655"><ele>138.57142857142856</ele><time>2026-03-22T14:15:24.452Z</time></trkpt><trkpt lat="40.5157933" lon="16.7147483"><ele>137.42857142857142</ele><time>2026-03-22T14:15:27.452Z</time></trkpt><trkpt lat="40.5157983" lon="16.7148333"><ele>136.28571428571428</ele><time>2026-03-22T14:15:30.452Z</time></trkpt><trkpt lat="40.5158583" lon="16.7148883"><ele>135.14285714285714</ele><time>2026-03-22T14:15:35.452Z</time></trkpt><trkpt lat="40.51592" lon="16.7148533"><ele>134.0</ele><time>2026-03-22T14:15:38.452Z</time></trkpt><trkpt lat="40.5159567" lon="16.7147567"><ele>134.0</ele><time>2026-03-22T14:15:41.453Z</time></trkpt><trkpt lat="40.5159433" lon="16.7146683"><ele>134.0</ele><time>2026-03-22T14:15:43.453Z</time></trkpt><trkpt lat="40.51589" lon="16.714525"><ele>134.0</ele><time>2026-03-22T14:15:45.452Z</time></trkpt><trkpt lat="40.515855" lon="16.71439"><ele>134.0</ele><time>2026-03-22T14:15:47.452Z</time></trkpt><trkpt lat="40.5158517" lon="16.7142867"><ele>134.0</ele><time>2026-03-22T14:15:49.451Z</time></trkpt><trkpt lat="40.5158917" lon="16.7142033"><ele>135.6</ele><time>2026-03-22T14:15:51.452Z</time></trkpt><trkpt lat="40.5159683" lon="16.7140833"><ele>137.2</ele><time>2026-03-22T14:15:53.452Z</time></trkpt><trkpt lat="40.5160017" lon="16.7139933"><ele>138.79999999999998</ele><time>2026-03-22T14:15:54.454Z</time></trkpt><trkpt lat="40.5160317" lon="16.7139117"><ele>140.4</ele><time>2026-03-22T14:15:55.452Z</time></trkpt><trkpt lat="40.5160817" lon="16.7137783"><ele>142.0</ele><time>2026-03-22T14:15:57.45Z</time></trkpt><trkpt lat="40.5161183" lon="16.7136517"><ele>142.25</ele><time>2026-03-22T14:15:59.451Z</time></trkpt><trkpt lat="40.5161683" lon="16.7135283"><ele>142.5</ele><time>2026-03-22T14:16:01.451Z</time></trkpt><trkpt lat="40.51624" lon="16.7134"><ele>142.75</ele><time>2026-03-22T14:16:03.451Z</time></trkpt><trkpt lat="40.5163083" lon="16.713275"><ele>143.0</ele><time>2026-03-22T14:16:05.452Z</time></trkpt><trkpt lat="40.5163717" lon="16.71315"><ele>143.0</ele><time>2026-03-22T14:16:07.451Z</time></trkpt><trkpt lat="40.5164333" lon="16.713005"><ele>143.0</ele><time>2026-03-22T14:16:09.452Z</time></trkpt><trkpt lat="40.5164667" lon="16.7129233"><ele>143.0</ele><time>2026-03-22T14:16:10.451Z</time></trkpt><trkpt lat="40.5164983" lon="16.7128383"><ele>143.0</ele><time>2026-03-22T14:16:11.452Z</time></trkpt><trkpt lat="40.516525" lon="16.7127533"><ele>143.0</ele><time>2026-03-22T14:16:12.451Z</time></trkpt><trkpt lat="40.51655" lon="16.7126717"><ele>143.0</ele><time>2026-03-22T14:16:13.451Z</time></trkpt><trkpt lat="40.516575" lon="16.71259"><ele>143.5</ele><time>2026-03-22T14:16:14.451Z</time></trkpt><trkpt lat="40.516605" lon="16.7125033"><ele>144.0</ele><time>2026-03-22T14:16:15.451Z</time></trkpt><trkpt lat="40.5166383" lon="16.7124283"><ele>144.5</ele><time>2026-03-22T14:16:16.452Z</time></trkpt><trkpt lat="40.5166783" lon="16.7122917"><ele>145.0</ele><time>2026-03-22T14:16:18.451Z</time></trkpt><trkpt lat="40.5166867" lon="16.7121383"><ele>145.5</ele><time>2026-03-22T14:16:20.452Z</time></trkpt><trkpt lat="40.516685" lon="16.712055"><ele>146.0</ele><time>2026-03-22T14:16:21.451Z</time></trkpt><trkpt lat="40.5166867" lon="16.7119717"><ele>146.57142857142856</ele><time>2026-03-22T14:16:22.451Z</time></trkpt><trkpt lat="40.516695" lon="16.7118883"><ele>147.14285714285714</ele><time>2026-03-22T14:16:23.451Z</time></trkpt><trkpt lat="40.5167083" lon="16.711805"><ele>147.71428571428572</ele><time>2026-03-22T14:16:24.452Z</time></trkpt><trkpt lat="40.5167217" lon="16.71172"><ele>148.28571428571428</ele><time>2026-03-22T14:16:25.452Z</time></trkpt><trkpt lat="40.5167383" lon="16.7116333"><ele>148.85714285714286</ele><time>2026-03-22T14:16:26.452Z</time></trkpt><trkpt lat="40.51676" lon="16.7115433"><ele>149.42857142857142</ele><time>2026-03-22T14:16:27.451Z</time></trkpt><trkpt lat="40.516785" lon="16.7114567"><ele>150.0</ele><time>2026-03-22T14:16:28.451Z</time></trkpt><trkpt lat="40.5168067" lon="16.7113583"><ele>150.0</ele><time>2026-03-22T14:16:29.451Z</time></trkpt><trkpt lat="40.5168283" lon="16.7112583"><ele>150.0</ele><time>2026-03-22T14:16:30.453Z</time></trkpt><trkpt lat="40.5168533" lon="16.7111633"><ele>150.0</ele><time>2026-03-22T14:16:31.451Z</time></trkpt><trkpt lat="40.5168867" lon="16.7110717"><ele>150.0</ele><time>2026-03-22T14:16:32.452Z</time></trkpt><trkpt lat="40.5169183" lon="16.7109767"><ele>150.0</ele><time>2026-03-22T14:16:33.451Z</time></trkpt><trkpt lat="40.5169417" lon="16.71088"><ele>150.0</ele><time>2026-03-22T14:16:34.451Z</time></trkpt><trkpt lat="40.5169617" lon="16.710785"><ele>150.16666666666666</ele><time>2026-03-22T14:16:35.452Z</time></trkpt><trkpt lat="40.516985" lon="16.7106933"><ele>150.33333333333334</ele><time>2026-03-22T14:16:36.451Z</time></trkpt><trkpt lat="40.51702" lon="16.7106033"><ele>150.5</ele><time>2026-03-22T14:16:37.451Z</time></trkpt><trkpt lat="40.5170633" lon="16.71052"><ele>150.66666666666669</ele><time>2026-03-22T14:16:38.452Z</time></trkpt><trkpt lat="40.5171133" lon="16.71044"><ele>150.83333333333334</ele><time>2026-03-22T14:16:39.452Z</time></trkpt><trkpt lat="40.5171583" lon="16.7103617"><ele>151.0</ele><time>2026-03-22T14:16:40.453Z</time></trkpt><trkpt lat="40.5171967" lon="16.7102833"><ele>152.0</ele><time>2026-03-22T14:16:41.452Z</time></trkpt><trkpt lat="40.5172317" lon="16.7102067"><ele>153.0</ele><time>2026-03-22T14:16:42.452Z</time></trkpt><trkpt lat="40.5172633" lon="16.7101283"><ele>154.0</ele><time>2026-03-22T14:16:43.451Z</time></trkpt><trkpt lat="40.5173" lon="16.710055"><ele>155.0</ele><time>2026-03-22T14:16:44.452Z</time></trkpt><trkpt lat="40.517365" lon="16.7099183"><ele>156.0</ele><time>2026-03-22T14:16:46.451Z</time></trkpt><trkpt lat="40.5173933" lon="16.7098333"><ele>157.0</ele><time>2026-03-22T14:16:47.451Z</time></trkpt><trkpt lat="40.5174217" lon="16.7097517"><ele>156.99999999999997</ele><time>2026-03-22T14:16:48.536Z</time></trkpt><trkpt lat="40.5174667" lon="16.7096783"><ele>157.0</ele><time>2026-03-22T14:16:49.451Z</time></trkpt><trkpt lat="40.5175183" lon="16.709605"><ele>157.0</ele><time>2026-03-22T14:16:50.452Z</time></trkpt><trkpt lat="40.51757" lon="16.7095317"><ele>157.0</ele><time>2026-03-22T14:16:51.451Z</time></trkpt><trkpt lat="40.5176217" lon="16.7094617"><ele>157.0</ele><time>2026-03-22T14:16:52.454Z</time></trkpt><trkpt lat="40.5176717" lon="16.70939"><ele>156.99999999999997</ele><time>2026-03-22T14:16:53.453Z</time></trkpt><trkpt lat="40.5177167" lon="16.7093167"><ele>157.0</ele><time>2026-03-22T14:16:54.451Z</time></trkpt><trkpt lat="40.51776" lon="16.7092417"><ele>157.0</ele><time>2026-03-22T14:16:55.451Z</time></trkpt><trkpt lat="40.51784" lon="16.7091217"><ele>157.0</ele><time>2026-03-22T14:16:57.451Z</time></trkpt><trkpt lat="40.5179367" lon="16.7090083"><ele>157.0</ele><time>2026-03-22T14:16:59.45Z</time></trkpt><trkpt lat="40.5179917" lon="16.7089517"><ele>157.0</ele><time>2026-03-22T14:17:00.451Z</time></trkpt><trkpt lat="40.518045" lon="16.70889"><ele>157.0</ele><time>2026-03-22T14:17:01.453Z</time></trkpt><trkpt lat="40.5181033" lon="16.70883"><ele>157.83333333333334</ele><time>2026-03-22T14:17:02.453Z</time></trkpt><trkpt lat="40.5181667" lon="16.708775"><ele>158.66666666666669</ele><time>2026-03-22T14:17:03.451Z</time></trkpt><trkpt lat="40.5182317" lon="16.7087083"><ele>159.5</ele><time>2026-03-22T14:17:04.451Z</time></trkpt><trkpt lat="40.5183017" lon="16.7086283"><ele>160.33333333333334</ele><time>2026-03-22T14:17:05.451Z</time></trkpt><trkpt lat="40.5183717" lon="16.7085467"><ele>161.16666666666666</ele><time>2026-03-22T14:17:06.451Z</time></trkpt><trkpt lat="40.5184417" lon="16.70847"><ele>162.0</ele><time>2026-03-22T14:17:07.452Z</time></trkpt><trkpt lat="40.5185017" lon="16.708395"><ele>162.5</ele><time>2026-03-22T14:17:08.453Z</time></trkpt><trkpt lat="40.5185583" lon="16.7083233"><ele>163.0</ele><time>2026-03-22T14:17:09.452Z</time></trkpt><trkpt lat="40.5186167" lon="16.70826"><ele>163.5</ele><time>2026-03-22T14:17:10.452Z</time></trkpt><trkpt lat="40.5186767" lon="16.708205"><ele>164.0</ele><time>2026-03-22T14:17:11.451Z</time></trkpt><trkpt lat="40.5187367" lon="16.7081517"><ele>164.5</ele><time>2026-03-22T14:17:12.452Z</time></trkpt><trkpt lat="40.5187967" lon="16.7081033"><ele>165.0</ele><time>2026-03-22T14:17:13.451Z</time></trkpt><trkpt lat="40.518885" lon="16.708035"><ele>165.5</ele><time>2026-03-22T14:17:15.451Z</time></trkpt><trkpt lat="40.5189583" lon="16.70792"><ele>166.0</ele><time>2026-03-22T14:17:17.451Z</time></trkpt><trkpt lat="40.5190017" lon="16.7078533"><ele>166.5</ele><time>2026-03-22T14:17:18.45Z</time></trkpt><trkpt lat="40.51911" lon="16.707785"><ele>167.0</ele><time>2026-03-22T14:17:20.453Z</time></trkpt><trkpt lat="40.5191733" lon="16.7077683"><ele>167.5</ele><time>2026-03-22T14:17:21.451Z</time></trkpt><trkpt lat="40.5192317" lon="16.7077333"><ele>168.0</ele><time>2026-03-22T14:17:22.451Z</time></trkpt><trkpt lat="40.519345" lon="16.7076717"><ele>168.14285714285714</ele><time>2026-03-22T14:17:24.451Z</time></trkpt><trkpt lat="40.5194133" lon="16.7076483"><ele>168.28571428571428</ele><time>2026-03-22T14:17:25.452Z</time></trkpt><trkpt lat="40.519485" lon="16.707625"><ele>168.42857142857144</ele><time>2026-03-22T14:17:26.452Z</time></trkpt><trkpt lat="40.5195567" lon="16.7075983"><ele>168.57142857142856</ele><time>2026-03-22T14:17:27.453Z</time></trkpt><trkpt lat="40.51963" lon="16.7075683"><ele>168.71428571428572</ele><time>2026-03-22T14:17:28.453Z</time></trkpt><trkpt lat="40.5196933" lon="16.7075417"><ele>168.85714285714286</ele><time>2026-03-22T14:17:29.451Z</time></trkpt><trkpt lat="40.5197533" lon="16.7075083"><ele>169.0</ele><time>2026-03-22T14:17:30.452Z</time></trkpt><trkpt lat="40.519815" lon="16.7074767"><ele>169.6</ele><time>2026-03-22T14:17:31.451Z</time></trkpt><trkpt lat="40.5198767" lon="16.70746"><ele>170.2</ele><time>2026-03-22T14:17:32.452Z</time></trkpt><trkpt lat="40.5199917" lon="16.7074267"><ele>170.79999999999998</ele><time>2026-03-22T14:17:34.452Z</time></trkpt><trkpt lat="40.5200917" lon="16.7073317"><ele>171.39999999999998</ele><time>2026-03-22T14:17:36.452Z</time></trkpt><trkpt lat="40.5201717" lon="16.7072433"><ele>172.0</ele><time>2026-03-22T14:17:38.452Z</time></trkpt><trkpt lat="40.520245" lon="16.707145"><ele>172.0</ele><time>2026-03-22T14:17:40.452Z</time></trkpt><trkpt lat="40.5203317" lon="16.7070317"><ele>172.0</ele><time>2026-03-22T14:17:42.452Z</time></trkpt><trkpt lat="40.52043" lon="16.7069167"><ele>172.0</ele><time>2026-03-22T14:17:44.452Z</time></trkpt><trkpt lat="40.5204933" lon="16.7068683"><ele>172.0</ele><time>2026-03-22T14:17:45.451Z</time></trkpt><trkpt lat="40.520555" lon="16.7068283"><ele>172.0</ele><time>2026-03-22T14:17:46.451Z</time></trkpt><trkpt lat="40.520615" lon="16.7067833"><ele>172.57142857142858</ele><time>2026-03-22T14:17:47.451Z</time></trkpt><trkpt lat="40.52067" lon="16.7067317"><ele>173.14285714285714</ele><time>2026-03-22T14:17:48.451Z</time></trkpt><trkpt lat="40.52072" lon="16.7066717"><ele>173.71428571428572</ele><time>2026-03-22T14:17:49.454Z</time></trkpt><trkpt lat="40.5207583" lon="16.7066017"><ele>174.28571428571428</ele><time>2026-03-22T14:17:50.452Z</time></trkpt><trkpt lat="40.5207967" lon="16.7065267"><ele>174.85714285714286</ele><time>2026-03-22T14:17:51.452Z</time></trkpt><trkpt lat="40.5208383" lon="16.70645"><ele>175.42857142857144</ele><time>2026-03-22T14:17:52.451Z</time></trkpt><trkpt lat="40.520875" lon="16.706375"><ele>176.0</ele><time>2026-03-22T14:17:53.451Z</time></trkpt><trkpt lat="40.52091" lon="16.7063017"><ele>176.0</ele><time>2026-03-22T14:17:54.453Z</time></trkpt><trkpt lat="40.5209433" lon="16.7062283"><ele>176.0</ele><time>2026-03-22T14:17:55.451Z</time></trkpt><trkpt lat="40.520975" lon="16.7061567"><ele>176.0</ele><time>2026-03-22T14:17:56.453Z</time></trkpt><trkpt lat="40.5210067" lon="16.7060833"><ele>176.0</ele><time>2026-03-22T14:17:57.452Z</time></trkpt><trkpt lat="40.5210433" lon="16.7060117"><ele>176.0</ele><time>2026-03-22T14:17:58.451Z</time></trkpt><trkpt lat="40.5210833" lon="16.7059383"><ele>176.0</ele><time>2026-03-22T14:17:59.451Z</time></trkpt><trkpt lat="40.5211233" lon="16.70586"><ele>176.0</ele><time>2026-03-22T14:18:00.451Z</time></trkpt><trkpt lat="40.5211717" lon="16.7057867"><ele>176.14285714285714</ele><time>2026-03-22T14:18:01.451Z</time></trkpt><trkpt lat="40.5212217" lon="16.7057317"><ele>176.28571428571428</ele><time>2026-03-22T14:18:02.452Z</time></trkpt><trkpt lat="40.52127" lon="16.7056733"><ele>176.42857142857144</ele><time>2026-03-22T14:18:03.451Z</time></trkpt><trkpt lat="40.5213183" lon="16.7056167"><ele>176.57142857142856</ele><time>2026-03-22T14:18:04.451Z</time></trkpt><trkpt lat="40.5213667" lon="16.7055583"><ele>176.7142857142857</ele><time>2026-03-22T14:18:05.452Z</time></trkpt><trkpt lat="40.5214117" lon="16.705495"><ele>176.85714285714286</ele><time>2026-03-22T14:18:06.453Z</time></trkpt><trkpt lat="40.52146" lon="16.7054283"><ele>177.0</ele><time>2026-03-22T14:18:07.452Z</time></trkpt><trkpt lat="40.52151" lon="16.7053633"><ele>177.2857142857143</ele><time>2026-03-22T14:18:08.452Z</time></trkpt><trkpt lat="40.5215633" lon="16.7053017"><ele>177.57142857142856</ele><time>2026-03-22T14:18:09.453Z</time></trkpt><trkpt lat="40.5216183" lon="16.705245"><ele>177.85714285714286</ele><time>2026-03-22T14:18:10.452Z</time></trkpt><trkpt lat="40.521665" lon="16.7051767"><ele>178.14285714285717</ele><time>2026-03-22T14:18:11.451Z</time></trkpt><trkpt lat="40.5217167" lon="16.7051017"><ele>178.42857142857144</ele><time>2026-03-22T14:18:12.452Z</time></trkpt><trkpt lat="40.521765" lon="16.705025"><ele>178.71428571428572</ele><time>2026-03-22T14:18:13.455Z</time></trkpt><trkpt lat="40.5218133" lon="16.7049483"><ele>179.0</ele><time>2026-03-22T14:18:14.452Z</time></trkpt><trkpt lat="40.5218717" lon="16.704875"><ele>179.00000000000003</ele><time>2026-03-22T14:18:15.453Z</time></trkpt><trkpt lat="40.52193" lon="16.704805"><ele>179.0</ele><time>2026-03-22T14:18:16.452Z</time></trkpt><trkpt lat="40.5219817" lon="16.7047367"><ele>179.0</ele><time>2026-03-22T14:18:17.451Z</time></trkpt><trkpt lat="40.522035" lon="16.7046683"><ele>179.0</ele><time>2026-03-22T14:18:18.451Z</time></trkpt><trkpt lat="40.522085" lon="16.7046033"><ele>179.0</ele><time>2026-03-22T14:18:19.451Z</time></trkpt><trkpt lat="40.5221383" lon="16.7045383"><ele>179.00000000000003</ele><time>2026-03-22T14:18:20.454Z</time></trkpt><trkpt lat="40.5221867" lon="16.7044683"><ele>179.0</ele><time>2026-03-22T14:18:21.452Z</time></trkpt><trkpt lat="40.5222267" lon="16.7043917"><ele>179.85714285714286</ele><time>2026-03-22T14:18:22.451Z</time></trkpt><trkpt lat="40.5222667" lon="16.7043083"><ele>180.71428571428572</ele><time>2026-03-22T14:18:23.452Z</time></trkpt><trkpt lat="40.5222933" lon="16.7042167"><ele>181.57142857142856</ele><time>2026-03-22T14:18:24.452Z</time></trkpt><trkpt lat="40.5223233" lon="16.7041283"><ele>182.42857142857144</ele><time>2026-03-22T14:18:25.453Z</time></trkpt><trkpt lat="40.5223617" lon="16.704055"><ele>183.28571428571428</ele><time>2026-03-22T14:18:26.452Z</time></trkpt><trkpt lat="40.52241" lon="16.7039933"><ele>184.14285714285714</ele><time>2026-03-22T14:18:27.451Z</time></trkpt><trkpt lat="40.5224617" lon="16.7039283"><ele>185.0</ele><time>2026-03-22T14:18:28.452Z</time></trkpt><trkpt lat="40.52252" lon="16.7038633"><ele>184.99999999999997</ele><time>2026-03-22T14:18:29.452Z</time></trkpt><trkpt lat="40.5225733" lon="16.7037967"><ele>185.0</ele><time>2026-03-22T14:18:30.452Z</time></trkpt><trkpt lat="40.5226233" lon="16.7037217"><ele>185.0</ele><time>2026-03-22T14:18:31.452Z</time></trkpt><trkpt lat="40.52267" lon="16.703645"><ele>185.0</ele><time>2026-03-22T14:18:32.453Z</time></trkpt><trkpt lat="40.5227233" lon="16.7035817"><ele>185.0</ele><time>2026-03-22T14:18:33.451Z</time></trkpt><trkpt lat="40.5227767" lon="16.7035283"><ele>184.99999999999997</ele><time>2026-03-22T14:18:34.452Z</time></trkpt><trkpt lat="40.5228283" lon="16.70347"><ele>185.0</ele><time>2026-03-22T14:18:35.452Z</time></trkpt><trkpt lat="40.5228783" lon="16.7034083"><ele>185.5</ele><time>2026-03-22T14:18:36.452Z</time></trkpt><trkpt lat="40.522925" lon="16.703325"><ele>186.0</ele><time>2026-03-22T14:18:37.452Z</time></trkpt><trkpt lat="40.5229717" lon="16.70322"><ele>186.5</ele><time>2026-03-22T14:18:38.451Z</time></trkpt><trkpt lat="40.523015" lon="16.7031167"><ele>187.0</ele><time>2026-03-22T14:18:39.451Z</time></trkpt><trkpt lat="40.5230583" lon="16.7030217"><ele>187.5</ele><time>2026-03-22T14:18:40.452Z</time></trkpt><trkpt lat="40.5231067" lon="16.7029383"><ele>188.0</ele><time>2026-03-22T14:18:41.452Z</time></trkpt><trkpt lat="40.5231583" lon="16.7028517"><ele>188.0</ele><time>2026-03-22T14:18:42.452Z</time></trkpt><trkpt lat="40.5232033" lon="16.70276"><ele>188.0</ele><time>2026-03-22T14:18:43.452Z</time></trkpt><trkpt lat="40.5232517" lon="16.702685"><ele>188.0</ele><time>2026-03-22T14:18:44.452Z</time></trkpt><trkpt lat="40.5232967" lon="16.7026117"><ele>188.0</ele><time>2026-03-22T14:18:45.452Z</time></trkpt><trkpt lat="40.5233383" lon="16.7025383"><ele>188.0</ele><time>2026-03-22T14:18:46.452Z</time></trkpt><trkpt lat="40.52338" lon="16.7024733"><ele>188.0</ele><time>2026-03-22T14:18:47.452Z</time></trkpt><trkpt lat="40.52342" lon="16.7024083"><ele>188.0</ele><time>2026-03-22T14:18:48.452Z</time></trkpt><trkpt lat="40.5234583" lon="16.7023367"><ele>188.33333333333331</ele><time>2026-03-22T14:18:49.452Z</time></trkpt><trkpt lat="40.5235017" lon="16.7022633"><ele>188.66666666666666</ele><time>2026-03-22T14:18:50.452Z</time></trkpt><trkpt lat="40.523555" lon="16.7021867"><ele>189.0</ele><time>2026-03-22T14:18:51.452Z</time></trkpt><trkpt lat="40.5236067" lon="16.702105"><ele>189.33333333333334</ele><time>2026-03-22T14:18:52.452Z</time></trkpt><trkpt lat="40.5236483" lon="16.7020167"><ele>189.66666666666669</ele><time>2026-03-22T14:18:53.452Z</time></trkpt><trkpt lat="40.523685" lon="16.7019183"><ele>190.0</ele><time>2026-03-22T14:18:54.453Z</time></trkpt><trkpt lat="40.5237217" lon="16.7018083"><ele>190.4</ele><time>2026-03-22T14:18:55.452Z</time></trkpt><trkpt lat="40.5237533" lon="16.7016883"><ele>190.8</ele><time>2026-03-22T14:18:56.453Z</time></trkpt><trkpt lat="40.5237883" lon="16.7015683"><ele>191.2</ele><time>2026-03-22T14:18:57.452Z</time></trkpt><trkpt lat="40.523825" lon="16.7014583"><ele>191.6</ele><time>2026-03-22T14:18:58.452Z</time></trkpt><trkpt lat="40.5238617" lon="16.7013533"><ele>192.0</ele><time>2026-03-22T14:18:59.451Z</time></trkpt><trkpt lat="40.5238833" lon="16.7012417"><ele>192.0</ele><time>2026-03-22T14:19:00.452Z</time></trkpt><trkpt lat="40.5238967" lon="16.7011183"><ele>192.0</ele><time>2026-03-22T14:19:01.452Z</time></trkpt><trkpt lat="40.52391" lon="16.7009933"><ele>192.0</ele><time>2026-03-22T14:19:02.452Z</time></trkpt><trkpt lat="40.52393" lon="16.7008733"><ele>192.0</ele><time>2026-03-22T14:19:03.452Z</time></trkpt><trkpt lat="40.523945" lon="16.7007467"><ele>192.0</ele><time>2026-03-22T14:19:04.451Z</time></trkpt><trkpt lat="40.5239517" lon="16.7006067"><ele>192.0</ele><time>2026-03-22T14:19:05.452Z</time></trkpt><trkpt lat="40.5239567" lon="16.700465"><ele>192.0</ele><time>2026-03-22T14:19:06.451Z</time></trkpt><trkpt lat="40.5239567" lon="16.700325"><ele>192.0</ele><time>2026-03-22T14:19:07.452Z</time></trkpt><trkpt lat="40.5239517" lon="16.70019"><ele>192.0</ele><time>2026-03-22T14:19:08.453Z</time></trkpt><trkpt lat="40.523945" lon="16.7000583"><ele>192.0</ele><time>2026-03-22T14:19:09.451Z</time></trkpt><trkpt lat="40.52394" lon="16.69993"><ele>192.39999999999998</ele><time>2026-03-22T14:19:10.452Z</time></trkpt><trkpt lat="40.52394" lon="16.6998017"><ele>192.79999999999998</ele><time>2026-03-22T14:19:11.452Z</time></trkpt><trkpt lat="40.5239383" lon="16.699675"><ele>193.2</ele><time>2026-03-22T14:19:12.453Z</time></trkpt><trkpt lat="40.5239383" lon="16.6995467"><ele>193.6</ele><time>2026-03-22T14:19:13.452Z</time></trkpt><trkpt lat="40.5239433" lon="16.69942"><ele>194.0</ele><time>2026-03-22T14:19:14.452Z</time></trkpt><trkpt lat="40.52396" lon="16.6992917"><ele>194.39999999999998</ele><time>2026-03-22T14:19:15.452Z</time></trkpt><trkpt lat="40.5239833" lon="16.6991667"><ele>194.8</ele><time>2026-03-22T14:19:16.451Z</time></trkpt><trkpt lat="40.524015" lon="16.6990483"><ele>195.2</ele><time>2026-03-22T14:19:17.452Z</time></trkpt><trkpt lat="40.524055" lon="16.6989333"><ele>195.60000000000002</ele><time>2026-03-22T14:19:18.451Z</time></trkpt><trkpt lat="40.52411" lon="16.698825"><ele>196.0</ele><time>2026-03-22T14:19:19.452Z</time></trkpt><trkpt lat="40.5241717" lon="16.698725"><ele>196.0</ele><time>2026-03-22T14:19:20.452Z</time></trkpt><trkpt lat="40.524235" lon="16.698625"><ele>196.0</ele><time>2026-03-22T14:19:21.452Z</time></trkpt><trkpt lat="40.5243017" lon="16.6985233"><ele>196.0</ele><time>2026-03-22T14:19:22.452Z</time></trkpt><trkpt lat="40.524365" lon="16.6984233"><ele>196.0</ele><time>2026-03-22T14:19:23.452Z</time></trkpt><trkpt lat="40.52443" lon="16.69832"><ele>196.0</ele><time>2026-03-22T14:19:24.452Z</time></trkpt><trkpt lat="40.524495" lon="16.69822"><ele>196.4</ele><time>2026-03-22T14:19:25.452Z</time></trkpt><trkpt lat="40.5245583" lon="16.6981217"><ele>196.8</ele><time>2026-03-22T14:19:26.452Z</time></trkpt><trkpt lat="40.5246183" lon="16.6980283"><ele>197.20000000000002</ele><time>2026-03-22T14:19:27.452Z</time></trkpt><trkpt lat="40.52468" lon="16.6979367"><ele>197.60000000000002</ele><time>2026-03-22T14:19:28.454Z</time></trkpt><trkpt lat="40.524745" lon="16.6978383"><ele>198.0</ele><time>2026-03-22T14:19:29.452Z</time></trkpt><trkpt lat="40.5248083" lon="16.6977383"><ele>198.5</ele><time>2026-03-22T14:19:30.452Z</time></trkpt><trkpt lat="40.5248717" lon="16.69764"><ele>199.0</ele><time>2026-03-22T14:19:31.453Z</time></trkpt><trkpt lat="40.5249367" lon="16.6975483"><ele>199.5</ele><time>2026-03-22T14:19:32.453Z</time></trkpt><trkpt lat="40.5250033" lon="16.6974667"><ele>200.0</ele><time>2026-03-22T14:19:33.453Z</time></trkpt><trkpt lat="40.52507" lon="16.697395"><ele>200.5</ele><time>2026-03-22T14:19:34.452Z</time></trkpt><trkpt lat="40.5251283" lon="16.6973283"><ele>201.0</ele><time>2026-03-22T14:19:35.452Z</time></trkpt><trkpt lat="40.52518" lon="16.6972717"><ele>201.0</ele><time>2026-03-22T14:19:36.453Z</time></trkpt><trkpt lat="40.525235" lon="16.6971667"><ele>201.0</ele><time>2026-03-22T14:19:38.452Z</time></trkpt><trkpt lat="40.5252117" lon="16.6970483"><ele>201.0</ele><time>2026-03-22T14:19:40.453Z</time></trkpt><trkpt lat="40.5251" lon="16.6969817"><ele>201.0</ele><time>2026-03-22T14:19:42.452Z</time></trkpt><trkpt lat="40.5250383" lon="16.696965"><ele>201.0</ele><time>2026-03-22T14:19:43.452Z</time></trkpt><trkpt lat="40.524905" lon="16.6969383"><ele>201.0</ele><time>2026-03-22T14:19:45.452Z</time></trkpt><trkpt lat="40.5248183" lon="16.6969367"><ele>201.0</ele><time>2026-03-22T14:19:46.452Z</time></trkpt><trkpt lat="40.5247233" lon="16.6969517"><ele>201.0</ele><time>2026-03-22T14:19:47.452Z</time></trkpt><trkpt lat="40.524615" lon="16.69696"><ele>201.0</ele><time>2026-03-22T14:19:48.452Z</time></trkpt><trkpt lat="40.524495" lon="16.69695"><ele>201.0</ele><time>2026-03-22T14:19:49.452Z</time></trkpt><trkpt lat="40.5243683" lon="16.696935"><ele>200.75</ele><time>2026-03-22T14:19:50.453Z</time></trkpt><trkpt lat="40.5242467" lon="16.69692"><ele>200.5</ele><time>2026-03-22T14:19:51.453Z</time></trkpt><trkpt lat="40.5241233" lon="16.6969033"><ele>200.25</ele><time>2026-03-22T14:19:52.452Z</time></trkpt><trkpt lat="40.524" lon="16.696895"><ele>200.0</ele><time>2026-03-22T14:19:53.451Z</time></trkpt><trkpt lat="40.523875" lon="16.6969"><ele>200.0</ele><time>2026-03-22T14:19:54.452Z</time></trkpt><trkpt lat="40.5237517" lon="16.696925"><ele>200.0</ele><time>2026-03-22T14:19:55.452Z</time></trkpt><trkpt lat="40.5236283" lon="16.6969633"><ele>200.0</ele><time>2026-03-22T14:19:56.452Z</time></trkpt><trkpt lat="40.523505" lon="16.69701"><ele>200.0</ele><time>2026-03-22T14:19:57.451Z</time></trkpt><trkpt lat="40.5233817" lon="16.69706"><ele>199.0</ele><time>2026-03-22T14:19:58.451Z</time></trkpt><trkpt lat="40.523255" lon="16.6971133"><ele>198.0</ele><time>2026-03-22T14:19:59.451Z</time></trkpt><trkpt lat="40.5231267" lon="16.6971667"><ele>197.0</ele><time>2026-03-22T14:20:00.451Z</time></trkpt><trkpt lat="40.5229983" lon="16.6972183"><ele>196.0</ele><time>2026-03-22T14:20:01.453Z</time></trkpt><trkpt lat="40.522865" lon="16.6972733"><ele>196.0</ele><time>2026-03-22T14:20:02.452Z</time></trkpt><trkpt lat="40.5227317" lon="16.6973283"><ele>196.0</ele><time>2026-03-22T14:20:03.454Z</time></trkpt><trkpt lat="40.5225983" lon="16.6973833"><ele>196.0</ele><time>2026-03-22T14:20:04.452Z</time></trkpt><trkpt lat="40.522465" lon="16.69744"><ele>196.0</ele><time>2026-03-22T14:20:05.453Z</time></trkpt><trkpt lat="40.52233" lon="16.6974967"><ele>196.0</ele><time>2026-03-22T14:20:06.452Z</time></trkpt><trkpt lat="40.522195" lon="16.6975533"><ele>196.0</ele><time>2026-03-22T14:20:07.452Z</time></trkpt><trkpt lat="40.5220567" lon="16.69761"><ele>196.0</ele><time>2026-03-22T14:20:08.452Z</time></trkpt><trkpt lat="40.5219217" lon="16.697665"><ele>196.0</ele><time>2026-03-22T14:20:09.451Z</time></trkpt><trkpt lat="40.5217917" lon="16.6977233"><ele>195.75</ele><time>2026-03-22T14:20:10.453Z</time></trkpt><trkpt lat="40.5216667" lon="16.697795"><ele>195.5</ele><time>2026-03-22T14:20:11.453Z</time></trkpt><trkpt lat="40.521555" lon="16.697895"><ele>195.25</ele><time>2026-03-22T14:20:12.452Z</time></trkpt><trkpt lat="40.5214617" lon="16.698035"><ele>195.0</ele><time>2026-03-22T14:20:13.453Z</time></trkpt><trkpt lat="40.5213883" lon="16.6982083"><ele>195.0</ele><time>2026-03-22T14:20:14.453Z</time></trkpt><trkpt lat="40.5213317" lon="16.698405"><ele>195.0</ele><time>2026-03-22T14:20:15.454Z</time></trkpt><trkpt lat="40.52128" lon="16.69861"><ele>195.0</ele><time>2026-03-22T14:20:16.452Z</time></trkpt><trkpt lat="40.5212283" lon="16.6988183"><ele>192.66666666666666</ele><time>2026-03-22T14:20:17.454Z</time></trkpt><trkpt lat="40.521175" lon="16.6990283"><ele>190.33333333333331</ele><time>2026-03-22T14:20:18.451Z</time></trkpt><trkpt lat="40.5211217" lon="16.6992383"><ele>188.0</ele><time>2026-03-22T14:20:19.451Z</time></trkpt><trkpt lat="40.5210633" lon="16.69944"><ele>188.0</ele><time>2026-03-22T14:20:20.453Z</time></trkpt><trkpt lat="40.520995" lon="16.6996383"><ele>188.0</ele><time>2026-03-22T14:20:21.453Z</time></trkpt><trkpt lat="40.520915" lon="16.69983"><ele>188.0</ele><time>2026-03-22T14:20:22.453Z</time></trkpt><trkpt lat="40.5208233" lon="16.700015"><ele>188.0</ele><time>2026-03-22T14:20:23.453Z</time></trkpt><trkpt lat="40.5207283" lon="16.7001983"><ele>188.0</ele><time>2026-03-22T14:20:24.452Z</time></trkpt><trkpt lat="40.5206333" lon="16.70038"><ele>188.0</ele><time>2026-03-22T14:20:25.452Z</time></trkpt><trkpt lat="40.5205383" lon="16.7005667"><ele>187.0</ele><time>2026-03-22T14:20:26.453Z</time></trkpt><trkpt lat="40.5204417" lon="16.7007533"><ele>186.0</ele><time>2026-03-22T14:20:27.451Z</time></trkpt><trkpt lat="40.52034" lon="16.7009333"><ele>185.0</ele><time>2026-03-22T14:20:28.452Z</time></trkpt><trkpt lat="40.5202333" lon="16.701105"><ele>185.0</ele><time>2026-03-22T14:20:29.453Z</time></trkpt><trkpt lat="40.5201183" lon="16.70127"><ele>185.0</ele><time>2026-03-22T14:20:30.452Z</time></trkpt><trkpt lat="40.520005" lon="16.701435"><ele>185.0</ele><time>2026-03-22T14:20:31.452Z</time></trkpt><trkpt lat="40.5198917" lon="16.7016033"><ele>185.0</ele><time>2026-03-22T14:20:32.453Z</time></trkpt><trkpt lat="40.5197783" lon="16.7017717"><ele>185.0</ele><time>2026-03-22T14:20:33.452Z</time></trkpt><trkpt lat="40.519665" lon="16.7019367"><ele>185.0</ele><time>2026-03-22T14:20:34.452Z</time></trkpt><trkpt lat="40.5195517" lon="16.7021017"><ele>184.66666666666666</ele><time>2026-03-22T14:20:35.453Z</time></trkpt><trkpt lat="40.5194383" lon="16.702265"><ele>184.33333333333334</ele><time>2026-03-22T14:20:36.452Z</time></trkpt><trkpt lat="40.519325" lon="16.70243"><ele>184.0</ele><time>2026-03-22T14:20:37.453Z</time></trkpt><trkpt lat="40.51921" lon="16.7025967"><ele>182.33333333333334</ele><time>2026-03-22T14:20:38.455Z</time></trkpt><trkpt lat="40.519095" lon="16.7027633"><ele>180.66666666666666</ele><time>2026-03-22T14:20:39.451Z</time></trkpt><trkpt lat="40.51898" lon="16.70293"><ele>179.0</ele><time>2026-03-22T14:20:40.451Z</time></trkpt><trkpt lat="40.5188667" lon="16.7030967"><ele>179.0</ele><time>2026-03-22T14:20:41.452Z</time></trkpt><trkpt lat="40.5187567" lon="16.703265"><ele>179.0</ele><time>2026-03-22T14:20:42.452Z</time></trkpt><trkpt lat="40.518645" lon="16.70343"><ele>179.0</ele><time>2026-03-22T14:20:43.451Z</time></trkpt><trkpt lat="40.518535" lon="16.703595"><ele>178.0</ele><time>2026-03-22T14:20:44.452Z</time></trkpt><trkpt lat="40.518425" lon="16.7037583"><ele>177.0</ele><time>2026-03-22T14:20:45.451Z</time></trkpt><trkpt lat="40.5183133" lon="16.7039167"><ele>176.0</ele><time>2026-03-22T14:20:46.455Z</time></trkpt><trkpt lat="40.5182017" lon="16.7040767"><ele>176.0</ele><time>2026-03-22T14:20:47.451Z</time></trkpt><trkpt lat="40.5180917" lon="16.704235"><ele>176.0</ele><time>2026-03-22T14:20:48.451Z</time></trkpt><trkpt lat="40.5179783" lon="16.70439"><ele>176.0</ele><time>2026-03-22T14:20:49.453Z</time></trkpt><trkpt lat="40.5178633" lon="16.7045367"><ele>174.66666666666666</ele><time>2026-03-22T14:20:50.452Z</time></trkpt><trkpt lat="40.5177383" lon="16.7046767"><ele>173.33333333333334</ele><time>2026-03-22T14:20:51.452Z</time></trkpt><trkpt lat="40.5176083" lon="16.7048067"><ele>172.0</ele><time>2026-03-22T14:20:52.453Z</time></trkpt><trkpt lat="40.5174733" lon="16.7049267"><ele>172.0</ele><time>2026-03-22T14:20:53.451Z</time></trkpt><trkpt lat="40.5173333" lon="16.7050417"><ele>172.0</ele><time>2026-03-22T14:20:54.452Z</time></trkpt><trkpt lat="40.51719" lon="16.7051483"><ele>172.0</ele><time>2026-03-22T14:20:55.453Z</time></trkpt><trkpt lat="40.5170417" lon="16.7052433"><ele>171.33333333333334</ele><time>2026-03-22T14:20:56.452Z</time></trkpt><trkpt lat="40.5168917" lon="16.7053267"><ele>170.66666666666666</ele><time>2026-03-22T14:20:57.452Z</time></trkpt><trkpt lat="40.5167417" lon="16.7054017"><ele>170.0</ele><time>2026-03-22T14:20:58.451Z</time></trkpt><trkpt lat="40.5165967" lon="16.7054767"><ele>170.0</ele><time>2026-03-22T14:20:59.454Z</time></trkpt><trkpt lat="40.51646" lon="16.705555"><ele>170.0</ele><time>2026-03-22T14:21:00.454Z</time></trkpt><trkpt lat="40.5163333" lon="16.7056467"><ele>170.0</ele><time>2026-03-22T14:21:01.452Z</time></trkpt><trkpt lat="40.5162317" lon="16.70577"><ele>170.0</ele><time>2026-03-22T14:21:02.452Z</time></trkpt><trkpt lat="40.5161467" lon="16.7059283"><ele>168.33333333333331</ele><time>2026-03-22T14:21:03.453Z</time></trkpt><trkpt lat="40.5160783" lon="16.7061083"><ele>166.66666666666666</ele><time>2026-03-22T14:21:04.452Z</time></trkpt><trkpt lat="40.5160167" lon="16.7062917"><ele>165.0</ele><time>2026-03-22T14:21:05.451Z</time></trkpt><trkpt lat="40.51596" lon="16.7064683"><ele>165.0</ele><time>2026-03-22T14:21:06.452Z</time></trkpt><trkpt lat="40.5159067" lon="16.70664"><ele>165.0</ele><time>2026-03-22T14:21:07.452Z</time></trkpt><trkpt lat="40.515855" lon="16.7068"><ele>165.0</ele><time>2026-03-22T14:21:08.454Z</time></trkpt><trkpt lat="40.5158" lon="16.706935"><ele>165.0</ele><time>2026-03-22T14:21:09.451Z</time></trkpt><trkpt lat="40.5157283" lon="16.7070367"><ele>164.4</ele><time>2026-03-22T14:21:10.453Z</time></trkpt><trkpt lat="40.5156417" lon="16.7071017"><ele>163.8</ele><time>2026-03-22T14:21:11.453Z</time></trkpt><trkpt lat="40.5155417" lon="16.70712"><ele>163.2</ele><time>2026-03-22T14:21:12.452Z</time></trkpt><trkpt lat="40.515435" lon="16.7070883"><ele>162.6</ele><time>2026-03-22T14:21:13.453Z</time></trkpt><trkpt lat="40.515325" lon="16.7070267"><ele>162.0</ele><time>2026-03-22T14:21:14.454Z</time></trkpt><trkpt lat="40.5152133" lon="16.7069583"><ele>160.6</ele><time>2026-03-22T14:21:15.451Z</time></trkpt><trkpt lat="40.5151017" lon="16.706905"><ele>159.2</ele><time>2026-03-22T14:21:16.451Z</time></trkpt><trkpt lat="40.5150033" lon="16.7068667"><ele>157.8</ele><time>2026-03-22T14:21:17.451Z</time></trkpt><trkpt lat="40.51491" lon="16.7068233"><ele>156.4</ele><time>2026-03-22T14:21:18.451Z</time></trkpt><trkpt lat="40.5148217" lon="16.7067733"><ele>155.0</ele><time>2026-03-22T14:21:19.451Z</time></trkpt><trkpt lat="40.5147383" lon="16.7067383"><ele>155.0</ele><time>2026-03-22T14:21:20.452Z</time></trkpt><trkpt lat="40.5146567" lon="16.7067233"><ele>155.0</ele><time>2026-03-22T14:21:21.455Z</time></trkpt><trkpt lat="40.5145767" lon="16.706715"><ele>155.0</ele><time>2026-03-22T14:21:22.452Z</time></trkpt><trkpt lat="40.5144933" lon="16.7067167"><ele>155.0</ele><time>2026-03-22T14:21:23.452Z</time></trkpt><trkpt lat="40.514405" lon="16.7067167"><ele>155.0</ele><time>2026-03-22T14:21:24.455Z</time></trkpt><trkpt lat="40.51432" lon="16.7067083"><ele>155.0</ele><time>2026-03-22T14:21:25.452Z</time></trkpt><trkpt lat="40.5142417" lon="16.7067067"><ele>154.16666666666666</ele><time>2026-03-22T14:21:26.452Z</time></trkpt><trkpt lat="40.5141717" lon="16.7067267"><ele>153.33333333333331</ele><time>2026-03-22T14:21:27.452Z</time></trkpt><trkpt lat="40.5141117" lon="16.7067767"><ele>152.5</ele><time>2026-03-22T14:21:28.453Z</time></trkpt><trkpt lat="40.51407" lon="16.706865"><ele>151.66666666666666</ele><time>2026-03-22T14:21:29.452Z</time></trkpt><trkpt lat="40.51405" lon="16.7069717"><ele>150.83333333333334</ele><time>2026-03-22T14:21:30.452Z</time></trkpt><trkpt lat="40.5140467" lon="16.707075"><ele>150.0</ele><time>2026-03-22T14:21:31.453Z</time></trkpt><trkpt lat="40.5140233" lon="16.7071667"><ele>150.0</ele><time>2026-03-22T14:21:32.453Z</time></trkpt><trkpt lat="40.5139817" lon="16.70724"><ele>150.0</ele><time>2026-03-22T14:21:33.451Z</time></trkpt><trkpt lat="40.5139183" lon="16.7072767"><ele>150.0</ele><time>2026-03-22T14:21:34.452Z</time></trkpt><trkpt lat="40.513825" lon="16.7072633"><ele>150.0</ele><time>2026-03-22T14:21:35.452Z</time></trkpt><trkpt lat="40.513735" lon="16.7072517"><ele>150.0</ele><time>2026-03-22T14:21:36.452Z</time></trkpt><trkpt lat="40.5136417" lon="16.7072567"><ele>150.0</ele><time>2026-03-22T14:21:37.451Z</time></trkpt><trkpt lat="40.5135483" lon="16.7072833"><ele>145.8</ele><time>2026-03-22T14:21:38.453Z</time></trkpt><trkpt lat="40.5134533" lon="16.7073283"><ele>141.6</ele><time>2026-03-22T14:21:39.451Z</time></trkpt><trkpt lat="40.5133617" lon="16.7073883"><ele>137.4</ele><time>2026-03-22T14:21:40.452Z</time></trkpt><trkpt lat="40.5132733" lon="16.7074567"><ele>133.2</ele><time>2026-03-22T14:21:41.455Z</time></trkpt><trkpt lat="40.5131833" lon="16.70753"><ele>129.0</ele><time>2026-03-22T14:21:42.454Z</time></trkpt><trkpt lat="40.513095" lon="16.707605"><ele>129.0</ele><time>2026-03-22T14:21:43.451Z</time></trkpt><trkpt lat="40.5130117" lon="16.7076817"><ele>129.0</ele><time>2026-03-22T14:21:44.452Z</time></trkpt><trkpt lat="40.51293" lon="16.707755"><ele>129.0</ele><time>2026-03-22T14:21:45.453Z</time></trkpt><trkpt lat="40.5128567" lon="16.7078333"><ele>129.0</ele><time>2026-03-22T14:21:46.451Z</time></trkpt><trkpt lat="40.5127967" lon="16.70792"><ele>129.0</ele><time>2026-03-22T14:21:47.452Z</time></trkpt><trkpt lat="40.5127467" lon="16.708"><ele>126.6</ele><time>2026-03-22T14:21:48.452Z</time></trkpt><trkpt lat="40.5126967" lon="16.7080583"><ele>124.2</ele><time>2026-03-22T14:21:49.451Z</time></trkpt><trkpt lat="40.51259" lon="16.7080933"><ele>121.79999999999998</ele><time>2026-03-22T14:21:51.453Z</time></trkpt><trkpt lat="40.5125" lon="16.707975"><ele>119.39999999999999</ele><time>2026-03-22T14:21:53.452Z</time></trkpt><trkpt lat="40.5124617" lon="16.70789"><ele>117.0</ele><time>2026-03-22T14:21:54.453Z</time></trkpt><trkpt lat="40.5124283" lon="16.7077933"><ele>115.5</ele><time>2026-03-22T14:21:55.451Z</time></trkpt><trkpt lat="40.512385" lon="16.7076967"><ele>114.0</ele><time>2026-03-22T14:21:56.452Z</time></trkpt><trkpt lat="40.5123333" lon="16.7076017"><ele>112.5</ele><time>2026-03-22T14:21:57.454Z</time></trkpt><trkpt lat="40.5122817" lon="16.7075117"><ele>111.0</ele><time>2026-03-22T14:21:58.451Z</time></trkpt><trkpt lat="40.5122267" lon="16.7074317"><ele>109.5</ele><time>2026-03-22T14:21:59.451Z</time></trkpt><trkpt lat="40.5121817" lon="16.7073583"><ele>108.0</ele><time>2026-03-22T14:22:00.454Z</time></trkpt><trkpt lat="40.5121367" lon="16.707285"><ele>108.0</ele><time>2026-03-22T14:22:01.453Z</time></trkpt><trkpt lat="40.5120867" lon="16.7072133"><ele>108.0</ele><time>2026-03-22T14:22:02.453Z</time></trkpt><trkpt lat="40.512015" lon="16.7071667"><ele>108.0</ele><time>2026-03-22T14:22:03.452Z</time></trkpt><trkpt lat="40.5119383" lon="16.70714"><ele>108.0</ele><time>2026-03-22T14:22:04.452Z</time></trkpt><trkpt lat="40.5118533" lon="16.7071317"><ele>108.0</ele><time>2026-03-22T14:22:05.452Z</time></trkpt><trkpt lat="40.5117667" lon="16.707135"><ele>108.0</ele><time>2026-03-22T14:22:06.451Z</time></trkpt><trkpt lat="40.5116833" lon="16.7071367"><ele>105.85714285714286</ele><time>2026-03-22T14:22:07.452Z</time></trkpt><trkpt lat="40.5116067" lon="16.707125"><ele>103.71428571428571</ele><time>2026-03-22T14:22:08.454Z</time></trkpt><trkpt lat="40.5115317" lon="16.70711"><ele>101.57142857142858</ele><time>2026-03-22T14:22:09.452Z</time></trkpt><trkpt lat="40.51146" lon="16.7071133"><ele>99.42857142857143</ele><time>2026-03-22T14:22:10.458Z</time></trkpt><trkpt lat="40.511395" lon="16.707135"><ele>97.28571428571429</ele><time>2026-03-22T14:22:11.453Z</time></trkpt><trkpt lat="40.511325" lon="16.7071617"><ele>95.14285714285715</ele><time>2026-03-22T14:22:12.452Z</time></trkpt><trkpt lat="40.5112517" lon="16.70719"><ele>93.0</ele><time>2026-03-22T14:22:13.453Z</time></trkpt><trkpt lat="40.5111633" lon="16.70722"><ele>90.80000000000001</ele><time>2026-03-22T14:22:14.455Z</time></trkpt><trkpt lat="40.5110683" lon="16.70725"><ele>88.6</ele><time>2026-03-22T14:22:15.454Z</time></trkpt><trkpt lat="40.51097" lon="16.7072783"><ele>86.4</ele><time>2026-03-22T14:22:16.455Z</time></trkpt><trkpt lat="40.5108783" lon="16.7073033"><ele>84.19999999999999</ele><time>2026-03-22T14:22:17.454Z</time></trkpt><trkpt lat="40.51079" lon="16.7073267"><ele>82.0</ele><time>2026-03-22T14:22:18.451Z</time></trkpt><trkpt lat="40.51071" lon="16.7073533"><ele>82.0</ele><time>2026-03-22T14:22:19.453Z</time></trkpt><trkpt lat="40.5106317" lon="16.7073717"><ele>82.0</ele><time>2026-03-22T14:22:20.453Z</time></trkpt><trkpt lat="40.5105533" lon="16.7073883"><ele>82.0</ele><time>2026-03-22T14:22:21.453Z</time></trkpt><trkpt lat="40.5104767" lon="16.707405"><ele>82.0</ele><time>2026-03-22T14:22:22.452Z</time></trkpt><trkpt lat="40.510405" lon="16.7074233"><ele>82.0</ele><time>2026-03-22T14:22:23.451Z</time></trkpt><trkpt lat="40.510335" lon="16.7074433"><ele>82.0</ele><time>2026-03-22T14:22:24.452Z</time></trkpt><trkpt lat="40.51026" lon="16.70746"><ele>79.6</ele><time>2026-03-22T14:22:25.452Z</time></trkpt><trkpt lat="40.5101817" lon="16.7074717"><ele>77.19999999999999</ele><time>2026-03-22T14:22:26.452Z</time></trkpt><trkpt lat="40.5100933" lon="16.707485"><ele>74.8</ele><time>2026-03-22T14:22:27.452Z</time></trkpt><trkpt lat="40.51" lon="16.7075033"><ele>72.4</ele><time>2026-03-22T14:22:28.453Z</time></trkpt><trkpt lat="40.5099067" lon="16.7075267"><ele>70.0</ele><time>2026-03-22T14:22:29.453Z</time></trkpt><trkpt lat="40.5098133" lon="16.7075533"><ele>70.0</ele><time>2026-03-22T14:22:30.452Z</time></trkpt><trkpt lat="40.509725" lon="16.7075817"><ele>70.0</ele><time>2026-03-22T14:22:31.457Z</time></trkpt><trkpt lat="40.5096383" lon="16.7076117"><ele>70.0</ele><time>2026-03-22T14:22:32.452Z</time></trkpt><trkpt lat="40.5095533" lon="16.7076433"><ele>70.0</ele><time>2026-03-22T14:22:33.453Z</time></trkpt><trkpt lat="40.5094717" lon="16.7076783"><ele>70.0</ele><time>2026-03-22T14:22:34.452Z</time></trkpt><trkpt lat="40.5093933" lon="16.7077183"><ele>70.0</ele><time>2026-03-22T14:22:35.451Z</time></trkpt><trkpt lat="40.5093167" lon="16.7077617"><ele>69.83333333333333</ele><time>2026-03-22T14:22:36.452Z</time></trkpt><trkpt lat="40.5092333" lon="16.7077967"><ele>69.66666666666666</ele><time>2026-03-22T14:22:37.533Z</time></trkpt><trkpt lat="40.50915" lon="16.7078183"><ele>69.5</ele><time>2026-03-22T14:22:38.454Z</time></trkpt><trkpt lat="40.5090667" lon="16.7078333"><ele>69.33333333333333</ele><time>2026-03-22T14:22:39.451Z</time></trkpt><trkpt lat="40.5089867" lon="16.7078417"><ele>69.16666666666667</ele><time>2026-03-22T14:22:40.453Z</time></trkpt><trkpt lat="40.5089133" lon="16.70785"><ele>69.0</ele><time>2026-03-22T14:22:41.452Z</time></trkpt><trkpt lat="40.5088467" lon="16.70785"><ele>68.16666666666667</ele><time>2026-03-22T14:22:42.452Z</time></trkpt><trkpt lat="40.5087317" lon="16.7078533"><ele>67.33333333333333</ele><time>2026-03-22T14:22:44.454Z</time></trkpt><trkpt lat="40.5086283" lon="16.7078767"><ele>66.5</ele><time>2026-03-22T14:22:46.452Z</time></trkpt><trkpt lat="40.5085617" lon="16.70789"><ele>65.66666666666666</ele><time>2026-03-22T14:22:48.452Z</time></trkpt><trkpt lat="40.5085083" lon="16.70794"><ele>64.83333333333333</ele><time>2026-03-22T14:22:59.452Z</time></trkpt><trkpt lat="40.508435" lon="16.7080017"><ele>64.0</ele><time>2026-03-22T14:23:02.452Z</time></trkpt><trkpt lat="40.5083833" lon="16.7080533"><ele>63.99999999999999</ele><time>2026-03-22T14:23:04.452Z</time></trkpt><trkpt lat="40.5083167" lon="16.7081083"><ele>64.0</ele><time>2026-03-22T14:23:07.451Z</time></trkpt><trkpt lat="40.50824" lon="16.7081383"><ele>64.0</ele><time>2026-03-22T14:23:10.453Z</time></trkpt><trkpt lat="40.5081733" lon="16.7081583"><ele>64.0</ele><time>2026-03-22T14:23:12.453Z</time></trkpt><trkpt lat="40.5080983" lon="16.708185"><ele>63.99999999999999</ele><time>2026-03-22T14:23:14.454Z</time></trkpt><trkpt lat="40.5080217" lon="16.7081967"><ele>64.0</ele><time>2026-03-22T14:23:16.452Z</time></trkpt><trkpt lat="40.5079417" lon="16.70819"><ele>63.83333333333333</ele><time>2026-03-22T14:23:18.451Z</time></trkpt><trkpt lat="40.50787" lon="16.70818"><ele>63.666666666666664</ele><time>2026-03-22T14:23:20.453Z</time></trkpt><trkpt lat="40.50778" lon="16.7081883"><ele>63.5</ele><time>2026-03-22T14:23:23.455Z</time></trkpt><trkpt lat="40.5076917" lon="16.708225"><ele>63.33333333333333</ele><time>2026-03-22T14:23:26.452Z</time></trkpt><trkpt lat="40.5076367" lon="16.7082683"><ele>63.166666666666664</ele><time>2026-03-22T14:23:28.452Z</time></trkpt><trkpt lat="40.5075717" lon="16.7083183"><ele>63.0</ele><time>2026-03-22T14:23:30.453Z</time></trkpt><trkpt lat="40.5074983" lon="16.7083683"><ele>63.0</ele><time>2026-03-22T14:23:32.453Z</time></trkpt><trkpt lat="40.507425" lon="16.7084167"><ele>63.0</ele><time>2026-03-22T14:23:34.452Z</time></trkpt><trkpt lat="40.50735" lon="16.7084667"><ele>63.0</ele><time>2026-03-22T14:23:36.452Z</time></trkpt><trkpt lat="40.5072783" lon="16.7085133"><ele>63.0</ele><time>2026-03-22T14:23:38.451Z</time></trkpt><trkpt lat="40.5072083" lon="16.7085533"><ele>63.0</ele><time>2026-03-22T14:23:40.452Z</time></trkpt><trkpt lat="40.5071467" lon="16.7085967"><ele>63.0</ele><time>2026-03-22T14:23:42.452Z</time></trkpt><trkpt lat="40.5070867" lon="16.7086533"><ele>62.42857142857143</ele><time>2026-03-22T14:23:44.453Z</time></trkpt><trkpt lat="40.5070267" lon="16.7087367"><ele>61.85714285714286</ele><time>2026-03-22T14:23:46.456Z</time></trkpt><trkpt lat="40.5069683" lon="16.7088217"><ele>61.285714285714285</ele><time>2026-03-22T14:23:48.453Z</time></trkpt><trkpt lat="40.506915" lon="16.7088983"><ele>60.714285714285715</ele><time>2026-03-22T14:23:50.452Z</time></trkpt><trkpt lat="40.5068667" lon="16.708955"><ele>60.142857142857146</ele><time>2026-03-22T14:23:52.451Z</time></trkpt><trkpt lat="40.5068117" lon="16.7090017"><ele>59.57142857142857</ele><time>2026-03-22T14:23:54.453Z</time></trkpt><trkpt lat="40.50675" lon="16.7090267"><ele>59.0</ele><time>2026-03-22T14:23:56.458Z</time></trkpt><trkpt lat="40.5066683" lon="16.70904"><ele>59.00000000000001</ele><time>2026-03-22T14:24:05.451Z</time></trkpt><trkpt lat="40.50658" lon="16.7090433"><ele>59.0</ele><time>2026-03-22T14:24:08.453Z</time></trkpt><trkpt lat="40.5064917" lon="16.7090733"><ele>59.0</ele><time>2026-03-22T14:24:10.452Z</time></trkpt><trkpt lat="40.506415" lon="16.7091133"><ele>59.0</ele><time>2026-03-22T14:24:12.452Z</time></trkpt><trkpt lat="40.5063417" lon="16.7091583"><ele>59.00000000000001</ele><time>2026-03-22T14:24:14.452Z</time></trkpt><trkpt lat="40.5062567" lon="16.7091983"><ele>59.0</ele><time>2026-03-22T14:24:16.453Z</time></trkpt><trkpt lat="40.506175" lon="16.7092417"><ele>59.400000000000006</ele><time>2026-03-22T14:24:18.451Z</time></trkpt><trkpt lat="40.5060933" lon="16.7092767"><ele>59.800000000000004</ele><time>2026-03-22T14:24:20.452Z</time></trkpt><trkpt lat="40.5060133" lon="16.7093117"><ele>60.199999999999996</ele><time>2026-03-22T14:24:22.452Z</time></trkpt><trkpt lat="40.5059267" lon="16.709355"><ele>60.599999999999994</ele><time>2026-03-22T14:24:24.451Z</time></trkpt><trkpt lat="40.505835" lon="16.7094083"><ele>61.0</ele><time>2026-03-22T14:24:26.452Z</time></trkpt><trkpt lat="40.50575" lon="16.7094567"><ele>60.99999999999999</ele><time>2026-03-22T14:24:28.452Z</time></trkpt><trkpt lat="40.5056883" lon="16.7095033"><ele>61.0</ele><time>2026-03-22T14:24:30.452Z</time></trkpt><trkpt lat="40.50563" lon="16.7095383"><ele>61.0</ele><time>2026-03-22T14:24:32.453Z</time></trkpt><trkpt lat="40.5055483" lon="16.7095633"><ele>61.0</ele><time>2026-03-22T14:24:34.452Z</time></trkpt><trkpt lat="40.5054783" lon="16.7095733"><ele>60.99999999999999</ele><time>2026-03-22T14:24:36.451Z</time></trkpt><trkpt lat="40.5053883" lon="16.70959"><ele>61.0</ele><time>2026-03-22T14:24:39.451Z</time></trkpt><trkpt lat="40.5053" lon="16.709585"><ele>60.99999999999999</ele><time>2026-03-22T14:24:41.452Z</time></trkpt><trkpt lat="40.5052117" lon="16.70959"><ele>61.0</ele><time>2026-03-22T14:24:43.451Z</time></trkpt><trkpt lat="40.505145" lon="16.7095817"><ele>61.0</ele><time>2026-03-22T14:24:45.452Z</time></trkpt><trkpt lat="40.5050533" lon="16.70956"><ele>61.0</ele><time>2026-03-22T14:24:48.452Z</time></trkpt><trkpt lat="40.504975" lon="16.70956"><ele>60.99999999999999</ele><time>2026-03-22T14:24:50.452Z</time></trkpt><trkpt lat="40.504885" lon="16.7095717"><ele>61.0</ele><time>2026-03-22T14:24:52.452Z</time></trkpt><trkpt lat="40.5047917" lon="16.7095833"><ele>60.99999999999999</ele><time>2026-03-22T14:24:54.452Z</time></trkpt><trkpt lat="40.5047017" lon="16.7096"><ele>61.0</ele><time>2026-03-22T14:24:56.452Z</time></trkpt><trkpt lat="40.5046083" lon="16.70962"><ele>61.0</ele><time>2026-03-22T14:24:58.452Z</time></trkpt><trkpt lat="40.5045267" lon="16.7096233"><ele>61.0</ele><time>2026-03-22T14:25:00.451Z</time></trkpt><trkpt lat="40.5044383" lon="16.7096267"><ele>60.99999999999999</ele><time>2026-03-22T14:25:02.453Z</time></trkpt><trkpt lat="40.5043583" lon="16.7096233"><ele>61.0</ele><time>2026-03-22T14:25:04.451Z</time></trkpt><trkpt lat="40.5042883" lon="16.7096117"><ele>60.99999999999999</ele><time>2026-03-22T14:25:06.454Z</time></trkpt><trkpt lat="40.5042117" lon="16.7095917"><ele>61.0</ele><time>2026-03-22T14:25:08.452Z</time></trkpt><trkpt lat="40.5041367" lon="16.7095717"><ele>61.0</ele><time>2026-03-22T14:25:10.451Z</time></trkpt><trkpt lat="40.5040567" lon="16.7095517"><ele>61.0</ele><time>2026-03-22T14:25:12.452Z</time></trkpt><trkpt lat="40.5039767" lon="16.709535"><ele>60.99999999999999</ele><time>2026-03-22T14:25:14.452Z</time></trkpt><trkpt lat="40.5039017" lon="16.7095317"><ele>61.0</ele><time>2026-03-22T14:25:16.452Z</time></trkpt><trkpt lat="40.503805" lon="16.709525"><ele>59.5</ele><time>2026-03-22T14:25:18.451Z</time></trkpt><trkpt lat="40.5036917" lon="16.7095133"><ele>58.0</ele><time>2026-03-22T14:25:20.453Z</time></trkpt><trkpt lat="40.503565" lon="16.7095167"><ele>56.5</ele><time>2026-03-22T14:25:22.452Z</time></trkpt><trkpt lat="40.5034467" lon="16.7095283"><ele>55.0</ele><time>2026-03-22T14:25:24.451Z</time></trkpt><trkpt lat="40.503335" lon="16.70954"><ele>55.0</ele><time>2026-03-22T14:25:26.452Z</time></trkpt><trkpt lat="40.5032217" lon="16.709545"><ele>55.0</ele><time>2026-03-22T14:25:28.451Z</time></trkpt><trkpt lat="40.5031183" lon="16.70956"><ele>55.0</ele><time>2026-03-22T14:25:30.453Z</time></trkpt><trkpt lat="40.5030033" lon="16.709605"><ele>55.0</ele><time>2026-03-22T14:25:32.453Z</time></trkpt><trkpt lat="40.5028867" lon="16.7096433"><ele>53.5</ele><time>2026-03-22T14:25:34.453Z</time></trkpt><trkpt lat="40.5027667" lon="16.7096717"><ele>52.0</ele><time>2026-03-22T14:25:36.452Z</time></trkpt><trkpt lat="40.5026467" lon="16.7096733"><ele>50.5</ele><time>2026-03-22T14:25:38.452Z</time></trkpt><trkpt lat="40.5025333" lon="16.70966"><ele>49.0</ele><time>2026-03-22T14:25:40.452Z</time></trkpt><trkpt lat="40.5024317" lon="16.709665"><ele>49.0</ele><time>2026-03-22T14:25:42.452Z</time></trkpt><trkpt lat="40.502325" lon="16.70969"><ele>49.0</ele><time>2026-03-22T14:25:44.452Z</time></trkpt><trkpt lat="40.50221" lon="16.70972"><ele>49.0</ele><time>2026-03-22T14:25:46.452Z</time></trkpt><trkpt lat="40.5020967" lon="16.7097567"><ele>49.0</ele><time>2026-03-22T14:25:48.453Z</time></trkpt><trkpt lat="40.5019883" lon="16.7097983"><ele>48.6</ele><time>2026-03-22T14:25:50.453Z</time></trkpt><trkpt lat="40.5018767" lon="16.7098117"><ele>48.2</ele><time>2026-03-22T14:25:52.452Z</time></trkpt><trkpt lat="40.5017867" lon="16.7098067"><ele>47.800000000000004</ele><time>2026-03-22T14:25:54.452Z</time></trkpt><trkpt lat="40.50171" lon="16.7097933"><ele>47.400000000000006</ele><time>2026-03-22T14:25:56.452Z</time></trkpt><trkpt lat="40.501625" lon="16.7097767"><ele>47.0</ele><time>2026-03-22T14:25:58.451Z</time></trkpt><trkpt lat="40.5015183" lon="16.70976"><ele>47.0</ele><time>2026-03-22T14:26:00.452Z</time></trkpt><trkpt lat="40.5014" lon="16.7097717"><ele>47.0</ele><time>2026-03-22T14:26:02.454Z</time></trkpt><trkpt lat="40.5012817" lon="16.7098"><ele>47.0</ele><time>2026-03-22T14:26:04.452Z</time></trkpt><trkpt lat="40.5011717" lon="16.709835"><ele>47.0</ele><time>2026-03-22T14:26:06.452Z</time></trkpt><trkpt lat="40.5010733" lon="16.7098667"><ele>46.2</ele><time>2026-03-22T14:26:08.452Z</time></trkpt><trkpt lat="40.5009817" lon="16.7098833"><ele>45.400000000000006</ele><time>2026-03-22T14:26:10.451Z</time></trkpt><trkpt lat="40.5008783" lon="16.7098883"><ele>44.599999999999994</ele><time>2026-03-22T14:26:12.452Z</time></trkpt><trkpt lat="40.50077" lon="16.7098983"><ele>43.8</ele><time>2026-03-22T14:26:14.453Z</time></trkpt><trkpt lat="40.5006533" lon="16.7099183"><ele>43.0</ele><time>2026-03-22T14:26:16.453Z</time></trkpt><trkpt lat="40.5005417" lon="16.70995"><ele>43.0</ele><time>2026-03-22T14:26:18.451Z</time></trkpt><trkpt lat="40.5004317" lon="16.7099917"><ele>43.0</ele><time>2026-03-22T14:26:20.452Z</time></trkpt><trkpt lat="40.5003383" lon="16.7100367"><ele>43.0</ele><time>2026-03-22T14:26:22.452Z</time></trkpt><trkpt lat="40.5002567" lon="16.7100633"><ele>43.0</ele><time>2026-03-22T14:26:24.451Z</time></trkpt><trkpt lat="40.50018" lon="16.71007"><ele>43.0</ele><time>2026-03-22T14:26:26.452Z</time></trkpt><trkpt lat="40.5000833" lon="16.7100683"><ele>42.8</ele><time>2026-03-22T14:26:28.455Z</time></trkpt><trkpt lat="40.4999717" lon="16.7100617"><ele>42.599999999999994</ele><time>2026-03-22T14:26:30.452Z</time></trkpt><trkpt lat="40.4998633" lon="16.7100517"><ele>42.400000000000006</ele><time>2026-03-22T14:26:32.452Z</time></trkpt><trkpt lat="40.4997567" lon="16.7100317"><ele>42.2</ele><time>2026-03-22T14:26:34.452Z</time></trkpt><trkpt lat="40.4996667" lon="16.7100183"><ele>42.0</ele><time>2026-03-22T14:26:36.452Z</time></trkpt><trkpt lat="40.4995867" lon="16.7100317"><ele>41.4</ele><time>2026-03-22T14:26:38.452Z</time></trkpt><trkpt lat="40.4994983" lon="16.710075"><ele>40.800000000000004</ele><time>2026-03-22T14:26:40.451Z</time></trkpt><trkpt lat="40.4994083" lon="16.7101117"><ele>40.2</ele><time>2026-03-22T14:26:42.452Z</time></trkpt><trkpt lat="40.49931" lon="16.7101367"><ele>39.6</ele><time>2026-03-22T14:26:44.453Z</time></trkpt><trkpt lat="40.499225" lon="16.7101633"><ele>39.0</ele><time>2026-03-22T14:26:46.452Z</time></trkpt><trkpt lat="40.49915" lon="16.7101817"><ele>39.2</ele><time>2026-03-22T14:26:49.452Z</time></trkpt><trkpt lat="40.4991133" lon="16.7102667"><ele>39.4</ele><time>2026-03-22T14:26:53.452Z</time></trkpt><trkpt lat="40.4990717" lon="16.71037"><ele>39.6</ele><time>2026-03-22T14:26:55.452Z</time></trkpt><trkpt lat="40.4989883" lon="16.7104683"><ele>39.8</ele><time>2026-03-22T14:26:57.451Z</time></trkpt><trkpt lat="40.4988933" lon="16.7105433"><ele>40.0</ele><time>2026-03-22T14:26:59.454Z</time></trkpt><trkpt lat="40.4988033" lon="16.710615"><ele>39.8</ele><time>2026-03-22T14:27:01.452Z</time></trkpt><trkpt lat="40.498705" lon="16.710725"><ele>39.6</ele><time>2026-03-22T14:27:03.452Z</time></trkpt><trkpt lat="40.498665" lon="16.71079"><ele>39.4</ele><time>2026-03-22T14:27:04.452Z</time></trkpt><trkpt lat="40.4986" lon="16.7109033"><ele>39.2</ele><time>2026-03-22T14:27:06.453Z</time></trkpt><trkpt lat="40.4985383" lon="16.710945"><ele>39.0</ele><time>2026-03-22T14:27:08.452Z</time></trkpt><trkpt lat="40.4985017" lon="16.710835"><ele>39.0</ele><time>2026-03-22T14:27:21.451Z</time></trkpt><trkpt lat="40.4985" lon="16.7106883"><ele>39.0</ele><time>2026-03-22T14:27:23.452Z</time></trkpt><trkpt lat="40.4984983" lon="16.7105617"><ele>39.0</ele><time>2026-03-22T14:27:25.452Z</time></trkpt><trkpt lat="40.498445" lon="16.7104567"><ele>39.0</ele><time>2026-03-22T14:27:27.452Z</time></trkpt><trkpt lat="40.4983183" lon="16.710345"><ele>39.0</ele><time>2026-03-22T14:27:29.452Z</time></trkpt><trkpt lat="40.49823" lon="16.7102983"><ele>39.0</ele><time>2026-03-22T14:27:30.452Z</time></trkpt><trkpt lat="40.4981417" lon="16.7102517"><ele>39.0</ele><time>2026-03-22T14:27:31.453Z</time></trkpt><trkpt lat="40.4980583" lon="16.7102117"><ele>39.0</ele><time>2026-03-22T14:27:32.453Z</time></trkpt><trkpt lat="40.4979767" lon="16.71018"><ele>39.0</ele><time>2026-03-22T14:27:33.452Z</time></trkpt><trkpt lat="40.4978967" lon="16.7101483"><ele>39.0</ele><time>2026-03-22T14:27:34.452Z</time></trkpt><trkpt lat="40.4978217" lon="16.7101183"><ele>38.666666666666664</ele><time>2026-03-22T14:27:35.452Z</time></trkpt><trkpt lat="40.4977483" lon="16.71009"><ele>38.333333333333336</ele><time>2026-03-22T14:27:36.453Z</time></trkpt><trkpt lat="40.4976767" lon="16.71006"><ele>38.0</ele><time>2026-03-22T14:27:37.452Z</time></trkpt><trkpt lat="40.4976033" lon="16.710025"><ele>37.66666666666667</ele><time>2026-03-22T14:27:38.452Z</time></trkpt><trkpt lat="40.497525" lon="16.7099933"><ele>37.333333333333336</ele><time>2026-03-22T14:27:39.451Z</time></trkpt><trkpt lat="40.4974467" lon="16.7099633"><ele>37.0</ele><time>2026-03-22T14:27:40.452Z</time></trkpt><trkpt lat="40.49737" lon="16.7099367"><ele>37.0</ele><time>2026-03-22T14:27:41.453Z</time></trkpt><trkpt lat="40.4972933" lon="16.7099067"><ele>37.0</ele><time>2026-03-22T14:27:42.452Z</time></trkpt><trkpt lat="40.4972267" lon="16.70987"><ele>37.0</ele><time>2026-03-22T14:27:43.452Z</time></trkpt><trkpt lat="40.4971583" lon="16.7098267"><ele>37.0</ele><time>2026-03-22T14:27:44.452Z</time></trkpt><trkpt lat="40.4970883" lon="16.70978"><ele>37.0</ele><time>2026-03-22T14:27:45.452Z</time></trkpt><trkpt lat="40.497015" lon="16.7097267"><ele>37.0</ele><time>2026-03-22T14:27:46.453Z</time></trkpt><trkpt lat="40.4969417" lon="16.7096783"><ele>36.5</ele><time>2026-03-22T14:27:47.453Z</time></trkpt><trkpt lat="40.4968667" lon="16.709635"><ele>36.0</ele><time>2026-03-22T14:27:48.453Z</time></trkpt><trkpt lat="40.496795" lon="16.7096"><ele>35.5</ele><time>2026-03-22T14:27:49.452Z</time></trkpt><trkpt lat="40.4967267" lon="16.7095633"><ele>35.0</ele><time>2026-03-22T14:27:50.452Z</time></trkpt><trkpt lat="40.4966283" lon="16.7095"><ele>34.5</ele><time>2026-03-22T14:27:52.452Z</time></trkpt><trkpt lat="40.496555" lon="16.70945"><ele>34.0</ele><time>2026-03-22T14:27:54.451Z</time></trkpt><trkpt lat="40.4964467" lon="16.7093917"><ele>33.833333333333336</ele><time>2026-03-22T14:27:56.453Z</time></trkpt><trkpt lat="40.49638" lon="16.70936"><ele>33.66666666666667</ele><time>2026-03-22T14:27:57.452Z</time></trkpt><trkpt lat="40.4963083" lon="16.7093367"><ele>33.5</ele><time>2026-03-22T14:27:58.451Z</time></trkpt><trkpt lat="40.4962383" lon="16.70932"><ele>33.333333333333336</ele><time>2026-03-22T14:27:59.451Z</time></trkpt><trkpt lat="40.496175" lon="16.7093067"><ele>33.166666666666664</ele><time>2026-03-22T14:28:00.452Z</time></trkpt><trkpt lat="40.496065" lon="16.7092733"><ele>33.0</ele><time>2026-03-22T14:28:02.452Z</time></trkpt><trkpt lat="40.4959817" lon="16.7092433"><ele>32.166666666666664</ele><time>2026-03-22T14:28:04.452Z</time></trkpt><trkpt lat="40.4959233" lon="16.70917"><ele>31.333333333333336</ele><time>2026-03-22T14:28:06.451Z</time></trkpt><trkpt lat="40.4958967" lon="16.7090883"><ele>30.5</ele><time>2026-03-22T14:28:08.455Z</time></trkpt><trkpt lat="40.495855" lon="16.7090117"><ele>29.666666666666668</ele><time>2026-03-22T14:28:11.452Z</time></trkpt><trkpt lat="40.4959033" lon="16.7091133"><ele>28.833333333333336</ele><time>2026-03-22T14:28:41.452Z</time></trkpt><trkpt lat="40.4959667" lon="16.709225"><ele>28.0</ele><time>2026-03-22T14:28:43.452Z</time></trkpt><trkpt lat="40.49608" lon="16.7092967"><ele>28.0</ele><time>2026-03-22T14:28:45.452Z</time></trkpt><trkpt lat="40.4961733" lon="16.7093233"><ele>27.999999999999996</ele><time>2026-03-22T14:28:46.452Z</time></trkpt><trkpt lat="40.4962733" lon="16.70935"><ele>27.999999999999996</ele><time>2026-03-22T14:28:47.452Z</time></trkpt><trkpt lat="40.4963667" lon="16.7093783"><ele>28.0</ele><time>2026-03-22T14:28:48.452Z</time></trkpt><trkpt lat="40.4964567" lon="16.709415"><ele>28.0</ele><time>2026-03-22T14:28:49.453Z</time></trkpt><trkpt lat="40.4965383" lon="16.7094617"><ele>29.000000000000004</ele><time>2026-03-22T14:28:50.454Z</time></trkpt><trkpt lat="40.4966083" lon="16.70951"><ele>30.0</ele><time>2026-03-22T14:28:51.453Z</time></trkpt><trkpt lat="40.4966767" lon="16.7095533"><ele>31.0</ele><time>2026-03-22T14:28:52.452Z</time></trkpt><trkpt lat="40.49675" lon="16.7095967"><ele>32.0</ele><time>2026-03-22T14:28:53.452Z</time></trkpt><trkpt lat="40.4968283" lon="16.7096383"><ele>33.0</ele><time>2026-03-22T14:28:54.453Z</time></trkpt><trkpt lat="40.4969083" lon="16.709685"><ele>34.0</ele><time>2026-03-22T14:28:55.452Z</time></trkpt><trkpt lat="40.496985" lon="16.709735"><ele>34.0</ele><time>2026-03-22T14:28:56.453Z</time></trkpt><trkpt lat="40.4970583" lon="16.70979"><ele>34.0</ele><time>2026-03-22T14:28:57.453Z</time></trkpt><trkpt lat="40.4971267" lon="16.7098367"><ele>34.0</ele><time>2026-03-22T14:28:58.451Z</time></trkpt><trkpt lat="40.4971967" lon="16.7098733"><ele>34.0</ele><time>2026-03-22T14:28:59.451Z</time></trkpt><trkpt lat="40.4972683" lon="16.7099083"><ele>34.0</ele><time>2026-03-22T14:29:00.452Z</time></trkpt><trkpt lat="40.4973433" lon="16.7099483"><ele>34.0</ele><time>2026-03-22T14:29:01.452Z</time></trkpt><trkpt lat="40.497425" lon="16.709985"><ele>34.6</ele><time>2026-03-22T14:29:02.452Z</time></trkpt><trkpt lat="40.4975133" lon="16.7100217"><ele>35.2</ele><time>2026-03-22T14:29:03.454Z</time></trkpt><trkpt lat="40.4976033" lon="16.7100583"><ele>35.800000000000004</ele><time>2026-03-22T14:29:04.452Z</time></trkpt><trkpt lat="40.49769" lon="16.7101"><ele>36.4</ele><time>2026-03-22T14:29:05.452Z</time></trkpt><trkpt lat="40.497775" lon="16.71014"><ele>37.0</ele><time>2026-03-22T14:29:06.452Z</time></trkpt><trkpt lat="40.4978633" lon="16.7101767"><ele>37.2</ele><time>2026-03-22T14:29:07.452Z</time></trkpt><trkpt lat="40.497955" lon="16.7102083"><ele>37.400000000000006</ele><time>2026-03-22T14:29:08.452Z</time></trkpt><trkpt lat="40.4980517" lon="16.7102417"><ele>37.599999999999994</ele><time>2026-03-22T14:29:09.452Z</time></trkpt><trkpt lat="40.498145" lon="16.7102833"><ele>37.8</ele><time>2026-03-22T14:29:10.452Z</time></trkpt><trkpt lat="40.4982333" lon="16.7103367"><ele>38.0</ele><time>2026-03-22T14:29:11.452Z</time></trkpt><trkpt lat="40.4983133" lon="16.7103883"><ele>38.166666666666664</ele><time>2026-03-22T14:29:12.452Z</time></trkpt><trkpt lat="40.498385" lon="16.7104317"><ele>38.33333333333333</ele><time>2026-03-22T14:29:13.452Z</time></trkpt><trkpt lat="40.4984467" lon="16.710465"><ele>38.5</ele><time>2026-03-22T14:29:14.453Z</time></trkpt><trkpt lat="40.4985433" lon="16.710505"><ele>38.666666666666664</ele><time>2026-03-22T14:29:16.452Z</time></trkpt><trkpt lat="40.498625" lon="16.7105067"><ele>38.833333333333336</ele><time>2026-03-22T14:29:19.452Z</time></trkpt><trkpt lat="40.4987" lon="16.7104117"><ele>39.0</ele><time>2026-03-22T14:29:22.454Z</time></trkpt><trkpt lat="40.4987433" lon="16.7102833"><ele>39.0</ele><time>2026-03-22T14:29:24.453Z</time></trkpt><trkpt lat="40.4987733" lon="16.7102083"><ele>39.0</ele><time>2026-03-22T14:29:25.453Z</time></trkpt><trkpt lat="40.4988067" lon="16.7101183"><ele>39.0</ele><time>2026-03-22T14:29:26.454Z</time></trkpt><trkpt lat="40.4988417" lon="16.710015"><ele>39.0</ele><time>2026-03-22T14:29:27.452Z</time></trkpt><trkpt lat="40.498875" lon="16.7099117"><ele>39.0</ele><time>2026-03-22T14:29:28.452Z</time></trkpt><trkpt lat="40.49891" lon="16.709805"><ele>39.0</ele><time>2026-03-22T14:29:29.452Z</time></trkpt><trkpt lat="40.49895" lon="16.7096917"><ele>39.0</ele><time>2026-03-22T14:29:30.453Z</time></trkpt><trkpt lat="40.4989967" lon="16.709575"><ele>39.0</ele><time>2026-03-22T14:29:31.452Z</time></trkpt><trkpt lat="40.4990483" lon="16.70946"><ele>39.0</ele><time>2026-03-22T14:29:32.453Z</time></trkpt><trkpt lat="40.4991067" lon="16.7093483"><ele>39.0</ele><time>2026-03-22T14:29:33.453Z</time></trkpt><trkpt lat="40.4991717" lon="16.70924"><ele>39.0</ele><time>2026-03-22T14:29:34.453Z</time></trkpt><trkpt lat="40.49924" lon="16.7091383"><ele>39.4</ele><time>2026-03-22T14:29:35.452Z</time></trkpt><trkpt lat="40.49931" lon="16.7090383"><ele>39.8</ele><time>2026-03-22T14:29:36.452Z</time></trkpt><trkpt lat="40.4993783" lon="16.708935"><ele>40.199999999999996</ele><time>2026-03-22T14:29:37.452Z</time></trkpt><trkpt lat="40.499445" lon="16.70883"><ele>40.599999999999994</ele><time>2026-03-22T14:29:38.452Z</time></trkpt><trkpt lat="40.499505" lon="16.7087167"><ele>41.0</ele><time>2026-03-22T14:29:39.451Z</time></trkpt><trkpt lat="40.49956" lon="16.7085967"><ele>41.0</ele><time>2026-03-22T14:29:40.452Z</time></trkpt><trkpt lat="40.4996083" lon="16.7084667"><ele>41.0</ele><time>2026-03-22T14:29:41.452Z</time></trkpt><trkpt lat="40.4996533" lon="16.7083283"><ele>41.0</ele><time>2026-03-22T14:29:42.452Z</time></trkpt><trkpt lat="40.4996967" lon="16.7081867"><ele>41.0</ele><time>2026-03-22T14:29:43.453Z</time></trkpt><trkpt lat="40.49974" lon="16.7080383"><ele>41.0</ele><time>2026-03-22T14:29:44.452Z</time></trkpt><trkpt lat="40.4997817" lon="16.7078783"><ele>41.0</ele><time>2026-03-22T14:29:45.452Z</time></trkpt><trkpt lat="40.4998233" lon="16.707715"><ele>41.0</ele><time>2026-03-22T14:29:46.452Z</time></trkpt><trkpt lat="40.4998617" lon="16.7075517"><ele>41.0</ele><time>2026-03-22T14:29:47.453Z</time></trkpt><trkpt lat="40.499905" lon="16.7073867"><ele>41.0</ele><time>2026-03-22T14:29:48.452Z</time></trkpt><trkpt lat="40.49995" lon="16.70722"><ele>41.0</ele><time>2026-03-22T14:29:49.452Z</time></trkpt><trkpt lat="40.499995" lon="16.7070517"><ele>41.0</ele><time>2026-03-22T14:29:50.453Z</time></trkpt><trkpt lat="40.5000433" lon="16.7068833"><ele>41.0</ele><time>2026-03-22T14:29:51.452Z</time></trkpt><trkpt lat="40.5000917" lon="16.7067183"><ele>41.0</ele><time>2026-03-22T14:29:52.456Z</time></trkpt><trkpt lat="40.5001383" lon="16.70655"><ele>41.0</ele><time>2026-03-22T14:29:53.457Z</time></trkpt><trkpt lat="40.5001817" lon="16.7063783"><ele>41.0</ele><time>2026-03-22T14:29:54.452Z</time></trkpt><trkpt lat="40.500225" lon="16.70621"><ele>41.0</ele><time>2026-03-22T14:29:55.453Z</time></trkpt><trkpt lat="40.50027" lon="16.7060417"><ele>40.5</ele><time>2026-03-22T14:29:56.454Z</time></trkpt><trkpt lat="40.500315" lon="16.7058733"><ele>40.0</ele><time>2026-03-22T14:29:57.452Z</time></trkpt><trkpt lat="40.50036" lon="16.7057083"><ele>39.5</ele><time>2026-03-22T14:29:58.452Z</time></trkpt><trkpt lat="40.5004067" lon="16.7055433"><ele>39.0</ele><time>2026-03-22T14:29:59.452Z</time></trkpt><trkpt lat="40.5004533" lon="16.7053783"><ele>40.75</ele><time>2026-03-22T14:30:00.452Z</time></trkpt><trkpt lat="40.5005017" lon="16.7052133"><ele>42.5</ele><time>2026-03-22T14:30:01.453Z</time></trkpt><trkpt lat="40.5005483" lon="16.7050483"><ele>44.25</ele><time>2026-03-22T14:30:02.455Z</time></trkpt><trkpt lat="40.5005933" lon="16.7048867"><ele>46.0</ele><time>2026-03-22T14:30:03.454Z</time></trkpt><trkpt lat="40.5006367" lon="16.704725"><ele>46.0</ele><time>2026-03-22T14:30:04.453Z</time></trkpt><trkpt lat="40.5006817" lon="16.7045633"><ele>46.0</ele><time>2026-03-22T14:30:05.454Z</time></trkpt><trkpt lat="40.5007267" lon="16.7044033"><ele>46.0</ele><time>2026-03-22T14:30:06.453Z</time></trkpt><trkpt lat="40.50077" lon="16.7042467"><ele>46.0</ele><time>2026-03-22T14:30:07.454Z</time></trkpt><trkpt lat="40.500815" lon="16.70409"><ele>45.5</ele><time>2026-03-22T14:30:08.454Z</time></trkpt><trkpt lat="40.5008583" lon="16.703935"><ele>45.0</ele><time>2026-03-22T14:30:09.454Z</time></trkpt><trkpt lat="40.5008983" lon="16.70378"><ele>44.5</ele><time>2026-03-22T14:30:10.454Z</time></trkpt><trkpt lat="40.5009383" lon="16.703625"><ele>44.0</ele><time>2026-03-22T14:30:11.453Z</time></trkpt><trkpt lat="40.5009767" lon="16.70347"><ele>43.25</ele><time>2026-03-22T14:30:12.452Z</time></trkpt><trkpt lat="40.5010117" lon="16.70331"><ele>42.5</ele><time>2026-03-22T14:30:13.452Z</time></trkpt><trkpt lat="40.5010467" lon="16.703145"><ele>41.75</ele><time>2026-03-22T14:30:14.452Z</time></trkpt><trkpt lat="40.5010833" lon="16.7029817"><ele>41.0</ele><time>2026-03-22T14:30:15.452Z</time></trkpt><trkpt lat="40.5011217" lon="16.702815"><ele>40.75</ele><time>2026-03-22T14:30:16.454Z</time></trkpt><trkpt lat="40.50116" lon="16.70265"><ele>40.5</ele><time>2026-03-22T14:30:17.452Z</time></trkpt><trkpt lat="40.5012017" lon="16.702485"><ele>40.25</ele><time>2026-03-22T14:30:18.452Z</time></trkpt><trkpt lat="40.5012433" lon="16.7023183"><ele>40.0</ele><time>2026-03-22T14:30:19.451Z</time></trkpt><trkpt lat="40.5012833" lon="16.70215"><ele>41.0</ele><time>2026-03-22T14:30:20.452Z</time></trkpt><trkpt lat="40.5013233" lon="16.70198"><ele>42.0</ele><time>2026-03-22T14:30:21.452Z</time></trkpt><trkpt lat="40.5013667" lon="16.7018117"><ele>43.0</ele><time>2026-03-22T14:30:22.452Z</time></trkpt><trkpt lat="40.5014083" lon="16.701645"><ele>44.0</ele><time>2026-03-22T14:30:23.453Z</time></trkpt><trkpt lat="40.5014483" lon="16.7014817"><ele>44.0</ele><time>2026-03-22T14:30:24.452Z</time></trkpt><trkpt lat="40.5014883" lon="16.701315"><ele>44.0</ele><time>2026-03-22T14:30:25.452Z</time></trkpt><trkpt lat="40.5015283" lon="16.7011467"><ele>44.0</ele><time>2026-03-22T14:30:26.453Z</time></trkpt><trkpt lat="40.50157" lon="16.70098"><ele>44.0</ele><time>2026-03-22T14:30:27.452Z</time></trkpt><trkpt lat="40.5016117" lon="16.700815"><ele>43.75</ele><time>2026-03-22T14:30:28.453Z</time></trkpt><trkpt lat="40.5016517" lon="16.70065"><ele>43.5</ele><time>2026-03-22T14:30:29.453Z</time></trkpt><trkpt lat="40.50168" lon="16.7004833"><ele>43.25</ele><time>2026-03-22T14:30:30.454Z</time></trkpt><trkpt lat="40.5016967" lon="16.700315"><ele>43.0</ele><time>2026-03-22T14:30:31.453Z</time></trkpt><trkpt lat="40.5016983" lon="16.700145"><ele>42.75</ele><time>2026-03-22T14:30:32.455Z</time></trkpt><trkpt lat="40.5016833" lon="16.69997"><ele>42.5</ele><time>2026-03-22T14:30:33.453Z</time></trkpt><trkpt lat="40.50166" lon="16.6997917"><ele>42.25</ele><time>2026-03-22T14:30:34.452Z</time></trkpt><trkpt lat="40.5016383" lon="16.69961"><ele>42.0</ele><time>2026-03-22T14:30:35.453Z</time></trkpt><trkpt lat="40.5016167" lon="16.6994267"><ele>41.75</ele><time>2026-03-22T14:30:36.452Z</time></trkpt><trkpt lat="40.501595" lon="16.6992433"><ele>41.5</ele><time>2026-03-22T14:30:37.453Z</time></trkpt><trkpt lat="40.5015717" lon="16.69906"><ele>41.25</ele><time>2026-03-22T14:30:38.452Z</time></trkpt><trkpt lat="40.50155" lon="16.6988767"><ele>41.0</ele><time>2026-03-22T14:30:39.452Z</time></trkpt><trkpt lat="40.50153" lon="16.6986933"><ele>40.0</ele><time>2026-03-22T14:30:40.452Z</time></trkpt><trkpt lat="40.50151" lon="16.6985083"><ele>39.0</ele><time>2026-03-22T14:30:41.452Z</time></trkpt><trkpt lat="40.5014917" lon="16.6983217"><ele>38.0</ele><time>2026-03-22T14:30:42.453Z</time></trkpt><trkpt lat="40.5014733" lon="16.6981333"><ele>37.0</ele><time>2026-03-22T14:30:43.452Z</time></trkpt><trkpt lat="40.5014533" lon="16.6979467"><ele>37.0</ele><time>2026-03-22T14:30:44.455Z</time></trkpt><trkpt lat="40.5014333" lon="16.6977617"><ele>37.0</ele><time>2026-03-22T14:30:45.454Z</time></trkpt><trkpt lat="40.5014133" lon="16.6975733"><ele>37.0</ele><time>2026-03-22T14:30:46.452Z</time></trkpt><trkpt lat="40.5013917" lon="16.6973833"><ele>37.0</ele><time>2026-03-22T14:30:47.453Z</time></trkpt><trkpt lat="40.5013717" lon="16.6971917"><ele>37.5</ele><time>2026-03-22T14:30:48.452Z</time></trkpt><trkpt lat="40.5013517" lon="16.6969967"><ele>38.0</ele><time>2026-03-22T14:30:49.452Z</time></trkpt><trkpt lat="40.5013317" lon="16.6968017"><ele>38.5</ele><time>2026-03-22T14:30:50.452Z</time></trkpt><trkpt lat="40.5013117" lon="16.6966083"><ele>39.0</ele><time>2026-03-22T14:30:51.452Z</time></trkpt><trkpt lat="40.5012917" lon="16.6964183"><ele>39.5</ele><time>2026-03-22T14:30:52.452Z</time></trkpt><trkpt lat="40.501275" lon="16.69623"><ele>40.0</ele><time>2026-03-22T14:30:53.452Z</time></trkpt><trkpt lat="40.5012567" lon="16.6960433"><ele>40.5</ele><time>2026-03-22T14:30:54.452Z</time></trkpt><trkpt lat="40.501235" lon="16.6958583"><ele>41.0</ele><time>2026-03-22T14:30:55.452Z</time></trkpt><trkpt lat="40.50121" lon="16.69567"><ele>41.0</ele><time>2026-03-22T14:30:56.455Z</time></trkpt><trkpt lat="40.50118" lon="16.6954767"><ele>41.0</ele><time>2026-03-22T14:30:57.454Z</time></trkpt><trkpt lat="40.5011433" lon="16.69528"><ele>41.0</ele><time>2026-03-22T14:30:58.452Z</time></trkpt><trkpt lat="40.5011" lon="16.6950817"><ele>41.0</ele><time>2026-03-22T14:30:59.453Z</time></trkpt><trkpt lat="40.5010433" lon="16.694885"><ele>41.0</ele><time>2026-03-22T14:31:00.452Z</time></trkpt><trkpt lat="40.5009817" lon="16.69469"><ele>41.0</ele><time>2026-03-22T14:31:01.453Z</time></trkpt><trkpt lat="40.5009167" lon="16.6944967"><ele>41.33333333333333</ele><time>2026-03-22T14:31:02.456Z</time></trkpt><trkpt lat="40.5008517" lon="16.6943067"><ele>41.666666666666664</ele><time>2026-03-22T14:31:03.452Z</time></trkpt><trkpt lat="40.5007883" lon="16.6941183"><ele>42.0</ele><time>2026-03-22T14:31:04.453Z</time></trkpt><trkpt lat="40.500725" lon="16.6939317"><ele>42.0</ele><time>2026-03-22T14:31:05.454Z</time></trkpt><trkpt lat="40.5006617" lon="16.693745"><ele>42.0</ele><time>2026-03-22T14:31:06.453Z</time></trkpt><trkpt lat="40.5006017" lon="16.6935617"><ele>42.0</ele><time>2026-03-22T14:31:07.453Z</time></trkpt><trkpt lat="40.50054" lon="16.6933783"><ele>42.333333333333336</ele><time>2026-03-22T14:31:08.453Z</time></trkpt><trkpt lat="40.5004783" lon="16.693195"><ele>42.66666666666667</ele><time>2026-03-22T14:31:09.454Z</time></trkpt><trkpt lat="40.500415" lon="16.693015"><ele>43.0</ele><time>2026-03-22T14:31:10.453Z</time></trkpt><trkpt lat="40.5003567" lon="16.692835"><ele>42.25</ele><time>2026-03-22T14:31:11.452Z</time></trkpt><trkpt lat="40.5003" lon="16.6926567"><ele>41.5</ele><time>2026-03-22T14:31:12.452Z</time></trkpt><trkpt lat="40.5002483" lon="16.6924733"><ele>40.75</ele><time>2026-03-22T14:31:13.452Z</time></trkpt><trkpt lat="40.500205" lon="16.6922867"><ele>40.0</ele><time>2026-03-22T14:31:14.453Z</time></trkpt><trkpt lat="40.5001667" lon="16.6920983"><ele>40.5</ele><time>2026-03-22T14:31:15.457Z</time></trkpt><trkpt lat="40.5001317" lon="16.69191"><ele>41.0</ele><time>2026-03-22T14:31:16.452Z</time></trkpt><trkpt lat="40.500095" lon="16.6917167"><ele>41.5</ele><time>2026-03-22T14:31:17.452Z</time></trkpt><trkpt lat="40.50006" lon="16.691525"><ele>42.0</ele><time>2026-03-22T14:31:18.451Z</time></trkpt><trkpt lat="40.5000267" lon="16.6913317"><ele>42.0</ele><time>2026-03-22T14:31:19.452Z</time></trkpt><trkpt lat="40.4999917" lon="16.6911333"><ele>42.0</ele><time>2026-03-22T14:31:20.454Z</time></trkpt><trkpt lat="40.499955" lon="16.6909317"><ele>42.0</ele><time>2026-03-22T14:31:21.453Z</time></trkpt><trkpt lat="40.4999167" lon="16.69073"><ele>42.0</ele><time>2026-03-22T14:31:22.453Z</time></trkpt><trkpt lat="40.49988" lon="16.690525"><ele>42.0</ele><time>2026-03-22T14:31:23.452Z</time></trkpt><trkpt lat="40.4998483" lon="16.6903167"><ele>42.0</ele><time>2026-03-22T14:31:24.453Z</time></trkpt><trkpt lat="40.49982" lon="16.6901083"><ele>42.0</ele><time>2026-03-22T14:31:25.452Z</time></trkpt><trkpt lat="40.4998" lon="16.6898967"><ele>42.0</ele><time>2026-03-22T14:31:26.452Z</time></trkpt><trkpt lat="40.4997883" lon="16.689685"><ele>42.0</ele><time>2026-03-22T14:31:27.453Z</time></trkpt><trkpt lat="40.4997817" lon="16.689475"><ele>43.0</ele><time>2026-03-22T14:31:28.452Z</time></trkpt><trkpt lat="40.4997783" lon="16.689265"><ele>44.0</ele><time>2026-03-22T14:31:29.452Z</time></trkpt><trkpt lat="40.49977" lon="16.6890533"><ele>45.0</ele><time>2026-03-22T14:31:30.452Z</time></trkpt><trkpt lat="40.4997633" lon="16.6888433"><ele>45.0</ele><time>2026-03-22T14:31:31.452Z</time></trkpt><trkpt lat="40.4997567" lon="16.688635"><ele>45.0</ele><time>2026-03-22T14:31:32.453Z</time></trkpt><trkpt lat="40.4997483" lon="16.688425"><ele>45.0</ele><time>2026-03-22T14:31:33.452Z</time></trkpt><trkpt lat="40.4997383" lon="16.6882117"><ele>45.666666666666664</ele><time>2026-03-22T14:31:34.452Z</time></trkpt><trkpt lat="40.4997283" lon="16.6879967"><ele>46.33333333333333</ele><time>2026-03-22T14:31:35.452Z</time></trkpt><trkpt lat="40.4997183" lon="16.68778"><ele>47.0</ele><time>2026-03-22T14:31:36.452Z</time></trkpt><trkpt lat="40.4997083" lon="16.68756"><ele>47.0</ele><time>2026-03-22T14:31:37.452Z</time></trkpt><trkpt lat="40.4996967" lon="16.6873333"><ele>47.0</ele><time>2026-03-22T14:31:38.452Z</time></trkpt><trkpt lat="40.4996867" lon="16.6871033"><ele>47.0</ele><time>2026-03-22T14:31:39.452Z</time></trkpt><trkpt lat="40.4996767" lon="16.6868733"><ele>46.666666666666664</ele><time>2026-03-22T14:31:40.452Z</time></trkpt><trkpt lat="40.4996667" lon="16.6866417"><ele>46.333333333333336</ele><time>2026-03-22T14:31:41.453Z</time></trkpt><trkpt lat="40.4996583" lon="16.6864033"><ele>46.0</ele><time>2026-03-22T14:31:42.453Z</time></trkpt><trkpt lat="40.4996483" lon="16.6861633"><ele>46.333333333333336</ele><time>2026-03-22T14:31:43.452Z</time></trkpt><trkpt lat="40.4996383" lon="16.685925"><ele>46.666666666666664</ele><time>2026-03-22T14:31:44.453Z</time></trkpt><trkpt lat="40.49963" lon="16.6856917"><ele>47.0</ele><time>2026-03-22T14:31:45.452Z</time></trkpt><trkpt lat="40.4996283" lon="16.6854617"><ele>46.666666666666664</ele><time>2026-03-22T14:31:46.452Z</time></trkpt><trkpt lat="40.4996383" lon="16.6852333"><ele>46.333333333333336</ele><time>2026-03-22T14:31:47.452Z</time></trkpt><trkpt lat="40.49966" lon="16.6850067"><ele>46.0</ele><time>2026-03-22T14:31:48.452Z</time></trkpt><trkpt lat="40.49969" lon="16.6847833"><ele>46.0</ele><time>2026-03-22T14:31:49.452Z</time></trkpt><trkpt lat="40.49972" lon="16.6845617"><ele>46.0</ele><time>2026-03-22T14:31:50.453Z</time></trkpt><trkpt lat="40.4997533" lon="16.68434"><ele>46.0</ele><time>2026-03-22T14:31:51.452Z</time></trkpt><trkpt lat="40.49978" lon="16.6841183"><ele>45.66666666666667</ele><time>2026-03-22T14:31:52.452Z</time></trkpt><trkpt lat="40.499805" lon="16.6838967"><ele>45.333333333333336</ele><time>2026-03-22T14:31:53.452Z</time></trkpt><trkpt lat="40.4998233" lon="16.683685"><ele>45.0</ele><time>2026-03-22T14:31:54.452Z</time></trkpt><trkpt lat="40.4998383" lon="16.6834783"><ele>44.333333333333336</ele><time>2026-03-22T14:31:55.453Z</time></trkpt><trkpt lat="40.49985" lon="16.68327"><ele>43.66666666666667</ele><time>2026-03-22T14:31:56.453Z</time></trkpt><trkpt lat="40.4998633" lon="16.6830583"><ele>43.0</ele><time>2026-03-22T14:31:57.452Z</time></trkpt><trkpt lat="40.49988" lon="16.6828433"><ele>43.0</ele><time>2026-03-22T14:31:58.451Z</time></trkpt><trkpt lat="40.4998933" lon="16.6826233"><ele>43.0</ele><time>2026-03-22T14:31:59.453Z</time></trkpt><trkpt lat="40.499905" lon="16.6823983"><ele>43.0</ele><time>2026-03-22T14:32:00.452Z</time></trkpt><trkpt lat="40.4999133" lon="16.6821733"><ele>43.0</ele><time>2026-03-22T14:32:01.453Z</time></trkpt><trkpt lat="40.4999217" lon="16.681945"><ele>43.0</ele><time>2026-03-22T14:32:02.453Z</time></trkpt><trkpt lat="40.49993" lon="16.6817167"><ele>43.0</ele><time>2026-03-22T14:32:03.457Z</time></trkpt><trkpt lat="40.499935" lon="16.681485"><ele>42.66666666666667</ele><time>2026-03-22T14:32:04.452Z</time></trkpt><trkpt lat="40.49994" lon="16.6812533"><ele>42.333333333333336</ele><time>2026-03-22T14:32:05.453Z</time></trkpt><trkpt lat="40.49995" lon="16.6810233"><ele>42.0</ele><time>2026-03-22T14:32:06.452Z</time></trkpt><trkpt lat="40.4999617" lon="16.6807933"><ele>42.0</ele><time>2026-03-22T14:32:07.452Z</time></trkpt><trkpt lat="40.4999733" lon="16.6805667"><ele>42.0</ele><time>2026-03-22T14:32:08.454Z</time></trkpt><trkpt lat="40.4999833" lon="16.6803433"><ele>42.0</ele><time>2026-03-22T14:32:09.454Z</time></trkpt><trkpt lat="40.4999933" lon="16.680125"><ele>42.75</ele><time>2026-03-22T14:32:10.453Z</time></trkpt><trkpt lat="40.5000017" lon="16.6799167"><ele>43.5</ele><time>2026-03-22T14:32:11.452Z</time></trkpt><trkpt lat="40.5000083" lon="16.679725"><ele>44.25</ele><time>2026-03-22T14:32:12.453Z</time></trkpt><trkpt lat="40.5000167" lon="16.67955"><ele>45.0</ele><time>2026-03-22T14:32:13.452Z</time></trkpt><trkpt lat="40.5000217" lon="16.6793867"><ele>45.5</ele><time>2026-03-22T14:32:14.454Z</time></trkpt><trkpt lat="40.5000267" lon="16.6792317"><ele>46.0</ele><time>2026-03-22T14:32:15.452Z</time></trkpt><trkpt lat="40.5000317" lon="16.6790767"><ele>46.5</ele><time>2026-03-22T14:32:16.452Z</time></trkpt><trkpt lat="40.500035" lon="16.67892"><ele>47.0</ele><time>2026-03-22T14:32:17.452Z</time></trkpt><trkpt lat="40.5000367" lon="16.6787667"><ele>47.0</ele><time>2026-03-22T14:32:18.451Z</time></trkpt><trkpt lat="40.5000333" lon="16.67862"><ele>47.0</ele><time>2026-03-22T14:32:19.452Z</time></trkpt><trkpt lat="40.50004" lon="16.678475"><ele>47.0</ele><time>2026-03-22T14:32:20.452Z</time></trkpt><trkpt lat="40.5000533" lon="16.6783267"><ele>47.0</ele><time>2026-03-22T14:32:21.453Z</time></trkpt><trkpt lat="40.5000667" lon="16.678175"><ele>46.8</ele><time>2026-03-22T14:32:22.452Z</time></trkpt><trkpt lat="40.5000783" lon="16.6780383"><ele>46.6</ele><time>2026-03-22T14:32:23.452Z</time></trkpt><trkpt lat="40.5000883" lon="16.6779433"><ele>46.4</ele><time>2026-03-22T14:32:24.452Z</time></trkpt><trkpt lat="40.5000733" lon="16.6778467"><ele>46.199999999999996</ele><time>2026-03-22T14:32:26.452Z</time></trkpt><trkpt lat="40.4999983" lon="16.6779567"><ele>46.0</ele><time>2026-03-22T14:32:29.452Z</time></trkpt><trkpt lat="40.4999467" lon="16.678085"><ele>46.0</ele><time>2026-03-22T14:32:31.454Z</time></trkpt><trkpt lat="40.49989" lon="16.6781933"><ele>46.0</ele><time>2026-03-22T14:32:33.452Z</time></trkpt><trkpt lat="40.4998733" lon="16.6783117"><ele>46.0</ele><time>2026-03-22T14:32:35.452Z</time></trkpt><trkpt lat="40.49987" lon="16.6784367"><ele>46.0</ele><time>2026-03-22T14:32:37.453Z</time></trkpt><trkpt lat="40.4998583" lon="16.6785567"><ele>46.0</ele><time>2026-03-22T14:32:39.453Z</time></trkpt><trkpt lat="40.4998417" lon="16.6786917"><ele>46.199999999999996</ele><time>2026-03-22T14:32:41.453Z</time></trkpt><trkpt lat="40.4998217" lon="16.6788117"><ele>46.4</ele><time>2026-03-22T14:32:43.452Z</time></trkpt><trkpt lat="40.4997817" lon="16.678895"><ele>46.6</ele><time>2026-03-22T14:32:45.452Z</time></trkpt><trkpt lat="40.4997067" lon="16.6788933"><ele>46.8</ele><time>2026-03-22T14:32:47.452Z</time></trkpt><trkpt lat="40.499605" lon="16.6788583"><ele>47.0</ele><time>2026-03-22T14:32:49.452Z</time></trkpt><trkpt lat="40.4995033" lon="16.678835"><ele>46.57142857142857</ele><time>2026-03-22T14:32:51.452Z</time></trkpt><trkpt lat="40.49944" lon="16.678825"><ele>46.14285714285714</ele><time>2026-03-22T14:32:52.452Z</time></trkpt><trkpt lat="40.49937" lon="16.6788083"><ele>45.714285714285715</ele><time>2026-03-22T14:32:53.453Z</time></trkpt><trkpt lat="40.4992967" lon="16.67879"><ele>45.285714285714285</ele><time>2026-03-22T14:32:54.452Z</time></trkpt><trkpt lat="40.499225" lon="16.6787733"><ele>44.857142857142854</ele><time>2026-03-22T14:32:55.452Z</time></trkpt><trkpt lat="40.4991517" lon="16.6787567"><ele>44.42857142857143</ele><time>2026-03-22T14:32:56.453Z</time></trkpt><trkpt lat="40.4990833" lon="16.67874"><ele>44.0</ele><time>2026-03-22T14:32:57.453Z</time></trkpt><trkpt lat="40.49902" lon="16.6787283"><ele>44.0</ele><time>2026-03-22T14:32:58.452Z</time></trkpt><trkpt lat="40.49889" lon="16.6787017"><ele>44.0</ele><time>2026-03-22T14:33:00.451Z</time></trkpt><trkpt lat="40.4988133" lon="16.678685"><ele>44.0</ele><time>2026-03-22T14:33:01.453Z</time></trkpt><trkpt lat="40.4987367" lon="16.6786667"><ele>44.0</ele><time>2026-03-22T14:33:02.453Z</time></trkpt><trkpt lat="40.4986617" lon="16.6786533"><ele>44.0</ele><time>2026-03-22T14:33:03.453Z</time></trkpt><trkpt lat="40.49859" lon="16.67864"><ele>44.0</ele><time>2026-03-22T14:33:04.452Z</time></trkpt><trkpt lat="40.4985183" lon="16.678625"><ele>43.666666666666664</ele><time>2026-03-22T14:33:05.452Z</time></trkpt><trkpt lat="40.4984467" lon="16.67861"><ele>43.33333333333333</ele><time>2026-03-22T14:33:06.452Z</time></trkpt><trkpt lat="40.498375" lon="16.6785983"><ele>43.0</ele><time>2026-03-22T14:33:07.452Z</time></trkpt><trkpt lat="40.4983083" lon="16.6785867"><ele>42.666666666666664</ele><time>2026-03-22T14:33:08.453Z</time></trkpt><trkpt lat="40.4982433" lon="16.6785783"><ele>42.333333333333336</ele><time>2026-03-22T14:33:09.452Z</time></trkpt><trkpt lat="40.4981217" lon="16.6785517"><ele>42.0</ele><time>2026-03-22T14:33:11.452Z</time></trkpt><trkpt lat="40.497995" lon="16.6785283"><ele>42.0</ele><time>2026-03-22T14:33:13.452Z</time></trkpt><trkpt lat="40.4978733" lon="16.6785033"><ele>42.0</ele><time>2026-03-22T14:33:15.452Z</time></trkpt><trkpt lat="40.49777" lon="16.67848"><ele>42.0</ele><time>2026-03-22T14:33:17.452Z</time></trkpt><trkpt lat="40.4977" lon="16.678475"><ele>42.0</ele><time>2026-03-22T14:33:20.453Z</time></trkpt><trkpt lat="40.497635" lon="16.6784933"><ele>42.0</ele><time>2026-03-22T14:33:24.452Z</time></trkpt><trkpt lat="40.49761" lon="16.678645"><ele>42.0</ele><time>2026-03-22T14:33:27.453Z</time></trkpt><trkpt lat="40.4976033" lon="16.678735"><ele>42.0</ele><time>2026-03-22T14:33:28.453Z</time></trkpt><trkpt lat="40.4975933" lon="16.67883"><ele>42.0</ele><time>2026-03-22T14:33:29.454Z</time></trkpt><trkpt lat="40.49758" lon="16.6789283"><ele>42.0</ele><time>2026-03-22T14:33:30.452Z</time></trkpt><trkpt lat="40.49757" lon="16.67903"><ele>42.0</ele><time>2026-03-22T14:33:31.453Z</time></trkpt><trkpt lat="40.4975583" lon="16.679135"><ele>42.0</ele><time>2026-03-22T14:33:32.453Z</time></trkpt><trkpt lat="40.4975433" lon="16.6792467"><ele>42.0</ele><time>2026-03-22T14:33:33.452Z</time></trkpt><trkpt lat="40.4975317" lon="16.6793617"><ele>42.0</ele><time>2026-03-22T14:33:34.455Z</time></trkpt><trkpt lat="40.4975217" lon="16.6794717"><ele>42.0</ele><time>2026-03-22T14:33:35.454Z</time></trkpt><trkpt lat="40.4975083" lon="16.67958"><ele>42.0</ele><time>2026-03-22T14:33:36.452Z</time></trkpt><trkpt lat="40.497495" lon="16.6796867"><ele>42.0</ele><time>2026-03-22T14:33:37.455Z</time></trkpt><trkpt lat="40.4974783" lon="16.679795"><ele>42.0</ele><time>2026-03-22T14:33:38.452Z</time></trkpt><trkpt lat="40.497465" lon="16.6799067"><ele>42.0</ele><time>2026-03-22T14:33:39.452Z</time></trkpt><trkpt lat="40.4974517" lon="16.6800183"><ele>42.0</ele><time>2026-03-22T14:33:40.452Z</time></trkpt><trkpt lat="40.49744" lon="16.6801317"><ele>42.0</ele><time>2026-03-22T14:33:41.452Z</time></trkpt><trkpt lat="40.497425" lon="16.6802433"><ele>42.0</ele><time>2026-03-22T14:33:42.453Z</time></trkpt><trkpt lat="40.497415" lon="16.6803583"><ele>42.0</ele><time>2026-03-22T14:33:43.452Z</time></trkpt><trkpt lat="40.4974083" lon="16.6804683"><ele>42.0</ele><time>2026-03-22T14:33:44.453Z</time></trkpt><trkpt lat="40.4974033" lon="16.6805733"><ele>42.0</ele><time>2026-03-22T14:33:45.452Z</time></trkpt><trkpt lat="40.497395" lon="16.6806767"><ele>42.0</ele><time>2026-03-22T14:33:46.453Z</time></trkpt><trkpt lat="40.49738" lon="16.6807817"><ele>42.0</ele><time>2026-03-22T14:33:47.452Z</time></trkpt><trkpt lat="40.497365" lon="16.6808917"><ele>42.0</ele><time>2026-03-22T14:33:48.453Z</time></trkpt><trkpt lat="40.49735" lon="16.6810033"><ele>42.0</ele><time>2026-03-22T14:33:49.452Z</time></trkpt><trkpt lat="40.4973383" lon="16.68112"><ele>42.0</ele><time>2026-03-22T14:33:50.453Z</time></trkpt><trkpt lat="40.497325" lon="16.6812367"><ele>42.166666666666664</ele><time>2026-03-22T14:33:51.453Z</time></trkpt><trkpt lat="40.4973133" lon="16.68135"><ele>42.333333333333336</ele><time>2026-03-22T14:33:52.452Z</time></trkpt><trkpt lat="40.4973" lon="16.68146"><ele>42.5</ele><time>2026-03-22T14:33:53.453Z</time></trkpt><trkpt lat="40.4972883" lon="16.6815683"><ele>42.66666666666667</ele><time>2026-03-22T14:33:54.452Z</time></trkpt><trkpt lat="40.4972767" lon="16.6816767"><ele>42.833333333333336</ele><time>2026-03-22T14:33:55.452Z</time></trkpt><trkpt lat="40.4972683" lon="16.68177"><ele>43.0</ele><time>2026-03-22T14:33:56.453Z</time></trkpt><trkpt lat="40.4972633" lon="16.6819083"><ele>43.0</ele><time>2026-03-22T14:33:58.452Z</time></trkpt><trkpt lat="40.4972383" lon="16.6819933"><ele>43.0</ele><time>2026-03-22T14:34:00.452Z</time></trkpt><trkpt lat="40.4971783" lon="16.6820417"><ele>43.0</ele><time>2026-03-22T14:34:02.453Z</time></trkpt><trkpt lat="40.4970583" lon="16.6821217"><ele>43.0</ele><time>2026-03-22T14:34:04.453Z</time></trkpt><trkpt lat="40.4969783" lon="16.6821733"><ele>43.0</ele><time>2026-03-22T14:34:05.453Z</time></trkpt><trkpt lat="40.4968883" lon="16.682235"><ele>42.75</ele><time>2026-03-22T14:34:06.452Z</time></trkpt><trkpt lat="40.4967933" lon="16.68231"><ele>42.5</ele><time>2026-03-22T14:34:07.453Z</time></trkpt><trkpt lat="40.4966983" lon="16.6823867"><ele>42.25</ele><time>2026-03-22T14:34:08.452Z</time></trkpt><trkpt lat="40.4966067" lon="16.68248"><ele>42.0</ele><time>2026-03-22T14:34:09.452Z</time></trkpt><trkpt lat="40.4965133" lon="16.6825833"><ele>42.0</ele><time>2026-03-22T14:34:10.452Z</time></trkpt><trkpt lat="40.496425" lon="16.682695"><ele>42.0</ele><time>2026-03-22T14:34:11.452Z</time></trkpt><trkpt lat="40.49633" lon="16.6828017"><ele>42.0</ele><time>2026-03-22T14:34:12.454Z</time></trkpt><trkpt lat="40.49623" lon="16.6829033"><ele>42.0</ele><time>2026-03-22T14:34:13.452Z</time></trkpt><trkpt lat="40.4961317" lon="16.683"><ele>39.25</ele><time>2026-03-22T14:34:14.453Z</time></trkpt><trkpt lat="40.49603" lon="16.6830917"><ele>36.5</ele><time>2026-03-22T14:34:15.452Z</time></trkpt><trkpt lat="40.4959283" lon="16.683185"><ele>33.75</ele><time>2026-03-22T14:34:16.452Z</time></trkpt><trkpt lat="40.4958283" lon="16.6832767"><ele>31.0</ele><time>2026-03-22T14:34:17.452Z</time></trkpt><trkpt lat="40.4957283" lon="16.6833667"><ele>31.0</ele><time>2026-03-22T14:34:18.452Z</time></trkpt><trkpt lat="40.4956333" lon="16.683455"><ele>31.0</ele><time>2026-03-22T14:34:19.451Z</time></trkpt><trkpt lat="40.49554" lon="16.68354"><ele>31.0</ele><time>2026-03-22T14:34:20.452Z</time></trkpt><trkpt lat="40.49545" lon="16.6836283"><ele>31.0</ele><time>2026-03-22T14:34:21.452Z</time></trkpt><trkpt lat="40.4953617" lon="16.6837183"><ele>32.6</ele><time>2026-03-22T14:34:22.452Z</time></trkpt><trkpt lat="40.495275" lon="16.68381"><ele>34.2</ele><time>2026-03-22T14:34:23.453Z</time></trkpt><trkpt lat="40.4951883" lon="16.6838983"><ele>35.8</ele><time>2026-03-22T14:34:24.452Z</time></trkpt><trkpt lat="40.4950933" lon="16.6839733"><ele>37.4</ele><time>2026-03-22T14:34:25.452Z</time></trkpt><trkpt lat="40.4949867" lon="16.6840333"><ele>39.0</ele><time>2026-03-22T14:34:26.453Z</time></trkpt><trkpt lat="40.49488" lon="16.6840933"><ele>39.0</ele><time>2026-03-22T14:34:27.452Z</time></trkpt><trkpt lat="40.4947733" lon="16.68416"><ele>39.0</ele><time>2026-03-22T14:34:28.452Z</time></trkpt><trkpt lat="40.4946717" lon="16.68424"><ele>39.0</ele><time>2026-03-22T14:34:29.453Z</time></trkpt><trkpt lat="40.4945733" lon="16.68433"><ele>39.0</ele><time>2026-03-22T14:34:30.452Z</time></trkpt><trkpt lat="40.4944767" lon="16.6844267"><ele>39.25</ele><time>2026-03-22T14:34:31.454Z</time></trkpt><trkpt lat="40.49438" lon="16.6845233"><ele>39.5</ele><time>2026-03-22T14:34:32.454Z</time></trkpt><trkpt lat="40.4942817" lon="16.68462"><ele>39.75</ele><time>2026-03-22T14:34:33.453Z</time></trkpt><trkpt lat="40.4941817" lon="16.68472"><ele>40.0</ele><time>2026-03-22T14:34:34.452Z</time></trkpt><trkpt lat="40.4940817" lon="16.6848183"><ele>40.0</ele><time>2026-03-22T14:34:35.453Z</time></trkpt><trkpt lat="40.4939833" lon="16.684915"><ele>40.0</ele><time>2026-03-22T14:34:36.453Z</time></trkpt><trkpt lat="40.4938817" lon="16.68501"><ele>40.0</ele><time>2026-03-22T14:34:37.454Z</time></trkpt><trkpt lat="40.4937767" lon="16.6851067"><ele>40.0</ele><time>2026-03-22T14:34:38.453Z</time></trkpt><trkpt lat="40.4936667" lon="16.6852033"><ele>39.75</ele><time>2026-03-22T14:34:39.452Z</time></trkpt><trkpt lat="40.493555" lon="16.6853033"><ele>39.5</ele><time>2026-03-22T14:34:40.451Z</time></trkpt><trkpt lat="40.4934417" lon="16.6854067"><ele>39.25</ele><time>2026-03-22T14:34:41.452Z</time></trkpt><trkpt lat="40.4933267" lon="16.6855133"><ele>39.0</ele><time>2026-03-22T14:34:42.452Z</time></trkpt><trkpt lat="40.4932117" lon="16.6856233"><ele>39.0</ele><time>2026-03-22T14:34:43.452Z</time></trkpt><trkpt lat="40.4930983" lon="16.6857333"><ele>39.0</ele><time>2026-03-22T14:34:44.453Z</time></trkpt><trkpt lat="40.492985" lon="16.685845"><ele>39.0</ele><time>2026-03-22T14:34:45.452Z</time></trkpt><trkpt lat="40.4928717" lon="16.6859567"><ele>39.0</ele><time>2026-03-22T14:34:46.452Z</time></trkpt><trkpt lat="40.4927533" lon="16.6860683"><ele>39.0</ele><time>2026-03-22T14:34:47.452Z</time></trkpt><trkpt lat="40.4926367" lon="16.6861767"><ele>39.0</ele><time>2026-03-22T14:34:48.452Z</time></trkpt><trkpt lat="40.4925217" lon="16.686285"><ele>39.0</ele><time>2026-03-22T14:34:49.453Z</time></trkpt><trkpt lat="40.4924067" lon="16.686395"><ele>39.0</ele><time>2026-03-22T14:34:50.453Z</time></trkpt><trkpt lat="40.4922933" lon="16.6865067"><ele>39.0</ele><time>2026-03-22T14:34:51.452Z</time></trkpt><trkpt lat="40.4921783" lon="16.68662"><ele>39.0</ele><time>2026-03-22T14:34:52.452Z</time></trkpt><trkpt lat="40.4920617" lon="16.6867333"><ele>39.0</ele><time>2026-03-22T14:34:53.453Z</time></trkpt><trkpt lat="40.4919467" lon="16.6868467"><ele>39.0</ele><time>2026-03-22T14:34:54.453Z</time></trkpt><trkpt lat="40.49183" lon="16.6869583"><ele>38.75</ele><time>2026-03-22T14:34:55.454Z</time></trkpt><trkpt lat="40.4917117" lon="16.6870667"><ele>38.5</ele><time>2026-03-22T14:34:56.454Z</time></trkpt><trkpt lat="40.4915933" lon="16.687175"><ele>38.25</ele><time>2026-03-22T14:34:57.453Z</time></trkpt><trkpt lat="40.4914783" lon="16.6872833"><ele>38.0</ele><time>2026-03-22T14:34:58.451Z</time></trkpt><trkpt lat="40.4913633" lon="16.6873917"><ele>38.0</ele><time>2026-03-22T14:34:59.451Z</time></trkpt><trkpt lat="40.4912483" lon="16.6875"><ele>38.0</ele><time>2026-03-22T14:35:00.451Z</time></trkpt><trkpt lat="40.4911367" lon="16.6876133"><ele>38.0</ele><time>2026-03-22T14:35:01.452Z</time></trkpt><trkpt lat="40.4910267" lon="16.6877217"><ele>38.0</ele><time>2026-03-22T14:35:02.453Z</time></trkpt><trkpt lat="40.490925" lon="16.6878233"><ele>38.0</ele><time>2026-03-22T14:35:03.454Z</time></trkpt><trkpt lat="40.490825" lon="16.6879183"><ele>38.0</ele><time>2026-03-22T14:35:04.452Z</time></trkpt><trkpt lat="40.4907283" lon="16.6880133"><ele>38.0</ele><time>2026-03-22T14:35:05.452Z</time></trkpt><trkpt lat="40.49063" lon="16.68811"><ele>38.0</ele><time>2026-03-22T14:35:06.453Z</time></trkpt><trkpt lat="40.49053" lon="16.688205"><ele>38.0</ele><time>2026-03-22T14:35:07.452Z</time></trkpt><trkpt lat="40.490435" lon="16.6882933"><ele>38.0</ele><time>2026-03-22T14:35:08.453Z</time></trkpt><trkpt lat="40.4903467" lon="16.6883783"><ele>38.0</ele><time>2026-03-22T14:35:09.452Z</time></trkpt><trkpt lat="40.490265" lon="16.688455"><ele>38.0</ele><time>2026-03-22T14:35:10.452Z</time></trkpt><trkpt lat="40.49019" lon="16.6885233"><ele>38.0</ele><time>2026-03-22T14:35:11.452Z</time></trkpt><trkpt lat="40.4901217" lon="16.688585"><ele>38.0</ele><time>2026-03-22T14:35:12.452Z</time></trkpt><trkpt lat="40.4900667" lon="16.68865"><ele>38.0</ele><time>2026-03-22T14:35:13.452Z</time></trkpt><trkpt lat="40.4900283" lon="16.6887317"><ele>38.0</ele><time>2026-03-22T14:35:14.453Z</time></trkpt><trkpt lat="40.490015" lon="16.68884"><ele>38.0</ele><time>2026-03-22T14:35:15.452Z</time></trkpt><trkpt lat="40.4900117" lon="16.6889567"><ele>38.0</ele><time>2026-03-22T14:35:16.453Z</time></trkpt><trkpt lat="40.49001" lon="16.6890783"><ele>38.0</ele><time>2026-03-22T14:35:17.453Z</time></trkpt><trkpt lat="40.4900033" lon="16.6892"><ele>38.0</ele><time>2026-03-22T14:35:18.452Z</time></trkpt><trkpt lat="40.4899933" lon="16.6893217"><ele>38.0</ele><time>2026-03-22T14:35:19.454Z</time></trkpt><trkpt lat="40.4899817" lon="16.6894417"><ele>38.0</ele><time>2026-03-22T14:35:20.452Z</time></trkpt><trkpt lat="40.4899717" lon="16.6895617"><ele>38.0</ele><time>2026-03-22T14:35:21.453Z</time></trkpt><trkpt lat="40.4899567" lon="16.689675"><ele>38.0</ele><time>2026-03-22T14:35:22.452Z</time></trkpt><trkpt lat="40.4899417" lon="16.6897917"><ele>37.8</ele><time>2026-03-22T14:35:23.452Z</time></trkpt><trkpt lat="40.4899283" lon="16.6899133"><ele>37.599999999999994</ele><time>2026-03-22T14:35:24.453Z</time></trkpt><trkpt lat="40.4899183" lon="16.690035"><ele>37.400000000000006</ele><time>2026-03-22T14:35:25.454Z</time></trkpt><trkpt lat="40.48991" lon="16.6901583"><ele>37.2</ele><time>2026-03-22T14:35:26.453Z</time></trkpt><trkpt lat="40.4898967" lon="16.6902817"><ele>37.0</ele><time>2026-03-22T14:35:27.452Z</time></trkpt><trkpt lat="40.4898783" lon="16.6904017"><ele>37.0</ele><time>2026-03-22T14:35:28.452Z</time></trkpt><trkpt lat="40.48986" lon="16.6905233"><ele>37.0</ele><time>2026-03-22T14:35:29.454Z</time></trkpt><trkpt lat="40.4898417" lon="16.69064"><ele>37.0</ele><time>2026-03-22T14:35:30.452Z</time></trkpt><trkpt lat="40.4898267" lon="16.6907567"><ele>37.0</ele><time>2026-03-22T14:35:31.452Z</time></trkpt><trkpt lat="40.4898133" lon="16.69087"><ele>37.0</ele><time>2026-03-22T14:35:32.453Z</time></trkpt><trkpt lat="40.4897983" lon="16.6909833"><ele>37.0</ele><time>2026-03-22T14:35:33.452Z</time></trkpt><trkpt lat="40.4897783" lon="16.6911017"><ele>37.0</ele><time>2026-03-22T14:35:34.453Z</time></trkpt><trkpt lat="40.4897617" lon="16.69122"><ele>37.0</ele><time>2026-03-22T14:35:35.453Z</time></trkpt><trkpt lat="40.48975" lon="16.6913367"><ele>37.0</ele><time>2026-03-22T14:35:36.453Z</time></trkpt><trkpt lat="40.4897417" lon="16.69145"><ele>37.0</ele><time>2026-03-22T14:35:37.452Z</time></trkpt><trkpt lat="40.4897283" lon="16.691565"><ele>37.0</ele><time>2026-03-22T14:35:38.453Z</time></trkpt><trkpt lat="40.4897133" lon="16.6916817"><ele>37.0</ele><time>2026-03-22T14:35:39.451Z</time></trkpt><trkpt lat="40.4896983" lon="16.6918"><ele>37.0</ele><time>2026-03-22T14:35:40.451Z</time></trkpt><trkpt lat="40.489685" lon="16.6919133"><ele>37.0</ele><time>2026-03-22T14:35:41.451Z</time></trkpt><trkpt lat="40.4896683" lon="16.6920233"><ele>37.0</ele><time>2026-03-22T14:35:42.451Z</time></trkpt><trkpt lat="40.4896517" lon="16.6921333"><ele>37.0</ele><time>2026-03-22T14:35:43.451Z</time></trkpt><trkpt lat="40.489635" lon="16.692245"><ele>37.0</ele><time>2026-03-22T14:35:44.453Z</time></trkpt><trkpt lat="40.489615" lon="16.6923567"><ele>37.16666666666667</ele><time>2026-03-22T14:35:45.452Z</time></trkpt><trkpt lat="40.4895983" lon="16.6924667"><ele>37.333333333333336</ele><time>2026-03-22T14:35:46.451Z</time></trkpt><trkpt lat="40.4895867" lon="16.6925783"><ele>37.5</ele><time>2026-03-22T14:35:47.451Z</time></trkpt><trkpt lat="40.489575" lon="16.692695"><ele>37.666666666666664</ele><time>2026-03-22T14:35:48.451Z</time></trkpt><trkpt lat="40.4895633" lon="16.6928133"><ele>37.83333333333333</ele><time>2026-03-22T14:35:49.453Z</time></trkpt><trkpt lat="40.4895483" lon="16.6929317"><ele>38.0</ele><time>2026-03-22T14:35:50.452Z</time></trkpt><trkpt lat="40.4895333" lon="16.69305"><ele>38.33333333333333</ele><time>2026-03-22T14:35:51.451Z</time></trkpt><trkpt lat="40.48952" lon="16.6931667"><ele>38.666666666666664</ele><time>2026-03-22T14:35:52.451Z</time></trkpt><trkpt lat="40.48951" lon="16.6932817"><ele>39.0</ele><time>2026-03-22T14:35:53.451Z</time></trkpt><trkpt lat="40.4895" lon="16.6933933"><ele>39.333333333333336</ele><time>2026-03-22T14:35:54.452Z</time></trkpt><trkpt lat="40.48949" lon="16.69351"><ele>39.66666666666667</ele><time>2026-03-22T14:35:55.452Z</time></trkpt><trkpt lat="40.4894767" lon="16.6936267"><ele>40.0</ele><time>2026-03-22T14:35:56.452Z</time></trkpt><trkpt lat="40.4894617" lon="16.693745"><ele>40.0</ele><time>2026-03-22T14:35:57.451Z</time></trkpt><trkpt lat="40.4894417" lon="16.69386"><ele>40.0</ele><time>2026-03-22T14:35:58.45Z</time></trkpt><trkpt lat="40.4894233" lon="16.69398"><ele>40.0</ele><time>2026-03-22T14:35:59.451Z</time></trkpt><trkpt lat="40.4894067" lon="16.6941033"><ele>40.0</ele><time>2026-03-22T14:36:00.451Z</time></trkpt><trkpt lat="40.48939" lon="16.6942283"><ele>40.0</ele><time>2026-03-22T14:36:01.452Z</time></trkpt><trkpt lat="40.4893717" lon="16.69435"><ele>39.6</ele><time>2026-03-22T14:36:02.452Z</time></trkpt><trkpt lat="40.4893517" lon="16.6944683"><ele>39.2</ele><time>2026-03-22T14:36:03.451Z</time></trkpt><trkpt lat="40.4893367" lon="16.6945883"><ele>38.8</ele><time>2026-03-22T14:36:04.452Z</time></trkpt><trkpt lat="40.4893183" lon="16.6947083"><ele>38.4</ele><time>2026-03-22T14:36:05.451Z</time></trkpt><trkpt lat="40.4893017" lon="16.6948267"><ele>38.0</ele><time>2026-03-22T14:36:06.452Z</time></trkpt><trkpt lat="40.48928" lon="16.6949433"><ele>38.0</ele><time>2026-03-22T14:36:07.451Z</time></trkpt><trkpt lat="40.4892617" lon="16.6950617"><ele>38.0</ele><time>2026-03-22T14:36:08.453Z</time></trkpt><trkpt lat="40.4892433" lon="16.69518"><ele>38.0</ele><time>2026-03-22T14:36:09.451Z</time></trkpt><trkpt lat="40.489225" lon="16.6953"><ele>38.0</ele><time>2026-03-22T14:36:10.451Z</time></trkpt><trkpt lat="40.48921" lon="16.69542"><ele>38.0</ele><time>2026-03-22T14:36:11.452Z</time></trkpt><trkpt lat="40.4891917" lon="16.6955417"><ele>38.0</ele><time>2026-03-22T14:36:12.451Z</time></trkpt><trkpt lat="40.48917" lon="16.6956633"><ele>38.0</ele><time>2026-03-22T14:36:13.451Z</time></trkpt><trkpt lat="40.4891467" lon="16.695785"><ele>38.0</ele><time>2026-03-22T14:36:14.452Z</time></trkpt><trkpt lat="40.489125" lon="16.695905"><ele>38.0</ele><time>2026-03-22T14:36:15.451Z</time></trkpt><trkpt lat="40.4891017" lon="16.6960267"><ele>38.0</ele><time>2026-03-22T14:36:16.451Z</time></trkpt><trkpt lat="40.4890817" lon="16.69615"><ele>38.0</ele><time>2026-03-22T14:36:17.451Z</time></trkpt><trkpt lat="40.4890617" lon="16.6962717"><ele>38.0</ele><time>2026-03-22T14:36:18.45Z</time></trkpt><trkpt lat="40.4890383" lon="16.6963933"><ele>38.0</ele><time>2026-03-22T14:36:19.451Z</time></trkpt><trkpt lat="40.489015" lon="16.696515"><ele>38.0</ele><time>2026-03-22T14:36:20.451Z</time></trkpt><trkpt lat="40.48899" lon="16.6966367"><ele>38.0</ele><time>2026-03-22T14:36:21.451Z</time></trkpt><trkpt lat="40.4889683" lon="16.69676"><ele>38.0</ele><time>2026-03-22T14:36:22.452Z</time></trkpt><trkpt lat="40.4889467" lon="16.6968833"><ele>38.0</ele><time>2026-03-22T14:36:23.451Z</time></trkpt><trkpt lat="40.488925" lon="16.697005"><ele>38.0</ele><time>2026-03-22T14:36:24.455Z</time></trkpt><trkpt lat="40.488905" lon="16.6971267"><ele>38.0</ele><time>2026-03-22T14:36:25.452Z</time></trkpt><trkpt lat="40.4888833" lon="16.6972433"><ele>38.0</ele><time>2026-03-22T14:36:26.453Z</time></trkpt><trkpt lat="40.4888617" lon="16.697355"><ele>38.0</ele><time>2026-03-22T14:36:27.451Z</time></trkpt><trkpt lat="40.4888417" lon="16.69747"><ele>38.0</ele><time>2026-03-22T14:36:28.452Z</time></trkpt><trkpt lat="40.4888217" lon="16.6975867"><ele>38.0</ele><time>2026-03-22T14:36:29.452Z</time></trkpt><trkpt lat="40.4887983" lon="16.6977017"><ele>38.0</ele><time>2026-03-22T14:36:30.451Z</time></trkpt><trkpt lat="40.4887733" lon="16.69781"><ele>38.0</ele><time>2026-03-22T14:36:31.452Z</time></trkpt><trkpt lat="40.4887483" lon="16.697915"><ele>38.0</ele><time>2026-03-22T14:36:32.452Z</time></trkpt><trkpt lat="40.488725" lon="16.69802"><ele>38.0</ele><time>2026-03-22T14:36:33.452Z</time></trkpt><trkpt lat="40.4887117" lon="16.69813"><ele>38.0</ele><time>2026-03-22T14:36:34.452Z</time></trkpt><trkpt lat="40.4887" lon="16.6982433"><ele>38.0</ele><time>2026-03-22T14:36:35.453Z</time></trkpt><trkpt lat="40.48869" lon="16.69836"><ele>38.0</ele><time>2026-03-22T14:36:36.452Z</time></trkpt><trkpt lat="40.488675" lon="16.6984767"><ele>38.0</ele><time>2026-03-22T14:36:37.451Z</time></trkpt><trkpt lat="40.488655" lon="16.6985933"><ele>38.0</ele><time>2026-03-22T14:36:38.451Z</time></trkpt><trkpt lat="40.4886317" lon="16.6987117"><ele>38.199999999999996</ele><time>2026-03-22T14:36:39.452Z</time></trkpt><trkpt lat="40.48861" lon="16.6988267"><ele>38.4</ele><time>2026-03-22T14:36:40.45Z</time></trkpt><trkpt lat="40.4885917" lon="16.6989433"><ele>38.599999999999994</ele><time>2026-03-22T14:36:41.452Z</time></trkpt><trkpt lat="40.4885717" lon="16.6990583"><ele>38.8</ele><time>2026-03-22T14:36:42.451Z</time></trkpt><trkpt lat="40.4885517" lon="16.699175"><ele>39.0</ele><time>2026-03-22T14:36:43.451Z</time></trkpt><trkpt lat="40.4885333" lon="16.6992917"><ele>39.0</ele><time>2026-03-22T14:36:44.452Z</time></trkpt><trkpt lat="40.4885183" lon="16.6994083"><ele>39.0</ele><time>2026-03-22T14:36:45.453Z</time></trkpt><trkpt lat="40.4885017" lon="16.6995267"><ele>39.0</ele><time>2026-03-22T14:36:46.451Z</time></trkpt><trkpt lat="40.4884833" lon="16.699645"><ele>39.0</ele><time>2026-03-22T14:36:47.451Z</time></trkpt><trkpt lat="40.488465" lon="16.6997617"><ele>39.0</ele><time>2026-03-22T14:36:48.451Z</time></trkpt><trkpt lat="40.4884483" lon="16.699875"><ele>38.833333333333336</ele><time>2026-03-22T14:36:49.452Z</time></trkpt><trkpt lat="40.4884333" lon="16.699985"><ele>38.666666666666664</ele><time>2026-03-22T14:36:50.455Z</time></trkpt><trkpt lat="40.4884183" lon="16.7000917"><ele>38.5</ele><time>2026-03-22T14:36:51.451Z</time></trkpt><trkpt lat="40.4884033" lon="16.7002"><ele>38.33333333333333</ele><time>2026-03-22T14:36:52.451Z</time></trkpt><trkpt lat="40.488385" lon="16.7003117"><ele>38.166666666666664</ele><time>2026-03-22T14:36:53.451Z</time></trkpt><trkpt lat="40.48837" lon="16.7004267"><ele>38.0</ele><time>2026-03-22T14:36:54.451Z</time></trkpt><trkpt lat="40.4883567" lon="16.7005433"><ele>38.0</ele><time>2026-03-22T14:36:55.451Z</time></trkpt><trkpt lat="40.488345" lon="16.7006617"><ele>38.0</ele><time>2026-03-22T14:36:56.451Z</time></trkpt><trkpt lat="40.4883317" lon="16.7007817"><ele>38.0</ele><time>2026-03-22T14:36:57.452Z</time></trkpt><trkpt lat="40.488315" lon="16.7009017"><ele>38.0</ele><time>2026-03-22T14:36:58.45Z</time></trkpt><trkpt lat="40.4882917" lon="16.7010233"><ele>38.0</ele><time>2026-03-22T14:36:59.45Z</time></trkpt><trkpt lat="40.4882683" lon="16.701145"><ele>38.0</ele><time>2026-03-22T14:37:00.45Z</time></trkpt><trkpt lat="40.4882433" lon="16.70127"><ele>38.0</ele><time>2026-03-22T14:37:01.451Z</time></trkpt><trkpt lat="40.4882183" lon="16.701395"><ele>38.0</ele><time>2026-03-22T14:37:02.452Z</time></trkpt><trkpt lat="40.4881933" lon="16.7015217"><ele>38.0</ele><time>2026-03-22T14:37:03.451Z</time></trkpt><trkpt lat="40.4881717" lon="16.7016483"><ele>38.0</ele><time>2026-03-22T14:37:04.453Z</time></trkpt><trkpt lat="40.48815" lon="16.7017717"><ele>38.0</ele><time>2026-03-22T14:37:05.451Z</time></trkpt><trkpt lat="40.4881283" lon="16.701895"><ele>38.0</ele><time>2026-03-22T14:37:06.452Z</time></trkpt><trkpt lat="40.4881083" lon="16.7020183"><ele>38.0</ele><time>2026-03-22T14:37:07.451Z</time></trkpt><trkpt lat="40.4880917" lon="16.70214"><ele>38.0</ele><time>2026-03-22T14:37:08.452Z</time></trkpt><trkpt lat="40.4880733" lon="16.7022617"><ele>38.0</ele><time>2026-03-22T14:37:09.455Z</time></trkpt><trkpt lat="40.488055" lon="16.7023817"><ele>38.166666666666664</ele><time>2026-03-22T14:37:10.451Z</time></trkpt><trkpt lat="40.48804" lon="16.7025"><ele>38.33333333333333</ele><time>2026-03-22T14:37:11.451Z</time></trkpt><trkpt lat="40.4880217" lon="16.702615"><ele>38.5</ele><time>2026-03-22T14:37:12.451Z</time></trkpt><trkpt lat="40.4880017" lon="16.7027283"><ele>38.666666666666664</ele><time>2026-03-22T14:37:13.451Z</time></trkpt><trkpt lat="40.487985" lon="16.7028333"><ele>38.833333333333336</ele><time>2026-03-22T14:37:14.452Z</time></trkpt><trkpt lat="40.4879717" lon="16.7029283"><ele>39.0</ele><time>2026-03-22T14:37:15.451Z</time></trkpt><trkpt lat="40.4879583" lon="16.7030167"><ele>39.0</ele><time>2026-03-22T14:37:16.451Z</time></trkpt><trkpt lat="40.4879433" lon="16.7031017"><ele>39.0</ele><time>2026-03-22T14:37:17.451Z</time></trkpt><trkpt lat="40.48793" lon="16.7031917"><ele>39.0</ele><time>2026-03-22T14:37:18.45Z</time></trkpt><trkpt lat="40.487915" lon="16.70329"><ele>39.0</ele><time>2026-03-22T14:37:19.45Z</time></trkpt><trkpt lat="40.4879" lon="16.7033983"><ele>39.0</ele><time>2026-03-22T14:37:20.451Z</time></trkpt><trkpt lat="40.4878817" lon="16.7035083"><ele>39.0</ele><time>2026-03-22T14:37:21.454Z</time></trkpt><trkpt lat="40.4878617" lon="16.70362"><ele>39.166666666666664</ele><time>2026-03-22T14:37:22.452Z</time></trkpt><trkpt lat="40.48784" lon="16.70373"><ele>39.333333333333336</ele><time>2026-03-22T14:37:23.452Z</time></trkpt><trkpt lat="40.4878183" lon="16.7038383"><ele>39.5</ele><time>2026-03-22T14:37:24.451Z</time></trkpt><trkpt lat="40.4878" lon="16.7039433"><ele>39.66666666666667</ele><time>2026-03-22T14:37:25.451Z</time></trkpt><trkpt lat="40.48778" lon="16.7040517"><ele>39.833333333333336</ele><time>2026-03-22T14:37:26.452Z</time></trkpt><trkpt lat="40.4877617" lon="16.704165"><ele>40.0</ele><time>2026-03-22T14:37:27.451Z</time></trkpt><trkpt lat="40.4877383" lon="16.7042817"><ele>40.0</ele><time>2026-03-22T14:37:28.451Z</time></trkpt><trkpt lat="40.4877167" lon="16.7043983"><ele>40.0</ele><time>2026-03-22T14:37:29.451Z</time></trkpt><trkpt lat="40.487695" lon="16.70452"><ele>40.0</ele><time>2026-03-22T14:37:30.451Z</time></trkpt><trkpt lat="40.487675" lon="16.7046433"><ele>40.0</ele><time>2026-03-22T14:37:31.451Z</time></trkpt><trkpt lat="40.4876567" lon="16.704765"><ele>40.0</ele><time>2026-03-22T14:37:32.451Z</time></trkpt><trkpt lat="40.4876383" lon="16.7048867"><ele>39.833333333333336</ele><time>2026-03-22T14:37:33.452Z</time></trkpt><trkpt lat="40.4876217" lon="16.7050017"><ele>39.66666666666667</ele><time>2026-03-22T14:37:34.452Z</time></trkpt><trkpt lat="40.4876067" lon="16.7051067"><ele>39.5</ele><time>2026-03-22T14:37:35.452Z</time></trkpt><trkpt lat="40.4875933" lon="16.705195"><ele>39.333333333333336</ele><time>2026-03-22T14:37:36.452Z</time></trkpt><trkpt lat="40.4875633" lon="16.70529"><ele>39.166666666666664</ele><time>2026-03-22T14:37:38.452Z</time></trkpt><trkpt lat="40.4874817" lon="16.70539"><ele>39.0</ele><time>2026-03-22T14:37:46.453Z</time></trkpt><trkpt lat="40.487435" lon="16.705545"><ele>39.0</ele><time>2026-03-22T14:37:48.452Z</time></trkpt><trkpt lat="40.4874267" lon="16.705635"><ele>39.0</ele><time>2026-03-22T14:37:49.452Z</time></trkpt><trkpt lat="40.48743" lon="16.7057233"><ele>39.0</ele><time>2026-03-22T14:37:50.453Z</time></trkpt><trkpt lat="40.4874667" lon="16.7058667"><ele>39.0</ele><time>2026-03-22T14:37:52.453Z</time></trkpt><trkpt lat="40.487485" lon="16.7060033"><ele>39.0</ele><time>2026-03-22T14:37:54.452Z</time></trkpt><trkpt lat="40.487475" lon="16.7061267"><ele>39.0</ele><time>2026-03-22T14:37:56.453Z</time></trkpt><trkpt lat="40.4874483" lon="16.706235"><ele>39.0</ele><time>2026-03-22T14:37:58.452Z</time></trkpt><trkpt lat="40.487405" lon="16.706345"><ele>39.0</ele><time>2026-03-22T14:38:00.455Z</time></trkpt><trkpt lat="40.4873683" lon="16.7064567"><ele>39.0</ele><time>2026-03-22T14:38:02.454Z</time></trkpt><trkpt lat="40.4873433" lon="16.7065683"><ele>39.0</ele><time>2026-03-22T14:38:04.452Z</time></trkpt><trkpt lat="40.4873433" lon="16.7066933"><ele>39.0</ele><time>2026-03-22T14:38:06.454Z</time></trkpt><trkpt lat="40.4873483" lon="16.706805"><ele>39.0</ele><time>2026-03-22T14:38:08.453Z</time></trkpt><trkpt lat="40.4873567" lon="16.70693"><ele>39.0</ele><time>2026-03-22T14:38:10.452Z</time></trkpt><trkpt lat="40.487315" lon="16.70706"><ele>39.0</ele><time>2026-03-22T14:38:12.452Z</time></trkpt><trkpt lat="40.4872733" lon="16.7071933"><ele>39.0</ele><time>2026-03-22T14:38:14.453Z</time></trkpt><trkpt lat="40.4872467" lon="16.7073283"><ele>38.6</ele><time>2026-03-22T14:38:16.454Z</time></trkpt><trkpt lat="40.4872167" lon="16.70746"><ele>38.2</ele><time>2026-03-22T14:38:18.451Z</time></trkpt><trkpt lat="40.4871967" lon="16.70759"><ele>37.800000000000004</ele><time>2026-03-22T14:38:20.454Z</time></trkpt><trkpt lat="40.4871767" lon="16.7077267"><ele>37.4</ele><time>2026-03-22T14:38:22.452Z</time></trkpt><trkpt lat="40.487155" lon="16.70787"><ele>37.0</ele><time>2026-03-22T14:38:24.452Z</time></trkpt><trkpt lat="40.4871267" lon="16.7080033"><ele>36.800000000000004</ele><time>2026-03-22T14:38:26.453Z</time></trkpt><trkpt lat="40.487105" lon="16.708125"><ele>36.6</ele><time>2026-03-22T14:38:28.453Z</time></trkpt><trkpt lat="40.4870867" lon="16.7082467"><ele>36.400000000000006</ele><time>2026-03-22T14:38:30.452Z</time></trkpt><trkpt lat="40.487065" lon="16.708345"><ele>36.2</ele><time>2026-03-22T14:38:32.452Z</time></trkpt><trkpt lat="40.4870017" lon="16.7084483"><ele>36.0</ele><time>2026-03-22T14:38:35.452Z</time></trkpt><trkpt lat="40.48696" lon="16.708575"><ele>36.333333333333336</ele><time>2026-03-22T14:38:37.452Z</time></trkpt><trkpt lat="40.4869417" lon="16.70866"><ele>36.666666666666664</ele><time>2026-03-22T14:38:38.452Z</time></trkpt><trkpt lat="40.4869267" lon="16.7087417"><ele>37.0</ele><time>2026-03-22T14:38:39.451Z</time></trkpt><trkpt lat="40.486895" lon="16.7089"><ele>37.33333333333333</ele><time>2026-03-22T14:38:41.453Z</time></trkpt><trkpt lat="40.4868817" lon="16.709045"><ele>37.666666666666664</ele><time>2026-03-22T14:38:43.452Z</time></trkpt><trkpt lat="40.4868717" lon="16.7091383"><ele>38.0</ele><time>2026-03-22T14:38:45.453Z</time></trkpt><trkpt lat="40.4868083" lon="16.7091817"><ele>38.0</ele><time>2026-03-22T14:38:48.452Z</time></trkpt><trkpt lat="40.4867317" lon="16.70916"><ele>38.0</ele><time>2026-03-22T14:38:51.452Z</time></trkpt><trkpt lat="40.4866517" lon="16.709225"><ele>38.0</ele><time>2026-03-22T14:38:53.452Z</time></trkpt><trkpt lat="40.4866083" lon="16.7093067"><ele>38.0</ele><time>2026-03-22T14:38:54.454Z</time></trkpt><trkpt lat="40.4865717" lon="16.7094117"><ele>38.0</ele><time>2026-03-22T14:38:55.452Z</time></trkpt><trkpt lat="40.4865367" lon="16.7095267"><ele>38.0</ele><time>2026-03-22T14:38:56.453Z</time></trkpt><trkpt lat="40.4865" lon="16.7096483"><ele>37.8</ele><time>2026-03-22T14:38:57.452Z</time></trkpt><trkpt lat="40.4864583" lon="16.70977"><ele>37.599999999999994</ele><time>2026-03-22T14:38:58.451Z</time></trkpt><trkpt lat="40.4864117" lon="16.7098967"><ele>37.400000000000006</ele><time>2026-03-22T14:38:59.452Z</time></trkpt><trkpt lat="40.4863617" lon="16.7100283"><ele>37.2</ele><time>2026-03-22T14:39:00.451Z</time></trkpt><trkpt lat="40.4863133" lon="16.7101633"><ele>37.0</ele><time>2026-03-22T14:39:01.452Z</time></trkpt><trkpt lat="40.486265" lon="16.710295"><ele>37.75</ele><time>2026-03-22T14:39:02.453Z</time></trkpt><trkpt lat="40.486215" lon="16.7104267"><ele>38.5</ele><time>2026-03-22T14:39:03.452Z</time></trkpt><trkpt lat="40.4861617" lon="16.7105617"><ele>39.25</ele><time>2026-03-22T14:39:04.452Z</time></trkpt><trkpt lat="40.4861033" lon="16.7106967"><ele>40.0</ele><time>2026-03-22T14:39:05.452Z</time></trkpt><trkpt lat="40.4860383" lon="16.7108317"><ele>40.0</ele><time>2026-03-22T14:39:06.452Z</time></trkpt><trkpt lat="40.4859733" lon="16.71097"><ele>40.0</ele><time>2026-03-22T14:39:07.452Z</time></trkpt><trkpt lat="40.485905" lon="16.7111117"><ele>40.0</ele><time>2026-03-22T14:39:08.452Z</time></trkpt><trkpt lat="40.4858367" lon="16.7112533"><ele>40.0</ele><time>2026-03-22T14:39:09.453Z</time></trkpt><trkpt lat="40.4857667" lon="16.7113917"><ele>38.75</ele><time>2026-03-22T14:39:10.454Z</time></trkpt><trkpt lat="40.4856933" lon="16.7115267"><ele>37.5</ele><time>2026-03-22T14:39:11.452Z</time></trkpt><trkpt lat="40.4856183" lon="16.71166"><ele>36.25</ele><time>2026-03-22T14:39:12.452Z</time></trkpt><trkpt lat="40.48554" lon="16.71179"><ele>35.0</ele><time>2026-03-22T14:39:13.452Z</time></trkpt><trkpt lat="40.4854583" lon="16.71192"><ele>35.25</ele><time>2026-03-22T14:39:14.453Z</time></trkpt><trkpt lat="40.485375" lon="16.7120467"><ele>35.5</ele><time>2026-03-22T14:39:15.452Z</time></trkpt><trkpt lat="40.4852883" lon="16.712175"><ele>35.75</ele><time>2026-03-22T14:39:16.453Z</time></trkpt><trkpt lat="40.485205" lon="16.7123033"><ele>36.0</ele><time>2026-03-22T14:39:17.452Z</time></trkpt><trkpt lat="40.4851183" lon="16.7124317"><ele>36.0</ele><time>2026-03-22T14:39:18.452Z</time></trkpt><trkpt lat="40.485025" lon="16.7125617"><ele>36.0</ele><time>2026-03-22T14:39:19.453Z</time></trkpt><trkpt lat="40.4849267" lon="16.71269"><ele>36.0</ele><time>2026-03-22T14:39:20.452Z</time></trkpt><trkpt lat="40.484825" lon="16.7128217"><ele>36.0</ele><time>2026-03-22T14:39:21.454Z</time></trkpt><trkpt lat="40.4847233" lon="16.7129517"><ele>35.75</ele><time>2026-03-22T14:39:22.453Z</time></trkpt><trkpt lat="40.48462" lon="16.7130767"><ele>35.5</ele><time>2026-03-22T14:39:23.452Z</time></trkpt><trkpt lat="40.4845133" lon="16.7132017"><ele>35.25</ele><time>2026-03-22T14:39:24.452Z</time></trkpt><trkpt lat="40.4844067" lon="16.7133233"><ele>35.0</ele><time>2026-03-22T14:39:25.452Z</time></trkpt><trkpt lat="40.4843" lon="16.7134467"><ele>35.0</ele><time>2026-03-22T14:39:26.452Z</time></trkpt><trkpt lat="40.4841933" lon="16.7135683"><ele>35.0</ele><time>2026-03-22T14:39:27.452Z</time></trkpt><trkpt lat="40.484085" lon="16.7136867"><ele>35.0</ele><time>2026-03-22T14:39:28.452Z</time></trkpt><trkpt lat="40.483975" lon="16.7138083"><ele>35.0</ele><time>2026-03-22T14:39:29.451Z</time></trkpt><trkpt lat="40.4838633" lon="16.7139283"><ele>35.0</ele><time>2026-03-22T14:39:30.451Z</time></trkpt><trkpt lat="40.4837517" lon="16.7140483"><ele>35.0</ele><time>2026-03-22T14:39:31.452Z</time></trkpt><trkpt lat="40.4836383" lon="16.71417"><ele>35.0</ele><time>2026-03-22T14:39:32.452Z</time></trkpt><trkpt lat="40.4835267" lon="16.71429"><ele>35.0</ele><time>2026-03-22T14:39:33.451Z</time></trkpt><trkpt lat="40.4834117" lon="16.7144117"><ele>34.666666666666664</ele><time>2026-03-22T14:39:34.451Z</time></trkpt><trkpt lat="40.4832967" lon="16.714535"><ele>34.333333333333336</ele><time>2026-03-22T14:39:35.453Z</time></trkpt><trkpt lat="40.4831783" lon="16.714665"><ele>34.0</ele><time>2026-03-22T14:39:36.451Z</time></trkpt><trkpt lat="40.4830567" lon="16.7148"><ele>34.0</ele><time>2026-03-22T14:39:37.451Z</time></trkpt><trkpt lat="40.482935" lon="16.7149367"><ele>34.0</ele><time>2026-03-22T14:39:38.451Z</time></trkpt><trkpt lat="40.4828117" lon="16.715075"><ele>34.0</ele><time>2026-03-22T14:39:39.451Z</time></trkpt><trkpt lat="40.4826883" lon="16.71521"><ele>33.66666666666667</ele><time>2026-03-22T14:39:40.451Z</time></trkpt><trkpt lat="40.4825633" lon="16.715345"><ele>33.333333333333336</ele><time>2026-03-22T14:39:41.453Z</time></trkpt><trkpt lat="40.4824383" lon="16.71548"><ele>33.0</ele><time>2026-03-22T14:39:42.454Z</time></trkpt><trkpt lat="40.482315" lon="16.7156167"><ele>33.0</ele><time>2026-03-22T14:39:43.451Z</time></trkpt><trkpt lat="40.4821917" lon="16.7157567"><ele>33.0</ele><time>2026-03-22T14:39:44.453Z</time></trkpt><trkpt lat="40.48207" lon="16.7158917"><ele>33.0</ele><time>2026-03-22T14:39:45.452Z</time></trkpt><trkpt lat="40.4819467" lon="16.7160283"><ele>33.0</ele><time>2026-03-22T14:39:46.451Z</time></trkpt><trkpt lat="40.4818233" lon="16.7161633"><ele>33.0</ele><time>2026-03-22T14:39:47.452Z</time></trkpt><trkpt lat="40.4816983" lon="16.716295"><ele>33.0</ele><time>2026-03-22T14:39:48.453Z</time></trkpt><trkpt lat="40.4815733" lon="16.71643"><ele>33.0</ele><time>2026-03-22T14:39:49.451Z</time></trkpt><trkpt lat="40.48145" lon="16.716565"><ele>33.0</ele><time>2026-03-22T14:39:50.452Z</time></trkpt><trkpt lat="40.4813267" lon="16.7167"><ele>33.0</ele><time>2026-03-22T14:39:51.451Z</time></trkpt><trkpt lat="40.4812017" lon="16.7168367"><ele>33.333333333333336</ele><time>2026-03-22T14:39:52.451Z</time></trkpt><trkpt lat="40.4810767" lon="16.7169733"><ele>33.66666666666667</ele><time>2026-03-22T14:39:53.451Z</time></trkpt><trkpt lat="40.48095" lon="16.71711"><ele>34.0</ele><time>2026-03-22T14:39:54.451Z</time></trkpt><trkpt lat="40.4808283" lon="16.717245"><ele>34.0</ele><time>2026-03-22T14:39:55.451Z</time></trkpt><trkpt lat="40.48071" lon="16.7173817"><ele>34.0</ele><time>2026-03-22T14:39:56.452Z</time></trkpt><trkpt lat="40.4805867" lon="16.7175217"><ele>34.0</ele><time>2026-03-22T14:39:57.451Z</time></trkpt><trkpt lat="40.48046" lon="16.7176683"><ele>33.66666666666667</ele><time>2026-03-22T14:39:58.452Z</time></trkpt><trkpt lat="40.480335" lon="16.71782"><ele>33.333333333333336</ele><time>2026-03-22T14:39:59.45Z</time></trkpt><trkpt lat="40.48021" lon="16.7179783"><ele>33.0</ele><time>2026-03-22T14:40:00.451Z</time></trkpt><trkpt lat="40.4800867" lon="16.7181383"><ele>33.0</ele><time>2026-03-22T14:40:01.451Z</time></trkpt><trkpt lat="40.479965" lon="16.7183"><ele>33.0</ele><time>2026-03-22T14:40:02.452Z</time></trkpt><trkpt lat="40.4798467" lon="16.7184683"><ele>33.0</ele><time>2026-03-22T14:40:03.451Z</time></trkpt><trkpt lat="40.47973" lon="16.71864"><ele>33.0</ele><time>2026-03-22T14:40:04.451Z</time></trkpt><trkpt lat="40.479615" lon="16.718815"><ele>33.0</ele><time>2026-03-22T14:40:05.451Z</time></trkpt><trkpt lat="40.4795017" lon="16.7189933"><ele>33.0</ele><time>2026-03-22T14:40:06.451Z</time></trkpt><trkpt lat="40.4793883" lon="16.7191717"><ele>33.333333333333336</ele><time>2026-03-22T14:40:07.451Z</time></trkpt><trkpt lat="40.4792767" lon="16.7193533"><ele>33.66666666666667</ele><time>2026-03-22T14:40:08.452Z</time></trkpt><trkpt lat="40.4791633" lon="16.719535"><ele>34.0</ele><time>2026-03-22T14:40:09.451Z</time></trkpt><trkpt lat="40.47905" lon="16.7197183"><ele>34.0</ele><time>2026-03-22T14:40:10.451Z</time></trkpt><trkpt lat="40.4789383" lon="16.7199"><ele>34.0</ele><time>2026-03-22T14:40:11.451Z</time></trkpt><trkpt lat="40.4788283" lon="16.7200817"><ele>34.0</ele><time>2026-03-22T14:40:12.451Z</time></trkpt><trkpt lat="40.4787167" lon="16.720265"><ele>33.66666666666667</ele><time>2026-03-22T14:40:13.451Z</time></trkpt><trkpt lat="40.4786033" lon="16.7204483"><ele>33.333333333333336</ele><time>2026-03-22T14:40:14.453Z</time></trkpt><trkpt lat="40.47849" lon="16.7206333"><ele>33.0</ele><time>2026-03-22T14:40:15.452Z</time></trkpt><trkpt lat="40.4783783" lon="16.7208167"><ele>33.0</ele><time>2026-03-22T14:40:16.451Z</time></trkpt><trkpt lat="40.478265" lon="16.7210017"><ele>33.0</ele><time>2026-03-22T14:40:17.452Z</time></trkpt><trkpt lat="40.47815" lon="16.7211883"><ele>33.0</ele><time>2026-03-22T14:40:18.451Z</time></trkpt><trkpt lat="40.478035" lon="16.721375"><ele>32.666666666666664</ele><time>2026-03-22T14:40:19.451Z</time></trkpt><trkpt lat="40.47792" lon="16.7215617"><ele>32.33333333333333</ele><time>2026-03-22T14:40:20.451Z</time></trkpt><trkpt lat="40.477805" lon="16.72175"><ele>32.0</ele><time>2026-03-22T14:40:21.452Z</time></trkpt><trkpt lat="40.47769" lon="16.7219383"><ele>32.0</ele><time>2026-03-22T14:40:22.451Z</time></trkpt><trkpt lat="40.477575" lon="16.7221283"><ele>32.0</ele><time>2026-03-22T14:40:23.451Z</time></trkpt><trkpt lat="40.4774583" lon="16.7223183"><ele>32.0</ele><time>2026-03-22T14:40:24.451Z</time></trkpt><trkpt lat="40.4773417" lon="16.7225083"><ele>32.0</ele><time>2026-03-22T14:40:25.451Z</time></trkpt><trkpt lat="40.4772233" lon="16.7226967"><ele>32.0</ele><time>2026-03-22T14:40:26.452Z</time></trkpt><trkpt lat="40.4771083" lon="16.722885"><ele>32.0</ele><time>2026-03-22T14:40:27.451Z</time></trkpt><trkpt lat="40.4769917" lon="16.7230767"><ele>31.666666666666664</ele><time>2026-03-22T14:40:28.451Z</time></trkpt><trkpt lat="40.4768767" lon="16.7232667"><ele>31.333333333333336</ele><time>2026-03-22T14:40:29.451Z</time></trkpt><trkpt lat="40.4767583" lon="16.7234567"><ele>31.0</ele><time>2026-03-22T14:40:30.452Z</time></trkpt><trkpt lat="40.4766417" lon="16.7236467"><ele>31.0</ele><time>2026-03-22T14:40:31.451Z</time></trkpt><trkpt lat="40.4765233" lon="16.7238383"><ele>31.0</ele><time>2026-03-22T14:40:32.451Z</time></trkpt><trkpt lat="40.4764067" lon="16.72403"><ele>31.0</ele><time>2026-03-22T14:40:33.451Z</time></trkpt><trkpt lat="40.47629" lon="16.7242233"><ele>33.333333333333336</ele><time>2026-03-22T14:40:34.451Z</time></trkpt><trkpt lat="40.4761733" lon="16.72442"><ele>35.666666666666664</ele><time>2026-03-22T14:40:35.452Z</time></trkpt><trkpt lat="40.4760583" lon="16.7246117"><ele>38.0</ele><time>2026-03-22T14:40:36.452Z</time></trkpt><trkpt lat="40.47594" lon="16.7248033"><ele>38.0</ele><time>2026-03-22T14:40:37.451Z</time></trkpt><trkpt lat="40.4758233" lon="16.724995"><ele>38.0</ele><time>2026-03-22T14:40:38.452Z</time></trkpt><trkpt lat="40.4757067" lon="16.7251883"><ele>38.0</ele><time>2026-03-22T14:40:39.451Z</time></trkpt><trkpt lat="40.4755917" lon="16.7253817"><ele>39.0</ele><time>2026-03-22T14:40:40.451Z</time></trkpt><trkpt lat="40.4754783" lon="16.72557"><ele>40.0</ele><time>2026-03-22T14:40:41.451Z</time></trkpt><trkpt lat="40.475365" lon="16.7257567"><ele>41.0</ele><time>2026-03-22T14:40:42.452Z</time></trkpt><trkpt lat="40.475255" lon="16.7259383"><ele>37.666666666666664</ele><time>2026-03-22T14:40:43.451Z</time></trkpt><trkpt lat="40.47515" lon="16.72612"><ele>34.333333333333336</ele><time>2026-03-22T14:40:44.453Z</time></trkpt><trkpt lat="40.4750433" lon="16.7263017"><ele>31.0</ele><time>2026-03-22T14:40:45.451Z</time></trkpt><trkpt lat="40.4749383" lon="16.72648"><ele>31.0</ele><time>2026-03-22T14:40:46.453Z</time></trkpt><trkpt lat="40.474835" lon="16.726655"><ele>31.0</ele><time>2026-03-22T14:40:47.453Z</time></trkpt><trkpt lat="40.47473" lon="16.72683"><ele>31.0</ele><time>2026-03-22T14:40:48.452Z</time></trkpt><trkpt lat="40.4746233" lon="16.7270033"><ele>32.66666666666667</ele><time>2026-03-22T14:40:49.451Z</time></trkpt><trkpt lat="40.4745183" lon="16.72718"><ele>34.333333333333336</ele><time>2026-03-22T14:40:50.452Z</time></trkpt><trkpt lat="40.4744133" lon="16.7273567"><ele>36.0</ele><time>2026-03-22T14:40:51.452Z</time></trkpt><trkpt lat="40.4743067" lon="16.7275383"><ele>36.0</ele><time>2026-03-22T14:40:52.451Z</time></trkpt><trkpt lat="40.4741983" lon="16.7277217"><ele>36.0</ele><time>2026-03-22T14:40:53.451Z</time></trkpt><trkpt lat="40.4740883" lon="16.7279083"><ele>36.0</ele><time>2026-03-22T14:40:54.452Z</time></trkpt><trkpt lat="40.4739767" lon="16.728095"><ele>34.333333333333336</ele><time>2026-03-22T14:40:55.451Z</time></trkpt><trkpt lat="40.4738633" lon="16.7282833"><ele>32.66666666666667</ele><time>2026-03-22T14:40:56.451Z</time></trkpt><trkpt lat="40.4737483" lon="16.7284733"><ele>31.0</ele><time>2026-03-22T14:40:57.453Z</time></trkpt><trkpt lat="40.473635" lon="16.7286667"><ele>31.0</ele><time>2026-03-22T14:40:58.451Z</time></trkpt><trkpt lat="40.4735233" lon="16.7288633"><ele>31.0</ele><time>2026-03-22T14:40:59.452Z</time></trkpt><trkpt lat="40.4734083" lon="16.7290583"><ele>31.0</ele><time>2026-03-22T14:41:00.45Z</time></trkpt><trkpt lat="40.473295" lon="16.72925"><ele>30.0</ele><time>2026-03-22T14:41:01.451Z</time></trkpt><trkpt lat="40.4731783" lon="16.729445"><ele>29.0</ele><time>2026-03-22T14:41:02.452Z</time></trkpt><trkpt lat="40.473065" lon="16.7296383"><ele>28.0</ele><time>2026-03-22T14:41:03.451Z</time></trkpt><trkpt lat="40.4729533" lon="16.72983"><ele>28.333333333333336</ele><time>2026-03-22T14:41:04.452Z</time></trkpt><trkpt lat="40.4728417" lon="16.7300233"><ele>28.666666666666664</ele><time>2026-03-22T14:41:05.451Z</time></trkpt><trkpt lat="40.47273" lon="16.730215"><ele>29.0</ele><time>2026-03-22T14:41:06.451Z</time></trkpt><trkpt lat="40.4726183" lon="16.7304067"><ele>29.333333333333332</ele><time>2026-03-22T14:41:07.452Z</time></trkpt><trkpt lat="40.472505" lon="16.730595"><ele>29.666666666666664</ele><time>2026-03-22T14:41:08.452Z</time></trkpt><trkpt lat="40.4723917" lon="16.730785"><ele>30.0</ele><time>2026-03-22T14:41:09.451Z</time></trkpt><trkpt lat="40.4722783" lon="16.7309767"><ele>29.666666666666664</ele><time>2026-03-22T14:41:10.452Z</time></trkpt><trkpt lat="40.4721667" lon="16.7311683"><ele>29.333333333333332</ele><time>2026-03-22T14:41:11.452Z</time></trkpt><trkpt lat="40.472055" lon="16.7313617"><ele>29.0</ele><time>2026-03-22T14:41:12.454Z</time></trkpt><trkpt lat="40.4719417" lon="16.7315533"><ele>28.666666666666664</ele><time>2026-03-22T14:41:13.451Z</time></trkpt><trkpt lat="40.4718283" lon="16.731745"><ele>28.333333333333336</ele><time>2026-03-22T14:41:14.452Z</time></trkpt><trkpt lat="40.4717133" lon="16.7319383"><ele>28.0</ele><time>2026-03-22T14:41:15.452Z</time></trkpt><trkpt lat="40.4715983" lon="16.7321333"><ele>28.0</ele><time>2026-03-22T14:41:16.451Z</time></trkpt><trkpt lat="40.4714883" lon="16.7323267"><ele>28.0</ele><time>2026-03-22T14:41:17.451Z</time></trkpt><trkpt lat="40.471375" lon="16.73252"><ele>28.0</ele><time>2026-03-22T14:41:18.45Z</time></trkpt><trkpt lat="40.47126" lon="16.7327133"><ele>28.0</ele><time>2026-03-22T14:41:19.451Z</time></trkpt><trkpt lat="40.471145" lon="16.7329067"><ele>28.0</ele><time>2026-03-22T14:41:20.451Z</time></trkpt><trkpt lat="40.471025" lon="16.7331"><ele>28.0</ele><time>2026-03-22T14:41:21.451Z</time></trkpt><trkpt lat="40.47091" lon="16.733295"><ele>28.0</ele><time>2026-03-22T14:41:22.452Z</time></trkpt><trkpt lat="40.4707967" lon="16.7334933"><ele>28.0</ele><time>2026-03-22T14:41:23.451Z</time></trkpt><trkpt lat="40.4706867" lon="16.733695"><ele>28.0</ele><time>2026-03-22T14:41:24.451Z</time></trkpt><trkpt lat="40.4705783" lon="16.7338983"><ele>27.666666666666668</ele><time>2026-03-22T14:41:25.452Z</time></trkpt><trkpt lat="40.47047" lon="16.734105"><ele>27.333333333333336</ele><time>2026-03-22T14:41:26.452Z</time></trkpt><trkpt lat="40.4703633" lon="16.7343133"><ele>27.0</ele><time>2026-03-22T14:41:27.451Z</time></trkpt><trkpt lat="40.47026" lon="16.7345267"><ele>26.333333333333336</ele><time>2026-03-22T14:41:28.452Z</time></trkpt><trkpt lat="40.47016" lon="16.7347433"><ele>25.666666666666668</ele><time>2026-03-22T14:41:29.451Z</time></trkpt><trkpt lat="40.4700617" lon="16.7349633"><ele>25.0</ele><time>2026-03-22T14:41:30.451Z</time></trkpt><trkpt lat="40.469965" lon="16.735185"><ele>25.0</ele><time>2026-03-22T14:41:31.451Z</time></trkpt><trkpt lat="40.46987" lon="16.73541"><ele>25.0</ele><time>2026-03-22T14:41:32.452Z</time></trkpt><trkpt lat="40.46978" lon="16.7356333"><ele>25.0</ele><time>2026-03-22T14:41:33.452Z</time></trkpt><trkpt lat="40.4696917" lon="16.7358617"><ele>25.0</ele><time>2026-03-22T14:41:34.452Z</time></trkpt><trkpt lat="40.469605" lon="16.73609"><ele>25.0</ele><time>2026-03-22T14:41:35.452Z</time></trkpt><trkpt lat="40.4695183" lon="16.7363183"><ele>25.0</ele><time>2026-03-22T14:41:36.451Z</time></trkpt><trkpt lat="40.469435" lon="16.7365483"><ele>25.0</ele><time>2026-03-22T14:41:37.452Z</time></trkpt><trkpt lat="40.4693533" lon="16.7367767"><ele>25.0</ele><time>2026-03-22T14:41:38.451Z</time></trkpt><trkpt lat="40.4692717" lon="16.7370017"><ele>25.0</ele><time>2026-03-22T14:41:39.451Z</time></trkpt><trkpt lat="40.46919" lon="16.7372267"><ele>25.0</ele><time>2026-03-22T14:41:40.451Z</time></trkpt><trkpt lat="40.4691067" lon="16.7374517"><ele>25.0</ele><time>2026-03-22T14:41:41.452Z</time></trkpt><trkpt lat="40.4690233" lon="16.7376767"><ele>25.0</ele><time>2026-03-22T14:41:42.451Z</time></trkpt><trkpt lat="40.46894" lon="16.7379017"><ele>25.0</ele><time>2026-03-22T14:41:43.451Z</time></trkpt><trkpt lat="40.468855" lon="16.7381267"><ele>25.0</ele><time>2026-03-22T14:41:44.452Z</time></trkpt><trkpt lat="40.4687703" lon="16.7383519"><ele>25.0</ele><time>2026-03-22T14:41:45.451Z</time></trkpt><trkpt lat="40.4686854" lon="16.7385772"><ele>25.333333333333336</ele><time>2026-03-22T14:41:46.451Z</time></trkpt><trkpt lat="40.4686027" lon="16.7388036"><ele>25.666666666666664</ele><time>2026-03-22T14:41:47.452Z</time></trkpt><trkpt lat="40.4685215" lon="16.7390321"><ele>26.0</ele><time>2026-03-22T14:41:48.451Z</time></trkpt><trkpt lat="40.4684401" lon="16.7392593"><ele>26.0</ele><time>2026-03-22T14:41:49.451Z</time></trkpt><trkpt lat="40.4683561" lon="16.7394862"><ele>26.0</ele><time>2026-03-22T14:41:50.452Z</time></trkpt><trkpt lat="40.4682717" lon="16.7397113"><ele>26.0</ele><time>2026-03-22T14:41:51.451Z</time></trkpt><trkpt lat="40.468187" lon="16.739936"><ele>26.0</ele><time>2026-03-22T14:41:52.451Z</time></trkpt><trkpt lat="40.468102" lon="16.7401609"><ele>26.0</ele><time>2026-03-22T14:41:53.451Z</time></trkpt><trkpt lat="40.4680169" lon="16.7403862"><ele>26.0</ele><time>2026-03-22T14:41:54.454Z</time></trkpt><trkpt lat="40.4679332" lon="16.7406107"><ele>26.0</ele><time>2026-03-22T14:41:55.451Z</time></trkpt><trkpt lat="40.4678485" lon="16.7408359"><ele>26.0</ele><time>2026-03-22T14:41:56.452Z</time></trkpt><trkpt lat="40.4677639" lon="16.7410581"><ele>26.0</ele><time>2026-03-22T14:41:57.451Z</time></trkpt><trkpt lat="40.4676824" lon="16.7412811"><ele>26.0</ele><time>2026-03-22T14:41:58.451Z</time></trkpt><trkpt lat="40.4675996" lon="16.741502"><ele>26.0</ele><time>2026-03-22T14:41:59.451Z</time></trkpt><trkpt lat="40.4675143" lon="16.7417219"><ele>26.0</ele><time>2026-03-22T14:42:00.452Z</time></trkpt><trkpt lat="40.4674265" lon="16.7419396"><ele>25.666666666666664</ele><time>2026-03-22T14:42:01.451Z</time></trkpt><trkpt lat="40.4673404" lon="16.7421563"><ele>25.333333333333336</ele><time>2026-03-22T14:42:02.452Z</time></trkpt><trkpt lat="40.4672541" lon="16.7423714"><ele>25.0</ele><time>2026-03-22T14:42:03.451Z</time></trkpt><trkpt lat="40.4671703" lon="16.7425816"><ele>25.0</ele><time>2026-03-22T14:42:04.451Z</time></trkpt><trkpt lat="40.4670893" lon="16.7427821"><ele>25.0</ele><time>2026-03-22T14:42:05.452Z</time></trkpt><trkpt lat="40.4670168" lon="16.7429711"><ele>25.0</ele><time>2026-03-22T14:42:06.452Z</time></trkpt><trkpt lat="40.466952" lon="16.7431464"><ele>25.0</ele><time>2026-03-22T14:42:07.451Z</time></trkpt><trkpt lat="40.4668939" lon="16.743311"><ele>25.0</ele><time>2026-03-22T14:42:08.452Z</time></trkpt><trkpt lat="40.4668409" lon="16.7434636"><ele>25.0</ele><time>2026-03-22T14:42:09.451Z</time></trkpt><trkpt lat="40.4667874" lon="16.7436056"><ele>25.0</ele><time>2026-03-22T14:42:10.451Z</time></trkpt><trkpt lat="40.4667271" lon="16.7437414"><ele>25.0</ele><time>2026-03-22T14:42:11.451Z</time></trkpt><trkpt lat="40.4666563" lon="16.7438622"><ele>25.0</ele><time>2026-03-22T14:42:12.452Z</time></trkpt><trkpt lat="40.4665692" lon="16.7439635"><ele>25.0</ele><time>2026-03-22T14:42:13.451Z</time></trkpt><trkpt lat="40.4664633" lon="16.744036"><ele>25.0</ele><time>2026-03-22T14:42:14.453Z</time></trkpt><trkpt lat="40.4663455" lon="16.7440719"><ele>25.25</ele><time>2026-03-22T14:42:15.452Z</time></trkpt><trkpt lat="40.4662244" lon="16.7440618"><ele>25.5</ele><time>2026-03-22T14:42:16.453Z</time></trkpt><trkpt lat="40.4661081" lon="16.7440091"><ele>25.75</ele><time>2026-03-22T14:42:17.451Z</time></trkpt><trkpt lat="40.4660056" lon="16.743917"><ele>26.0</ele><time>2026-03-22T14:42:18.452Z</time></trkpt><trkpt lat="40.465917" lon="16.7438002"><ele>26.0</ele><time>2026-03-22T14:42:19.451Z</time></trkpt><trkpt lat="40.4658293" lon="16.7436779"><ele>26.0</ele><time>2026-03-22T14:42:20.454Z</time></trkpt><trkpt lat="40.4657382" lon="16.7435625"><ele>26.0</ele><time>2026-03-22T14:42:21.452Z</time></trkpt><trkpt lat="40.4656405" lon="16.7434601"><ele>26.0</ele><time>2026-03-22T14:42:22.451Z</time></trkpt><trkpt lat="40.4655321" lon="16.7433851"><ele>25.75</ele><time>2026-03-22T14:42:23.451Z</time></trkpt><trkpt lat="40.4654081" lon="16.7433467"><ele>25.5</ele><time>2026-03-22T14:42:24.452Z</time></trkpt><trkpt lat="40.4652811" lon="16.743347"><ele>25.25</ele><time>2026-03-22T14:42:25.451Z</time></trkpt><trkpt lat="40.4651638" lon="16.7433689"><ele>25.0</ele><time>2026-03-22T14:42:26.452Z</time></trkpt><trkpt lat="40.4650611" lon="16.7433895"><ele>25.000000000000004</ele><time>2026-03-22T14:42:27.452Z</time></trkpt><trkpt lat="40.4649702" lon="16.74338"><ele>25.0</ele><time>2026-03-22T14:42:28.452Z</time></trkpt><trkpt lat="40.4648847" lon="16.7433385"><ele>25.0</ele><time>2026-03-22T14:42:29.453Z</time></trkpt><trkpt lat="40.4648034" lon="16.7432884"><ele>25.0</ele><time>2026-03-22T14:42:30.452Z</time></trkpt><trkpt lat="40.4647252" lon="16.7432485"><ele>25.000000000000004</ele><time>2026-03-22T14:42:31.452Z</time></trkpt><trkpt lat="40.464652" lon="16.7431976"><ele>25.0</ele><time>2026-03-22T14:42:32.452Z</time></trkpt><trkpt lat="40.464586" lon="16.7431189"><ele>25.0</ele><time>2026-03-22T14:42:33.452Z</time></trkpt><trkpt lat="40.4645322" lon="16.7429995"><ele>25.0</ele><time>2026-03-22T14:42:34.452Z</time></trkpt><trkpt lat="40.4644822" lon="16.742859"><ele>25.0</ele><time>2026-03-22T14:42:35.452Z</time></trkpt><trkpt lat="40.4644285" lon="16.7427133"><ele>25.0</ele><time>2026-03-22T14:42:36.452Z</time></trkpt><trkpt lat="40.4643702" lon="16.7425626"><ele>25.0</ele><time>2026-03-22T14:42:37.456Z</time></trkpt><trkpt lat="40.4643112" lon="16.7424217"><ele>25.0</ele><time>2026-03-22T14:42:38.451Z</time></trkpt><trkpt lat="40.4642457" lon="16.7422918"><ele>25.0</ele><time>2026-03-22T14:42:39.451Z</time></trkpt><trkpt lat="40.4641629" lon="16.7421768"><ele>25.0</ele><time>2026-03-22T14:42:40.45Z</time></trkpt><trkpt lat="40.4640589" lon="16.7420852"><ele>25.0</ele><time>2026-03-22T14:42:41.451Z</time></trkpt><trkpt lat="40.4639357" lon="16.7420168"><ele>25.0</ele><time>2026-03-22T14:42:42.451Z</time></trkpt><trkpt lat="40.4638027" lon="16.7419747"><ele>25.0</ele><time>2026-03-22T14:42:43.452Z</time></trkpt><trkpt lat="40.4636678" lon="16.7419646"><ele>25.0</ele><time>2026-03-22T14:42:44.453Z</time></trkpt><trkpt lat="40.4635326" lon="16.7419779"><ele>25.5</ele><time>2026-03-22T14:42:45.451Z</time></trkpt><trkpt lat="40.4633955" lon="16.7419976"><ele>26.0</ele><time>2026-03-22T14:42:46.453Z</time></trkpt><trkpt lat="40.4632558" lon="16.7420111"><ele>26.5</ele><time>2026-03-22T14:42:47.451Z</time></trkpt><trkpt lat="40.4631137" lon="16.7420204"><ele>27.0</ele><time>2026-03-22T14:42:48.451Z</time></trkpt><trkpt lat="40.4629706" lon="16.7420298"><ele>27.75</ele><time>2026-03-22T14:42:49.451Z</time></trkpt><trkpt lat="40.4628272" lon="16.7420377"><ele>28.5</ele><time>2026-03-22T14:42:50.452Z</time></trkpt><trkpt lat="40.4626852" lon="16.742049"><ele>29.25</ele><time>2026-03-22T14:42:51.451Z</time></trkpt><trkpt lat="40.46255" lon="16.74206"><ele>30.0</ele><time>2026-03-22T14:42:52.451Z</time></trkpt><trkpt lat="40.4624233" lon="16.7420733"><ele>30.0</ele><time>2026-03-22T14:42:53.454Z</time></trkpt><trkpt lat="40.4623083" lon="16.742095"><ele>30.0</ele><time>2026-03-22T14:42:54.451Z</time></trkpt><trkpt lat="40.4622033" lon="16.7421467"><ele>30.0</ele><time>2026-03-22T14:42:55.451Z</time></trkpt><trkpt lat="40.4621183" lon="16.742245"><ele>30.0</ele><time>2026-03-22T14:42:56.453Z</time></trkpt><trkpt lat="40.462055" lon="16.7423833"><ele>32.25</ele><time>2026-03-22T14:42:57.452Z</time></trkpt><trkpt lat="40.462" lon="16.74255"><ele>34.5</ele><time>2026-03-22T14:42:58.451Z</time></trkpt><trkpt lat="40.4619533" lon="16.7427267"><ele>36.75</ele><time>2026-03-22T14:42:59.451Z</time></trkpt><trkpt lat="40.4619183" lon="16.7429033"><ele>39.0</ele><time>2026-03-22T14:43:00.451Z</time></trkpt><trkpt lat="40.4619033" lon="16.7430833"><ele>39.0</ele><time>2026-03-22T14:43:01.451Z</time></trkpt><trkpt lat="40.4619133" lon="16.74326"><ele>39.0</ele><time>2026-03-22T14:43:02.452Z</time></trkpt><trkpt lat="40.4619533" lon="16.74343"><ele>39.0</ele><time>2026-03-22T14:43:03.451Z</time></trkpt><trkpt lat="40.4620083" lon="16.7435883"><ele>39.0</ele><time>2026-03-22T14:43:04.451Z</time></trkpt><trkpt lat="40.4620633" lon="16.7437333"><ele>39.75</ele><time>2026-03-22T14:43:05.451Z</time></trkpt><trkpt lat="40.462095" lon="16.743875"><ele>40.5</ele><time>2026-03-22T14:43:06.451Z</time></trkpt><trkpt lat="40.4620933" lon="16.7440233"><ele>41.25</ele><time>2026-03-22T14:43:07.453Z</time></trkpt><trkpt lat="40.462065" lon="16.74417"><ele>42.0</ele><time>2026-03-22T14:43:08.453Z</time></trkpt><trkpt lat="40.46202" lon="16.7443033"><ele>40.6</ele><time>2026-03-22T14:43:09.451Z</time></trkpt><trkpt lat="40.4619533" lon="16.7444067"><ele>39.2</ele><time>2026-03-22T14:43:10.451Z</time></trkpt><trkpt lat="40.4618617" lon="16.744475"><ele>37.8</ele><time>2026-03-22T14:43:11.451Z</time></trkpt><trkpt lat="40.461755" lon="16.74449"><ele>36.4</ele><time>2026-03-22T14:43:12.452Z</time></trkpt><trkpt lat="40.46164" lon="16.7444567"><ele>35.0</ele><time>2026-03-22T14:43:13.452Z</time></trkpt><trkpt lat="40.4615183" lon="16.744405"><ele>36.75</ele><time>2026-03-22T14:43:14.454Z</time></trkpt><trkpt lat="40.4613983" lon="16.7443483"><ele>38.5</ele><time>2026-03-22T14:43:15.452Z</time></trkpt><trkpt lat="40.46128" lon="16.7442833"><ele>40.25</ele><time>2026-03-22T14:43:16.451Z</time></trkpt><trkpt lat="40.4611617" lon="16.744195"><ele>42.0</ele><time>2026-03-22T14:43:17.451Z</time></trkpt><trkpt lat="40.461055" lon="16.7440733"><ele>42.666666666666664</ele><time>2026-03-22T14:43:18.451Z</time></trkpt><trkpt lat="40.460955" lon="16.74393"><ele>43.33333333333333</ele><time>2026-03-22T14:43:19.451Z</time></trkpt><trkpt lat="40.4608567" lon="16.7437817"><ele>44.0</ele><time>2026-03-22T14:43:20.451Z</time></trkpt><trkpt lat="40.4607567" lon="16.7436283"><ele>44.33333333333333</ele><time>2026-03-22T14:43:21.452Z</time></trkpt><trkpt lat="40.4606583" lon="16.74347"><ele>44.666666666666664</ele><time>2026-03-22T14:43:22.451Z</time></trkpt><trkpt lat="40.4605583" lon="16.7433117"><ele>45.0</ele><time>2026-03-22T14:43:23.451Z</time></trkpt><trkpt lat="40.4604683" lon="16.74315"><ele>48.0</ele><time>2026-03-22T14:43:24.451Z</time></trkpt><trkpt lat="40.460395" lon="16.742975"><ele>51.0</ele><time>2026-03-22T14:43:25.452Z</time></trkpt><trkpt lat="40.4603317" lon="16.7427883"><ele>54.0</ele><time>2026-03-22T14:43:26.451Z</time></trkpt><trkpt lat="40.4602767" lon="16.7426"><ele>54.0</ele><time>2026-03-22T14:43:27.452Z</time></trkpt><trkpt lat="40.4602033" lon="16.742415"><ele>54.0</ele><time>2026-03-22T14:43:28.451Z</time></trkpt><trkpt lat="40.460115" lon="16.7422417"><ele>54.0</ele><time>2026-03-22T14:43:29.451Z</time></trkpt><trkpt lat="40.4600117" lon="16.7420717"><ele>54.0</ele><time>2026-03-22T14:43:30.452Z</time></trkpt><trkpt lat="40.4599" lon="16.7419017"><ele>54.0</ele><time>2026-03-22T14:43:31.452Z</time></trkpt><trkpt lat="40.4597867" lon="16.7417333"><ele>54.0</ele><time>2026-03-22T14:43:32.452Z</time></trkpt><trkpt lat="40.4596767" lon="16.7415667"><ele>57.66666666666667</ele><time>2026-03-22T14:43:33.453Z</time></trkpt><trkpt lat="40.4595683" lon="16.7414"><ele>61.333333333333336</ele><time>2026-03-22T14:43:34.453Z</time></trkpt><trkpt lat="40.45947" lon="16.7412317"><ele>65.0</ele><time>2026-03-22T14:43:35.452Z</time></trkpt><trkpt lat="40.459395" lon="16.741055"><ele>64.33333333333334</ele><time>2026-03-22T14:43:36.452Z</time></trkpt><trkpt lat="40.4593467" lon="16.7408633"><ele>63.66666666666667</ele><time>2026-03-22T14:43:37.451Z</time></trkpt><trkpt lat="40.4593283" lon="16.740665"><ele>63.0</ele><time>2026-03-22T14:43:38.451Z</time></trkpt><trkpt lat="40.45934" lon="16.7404667"><ele>63.0</ele><time>2026-03-22T14:43:39.451Z</time></trkpt><trkpt lat="40.4593767" lon="16.74028"><ele>63.0</ele><time>2026-03-22T14:43:40.45Z</time></trkpt><trkpt lat="40.45942" lon="16.7401067"><ele>63.0</ele><time>2026-03-22T14:43:41.451Z</time></trkpt><trkpt lat="40.45945" lon="16.739935"><ele>63.0</ele><time>2026-03-22T14:43:42.452Z</time></trkpt><trkpt lat="40.4594467" lon="16.739755"><ele>63.25</ele><time>2026-03-22T14:43:43.451Z</time></trkpt><trkpt lat="40.4594167" lon="16.7395667"><ele>63.5</ele><time>2026-03-22T14:43:44.452Z</time></trkpt><trkpt lat="40.4593667" lon="16.7393783"><ele>63.75</ele><time>2026-03-22T14:43:45.451Z</time></trkpt><trkpt lat="40.4593117" lon="16.739195"><ele>64.0</ele><time>2026-03-22T14:43:46.451Z</time></trkpt><trkpt lat="40.4592567" lon="16.73901"><ele>65.33333333333333</ele><time>2026-03-22T14:43:47.452Z</time></trkpt><trkpt lat="40.45921" lon="16.7388217"><ele>66.66666666666667</ele><time>2026-03-22T14:43:48.451Z</time></trkpt><trkpt lat="40.4591767" lon="16.738625"><ele>68.0</ele><time>2026-03-22T14:43:49.451Z</time></trkpt><trkpt lat="40.45916" lon="16.738425"><ele>68.66666666666667</ele><time>2026-03-22T14:43:50.452Z</time></trkpt><trkpt lat="40.459155" lon="16.7382233"><ele>69.33333333333333</ele><time>2026-03-22T14:43:51.452Z</time></trkpt><trkpt lat="40.4591633" lon="16.7380217"><ele>70.0</ele><time>2026-03-22T14:43:52.451Z</time></trkpt><trkpt lat="40.4591883" lon="16.7378333"><ele>70.5</ele><time>2026-03-22T14:43:53.451Z</time></trkpt><trkpt lat="40.4592383" lon="16.737665"><ele>71.0</ele><time>2026-03-22T14:43:54.451Z</time></trkpt><trkpt lat="40.4593133" lon="16.7375217"><ele>71.5</ele><time>2026-03-22T14:43:55.451Z</time></trkpt><trkpt lat="40.4593917" lon="16.7373917"><ele>72.0</ele><time>2026-03-22T14:43:56.452Z</time></trkpt><trkpt lat="40.4594367" lon="16.7372467"><ele>72.0</ele><time>2026-03-22T14:43:57.452Z</time></trkpt><trkpt lat="40.45945" lon="16.73708"><ele>72.0</ele><time>2026-03-22T14:43:58.451Z</time></trkpt><trkpt lat="40.459445" lon="16.7368967"><ele>72.0</ele><time>2026-03-22T14:43:59.45Z</time></trkpt><trkpt lat="40.4594367" lon="16.7367067"><ele>72.0</ele><time>2026-03-22T14:44:00.454Z</time></trkpt><trkpt lat="40.459435" lon="16.73652"><ele>74.33333333333333</ele><time>2026-03-22T14:44:01.452Z</time></trkpt><trkpt lat="40.4594333" lon="16.7363317"><ele>76.66666666666666</ele><time>2026-03-22T14:44:02.452Z</time></trkpt><trkpt lat="40.4594433" lon="16.73613"><ele>79.0</ele><time>2026-03-22T14:44:03.451Z</time></trkpt><trkpt lat="40.4594717" lon="16.73593"><ele>80.33333333333333</ele><time>2026-03-22T14:44:04.452Z</time></trkpt><trkpt lat="40.45953" lon="16.73574"><ele>81.66666666666667</ele><time>2026-03-22T14:44:05.452Z</time></trkpt><trkpt lat="40.4596217" lon="16.7355667"><ele>83.0</ele><time>2026-03-22T14:44:06.451Z</time></trkpt><trkpt lat="40.4597217" lon="16.7354017"><ele>81.0</ele><time>2026-03-22T14:44:07.452Z</time></trkpt><trkpt lat="40.459815" lon="16.7352383"><ele>79.0</ele><time>2026-03-22T14:44:08.452Z</time></trkpt><trkpt lat="40.4598833" lon="16.735085"><ele>77.0</ele><time>2026-03-22T14:44:09.452Z</time></trkpt><trkpt lat="40.459915" lon="16.7349417"><ele>75.0</ele><time>2026-03-22T14:44:10.451Z</time></trkpt><trkpt lat="40.459905" lon="16.7347933"><ele>75.0</ele><time>2026-03-22T14:44:11.451Z</time></trkpt><trkpt lat="40.4598683" lon="16.73464"><ele>75.0</ele><time>2026-03-22T14:44:12.452Z</time></trkpt><trkpt lat="40.4598267" lon="16.7344817"><ele>75.0</ele><time>2026-03-22T14:44:13.451Z</time></trkpt><trkpt lat="40.459785" lon="16.73432"><ele>75.0</ele><time>2026-03-22T14:44:14.452Z</time></trkpt><trkpt lat="40.4597517" lon="16.73416"><ele>75.75</ele><time>2026-03-22T14:44:15.453Z</time></trkpt><trkpt lat="40.4597433" lon="16.7340033"><ele>76.5</ele><time>2026-03-22T14:44:16.452Z</time></trkpt><trkpt lat="40.4597733" lon="16.733855"><ele>77.25</ele><time>2026-03-22T14:44:17.451Z</time></trkpt><trkpt lat="40.4598367" lon="16.7337233"><ele>78.0</ele><time>2026-03-22T14:44:18.452Z</time></trkpt><trkpt lat="40.4599167" lon="16.7335967"><ele>80.75</ele><time>2026-03-22T14:44:19.45Z</time></trkpt><trkpt lat="40.4599967" lon="16.73346"><ele>83.5</ele><time>2026-03-22T14:44:20.452Z</time></trkpt><trkpt lat="40.46008" lon="16.7333133"><ele>86.25</ele><time>2026-03-22T14:44:21.451Z</time></trkpt><trkpt lat="40.460165" lon="16.73317"><ele>89.0</ele><time>2026-03-22T14:44:22.451Z</time></trkpt><trkpt lat="40.46026" lon="16.7330267"><ele>89.0</ele><time>2026-03-22T14:44:23.451Z</time></trkpt><trkpt lat="40.4603717" lon="16.732885"><ele>89.0</ele><time>2026-03-22T14:44:24.452Z</time></trkpt><trkpt lat="40.460495" lon="16.7327533"><ele>89.0</ele><time>2026-03-22T14:44:25.451Z</time></trkpt><trkpt lat="40.4606217" lon="16.73263"><ele>88.66666666666667</ele><time>2026-03-22T14:44:26.453Z</time></trkpt><trkpt lat="40.4607433" lon="16.7325033"><ele>88.33333333333333</ele><time>2026-03-22T14:44:27.451Z</time></trkpt><trkpt lat="40.4608583" lon="16.7323683"><ele>88.0</ele><time>2026-03-22T14:44:28.451Z</time></trkpt><trkpt lat="40.4609633" lon="16.7322267"><ele>88.0</ele><time>2026-03-22T14:44:29.451Z</time></trkpt><trkpt lat="40.4610517" lon="16.7320833"><ele>88.0</ele><time>2026-03-22T14:44:30.452Z</time></trkpt><trkpt lat="40.4611267" lon="16.7319383"><ele>88.0</ele><time>2026-03-22T14:44:31.451Z</time></trkpt><trkpt lat="40.4611833" lon="16.7317983"><ele>88.0</ele><time>2026-03-22T14:44:32.452Z</time></trkpt><trkpt lat="40.4612067" lon="16.731655"><ele>91.75</ele><time>2026-03-22T14:44:33.452Z</time></trkpt><trkpt lat="40.4611933" lon="16.7315033"><ele>95.5</ele><time>2026-03-22T14:44:34.452Z</time></trkpt><trkpt lat="40.461155" lon="16.7313533"><ele>99.25</ele><time>2026-03-22T14:44:35.452Z</time></trkpt><trkpt lat="40.4611267" lon="16.7312083"><ele>103.0</ele><time>2026-03-22T14:44:36.452Z</time></trkpt><trkpt lat="40.4611317" lon="16.731065"><ele>103.2</ele><time>2026-03-22T14:44:37.451Z</time></trkpt><trkpt lat="40.46116" lon="16.7309283"><ele>103.4</ele><time>2026-03-22T14:44:38.452Z</time></trkpt><trkpt lat="40.4611733" lon="16.7307933"><ele>103.60000000000001</ele><time>2026-03-22T14:44:39.451Z</time></trkpt><trkpt lat="40.4611533" lon="16.730655"><ele>103.80000000000001</ele><time>2026-03-22T14:44:40.451Z</time></trkpt><trkpt lat="40.4610917" lon="16.7305283"><ele>104.0</ele><time>2026-03-22T14:44:41.451Z</time></trkpt><trkpt lat="40.4609967" lon="16.7304383"><ele>104.0</ele><time>2026-03-22T14:44:42.452Z</time></trkpt><trkpt lat="40.4608767" lon="16.73039"><ele>104.0</ele><time>2026-03-22T14:44:43.451Z</time></trkpt><trkpt lat="40.460755" lon="16.7303567"><ele>104.0</ele><time>2026-03-22T14:44:44.453Z</time></trkpt><trkpt lat="40.4606433" lon="16.7303067"><ele>104.0</ele><time>2026-03-22T14:44:45.453Z</time></trkpt><trkpt lat="40.4605533" lon="16.730215"><ele>104.5</ele><time>2026-03-22T14:44:46.451Z</time></trkpt><trkpt lat="40.46048" lon="16.7300867"><ele>105.0</ele><time>2026-03-22T14:44:47.451Z</time></trkpt><trkpt lat="40.4604317" lon="16.7299233"><ele>105.5</ele><time>2026-03-22T14:44:48.451Z</time></trkpt><trkpt lat="40.4604033" lon="16.729745"><ele>106.0</ele><time>2026-03-22T14:44:49.451Z</time></trkpt><trkpt lat="40.4603833" lon="16.7295633"><ele>105.25</ele><time>2026-03-22T14:44:50.452Z</time></trkpt><trkpt lat="40.4603717" lon="16.7293817"><ele>104.5</ele><time>2026-03-22T14:44:51.451Z</time></trkpt><trkpt lat="40.4603783" lon="16.7292033"><ele>103.75</ele><time>2026-03-22T14:44:52.451Z</time></trkpt><trkpt lat="40.4604133" lon="16.7290333"><ele>103.0</ele><time>2026-03-22T14:44:53.451Z</time></trkpt><trkpt lat="40.4604833" lon="16.728865"><ele>102.66666666666667</ele><time>2026-03-22T14:44:54.451Z</time></trkpt><trkpt lat="40.46057" lon="16.7286933"><ele>102.33333333333334</ele><time>2026-03-22T14:44:55.451Z</time></trkpt><trkpt lat="40.4606567" lon="16.7285233"><ele>102.0</ele><time>2026-03-22T14:44:56.454Z</time></trkpt><trkpt lat="40.4607483" lon="16.72835"><ele>104.0</ele><time>2026-03-22T14:44:57.452Z</time></trkpt><trkpt lat="40.46084" lon="16.7281783"><ele>106.0</ele><time>2026-03-22T14:44:58.452Z</time></trkpt><trkpt lat="40.4609317" lon="16.7280067"><ele>108.0</ele><time>2026-03-22T14:44:59.451Z</time></trkpt><trkpt lat="40.4610183" lon="16.7278367"><ele>107.66666666666666</ele><time>2026-03-22T14:45:00.45Z</time></trkpt><trkpt lat="40.4611067" lon="16.727665"><ele>107.33333333333333</ele><time>2026-03-22T14:45:01.451Z</time></trkpt><trkpt lat="40.4611917" lon="16.7274983"><ele>107.0</ele><time>2026-03-22T14:45:02.453Z</time></trkpt><trkpt lat="40.4612667" lon="16.7273367"><ele>107.25</ele><time>2026-03-22T14:45:03.451Z</time></trkpt><trkpt lat="40.4613217" lon="16.7271667"><ele>107.5</ele><time>2026-03-22T14:45:04.451Z</time></trkpt><trkpt lat="40.4613583" lon="16.7269767"><ele>107.75</ele><time>2026-03-22T14:45:05.452Z</time></trkpt><trkpt lat="40.461385" lon="16.7267767"><ele>108.0</ele><time>2026-03-22T14:45:06.452Z</time></trkpt><trkpt lat="40.4613983" lon="16.7265683"><ele>108.66666666666666</ele><time>2026-03-22T14:45:07.451Z</time></trkpt><trkpt lat="40.4614067" lon="16.7263567"><ele>109.33333333333333</ele><time>2026-03-22T14:45:08.452Z</time></trkpt><trkpt lat="40.461415" lon="16.72614"><ele>110.0</ele><time>2026-03-22T14:45:09.451Z</time></trkpt><trkpt lat="40.4614217" lon="16.7259233"><ele>110.66666666666666</ele><time>2026-03-22T14:45:10.452Z</time></trkpt><trkpt lat="40.4614267" lon="16.7257067"><ele>111.33333333333334</ele><time>2026-03-22T14:45:11.451Z</time></trkpt><trkpt lat="40.4614317" lon="16.7254883"><ele>112.0</ele><time>2026-03-22T14:45:12.451Z</time></trkpt><trkpt lat="40.461435" lon="16.7252683"><ele>111.66666666666667</ele><time>2026-03-22T14:45:13.451Z</time></trkpt><trkpt lat="40.4614383" lon="16.7250483"><ele>111.33333333333334</ele><time>2026-03-22T14:45:14.452Z</time></trkpt><trkpt lat="40.4614383" lon="16.7248283"><ele>111.0</ele><time>2026-03-22T14:45:15.452Z</time></trkpt><trkpt lat="40.4614383" lon="16.7246033"><ele>111.33333333333334</ele><time>2026-03-22T14:45:16.451Z</time></trkpt><trkpt lat="40.46144" lon="16.7243817"><ele>111.66666666666667</ele><time>2026-03-22T14:45:17.452Z</time></trkpt><trkpt lat="40.4614433" lon="16.72416"><ele>112.0</ele><time>2026-03-22T14:45:18.453Z</time></trkpt><trkpt lat="40.4614483" lon="16.7239383"><ele>112.0</ele><time>2026-03-22T14:45:19.45Z</time></trkpt><trkpt lat="40.46145" lon="16.7237167"><ele>112.0</ele><time>2026-03-22T14:45:20.452Z</time></trkpt><trkpt lat="40.4614567" lon="16.7234933"><ele>112.0</ele><time>2026-03-22T14:45:21.452Z</time></trkpt><trkpt lat="40.4614667" lon="16.723265"><ele>112.66666666666667</ele><time>2026-03-22T14:45:22.451Z</time></trkpt><trkpt lat="40.4614867" lon="16.7230333"><ele>113.33333333333334</ele><time>2026-03-22T14:45:23.451Z</time></trkpt><trkpt lat="40.4615183" lon="16.7228017"><ele>114.0</ele><time>2026-03-22T14:45:24.451Z</time></trkpt><trkpt lat="40.4615567" lon="16.7225717"><ele>114.66666666666666</ele><time>2026-03-22T14:45:25.452Z</time></trkpt><trkpt lat="40.4615983" lon="16.7223417"><ele>115.33333333333333</ele><time>2026-03-22T14:45:26.452Z</time></trkpt><trkpt lat="40.4616383" lon="16.72211"><ele>116.0</ele><time>2026-03-22T14:45:27.451Z</time></trkpt><trkpt lat="40.4616767" lon="16.7218783"><ele>116.66666666666666</ele><time>2026-03-22T14:45:28.452Z</time></trkpt><trkpt lat="40.4617167" lon="16.7216483"><ele>117.33333333333334</ele><time>2026-03-22T14:45:29.453Z</time></trkpt><trkpt lat="40.461755" lon="16.7214183"><ele>118.0</ele><time>2026-03-22T14:45:30.452Z</time></trkpt><trkpt lat="40.4617933" lon="16.721185"><ele>117.66666666666667</ele><time>2026-03-22T14:45:31.451Z</time></trkpt><trkpt lat="40.4618333" lon="16.7209483"><ele>117.33333333333334</ele><time>2026-03-22T14:45:32.453Z</time></trkpt><trkpt lat="40.461875" lon="16.7207067"><ele>117.0</ele><time>2026-03-22T14:45:33.452Z</time></trkpt><trkpt lat="40.4619117" lon="16.720465"><ele>116.66666666666666</ele><time>2026-03-22T14:45:34.452Z</time></trkpt><trkpt lat="40.4619483" lon="16.7202233"><ele>116.33333333333333</ele><time>2026-03-22T14:45:35.451Z</time></trkpt><trkpt lat="40.461985" lon="16.7199883"><ele>116.0</ele><time>2026-03-22T14:45:36.451Z</time></trkpt><trkpt lat="40.4620183" lon="16.719765"><ele>116.0</ele><time>2026-03-22T14:45:37.451Z</time></trkpt><trkpt lat="40.4620583" lon="16.7195517"><ele>116.0</ele><time>2026-03-22T14:45:38.452Z</time></trkpt><trkpt lat="40.4621067" lon="16.719355"><ele>116.0</ele><time>2026-03-22T14:45:39.45Z</time></trkpt><trkpt lat="40.46218" lon="16.7191767"><ele>117.0</ele><time>2026-03-22T14:45:40.451Z</time></trkpt><trkpt lat="40.4622883" lon="16.7190267"><ele>118.0</ele><time>2026-03-22T14:45:41.452Z</time></trkpt><trkpt lat="40.4624167" lon="16.7188933"><ele>119.0</ele><time>2026-03-22T14:45:42.451Z</time></trkpt><trkpt lat="40.4625533" lon="16.7187667"><ele>119.0</ele><time>2026-03-22T14:45:43.451Z</time></trkpt><trkpt lat="40.46269" lon="16.7186367"><ele>119.0</ele><time>2026-03-22T14:45:44.452Z</time></trkpt><trkpt lat="40.4628167" lon="16.7185017"><ele>119.0</ele><time>2026-03-22T14:45:45.451Z</time></trkpt><trkpt lat="40.462925" lon="16.718355"><ele>119.33333333333333</ele><time>2026-03-22T14:45:46.452Z</time></trkpt><trkpt lat="40.4630117" lon="16.71818"><ele>119.66666666666666</ele><time>2026-03-22T14:45:47.454Z</time></trkpt><trkpt lat="40.463085" lon="16.717985"><ele>120.0</ele><time>2026-03-22T14:45:48.452Z</time></trkpt><trkpt lat="40.46315" lon="16.7177867"><ele>121.33333333333334</ele><time>2026-03-22T14:45:49.452Z</time></trkpt><trkpt lat="40.463215" lon="16.7175883"><ele>122.66666666666667</ele><time>2026-03-22T14:45:50.452Z</time></trkpt><trkpt lat="40.4632783" lon="16.7173917"><ele>124.0</ele><time>2026-03-22T14:45:51.451Z</time></trkpt><trkpt lat="40.46334" lon="16.7171933"><ele>124.0</ele><time>2026-03-22T14:45:52.453Z</time></trkpt><trkpt lat="40.4634017" lon="16.71699"><ele>124.0</ele><time>2026-03-22T14:45:53.452Z</time></trkpt><trkpt lat="40.4634683" lon="16.7167867"><ele>124.0</ele><time>2026-03-22T14:45:54.454Z</time></trkpt><trkpt lat="40.463535" lon="16.7165817"><ele>125.33333333333334</ele><time>2026-03-22T14:45:55.452Z</time></trkpt><trkpt lat="40.4635983" lon="16.7163783"><ele>126.66666666666666</ele><time>2026-03-22T14:45:56.452Z</time></trkpt><trkpt lat="40.463655" lon="16.7161733"><ele>128.0</ele><time>2026-03-22T14:45:57.451Z</time></trkpt><trkpt lat="40.4636933" lon="16.7159667"><ele>128.0</ele><time>2026-03-22T14:45:58.454Z</time></trkpt><trkpt lat="40.4636983" lon="16.715755"><ele>128.0</ele><time>2026-03-22T14:45:59.451Z</time></trkpt><trkpt lat="40.4636783" lon="16.715535"><ele>128.0</ele><time>2026-03-22T14:46:00.459Z</time></trkpt><trkpt lat="40.4636483" lon="16.7153083"><ele>128.0</ele><time>2026-03-22T14:46:01.451Z</time></trkpt><trkpt lat="40.4636233" lon="16.7150817"><ele>128.0</ele><time>2026-03-22T14:46:02.452Z</time></trkpt><trkpt lat="40.4635983" lon="16.7148567"><ele>128.0</ele><time>2026-03-22T14:46:03.452Z</time></trkpt><trkpt lat="40.46357" lon="16.714635"><ele>128.0</ele><time>2026-03-22T14:46:04.451Z</time></trkpt><trkpt lat="40.4635383" lon="16.7144183"><ele>128.0</ele><time>2026-03-22T14:46:05.451Z</time></trkpt><trkpt lat="40.463495" lon="16.7142033"><ele>128.0</ele><time>2026-03-22T14:46:06.452Z</time></trkpt><trkpt lat="40.46344" lon="16.7139917"><ele>128.33333333333331</ele><time>2026-03-22T14:46:07.451Z</time></trkpt><trkpt lat="40.4633783" lon="16.71378"><ele>128.66666666666666</ele><time>2026-03-22T14:46:08.452Z</time></trkpt><trkpt lat="40.463315" lon="16.7135667"><ele>129.0</ele><time>2026-03-22T14:46:09.451Z</time></trkpt><trkpt lat="40.46325" lon="16.71335"><ele>129.33333333333334</ele><time>2026-03-22T14:46:10.451Z</time></trkpt><trkpt lat="40.4631883" lon="16.7131317"><ele>129.66666666666669</ele><time>2026-03-22T14:46:11.451Z</time></trkpt><trkpt lat="40.4631267" lon="16.7129117"><ele>130.0</ele><time>2026-03-22T14:46:12.453Z</time></trkpt><trkpt lat="40.463065" lon="16.7126917"><ele>130.33333333333334</ele><time>2026-03-22T14:46:13.452Z</time></trkpt><trkpt lat="40.4630017" lon="16.71247"><ele>130.66666666666666</ele><time>2026-03-22T14:46:14.452Z</time></trkpt><trkpt lat="40.4629367" lon="16.7122517"><ele>131.0</ele><time>2026-03-22T14:46:15.451Z</time></trkpt><trkpt lat="40.4628726" lon="16.712038"><ele>131.66666666666666</ele><time>2026-03-22T14:46:16.452Z</time></trkpt><trkpt lat="40.4628091" lon="16.7118286"><ele>132.33333333333334</ele><time>2026-03-22T14:46:17.453Z</time></trkpt><trkpt lat="40.4627488" lon="16.7116239"><ele>133.0</ele><time>2026-03-22T14:46:18.451Z</time></trkpt><trkpt lat="40.4626905" lon="16.7114237"><ele>133.0</ele><time>2026-03-22T14:46:19.451Z</time></trkpt><trkpt lat="40.4626255" lon="16.711232"><ele>133.0</ele><time>2026-03-22T14:46:20.451Z</time></trkpt><trkpt lat="40.4625372" lon="16.7110539"><ele>133.0</ele><time>2026-03-22T14:46:21.453Z</time></trkpt><trkpt lat="40.4624262" lon="16.7108873"><ele>133.0</ele><time>2026-03-22T14:46:22.451Z</time></trkpt><trkpt lat="40.4623011" lon="16.710721"><ele>133.0</ele><time>2026-03-22T14:46:23.451Z</time></trkpt><trkpt lat="40.4621746" lon="16.7105494"><ele>133.0</ele><time>2026-03-22T14:46:24.451Z</time></trkpt><trkpt lat="40.4620474" lon="16.7103746"><ele>133.0</ele><time>2026-03-22T14:46:25.451Z</time></trkpt><trkpt lat="40.4619206" lon="16.7101971"><ele>133.0</ele><time>2026-03-22T14:46:26.453Z</time></trkpt><trkpt lat="40.4617952" lon="16.7100203"><ele>133.0</ele><time>2026-03-22T14:46:27.453Z</time></trkpt><trkpt lat="40.4616702" lon="16.709845"><ele>133.0</ele><time>2026-03-22T14:46:28.451Z</time></trkpt><trkpt lat="40.4615447" lon="16.7096756"><ele>133.0</ele><time>2026-03-22T14:46:29.452Z</time></trkpt><trkpt lat="40.4614252" lon="16.7095132"><ele>133.0</ele><time>2026-03-22T14:46:30.451Z</time></trkpt><trkpt lat="40.4613132" lon="16.7093525"><ele>133.33333333333334</ele><time>2026-03-22T14:46:31.451Z</time></trkpt><trkpt lat="40.4612145" lon="16.7091787"><ele>133.66666666666666</ele><time>2026-03-22T14:46:32.453Z</time></trkpt><trkpt lat="40.4611392" lon="16.7089853"><ele>134.0</ele><time>2026-03-22T14:46:33.452Z</time></trkpt><trkpt lat="40.4610926" lon="16.7087705"><ele>135.0</ele><time>2026-03-22T14:46:34.452Z</time></trkpt><trkpt lat="40.4610712" lon="16.7085399"><ele>136.0</ele><time>2026-03-22T14:46:35.452Z</time></trkpt><trkpt lat="40.4610681" lon="16.7082988"><ele>137.0</ele><time>2026-03-22T14:46:36.451Z</time></trkpt><trkpt lat="40.4610724" lon="16.7080507"><ele>137.0</ele><time>2026-03-22T14:46:37.451Z</time></trkpt><trkpt lat="40.4610754" lon="16.7078022"><ele>137.0</ele><time>2026-03-22T14:46:38.452Z</time></trkpt><trkpt lat="40.4610773" lon="16.7075519"><ele>137.0</ele><time>2026-03-22T14:46:39.451Z</time></trkpt><trkpt lat="40.4610783" lon="16.7073014"><ele>137.0</ele><time>2026-03-22T14:46:40.451Z</time></trkpt><trkpt lat="40.4610783" lon="16.7070535"><ele>137.0</ele><time>2026-03-22T14:46:41.452Z</time></trkpt><trkpt lat="40.4610742" lon="16.7068044"><ele>137.0</ele><time>2026-03-22T14:46:42.452Z</time></trkpt><trkpt lat="40.4610707" lon="16.7065577"><ele>136.33333333333331</ele><time>2026-03-22T14:46:43.451Z</time></trkpt><trkpt lat="40.4610714" lon="16.7063158"><ele>135.66666666666666</ele><time>2026-03-22T14:46:44.452Z</time></trkpt><trkpt lat="40.4610717" lon="16.706079"><ele>135.0</ele><time>2026-03-22T14:46:45.451Z</time></trkpt><trkpt lat="40.4610694" lon="16.7058468"><ele>136.33333333333334</ele><time>2026-03-22T14:46:46.451Z</time></trkpt><trkpt lat="40.4610656" lon="16.7056187"><ele>137.66666666666669</ele><time>2026-03-22T14:46:47.451Z</time></trkpt><trkpt lat="40.4610611" lon="16.7053921"><ele>139.0</ele><time>2026-03-22T14:46:48.451Z</time></trkpt><trkpt lat="40.4610606" lon="16.7051675"><ele>139.33333333333334</ele><time>2026-03-22T14:46:49.452Z</time></trkpt><trkpt lat="40.4610639" lon="16.7049443"><ele>139.66666666666666</ele><time>2026-03-22T14:46:50.452Z</time></trkpt><trkpt lat="40.4610665" lon="16.704721"><ele>140.0</ele><time>2026-03-22T14:46:51.451Z</time></trkpt><trkpt lat="40.4610654" lon="16.7044947"><ele>140.33333333333331</ele><time>2026-03-22T14:46:52.451Z</time></trkpt><trkpt lat="40.4610632" lon="16.7042652"><ele>140.66666666666666</ele><time>2026-03-22T14:46:53.451Z</time></trkpt><trkpt lat="40.4610624" lon="16.7040333"><ele>141.0</ele><time>2026-03-22T14:46:54.451Z</time></trkpt><trkpt lat="40.461061" lon="16.7037986"><ele>141.66666666666666</ele><time>2026-03-22T14:46:55.453Z</time></trkpt><trkpt lat="40.4610594" lon="16.7035633"><ele>142.33333333333331</ele><time>2026-03-22T14:46:56.453Z</time></trkpt><trkpt lat="40.4610577" lon="16.7033268"><ele>143.0</ele><time>2026-03-22T14:46:57.451Z</time></trkpt><trkpt lat="40.4610561" lon="16.7030899"><ele>143.0</ele><time>2026-03-22T14:46:58.451Z</time></trkpt><trkpt lat="40.4610557" lon="16.7028519"><ele>143.0</ele><time>2026-03-22T14:46:59.451Z</time></trkpt><trkpt lat="40.4610556" lon="16.7026161"><ele>143.0</ele><time>2026-03-22T14:47:00.45Z</time></trkpt><trkpt lat="40.4610534" lon="16.7023853"><ele>142.66666666666666</ele><time>2026-03-22T14:47:01.451Z</time></trkpt><trkpt lat="40.4610499" lon="16.7021632"><ele>142.33333333333334</ele><time>2026-03-22T14:47:02.451Z</time></trkpt><trkpt lat="40.4610436" lon="16.7019491"><ele>142.0</ele><time>2026-03-22T14:47:03.452Z</time></trkpt><trkpt lat="40.4610354" lon="16.701741"><ele>142.75</ele><time>2026-03-22T14:47:04.452Z</time></trkpt><trkpt lat="40.4610298" lon="16.7015424"><ele>143.5</ele><time>2026-03-22T14:47:05.451Z</time></trkpt><trkpt lat="40.4610278" lon="16.7013509"><ele>144.25</ele><time>2026-03-22T14:47:06.451Z</time></trkpt><trkpt lat="40.461025" lon="16.7011629"><ele>145.0</ele><time>2026-03-22T14:47:07.452Z</time></trkpt><trkpt lat="40.4610146" lon="16.6997508"><ele>145.5</ele><time>2026-03-22T14:47:14.452Z</time></trkpt><trkpt lat="40.4610141" lon="16.6995386"><ele>146.0</ele><time>2026-03-22T14:47:15.452Z</time></trkpt><trkpt lat="40.4610142" lon="16.699112"><ele>146.66666666666666</ele><time>2026-03-22T14:47:17.453Z</time></trkpt><trkpt lat="40.4610141" lon="16.6988997"><ele>147.33333333333334</ele><time>2026-03-22T14:47:18.451Z</time></trkpt><trkpt lat="40.461014" lon="16.6986895"><ele>148.0</ele><time>2026-03-22T14:47:19.45Z</time></trkpt><trkpt lat="40.461014" lon="16.6984837"><ele>149.5</ele><time>2026-03-22T14:47:20.451Z</time></trkpt><trkpt lat="40.4610126" lon="16.6982778"><ele>151.0</ele><time>2026-03-22T14:47:21.451Z</time></trkpt><trkpt lat="40.4610059" lon="16.697874"><ele>151.0</ele><time>2026-03-22T14:47:23.454Z</time></trkpt><trkpt lat="40.4610067" lon="16.6976767"><ele>151.0</ele><time>2026-03-22T14:47:24.451Z</time></trkpt><trkpt lat="40.46103" lon="16.6972883"><ele>151.0</ele><time>2026-03-22T14:47:26.452Z</time></trkpt><trkpt lat="40.46107" lon="16.697105"><ele>151.0</ele><time>2026-03-22T14:47:27.451Z</time></trkpt><trkpt lat="40.4611317" lon="16.6969283"><ele>151.0</ele><time>2026-03-22T14:47:28.451Z</time></trkpt><trkpt lat="40.4612083" lon="16.696755"><ele>151.0</ele><time>2026-03-22T14:47:29.452Z</time></trkpt><trkpt lat="40.4612933" lon="16.696585"><ele>151.0</ele><time>2026-03-22T14:47:30.452Z</time></trkpt><trkpt lat="40.4613817" lon="16.6964117"><ele>151.0</ele><time>2026-03-22T14:47:31.452Z</time></trkpt><trkpt lat="40.46147" lon="16.6962333"><ele>151.0</ele><time>2026-03-22T14:47:32.452Z</time></trkpt><trkpt lat="40.4615617" lon="16.69605"><ele>151.66666666666669</ele><time>2026-03-22T14:47:33.451Z</time></trkpt><trkpt lat="40.4616533" lon="16.695865"><ele>152.33333333333334</ele><time>2026-03-22T14:47:34.451Z</time></trkpt><trkpt lat="40.4617433" lon="16.69568"><ele>153.0</ele><time>2026-03-22T14:47:35.451Z</time></trkpt><trkpt lat="40.46183" lon="16.695505"><ele>153.0</ele><time>2026-03-22T14:47:36.452Z</time></trkpt><trkpt lat="40.4619133" lon="16.6953417"><ele>153.0</ele><time>2026-03-22T14:47:37.451Z</time></trkpt><trkpt lat="40.461995" lon="16.695185"><ele>153.0</ele><time>2026-03-22T14:47:38.452Z</time></trkpt><trkpt lat="40.46208" lon="16.6950367"><ele>153.0</ele><time>2026-03-22T14:47:39.451Z</time></trkpt><trkpt lat="40.4621867" lon="16.6949017"><ele>155.0</ele><time>2026-03-22T14:47:40.45Z</time></trkpt><trkpt lat="40.4623133" lon="16.6947883"><ele>157.0</ele><time>2026-03-22T14:47:41.451Z</time></trkpt><trkpt lat="40.4624517" lon="16.69469"><ele>159.0</ele><time>2026-03-22T14:47:42.453Z</time></trkpt><trkpt lat="40.4625983" lon="16.6945983"><ele>159.0</ele><time>2026-03-22T14:47:43.452Z</time></trkpt><trkpt lat="40.4627383" lon="16.6945083"><ele>159.0</ele><time>2026-03-22T14:47:44.452Z</time></trkpt><trkpt lat="40.462865" lon="16.6944283"><ele>159.0</ele><time>2026-03-22T14:47:45.451Z</time></trkpt><trkpt lat="40.4629717" lon="16.6943683"><ele>159.0</ele><time>2026-03-22T14:47:46.451Z</time></trkpt><trkpt lat="40.463055" lon="16.6943283"><ele>159.16666666666666</ele><time>2026-03-22T14:47:47.452Z</time></trkpt><trkpt lat="40.463125" lon="16.6943167"><ele>159.33333333333334</ele><time>2026-03-22T14:47:48.451Z</time></trkpt><trkpt lat="40.4632233" lon="16.6943967"><ele>159.5</ele><time>2026-03-22T14:47:50.452Z</time></trkpt><trkpt lat="40.4632633" lon="16.69447"><ele>159.66666666666669</ele><time>2026-03-22T14:47:51.451Z</time></trkpt><trkpt lat="40.4633067" lon="16.69457"><ele>159.83333333333334</ele><time>2026-03-22T14:47:52.452Z</time></trkpt><trkpt lat="40.4633567" lon="16.6946883"><ele>160.0</ele><time>2026-03-22T14:47:53.451Z</time></trkpt><trkpt lat="40.4634167" lon="16.6948017"><ele>160.0</ele><time>2026-03-22T14:47:54.451Z</time></trkpt><trkpt lat="40.4634983" lon="16.6949017"><ele>160.0</ele><time>2026-03-22T14:47:55.452Z</time></trkpt><trkpt lat="40.4636067" lon="16.6949833"><ele>160.0</ele><time>2026-03-22T14:47:56.452Z</time></trkpt><trkpt lat="40.4637367" lon="16.6950367"><ele>160.0</ele><time>2026-03-22T14:47:57.451Z</time></trkpt><trkpt lat="40.4638733" lon="16.695075"><ele>161.0</ele><time>2026-03-22T14:47:58.451Z</time></trkpt><trkpt lat="40.4640167" lon="16.695105"><ele>162.0</ele><time>2026-03-22T14:47:59.451Z</time></trkpt><trkpt lat="40.4641633" lon="16.6951283"><ele>163.0</ele><time>2026-03-22T14:48:00.45Z</time></trkpt><trkpt lat="40.4643083" lon="16.6951533"><ele>164.0</ele><time>2026-03-22T14:48:01.452Z</time></trkpt><trkpt lat="40.4644467" lon="16.6951733"><ele>164.0</ele><time>2026-03-22T14:48:02.452Z</time></trkpt><trkpt lat="40.46458" lon="16.6951783"><ele>164.0</ele><time>2026-03-22T14:48:03.451Z</time></trkpt><trkpt lat="40.4647167" lon="16.69515"><ele>164.0</ele><time>2026-03-22T14:48:04.452Z</time></trkpt><trkpt lat="40.4648567" lon="16.6950833"><ele>164.0</ele><time>2026-03-22T14:48:05.453Z</time></trkpt><trkpt lat="40.4649933" lon="16.69499"><ele>164.66666666666666</ele><time>2026-03-22T14:48:06.451Z</time></trkpt><trkpt lat="40.4651267" lon="16.6948817"><ele>165.33333333333334</ele><time>2026-03-22T14:48:07.451Z</time></trkpt><trkpt lat="40.4652583" lon="16.6947683"><ele>166.0</ele><time>2026-03-22T14:48:08.452Z</time></trkpt><trkpt lat="40.465385" lon="16.6946467"><ele>166.33333333333334</ele><time>2026-03-22T14:48:09.451Z</time></trkpt><trkpt lat="40.4655033" lon="16.6945167"><ele>166.66666666666666</ele><time>2026-03-22T14:48:10.451Z</time></trkpt><trkpt lat="40.4656167" lon="16.694375"><ele>167.0</ele><time>2026-03-22T14:48:11.452Z</time></trkpt><trkpt lat="40.4657317" lon="16.6942283"><ele>167.33333333333331</ele><time>2026-03-22T14:48:12.451Z</time></trkpt><trkpt lat="40.4658517" lon="16.69409"><ele>167.66666666666666</ele><time>2026-03-22T14:48:13.451Z</time></trkpt><trkpt lat="40.465985" lon="16.693965"><ele>168.0</ele><time>2026-03-22T14:48:14.452Z</time></trkpt><trkpt lat="40.4661317" lon="16.6938517"><ele>168.33333333333334</ele><time>2026-03-22T14:48:15.454Z</time></trkpt><trkpt lat="40.46629" lon="16.6937483"><ele>168.66666666666669</ele><time>2026-03-22T14:48:16.451Z</time></trkpt><trkpt lat="40.466455" lon="16.6936517"><ele>169.0</ele><time>2026-03-22T14:48:17.451Z</time></trkpt><trkpt lat="40.466625" lon="16.6935583"><ele>169.0</ele><time>2026-03-22T14:48:18.451Z</time></trkpt><trkpt lat="40.4667967" lon="16.693465"><ele>169.0</ele><time>2026-03-22T14:48:19.451Z</time></trkpt><trkpt lat="40.46697" lon="16.6933717"><ele>169.0</ele><time>2026-03-22T14:48:20.451Z</time></trkpt><trkpt lat="40.4671433" lon="16.6932783"><ele>169.0</ele><time>2026-03-22T14:48:21.452Z</time></trkpt><trkpt lat="40.467315" lon="16.6931817"><ele>169.0</ele><time>2026-03-22T14:48:22.452Z</time></trkpt><trkpt lat="40.4674833" lon="16.693085"><ele>169.0</ele><time>2026-03-22T14:48:23.451Z</time></trkpt><trkpt lat="40.4676517" lon="16.6929783"><ele>169.0</ele><time>2026-03-22T14:48:24.451Z</time></trkpt><trkpt lat="40.4678133" lon="16.692865"><ele>169.0</ele><time>2026-03-22T14:48:25.451Z</time></trkpt><trkpt lat="40.4679733" lon="16.6927367"><ele>169.0</ele><time>2026-03-22T14:48:26.452Z</time></trkpt><trkpt lat="40.46813" lon="16.692605"><ele>169.33333333333334</ele><time>2026-03-22T14:48:27.451Z</time></trkpt><trkpt lat="40.4682867" lon="16.6924733"><ele>169.66666666666666</ele><time>2026-03-22T14:48:28.451Z</time></trkpt><trkpt lat="40.468445" lon="16.69234"><ele>170.0</ele><time>2026-03-22T14:48:29.451Z</time></trkpt><trkpt lat="40.468605" lon="16.692205"><ele>170.0</ele><time>2026-03-22T14:48:30.452Z</time></trkpt><trkpt lat="40.4687617" lon="16.6920733"><ele>170.0</ele><time>2026-03-22T14:48:31.454Z</time></trkpt><trkpt lat="40.4689183" lon="16.69194"><ele>170.0</ele><time>2026-03-22T14:48:32.452Z</time></trkpt><trkpt lat="40.4690717" lon="16.6918033"><ele>169.66666666666666</ele><time>2026-03-22T14:48:33.451Z</time></trkpt><trkpt lat="40.469225" lon="16.6916667"><ele>169.33333333333334</ele><time>2026-03-22T14:48:34.451Z</time></trkpt><trkpt lat="40.4693783" lon="16.6915283"><ele>169.0</ele><time>2026-03-22T14:48:35.451Z</time></trkpt><trkpt lat="40.46953" lon="16.691395"><ele>169.33333333333334</ele><time>2026-03-22T14:48:36.453Z</time></trkpt><trkpt lat="40.46968" lon="16.69126"><ele>169.66666666666666</ele><time>2026-03-22T14:48:37.453Z</time></trkpt><trkpt lat="40.4698267" lon="16.6911267"><ele>170.0</ele><time>2026-03-22T14:48:38.452Z</time></trkpt><trkpt lat="40.4699683" lon="16.6909983"><ele>170.33333333333331</ele><time>2026-03-22T14:48:39.451Z</time></trkpt><trkpt lat="40.4701083" lon="16.6908667"><ele>170.66666666666666</ele><time>2026-03-22T14:48:40.45Z</time></trkpt><trkpt lat="40.4702533" lon="16.690735"><ele>171.0</ele><time>2026-03-22T14:48:41.451Z</time></trkpt><trkpt lat="40.4704" lon="16.690605"><ele>171.0</ele><time>2026-03-22T14:48:42.452Z</time></trkpt><trkpt lat="40.4705483" lon="16.6904733"><ele>171.0</ele><time>2026-03-22T14:48:43.451Z</time></trkpt><trkpt lat="40.4706967" lon="16.6903383"><ele>171.0</ele><time>2026-03-22T14:48:44.452Z</time></trkpt><trkpt lat="40.470845" lon="16.6902033"><ele>171.33333333333334</ele><time>2026-03-22T14:48:45.453Z</time></trkpt><trkpt lat="40.4709983" lon="16.6900667"><ele>171.66666666666669</ele><time>2026-03-22T14:48:46.452Z</time></trkpt><trkpt lat="40.4711533" lon="16.689935"><ele>172.0</ele><time>2026-03-22T14:48:47.451Z</time></trkpt><trkpt lat="40.4713067" lon="16.6897983"><ele>172.0</ele><time>2026-03-22T14:48:48.451Z</time></trkpt><trkpt lat="40.4714617" lon="16.6896617"><ele>172.0</ele><time>2026-03-22T14:48:49.451Z</time></trkpt><trkpt lat="40.4716233" lon="16.6895317"><ele>172.0</ele><time>2026-03-22T14:48:50.452Z</time></trkpt><trkpt lat="40.47179" lon="16.68942"><ele>172.66666666666669</ele><time>2026-03-22T14:48:51.451Z</time></trkpt><trkpt lat="40.4719617" lon="16.6893233"><ele>173.33333333333334</ele><time>2026-03-22T14:48:52.451Z</time></trkpt><trkpt lat="40.4721367" lon="16.6892317"><ele>174.0</ele><time>2026-03-22T14:48:53.452Z</time></trkpt><trkpt lat="40.47231" lon="16.6891417"><ele>174.0</ele><time>2026-03-22T14:48:54.452Z</time></trkpt><trkpt lat="40.4724833" lon="16.6890533"><ele>174.0</ele><time>2026-03-22T14:48:55.451Z</time></trkpt><trkpt lat="40.47266" lon="16.6889617"><ele>174.0</ele><time>2026-03-22T14:48:56.453Z</time></trkpt><trkpt lat="40.472835" lon="16.6888717"><ele>174.0</ele><time>2026-03-22T14:48:57.451Z</time></trkpt><trkpt lat="40.47301" lon="16.6887833"><ele>174.0</ele><time>2026-03-22T14:48:58.451Z</time></trkpt><trkpt lat="40.4731833" lon="16.6886933"><ele>174.0</ele><time>2026-03-22T14:48:59.452Z</time></trkpt><trkpt lat="40.47336" lon="16.6886033"><ele>174.33333333333334</ele><time>2026-03-22T14:49:00.451Z</time></trkpt><trkpt lat="40.473535" lon="16.688515"><ele>174.66666666666669</ele><time>2026-03-22T14:49:01.451Z</time></trkpt><trkpt lat="40.4737117" lon="16.688425"><ele>175.0</ele><time>2026-03-22T14:49:02.452Z</time></trkpt><trkpt lat="40.4738883" lon="16.6883333"><ele>175.0</ele><time>2026-03-22T14:49:03.451Z</time></trkpt><trkpt lat="40.474065" lon="16.68824"><ele>175.0</ele><time>2026-03-22T14:49:04.453Z</time></trkpt><trkpt lat="40.4742383" lon="16.6881467"><ele>175.0</ele><time>2026-03-22T14:49:05.451Z</time></trkpt><trkpt lat="40.47441" lon="16.68805"><ele>175.0</ele><time>2026-03-22T14:49:06.451Z</time></trkpt><trkpt lat="40.4745817" lon="16.6879533"><ele>175.0</ele><time>2026-03-22T14:49:07.452Z</time></trkpt><trkpt lat="40.47475" lon="16.6878533"><ele>175.0</ele><time>2026-03-22T14:49:08.452Z</time></trkpt><trkpt lat="40.474915" lon="16.6877483"><ele>175.33333333333334</ele><time>2026-03-22T14:49:09.451Z</time></trkpt><trkpt lat="40.47508" lon="16.6876417"><ele>175.66666666666666</ele><time>2026-03-22T14:49:10.451Z</time></trkpt><trkpt lat="40.475245" lon="16.6875317"><ele>176.0</ele><time>2026-03-22T14:49:11.451Z</time></trkpt><trkpt lat="40.4754067" lon="16.6874167"><ele>176.33333333333331</ele><time>2026-03-22T14:49:12.451Z</time></trkpt><trkpt lat="40.47557" lon="16.6873017"><ele>176.66666666666666</ele><time>2026-03-22T14:49:13.452Z</time></trkpt><trkpt lat="40.4757317" lon="16.687185"><ele>177.0</ele><time>2026-03-22T14:49:14.452Z</time></trkpt><trkpt lat="40.475895" lon="16.687065"><ele>177.0</ele><time>2026-03-22T14:49:15.451Z</time></trkpt><trkpt lat="40.4760567" lon="16.68694"><ele>177.0</ele><time>2026-03-22T14:49:16.451Z</time></trkpt><trkpt lat="40.476215" lon="16.68681"><ele>177.0</ele><time>2026-03-22T14:49:17.451Z</time></trkpt><trkpt lat="40.4763717" lon="16.68667"><ele>177.66666666666666</ele><time>2026-03-22T14:49:18.451Z</time></trkpt><trkpt lat="40.4765267" lon="16.6865267"><ele>178.33333333333331</ele><time>2026-03-22T14:49:19.451Z</time></trkpt><trkpt lat="40.4766817" lon="16.6863817"><ele>179.0</ele><time>2026-03-22T14:49:20.451Z</time></trkpt><trkpt lat="40.476835" lon="16.6862367"><ele>179.0</ele><time>2026-03-22T14:49:21.452Z</time></trkpt><trkpt lat="40.476985" lon="16.6860867"><ele>179.0</ele><time>2026-03-22T14:49:22.451Z</time></trkpt><trkpt lat="40.4771367" lon="16.6859383"><ele>179.0</ele><time>2026-03-22T14:49:23.451Z</time></trkpt><trkpt lat="40.477285" lon="16.685795"><ele>179.33333333333331</ele><time>2026-03-22T14:49:24.451Z</time></trkpt><trkpt lat="40.477435" lon="16.6856533"><ele>179.66666666666666</ele><time>2026-03-22T14:49:25.451Z</time></trkpt><trkpt lat="40.477585" lon="16.6855083"><ele>180.0</ele><time>2026-03-22T14:49:26.452Z</time></trkpt><trkpt lat="40.477735" lon="16.6853617"><ele>180.0</ele><time>2026-03-22T14:49:27.451Z</time></trkpt><trkpt lat="40.4778867" lon="16.6852083"><ele>180.0</ele><time>2026-03-22T14:49:28.454Z</time></trkpt><trkpt lat="40.47804" lon="16.6850633"><ele>180.0</ele><time>2026-03-22T14:49:29.452Z</time></trkpt><trkpt lat="40.4781933" lon="16.684925"><ele>179.66666666666666</ele><time>2026-03-22T14:49:30.452Z</time></trkpt><trkpt lat="40.4783483" lon="16.6847883"><ele>179.33333333333331</ele><time>2026-03-22T14:49:31.451Z</time></trkpt><trkpt lat="40.4785017" lon="16.6846567"><ele>179.0</ele><time>2026-03-22T14:49:32.452Z</time></trkpt><trkpt lat="40.47866" lon="16.684535"><ele>180.0</ele><time>2026-03-22T14:49:33.451Z</time></trkpt><trkpt lat="40.4788217" lon="16.6844267"><ele>181.0</ele><time>2026-03-22T14:49:34.452Z</time></trkpt><trkpt lat="40.4789883" lon="16.6843417"><ele>182.0</ele><time>2026-03-22T14:49:35.452Z</time></trkpt><trkpt lat="40.47916" lon="16.6842817"><ele>182.0</ele><time>2026-03-22T14:49:36.451Z</time></trkpt><trkpt lat="40.4793367" lon="16.6842433"><ele>182.0</ele><time>2026-03-22T14:49:37.451Z</time></trkpt><trkpt lat="40.4795117" lon="16.6842217"><ele>182.0</ele><time>2026-03-22T14:49:38.452Z</time></trkpt><trkpt lat="40.4796883" lon="16.684215"><ele>182.33333333333331</ele><time>2026-03-22T14:49:39.452Z</time></trkpt><trkpt lat="40.4798633" lon="16.684215"><ele>182.66666666666666</ele><time>2026-03-22T14:49:40.452Z</time></trkpt><trkpt lat="40.4800367" lon="16.6842183"><ele>183.0</ele><time>2026-03-22T14:49:41.451Z</time></trkpt><trkpt lat="40.4802033" lon="16.6842233"><ele>183.0</ele><time>2026-03-22T14:49:42.451Z</time></trkpt><trkpt lat="40.4803667" lon="16.684225"><ele>183.0</ele><time>2026-03-22T14:49:43.451Z</time></trkpt><trkpt lat="40.4805267" lon="16.6842"><ele>183.0</ele><time>2026-03-22T14:49:44.452Z</time></trkpt><trkpt lat="40.4806883" lon="16.684145"><ele>183.66666666666666</ele><time>2026-03-22T14:49:45.451Z</time></trkpt><trkpt lat="40.48085" lon="16.6840717"><ele>184.33333333333331</ele><time>2026-03-22T14:49:46.451Z</time></trkpt><trkpt lat="40.4810117" lon="16.6839817"><ele>185.0</ele><time>2026-03-22T14:49:47.452Z</time></trkpt><trkpt lat="40.4811717" lon="16.6838867"><ele>185.0</ele><time>2026-03-22T14:49:48.451Z</time></trkpt><trkpt lat="40.481325" lon="16.683795"><ele>185.0</ele><time>2026-03-22T14:49:49.452Z</time></trkpt><trkpt lat="40.48147" lon="16.6836967"><ele>185.0</ele><time>2026-03-22T14:49:50.452Z</time></trkpt><trkpt lat="40.4816" lon="16.6835783"><ele>185.0</ele><time>2026-03-22T14:49:51.451Z</time></trkpt><trkpt lat="40.48171" lon="16.68344"><ele>185.0</ele><time>2026-03-22T14:49:52.451Z</time></trkpt><trkpt lat="40.4817983" lon="16.683285"><ele>185.0</ele><time>2026-03-22T14:49:53.452Z</time></trkpt><trkpt lat="40.48187" lon="16.6831217"><ele>185.0</ele><time>2026-03-22T14:49:54.451Z</time></trkpt><trkpt lat="40.4819267" lon="16.6829517"><ele>185.0</ele><time>2026-03-22T14:49:55.451Z</time></trkpt><trkpt lat="40.4819833" lon="16.6827917"><ele>185.0</ele><time>2026-03-22T14:49:56.451Z</time></trkpt><trkpt lat="40.4820383" lon="16.6826483"><ele>185.0</ele><time>2026-03-22T14:49:57.451Z</time></trkpt><trkpt lat="40.4820967" lon="16.6825233"><ele>185.0</ele><time>2026-03-22T14:49:58.452Z</time></trkpt><trkpt lat="40.4821683" lon="16.6824317"><ele>182.4</ele><time>2026-03-22T14:49:59.451Z</time></trkpt><trkpt lat="40.48225" lon="16.6824033"><ele>179.8</ele><time>2026-03-22T14:50:00.451Z</time></trkpt><trkpt lat="40.4823367" lon="16.6824133"><ele>177.2</ele><time>2026-03-22T14:50:01.451Z</time></trkpt><trkpt lat="40.4824183" lon="16.6824767"><ele>174.6</ele><time>2026-03-22T14:50:02.452Z</time></trkpt><trkpt lat="40.4825" lon="16.682555"><ele>172.0</ele><time>2026-03-22T14:50:03.451Z</time></trkpt><trkpt lat="40.4825817" lon="16.68258"><ele>172.0</ele><time>2026-03-22T14:50:04.451Z</time></trkpt><trkpt lat="40.48265" lon="16.6825583"><ele>172.0</ele><time>2026-03-22T14:50:05.452Z</time></trkpt><trkpt lat="40.482695" lon="16.6824533"><ele>172.0</ele><time>2026-03-22T14:50:06.455Z</time></trkpt><trkpt lat="40.4827083" lon="16.6823017"><ele>172.0</ele><time>2026-03-22T14:50:07.452Z</time></trkpt><trkpt lat="40.4827" lon="16.682135"><ele>172.0</ele><time>2026-03-22T14:50:08.456Z</time></trkpt><trkpt lat="40.482685" lon="16.68197"><ele>173.5</ele><time>2026-03-22T14:50:09.452Z</time></trkpt><trkpt lat="40.4826733" lon="16.6818067"><ele>175.0</ele><time>2026-03-22T14:50:10.453Z</time></trkpt><trkpt lat="40.4826633" lon="16.6816433"><ele>176.5</ele><time>2026-03-22T14:50:11.452Z</time></trkpt><trkpt lat="40.4826617" lon="16.68148"><ele>178.0</ele><time>2026-03-22T14:50:12.453Z</time></trkpt><trkpt lat="40.482675" lon="16.6813233"><ele>178.0</ele><time>2026-03-22T14:50:13.452Z</time></trkpt><trkpt lat="40.4827133" lon="16.68117"><ele>178.0</ele><time>2026-03-22T14:50:14.454Z</time></trkpt><trkpt lat="40.4827683" lon="16.6810133"><ele>178.0</ele><time>2026-03-22T14:50:15.452Z</time></trkpt><trkpt lat="40.4828283" lon="16.68085"><ele>178.0</ele><time>2026-03-22T14:50:16.456Z</time></trkpt><trkpt lat="40.48288" lon="16.6806833"><ele>179.75</ele><time>2026-03-22T14:50:17.452Z</time></trkpt><trkpt lat="40.482925" lon="16.6805117"><ele>181.5</ele><time>2026-03-22T14:50:18.452Z</time></trkpt><trkpt lat="40.48297" lon="16.680335"><ele>183.25</ele><time>2026-03-22T14:50:19.452Z</time></trkpt><trkpt lat="40.4830133" lon="16.6801583"><ele>185.0</ele><time>2026-03-22T14:50:20.453Z</time></trkpt><trkpt lat="40.4830517" lon="16.67998"><ele>179.0</ele><time>2026-03-22T14:50:21.452Z</time></trkpt><trkpt lat="40.48309" lon="16.6797983"><ele>173.0</ele><time>2026-03-22T14:50:22.452Z</time></trkpt><trkpt lat="40.483125" lon="16.679615"><ele>167.0</ele><time>2026-03-22T14:50:23.454Z</time></trkpt><trkpt lat="40.4831583" lon="16.6794333"><ele>161.0</ele><time>2026-03-22T14:50:24.452Z</time></trkpt><trkpt lat="40.4831883" lon="16.6792517"><ele>161.0</ele><time>2026-03-22T14:50:25.452Z</time></trkpt><trkpt lat="40.4832167" lon="16.6790717"><ele>161.0</ele><time>2026-03-22T14:50:26.452Z</time></trkpt><trkpt lat="40.4832433" lon="16.67889"><ele>161.0</ele><time>2026-03-22T14:50:27.452Z</time></trkpt><trkpt lat="40.4832667" lon="16.6787117"><ele>161.0</ele><time>2026-03-22T14:50:28.453Z</time></trkpt><trkpt lat="40.4832933" lon="16.6785383"><ele>162.0</ele><time>2026-03-22T14:50:29.453Z</time></trkpt><trkpt lat="40.48333" lon="16.67837"><ele>163.0</ele><time>2026-03-22T14:50:30.452Z</time></trkpt><trkpt lat="40.483385" lon="16.6782067"><ele>164.0</ele><time>2026-03-22T14:50:31.452Z</time></trkpt><trkpt lat="40.4834517" lon="16.6780433"><ele>165.0</ele><time>2026-03-22T14:50:32.453Z</time></trkpt><trkpt lat="40.48353" lon="16.67789"><ele>166.0</ele><time>2026-03-22T14:50:33.452Z</time></trkpt><trkpt lat="40.483615" lon="16.677745"><ele>167.0</ele><time>2026-03-22T14:50:34.452Z</time></trkpt><trkpt lat="40.4836933" lon="16.6776"><ele>168.0</ele><time>2026-03-22T14:50:35.452Z</time></trkpt><trkpt lat="40.4837583" lon="16.67744"><ele>169.0</ele><time>2026-03-22T14:50:36.452Z</time></trkpt><trkpt lat="40.4838033" lon="16.6772683"><ele>164.25</ele><time>2026-03-22T14:50:37.452Z</time></trkpt><trkpt lat="40.48384" lon="16.6770983"><ele>159.5</ele><time>2026-03-22T14:50:38.453Z</time></trkpt><trkpt lat="40.48389" lon="16.67694"><ele>154.75</ele><time>2026-03-22T14:50:39.451Z</time></trkpt><trkpt lat="40.483965" lon="16.67679"><ele>150.0</ele><time>2026-03-22T14:50:40.451Z</time></trkpt><trkpt lat="40.48407" lon="16.6766483"><ele>150.0</ele><time>2026-03-22T14:50:41.453Z</time></trkpt><trkpt lat="40.4841917" lon="16.6765133"><ele>150.0</ele><time>2026-03-22T14:50:42.453Z</time></trkpt><trkpt lat="40.4843183" lon="16.6763783"><ele>150.0</ele><time>2026-03-22T14:50:43.453Z</time></trkpt><trkpt lat="40.4844433" lon="16.6762467"><ele>150.0</ele><time>2026-03-22T14:50:44.453Z</time></trkpt><trkpt lat="40.48456" lon="16.6761167"><ele>150.0</ele><time>2026-03-22T14:50:45.452Z</time></trkpt><trkpt lat="40.4846633" lon="16.6759883"><ele>150.0</ele><time>2026-03-22T14:50:46.452Z</time></trkpt><trkpt lat="40.4847517" lon="16.6758517"><ele>150.0</ele><time>2026-03-22T14:50:47.452Z</time></trkpt><trkpt lat="40.48483" lon="16.67571"><ele>148.0</ele><time>2026-03-22T14:50:48.452Z</time></trkpt><trkpt lat="40.4849017" lon="16.6755883"><ele>146.0</ele><time>2026-03-22T14:50:49.453Z</time></trkpt><trkpt lat="40.48498" lon="16.6754967"><ele>144.0</ele><time>2026-03-22T14:50:50.453Z</time></trkpt><trkpt lat="40.4850817" lon="16.67544"><ele>142.0</ele><time>2026-03-22T14:50:51.453Z</time></trkpt><trkpt lat="40.4851983" lon="16.675435"><ele>140.0</ele><time>2026-03-22T14:50:52.452Z</time></trkpt><trkpt lat="40.4853217" lon="16.6754667"><ele>137.5</ele><time>2026-03-22T14:50:53.452Z</time></trkpt><trkpt lat="40.48544" lon="16.67553"><ele>135.0</ele><time>2026-03-22T14:50:54.452Z</time></trkpt><trkpt lat="40.4855583" lon="16.675585"><ele>132.5</ele><time>2026-03-22T14:50:55.452Z</time></trkpt><trkpt lat="40.48568" lon="16.6756067"><ele>130.0</ele><time>2026-03-22T14:50:56.453Z</time></trkpt><trkpt lat="40.4858017" lon="16.6755983"><ele>130.0</ele><time>2026-03-22T14:50:57.452Z</time></trkpt><trkpt lat="40.485915" lon="16.67556"><ele>130.0</ele><time>2026-03-22T14:50:58.453Z</time></trkpt><trkpt lat="40.48601" lon="16.6754917"><ele>130.0</ele><time>2026-03-22T14:50:59.452Z</time></trkpt><trkpt lat="40.4860733" lon="16.675395"><ele>130.0</ele><time>2026-03-22T14:51:00.451Z</time></trkpt><trkpt lat="40.48611" lon="16.6752717"><ele>130.0</ele><time>2026-03-22T14:51:01.453Z</time></trkpt><trkpt lat="40.48611" lon="16.6751383"><ele>131.4</ele><time>2026-03-22T14:51:02.453Z</time></trkpt><trkpt lat="40.486095" lon="16.6749983"><ele>132.8</ele><time>2026-03-22T14:51:03.452Z</time></trkpt><trkpt lat="40.4861033" lon="16.6748617"><ele>134.2</ele><time>2026-03-22T14:51:04.453Z</time></trkpt><trkpt lat="40.4861417" lon="16.6747233"><ele>135.6</ele><time>2026-03-22T14:51:05.452Z</time></trkpt><trkpt lat="40.486195" lon="16.674585"><ele>137.0</ele><time>2026-03-22T14:51:06.453Z</time></trkpt><trkpt lat="40.4862333" lon="16.6744333"><ele>137.25</ele><time>2026-03-22T14:51:07.453Z</time></trkpt><trkpt lat="40.4862567" lon="16.6742533"><ele>137.5</ele><time>2026-03-22T14:51:08.453Z</time></trkpt><trkpt lat="40.4862767" lon="16.6740583"><ele>137.75</ele><time>2026-03-22T14:51:09.452Z</time></trkpt><trkpt lat="40.4862917" lon="16.6738583"><ele>138.0</ele><time>2026-03-22T14:51:10.453Z</time></trkpt><trkpt lat="40.48631" lon="16.673655"><ele>133.25</ele><time>2026-03-22T14:51:11.452Z</time></trkpt><trkpt lat="40.4863317" lon="16.6734567"><ele>128.5</ele><time>2026-03-22T14:51:12.454Z</time></trkpt><trkpt lat="40.48635" lon="16.6732683"><ele>123.75</ele><time>2026-03-22T14:51:13.452Z</time></trkpt><trkpt lat="40.486365" lon="16.6730833"><ele>119.0</ele><time>2026-03-22T14:51:14.454Z</time></trkpt><trkpt lat="40.4863617" lon="16.672895"><ele>117.33333333333333</ele><time>2026-03-22T14:51:15.452Z</time></trkpt><trkpt lat="40.486335" lon="16.6727017"><ele>115.66666666666666</ele><time>2026-03-22T14:51:16.453Z</time></trkpt><trkpt lat="40.4862917" lon="16.6725117"><ele>114.0</ele><time>2026-03-22T14:51:17.452Z</time></trkpt><trkpt lat="40.486245" lon="16.67232"><ele>118.33333333333334</ele><time>2026-03-22T14:51:18.454Z</time></trkpt><trkpt lat="40.4861883" lon="16.6721333"><ele>122.66666666666667</ele><time>2026-03-22T14:51:19.453Z</time></trkpt><trkpt lat="40.4861283" lon="16.6719483"><ele>127.0</ele><time>2026-03-22T14:51:20.452Z</time></trkpt><trkpt lat="40.4860717" lon="16.6717617"><ele>127.0</ele><time>2026-03-22T14:51:21.452Z</time></trkpt><trkpt lat="40.4860133" lon="16.671575"><ele>127.0</ele><time>2026-03-22T14:51:22.453Z</time></trkpt><trkpt lat="40.4859583" lon="16.671385"><ele>127.0</ele><time>2026-03-22T14:51:23.452Z</time></trkpt><trkpt lat="40.4859017" lon="16.6711917"><ele>123.0</ele><time>2026-03-22T14:51:24.453Z</time></trkpt><trkpt lat="40.4858467" lon="16.671005"><ele>119.0</ele><time>2026-03-22T14:51:25.452Z</time></trkpt><trkpt lat="40.4857867" lon="16.6708133"><ele>115.0</ele><time>2026-03-22T14:51:26.453Z</time></trkpt><trkpt lat="40.4857233" lon="16.6706417"><ele>115.0</ele><time>2026-03-22T14:51:27.452Z</time></trkpt><trkpt lat="40.4856617" lon="16.670485"><ele>115.0</ele><time>2026-03-22T14:51:28.452Z</time></trkpt><trkpt lat="40.4856217" lon="16.6703083"><ele>115.0</ele><time>2026-03-22T14:51:29.454Z</time></trkpt><trkpt lat="40.4856" lon="16.670125"><ele>115.0</ele><time>2026-03-22T14:51:30.452Z</time></trkpt><trkpt lat="40.48559" lon="16.6699367"><ele>113.75</ele><time>2026-03-22T14:51:31.452Z</time></trkpt><trkpt lat="40.4855917" lon="16.66975"><ele>112.5</ele><time>2026-03-22T14:51:32.452Z</time></trkpt><trkpt lat="40.4855967" lon="16.6695683"><ele>111.25</ele><time>2026-03-22T14:51:33.452Z</time></trkpt><trkpt lat="40.4856167" lon="16.669385"><ele>110.0</ele><time>2026-03-22T14:51:34.452Z</time></trkpt><trkpt lat="40.48565" lon="16.6692"><ele>109.75</ele><time>2026-03-22T14:51:35.452Z</time></trkpt><trkpt lat="40.4856933" lon="16.66902"><ele>109.5</ele><time>2026-03-22T14:51:36.452Z</time></trkpt><trkpt lat="40.4857433" lon="16.66885"><ele>109.25</ele><time>2026-03-22T14:51:37.452Z</time></trkpt><trkpt lat="40.4858083" lon="16.668695"><ele>109.0</ele><time>2026-03-22T14:51:38.454Z</time></trkpt><trkpt lat="40.4859083" lon="16.6685667"><ele>110.33333333333334</ele><time>2026-03-22T14:51:39.451Z</time></trkpt><trkpt lat="40.4860333" lon="16.6684517"><ele>111.66666666666666</ele><time>2026-03-22T14:51:40.451Z</time></trkpt><trkpt lat="40.4861733" lon="16.6683483"><ele>113.0</ele><time>2026-03-22T14:51:41.452Z</time></trkpt><trkpt lat="40.4863183" lon="16.6682433"><ele>107.66666666666666</ele><time>2026-03-22T14:51:42.452Z</time></trkpt><trkpt lat="40.4864667" lon="16.6681383"><ele>102.33333333333334</ele><time>2026-03-22T14:51:43.453Z</time></trkpt><trkpt lat="40.4866167" lon="16.668035"><ele>97.0</ele><time>2026-03-22T14:51:44.453Z</time></trkpt><trkpt lat="40.4867617" lon="16.6679383"><ele>97.0</ele><time>2026-03-22T14:51:45.452Z</time></trkpt><trkpt lat="40.4869" lon="16.6678517"><ele>97.0</ele><time>2026-03-22T14:51:46.453Z</time></trkpt><trkpt lat="40.4870233" lon="16.6677667"><ele>97.0</ele><time>2026-03-22T14:51:47.453Z</time></trkpt><trkpt lat="40.48713" lon="16.6676817"><ele>97.0</ele><time>2026-03-22T14:51:48.452Z</time></trkpt><trkpt lat="40.48721" lon="16.6675933"><ele>95.0</ele><time>2026-03-22T14:51:49.452Z</time></trkpt><trkpt lat="40.48726" lon="16.6674817"><ele>93.0</ele><time>2026-03-22T14:51:50.453Z</time></trkpt><trkpt lat="40.4872983" lon="16.6673417"><ele>91.0</ele><time>2026-03-22T14:51:51.452Z</time></trkpt><trkpt lat="40.4873383" lon="16.6671883"><ele>89.0</ele><time>2026-03-22T14:51:52.452Z</time></trkpt><trkpt lat="40.48738" lon="16.6670433"><ele>89.5</ele><time>2026-03-22T14:51:53.452Z</time></trkpt><trkpt lat="40.4874283" lon="16.66691"><ele>90.0</ele><time>2026-03-22T14:51:54.452Z</time></trkpt><trkpt lat="40.4874967" lon="16.666785"><ele>90.5</ele><time>2026-03-22T14:51:55.453Z</time></trkpt><trkpt lat="40.48759" lon="16.666675"><ele>91.0</ele><time>2026-03-22T14:51:56.453Z</time></trkpt><trkpt lat="40.487705" lon="16.6665817"><ele>91.0</ele><time>2026-03-22T14:51:57.453Z</time></trkpt><trkpt lat="40.4878233" lon="16.66649"><ele>91.0</ele><time>2026-03-22T14:51:58.452Z</time></trkpt><trkpt lat="40.4879367" lon="16.666405"><ele>91.0</ele><time>2026-03-22T14:51:59.452Z</time></trkpt><trkpt lat="40.488035" lon="16.66632"><ele>91.0</ele><time>2026-03-22T14:52:00.453Z</time></trkpt><trkpt lat="40.4881217" lon="16.6662317"><ele>89.8</ele><time>2026-03-22T14:52:01.452Z</time></trkpt><trkpt lat="40.488185" lon="16.666125"><ele>88.6</ele><time>2026-03-22T14:52:02.453Z</time></trkpt><trkpt lat="40.48822" lon="16.6659967"><ele>87.4</ele><time>2026-03-22T14:52:03.454Z</time></trkpt><trkpt lat="40.4882383" lon="16.66586"><ele>86.2</ele><time>2026-03-22T14:52:04.453Z</time></trkpt><trkpt lat="40.4882617" lon="16.66573"><ele>85.0</ele><time>2026-03-22T14:52:05.452Z</time></trkpt><trkpt lat="40.48831" lon="16.66562"><ele>85.0</ele><time>2026-03-22T14:52:06.452Z</time></trkpt><trkpt lat="40.4883767" lon="16.6655483"><ele>85.0</ele><time>2026-03-22T14:52:07.452Z</time></trkpt><trkpt lat="40.488455" lon="16.6655183"><ele>85.0</ele><time>2026-03-22T14:52:08.453Z</time></trkpt><trkpt lat="40.488555" lon="16.6655383"><ele>85.0</ele><time>2026-03-22T14:52:09.452Z</time></trkpt><trkpt lat="40.48866" lon="16.6655817"><ele>85.0</ele><time>2026-03-22T14:52:10.452Z</time></trkpt><trkpt lat="40.48877" lon="16.6656217"><ele>82.4</ele><time>2026-03-22T14:52:11.452Z</time></trkpt><trkpt lat="40.488885" lon="16.6656483"><ele>79.8</ele><time>2026-03-22T14:52:12.452Z</time></trkpt><trkpt lat="40.48899" lon="16.6656483"><ele>77.2</ele><time>2026-03-22T14:52:13.453Z</time></trkpt><trkpt lat="40.48908" lon="16.6656167"><ele>74.6</ele><time>2026-03-22T14:52:14.454Z</time></trkpt><trkpt lat="40.4891483" lon="16.6655517"><ele>72.0</ele><time>2026-03-22T14:52:15.455Z</time></trkpt><trkpt lat="40.48919" lon="16.66545"><ele>72.0</ele><time>2026-03-22T14:52:16.452Z</time></trkpt><trkpt lat="40.4891983" lon="16.6653267"><ele>72.0</ele><time>2026-03-22T14:52:17.452Z</time></trkpt><trkpt lat="40.489195" lon="16.66519"><ele>72.0</ele><time>2026-03-22T14:52:18.453Z</time></trkpt><trkpt lat="40.4892117" lon="16.6650533"><ele>72.0</ele><time>2026-03-22T14:52:19.453Z</time></trkpt><trkpt lat="40.4892633" lon="16.664925"><ele>72.0</ele><time>2026-03-22T14:52:20.452Z</time></trkpt><trkpt lat="40.48933" lon="16.6648033"><ele>71.8</ele><time>2026-03-22T14:52:21.453Z</time></trkpt><trkpt lat="40.48939" lon="16.664675"><ele>71.6</ele><time>2026-03-22T14:52:22.454Z</time></trkpt><trkpt lat="40.4894317" lon="16.6645417"><ele>71.39999999999999</ele><time>2026-03-22T14:52:23.453Z</time></trkpt><trkpt lat="40.4894683" lon="16.6644133"><ele>71.2</ele><time>2026-03-22T14:52:24.453Z</time></trkpt><trkpt lat="40.4895267" lon="16.6643067"><ele>71.0</ele><time>2026-03-22T14:52:25.453Z</time></trkpt><trkpt lat="40.48961" lon="16.6642317"><ele>71.0</ele><time>2026-03-22T14:52:26.453Z</time></trkpt><trkpt lat="40.4897183" lon="16.6641917"><ele>71.0</ele><time>2026-03-22T14:52:27.453Z</time></trkpt><trkpt lat="40.489835" lon="16.6641733"><ele>71.0</ele><time>2026-03-22T14:52:28.452Z</time></trkpt><trkpt lat="40.4899533" lon="16.6641633"><ele>71.0</ele><time>2026-03-22T14:52:29.452Z</time></trkpt><trkpt lat="40.490075" lon="16.6641533"><ele>71.0</ele><time>2026-03-22T14:52:30.452Z</time></trkpt><trkpt lat="40.4902" lon="16.6641617"><ele>71.0</ele><time>2026-03-22T14:52:31.452Z</time></trkpt><trkpt lat="40.4903283" lon="16.6642"><ele>71.0</ele><time>2026-03-22T14:52:32.454Z</time></trkpt><trkpt lat="40.49045" lon="16.66427"><ele>71.0</ele><time>2026-03-22T14:52:33.455Z</time></trkpt><trkpt lat="40.4905717" lon="16.66435"><ele>70.5</ele><time>2026-03-22T14:52:34.453Z</time></trkpt><trkpt lat="40.4906983" lon="16.6644267"><ele>70.0</ele><time>2026-03-22T14:52:35.452Z</time></trkpt><trkpt lat="40.49083" lon="16.6644883"><ele>69.5</ele><time>2026-03-22T14:52:36.455Z</time></trkpt><trkpt lat="40.4909633" lon="16.6645383"><ele>69.0</ele><time>2026-03-22T14:52:37.452Z</time></trkpt><trkpt lat="40.4910933" lon="16.664585"><ele>65.75</ele><time>2026-03-22T14:52:38.454Z</time></trkpt><trkpt lat="40.4912183" lon="16.66463"><ele>62.5</ele><time>2026-03-22T14:52:39.451Z</time></trkpt><trkpt lat="40.4913383" lon="16.6646717"><ele>59.25</ele><time>2026-03-22T14:52:40.452Z</time></trkpt><trkpt lat="40.49146" lon="16.66472"><ele>56.0</ele><time>2026-03-22T14:52:41.452Z</time></trkpt><trkpt lat="40.49158" lon="16.6647617"><ele>55.5</ele><time>2026-03-22T14:52:42.452Z</time></trkpt><trkpt lat="40.4917067" lon="16.6647983"><ele>55.0</ele><time>2026-03-22T14:52:43.452Z</time></trkpt><trkpt lat="40.49184" lon="16.6648333"><ele>54.5</ele><time>2026-03-22T14:52:44.452Z</time></trkpt><trkpt lat="40.491975" lon="16.6648717"><ele>54.0</ele><time>2026-03-22T14:52:45.452Z</time></trkpt><trkpt lat="40.49211" lon="16.66492"><ele>52.25</ele><time>2026-03-22T14:52:46.453Z</time></trkpt><trkpt lat="40.4922517" lon="16.6649717"><ele>50.5</ele><time>2026-03-22T14:52:47.453Z</time></trkpt><trkpt lat="40.4923933" lon="16.6650267"><ele>48.75</ele><time>2026-03-22T14:52:48.453Z</time></trkpt><trkpt lat="40.4925333" lon="16.6650883"><ele>47.0</ele><time>2026-03-22T14:52:49.452Z</time></trkpt><trkpt lat="40.4926683" lon="16.6651617"><ele>47.0</ele><time>2026-03-22T14:52:50.453Z</time></trkpt><trkpt lat="40.4927983" lon="16.6652417"><ele>47.0</ele><time>2026-03-22T14:52:51.453Z</time></trkpt><trkpt lat="40.4929233" lon="16.66532"><ele>47.0</ele><time>2026-03-22T14:52:52.452Z</time></trkpt><trkpt lat="40.493045" lon="16.6654017"><ele>47.0</ele><time>2026-03-22T14:52:53.454Z</time></trkpt><trkpt lat="40.4933717" lon="16.665635"><ele>46.400000000000006</ele><time>2026-03-22T14:52:56.469Z</time></trkpt><trkpt lat="40.493475" lon="16.6657033"><ele>45.800000000000004</ele><time>2026-03-22T14:52:57.466Z</time></trkpt><trkpt lat="40.4935683" lon="16.6657683"><ele>45.2</ele><time>2026-03-22T14:52:58.467Z</time></trkpt><trkpt lat="40.4936467" lon="16.6658483"><ele>44.6</ele><time>2026-03-22T14:52:59.453Z</time></trkpt><trkpt lat="40.4937033" lon="16.6659417"><ele>44.0</ele><time>2026-03-22T14:53:00.452Z</time></trkpt><trkpt lat="40.49374" lon="16.6660517"><ele>44.0</ele><time>2026-03-22T14:53:01.451Z</time></trkpt><trkpt lat="40.4937567" lon="16.6661617"><ele>44.0</ele><time>2026-03-22T14:53:02.453Z</time></trkpt><trkpt lat="40.4937567" lon="16.6662733"><ele>44.0</ele><time>2026-03-22T14:53:03.452Z</time></trkpt><trkpt lat="40.4937333" lon="16.6663767"><ele>44.0</ele><time>2026-03-22T14:53:04.452Z</time></trkpt><trkpt lat="40.4937033" lon="16.6664717"><ele>44.0</ele><time>2026-03-22T14:53:05.453Z</time></trkpt><trkpt lat="40.4936633" lon="16.6665583"><ele>44.0</ele><time>2026-03-22T14:53:06.453Z</time></trkpt><trkpt lat="40.4935517" lon="16.6667067"><ele>44.0</ele><time>2026-03-22T14:53:08.452Z</time></trkpt><trkpt lat="40.493475" lon="16.6667633"><ele>44.0</ele><time>2026-03-22T14:53:09.452Z</time></trkpt><trkpt lat="40.4933867" lon="16.6667967"><ele>44.0</ele><time>2026-03-22T14:53:10.453Z</time></trkpt><trkpt lat="40.4932933" lon="16.6668067"><ele>44.0</ele><time>2026-03-22T14:53:11.452Z</time></trkpt><trkpt lat="40.493195" lon="16.6667833"><ele>44.0</ele><time>2026-03-22T14:53:12.453Z</time></trkpt><trkpt lat="40.4931" lon="16.666725"><ele>44.0</ele><time>2026-03-22T14:53:13.452Z</time></trkpt><trkpt lat="40.49302" lon="16.6666367"><ele>44.0</ele><time>2026-03-22T14:53:14.452Z</time></trkpt><trkpt lat="40.49296" lon="16.6665217"><ele>44.0</ele><time>2026-03-22T14:53:15.452Z</time></trkpt><trkpt lat="40.4929233" lon="16.6663917"><ele>44.0</ele><time>2026-03-22T14:53:16.452Z</time></trkpt><trkpt lat="40.4929117" lon="16.6662517"><ele>44.0</ele><time>2026-03-22T14:53:17.452Z</time></trkpt><trkpt lat="40.4929267" lon="16.6661117"><ele>44.0</ele><time>2026-03-22T14:53:18.453Z</time></trkpt><trkpt lat="40.4929667" lon="16.6659717"><ele>44.0</ele><time>2026-03-22T14:53:19.452Z</time></trkpt><trkpt lat="40.49302" lon="16.6658267"><ele>44.0</ele><time>2026-03-22T14:53:20.453Z</time></trkpt><trkpt lat="40.4930767" lon="16.6656733"><ele>44.0</ele><time>2026-03-22T14:53:21.451Z</time></trkpt><trkpt lat="40.493135" lon="16.6655233"><ele>44.0</ele><time>2026-03-22T14:53:22.453Z</time></trkpt><trkpt lat="40.4931967" lon="16.6653717"><ele>44.0</ele><time>2026-03-22T14:53:23.453Z</time></trkpt><trkpt lat="40.4932583" lon="16.6652133"><ele>44.0</ele><time>2026-03-22T14:53:24.452Z</time></trkpt><trkpt lat="40.4933267" lon="16.665045"><ele>44.0</ele><time>2026-03-22T14:53:25.452Z</time></trkpt><trkpt lat="40.4933967" lon="16.6648783"><ele>44.25</ele><time>2026-03-22T14:53:26.453Z</time></trkpt><trkpt lat="40.4934717" lon="16.664715"><ele>44.5</ele><time>2026-03-22T14:53:27.452Z</time></trkpt><trkpt lat="40.4935433" lon="16.6645483"><ele>44.75</ele><time>2026-03-22T14:53:28.452Z</time></trkpt><trkpt lat="40.4936167" lon="16.6643833"><ele>45.0</ele><time>2026-03-22T14:53:29.453Z</time></trkpt><trkpt lat="40.4936883" lon="16.6642283"><ele>45.25</ele><time>2026-03-22T14:53:30.452Z</time></trkpt><trkpt lat="40.4937633" lon="16.664085"><ele>45.5</ele><time>2026-03-22T14:53:31.453Z</time></trkpt><trkpt lat="40.49384" lon="16.6639517"><ele>45.75</ele><time>2026-03-22T14:53:32.452Z</time></trkpt><trkpt lat="40.49391" lon="16.6638267"><ele>46.0</ele><time>2026-03-22T14:53:33.453Z</time></trkpt><trkpt lat="40.493965" lon="16.6637267"><ele>46.0</ele><time>2026-03-22T14:53:34.453Z</time></trkpt><trkpt lat="40.4940067" lon="16.6636567"><ele>46.0</ele><time>2026-03-22T14:53:35.452Z</time></trkpt><trkpt lat="40.4940783" lon="16.6636283"><ele>46.0</ele><time>2026-03-22T14:53:37.452Z</time></trkpt><trkpt lat="40.4941383" lon="16.6637233"><ele>46.0</ele><time>2026-03-22T14:53:40.452Z</time></trkpt><trkpt lat="40.494175" lon="16.6638417"><ele>46.0</ele><time>2026-03-22T14:53:42.453Z</time></trkpt><trkpt lat="40.4942317" lon="16.6639883"><ele>46.0</ele><time>2026-03-22T14:53:44.454Z</time></trkpt><trkpt lat="40.4942633" lon="16.6640667"><ele>46.0</ele><time>2026-03-22T14:53:45.452Z</time></trkpt><trkpt lat="40.4943" lon="16.6641583"><ele>46.0</ele><time>2026-03-22T14:53:46.453Z</time></trkpt><trkpt lat="40.49434" lon="16.6642533"><ele>46.0</ele><time>2026-03-22T14:53:47.453Z</time></trkpt><trkpt lat="40.4943767" lon="16.6643517"><ele>46.0</ele><time>2026-03-22T14:53:48.452Z</time></trkpt><trkpt lat="40.494415" lon="16.6644533"><ele>46.0</ele><time>2026-03-22T14:53:49.453Z</time></trkpt><trkpt lat="40.4944567" lon="16.6645533"><ele>45.833333333333336</ele><time>2026-03-22T14:53:50.453Z</time></trkpt><trkpt lat="40.4944967" lon="16.6646483"><ele>45.66666666666667</ele><time>2026-03-22T14:53:51.453Z</time></trkpt><trkpt lat="40.4945317" lon="16.6647433"><ele>45.5</ele><time>2026-03-22T14:53:52.453Z</time></trkpt><trkpt lat="40.494565" lon="16.6648367"><ele>45.333333333333336</ele><time>2026-03-22T14:53:53.452Z</time></trkpt><trkpt lat="40.4945933" lon="16.6649267"><ele>45.166666666666664</ele><time>2026-03-22T14:53:54.452Z</time></trkpt><trkpt lat="40.4946167" lon="16.6650083"><ele>45.0</ele><time>2026-03-22T14:53:55.455Z</time></trkpt><trkpt lat="40.49466" lon="16.665145"><ele>44.8</ele><time>2026-03-22T14:53:57.453Z</time></trkpt><trkpt lat="40.494705" lon="16.6652617"><ele>44.6</ele><time>2026-03-22T14:53:59.452Z</time></trkpt><trkpt lat="40.4947667" lon="16.6653083"><ele>44.400000000000006</ele><time>2026-03-22T14:54:01.452Z</time></trkpt><trkpt lat="40.4948317" lon="16.6652467"><ele>44.2</ele><time>2026-03-22T14:54:04.452Z</time></trkpt><trkpt lat="40.4948833" lon="16.6651517"><ele>44.0</ele><time>2026-03-22T14:54:06.452Z</time></trkpt><trkpt lat="40.4949783" lon="16.665045"><ele>44.0</ele><time>2026-03-22T14:54:08.454Z</time></trkpt><trkpt lat="40.49504" lon="16.665005"><ele>44.0</ele><time>2026-03-22T14:54:09.452Z</time></trkpt><trkpt lat="40.4951017" lon="16.6649717"><ele>44.0</ele><time>2026-03-22T14:54:10.452Z</time></trkpt><trkpt lat="40.4951633" lon="16.66494"><ele>44.0</ele><time>2026-03-22T14:54:11.453Z</time></trkpt><trkpt lat="40.4952217" lon="16.6649067"><ele>44.0</ele><time>2026-03-22T14:54:12.452Z</time></trkpt><trkpt lat="40.4953283" lon="16.66485"><ele>44.0</ele><time>2026-03-22T14:54:14.452Z</time></trkpt><trkpt lat="40.4954267" lon="16.664795"><ele>44.0</ele><time>2026-03-22T14:54:16.452Z</time></trkpt><trkpt lat="40.4955383" lon="16.6647333"><ele>44.0</ele><time>2026-03-22T14:54:18.452Z</time></trkpt><trkpt lat="40.49565" lon="16.664675"><ele>44.0</ele><time>2026-03-22T14:54:20.452Z</time></trkpt><trkpt lat="40.4957717" lon="16.664615"><ele>44.0</ele><time>2026-03-22T14:54:22.452Z</time></trkpt><trkpt lat="40.4958383" lon="16.6645733"><ele>44.0</ele><time>2026-03-22T14:54:23.452Z</time></trkpt><trkpt lat="40.4959" lon="16.6645283"><ele>44.0</ele><time>2026-03-22T14:54:24.452Z</time></trkpt><trkpt lat="40.4959583" lon="16.6644817"><ele>44.0</ele><time>2026-03-22T14:54:25.452Z</time></trkpt><trkpt lat="40.496015" lon="16.66443"><ele>44.0</ele><time>2026-03-22T14:54:26.454Z</time></trkpt><trkpt lat="40.496065" lon="16.664375"><ele>44.0</ele><time>2026-03-22T14:54:27.453Z</time></trkpt><trkpt lat="40.4961133" lon="16.664315"><ele>44.0</ele><time>2026-03-22T14:54:28.452Z</time></trkpt><trkpt lat="40.496165" lon="16.6642567"><ele>44.0</ele><time>2026-03-22T14:54:29.452Z</time></trkpt><trkpt lat="40.4962167" lon="16.6642067"><ele>44.0</ele><time>2026-03-22T14:54:30.452Z</time></trkpt><trkpt lat="40.4962683" lon="16.6641517"><ele>44.285714285714285</ele><time>2026-03-22T14:54:31.453Z</time></trkpt><trkpt lat="40.49632" lon="16.6640933"><ele>44.57142857142857</ele><time>2026-03-22T14:54:32.453Z</time></trkpt><trkpt lat="40.49638" lon="16.6640467"><ele>44.85714285714286</ele><time>2026-03-22T14:54:33.453Z</time></trkpt><trkpt lat="40.4964483" lon="16.664015"><ele>45.14285714285714</ele><time>2026-03-22T14:54:34.452Z</time></trkpt><trkpt lat="40.4965217" lon="16.6639967"><ele>45.42857142857142</ele><time>2026-03-22T14:54:35.452Z</time></trkpt><trkpt lat="40.496595" lon="16.6639883"><ele>45.714285714285715</ele><time>2026-03-22T14:54:36.452Z</time></trkpt><trkpt lat="40.4966683" lon="16.66398"><ele>46.0</ele><time>2026-03-22T14:54:37.452Z</time></trkpt><trkpt lat="40.4967417" lon="16.6639683"><ele>46.0</ele><time>2026-03-22T14:54:38.452Z</time></trkpt><trkpt lat="40.496815" lon="16.66396"><ele>46.0</ele><time>2026-03-22T14:54:39.452Z</time></trkpt><trkpt lat="40.4968867" lon="16.6639517"><ele>46.0</ele><time>2026-03-22T14:54:40.453Z</time></trkpt><trkpt lat="40.4969567" lon="16.6639433"><ele>46.0</ele><time>2026-03-22T14:54:41.451Z</time></trkpt><trkpt lat="40.4970267" lon="16.6639317"><ele>46.0</ele><time>2026-03-22T14:54:42.453Z</time></trkpt><trkpt lat="40.4970917" lon="16.6639217"><ele>46.0</ele><time>2026-03-22T14:54:43.453Z</time></trkpt><trkpt lat="40.497155" lon="16.6639133"><ele>46.0</ele><time>2026-03-22T14:54:44.453Z</time></trkpt><trkpt lat="40.4972617" lon="16.663875"><ele>46.0</ele><time>2026-03-22T14:54:46.452Z</time></trkpt><trkpt lat="40.497365" lon="16.6637933"><ele>46.0</ele><time>2026-03-22T14:54:48.453Z</time></trkpt><trkpt lat="40.4974233" lon="16.66374"><ele>46.0</ele><time>2026-03-22T14:54:49.453Z</time></trkpt><trkpt lat="40.49748" lon="16.6636833"><ele>46.0</ele><time>2026-03-22T14:54:50.454Z</time></trkpt><trkpt lat="40.4975317" lon="16.6636283"><ele>46.0</ele><time>2026-03-22T14:54:51.452Z</time></trkpt><trkpt lat="40.4976117" lon="16.66354"><ele>46.0</ele><time>2026-03-22T14:54:53.453Z</time></trkpt><trkpt lat="40.4976817" lon="16.6635133"><ele>46.0</ele><time>2026-03-22T14:54:55.451Z</time></trkpt><trkpt lat="40.4977617" lon="16.6635883"><ele>46.0</ele><time>2026-03-22T14:54:57.452Z</time></trkpt><trkpt lat="40.4978467" lon="16.6636517"><ele>46.0</ele><time>2026-03-22T14:54:59.453Z</time></trkpt><trkpt lat="40.4979483" lon="16.6636267"><ele>46.0</ele><time>2026-03-22T14:55:01.452Z</time></trkpt><trkpt lat="40.4979983" lon="16.66357"><ele>46.0</ele><time>2026-03-22T14:55:02.453Z</time></trkpt><trkpt lat="40.49805" lon="16.6635033"><ele>46.0</ele><time>2026-03-22T14:55:03.453Z</time></trkpt><trkpt lat="40.4981033" lon="16.6634367"><ele>45.85714285714286</ele><time>2026-03-22T14:55:04.453Z</time></trkpt><trkpt lat="40.498155" lon="16.663375"><ele>45.71428571428571</ele><time>2026-03-22T14:55:05.451Z</time></trkpt><trkpt lat="40.4982067" lon="16.6633117"><ele>45.57142857142857</ele><time>2026-03-22T14:55:06.453Z</time></trkpt><trkpt lat="40.4982617" lon="16.6632517"><ele>45.42857142857143</ele><time>2026-03-22T14:55:07.453Z</time></trkpt><trkpt lat="40.4983133" lon="16.6631917"><ele>45.28571428571429</ele><time>2026-03-22T14:55:08.453Z</time></trkpt><trkpt lat="40.4983633" lon="16.6631317"><ele>45.14285714285714</ele><time>2026-03-22T14:55:09.453Z</time></trkpt><trkpt lat="40.4984083" lon="16.6630717"><ele>45.0</ele><time>2026-03-22T14:55:10.452Z</time></trkpt><trkpt lat="40.4984733" lon="16.662935"><ele>45.0</ele><time>2026-03-22T14:55:12.452Z</time></trkpt><trkpt lat="40.4984817" lon="16.6628467"><ele>45.0</ele><time>2026-03-22T14:55:13.453Z</time></trkpt><trkpt lat="40.4984783" lon="16.6627567"><ele>45.0</ele><time>2026-03-22T14:55:14.453Z</time></trkpt><trkpt lat="40.4984817" lon="16.6626733"><ele>45.0</ele><time>2026-03-22T14:55:15.454Z</time></trkpt><trkpt lat="40.4985267" lon="16.6625367"><ele>45.0</ele><time>2026-03-22T14:55:17.452Z</time></trkpt><trkpt lat="40.498625" lon="16.6624533"><ele>45.0</ele><time>2026-03-22T14:55:19.452Z</time></trkpt><trkpt lat="40.498735" lon="16.6623817"><ele>45.2</ele><time>2026-03-22T14:55:21.451Z</time></trkpt><trkpt lat="40.498815" lon="16.6623133"><ele>45.4</ele><time>2026-03-22T14:55:23.453Z</time></trkpt><trkpt lat="40.4989033" lon="16.66236"><ele>45.599999999999994</ele><time>2026-03-22T14:55:36.452Z</time></trkpt><trkpt lat="40.498975" lon="16.6624933"><ele>45.8</ele><time>2026-03-22T14:55:38.453Z</time></trkpt><trkpt lat="40.499025" lon="16.66256"><ele>46.0</ele><time>2026-03-22T14:55:39.452Z</time></trkpt><trkpt lat="40.49908" lon="16.6626333"><ele>46.0</ele><time>2026-03-22T14:55:40.451Z</time></trkpt><trkpt lat="40.4991317" lon="16.6627117"><ele>46.0</ele><time>2026-03-22T14:55:41.451Z</time></trkpt><trkpt lat="40.4991817" lon="16.6627933"><ele>46.0</ele><time>2026-03-22T14:55:42.452Z</time></trkpt><trkpt lat="40.499235" lon="16.6628717"><ele>46.0</ele><time>2026-03-22T14:55:43.453Z</time></trkpt><trkpt lat="40.4992917" lon="16.662955"><ele>46.0</ele><time>2026-03-22T14:55:44.454Z</time></trkpt><trkpt lat="40.4993517" lon="16.6630383"><ele>46.0</ele><time>2026-03-22T14:55:45.452Z</time></trkpt><trkpt lat="40.4994083" lon="16.663125"><ele>46.0</ele><time>2026-03-22T14:55:46.452Z</time></trkpt><trkpt lat="40.4994683" lon="16.6632167"><ele>46.0</ele><time>2026-03-22T14:55:47.452Z</time></trkpt><trkpt lat="40.49953" lon="16.66331"><ele>46.0</ele><time>2026-03-22T14:55:48.465Z</time></trkpt><trkpt lat="40.49959" lon="16.6633933"><ele>46.0</ele><time>2026-03-22T14:55:49.452Z</time></trkpt><trkpt lat="40.499645" lon="16.663475"><ele>46.0</ele><time>2026-03-22T14:55:50.453Z</time></trkpt><trkpt lat="40.4996983" lon="16.66355"><ele>46.0</ele><time>2026-03-22T14:55:51.452Z</time></trkpt><trkpt lat="40.49975" lon="16.663615"><ele>45.66666666666667</ele><time>2026-03-22T14:55:52.452Z</time></trkpt><trkpt lat="40.499795" lon="16.6636767"><ele>45.333333333333336</ele><time>2026-03-22T14:55:53.453Z</time></trkpt><trkpt lat="40.49982" lon="16.66378"><ele>45.0</ele><time>2026-03-22T14:55:55.453Z</time></trkpt><trkpt lat="40.4997583" lon="16.6638717"><ele>44.666666666666664</ele><time>2026-03-22T14:55:57.455Z</time></trkpt><trkpt lat="40.4997133" lon="16.66393"><ele>44.33333333333333</ele><time>2026-03-22T14:55:58.455Z</time></trkpt><trkpt lat="40.4996667" lon="16.66401"><ele>44.0</ele><time>2026-03-22T14:55:59.452Z</time></trkpt><trkpt lat="40.499615" lon="16.6641033"><ele>44.166666666666664</ele><time>2026-03-22T14:56:00.451Z</time></trkpt><trkpt lat="40.4995583" lon="16.6641917"><ele>44.33333333333333</ele><time>2026-03-22T14:56:01.451Z</time></trkpt><trkpt lat="40.4995017" lon="16.6642733"><ele>44.5</ele><time>2026-03-22T14:56:02.452Z</time></trkpt><trkpt lat="40.499445" lon="16.6643467"><ele>44.666666666666664</ele><time>2026-03-22T14:56:03.454Z</time></trkpt><trkpt lat="40.49939" lon="16.66442"><ele>44.833333333333336</ele><time>2026-03-22T14:56:04.452Z</time></trkpt><trkpt lat="40.4993383" lon="16.664505"><ele>45.0</ele><time>2026-03-22T14:56:05.452Z</time></trkpt><trkpt lat="40.4992833" lon="16.6645967"><ele>44.666666666666664</ele><time>2026-03-22T14:56:06.452Z</time></trkpt><trkpt lat="40.4992267" lon="16.6646917"><ele>44.333333333333336</ele><time>2026-03-22T14:56:07.454Z</time></trkpt><trkpt lat="40.4991667" lon="16.66478"><ele>44.0</ele><time>2026-03-22T14:56:08.453Z</time></trkpt><trkpt lat="40.4991067" lon="16.6648683"><ele>43.66666666666667</ele><time>2026-03-22T14:56:09.452Z</time></trkpt><trkpt lat="40.49905" lon="16.6649517"><ele>43.333333333333336</ele><time>2026-03-22T14:56:10.452Z</time></trkpt><trkpt lat="40.4989933" lon="16.6650367"><ele>43.0</ele><time>2026-03-22T14:56:11.453Z</time></trkpt><trkpt lat="40.498935" lon="16.6651183"><ele>43.0</ele><time>2026-03-22T14:56:12.452Z</time></trkpt><trkpt lat="40.4988833" lon="16.6651983"><ele>43.0</ele><time>2026-03-22T14:56:13.453Z</time></trkpt><trkpt lat="40.4988317" lon="16.6652817"><ele>43.0</ele><time>2026-03-22T14:56:14.453Z</time></trkpt><trkpt lat="40.4987817" lon="16.6653683"><ele>43.0</ele><time>2026-03-22T14:56:15.452Z</time></trkpt><trkpt lat="40.4987283" lon="16.66545"><ele>43.0</ele><time>2026-03-22T14:56:16.453Z</time></trkpt><trkpt lat="40.4986767" lon="16.6655283"><ele>43.0</ele><time>2026-03-22T14:56:17.452Z</time></trkpt><trkpt lat="40.4986317" lon="16.6655967"><ele>43.5</ele><time>2026-03-22T14:56:18.453Z</time></trkpt><trkpt lat="40.4985867" lon="16.6656583"><ele>44.0</ele><time>2026-03-22T14:56:19.452Z</time></trkpt><trkpt lat="40.4985067" lon="16.665785"><ele>44.5</ele><time>2026-03-22T14:56:21.453Z</time></trkpt><trkpt lat="40.4984633" lon="16.66585"><ele>45.0</ele><time>2026-03-22T14:56:22.453Z</time></trkpt><trkpt lat="40.49842" lon="16.6659217"><ele>45.5</ele><time>2026-03-22T14:56:23.452Z</time></trkpt><trkpt lat="40.4983733" lon="16.6660017"><ele>46.0</ele><time>2026-03-22T14:56:24.452Z</time></trkpt><trkpt lat="40.4983233" lon="16.666085"><ele>45.714285714285715</ele><time>2026-03-22T14:56:25.452Z</time></trkpt><trkpt lat="40.4982767" lon="16.6661667"><ele>45.42857142857142</ele><time>2026-03-22T14:56:26.452Z</time></trkpt><trkpt lat="40.49823" lon="16.6662433"><ele>45.14285714285714</ele><time>2026-03-22T14:56:27.453Z</time></trkpt><trkpt lat="40.4981867" lon="16.6663133"><ele>44.85714285714286</ele><time>2026-03-22T14:56:28.453Z</time></trkpt><trkpt lat="40.4981383" lon="16.6663817"><ele>44.57142857142857</ele><time>2026-03-22T14:56:29.453Z</time></trkpt><trkpt lat="40.4980917" lon="16.6664517"><ele>44.285714285714285</ele><time>2026-03-22T14:56:30.452Z</time></trkpt><trkpt lat="40.4980433" lon="16.6665217"><ele>44.0</ele><time>2026-03-22T14:56:31.454Z</time></trkpt><trkpt lat="40.4979933" lon="16.6665967"><ele>44.0</ele><time>2026-03-22T14:56:32.453Z</time></trkpt><trkpt lat="40.497945" lon="16.6666683"><ele>44.0</ele><time>2026-03-22T14:56:33.453Z</time></trkpt><trkpt lat="40.4978983" lon="16.6667433"><ele>44.0</ele><time>2026-03-22T14:56:34.452Z</time></trkpt><trkpt lat="40.4978517" lon="16.6668183"><ele>44.0</ele><time>2026-03-22T14:56:35.454Z</time></trkpt><trkpt lat="40.4978033" lon="16.666895"><ele>44.0</ele><time>2026-03-22T14:56:36.452Z</time></trkpt><trkpt lat="40.4977567" lon="16.666975"><ele>44.0</ele><time>2026-03-22T14:56:37.453Z</time></trkpt><trkpt lat="40.49771" lon="16.667055"><ele>44.0</ele><time>2026-03-22T14:56:38.453Z</time></trkpt><trkpt lat="40.4976683" lon="16.66713"><ele>44.0</ele><time>2026-03-22T14:56:39.452Z</time></trkpt><trkpt lat="40.4976267" lon="16.6672033"><ele>44.0</ele><time>2026-03-22T14:56:40.451Z</time></trkpt><trkpt lat="40.4975767" lon="16.6672767"><ele>44.0</ele><time>2026-03-22T14:56:41.451Z</time></trkpt><trkpt lat="40.497525" lon="16.6673517"><ele>44.0</ele><time>2026-03-22T14:56:42.453Z</time></trkpt><trkpt lat="40.497475" lon="16.6674317"><ele>44.0</ele><time>2026-03-22T14:56:43.452Z</time></trkpt><trkpt lat="40.497425" lon="16.6675133"><ele>44.0</ele><time>2026-03-22T14:56:44.453Z</time></trkpt><trkpt lat="40.4973783" lon="16.6675917"><ele>44.0</ele><time>2026-03-22T14:56:45.453Z</time></trkpt><trkpt lat="40.4973333" lon="16.6676633"><ele>44.0</ele><time>2026-03-22T14:56:46.452Z</time></trkpt><trkpt lat="40.4972533" lon="16.6677733"><ele>44.0</ele><time>2026-03-22T14:56:48.455Z</time></trkpt><trkpt lat="40.4971833" lon="16.6678767"><ele>44.0</ele><time>2026-03-22T14:56:50.453Z</time></trkpt><trkpt lat="40.4971033" lon="16.66799"><ele>44.0</ele><time>2026-03-22T14:56:52.452Z</time></trkpt><trkpt lat="40.4970167" lon="16.6681117"><ele>44.0</ele><time>2026-03-22T14:56:54.452Z</time></trkpt><trkpt lat="40.4969483" lon="16.6682433"><ele>44.0</ele><time>2026-03-22T14:56:56.454Z</time></trkpt><trkpt lat="40.4968817" lon="16.6683633"><ele>44.0</ele><time>2026-03-22T14:56:58.454Z</time></trkpt><trkpt lat="40.4968367" lon="16.668465"><ele>44.0</ele><time>2026-03-22T14:57:00.452Z</time></trkpt><trkpt lat="40.496795" lon="16.6685283"><ele>44.0</ele><time>2026-03-22T14:57:02.453Z</time></trkpt><trkpt lat="40.4967383" lon="16.6686017"><ele>44.0</ele><time>2026-03-22T14:57:04.452Z</time></trkpt><trkpt lat="40.4966717" lon="16.6687183"><ele>44.0</ele><time>2026-03-22T14:57:06.452Z</time></trkpt><trkpt lat="40.496605" lon="16.6688433"><ele>44.0</ele><time>2026-03-22T14:57:08.453Z</time></trkpt><trkpt lat="40.4965667" lon="16.66891"><ele>44.0</ele><time>2026-03-22T14:57:09.452Z</time></trkpt><trkpt lat="40.4965233" lon="16.6689717"><ele>44.0</ele><time>2026-03-22T14:57:10.452Z</time></trkpt><trkpt lat="40.4964417" lon="16.66909"><ele>44.0</ele><time>2026-03-22T14:57:12.453Z</time></trkpt><trkpt lat="40.4963783" lon="16.6692033"><ele>44.0</ele><time>2026-03-22T14:57:14.452Z</time></trkpt><trkpt lat="40.4963167" lon="16.6693033"><ele>44.0</ele><time>2026-03-22T14:57:16.452Z</time></trkpt><trkpt lat="40.49624" lon="16.66941"><ele>44.0</ele><time>2026-03-22T14:57:18.452Z</time></trkpt><trkpt lat="40.4962" lon="16.669475"><ele>44.0</ele><time>2026-03-22T14:57:19.455Z</time></trkpt><trkpt lat="40.4961583" lon="16.6695433"><ele>44.0</ele><time>2026-03-22T14:57:20.452Z</time></trkpt><trkpt lat="40.4960817" lon="16.66966"><ele>44.0</ele><time>2026-03-22T14:57:22.452Z</time></trkpt><trkpt lat="40.4960083" lon="16.6697667"><ele>44.0</ele><time>2026-03-22T14:57:24.453Z</time></trkpt><trkpt lat="40.4959333" lon="16.66988"><ele>44.0</ele><time>2026-03-22T14:57:26.454Z</time></trkpt><trkpt lat="40.495875" lon="16.6699967"><ele>44.0</ele><time>2026-03-22T14:57:28.453Z</time></trkpt><trkpt lat="40.495815" lon="16.67011"><ele>44.0</ele><time>2026-03-22T14:57:30.452Z</time></trkpt><trkpt lat="40.49573" lon="16.6702233"><ele>44.0</ele><time>2026-03-22T14:57:32.454Z</time></trkpt><trkpt lat="40.49564" lon="16.6703383"><ele>44.0</ele><time>2026-03-22T14:57:34.453Z</time></trkpt><trkpt lat="40.495595" lon="16.6704117"><ele>44.0</ele><time>2026-03-22T14:57:35.453Z</time></trkpt><trkpt lat="40.4955483" lon="16.6704917"><ele>44.0</ele><time>2026-03-22T14:57:36.453Z</time></trkpt><trkpt lat="40.4955" lon="16.67057"><ele>44.0</ele><time>2026-03-22T14:57:37.452Z</time></trkpt><trkpt lat="40.49545" lon="16.6706533"><ele>44.0</ele><time>2026-03-22T14:57:38.453Z</time></trkpt><trkpt lat="40.4953967" lon="16.6707417"><ele>44.0</ele><time>2026-03-22T14:57:39.452Z</time></trkpt><trkpt lat="40.49534" lon="16.6708317"><ele>44.0</ele><time>2026-03-22T14:57:40.451Z</time></trkpt><trkpt lat="40.4952817" lon="16.6709217"><ele>44.0</ele><time>2026-03-22T14:57:41.452Z</time></trkpt><trkpt lat="40.4952233" lon="16.6710133"><ele>44.0</ele><time>2026-03-22T14:57:42.452Z</time></trkpt><trkpt lat="40.4951667" lon="16.6711033"><ele>44.0</ele><time>2026-03-22T14:57:43.452Z</time></trkpt><trkpt lat="40.49511" lon="16.67119"><ele>44.0</ele><time>2026-03-22T14:57:44.454Z</time></trkpt><trkpt lat="40.4950517" lon="16.6712783"><ele>44.0</ele><time>2026-03-22T14:57:45.452Z</time></trkpt><trkpt lat="40.4949917" lon="16.6713667"><ele>44.0</ele><time>2026-03-22T14:57:46.452Z</time></trkpt><trkpt lat="40.4949367" lon="16.671455"><ele>44.0</ele><time>2026-03-22T14:57:47.452Z</time></trkpt><trkpt lat="40.4948817" lon="16.6715417"><ele>44.0</ele><time>2026-03-22T14:57:48.453Z</time></trkpt><trkpt lat="40.4948317" lon="16.67163"><ele>44.0</ele><time>2026-03-22T14:57:49.452Z</time></trkpt><trkpt lat="40.494785" lon="16.6717083"><ele>44.0</ele><time>2026-03-22T14:57:50.453Z</time></trkpt><trkpt lat="40.4947367" lon="16.6717767"><ele>44.0</ele><time>2026-03-22T14:57:51.453Z</time></trkpt><trkpt lat="40.4946667" lon="16.671895"><ele>44.0</ele><time>2026-03-22T14:57:53.453Z</time></trkpt><trkpt lat="40.4946233" lon="16.6719833"><ele>44.0</ele><time>2026-03-22T14:57:55.451Z</time></trkpt><trkpt lat="40.4945717" lon="16.6720517"><ele>44.0</ele><time>2026-03-22T14:57:57.454Z</time></trkpt><trkpt lat="40.4945217" lon="16.6721117"><ele>44.0</ele><time>2026-03-22T14:57:59.453Z</time></trkpt><trkpt lat="40.4944617" lon="16.6721917"><ele>44.0</ele><time>2026-03-22T14:58:01.454Z</time></trkpt><trkpt lat="40.4944033" lon="16.6722967"><ele>43.5</ele><time>2026-03-22T14:58:03.453Z</time></trkpt><trkpt lat="40.49435" lon="16.6724117"><ele>43.0</ele><time>2026-03-22T14:58:05.452Z</time></trkpt><trkpt lat="40.49428" lon="16.6725167"><ele>42.5</ele><time>2026-03-22T14:58:07.453Z</time></trkpt><trkpt lat="40.4941983" lon="16.6726317"><ele>42.0</ele><time>2026-03-22T14:58:09.453Z</time></trkpt><trkpt lat="40.4941217" lon="16.67276"><ele>42.166666666666664</ele><time>2026-03-22T14:58:11.453Z</time></trkpt><trkpt lat="40.4940417" lon="16.6728867"><ele>42.333333333333336</ele><time>2026-03-22T14:58:13.453Z</time></trkpt><trkpt lat="40.4939983" lon="16.67295"><ele>42.5</ele><time>2026-03-22T14:58:14.453Z</time></trkpt><trkpt lat="40.493955" lon="16.6730133"><ele>42.66666666666667</ele><time>2026-03-22T14:58:15.452Z</time></trkpt><trkpt lat="40.4939167" lon="16.6730817"><ele>42.833333333333336</ele><time>2026-03-22T14:58:16.452Z</time></trkpt><trkpt lat="40.4938417" lon="16.67321"><ele>43.0</ele><time>2026-03-22T14:58:18.453Z</time></trkpt><trkpt lat="40.4937583" lon="16.673335"><ele>43.0</ele><time>2026-03-22T14:58:20.454Z</time></trkpt><trkpt lat="40.493715" lon="16.6734"><ele>43.0</ele><time>2026-03-22T14:58:21.451Z</time></trkpt><trkpt lat="40.4936733" lon="16.67347"><ele>43.0</ele><time>2026-03-22T14:58:22.452Z</time></trkpt><trkpt lat="40.4936333" lon="16.673535"><ele>43.0</ele><time>2026-03-22T14:58:23.453Z</time></trkpt><trkpt lat="40.4935717" lon="16.6736283"><ele>43.0</ele><time>2026-03-22T14:58:25.452Z</time></trkpt><trkpt lat="40.4935167" lon="16.6737167"><ele>43.0</ele><time>2026-03-22T14:58:45.455Z</time></trkpt><trkpt lat="40.49345" lon="16.6738"><ele>42.8</ele><time>2026-03-22T14:58:47.452Z</time></trkpt><trkpt lat="40.4933717" lon="16.6739133"><ele>42.599999999999994</ele><time>2026-03-22T14:58:49.453Z</time></trkpt><trkpt lat="40.493325" lon="16.67399"><ele>42.400000000000006</ele><time>2026-03-22T14:58:50.453Z</time></trkpt><trkpt lat="40.49327" lon="16.674075"><ele>42.2</ele><time>2026-03-22T14:58:51.452Z</time></trkpt><trkpt lat="40.49321" lon="16.674165"><ele>42.0</ele><time>2026-03-22T14:58:52.453Z</time></trkpt><trkpt lat="40.4931483" lon="16.6742633"><ele>42.0</ele><time>2026-03-22T14:58:53.452Z</time></trkpt><trkpt lat="40.4930817" lon="16.6743633"><ele>42.0</ele><time>2026-03-22T14:58:54.453Z</time></trkpt><trkpt lat="40.4930217" lon="16.67446"><ele>42.0</ele><time>2026-03-22T14:58:55.453Z</time></trkpt><trkpt lat="40.4929667" lon="16.67455"><ele>42.0</ele><time>2026-03-22T14:58:56.453Z</time></trkpt><trkpt lat="40.492915" lon="16.6746383"><ele>42.0</ele><time>2026-03-22T14:58:57.452Z</time></trkpt><trkpt lat="40.4928633" lon="16.6747233"><ele>42.333333333333336</ele><time>2026-03-22T14:58:58.454Z</time></trkpt><trkpt lat="40.4928133" lon="16.6748"><ele>42.666666666666664</ele><time>2026-03-22T14:58:59.452Z</time></trkpt><trkpt lat="40.4927633" lon="16.6748683"><ele>43.0</ele><time>2026-03-22T14:59:00.452Z</time></trkpt><trkpt lat="40.4927117" lon="16.67493"><ele>43.33333333333333</ele><time>2026-03-22T14:59:01.451Z</time></trkpt><trkpt lat="40.4926683" lon="16.6749917"><ele>43.666666666666664</ele><time>2026-03-22T14:59:02.453Z</time></trkpt><trkpt lat="40.4925983" lon="16.675105"><ele>44.0</ele><time>2026-03-22T14:59:04.452Z</time></trkpt><trkpt lat="40.4925417" lon="16.6752"><ele>43.6</ele><time>2026-03-22T14:59:06.453Z</time></trkpt><trkpt lat="40.492485" lon="16.6753"><ele>43.2</ele><time>2026-03-22T14:59:08.453Z</time></trkpt><trkpt lat="40.4924267" lon="16.675425"><ele>42.800000000000004</ele><time>2026-03-22T14:59:10.452Z</time></trkpt><trkpt lat="40.4923617" lon="16.675555"><ele>42.400000000000006</ele><time>2026-03-22T14:59:12.453Z</time></trkpt><trkpt lat="40.4922833" lon="16.6756667"><ele>42.0</ele><time>2026-03-22T14:59:14.453Z</time></trkpt><trkpt lat="40.4922033" lon="16.675785"><ele>42.0</ele><time>2026-03-22T14:59:16.452Z</time></trkpt><trkpt lat="40.4921317" lon="16.6759033"><ele>42.0</ele><time>2026-03-22T14:59:18.452Z</time></trkpt><trkpt lat="40.4920567" lon="16.6760167"><ele>42.0</ele><time>2026-03-22T14:59:20.452Z</time></trkpt><trkpt lat="40.4919633" lon="16.676135"><ele>42.0</ele><time>2026-03-22T14:59:22.454Z</time></trkpt><trkpt lat="40.4919117" lon="16.6762"><ele>42.0</ele><time>2026-03-22T14:59:23.452Z</time></trkpt><trkpt lat="40.4918567" lon="16.6762667"><ele>42.0</ele><time>2026-03-22T14:59:24.454Z</time></trkpt><trkpt lat="40.4918067" lon="16.6763267"><ele>42.0</ele><time>2026-03-22T14:59:25.452Z</time></trkpt><trkpt lat="40.4917117" lon="16.67642"><ele>42.0</ele><time>2026-03-22T14:59:27.453Z</time></trkpt><trkpt lat="40.4916233" lon="16.6765067"><ele>42.0</ele><time>2026-03-22T14:59:29.452Z</time></trkpt><trkpt lat="40.4915483" lon="16.6766117"><ele>42.0</ele><time>2026-03-22T14:59:31.452Z</time></trkpt><trkpt lat="40.4915" lon="16.6767383"><ele>42.0</ele><time>2026-03-22T14:59:33.454Z</time></trkpt><trkpt lat="40.491475" lon="16.676895"><ele>42.0</ele><time>2026-03-22T14:59:35.453Z</time></trkpt><trkpt lat="40.4914667" lon="16.67698"><ele>42.0</ele><time>2026-03-22T14:59:36.452Z</time></trkpt><trkpt lat="40.49146" lon="16.6770667"><ele>42.0</ele><time>2026-03-22T14:59:37.454Z</time></trkpt><trkpt lat="40.4914433" lon="16.6772267"><ele>42.0</ele><time>2026-03-22T14:59:39.453Z</time></trkpt><trkpt lat="40.491415" lon="16.677375"><ele>42.0</ele><time>2026-03-22T14:59:41.451Z</time></trkpt><trkpt lat="40.49139" lon="16.6775083"><ele>42.0</ele><time>2026-03-22T14:59:43.453Z</time></trkpt><trkpt lat="40.491375" lon="16.6776083"><ele>42.0</ele><time>2026-03-22T14:59:45.452Z</time></trkpt><trkpt lat="40.4914317" lon="16.6775367"><ele>42.0</ele><time>2026-03-22T14:59:56.453Z</time></trkpt><trkpt lat="40.49142" lon="16.677415"><ele>42.0</ele><time>2026-03-22T14:59:58.454Z</time></trkpt><trkpt lat="40.49144" lon="16.6772467"><ele>42.0</ele><time>2026-03-22T15:00:00.452Z</time></trkpt><trkpt lat="40.4914617" lon="16.6771083"><ele>42.0</ele><time>2026-03-22T15:00:02.453Z</time></trkpt><trkpt lat="40.4914317" lon="16.6770267"><ele>42.0</ele><time>2026-03-22T15:00:04.453Z</time></trkpt><trkpt lat="40.4913633" lon="16.6770033"><ele>42.0</ele><time>2026-03-22T15:00:06.454Z</time></trkpt><trkpt lat="40.4912967" lon="16.6769867"><ele>42.0</ele><time>2026-03-22T15:00:08.454Z</time></trkpt><trkpt lat="40.4912333" lon="16.6768967"><ele>42.0</ele><time>2026-03-22T15:00:18.453Z</time></trkpt><trkpt lat="40.4912717" lon="16.67672"><ele>42.0</ele><time>2026-03-22T15:00:20.453Z</time></trkpt><trkpt lat="40.4912917" lon="16.6765983"><ele>42.0</ele><time>2026-03-22T15:00:21.451Z</time></trkpt><trkpt lat="40.491305" lon="16.6764617"><ele>42.0</ele><time>2026-03-22T15:00:22.453Z</time></trkpt><trkpt lat="40.491315" lon="16.67631"><ele>42.0</ele><time>2026-03-22T15:00:23.453Z</time></trkpt><trkpt lat="40.49133" lon="16.6761483"><ele>42.0</ele><time>2026-03-22T15:00:24.452Z</time></trkpt><trkpt lat="40.4913467" lon="16.6759867"><ele>42.0</ele><time>2026-03-22T15:00:25.453Z</time></trkpt><trkpt lat="40.49137" lon="16.67582"><ele>42.0</ele><time>2026-03-22T15:00:26.453Z</time></trkpt><trkpt lat="40.4913933" lon="16.6756517"><ele>42.0</ele><time>2026-03-22T15:00:27.453Z</time></trkpt><trkpt lat="40.4914167" lon="16.675475"><ele>42.0</ele><time>2026-03-22T15:00:28.453Z</time></trkpt><trkpt lat="40.49144" lon="16.67529"><ele>42.5</ele><time>2026-03-22T15:00:29.454Z</time></trkpt><trkpt lat="40.4914617" lon="16.6750983"><ele>43.0</ele><time>2026-03-22T15:00:30.453Z</time></trkpt><trkpt lat="40.491485" lon="16.6749083"><ele>43.5</ele><time>2026-03-22T15:00:31.453Z</time></trkpt><trkpt lat="40.49151" lon="16.6747167"><ele>44.0</ele><time>2026-03-22T15:00:32.455Z</time></trkpt><trkpt lat="40.491535" lon="16.6745183"><ele>44.0</ele><time>2026-03-22T15:00:33.453Z</time></trkpt><trkpt lat="40.49156" lon="16.6743133"><ele>44.0</ele><time>2026-03-22T15:00:34.453Z</time></trkpt><trkpt lat="40.4915867" lon="16.6740983"><ele>44.0</ele><time>2026-03-22T15:00:35.453Z</time></trkpt><trkpt lat="40.4916117" lon="16.6738817"><ele>44.0</ele><time>2026-03-22T15:00:36.453Z</time></trkpt><trkpt lat="40.4916367" lon="16.6736617"><ele>44.0</ele><time>2026-03-22T15:00:37.453Z</time></trkpt><trkpt lat="40.4916633" lon="16.6734433"><ele>44.0</ele><time>2026-03-22T15:00:38.454Z</time></trkpt><trkpt lat="40.4916883" lon="16.6732267"><ele>44.0</ele><time>2026-03-22T15:00:39.455Z</time></trkpt><trkpt lat="40.491715" lon="16.6730117"><ele>44.0</ele><time>2026-03-22T15:00:40.452Z</time></trkpt><trkpt lat="40.4917383" lon="16.6727967"><ele>44.0</ele><time>2026-03-22T15:00:41.454Z</time></trkpt><trkpt lat="40.4917617" lon="16.6725833"><ele>44.0</ele><time>2026-03-22T15:00:42.453Z</time></trkpt><trkpt lat="40.49179" lon="16.67237"><ele>44.0</ele><time>2026-03-22T15:00:43.453Z</time></trkpt><trkpt lat="40.4918167" lon="16.6721567"><ele>44.0</ele><time>2026-03-22T15:00:44.454Z</time></trkpt><trkpt lat="40.4918433" lon="16.67194"><ele>44.0</ele><time>2026-03-22T15:00:45.454Z</time></trkpt><trkpt lat="40.4918667" lon="16.67172"><ele>44.0</ele><time>2026-03-22T15:00:46.453Z</time></trkpt><trkpt lat="40.4918917" lon="16.6715017"><ele>44.0</ele><time>2026-03-22T15:00:47.453Z</time></trkpt><trkpt lat="40.4919183" lon="16.6712817"><ele>43.666666666666664</ele><time>2026-03-22T15:00:48.453Z</time></trkpt><trkpt lat="40.491945" lon="16.6710633"><ele>43.333333333333336</ele><time>2026-03-22T15:00:49.453Z</time></trkpt><trkpt lat="40.4919717" lon="16.6708433"><ele>43.0</ele><time>2026-03-22T15:00:50.453Z</time></trkpt><trkpt lat="40.492" lon="16.67062"><ele>43.0</ele><time>2026-03-22T15:00:51.452Z</time></trkpt><trkpt lat="40.492025" lon="16.6703967"><ele>43.0</ele><time>2026-03-22T15:00:52.452Z</time></trkpt><trkpt lat="40.4920517" lon="16.6701717"><ele>43.0</ele><time>2026-03-22T15:00:53.452Z</time></trkpt><trkpt lat="40.4920833" lon="16.669945"><ele>43.0</ele><time>2026-03-22T15:00:54.452Z</time></trkpt><trkpt lat="40.4921133" lon="16.6697183"><ele>43.0</ele><time>2026-03-22T15:00:55.454Z</time></trkpt><trkpt lat="40.492145" lon="16.6694917"><ele>43.0</ele><time>2026-03-22T15:00:56.453Z</time></trkpt><trkpt lat="40.4921783" lon="16.669265"><ele>43.0</ele><time>2026-03-22T15:00:57.453Z</time></trkpt><trkpt lat="40.4922133" lon="16.6690383"><ele>43.0</ele><time>2026-03-22T15:00:58.455Z</time></trkpt><trkpt lat="40.49225" lon="16.668815"><ele>43.0</ele><time>2026-03-22T15:00:59.455Z</time></trkpt><trkpt lat="40.4922883" lon="16.66859"><ele>43.333333333333336</ele><time>2026-03-22T15:01:00.453Z</time></trkpt><trkpt lat="40.492325" lon="16.6683617"><ele>43.666666666666664</ele><time>2026-03-22T15:01:01.453Z</time></trkpt><trkpt lat="40.4923633" lon="16.668135"><ele>44.0</ele><time>2026-03-22T15:01:02.455Z</time></trkpt><trkpt lat="40.4924017" lon="16.6679083"><ele>43.666666666666664</ele><time>2026-03-22T15:01:03.454Z</time></trkpt><trkpt lat="40.4924417" lon="16.6676783"><ele>43.333333333333336</ele><time>2026-03-22T15:01:04.454Z</time></trkpt><trkpt lat="40.4924867" lon="16.6674483"><ele>43.0</ele><time>2026-03-22T15:01:05.454Z</time></trkpt><trkpt lat="40.4925367" lon="16.6672183"><ele>43.0</ele><time>2026-03-22T15:01:06.454Z</time></trkpt><trkpt lat="40.4925933" lon="16.6669883"><ele>43.0</ele><time>2026-03-22T15:01:07.454Z</time></trkpt><trkpt lat="40.4926583" lon="16.66676"><ele>43.0</ele><time>2026-03-22T15:01:08.454Z</time></trkpt><trkpt lat="40.4927267" lon="16.6665317"><ele>43.333333333333336</ele><time>2026-03-22T15:01:09.454Z</time></trkpt><trkpt lat="40.4928" lon="16.666305"><ele>43.666666666666664</ele><time>2026-03-22T15:01:10.454Z</time></trkpt><trkpt lat="40.4928783" lon="16.6660783"><ele>44.0</ele><time>2026-03-22T15:01:11.455Z</time></trkpt><trkpt lat="40.4929617" lon="16.6658533"><ele>44.0</ele><time>2026-03-22T15:01:12.454Z</time></trkpt><trkpt lat="40.4930467" lon="16.6656283"><ele>44.0</ele><time>2026-03-22T15:01:13.454Z</time></trkpt><trkpt lat="40.4931383" lon="16.665405"><ele>44.0</ele><time>2026-03-22T15:01:14.457Z</time></trkpt><trkpt lat="40.4932283" lon="16.6651833"><ele>44.33333333333333</ele><time>2026-03-22T15:01:15.454Z</time></trkpt><trkpt lat="40.4933183" lon="16.6649617"><ele>44.666666666666664</ele><time>2026-03-22T15:01:16.453Z</time></trkpt><trkpt lat="40.49341" lon="16.6647383"><ele>45.0</ele><time>2026-03-22T15:01:17.453Z</time></trkpt><trkpt lat="40.4935067" lon="16.6645183"><ele>45.0</ele><time>2026-03-22T15:01:18.454Z</time></trkpt><trkpt lat="40.49361" lon="16.6642983"><ele>45.0</ele><time>2026-03-22T15:01:19.453Z</time></trkpt><trkpt lat="40.4937183" lon="16.6640833"><ele>45.0</ele><time>2026-03-22T15:01:20.452Z</time></trkpt><trkpt lat="40.4938333" lon="16.6638733"><ele>45.0</ele><time>2026-03-22T15:01:21.452Z</time></trkpt><trkpt lat="40.493955" lon="16.6636683"><ele>45.0</ele><time>2026-03-22T15:01:22.452Z</time></trkpt><trkpt lat="40.4940783" lon="16.663465"><ele>45.0</ele><time>2026-03-22T15:01:23.452Z</time></trkpt><trkpt lat="40.4942033" lon="16.663265"><ele>45.0</ele><time>2026-03-22T15:01:24.454Z</time></trkpt><trkpt lat="40.4943333" lon="16.663065"><ele>45.0</ele><time>2026-03-22T15:01:25.454Z</time></trkpt><trkpt lat="40.4944667" lon="16.6628683"><ele>45.0</ele><time>2026-03-22T15:01:26.454Z</time></trkpt><trkpt lat="40.494605" lon="16.6626767"><ele>45.0</ele><time>2026-03-22T15:01:27.452Z</time></trkpt><trkpt lat="40.4947483" lon="16.66249"><ele>45.0</ele><time>2026-03-22T15:01:28.454Z</time></trkpt><trkpt lat="40.494895" lon="16.66231"><ele>45.0</ele><time>2026-03-22T15:01:29.454Z</time></trkpt><trkpt lat="40.495045" lon="16.6621317"><ele>45.0</ele><time>2026-03-22T15:01:30.453Z</time></trkpt><trkpt lat="40.495195" lon="16.6619567"><ele>45.0</ele><time>2026-03-22T15:01:31.453Z</time></trkpt><trkpt lat="40.4953467" lon="16.661785"><ele>45.0</ele><time>2026-03-22T15:01:32.453Z</time></trkpt><trkpt lat="40.4955" lon="16.6616183"><ele>45.333333333333336</ele><time>2026-03-22T15:01:33.452Z</time></trkpt><trkpt lat="40.4956583" lon="16.6614567"><ele>45.66666666666667</ele><time>2026-03-22T15:01:34.453Z</time></trkpt><trkpt lat="40.4958217" lon="16.6613"><ele>46.0</ele><time>2026-03-22T15:01:35.453Z</time></trkpt><trkpt lat="40.4959883" lon="16.661145"><ele>46.0</ele><time>2026-03-22T15:01:36.452Z</time></trkpt><trkpt lat="40.4961583" lon="16.6609967"><ele>46.0</ele><time>2026-03-22T15:01:37.453Z</time></trkpt><trkpt lat="40.4963283" lon="16.6608467"><ele>46.0</ele><time>2026-03-22T15:01:38.453Z</time></trkpt><trkpt lat="40.4964983" lon="16.6607017"><ele>46.333333333333336</ele><time>2026-03-22T15:01:39.453Z</time></trkpt><trkpt lat="40.4966717" lon="16.6605583"><ele>46.666666666666664</ele><time>2026-03-22T15:01:40.452Z</time></trkpt><trkpt lat="40.496845" lon="16.6604183"><ele>47.0</ele><time>2026-03-22T15:01:41.452Z</time></trkpt><trkpt lat="40.49702" lon="16.66028"><ele>47.666666666666664</ele><time>2026-03-22T15:01:42.452Z</time></trkpt><trkpt lat="40.4971967" lon="16.66014"><ele>48.33333333333333</ele><time>2026-03-22T15:01:43.453Z</time></trkpt><trkpt lat="40.4973733" lon="16.6600033"><ele>49.0</ele><time>2026-03-22T15:01:44.453Z</time></trkpt><trkpt lat="40.49755" lon="16.6598683"><ele>49.0</ele><time>2026-03-22T15:01:45.453Z</time></trkpt><trkpt lat="40.4977283" lon="16.659735"><ele>49.0</ele><time>2026-03-22T15:01:46.453Z</time></trkpt><trkpt lat="40.4979067" lon="16.6596033"><ele>49.0</ele><time>2026-03-22T15:01:47.453Z</time></trkpt><trkpt lat="40.4980833" lon="16.659475"><ele>48.33333333333333</ele><time>2026-03-22T15:01:48.453Z</time></trkpt><trkpt lat="40.49826" lon="16.6593433"><ele>47.666666666666664</ele><time>2026-03-22T15:01:49.452Z</time></trkpt><trkpt lat="40.498435" lon="16.65921"><ele>47.0</ele><time>2026-03-22T15:01:50.453Z</time></trkpt><trkpt lat="40.4986117" lon="16.6590767"><ele>47.0</ele><time>2026-03-22T15:01:51.455Z</time></trkpt><trkpt lat="40.4987883" lon="16.658945"><ele>47.0</ele><time>2026-03-22T15:01:52.454Z</time></trkpt><trkpt lat="40.4989633" lon="16.6588117"><ele>47.0</ele><time>2026-03-22T15:01:53.453Z</time></trkpt><trkpt lat="40.4991383" lon="16.658675"><ele>46.666666666666664</ele><time>2026-03-22T15:01:54.453Z</time></trkpt><trkpt lat="40.49931" lon="16.6585367"><ele>46.333333333333336</ele><time>2026-03-22T15:01:55.452Z</time></trkpt><trkpt lat="40.49948" lon="16.6583983"><ele>46.0</ele><time>2026-03-22T15:01:56.454Z</time></trkpt><trkpt lat="40.49965" lon="16.6582533"><ele>46.66666666666667</ele><time>2026-03-22T15:01:57.452Z</time></trkpt><trkpt lat="40.4998167" lon="16.6581033"><ele>47.333333333333336</ele><time>2026-03-22T15:01:58.453Z</time></trkpt><trkpt lat="40.4999817" lon="16.6579517"><ele>48.0</ele><time>2026-03-22T15:01:59.454Z</time></trkpt><trkpt lat="40.500145" lon="16.657795"><ele>48.0</ele><time>2026-03-22T15:02:00.451Z</time></trkpt><trkpt lat="40.5003067" lon="16.65763"><ele>48.0</ele><time>2026-03-22T15:02:01.452Z</time></trkpt><trkpt lat="40.5004633" lon="16.65746"><ele>48.0</ele><time>2026-03-22T15:02:02.452Z</time></trkpt><trkpt lat="40.5006167" lon="16.6572883"><ele>48.0</ele><time>2026-03-22T15:02:03.454Z</time></trkpt><trkpt lat="40.5007667" lon="16.6571133"><ele>48.0</ele><time>2026-03-22T15:02:04.453Z</time></trkpt><trkpt lat="40.5009167" lon="16.6569333"><ele>48.0</ele><time>2026-03-22T15:02:05.452Z</time></trkpt><trkpt lat="40.50106" lon="16.6567433"><ele>47.666666666666664</ele><time>2026-03-22T15:02:06.454Z</time></trkpt><trkpt lat="40.5011983" lon="16.6565517"><ele>47.33333333333333</ele><time>2026-03-22T15:02:07.452Z</time></trkpt><trkpt lat="40.501335" lon="16.6563533"><ele>47.0</ele><time>2026-03-22T15:02:08.453Z</time></trkpt><trkpt lat="40.5014667" lon="16.65615"><ele>47.33333333333333</ele><time>2026-03-22T15:02:09.453Z</time></trkpt><trkpt lat="40.501595" lon="16.6559433"><ele>47.666666666666664</ele><time>2026-03-22T15:02:10.453Z</time></trkpt><trkpt lat="40.5017183" lon="16.6557317"><ele>48.0</ele><time>2026-03-22T15:02:11.452Z</time></trkpt><trkpt lat="40.5018367" lon="16.6555167"><ele>48.0</ele><time>2026-03-22T15:02:12.452Z</time></trkpt><trkpt lat="40.50195" lon="16.6553"><ele>48.0</ele><time>2026-03-22T15:02:13.453Z</time></trkpt><trkpt lat="40.5020583" lon="16.6550783"><ele>48.0</ele><time>2026-03-22T15:02:14.453Z</time></trkpt><trkpt lat="40.502165" lon="16.6548583"><ele>48.0</ele><time>2026-03-22T15:02:15.453Z</time></trkpt><trkpt lat="40.50227" lon="16.6546383"><ele>48.0</ele><time>2026-03-22T15:02:16.453Z</time></trkpt><trkpt lat="40.5023767" lon="16.65442"><ele>48.0</ele><time>2026-03-22T15:02:17.453Z</time></trkpt><trkpt lat="40.5024833" lon="16.6542"><ele>48.66666666666667</ele><time>2026-03-22T15:02:18.452Z</time></trkpt><trkpt lat="40.5025917" lon="16.6539783"><ele>49.333333333333336</ele><time>2026-03-22T15:02:19.452Z</time></trkpt><trkpt lat="40.5026983" lon="16.6537567"><ele>50.0</ele><time>2026-03-22T15:02:20.453Z</time></trkpt><trkpt lat="40.5028017" lon="16.6535317"><ele>50.0</ele><time>2026-03-22T15:02:21.452Z</time></trkpt><trkpt lat="40.502905" lon="16.6533083"><ele>50.0</ele><time>2026-03-22T15:02:22.451Z</time></trkpt><trkpt lat="40.5030117" lon="16.6530867"><ele>50.0</ele><time>2026-03-22T15:02:23.453Z</time></trkpt><trkpt lat="40.50312" lon="16.652865"><ele>50.0</ele><time>2026-03-22T15:02:24.452Z</time></trkpt><trkpt lat="40.5032267" lon="16.652645"><ele>50.0</ele><time>2026-03-22T15:02:25.453Z</time></trkpt><trkpt lat="40.503335" lon="16.6524233"><ele>50.0</ele><time>2026-03-22T15:02:26.454Z</time></trkpt><trkpt lat="40.5034467" lon="16.6522017"><ele>50.0</ele><time>2026-03-22T15:02:27.453Z</time></trkpt><trkpt lat="40.5035567" lon="16.6519817"><ele>50.0</ele><time>2026-03-22T15:02:28.454Z</time></trkpt><trkpt lat="40.503665" lon="16.6517633"><ele>50.0</ele><time>2026-03-22T15:02:29.452Z</time></trkpt><trkpt lat="40.5037717" lon="16.6515417"><ele>49.66666666666667</ele><time>2026-03-22T15:02:30.455Z</time></trkpt><trkpt lat="40.50388" lon="16.65132"><ele>49.33333333333333</ele><time>2026-03-22T15:02:31.453Z</time></trkpt><trkpt lat="40.5039917" lon="16.6510983"><ele>49.0</ele><time>2026-03-22T15:02:32.453Z</time></trkpt><trkpt lat="40.5041033" lon="16.6508833"><ele>49.0</ele><time>2026-03-22T15:02:33.452Z</time></trkpt><trkpt lat="40.5042133" lon="16.6506683"><ele>49.0</ele><time>2026-03-22T15:02:34.453Z</time></trkpt><trkpt lat="40.5043217" lon="16.6504567"><ele>49.0</ele><time>2026-03-22T15:02:35.453Z</time></trkpt><trkpt lat="40.5044317" lon="16.6502433"><ele>48.666666666666664</ele><time>2026-03-22T15:02:36.453Z</time></trkpt><trkpt lat="40.5045417" lon="16.6500317"><ele>48.33333333333333</ele><time>2026-03-22T15:02:37.452Z</time></trkpt><trkpt lat="40.5046533" lon="16.6498183"><ele>48.0</ele><time>2026-03-22T15:02:38.453Z</time></trkpt><trkpt lat="40.5047667" lon="16.6496067"><ele>48.0</ele><time>2026-03-22T15:02:39.453Z</time></trkpt><trkpt lat="40.50488" lon="16.649395"><ele>48.0</ele><time>2026-03-22T15:02:40.451Z</time></trkpt><trkpt lat="40.5049967" lon="16.6491833"><ele>48.0</ele><time>2026-03-22T15:02:41.454Z</time></trkpt><trkpt lat="40.5051133" lon="16.648975"><ele>48.0</ele><time>2026-03-22T15:02:42.452Z</time></trkpt><trkpt lat="40.5052317" lon="16.6487667"><ele>48.0</ele><time>2026-03-22T15:02:43.454Z</time></trkpt><trkpt lat="40.5053517" lon="16.6485567"><ele>48.0</ele><time>2026-03-22T15:02:44.454Z</time></trkpt><trkpt lat="40.5054733" lon="16.6483517"><ele>48.0</ele><time>2026-03-22T15:02:45.454Z</time></trkpt><trkpt lat="40.505595" lon="16.64815"><ele>48.0</ele><time>2026-03-22T15:02:46.452Z</time></trkpt><trkpt lat="40.505715" lon="16.64795"><ele>48.0</ele><time>2026-03-22T15:02:47.454Z</time></trkpt><trkpt lat="40.5058383" lon="16.6477483"><ele>48.33333333333333</ele><time>2026-03-22T15:02:48.453Z</time></trkpt><trkpt lat="40.5059617" lon="16.6475483"><ele>48.666666666666664</ele><time>2026-03-22T15:02:49.454Z</time></trkpt><trkpt lat="40.5060867" lon="16.6473517"><ele>49.0</ele><time>2026-03-22T15:02:50.453Z</time></trkpt><trkpt lat="40.506215" lon="16.647155"><ele>49.666666666666664</ele><time>2026-03-22T15:02:51.453Z</time></trkpt><trkpt lat="40.5063417" lon="16.6469567"><ele>50.33333333333333</ele><time>2026-03-22T15:02:52.454Z</time></trkpt><trkpt lat="40.5064717" lon="16.6467633"><ele>51.0</ele><time>2026-03-22T15:02:53.454Z</time></trkpt><trkpt lat="40.5066017" lon="16.6465683"><ele>51.0</ele><time>2026-03-22T15:02:54.452Z</time></trkpt><trkpt lat="40.5067317" lon="16.6463733"><ele>51.0</ele><time>2026-03-22T15:02:55.454Z</time></trkpt><trkpt lat="40.5068617" lon="16.6461767"><ele>51.0</ele><time>2026-03-22T15:02:56.455Z</time></trkpt><trkpt lat="40.506995" lon="16.6459817"><ele>51.33333333333333</ele><time>2026-03-22T15:02:57.452Z</time></trkpt><trkpt lat="40.50713" lon="16.64579"><ele>51.666666666666664</ele><time>2026-03-22T15:02:58.453Z</time></trkpt><trkpt lat="40.5072667" lon="16.6456"><ele>52.0</ele><time>2026-03-22T15:02:59.453Z</time></trkpt><trkpt lat="40.5074067" lon="16.64541"><ele>52.33333333333333</ele><time>2026-03-22T15:03:00.453Z</time></trkpt><trkpt lat="40.5075467" lon="16.64522"><ele>52.66666666666667</ele><time>2026-03-22T15:03:01.454Z</time></trkpt><trkpt lat="40.5076883" lon="16.6450283"><ele>53.0</ele><time>2026-03-22T15:03:02.453Z</time></trkpt><trkpt lat="40.5078317" lon="16.64484"><ele>53.0</ele><time>2026-03-22T15:03:03.454Z</time></trkpt><trkpt lat="40.5079783" lon="16.6446517"><ele>53.0</ele><time>2026-03-22T15:03:04.453Z</time></trkpt><trkpt lat="40.508125" lon="16.644465"><ele>53.0</ele><time>2026-03-22T15:03:05.452Z</time></trkpt><trkpt lat="40.5082767" lon="16.6442833"><ele>53.0</ele><time>2026-03-22T15:03:06.452Z</time></trkpt><trkpt lat="40.5084267" lon="16.6440967"><ele>53.0</ele><time>2026-03-22T15:03:07.453Z</time></trkpt><trkpt lat="40.5085783" lon="16.6439133"><ele>53.0</ele><time>2026-03-22T15:03:08.455Z</time></trkpt><trkpt lat="40.50873" lon="16.6437317"><ele>52.66666666666667</ele><time>2026-03-22T15:03:09.452Z</time></trkpt><trkpt lat="40.5088833" lon="16.6435483"><ele>52.33333333333333</ele><time>2026-03-22T15:03:10.454Z</time></trkpt><trkpt lat="40.5090367" lon="16.6433667"><ele>52.0</ele><time>2026-03-22T15:03:11.453Z</time></trkpt><trkpt lat="40.5091917" lon="16.6431867"><ele>52.0</ele><time>2026-03-22T15:03:12.453Z</time></trkpt><trkpt lat="40.5093483" lon="16.6430117"><ele>52.0</ele><time>2026-03-22T15:03:13.454Z</time></trkpt><trkpt lat="40.5095083" lon="16.64284"><ele>52.0</ele><time>2026-03-22T15:03:14.453Z</time></trkpt><trkpt lat="40.5096667" lon="16.6426683"><ele>52.33333333333333</ele><time>2026-03-22T15:03:15.452Z</time></trkpt><trkpt lat="40.5098267" lon="16.6424983"><ele>52.66666666666667</ele><time>2026-03-22T15:03:16.453Z</time></trkpt><trkpt lat="40.509985" lon="16.64233"><ele>53.0</ele><time>2026-03-22T15:03:17.454Z</time></trkpt><trkpt lat="40.5101467" lon="16.6421667"><ele>53.0</ele><time>2026-03-22T15:03:18.452Z</time></trkpt><trkpt lat="40.5103083" lon="16.642005"><ele>53.0</ele><time>2026-03-22T15:03:19.452Z</time></trkpt><trkpt lat="40.51047" lon="16.6418383"><ele>53.0</ele><time>2026-03-22T15:03:20.452Z</time></trkpt><trkpt lat="40.510635" lon="16.6416733"><ele>52.0</ele><time>2026-03-22T15:03:21.452Z</time></trkpt><trkpt lat="40.5108" lon="16.6415117"><ele>51.0</ele><time>2026-03-22T15:03:22.452Z</time></trkpt><trkpt lat="40.5109683" lon="16.6413467"><ele>50.0</ele><time>2026-03-22T15:03:23.453Z</time></trkpt><trkpt lat="40.5111333" lon="16.6411817"><ele>49.0</ele><time>2026-03-22T15:03:24.453Z</time></trkpt><trkpt lat="40.511295" lon="16.6410133"><ele>48.0</ele><time>2026-03-22T15:03:25.452Z</time></trkpt><trkpt lat="40.5114583" lon="16.6408433"><ele>47.0</ele><time>2026-03-22T15:03:26.454Z</time></trkpt><trkpt lat="40.5116233" lon="16.6406783"><ele>47.0</ele><time>2026-03-22T15:03:27.452Z</time></trkpt><trkpt lat="40.51179" lon="16.6405133"><ele>47.0</ele><time>2026-03-22T15:03:28.453Z</time></trkpt><trkpt lat="40.5119583" lon="16.6403517"><ele>47.0</ele><time>2026-03-22T15:03:29.452Z</time></trkpt><trkpt lat="40.512125" lon="16.6401867"><ele>47.666666666666664</ele><time>2026-03-22T15:03:30.452Z</time></trkpt><trkpt lat="40.5122933" lon="16.6400233"><ele>48.33333333333333</ele><time>2026-03-22T15:03:31.453Z</time></trkpt><trkpt lat="40.51246" lon="16.6398583"><ele>49.0</ele><time>2026-03-22T15:03:32.454Z</time></trkpt><trkpt lat="40.5126283" lon="16.639695"><ele>49.0</ele><time>2026-03-22T15:03:33.452Z</time></trkpt><trkpt lat="40.5127933" lon="16.6395317"><ele>49.0</ele><time>2026-03-22T15:03:34.453Z</time></trkpt><trkpt lat="40.5129617" lon="16.6393667"><ele>49.0</ele><time>2026-03-22T15:03:35.452Z</time></trkpt><trkpt lat="40.5131267" lon="16.6392033"><ele>49.0</ele><time>2026-03-22T15:03:36.454Z</time></trkpt><trkpt lat="40.5132933" lon="16.6390383"><ele>49.0</ele><time>2026-03-22T15:03:37.452Z</time></trkpt><trkpt lat="40.5134583" lon="16.6388767"><ele>49.0</ele><time>2026-03-22T15:03:38.452Z</time></trkpt><trkpt lat="40.5136217" lon="16.6387117"><ele>48.666666666666664</ele><time>2026-03-22T15:03:39.452Z</time></trkpt><trkpt lat="40.513785" lon="16.6385483"><ele>48.33333333333333</ele><time>2026-03-22T15:03:40.453Z</time></trkpt><trkpt lat="40.51395" lon="16.638385"><ele>48.0</ele><time>2026-03-22T15:03:41.452Z</time></trkpt><trkpt lat="40.514115" lon="16.638225"><ele>48.0</ele><time>2026-03-22T15:03:42.451Z</time></trkpt><trkpt lat="40.51428" lon="16.6380617"><ele>48.0</ele><time>2026-03-22T15:03:43.452Z</time></trkpt><trkpt lat="40.514445" lon="16.6379"><ele>48.0</ele><time>2026-03-22T15:03:44.453Z</time></trkpt><trkpt lat="40.5146083" lon="16.6377367"><ele>49.0</ele><time>2026-03-22T15:03:45.453Z</time></trkpt><trkpt lat="40.5147733" lon="16.6375717"><ele>50.0</ele><time>2026-03-22T15:03:46.453Z</time></trkpt><trkpt lat="40.5149383" lon="16.63741"><ele>51.0</ele><time>2026-03-22T15:03:47.453Z</time></trkpt><trkpt lat="40.5151033" lon="16.63725"><ele>51.0</ele><time>2026-03-22T15:03:48.452Z</time></trkpt><trkpt lat="40.5152683" lon="16.63709"><ele>51.0</ele><time>2026-03-22T15:03:49.454Z</time></trkpt><trkpt lat="40.5154333" lon="16.636935"><ele>51.0</ele><time>2026-03-22T15:03:50.454Z</time></trkpt><trkpt lat="40.5155983" lon="16.63678"><ele>51.0</ele><time>2026-03-22T15:03:51.454Z</time></trkpt><trkpt lat="40.515765" lon="16.636625"><ele>51.0</ele><time>2026-03-22T15:03:52.454Z</time></trkpt><trkpt lat="40.51593" lon="16.6364733"><ele>51.0</ele><time>2026-03-22T15:03:53.452Z</time></trkpt><trkpt lat="40.516095" lon="16.63632"><ele>51.66666666666667</ele><time>2026-03-22T15:03:54.452Z</time></trkpt><trkpt lat="40.5162633" lon="16.63617"><ele>52.333333333333336</ele><time>2026-03-22T15:03:55.452Z</time></trkpt><trkpt lat="40.5164317" lon="16.63602"><ele>53.0</ele><time>2026-03-22T15:03:56.453Z</time></trkpt><trkpt lat="40.516605" lon="16.63587"><ele>53.0</ele><time>2026-03-22T15:03:57.453Z</time></trkpt><trkpt lat="40.5167767" lon="16.63572"><ele>53.0</ele><time>2026-03-22T15:03:58.452Z</time></trkpt><trkpt lat="40.51695" lon="16.6355717"><ele>53.0</ele><time>2026-03-22T15:03:59.452Z</time></trkpt><trkpt lat="40.5171233" lon="16.6354233"><ele>52.333333333333336</ele><time>2026-03-22T15:04:00.452Z</time></trkpt><trkpt lat="40.5172983" lon="16.6352767"><ele>51.66666666666667</ele><time>2026-03-22T15:04:01.452Z</time></trkpt><trkpt lat="40.5174767" lon="16.6351283"><ele>51.0</ele><time>2026-03-22T15:04:02.452Z</time></trkpt><trkpt lat="40.5176533" lon="16.6349833"><ele>51.0</ele><time>2026-03-22T15:04:03.452Z</time></trkpt><trkpt lat="40.5178317" lon="16.6348383"><ele>51.0</ele><time>2026-03-22T15:04:04.452Z</time></trkpt><trkpt lat="40.51801" lon="16.63469"><ele>51.0</ele><time>2026-03-22T15:04:05.452Z</time></trkpt><trkpt lat="40.5181883" lon="16.6345383"><ele>51.0</ele><time>2026-03-22T15:04:06.453Z</time></trkpt><trkpt lat="40.5183683" lon="16.6343817"><ele>51.0</ele><time>2026-03-22T15:04:07.452Z</time></trkpt><trkpt lat="40.5185467" lon="16.6342267"><ele>51.0</ele><time>2026-03-22T15:04:08.454Z</time></trkpt><trkpt lat="40.518725" lon="16.6340717"><ele>51.0</ele><time>2026-03-22T15:04:09.452Z</time></trkpt><trkpt lat="40.5189017" lon="16.63391"><ele>51.0</ele><time>2026-03-22T15:04:10.452Z</time></trkpt><trkpt lat="40.5190817" lon="16.6337483"><ele>51.0</ele><time>2026-03-22T15:04:11.452Z</time></trkpt><trkpt lat="40.5192633" lon="16.633585"><ele>52.0</ele><time>2026-03-22T15:04:12.453Z</time></trkpt><trkpt lat="40.519445" lon="16.6334217"><ele>53.0</ele><time>2026-03-22T15:04:13.453Z</time></trkpt><trkpt lat="40.5196283" lon="16.6332567"><ele>54.0</ele><time>2026-03-22T15:04:14.453Z</time></trkpt><trkpt lat="40.5198117" lon="16.6330867"><ele>54.0</ele><time>2026-03-22T15:04:15.452Z</time></trkpt><trkpt lat="40.519995" lon="16.6329167"><ele>54.0</ele><time>2026-03-22T15:04:16.453Z</time></trkpt><trkpt lat="40.52018" lon="16.6327417"><ele>54.5</ele><time>2026-03-22T15:04:17.452Z</time></trkpt><trkpt lat="40.5203633" lon="16.6325633"><ele>55.0</ele><time>2026-03-22T15:04:18.452Z</time></trkpt><trkpt lat="40.5205467" lon="16.6323833"><ele>53.5</ele><time>2026-03-22T15:04:19.452Z</time></trkpt><trkpt lat="40.52073" lon="16.6322033"><ele>52.0</ele><time>2026-03-22T15:04:20.452Z</time></trkpt><trkpt lat="40.5209133" lon="16.6320217"><ele>52.5</ele><time>2026-03-22T15:04:21.452Z</time></trkpt><trkpt lat="40.5210967" lon="16.6318367"><ele>53.0</ele><time>2026-03-22T15:04:22.452Z</time></trkpt><trkpt lat="40.52128" lon="16.63165"><ele>53.0</ele><time>2026-03-22T15:04:23.452Z</time></trkpt><trkpt lat="40.5214633" lon="16.6314583"><ele>53.0</ele><time>2026-03-22T15:04:24.453Z</time></trkpt><trkpt lat="40.521645" lon="16.6312683"><ele>53.5</ele><time>2026-03-22T15:04:25.453Z</time></trkpt><trkpt lat="40.5218267" lon="16.6310767"><ele>54.0</ele><time>2026-03-22T15:04:26.454Z</time></trkpt><trkpt lat="40.5220083" lon="16.630885"><ele>53.0</ele><time>2026-03-22T15:04:27.452Z</time></trkpt><trkpt lat="40.5221883" lon="16.63069"><ele>52.0</ele><time>2026-03-22T15:04:28.452Z</time></trkpt><trkpt lat="40.5223667" lon="16.6304933"><ele>53.0</ele><time>2026-03-22T15:04:29.452Z</time></trkpt><trkpt lat="40.5225433" lon="16.6302983"><ele>54.0</ele><time>2026-03-22T15:04:30.453Z</time></trkpt><trkpt lat="40.52272" lon="16.630105"><ele>54.0</ele><time>2026-03-22T15:04:31.452Z</time></trkpt><trkpt lat="40.522895" lon="16.6299117"><ele>54.0</ele><time>2026-03-22T15:04:32.453Z</time></trkpt><trkpt lat="40.5230683" lon="16.6297233"><ele>53.66666666666667</ele><time>2026-03-22T15:04:33.452Z</time></trkpt><trkpt lat="40.5232383" lon="16.6295333"><ele>53.333333333333336</ele><time>2026-03-22T15:04:34.452Z</time></trkpt><trkpt lat="40.5234067" lon="16.6293467"><ele>53.0</ele><time>2026-03-22T15:04:35.453Z</time></trkpt><trkpt lat="40.523575" lon="16.6291567"><ele>53.0</ele><time>2026-03-22T15:04:36.454Z</time></trkpt><trkpt lat="40.5237417" lon="16.6289667"><ele>53.0</ele><time>2026-03-22T15:04:37.453Z</time></trkpt><trkpt lat="40.5239083" lon="16.62878"><ele>53.0</ele><time>2026-03-22T15:04:38.453Z</time></trkpt><trkpt lat="40.524075" lon="16.6285933"><ele>53.0</ele><time>2026-03-22T15:04:39.454Z</time></trkpt><trkpt lat="40.52424" lon="16.62841"><ele>53.0</ele><time>2026-03-22T15:04:40.451Z</time></trkpt><trkpt lat="40.5244067" lon="16.6282267"><ele>53.0</ele><time>2026-03-22T15:04:41.451Z</time></trkpt><trkpt lat="40.52457" lon="16.628045"><ele>53.0</ele><time>2026-03-22T15:04:42.452Z</time></trkpt><trkpt lat="40.5247333" lon="16.6278633"><ele>53.0</ele><time>2026-03-22T15:04:43.452Z</time></trkpt><trkpt lat="40.524895" lon="16.6276883"><ele>53.0</ele><time>2026-03-22T15:04:44.453Z</time></trkpt><trkpt lat="40.5250517" lon="16.6275117"><ele>52.66666666666667</ele><time>2026-03-22T15:04:45.453Z</time></trkpt><trkpt lat="40.5252033" lon="16.6273383"><ele>52.33333333333333</ele><time>2026-03-22T15:04:46.454Z</time></trkpt><trkpt lat="40.5253467" lon="16.627175"><ele>52.0</ele><time>2026-03-22T15:04:47.453Z</time></trkpt><trkpt lat="40.5254817" lon="16.6270217"><ele>52.666666666666664</ele><time>2026-03-22T15:04:48.452Z</time></trkpt><trkpt lat="40.5256067" lon="16.6268817"><ele>53.33333333333333</ele><time>2026-03-22T15:04:49.455Z</time></trkpt><trkpt lat="40.5257183" lon="16.62675"><ele>54.0</ele><time>2026-03-22T15:04:50.454Z</time></trkpt><trkpt lat="40.5258267" lon="16.626635"><ele>54.0</ele><time>2026-03-22T15:04:51.452Z</time></trkpt><trkpt lat="40.52594" lon="16.6265483"><ele>54.0</ele><time>2026-03-22T15:04:52.452Z</time></trkpt><trkpt lat="40.5260617" lon="16.6265"><ele>54.0</ele><time>2026-03-22T15:04:53.454Z</time></trkpt><trkpt lat="40.5261867" lon="16.6264967"><ele>54.0</ele><time>2026-03-22T15:04:54.453Z</time></trkpt><trkpt lat="40.5263033" lon="16.6265483"><ele>54.0</ele><time>2026-03-22T15:04:55.453Z</time></trkpt><trkpt lat="40.52641" lon="16.6266417"><ele>54.0</ele><time>2026-03-22T15:04:56.453Z</time></trkpt><trkpt lat="40.5265" lon="16.6267683"><ele>54.0</ele><time>2026-03-22T15:04:57.452Z</time></trkpt><trkpt lat="40.5265733" lon="16.626915"><ele>54.0</ele><time>2026-03-22T15:04:58.452Z</time></trkpt><trkpt lat="40.5266483" lon="16.6270667"><ele>54.0</ele><time>2026-03-22T15:04:59.452Z</time></trkpt><trkpt lat="40.5267333" lon="16.6272217"><ele>54.0</ele><time>2026-03-22T15:05:00.452Z</time></trkpt><trkpt lat="40.526825" lon="16.6273833"><ele>54.0</ele><time>2026-03-22T15:05:01.451Z</time></trkpt><trkpt lat="40.5269233" lon="16.6275533"><ele>54.0</ele><time>2026-03-22T15:05:02.453Z</time></trkpt><trkpt lat="40.5270283" lon="16.6277383"><ele>54.0</ele><time>2026-03-22T15:05:03.452Z</time></trkpt><trkpt lat="40.527135" lon="16.6279317"><ele>54.0</ele><time>2026-03-22T15:05:04.452Z</time></trkpt><trkpt lat="40.5272417" lon="16.628125"><ele>54.33333333333333</ele><time>2026-03-22T15:05:05.453Z</time></trkpt><trkpt lat="40.52735" lon="16.6283167"><ele>54.666666666666664</ele><time>2026-03-22T15:05:06.453Z</time></trkpt><trkpt lat="40.5274583" lon="16.6285167"><ele>55.0</ele><time>2026-03-22T15:05:07.452Z</time></trkpt><trkpt lat="40.5275617" lon="16.62872"><ele>54.0</ele><time>2026-03-22T15:05:08.454Z</time></trkpt><trkpt lat="40.5276633" lon="16.628925"><ele>53.0</ele><time>2026-03-22T15:05:09.453Z</time></trkpt><trkpt lat="40.5277633" lon="16.629135"><ele>52.0</ele><time>2026-03-22T15:05:10.453Z</time></trkpt><trkpt lat="40.527865" lon="16.629345"><ele>52.33333333333333</ele><time>2026-03-22T15:05:11.453Z</time></trkpt><trkpt lat="40.5279667" lon="16.6295567"><ele>52.66666666666667</ele><time>2026-03-22T15:05:12.453Z</time></trkpt><trkpt lat="40.5280683" lon="16.6297683"><ele>53.0</ele><time>2026-03-22T15:05:13.453Z</time></trkpt><trkpt lat="40.52817" lon="16.62998"><ele>53.0</ele><time>2026-03-22T15:05:14.453Z</time></trkpt><trkpt lat="40.5282717" lon="16.6301917"><ele>53.0</ele><time>2026-03-22T15:05:15.452Z</time></trkpt><trkpt lat="40.5283767" lon="16.6304067"><ele>53.0</ele><time>2026-03-22T15:05:16.453Z</time></trkpt><trkpt lat="40.5284817" lon="16.63062"><ele>53.333333333333336</ele><time>2026-03-22T15:05:17.452Z</time></trkpt><trkpt lat="40.5285883" lon="16.630835"><ele>53.66666666666667</ele><time>2026-03-22T15:05:18.454Z</time></trkpt><trkpt lat="40.5286933" lon="16.63105"><ele>54.0</ele><time>2026-03-22T15:05:19.452Z</time></trkpt><trkpt lat="40.5287967" lon="16.6312683"><ele>54.0</ele><time>2026-03-22T15:05:20.452Z</time></trkpt><trkpt lat="40.5289" lon="16.6314867"><ele>54.0</ele><time>2026-03-22T15:05:21.451Z</time></trkpt><trkpt lat="40.5290017" lon="16.631705"><ele>54.0</ele><time>2026-03-22T15:05:22.451Z</time></trkpt><trkpt lat="40.5291067" lon="16.6319233"><ele>53.5</ele><time>2026-03-22T15:05:23.453Z</time></trkpt><trkpt lat="40.52931" lon="16.6323433"><ele>53.0</ele><time>2026-03-22T15:05:25.453Z</time></trkpt><trkpt lat="40.5294033" lon="16.6325317"><ele>53.0</ele><time>2026-03-22T15:05:26.453Z</time></trkpt><trkpt lat="40.5294917" lon="16.6327117"><ele>53.0</ele><time>2026-03-22T15:05:27.452Z</time></trkpt><trkpt lat="40.5295783" lon="16.6328917"><ele>53.0</ele><time>2026-03-22T15:05:28.452Z</time></trkpt><trkpt lat="40.5296633" lon="16.63307"><ele>53.0</ele><time>2026-03-22T15:05:29.452Z</time></trkpt><trkpt lat="40.52975" lon="16.6332517"><ele>53.0</ele><time>2026-03-22T15:05:30.452Z</time></trkpt><trkpt lat="40.529835" lon="16.6334317"><ele>53.0</ele><time>2026-03-22T15:05:31.452Z</time></trkpt><trkpt lat="40.5300083" lon="16.63379"><ele>53.0</ele><time>2026-03-22T15:05:33.455Z</time></trkpt><trkpt lat="40.5300933" lon="16.6339683"><ele>53.0</ele><time>2026-03-22T15:05:34.455Z</time></trkpt><trkpt lat="40.5301767" lon="16.6341483"><ele>53.0</ele><time>2026-03-22T15:05:35.453Z</time></trkpt><trkpt lat="40.5302633" lon="16.6343233"><ele>53.0</ele><time>2026-03-22T15:05:36.452Z</time></trkpt><trkpt lat="40.5303517" lon="16.6344983"><ele>53.0</ele><time>2026-03-22T15:05:37.452Z</time></trkpt><trkpt lat="40.53044" lon="16.63468"><ele>53.0</ele><time>2026-03-22T15:05:38.453Z</time></trkpt><trkpt lat="40.5305267" lon="16.6348633"><ele>50.0</ele><time>2026-03-22T15:05:39.452Z</time></trkpt><trkpt lat="40.5307033" lon="16.6352333"><ele>47.0</ele><time>2026-03-22T15:05:41.451Z</time></trkpt><trkpt lat="40.530795" lon="16.63542"><ele>46.666666666666664</ele><time>2026-03-22T15:05:42.453Z</time></trkpt><trkpt lat="40.5308833" lon="16.635605"><ele>46.333333333333336</ele><time>2026-03-22T15:05:43.456Z</time></trkpt><trkpt lat="40.5309733" lon="16.6357933"><ele>46.0</ele><time>2026-03-22T15:05:44.453Z</time></trkpt><trkpt lat="40.5310583" lon="16.6359717"><ele>47.0</ele><time>2026-03-22T15:05:45.452Z</time></trkpt><trkpt lat="40.531145" lon="16.6361517"><ele>48.0</ele><time>2026-03-22T15:05:46.453Z</time></trkpt><trkpt lat="40.5312317" lon="16.6363317"><ele>49.0</ele><time>2026-03-22T15:05:47.454Z</time></trkpt><trkpt lat="40.5313167" lon="16.63651"><ele>50.0</ele><time>2026-03-22T15:05:48.453Z</time></trkpt><trkpt lat="40.5313967" lon="16.6366933"><ele>51.0</ele><time>2026-03-22T15:05:49.452Z</time></trkpt><trkpt lat="40.53153" lon="16.6370733"><ele>51.33333333333333</ele><time>2026-03-22T15:05:51.452Z</time></trkpt><trkpt lat="40.5315867" lon="16.63727"><ele>51.666666666666664</ele><time>2026-03-22T15:05:52.453Z</time></trkpt><trkpt lat="40.5316467" lon="16.6374683"><ele>52.0</ele><time>2026-03-22T15:05:53.458Z</time></trkpt><trkpt lat="40.5317067" lon="16.6376667"><ele>53.5</ele><time>2026-03-22T15:05:54.452Z</time></trkpt><trkpt lat="40.53183" lon="16.6380667"><ele>55.0</ele><time>2026-03-22T15:05:56.453Z</time></trkpt><trkpt lat="40.5318917" lon="16.63827"><ele>55.0</ele><time>2026-03-22T15:05:57.452Z</time></trkpt><trkpt lat="40.531955" lon="16.638475"><ele>55.0</ele><time>2026-03-22T15:05:58.452Z</time></trkpt><trkpt lat="40.5320917" lon="16.6388933"><ele>55.5</ele><time>2026-03-22T15:06:00.451Z</time></trkpt><trkpt lat="40.5321583" lon="16.6391033"><ele>56.0</ele><time>2026-03-22T15:06:01.452Z</time></trkpt><trkpt lat="40.5322917" lon="16.6395233"><ele>56.0</ele><time>2026-03-22T15:06:03.452Z</time></trkpt><trkpt lat="40.5323567" lon="16.639735"><ele>56.0</ele><time>2026-03-22T15:06:04.452Z</time></trkpt><trkpt lat="40.5324233" lon="16.639945"><ele>56.0</ele><time>2026-03-22T15:06:05.452Z</time></trkpt><trkpt lat="40.53249" lon="16.6401567"><ele>56.333333333333336</ele><time>2026-03-22T15:06:06.452Z</time></trkpt><trkpt lat="40.5325567" lon="16.6403683"><ele>56.66666666666667</ele><time>2026-03-22T15:06:07.452Z</time></trkpt><trkpt lat="40.5326233" lon="16.64058"><ele>57.0</ele><time>2026-03-22T15:06:08.453Z</time></trkpt><trkpt lat="40.53269" lon="16.64079"><ele>57.0</ele><time>2026-03-22T15:06:09.452Z</time></trkpt><trkpt lat="40.5327567" lon="16.6409983"><ele>57.0</ele><time>2026-03-22T15:06:10.452Z</time></trkpt><trkpt lat="40.53282" lon="16.6411983"><ele>57.0</ele><time>2026-03-22T15:06:11.454Z</time></trkpt><trkpt lat="40.5328783" lon="16.6413817"><ele>58.0</ele><time>2026-03-22T15:06:12.452Z</time></trkpt><trkpt lat="40.532935" lon="16.6415533"><ele>59.0</ele><time>2026-03-22T15:06:13.452Z</time></trkpt><trkpt lat="40.532985" lon="16.6417083"><ele>60.0</ele><time>2026-03-22T15:06:14.453Z</time></trkpt><trkpt lat="40.5330733" lon="16.6419933"><ele>60.0</ele><time>2026-03-22T15:06:16.452Z</time></trkpt><trkpt lat="40.5331133" lon="16.6421"><ele>60.0</ele><time>2026-03-22T15:06:17.452Z</time></trkpt><trkpt lat="40.5331567" lon="16.6421783"><ele>60.0</ele><time>2026-03-22T15:06:18.453Z</time></trkpt><trkpt lat="40.533215" lon="16.6422233"><ele>60.0</ele><time>2026-03-22T15:06:19.452Z</time></trkpt><trkpt lat="40.53341" lon="16.642075"><ele>60.0</ele><time>2026-03-22T15:06:22.451Z</time></trkpt><trkpt lat="40.533485" lon="16.6419817"><ele>60.0</ele><time>2026-03-22T15:06:23.453Z</time></trkpt><trkpt lat="40.5335667" lon="16.6418867"><ele>60.0</ele><time>2026-03-22T15:06:24.452Z</time></trkpt><trkpt lat="40.5336583" lon="16.6417817"><ele>60.0</ele><time>2026-03-22T15:06:25.452Z</time></trkpt><trkpt lat="40.5337567" lon="16.641675"><ele>59.66666666666667</ele><time>2026-03-22T15:06:26.453Z</time></trkpt><trkpt lat="40.533855" lon="16.6415617"><ele>59.333333333333336</ele><time>2026-03-22T15:06:27.452Z</time></trkpt><trkpt lat="40.53396" lon="16.641445"><ele>59.0</ele><time>2026-03-22T15:06:28.452Z</time></trkpt><trkpt lat="40.534175" lon="16.6412"><ele>59.0</ele><time>2026-03-22T15:06:30.453Z</time></trkpt><trkpt lat="40.5342833" lon="16.64108"><ele>59.0</ele><time>2026-03-22T15:06:31.452Z</time></trkpt><trkpt lat="40.53439" lon="16.6409567"><ele>59.0</ele><time>2026-03-22T15:06:32.452Z</time></trkpt><trkpt lat="40.534495" lon="16.6408367"><ele>59.0</ele><time>2026-03-22T15:06:33.452Z</time></trkpt><trkpt lat="40.5347117" lon="16.6406017"><ele>59.5</ele><time>2026-03-22T15:06:35.452Z</time></trkpt><trkpt lat="40.53482" lon="16.6404833"><ele>60.0</ele><time>2026-03-22T15:06:36.453Z</time></trkpt><trkpt lat="40.53493" lon="16.6403633"><ele>60.5</ele><time>2026-03-22T15:06:37.452Z</time></trkpt><trkpt lat="40.5350367" lon="16.6402367"><ele>61.0</ele><time>2026-03-22T15:06:38.454Z</time></trkpt><trkpt lat="40.535145" lon="16.6401117"><ele>61.666666666666664</ele><time>2026-03-22T15:06:39.452Z</time></trkpt><trkpt lat="40.5352567" lon="16.6399883"><ele>62.33333333333333</ele><time>2026-03-22T15:06:40.452Z</time></trkpt><trkpt lat="40.5354783" lon="16.6397417"><ele>63.0</ele><time>2026-03-22T15:06:42.451Z</time></trkpt><trkpt lat="40.53559" lon="16.639615"><ele>63.0</ele><time>2026-03-22T15:06:43.452Z</time></trkpt><trkpt lat="40.5357" lon="16.63949"><ele>63.0</ele><time>2026-03-22T15:06:44.453Z</time></trkpt><trkpt lat="40.5358117" lon="16.6393633"><ele>63.0</ele><time>2026-03-22T15:06:45.452Z</time></trkpt><trkpt lat="40.5359267" lon="16.63924"><ele>63.0</ele><time>2026-03-22T15:06:46.452Z</time></trkpt><trkpt lat="40.5360417" lon="16.6391133"><ele>61.5</ele><time>2026-03-22T15:06:47.452Z</time></trkpt><trkpt lat="40.5361533" lon="16.6389833"><ele>60.0</ele><time>2026-03-22T15:06:48.452Z</time></trkpt><trkpt lat="40.5363817" lon="16.63872"><ele>60.0</ele><time>2026-03-22T15:06:50.453Z</time></trkpt><trkpt lat="40.5364967" lon="16.63859"><ele>60.0</ele><time>2026-03-22T15:06:51.452Z</time></trkpt><trkpt lat="40.53661" lon="16.6384633"><ele>60.0</ele><time>2026-03-22T15:06:52.452Z</time></trkpt><trkpt lat="40.5367267" lon="16.6383383"><ele>60.0</ele><time>2026-03-22T15:06:53.452Z</time></trkpt><trkpt lat="40.53684" lon="16.6382067"><ele>60.0</ele><time>2026-03-22T15:06:54.452Z</time></trkpt><trkpt lat="40.5369533" lon="16.6380767"><ele>60.0</ele><time>2026-03-22T15:06:55.452Z</time></trkpt><trkpt lat="40.5370683" lon="16.6379467"><ele>60.66666666666667</ele><time>2026-03-22T15:06:56.453Z</time></trkpt><trkpt lat="40.537185" lon="16.6378183"><ele>61.333333333333336</ele><time>2026-03-22T15:06:57.453Z</time></trkpt><trkpt lat="40.5373" lon="16.6376883"><ele>62.0</ele><time>2026-03-22T15:06:58.452Z</time></trkpt><trkpt lat="40.5375333" lon="16.6374317"><ele>62.0</ele><time>2026-03-22T15:07:00.451Z</time></trkpt><trkpt lat="40.5376517" lon="16.6373017"><ele>62.0</ele><time>2026-03-22T15:07:01.451Z</time></trkpt><trkpt lat="40.5377683" lon="16.63717"><ele>62.0</ele><time>2026-03-22T15:07:02.452Z</time></trkpt><trkpt lat="40.5378833" lon="16.6370367"><ele>62.333333333333336</ele><time>2026-03-22T15:07:03.452Z</time></trkpt><trkpt lat="40.538" lon="16.6369017"><ele>62.66666666666667</ele><time>2026-03-22T15:07:04.452Z</time></trkpt><trkpt lat="40.538115" lon="16.6367683"><ele>63.0</ele><time>2026-03-22T15:07:05.452Z</time></trkpt><trkpt lat="40.5382283" lon="16.6366383"><ele>63.0</ele><time>2026-03-22T15:07:06.453Z</time></trkpt><trkpt lat="40.5383433" lon="16.6365083"><ele>63.0</ele><time>2026-03-22T15:07:07.453Z</time></trkpt><trkpt lat="40.5384617" lon="16.6363783"><ele>63.0</ele><time>2026-03-22T15:07:08.454Z</time></trkpt><trkpt lat="40.5385817" lon="16.6362467"><ele>61.5</ele><time>2026-03-22T15:07:09.452Z</time></trkpt><trkpt lat="40.5387017" lon="16.636115"><ele>60.0</ele><time>2026-03-22T15:07:10.453Z</time></trkpt><trkpt lat="40.5389383" lon="16.6358517"><ele>60.0</ele><time>2026-03-22T15:07:12.452Z</time></trkpt><trkpt lat="40.539055" lon="16.63572"><ele>60.0</ele><time>2026-03-22T15:07:13.453Z</time></trkpt><trkpt lat="40.5391683" lon="16.6355867"><ele>60.0</ele><time>2026-03-22T15:07:14.452Z</time></trkpt><trkpt lat="40.5392767" lon="16.6354433"><ele>59.0</ele><time>2026-03-22T15:07:15.452Z</time></trkpt><trkpt lat="40.539375" lon="16.6352933"><ele>58.0</ele><time>2026-03-22T15:07:16.452Z</time></trkpt><trkpt lat="40.5394617" lon="16.6351333"><ele>57.0</ele><time>2026-03-22T15:07:17.452Z</time></trkpt><trkpt lat="40.5395367" lon="16.6349567"><ele>58.66666666666667</ele><time>2026-03-22T15:07:18.453Z</time></trkpt><trkpt lat="40.5396033" lon="16.63477"><ele>60.333333333333336</ele><time>2026-03-22T15:07:19.453Z</time></trkpt><trkpt lat="40.539665" lon="16.6345817"><ele>62.0</ele><time>2026-03-22T15:07:20.452Z</time></trkpt><trkpt lat="40.53973" lon="16.6343967"><ele>62.0</ele><time>2026-03-22T15:07:21.452Z</time></trkpt><trkpt lat="40.5397967" lon="16.6342133"><ele>62.0</ele><time>2026-03-22T15:07:22.453Z</time></trkpt><trkpt lat="40.5398617" lon="16.6340333"><ele>62.0</ele><time>2026-03-22T15:07:23.453Z</time></trkpt><trkpt lat="40.53993" lon="16.6338517"><ele>62.0</ele><time>2026-03-22T15:07:24.452Z</time></trkpt><trkpt lat="40.54001" lon="16.6336767"><ele>62.0</ele><time>2026-03-22T15:07:25.452Z</time></trkpt><trkpt lat="40.5401117" lon="16.6335183"><ele>62.0</ele><time>2026-03-22T15:07:26.452Z</time></trkpt><trkpt lat="40.5402383" lon="16.6333817"><ele>62.0</ele><time>2026-03-22T15:07:27.452Z</time></trkpt><trkpt lat="40.540385" lon="16.63327"><ele>62.0</ele><time>2026-03-22T15:07:28.452Z</time></trkpt><trkpt lat="40.5406967" lon="16.6331217"><ele>62.0</ele><time>2026-03-22T15:07:30.452Z</time></trkpt><trkpt lat="40.5408617" lon="16.633065"><ele>62.0</ele><time>2026-03-22T15:07:31.452Z</time></trkpt><trkpt lat="40.54103" lon="16.633015"><ele>62.0</ele><time>2026-03-22T15:07:32.454Z</time></trkpt><trkpt lat="40.5413783" lon="16.6329133"><ele>61.66666666666667</ele><time>2026-03-22T15:07:34.453Z</time></trkpt><trkpt lat="40.5415533" lon="16.632855"><ele>61.33333333333333</ele><time>2026-03-22T15:07:35.452Z</time></trkpt><trkpt lat="40.5417317" lon="16.63279"><ele>61.0</ele><time>2026-03-22T15:07:36.452Z</time></trkpt><trkpt lat="40.5419117" lon="16.632725"><ele>60.33333333333333</ele><time>2026-03-22T15:07:37.452Z</time></trkpt><trkpt lat="40.5420883" lon="16.6326583"><ele>59.66666666666667</ele><time>2026-03-22T15:07:38.452Z</time></trkpt><trkpt lat="40.5422667" lon="16.632595"><ele>59.0</ele><time>2026-03-22T15:07:39.452Z</time></trkpt><trkpt lat="40.5424417" lon="16.6325317"><ele>59.0</ele><time>2026-03-22T15:07:40.456Z</time></trkpt><trkpt lat="40.5427933" lon="16.6324017"><ele>59.0</ele><time>2026-03-22T15:07:42.452Z</time></trkpt><trkpt lat="40.542965" lon="16.632335"><ele>59.0</ele><time>2026-03-22T15:07:43.452Z</time></trkpt><trkpt lat="40.5431383" lon="16.6322733"><ele>59.0</ele><time>2026-03-22T15:07:44.452Z</time></trkpt><trkpt lat="40.5433167" lon="16.63221"><ele>59.0</ele><time>2026-03-22T15:07:45.452Z</time></trkpt><trkpt lat="40.5434933" lon="16.63215"><ele>58.0</ele><time>2026-03-22T15:07:46.452Z</time></trkpt><trkpt lat="40.544" lon="16.6319717"><ele>58.0</ele><time>2026-03-22T15:07:49.454Z</time></trkpt><trkpt lat="40.5441517" lon="16.631915"><ele>58.0</ele><time>2026-03-22T15:07:50.452Z</time></trkpt><trkpt lat="40.5442933" lon="16.631865"><ele>58.0</ele><time>2026-03-22T15:07:51.453Z</time></trkpt><trkpt lat="40.5444283" lon="16.63182"><ele>58.0</ele><time>2026-03-22T15:07:52.452Z</time></trkpt><trkpt lat="40.5445567" lon="16.6317733"><ele>58.0</ele><time>2026-03-22T15:07:53.452Z</time></trkpt><trkpt lat="40.5446783" lon="16.631735"><ele>58.0</ele><time>2026-03-22T15:07:54.452Z</time></trkpt><trkpt lat="40.544805" lon="16.631705"><ele>58.0</ele><time>2026-03-22T15:07:55.452Z</time></trkpt><trkpt lat="40.544935" lon="16.6316867"><ele>58.0</ele><time>2026-03-22T15:07:56.452Z</time></trkpt><trkpt lat="40.5450683" lon="16.631685"><ele>58.0</ele><time>2026-03-22T15:07:57.452Z</time></trkpt><trkpt lat="40.5452033" lon="16.6317017"><ele>58.0</ele><time>2026-03-22T15:07:58.452Z</time></trkpt><trkpt lat="40.5453383" lon="16.6317317"><ele>58.0</ele><time>2026-03-22T15:07:59.455Z</time></trkpt><trkpt lat="40.5454683" lon="16.6317733"><ele>58.0</ele><time>2026-03-22T15:08:00.453Z</time></trkpt><trkpt lat="40.5456017" lon="16.6318167"><ele>57.75</ele><time>2026-03-22T15:08:01.451Z</time></trkpt><trkpt lat="40.5457367" lon="16.631865"><ele>57.5</ele><time>2026-03-22T15:08:02.453Z</time></trkpt><trkpt lat="40.545875" lon="16.6319133"><ele>57.25</ele><time>2026-03-22T15:08:03.452Z</time></trkpt><trkpt lat="40.5460133" lon="16.6319667"><ele>57.0</ele><time>2026-03-22T15:08:04.452Z</time></trkpt><trkpt lat="40.546155" lon="16.6320233"><ele>58.25</ele><time>2026-03-22T15:08:05.453Z</time></trkpt><trkpt lat="40.546295" lon="16.6320833"><ele>59.5</ele><time>2026-03-22T15:08:06.452Z</time></trkpt><trkpt lat="40.5464317" lon="16.6321417"><ele>60.75</ele><time>2026-03-22T15:08:07.452Z</time></trkpt><trkpt lat="40.546565" lon="16.6321983"><ele>62.0</ele><time>2026-03-22T15:08:08.453Z</time></trkpt><trkpt lat="40.5466933" lon="16.632255"><ele>62.0</ele><time>2026-03-22T15:08:09.452Z</time></trkpt><trkpt lat="40.5468217" lon="16.6323083"><ele>62.0</ele><time>2026-03-22T15:08:10.452Z</time></trkpt><trkpt lat="40.54696" lon="16.63233"><ele>62.0</ele><time>2026-03-22T15:08:11.456Z</time></trkpt><trkpt lat="40.54711" lon="16.6323167"><ele>62.0</ele><time>2026-03-22T15:08:12.453Z</time></trkpt><trkpt lat="40.5472633" lon="16.6322833"><ele>61.0</ele><time>2026-03-22T15:08:13.452Z</time></trkpt><trkpt lat="40.5474183" lon="16.6322483"><ele>60.0</ele><time>2026-03-22T15:08:14.452Z</time></trkpt><trkpt lat="40.5475733" lon="16.6322167"><ele>59.0</ele><time>2026-03-22T15:08:15.453Z</time></trkpt><trkpt lat="40.5477283" lon="16.6321867"><ele>59.66666666666667</ele><time>2026-03-22T15:08:16.454Z</time></trkpt><trkpt lat="40.547885" lon="16.6321533"><ele>60.33333333333333</ele><time>2026-03-22T15:08:17.453Z</time></trkpt><trkpt lat="40.54804" lon="16.6321117"><ele>61.0</ele><time>2026-03-22T15:08:18.452Z</time></trkpt><trkpt lat="40.5481933" lon="16.632075"><ele>61.0</ele><time>2026-03-22T15:08:19.452Z</time></trkpt><trkpt lat="40.548345" lon="16.6320367"><ele>61.0</ele><time>2026-03-22T15:08:20.455Z</time></trkpt><trkpt lat="40.548495" lon="16.632"><ele>61.0</ele><time>2026-03-22T15:08:21.452Z</time></trkpt><trkpt lat="40.5486417" lon="16.6319717"><ele>60.25</ele><time>2026-03-22T15:08:22.452Z</time></trkpt><trkpt lat="40.5487867" lon="16.631945"><ele>59.5</ele><time>2026-03-22T15:08:23.453Z</time></trkpt><trkpt lat="40.5489317" lon="16.631915"><ele>58.75</ele><time>2026-03-22T15:08:24.452Z</time></trkpt><trkpt lat="40.5490783" lon="16.6318817"><ele>58.0</ele><time>2026-03-22T15:08:25.453Z</time></trkpt><trkpt lat="40.549225" lon="16.631845"><ele>58.0</ele><time>2026-03-22T15:08:26.453Z</time></trkpt><trkpt lat="40.549375" lon="16.63181"><ele>58.0</ele><time>2026-03-22T15:08:27.452Z</time></trkpt><trkpt lat="40.5495283" lon="16.631775"><ele>58.0</ele><time>2026-03-22T15:08:28.452Z</time></trkpt><trkpt lat="40.549685" lon="16.6317333"><ele>59.0</ele><time>2026-03-22T15:08:29.452Z</time></trkpt><trkpt lat="40.5498433" lon="16.63169"><ele>60.0</ele><time>2026-03-22T15:08:30.452Z</time></trkpt><trkpt lat="40.5500017" lon="16.6316383"><ele>61.0</ele><time>2026-03-22T15:08:31.452Z</time></trkpt><trkpt lat="40.5501583" lon="16.631575"><ele>61.0</ele><time>2026-03-22T15:08:32.454Z</time></trkpt><trkpt lat="40.5503117" lon="16.6314983"><ele>61.0</ele><time>2026-03-22T15:08:33.452Z</time></trkpt><trkpt lat="40.550465" lon="16.6314183"><ele>61.0</ele><time>2026-03-22T15:08:34.452Z</time></trkpt><trkpt lat="40.55062" lon="16.6313367"><ele>60.33333333333333</ele><time>2026-03-22T15:08:35.452Z</time></trkpt><trkpt lat="40.5507767" lon="16.6312567"><ele>59.66666666666667</ele><time>2026-03-22T15:08:36.452Z</time></trkpt><trkpt lat="40.5509333" lon="16.6311783"><ele>59.0</ele><time>2026-03-22T15:08:37.452Z</time></trkpt><trkpt lat="40.55109" lon="16.6311017"><ele>60.0</ele><time>2026-03-22T15:08:38.453Z</time></trkpt><trkpt lat="40.5512467" lon="16.6310267"><ele>61.0</ele><time>2026-03-22T15:08:39.452Z</time></trkpt><trkpt lat="40.5514" lon="16.63095"><ele>62.0</ele><time>2026-03-22T15:08:40.453Z</time></trkpt><trkpt lat="40.5515533" lon="16.63087"><ele>62.0</ele><time>2026-03-22T15:08:41.452Z</time></trkpt><trkpt lat="40.5517133" lon="16.6307883"><ele>62.0</ele><time>2026-03-22T15:08:42.451Z</time></trkpt><trkpt lat="40.551875" lon="16.6307017"><ele>62.0</ele><time>2026-03-22T15:08:43.452Z</time></trkpt><trkpt lat="40.55204" lon="16.630615"><ele>63.66666666666667</ele><time>2026-03-22T15:08:44.454Z</time></trkpt><trkpt lat="40.552205" lon="16.6305267"><ele>65.33333333333333</ele><time>2026-03-22T15:08:45.453Z</time></trkpt><trkpt lat="40.55237" lon="16.6304517"><ele>67.0</ele><time>2026-03-22T15:08:46.455Z</time></trkpt><trkpt lat="40.55254" lon="16.6303933"><ele>67.0</ele><time>2026-03-22T15:08:47.454Z</time></trkpt><trkpt lat="40.5527133" lon="16.63036"><ele>67.0</ele><time>2026-03-22T15:08:48.453Z</time></trkpt><trkpt lat="40.55289" lon="16.6303467"><ele>67.0</ele><time>2026-03-22T15:08:49.454Z</time></trkpt><trkpt lat="40.5530717" lon="16.6303467"><ele>66.33333333333333</ele><time>2026-03-22T15:08:50.453Z</time></trkpt><trkpt lat="40.55326" lon="16.6303533"><ele>65.66666666666667</ele><time>2026-03-22T15:08:51.454Z</time></trkpt><trkpt lat="40.5534433" lon="16.63036"><ele>65.0</ele><time>2026-03-22T15:08:52.453Z</time></trkpt><trkpt lat="40.5536283" lon="16.6303683"><ele>65.0</ele><time>2026-03-22T15:08:53.453Z</time></trkpt><trkpt lat="40.553815" lon="16.6303717"><ele>65.0</ele><time>2026-03-22T15:08:54.452Z</time></trkpt><trkpt lat="40.5540017" lon="16.6303733"><ele>65.0</ele><time>2026-03-22T15:08:55.452Z</time></trkpt><trkpt lat="40.55419" lon="16.6303767"><ele>65.0</ele><time>2026-03-22T15:08:56.452Z</time></trkpt><trkpt lat="40.5543783" lon="16.6303817"><ele>65.0</ele><time>2026-03-22T15:08:57.452Z</time></trkpt><trkpt lat="40.5545633" lon="16.6303883"><ele>65.0</ele><time>2026-03-22T15:08:58.453Z</time></trkpt><trkpt lat="40.5547467" lon="16.6303883"><ele>64.66666666666667</ele><time>2026-03-22T15:08:59.452Z</time></trkpt><trkpt lat="40.5549333" lon="16.6303633"><ele>64.33333333333333</ele><time>2026-03-22T15:09:00.452Z</time></trkpt><trkpt lat="40.55512" lon="16.6303067"><ele>64.0</ele><time>2026-03-22T15:09:01.451Z</time></trkpt><trkpt lat="40.5553083" lon="16.63022"><ele>63.666666666666664</ele><time>2026-03-22T15:09:02.452Z</time></trkpt><trkpt lat="40.5554983" lon="16.6301217"><ele>63.33333333333333</ele><time>2026-03-22T15:09:03.452Z</time></trkpt><trkpt lat="40.555685" lon="16.630015"><ele>63.0</ele><time>2026-03-22T15:09:04.452Z</time></trkpt><trkpt lat="40.5558733" lon="16.6299033"><ele>63.0</ele><time>2026-03-22T15:09:05.452Z</time></trkpt><trkpt lat="40.55606" lon="16.629795"><ele>63.0</ele><time>2026-03-22T15:09:06.452Z</time></trkpt><trkpt lat="40.5562467" lon="16.6296867"><ele>63.0</ele><time>2026-03-22T15:09:07.452Z</time></trkpt><trkpt lat="40.556435" lon="16.62958"><ele>62.66666666666667</ele><time>2026-03-22T15:09:08.452Z</time></trkpt><trkpt lat="40.5566233" lon="16.629475"><ele>62.333333333333336</ele><time>2026-03-22T15:09:09.452Z</time></trkpt><trkpt lat="40.55681" lon="16.6293717"><ele>62.0</ele><time>2026-03-22T15:09:10.453Z</time></trkpt><trkpt lat="40.5569933" lon="16.629265"><ele>62.333333333333336</ele><time>2026-03-22T15:09:11.453Z</time></trkpt><trkpt lat="40.557175" lon="16.6291533"><ele>62.66666666666667</ele><time>2026-03-22T15:09:12.452Z</time></trkpt><trkpt lat="40.5573533" lon="16.629045"><ele>63.0</ele><time>2026-03-22T15:09:13.452Z</time></trkpt><trkpt lat="40.5575317" lon="16.6289383"><ele>63.0</ele><time>2026-03-22T15:09:14.453Z</time></trkpt><trkpt lat="40.5577067" lon="16.628835"><ele>63.0</ele><time>2026-03-22T15:09:15.452Z</time></trkpt><trkpt lat="40.55788" lon="16.6287433"><ele>63.0</ele><time>2026-03-22T15:09:16.452Z</time></trkpt><trkpt lat="40.55806" lon="16.6286733"><ele>62.33333333333333</ele><time>2026-03-22T15:09:17.453Z</time></trkpt><trkpt lat="40.5582483" lon="16.6286367"><ele>61.666666666666664</ele><time>2026-03-22T15:09:18.453Z</time></trkpt><trkpt lat="40.5584483" lon="16.6286283"><ele>61.0</ele><time>2026-03-22T15:09:19.452Z</time></trkpt><trkpt lat="40.55865" lon="16.6286317"><ele>61.0</ele><time>2026-03-22T15:09:20.452Z</time></trkpt><trkpt lat="40.5588533" lon="16.6286383"><ele>61.0</ele><time>2026-03-22T15:09:21.451Z</time></trkpt><trkpt lat="40.5590567" lon="16.6286467"><ele>61.0</ele><time>2026-03-22T15:09:22.451Z</time></trkpt><trkpt lat="40.5592617" lon="16.6286567"><ele>62.666666666666664</ele><time>2026-03-22T15:09:23.453Z</time></trkpt><trkpt lat="40.5594667" lon="16.6286667"><ele>64.33333333333333</ele><time>2026-03-22T15:09:24.452Z</time></trkpt><trkpt lat="40.5596717" lon="16.6286733"><ele>66.0</ele><time>2026-03-22T15:09:25.453Z</time></trkpt><trkpt lat="40.559875" lon="16.6286767"><ele>66.33333333333333</ele><time>2026-03-22T15:09:26.452Z</time></trkpt><trkpt lat="40.560075" lon="16.6286817"><ele>66.66666666666666</ele><time>2026-03-22T15:09:27.454Z</time></trkpt><trkpt lat="40.5602733" lon="16.6286883"><ele>67.0</ele><time>2026-03-22T15:09:28.452Z</time></trkpt><trkpt lat="40.5604667" lon="16.6286917"><ele>65.66666666666666</ele><time>2026-03-22T15:09:29.452Z</time></trkpt><trkpt lat="40.5606567" lon="16.6286983"><ele>64.33333333333333</ele><time>2026-03-22T15:09:30.452Z</time></trkpt><trkpt lat="40.5608417" lon="16.6287083"><ele>63.0</ele><time>2026-03-22T15:09:31.452Z</time></trkpt><trkpt lat="40.5610267" lon="16.6287183"><ele>62.66666666666667</ele><time>2026-03-22T15:09:32.453Z</time></trkpt><trkpt lat="40.5612133" lon="16.6287233"><ele>62.333333333333336</ele><time>2026-03-22T15:09:33.455Z</time></trkpt><trkpt lat="40.5614" lon="16.6287283"><ele>62.0</ele><time>2026-03-22T15:09:34.457Z</time></trkpt><trkpt lat="40.5615833" lon="16.6287383"><ele>62.0</ele><time>2026-03-22T15:09:35.456Z</time></trkpt><trkpt lat="40.5617633" lon="16.62876"><ele>62.0</ele><time>2026-03-22T15:09:36.453Z</time></trkpt><trkpt lat="40.56194" lon="16.6287933"><ele>62.0</ele><time>2026-03-22T15:09:37.452Z</time></trkpt><trkpt lat="40.5621133" lon="16.6288283"><ele>62.333333333333336</ele><time>2026-03-22T15:09:38.453Z</time></trkpt><trkpt lat="40.5622833" lon="16.6288717"><ele>62.66666666666667</ele><time>2026-03-22T15:09:39.454Z</time></trkpt><trkpt lat="40.5624433" lon="16.62891"><ele>63.0</ele><time>2026-03-22T15:09:40.451Z</time></trkpt><trkpt lat="40.562585" lon="16.6289383"><ele>63.0</ele><time>2026-03-22T15:09:41.451Z</time></trkpt><trkpt lat="40.5627" lon="16.6289583"><ele>63.0</ele><time>2026-03-22T15:09:42.451Z</time></trkpt><trkpt lat="40.5627867" lon="16.6289867"><ele>63.0</ele><time>2026-03-22T15:09:43.453Z</time></trkpt><trkpt lat="40.5628533" lon="16.6290183"><ele>63.0</ele><time>2026-03-22T15:09:44.452Z</time></trkpt><trkpt lat="40.5628983" lon="16.6290783"><ele>63.0</ele><time>2026-03-22T15:09:45.452Z</time></trkpt><trkpt lat="40.562925" lon="16.6291967"><ele>63.0</ele><time>2026-03-22T15:09:46.452Z</time></trkpt><trkpt lat="40.5629517" lon="16.6293417"><ele>63.0</ele><time>2026-03-22T15:09:47.452Z</time></trkpt><trkpt lat="40.5629917" lon="16.6295"><ele>63.0</ele><time>2026-03-22T15:09:48.454Z</time></trkpt><trkpt lat="40.5630433" lon="16.629675"><ele>63.0</ele><time>2026-03-22T15:09:49.452Z</time></trkpt><trkpt lat="40.5631" lon="16.6298433"><ele>63.0</ele><time>2026-03-22T15:09:50.453Z</time></trkpt><trkpt lat="40.5631583" lon="16.6299967"><ele>63.0</ele><time>2026-03-22T15:09:51.453Z</time></trkpt><trkpt lat="40.5632183" lon="16.6301417"><ele>63.0</ele><time>2026-03-22T15:09:52.452Z</time></trkpt><trkpt lat="40.5632783" lon="16.6302833"><ele>63.0</ele><time>2026-03-22T15:09:53.453Z</time></trkpt><trkpt lat="40.56333" lon="16.630425"><ele>63.0</ele><time>2026-03-22T15:09:54.453Z</time></trkpt><trkpt lat="40.56337" lon="16.63058"><ele>63.0</ele><time>2026-03-22T15:09:55.455Z</time></trkpt><trkpt lat="40.5634" lon="16.630755"><ele>63.0</ele><time>2026-03-22T15:09:56.452Z</time></trkpt><trkpt lat="40.5634217" lon="16.63097"><ele>63.0</ele><time>2026-03-22T15:09:57.455Z</time></trkpt><trkpt lat="40.5634367" lon="16.6312"><ele>63.0</ele><time>2026-03-22T15:09:58.452Z</time></trkpt><trkpt lat="40.5634517" lon="16.6314233"><ele>63.0</ele><time>2026-03-22T15:09:59.452Z</time></trkpt><trkpt lat="40.56347" lon="16.6316383"><ele>63.0</ele><time>2026-03-22T15:10:00.451Z</time></trkpt><trkpt lat="40.5634867" lon="16.6318483"><ele>62.66666666666667</ele><time>2026-03-22T15:10:01.451Z</time></trkpt><trkpt lat="40.5635017" lon="16.6320533"><ele>62.333333333333336</ele><time>2026-03-22T15:10:02.453Z</time></trkpt><trkpt lat="40.5635217" lon="16.6322567"><ele>62.0</ele><time>2026-03-22T15:10:03.452Z</time></trkpt><trkpt lat="40.5635433" lon="16.6324583"><ele>62.0</ele><time>2026-03-22T15:10:04.452Z</time></trkpt><trkpt lat="40.563565" lon="16.6326567"><ele>62.0</ele><time>2026-03-22T15:10:05.452Z</time></trkpt><trkpt lat="40.5635833" lon="16.6328567"><ele>62.0</ele><time>2026-03-22T15:10:06.455Z</time></trkpt><trkpt lat="40.5636017" lon="16.63306"><ele>62.333333333333336</ele><time>2026-03-22T15:10:07.452Z</time></trkpt><trkpt lat="40.5636217" lon="16.6332667"><ele>62.66666666666667</ele><time>2026-03-22T15:10:08.452Z</time></trkpt><trkpt lat="40.5636433" lon="16.6334733"><ele>63.0</ele><time>2026-03-22T15:10:09.452Z</time></trkpt><trkpt lat="40.563665" lon="16.63368"><ele>63.66666666666667</ele><time>2026-03-22T15:10:10.452Z</time></trkpt><trkpt lat="40.5636867" lon="16.6338833"><ele>64.33333333333334</ele><time>2026-03-22T15:10:11.452Z</time></trkpt><trkpt lat="40.5637083" lon="16.63408"><ele>65.0</ele><time>2026-03-22T15:10:12.452Z</time></trkpt><trkpt lat="40.5637333" lon="16.63427"><ele>65.33333333333334</ele><time>2026-03-22T15:10:13.453Z</time></trkpt><trkpt lat="40.5637517" lon="16.6344583"><ele>65.66666666666667</ele><time>2026-03-22T15:10:14.454Z</time></trkpt><trkpt lat="40.5637583" lon="16.6346567"><ele>66.0</ele><time>2026-03-22T15:10:15.452Z</time></trkpt><trkpt lat="40.5637533" lon="16.634865"><ele>66.33333333333333</ele><time>2026-03-22T15:10:16.453Z</time></trkpt><trkpt lat="40.5637467" lon="16.6350733"><ele>66.66666666666666</ele><time>2026-03-22T15:10:17.452Z</time></trkpt><trkpt lat="40.56374" lon="16.6352783"><ele>67.0</ele><time>2026-03-22T15:10:18.453Z</time></trkpt><trkpt lat="40.5637333" lon="16.6354783"><ele>67.0</ele><time>2026-03-22T15:10:19.453Z</time></trkpt><trkpt lat="40.56373" lon="16.635675"><ele>67.0</ele><time>2026-03-22T15:10:20.452Z</time></trkpt><trkpt lat="40.5637333" lon="16.63587"><ele>67.0</ele><time>2026-03-22T15:10:21.453Z</time></trkpt><trkpt lat="40.5637283" lon="16.6360617"><ele>67.0</ele><time>2026-03-22T15:10:22.451Z</time></trkpt><trkpt lat="40.5637217" lon="16.6362533"><ele>67.5</ele><time>2026-03-22T15:10:23.452Z</time></trkpt><trkpt lat="40.5637133" lon="16.6364417"><ele>68.0</ele><time>2026-03-22T15:10:24.452Z</time></trkpt><trkpt lat="40.5637067" lon="16.636625"><ele>68.5</ele><time>2026-03-22T15:10:25.454Z</time></trkpt><trkpt lat="40.5636983" lon="16.6368"><ele>69.0</ele><time>2026-03-22T15:10:26.453Z</time></trkpt><trkpt lat="40.56369" lon="16.6369617"><ele>69.5</ele><time>2026-03-22T15:10:27.453Z</time></trkpt><trkpt lat="40.56368" lon="16.63712"><ele>70.0</ele><time>2026-03-22T15:10:28.452Z</time></trkpt><trkpt lat="40.56367" lon="16.637275"><ele>70.5</ele><time>2026-03-22T15:10:29.452Z</time></trkpt><trkpt lat="40.5636633" lon="16.6374333"><ele>71.0</ele><time>2026-03-22T15:10:30.454Z</time></trkpt><trkpt lat="40.5636583" lon="16.63759"><ele>71.0</ele><time>2026-03-22T15:10:31.452Z</time></trkpt><trkpt lat="40.563655" lon="16.6377433"><ele>71.0</ele><time>2026-03-22T15:10:32.452Z</time></trkpt><trkpt lat="40.5636533" lon="16.6378933"><ele>71.0</ele><time>2026-03-22T15:10:33.453Z</time></trkpt><trkpt lat="40.563655" lon="16.6380467"><ele>71.0</ele><time>2026-03-22T15:10:34.454Z</time></trkpt><trkpt lat="40.563655" lon="16.6382"><ele>71.0</ele><time>2026-03-22T15:10:35.452Z</time></trkpt><trkpt lat="40.5636483" lon="16.638355"><ele>71.0</ele><time>2026-03-22T15:10:36.452Z</time></trkpt><trkpt lat="40.5636417" lon="16.6385167"><ele>71.0</ele><time>2026-03-22T15:10:37.454Z</time></trkpt><trkpt lat="40.5636417" lon="16.6386767"><ele>71.0</ele><time>2026-03-22T15:10:38.452Z</time></trkpt><trkpt lat="40.5636467" lon="16.6388333"><ele>71.6</ele><time>2026-03-22T15:10:39.451Z</time></trkpt><trkpt lat="40.5636517" lon="16.6389817"><ele>72.19999999999999</ele><time>2026-03-22T15:10:40.451Z</time></trkpt><trkpt lat="40.5636517" lon="16.6391267"><ele>72.80000000000001</ele><time>2026-03-22T15:10:41.454Z</time></trkpt><trkpt lat="40.5636533" lon="16.6392717"><ele>73.4</ele><time>2026-03-22T15:10:42.453Z</time></trkpt><trkpt lat="40.5636583" lon="16.6394133"><ele>74.0</ele><time>2026-03-22T15:10:43.452Z</time></trkpt><trkpt lat="40.5636633" lon="16.6395533"><ele>74.2</ele><time>2026-03-22T15:10:44.452Z</time></trkpt><trkpt lat="40.563665" lon="16.63969"><ele>74.4</ele><time>2026-03-22T15:10:45.452Z</time></trkpt><trkpt lat="40.5636633" lon="16.6398283"><ele>74.6</ele><time>2026-03-22T15:10:46.453Z</time></trkpt><trkpt lat="40.5636667" lon="16.63997"><ele>74.8</ele><time>2026-03-22T15:10:47.456Z</time></trkpt><trkpt lat="40.56367" lon="16.6401167"><ele>75.0</ele><time>2026-03-22T15:10:48.452Z</time></trkpt><trkpt lat="40.5636733" lon="16.64026"><ele>75.4</ele><time>2026-03-22T15:10:49.452Z</time></trkpt><trkpt lat="40.563675" lon="16.6404017"><ele>75.8</ele><time>2026-03-22T15:10:50.453Z</time></trkpt><trkpt lat="40.5636767" lon="16.640545"><ele>76.2</ele><time>2026-03-22T15:10:51.454Z</time></trkpt><trkpt lat="40.5636783" lon="16.640685"><ele>76.6</ele><time>2026-03-22T15:10:52.452Z</time></trkpt><trkpt lat="40.56368" lon="16.640825"><ele>77.0</ele><time>2026-03-22T15:10:53.452Z</time></trkpt><trkpt lat="40.5636833" lon="16.64097"><ele>77.0</ele><time>2026-03-22T15:10:54.453Z</time></trkpt><trkpt lat="40.563685" lon="16.6411117"><ele>77.0</ele><time>2026-03-22T15:10:55.453Z</time></trkpt><trkpt lat="40.5636883" lon="16.6412567"><ele>77.0</ele><time>2026-03-22T15:10:56.453Z</time></trkpt><trkpt lat="40.56369" lon="16.6414"><ele>77.0</ele><time>2026-03-22T15:10:57.452Z</time></trkpt><trkpt lat="40.5636917" lon="16.6415417"><ele>77.0</ele><time>2026-03-22T15:10:58.452Z</time></trkpt><trkpt lat="40.563695" lon="16.6416867"><ele>77.2</ele><time>2026-03-22T15:10:59.453Z</time></trkpt><trkpt lat="40.5636967" lon="16.6418317"><ele>77.4</ele><time>2026-03-22T15:11:00.451Z</time></trkpt><trkpt lat="40.5637" lon="16.641975"><ele>77.6</ele><time>2026-03-22T15:11:01.451Z</time></trkpt><trkpt lat="40.5637" lon="16.6421167"><ele>77.8</ele><time>2026-03-22T15:11:02.452Z</time></trkpt><trkpt lat="40.5637017" lon="16.6422583"><ele>78.0</ele><time>2026-03-22T15:11:03.452Z</time></trkpt><trkpt lat="40.5637033" lon="16.6424017"><ele>79.0</ele><time>2026-03-22T15:11:04.454Z</time></trkpt><trkpt lat="40.5637033" lon="16.6425467"><ele>80.0</ele><time>2026-03-22T15:11:05.453Z</time></trkpt><trkpt lat="40.5637067" lon="16.642695"><ele>81.0</ele><time>2026-03-22T15:11:06.452Z</time></trkpt><trkpt lat="40.5637067" lon="16.64284"><ele>82.0</ele><time>2026-03-22T15:11:07.453Z</time></trkpt><trkpt lat="40.5637033" lon="16.6429783"><ele>83.0</ele><time>2026-03-22T15:11:08.453Z</time></trkpt><trkpt lat="40.5636983" lon="16.6431167"><ele>83.0</ele><time>2026-03-22T15:11:09.454Z</time></trkpt><trkpt lat="40.5636967" lon="16.6432583"><ele>83.0</ele><time>2026-03-22T15:11:10.452Z</time></trkpt><trkpt lat="40.5637" lon="16.6434083"><ele>83.0</ele><time>2026-03-22T15:11:11.452Z</time></trkpt><trkpt lat="40.5637067" lon="16.643565"><ele>83.0</ele><time>2026-03-22T15:11:12.453Z</time></trkpt><trkpt lat="40.563715" lon="16.64372"><ele>84.0</ele><time>2026-03-22T15:11:13.452Z</time></trkpt><trkpt lat="40.563725" lon="16.643875"><ele>85.0</ele><time>2026-03-22T15:11:14.453Z</time></trkpt><trkpt lat="40.5637333" lon="16.6440283"><ele>86.0</ele><time>2026-03-22T15:11:15.453Z</time></trkpt><trkpt lat="40.5637383" lon="16.64418"><ele>87.0</ele><time>2026-03-22T15:11:16.453Z</time></trkpt><trkpt lat="40.5637433" lon="16.6443333"><ele>87.0</ele><time>2026-03-22T15:11:17.454Z</time></trkpt><trkpt lat="40.5637483" lon="16.6444883"><ele>87.0</ele><time>2026-03-22T15:11:18.452Z</time></trkpt><trkpt lat="40.56375" lon="16.6446417"><ele>87.0</ele><time>2026-03-22T15:11:19.453Z</time></trkpt><trkpt lat="40.56375" lon="16.6447933"><ele>87.0</ele><time>2026-03-22T15:11:20.453Z</time></trkpt><trkpt lat="40.56375" lon="16.644945"><ele>87.0</ele><time>2026-03-22T15:11:21.451Z</time></trkpt><trkpt lat="40.5637533" lon="16.6451033"><ele>87.0</ele><time>2026-03-22T15:11:22.451Z</time></trkpt><trkpt lat="40.5637583" lon="16.6452617"><ele>87.0</ele><time>2026-03-22T15:11:23.453Z</time></trkpt><trkpt lat="40.5637633" lon="16.6454233"><ele>87.0</ele><time>2026-03-22T15:11:24.452Z</time></trkpt><trkpt lat="40.5637667" lon="16.6455867"><ele>87.5</ele><time>2026-03-22T15:11:25.452Z</time></trkpt><trkpt lat="40.56377" lon="16.6457467"><ele>88.0</ele><time>2026-03-22T15:11:26.454Z</time></trkpt><trkpt lat="40.5637683" lon="16.6459017"><ele>88.5</ele><time>2026-03-22T15:11:27.452Z</time></trkpt><trkpt lat="40.5637683" lon="16.6460517"><ele>89.0</ele><time>2026-03-22T15:11:28.452Z</time></trkpt><trkpt lat="40.5637683" lon="16.6462"><ele>91.0</ele><time>2026-03-22T15:11:29.452Z</time></trkpt><trkpt lat="40.5637667" lon="16.64635"><ele>93.0</ele><time>2026-03-22T15:11:30.453Z</time></trkpt><trkpt lat="40.563765" lon="16.6465"><ele>95.0</ele><time>2026-03-22T15:11:31.453Z</time></trkpt><trkpt lat="40.5637583" lon="16.6466483"><ele>97.0</ele><time>2026-03-22T15:11:32.452Z</time></trkpt><trkpt lat="40.56375" lon="16.6467917"><ele>97.0</ele><time>2026-03-22T15:11:33.452Z</time></trkpt><trkpt lat="40.5637383" lon="16.64693"><ele>97.0</ele><time>2026-03-22T15:11:34.452Z</time></trkpt><trkpt lat="40.56374" lon="16.6470683"><ele>97.0</ele><time>2026-03-22T15:11:35.452Z</time></trkpt><trkpt lat="40.5637433" lon="16.6472067"><ele>97.0</ele><time>2026-03-22T15:11:36.452Z</time></trkpt><trkpt lat="40.5637483" lon="16.64734"><ele>97.0</ele><time>2026-03-22T15:11:37.453Z</time></trkpt><trkpt lat="40.5637583" lon="16.6474767"><ele>98.19999999999999</ele><time>2026-03-22T15:11:38.454Z</time></trkpt><trkpt lat="40.5637733" lon="16.6476133"><ele>99.4</ele><time>2026-03-22T15:11:39.452Z</time></trkpt><trkpt lat="40.5637917" lon="16.64775"><ele>100.6</ele><time>2026-03-22T15:11:40.451Z</time></trkpt><trkpt lat="40.5638117" lon="16.6478833"><ele>101.80000000000001</ele><time>2026-03-22T15:11:41.452Z</time></trkpt><trkpt lat="40.5638267" lon="16.64801"><ele>103.0</ele><time>2026-03-22T15:11:42.451Z</time></trkpt><trkpt lat="40.5638417" lon="16.648135"><ele>103.0</ele><time>2026-03-22T15:11:43.452Z</time></trkpt><trkpt lat="40.5638583" lon="16.6482583"><ele>103.0</ele><time>2026-03-22T15:11:44.453Z</time></trkpt><trkpt lat="40.5638733" lon="16.6483783"><ele>103.0</ele><time>2026-03-22T15:11:45.453Z</time></trkpt><trkpt lat="40.5638933" lon="16.6485017"><ele>103.0</ele><time>2026-03-22T15:11:46.452Z</time></trkpt><trkpt lat="40.5639183" lon="16.6486217"><ele>103.0</ele><time>2026-03-22T15:11:47.456Z</time></trkpt><trkpt lat="40.563945" lon="16.6487333"><ele>103.00000000000001</ele><time>2026-03-22T15:11:48.453Z</time></trkpt><trkpt lat="40.56397" lon="16.6488367"><ele>103.0</ele><time>2026-03-22T15:11:49.453Z</time></trkpt><trkpt lat="40.5639933" lon="16.6489217"><ele>103.0</ele><time>2026-03-22T15:11:50.453Z</time></trkpt><trkpt lat="40.5640267" lon="16.6490367"><ele>103.0</ele><time>2026-03-22T15:11:52.452Z</time></trkpt><trkpt lat="40.56407" lon="16.6491067"><ele>103.00000000000001</ele><time>2026-03-22T15:11:54.452Z</time></trkpt><trkpt lat="40.56417" lon="16.64915"><ele>103.0</ele><time>2026-03-22T15:11:56.452Z</time></trkpt><trkpt lat="40.56428" lon="16.64921"><ele>103.00000000000001</ele><time>2026-03-22T15:11:58.452Z</time></trkpt><trkpt lat="40.5643367" lon="16.6492817"><ele>103.0</ele><time>2026-03-22T15:11:59.452Z</time></trkpt><trkpt lat="40.5643983" lon="16.649365"><ele>103.0</ele><time>2026-03-22T15:12:00.451Z</time></trkpt><trkpt lat="40.5644583" lon="16.6494533"><ele>103.0</ele><time>2026-03-22T15:12:01.452Z</time></trkpt><trkpt lat="40.5645183" lon="16.64954"><ele>103.00000000000001</ele><time>2026-03-22T15:12:02.452Z</time></trkpt><trkpt lat="40.5645783" lon="16.6496233"><ele>103.0</ele><time>2026-03-22T15:12:03.452Z</time></trkpt><trkpt lat="40.5646383" lon="16.649705"><ele>104.83333333333334</ele><time>2026-03-22T15:12:04.452Z</time></trkpt><trkpt lat="40.564695" lon="16.64978"><ele>106.66666666666667</ele><time>2026-03-22T15:12:05.452Z</time></trkpt><trkpt lat="40.5647567" lon="16.6498517"><ele>108.5</ele><time>2026-03-22T15:12:06.452Z</time></trkpt><trkpt lat="40.5648167" lon="16.6499217"><ele>110.33333333333334</ele><time>2026-03-22T15:12:07.453Z</time></trkpt><trkpt lat="40.564875" lon="16.649995"><ele>112.16666666666667</ele><time>2026-03-22T15:12:08.454Z</time></trkpt><trkpt lat="40.5649333" lon="16.65007"><ele>114.0</ele><time>2026-03-22T15:12:09.452Z</time></trkpt><trkpt lat="40.5649833" lon="16.65015"><ele>114.0</ele><time>2026-03-22T15:12:10.452Z</time></trkpt><trkpt lat="40.565025" lon="16.6502317"><ele>113.99999999999999</ele><time>2026-03-22T15:12:11.454Z</time></trkpt><trkpt lat="40.5650617" lon="16.65031"><ele>114.0</ele><time>2026-03-22T15:12:12.452Z</time></trkpt><trkpt lat="40.565105" lon="16.6503817"><ele>114.0</ele><time>2026-03-22T15:12:13.452Z</time></trkpt><trkpt lat="40.5651583" lon="16.6504467"><ele>113.99999999999999</ele><time>2026-03-22T15:12:14.452Z</time></trkpt><trkpt lat="40.5652083" lon="16.6505133"><ele>114.0</ele><time>2026-03-22T15:12:15.453Z</time></trkpt><trkpt lat="40.5652433" lon="16.6505883"><ele>114.0</ele><time>2026-03-22T15:12:16.452Z</time></trkpt><trkpt lat="40.56525" lon="16.6507417"><ele>113.83333333333333</ele><time>2026-03-22T15:12:18.453Z</time></trkpt><trkpt lat="40.5652283" lon="16.6508217"><ele>113.66666666666666</ele><time>2026-03-22T15:12:19.454Z</time></trkpt><trkpt lat="40.5651967" lon="16.6509083"><ele>113.5</ele><time>2026-03-22T15:12:20.452Z</time></trkpt><trkpt lat="40.5651717" lon="16.6510067"><ele>113.33333333333333</ele><time>2026-03-22T15:12:21.451Z</time></trkpt><trkpt lat="40.56515" lon="16.6511083"><ele>113.16666666666666</ele><time>2026-03-22T15:12:22.455Z</time></trkpt><trkpt lat="40.5651283" lon="16.6512067"><ele>113.0</ele><time>2026-03-22T15:12:23.452Z</time></trkpt><trkpt lat="40.5651083" lon="16.6513067"><ele>113.66666666666666</ele><time>2026-03-22T15:12:24.452Z</time></trkpt><trkpt lat="40.5650917" lon="16.6514083"><ele>114.33333333333333</ele><time>2026-03-22T15:12:25.452Z</time></trkpt><trkpt lat="40.56507" lon="16.6515017"><ele>115.0</ele><time>2026-03-22T15:12:26.454Z</time></trkpt><trkpt lat="40.5650517" lon="16.6515933"><ele>115.66666666666666</ele><time>2026-03-22T15:12:27.452Z</time></trkpt><trkpt lat="40.56504" lon="16.6516917"><ele>116.33333333333333</ele><time>2026-03-22T15:12:28.453Z</time></trkpt><trkpt lat="40.5650367" lon="16.6517967"><ele>117.0</ele><time>2026-03-22T15:12:29.452Z</time></trkpt><trkpt lat="40.5650417" lon="16.6519"><ele>117.5</ele><time>2026-03-22T15:12:30.453Z</time></trkpt><trkpt lat="40.5650483" lon="16.652005"><ele>118.0</ele><time>2026-03-22T15:12:31.452Z</time></trkpt><trkpt lat="40.5650533" lon="16.6521033"><ele>118.5</ele><time>2026-03-22T15:12:32.452Z</time></trkpt><trkpt lat="40.5650533" lon="16.6521967"><ele>119.0</ele><time>2026-03-22T15:12:33.453Z</time></trkpt><trkpt lat="40.56505" lon="16.6522883"><ele>119.5</ele><time>2026-03-22T15:12:34.453Z</time></trkpt><trkpt lat="40.5650333" lon="16.6523883"><ele>120.0</ele><time>2026-03-22T15:12:35.453Z</time></trkpt><trkpt lat="40.56501" lon="16.6524867"><ele>120.0</ele><time>2026-03-22T15:12:36.451Z</time></trkpt><trkpt lat="40.5649883" lon="16.6525867"><ele>120.0</ele><time>2026-03-22T15:12:37.452Z</time></trkpt><trkpt lat="40.56497" lon="16.65269"><ele>120.0</ele><time>2026-03-22T15:12:38.453Z</time></trkpt><trkpt lat="40.5649467" lon="16.65279"><ele>120.0</ele><time>2026-03-22T15:12:39.452Z</time></trkpt><trkpt lat="40.56492" lon="16.652885"><ele>120.0</ele><time>2026-03-22T15:12:40.451Z</time></trkpt><trkpt lat="40.5648933" lon="16.65298"><ele>120.0</ele><time>2026-03-22T15:12:41.451Z</time></trkpt><trkpt lat="40.56487" lon="16.653075"><ele>121.16666666666667</ele><time>2026-03-22T15:12:42.451Z</time></trkpt><trkpt lat="40.5648467" lon="16.6531733"><ele>122.33333333333334</ele><time>2026-03-22T15:12:43.453Z</time></trkpt><trkpt lat="40.5648267" lon="16.6532767"><ele>123.5</ele><time>2026-03-22T15:12:44.452Z</time></trkpt><trkpt lat="40.5648067" lon="16.6533833"><ele>124.66666666666667</ele><time>2026-03-22T15:12:45.452Z</time></trkpt><trkpt lat="40.56479" lon="16.653485"><ele>125.83333333333334</ele><time>2026-03-22T15:12:46.452Z</time></trkpt><trkpt lat="40.5647683" lon="16.6535817"><ele>127.0</ele><time>2026-03-22T15:12:47.452Z</time></trkpt><trkpt lat="40.5647483" lon="16.6536783"><ele>127.83333333333334</ele><time>2026-03-22T15:12:48.452Z</time></trkpt><trkpt lat="40.564725" lon="16.653775"><ele>128.66666666666669</ele><time>2026-03-22T15:12:49.452Z</time></trkpt><trkpt lat="40.564705" lon="16.653875"><ele>129.5</ele><time>2026-03-22T15:12:50.454Z</time></trkpt><trkpt lat="40.56469" lon="16.653975"><ele>130.33333333333334</ele><time>2026-03-22T15:12:51.452Z</time></trkpt><trkpt lat="40.5646733" lon="16.6540683"><ele>131.16666666666666</ele><time>2026-03-22T15:12:52.452Z</time></trkpt><trkpt lat="40.5646583" lon="16.6541567"><ele>132.0</ele><time>2026-03-22T15:12:53.452Z</time></trkpt><trkpt lat="40.5646083" lon="16.6542867"><ele>130.66666666666666</ele><time>2026-03-22T15:12:55.451Z</time></trkpt><trkpt lat="40.5645067" lon="16.65432"><ele>129.33333333333334</ele><time>2026-03-22T15:12:57.452Z</time></trkpt><trkpt lat="40.56444" lon="16.654295"><ele>128.0</ele><time>2026-03-22T15:12:58.452Z</time></trkpt><trkpt lat="40.564375" lon="16.6542533"><ele>126.66666666666667</ele><time>2026-03-22T15:12:59.452Z</time></trkpt><trkpt lat="40.5643167" lon="16.654215"><ele>125.33333333333334</ele><time>2026-03-22T15:13:00.451Z</time></trkpt><trkpt lat="40.564215" lon="16.6541733"><ele>124.0</ele><time>2026-03-22T15:13:02.451Z</time></trkpt><trkpt lat="40.5641333" lon="16.6541683"><ele>124.00000000000001</ele><time>2026-03-22T15:13:04.453Z</time></trkpt><trkpt lat="40.5640883" lon="16.6542283"><ele>124.0</ele><time>2026-03-22T15:13:06.452Z</time></trkpt><trkpt lat="40.56402" lon="16.6543733"><ele>124.0</ele><time>2026-03-22T15:13:08.453Z</time></trkpt><trkpt lat="40.56398" lon="16.654445"><ele>124.0</ele><time>2026-03-22T15:13:09.452Z</time></trkpt><trkpt lat="40.563915" lon="16.6545567"><ele>124.00000000000001</ele><time>2026-03-22T15:13:11.453Z</time></trkpt><trkpt lat="40.5638667" lon="16.6546267"><ele>124.0</ele><time>2026-03-22T15:13:13.451Z</time></trkpt><trkpt lat="40.5639267" lon="16.6545867"><ele>124.00000000000001</ele><time>2026-03-22T15:13:28.452Z</time></trkpt><trkpt lat="40.5639467" lon="16.6545017"><ele>124.0</ele><time>2026-03-22T15:13:30.452Z</time></trkpt><trkpt lat="40.5640117" lon="16.6544183"><ele>124.0</ele><time>2026-03-22T15:13:32.452Z</time></trkpt><trkpt lat="40.5640783" lon="16.65431"><ele>124.0</ele><time>2026-03-22T15:13:34.451Z</time></trkpt><trkpt lat="40.564135" lon="16.6542133"><ele>124.00000000000001</ele><time>2026-03-22T15:13:36.452Z</time></trkpt><trkpt lat="40.5642" lon="16.6541667"><ele>124.0</ele><time>2026-03-22T15:13:38.453Z</time></trkpt><trkpt lat="40.564285" lon="16.6541767"><ele>124.0</ele><time>2026-03-22T15:13:40.452Z</time></trkpt><trkpt lat="40.564395" lon="16.654255"><ele>124.0</ele><time>2026-03-22T15:13:42.453Z</time></trkpt><trkpt lat="40.5644967" lon="16.6543133"><ele>124.0</ele><time>2026-03-22T15:13:44.452Z</time></trkpt><trkpt lat="40.5645617" lon="16.654335"><ele>124.0</ele><time>2026-03-22T15:13:46.455Z</time></trkpt><trkpt lat="40.564625" lon="16.65425"><ele>124.0</ele><time>2026-03-22T15:14:09.455Z</time></trkpt><trkpt lat="40.564645" lon="16.6541683"><ele>124.50000000000001</ele><time>2026-03-22T15:14:10.452Z</time></trkpt><trkpt lat="40.56466" lon="16.65407"><ele>125.0</ele><time>2026-03-22T15:14:11.452Z</time></trkpt><trkpt lat="40.56468" lon="16.6539667"><ele>125.5</ele><time>2026-03-22T15:14:12.455Z</time></trkpt><trkpt lat="40.5647017" lon="16.6538633"><ele>126.0</ele><time>2026-03-22T15:14:13.453Z</time></trkpt><trkpt lat="40.56472" lon="16.653765"><ele>126.50000000000001</ele><time>2026-03-22T15:14:14.452Z</time></trkpt><trkpt lat="40.5647383" lon="16.653665"><ele>127.0</ele><time>2026-03-22T15:14:15.451Z</time></trkpt><trkpt lat="40.5647583" lon="16.6535633"><ele>127.00000000000001</ele><time>2026-03-22T15:14:16.455Z</time></trkpt><trkpt lat="40.56478" lon="16.6534633"><ele>127.0</ele><time>2026-03-22T15:14:17.452Z</time></trkpt><trkpt lat="40.5648017" lon="16.653365"><ele>127.0</ele><time>2026-03-22T15:14:18.452Z</time></trkpt><trkpt lat="40.5648233" lon="16.65327"><ele>127.0</ele><time>2026-03-22T15:14:19.452Z</time></trkpt><trkpt lat="40.5648433" lon="16.6531733"><ele>127.00000000000001</ele><time>2026-03-22T15:14:20.451Z</time></trkpt><trkpt lat="40.5648667" lon="16.6530783"><ele>127.0</ele><time>2026-03-22T15:14:21.452Z</time></trkpt><trkpt lat="40.56489" lon="16.652985"><ele>127.00000000000001</ele><time>2026-03-22T15:14:22.451Z</time></trkpt><trkpt lat="40.5649133" lon="16.6528967"><ele>127.0</ele><time>2026-03-22T15:14:23.452Z</time></trkpt><trkpt lat="40.5649383" lon="16.6528083"><ele>127.0</ele><time>2026-03-22T15:14:24.453Z</time></trkpt><trkpt lat="40.56496" lon="16.6527183"><ele>127.0</ele><time>2026-03-22T15:14:25.452Z</time></trkpt><trkpt lat="40.5649767" lon="16.6526317"><ele>127.00000000000001</ele><time>2026-03-22T15:14:26.452Z</time></trkpt><trkpt lat="40.5649917" lon="16.65255"><ele>127.0</ele><time>2026-03-22T15:14:27.451Z</time></trkpt><trkpt lat="40.5650183" lon="16.6524017"><ele>125.6</ele><time>2026-03-22T15:14:29.452Z</time></trkpt><trkpt lat="40.5650417" lon="16.65226"><ele>124.19999999999999</ele><time>2026-03-22T15:14:31.452Z</time></trkpt><trkpt lat="40.5650517" lon="16.652105"><ele>122.8</ele><time>2026-03-22T15:14:33.451Z</time></trkpt><trkpt lat="40.56505" lon="16.6520217"><ele>121.4</ele><time>2026-03-22T15:14:34.453Z</time></trkpt><trkpt lat="40.5650383" lon="16.6518617"><ele>120.0</ele><time>2026-03-22T15:14:36.453Z</time></trkpt><trkpt lat="40.5650433" lon="16.6516933"><ele>119.4</ele><time>2026-03-22T15:14:38.453Z</time></trkpt><trkpt lat="40.5650517" lon="16.6516017"><ele>118.8</ele><time>2026-03-22T15:14:39.452Z</time></trkpt><trkpt lat="40.565065" lon="16.6515117"><ele>118.19999999999999</ele><time>2026-03-22T15:14:40.451Z</time></trkpt><trkpt lat="40.5650783" lon="16.651425"><ele>117.6</ele><time>2026-03-22T15:14:41.452Z</time></trkpt><trkpt lat="40.5651083" lon="16.6512667"><ele>117.0</ele><time>2026-03-22T15:14:43.452Z</time></trkpt><trkpt lat="40.56514" lon="16.6511117"><ele>116.19999999999999</ele><time>2026-03-22T15:14:45.451Z</time></trkpt><trkpt lat="40.5651767" lon="16.65096"><ele>115.39999999999999</ele><time>2026-03-22T15:14:47.452Z</time></trkpt><trkpt lat="40.5652133" lon="16.6508183"><ele>114.60000000000001</ele><time>2026-03-22T15:14:49.452Z</time></trkpt><trkpt lat="40.565255" lon="16.6506967"><ele>113.80000000000001</ele><time>2026-03-22T15:14:51.453Z</time></trkpt><trkpt lat="40.56525" lon="16.6505683"><ele>113.0</ele><time>2026-03-22T15:14:53.452Z</time></trkpt><trkpt lat="40.565215" lon="16.6504917"><ele>113.0</ele><time>2026-03-22T15:14:54.451Z</time></trkpt><trkpt lat="40.5651667" lon="16.6504167"><ele>113.0</ele><time>2026-03-22T15:14:55.452Z</time></trkpt><trkpt lat="40.565115" lon="16.6503533"><ele>113.0</ele><time>2026-03-22T15:14:56.452Z</time></trkpt><trkpt lat="40.5650733" lon="16.6502867"><ele>113.0</ele><time>2026-03-22T15:14:57.452Z</time></trkpt><trkpt lat="40.56504" lon="16.6502133"><ele>113.0</ele><time>2026-03-22T15:14:58.453Z</time></trkpt><trkpt lat="40.5650033" lon="16.650135"><ele>113.0</ele><time>2026-03-22T15:14:59.452Z</time></trkpt><trkpt lat="40.56496" lon="16.6500583"><ele>113.0</ele><time>2026-03-22T15:15:00.451Z</time></trkpt><trkpt lat="40.5649117" lon="16.6499883"><ele>113.14285714285714</ele><time>2026-03-22T15:15:01.452Z</time></trkpt><trkpt lat="40.5648583" lon="16.6499183"><ele>113.28571428571428</ele><time>2026-03-22T15:15:02.451Z</time></trkpt><trkpt lat="40.5648033" lon="16.6498483"><ele>113.42857142857142</ele><time>2026-03-22T15:15:03.452Z</time></trkpt><trkpt lat="40.5647483" lon="16.6497833"><ele>113.57142857142857</ele><time>2026-03-22T15:15:04.451Z</time></trkpt><trkpt lat="40.564695" lon="16.6497217"><ele>113.7142857142857</ele><time>2026-03-22T15:15:05.452Z</time></trkpt><trkpt lat="40.5646433" lon="16.6496567"><ele>113.85714285714285</ele><time>2026-03-22T15:15:06.451Z</time></trkpt><trkpt lat="40.5645917" lon="16.6495917"><ele>114.0</ele><time>2026-03-22T15:15:07.452Z</time></trkpt><trkpt lat="40.5645417" lon="16.64953"><ele>112.83333333333333</ele><time>2026-03-22T15:15:08.452Z</time></trkpt><trkpt lat="40.5644933" lon="16.649465"><ele>111.66666666666666</ele><time>2026-03-22T15:15:09.453Z</time></trkpt><trkpt lat="40.5644467" lon="16.6494"><ele>110.5</ele><time>2026-03-22T15:15:10.453Z</time></trkpt><trkpt lat="40.5644017" lon="16.6493383"><ele>109.33333333333333</ele><time>2026-03-22T15:15:11.452Z</time></trkpt><trkpt lat="40.5643567" lon="16.6492783"><ele>108.16666666666666</ele><time>2026-03-22T15:15:12.451Z</time></trkpt><trkpt lat="40.5642717" lon="16.6491817"><ele>107.0</ele><time>2026-03-22T15:15:14.453Z</time></trkpt><trkpt lat="40.5641917" lon="16.649125"><ele>106.19999999999999</ele><time>2026-03-22T15:15:16.452Z</time></trkpt><trkpt lat="40.564095" lon="16.6491067"><ele>105.39999999999999</ele><time>2026-03-22T15:15:18.452Z</time></trkpt><trkpt lat="40.56401" lon="16.6490567"><ele>104.6</ele><time>2026-03-22T15:15:20.453Z</time></trkpt><trkpt lat="40.56398" lon="16.6489267"><ele>103.80000000000001</ele><time>2026-03-22T15:15:22.452Z</time></trkpt><trkpt lat="40.56395" lon="16.648775"><ele>103.0</ele><time>2026-03-22T15:15:24.453Z</time></trkpt><trkpt lat="40.563925" lon="16.64868"><ele>103.00000000000001</ele><time>2026-03-22T15:15:25.452Z</time></trkpt><trkpt lat="40.563905" lon="16.6485767"><ele>103.0</ele><time>2026-03-22T15:15:26.452Z</time></trkpt><trkpt lat="40.563885" lon="16.64847"><ele>103.0</ele><time>2026-03-22T15:15:27.453Z</time></trkpt><trkpt lat="40.56387" lon="16.6483567"><ele>103.0</ele><time>2026-03-22T15:15:28.451Z</time></trkpt><trkpt lat="40.5638567" lon="16.6482467"><ele>103.00000000000001</ele><time>2026-03-22T15:15:29.451Z</time></trkpt><trkpt lat="40.5638417" lon="16.648135"><ele>103.0</ele><time>2026-03-22T15:15:30.451Z</time></trkpt><trkpt lat="40.5638267" lon="16.648025"><ele>103.00000000000001</ele><time>2026-03-22T15:15:31.453Z</time></trkpt><trkpt lat="40.563815" lon="16.6479167"><ele>103.0</ele><time>2026-03-22T15:15:32.452Z</time></trkpt><trkpt lat="40.5638" lon="16.6478133"><ele>103.0</ele><time>2026-03-22T15:15:33.454Z</time></trkpt><trkpt lat="40.5637833" lon="16.6477083"><ele>103.0</ele><time>2026-03-22T15:15:34.452Z</time></trkpt><trkpt lat="40.5637667" lon="16.647605"><ele>103.00000000000001</ele><time>2026-03-22T15:15:35.452Z</time></trkpt><trkpt lat="40.5637567" lon="16.6475"><ele>103.0</ele><time>2026-03-22T15:15:36.452Z</time></trkpt><trkpt lat="40.5637517" lon="16.647395"><ele>103.00000000000001</ele><time>2026-03-22T15:15:37.452Z</time></trkpt><trkpt lat="40.56375" lon="16.64729"><ele>103.0</ele><time>2026-03-22T15:15:38.452Z</time></trkpt><trkpt lat="40.5637483" lon="16.6471867"><ele>103.0</ele><time>2026-03-22T15:15:39.451Z</time></trkpt><trkpt lat="40.5637467" lon="16.6470833"><ele>103.0</ele><time>2026-03-22T15:15:40.452Z</time></trkpt><trkpt lat="40.5637483" lon="16.6469783"><ele>103.00000000000001</ele><time>2026-03-22T15:15:41.451Z</time></trkpt><trkpt lat="40.563755" lon="16.646875"><ele>103.0</ele><time>2026-03-22T15:15:42.452Z</time></trkpt><trkpt lat="40.5637667" lon="16.6467683"><ele>102.00000000000001</ele><time>2026-03-22T15:15:43.452Z</time></trkpt><trkpt lat="40.563775" lon="16.6466633"><ele>101.0</ele><time>2026-03-22T15:15:44.452Z</time></trkpt><trkpt lat="40.5637783" lon="16.646565"><ele>100.0</ele><time>2026-03-22T15:15:45.452Z</time></trkpt><trkpt lat="40.5637783" lon="16.6464683"><ele>99.0</ele><time>2026-03-22T15:15:46.453Z</time></trkpt><trkpt lat="40.5637783" lon="16.6463633"><ele>98.00000000000001</ele><time>2026-03-22T15:15:47.452Z</time></trkpt><trkpt lat="40.5637767" lon="16.646255"><ele>97.0</ele><time>2026-03-22T15:15:48.453Z</time></trkpt><trkpt lat="40.5637767" lon="16.646155"><ele>95.66666666666667</ele><time>2026-03-22T15:15:49.452Z</time></trkpt><trkpt lat="40.5637767" lon="16.6460533"><ele>94.33333333333334</ele><time>2026-03-22T15:15:50.452Z</time></trkpt><trkpt lat="40.5637767" lon="16.645955"><ele>93.0</ele><time>2026-03-22T15:15:51.452Z</time></trkpt><trkpt lat="40.5637733" lon="16.6458567"><ele>91.66666666666667</ele><time>2026-03-22T15:15:52.452Z</time></trkpt><trkpt lat="40.56377" lon="16.6457533"><ele>90.33333333333334</ele><time>2026-03-22T15:15:53.452Z</time></trkpt><trkpt lat="40.5637683" lon="16.6456467"><ele>89.0</ele><time>2026-03-22T15:15:54.452Z</time></trkpt><trkpt lat="40.5637617" lon="16.6455367"><ele>89.0</ele><time>2026-03-22T15:15:55.453Z</time></trkpt><trkpt lat="40.5637567" lon="16.6454283"><ele>89.0</ele><time>2026-03-22T15:15:56.453Z</time></trkpt><trkpt lat="40.563755" lon="16.6453183"><ele>89.0</ele><time>2026-03-22T15:15:57.453Z</time></trkpt><trkpt lat="40.5637567" lon="16.6452067"><ele>89.0</ele><time>2026-03-22T15:15:58.452Z</time></trkpt><trkpt lat="40.56376" lon="16.6450933"><ele>89.0</ele><time>2026-03-22T15:15:59.451Z</time></trkpt><trkpt lat="40.5637583" lon="16.6449817"><ele>89.0</ele><time>2026-03-22T15:16:00.451Z</time></trkpt><trkpt lat="40.563755" lon="16.644875"><ele>88.66666666666667</ele><time>2026-03-22T15:16:01.452Z</time></trkpt><trkpt lat="40.56375" lon="16.6447733"><ele>88.33333333333334</ele><time>2026-03-22T15:16:02.451Z</time></trkpt><trkpt lat="40.5637467" lon="16.64467"><ele>88.0</ele><time>2026-03-22T15:16:03.452Z</time></trkpt><trkpt lat="40.5637433" lon="16.64457"><ele>87.66666666666667</ele><time>2026-03-22T15:16:04.452Z</time></trkpt><trkpt lat="40.5637417" lon="16.6444717"><ele>87.33333333333333</ele><time>2026-03-22T15:16:05.452Z</time></trkpt><trkpt lat="40.5637383" lon="16.64437"><ele>87.0</ele><time>2026-03-22T15:16:06.451Z</time></trkpt><trkpt lat="40.5637333" lon="16.6442633"><ele>87.0</ele><time>2026-03-22T15:16:07.452Z</time></trkpt><trkpt lat="40.5637317" lon="16.6441567"><ele>87.0</ele><time>2026-03-22T15:16:08.453Z</time></trkpt><trkpt lat="40.5637283" lon="16.64405"><ele>87.0</ele><time>2026-03-22T15:16:09.452Z</time></trkpt><trkpt lat="40.563725" lon="16.6439417"><ele>87.0</ele><time>2026-03-22T15:16:10.453Z</time></trkpt><trkpt lat="40.5637183" lon="16.643835"><ele>87.0</ele><time>2026-03-22T15:16:11.452Z</time></trkpt><trkpt lat="40.5637117" lon="16.6437283"><ele>87.0</ele><time>2026-03-22T15:16:12.453Z</time></trkpt><trkpt lat="40.5637067" lon="16.643625"><ele>86.83333333333333</ele><time>2026-03-22T15:16:13.452Z</time></trkpt><trkpt lat="40.5637017" lon="16.6435217"><ele>86.66666666666667</ele><time>2026-03-22T15:16:14.453Z</time></trkpt><trkpt lat="40.5636967" lon="16.6434167"><ele>86.5</ele><time>2026-03-22T15:16:15.454Z</time></trkpt><trkpt lat="40.5636933" lon="16.643315"><ele>86.33333333333334</ele><time>2026-03-22T15:16:16.455Z</time></trkpt><trkpt lat="40.5636933" lon="16.6432133"><ele>86.16666666666667</ele><time>2026-03-22T15:16:17.452Z</time></trkpt><trkpt lat="40.5636933" lon="16.6431117"><ele>86.0</ele><time>2026-03-22T15:16:18.452Z</time></trkpt><trkpt lat="40.5636983" lon="16.6430133"><ele>86.0</ele><time>2026-03-22T15:16:19.451Z</time></trkpt><trkpt lat="40.5637017" lon="16.6429133"><ele>86.0</ele><time>2026-03-22T15:16:20.453Z</time></trkpt><trkpt lat="40.5637" lon="16.6428117"><ele>86.0</ele><time>2026-03-22T15:16:21.451Z</time></trkpt><trkpt lat="40.5636983" lon="16.6427117"><ele>86.0</ele><time>2026-03-22T15:16:22.451Z</time></trkpt><trkpt lat="40.5636933" lon="16.6426083"><ele>86.0</ele><time>2026-03-22T15:16:23.453Z</time></trkpt><trkpt lat="40.5636917" lon="16.6425067"><ele>86.0</ele><time>2026-03-22T15:16:24.454Z</time></trkpt><trkpt lat="40.5636933" lon="16.6424083"><ele>85.5</ele><time>2026-03-22T15:16:25.452Z</time></trkpt><trkpt lat="40.563695" lon="16.6423117"><ele>85.0</ele><time>2026-03-22T15:16:26.452Z</time></trkpt><trkpt lat="40.5636983" lon="16.6422133"><ele>84.5</ele><time>2026-03-22T15:16:27.453Z</time></trkpt><trkpt lat="40.5637017" lon="16.6421133"><ele>84.0</ele><time>2026-03-22T15:16:28.453Z</time></trkpt><trkpt lat="40.5637067" lon="16.64201"><ele>83.5</ele><time>2026-03-22T15:16:29.452Z</time></trkpt><trkpt lat="40.56371" lon="16.641905"><ele>83.0</ele><time>2026-03-22T15:16:30.453Z</time></trkpt><trkpt lat="40.5637083" lon="16.6417983"><ele>82.5</ele><time>2026-03-22T15:16:31.452Z</time></trkpt><trkpt lat="40.5637067" lon="16.6416933"><ele>82.0</ele><time>2026-03-22T15:16:32.452Z</time></trkpt><trkpt lat="40.5637067" lon="16.6415917"><ele>81.5</ele><time>2026-03-22T15:16:33.452Z</time></trkpt><trkpt lat="40.5637067" lon="16.6414917"><ele>81.0</ele><time>2026-03-22T15:16:34.453Z</time></trkpt><trkpt lat="40.5637033" lon="16.64139"><ele>80.5</ele><time>2026-03-22T15:16:35.452Z</time></trkpt><trkpt lat="40.5637033" lon="16.6412867"><ele>80.0</ele><time>2026-03-22T15:16:36.452Z</time></trkpt><trkpt lat="40.5637017" lon="16.6411867"><ele>79.66666666666667</ele><time>2026-03-22T15:16:37.452Z</time></trkpt><trkpt lat="40.5637" lon="16.641085"><ele>79.33333333333334</ele><time>2026-03-22T15:16:38.452Z</time></trkpt><trkpt lat="40.5637" lon="16.640985"><ele>79.0</ele><time>2026-03-22T15:16:39.452Z</time></trkpt><trkpt lat="40.5636967" lon="16.64089"><ele>78.66666666666667</ele><time>2026-03-22T15:16:40.451Z</time></trkpt><trkpt lat="40.5636967" lon="16.640795"><ele>78.33333333333333</ele><time>2026-03-22T15:16:41.453Z</time></trkpt><trkpt lat="40.563695" lon="16.640695"><ele>78.0</ele><time>2026-03-22T15:16:42.451Z</time></trkpt><trkpt lat="40.5636917" lon="16.6405933"><ele>77.83333333333333</ele><time>2026-03-22T15:16:43.452Z</time></trkpt><trkpt lat="40.5636883" lon="16.64049"><ele>77.66666666666667</ele><time>2026-03-22T15:16:44.453Z</time></trkpt><trkpt lat="40.5636883" lon="16.64039"><ele>77.5</ele><time>2026-03-22T15:16:45.452Z</time></trkpt><trkpt lat="40.5636867" lon="16.6402917"><ele>77.33333333333334</ele><time>2026-03-22T15:16:46.452Z</time></trkpt><trkpt lat="40.563685" lon="16.6401917"><ele>77.16666666666667</ele><time>2026-03-22T15:16:47.452Z</time></trkpt><trkpt lat="40.563685" lon="16.64009"><ele>77.0</ele><time>2026-03-22T15:16:48.452Z</time></trkpt><trkpt lat="40.563685" lon="16.6399883"><ele>76.66666666666667</ele><time>2026-03-22T15:16:49.453Z</time></trkpt><trkpt lat="40.5636817" lon="16.6398917"><ele>76.33333333333334</ele><time>2026-03-22T15:16:50.453Z</time></trkpt><trkpt lat="40.56368" lon="16.6397917"><ele>76.0</ele><time>2026-03-22T15:16:51.452Z</time></trkpt><trkpt lat="40.5636767" lon="16.6396933"><ele>75.66666666666667</ele><time>2026-03-22T15:16:52.452Z</time></trkpt><trkpt lat="40.563675" lon="16.6395917"><ele>75.33333333333333</ele><time>2026-03-22T15:16:53.452Z</time></trkpt><trkpt lat="40.5636683" lon="16.63949"><ele>75.0</ele><time>2026-03-22T15:16:54.452Z</time></trkpt><trkpt lat="40.5636667" lon="16.6393883"><ele>74.83333333333333</ele><time>2026-03-22T15:16:55.453Z</time></trkpt><trkpt lat="40.5636633" lon="16.639285"><ele>74.66666666666667</ele><time>2026-03-22T15:16:56.453Z</time></trkpt><trkpt lat="40.56366" lon="16.6391833"><ele>74.5</ele><time>2026-03-22T15:16:57.452Z</time></trkpt><trkpt lat="40.5636617" lon="16.63908"><ele>74.33333333333334</ele><time>2026-03-22T15:16:58.452Z</time></trkpt><trkpt lat="40.5636617" lon="16.638975"><ele>74.16666666666667</ele><time>2026-03-22T15:16:59.452Z</time></trkpt><trkpt lat="40.5636583" lon="16.63887"><ele>74.0</ele><time>2026-03-22T15:17:00.452Z</time></trkpt><trkpt lat="40.563655" lon="16.6387633"><ele>74.0</ele><time>2026-03-22T15:17:01.451Z</time></trkpt><trkpt lat="40.5636533" lon="16.638655"><ele>74.0</ele><time>2026-03-22T15:17:02.452Z</time></trkpt><trkpt lat="40.5636517" lon="16.6385417"><ele>74.0</ele><time>2026-03-22T15:17:03.452Z</time></trkpt><trkpt lat="40.5636533" lon="16.638425"><ele>74.0</ele><time>2026-03-22T15:17:04.452Z</time></trkpt><trkpt lat="40.5636583" lon="16.638305"><ele>74.0</ele><time>2026-03-22T15:17:05.452Z</time></trkpt><trkpt lat="40.5636667" lon="16.6381883"><ele>74.0</ele><time>2026-03-22T15:17:06.452Z</time></trkpt><trkpt lat="40.5636733" lon="16.6380717"><ele>73.4</ele><time>2026-03-22T15:17:07.452Z</time></trkpt><trkpt lat="40.56367" lon="16.637955"><ele>72.80000000000001</ele><time>2026-03-22T15:17:08.452Z</time></trkpt><trkpt lat="40.5636633" lon="16.6378383"><ele>72.19999999999999</ele><time>2026-03-22T15:17:09.453Z</time></trkpt><trkpt lat="40.5636583" lon="16.63772"><ele>71.6</ele><time>2026-03-22T15:17:10.452Z</time></trkpt><trkpt lat="40.56366" lon="16.6375967"><ele>71.0</ele><time>2026-03-22T15:17:11.452Z</time></trkpt><trkpt lat="40.5636633" lon="16.6374683"><ele>71.0</ele><time>2026-03-22T15:17:12.453Z</time></trkpt><trkpt lat="40.56367" lon="16.637335"><ele>71.0</ele><time>2026-03-22T15:17:13.452Z</time></trkpt><trkpt lat="40.563675" lon="16.6371967"><ele>71.0</ele><time>2026-03-22T15:17:14.452Z</time></trkpt><trkpt lat="40.56368" lon="16.6370633"><ele>71.0</ele><time>2026-03-22T15:17:15.453Z</time></trkpt><trkpt lat="40.5636867" lon="16.6369317"><ele>71.0</ele><time>2026-03-22T15:17:16.451Z</time></trkpt><trkpt lat="40.5636933" lon="16.6367983"><ele>70.8</ele><time>2026-03-22T15:17:17.453Z</time></trkpt><trkpt lat="40.5637" lon="16.6366667"><ele>70.6</ele><time>2026-03-22T15:17:18.454Z</time></trkpt><trkpt lat="40.5637033" lon="16.6365367"><ele>70.4</ele><time>2026-03-22T15:17:19.452Z</time></trkpt><trkpt lat="40.5637083" lon="16.636405"><ele>70.2</ele><time>2026-03-22T15:17:20.454Z</time></trkpt><trkpt lat="40.5637133" lon="16.6362717"><ele>70.0</ele><time>2026-03-22T15:17:21.451Z</time></trkpt><trkpt lat="40.5637217" lon="16.6361383"><ele>69.4</ele><time>2026-03-22T15:17:22.451Z</time></trkpt><trkpt lat="40.5637267" lon="16.6360017"><ele>68.8</ele><time>2026-03-22T15:17:23.452Z</time></trkpt><trkpt lat="40.56373" lon="16.6358667"><ele>68.2</ele><time>2026-03-22T15:17:24.452Z</time></trkpt><trkpt lat="40.5637317" lon="16.6357333"><ele>67.6</ele><time>2026-03-22T15:17:25.452Z</time></trkpt><trkpt lat="40.563735" lon="16.6356"><ele>67.0</ele><time>2026-03-22T15:17:26.452Z</time></trkpt><trkpt lat="40.5637367" lon="16.6354667"><ele>67.0</ele><time>2026-03-22T15:17:27.452Z</time></trkpt><trkpt lat="40.563735" lon="16.6353333"><ele>67.0</ele><time>2026-03-22T15:17:28.452Z</time></trkpt><trkpt lat="40.5637333" lon="16.6351983"><ele>67.0</ele><time>2026-03-22T15:17:29.452Z</time></trkpt><trkpt lat="40.5637383" lon="16.6350633"><ele>67.0</ele><time>2026-03-22T15:17:30.453Z</time></trkpt><trkpt lat="40.5637467" lon="16.6349267"><ele>67.0</ele><time>2026-03-22T15:17:31.452Z</time></trkpt><trkpt lat="40.5637517" lon="16.6347883"><ele>67.2</ele><time>2026-03-22T15:17:32.453Z</time></trkpt><trkpt lat="40.5637533" lon="16.6346517"><ele>67.4</ele><time>2026-03-22T15:17:33.452Z</time></trkpt><trkpt lat="40.5637517" lon="16.634515"><ele>67.6</ele><time>2026-03-22T15:17:34.452Z</time></trkpt><trkpt lat="40.5637433" lon="16.634375"><ele>67.8</ele><time>2026-03-22T15:17:35.452Z</time></trkpt><trkpt lat="40.5637267" lon="16.6342367"><ele>68.0</ele><time>2026-03-22T15:17:36.452Z</time></trkpt><trkpt lat="40.5637083" lon="16.6340983"><ele>67.4</ele><time>2026-03-22T15:17:37.453Z</time></trkpt><trkpt lat="40.56369" lon="16.6339617"><ele>66.8</ele><time>2026-03-22T15:17:38.452Z</time></trkpt><trkpt lat="40.5636767" lon="16.6338267"><ele>66.2</ele><time>2026-03-22T15:17:39.452Z</time></trkpt><trkpt lat="40.5636633" lon="16.63369"><ele>65.6</ele><time>2026-03-22T15:17:40.452Z</time></trkpt><trkpt lat="40.5636533" lon="16.6335483"><ele>65.0</ele><time>2026-03-22T15:17:41.451Z</time></trkpt><trkpt lat="40.563645" lon="16.6334083"><ele>64.6</ele><time>2026-03-22T15:17:42.452Z</time></trkpt><trkpt lat="40.563635" lon="16.6332683"><ele>64.2</ele><time>2026-03-22T15:17:43.452Z</time></trkpt><trkpt lat="40.5636217" lon="16.63313"><ele>63.8</ele><time>2026-03-22T15:17:44.452Z</time></trkpt><trkpt lat="40.5636067" lon="16.6329933"><ele>63.4</ele><time>2026-03-22T15:17:45.452Z</time></trkpt><trkpt lat="40.56359" lon="16.63286"><ele>63.0</ele><time>2026-03-22T15:17:46.452Z</time></trkpt><trkpt lat="40.5635717" lon="16.6327267"><ele>62.8</ele><time>2026-03-22T15:17:47.452Z</time></trkpt><trkpt lat="40.5635533" lon="16.6325983"><ele>62.599999999999994</ele><time>2026-03-22T15:17:48.452Z</time></trkpt><trkpt lat="40.5635367" lon="16.6324667"><ele>62.400000000000006</ele><time>2026-03-22T15:17:49.452Z</time></trkpt><trkpt lat="40.5635217" lon="16.632335"><ele>62.2</ele><time>2026-03-22T15:17:50.452Z</time></trkpt><trkpt lat="40.5635083" lon="16.6322033"><ele>62.0</ele><time>2026-03-22T15:17:51.452Z</time></trkpt><trkpt lat="40.5634967" lon="16.6320683"><ele>62.2</ele><time>2026-03-22T15:17:52.452Z</time></trkpt><trkpt lat="40.5634883" lon="16.63193"><ele>62.400000000000006</ele><time>2026-03-22T15:17:53.452Z</time></trkpt><trkpt lat="40.56348" lon="16.6317967"><ele>62.599999999999994</ele><time>2026-03-22T15:17:54.452Z</time></trkpt><trkpt lat="40.5634717" lon="16.6316617"><ele>62.8</ele><time>2026-03-22T15:17:55.452Z</time></trkpt><trkpt lat="40.5634633" lon="16.6315267"><ele>63.0</ele><time>2026-03-22T15:17:56.452Z</time></trkpt><trkpt lat="40.563455" lon="16.6313917"><ele>63.0</ele><time>2026-03-22T15:17:57.452Z</time></trkpt><trkpt lat="40.5634467" lon="16.63126"><ele>63.0</ele><time>2026-03-22T15:17:58.453Z</time></trkpt><trkpt lat="40.5634367" lon="16.6311317"><ele>63.0</ele><time>2026-03-22T15:17:59.451Z</time></trkpt><trkpt lat="40.563425" lon="16.6310017"><ele>63.0</ele><time>2026-03-22T15:18:00.452Z</time></trkpt><trkpt lat="40.5634117" lon="16.6308733"><ele>63.0</ele><time>2026-03-22T15:18:01.451Z</time></trkpt><trkpt lat="40.5633983" lon="16.6307417"><ele>63.0</ele><time>2026-03-22T15:18:02.452Z</time></trkpt><trkpt lat="40.56338" lon="16.6306133"><ele>63.0</ele><time>2026-03-22T15:18:03.453Z</time></trkpt><trkpt lat="40.5633567" lon="16.6304867"><ele>63.0</ele><time>2026-03-22T15:18:04.452Z</time></trkpt><trkpt lat="40.56332" lon="16.6303683"><ele>63.0</ele><time>2026-03-22T15:18:05.452Z</time></trkpt><trkpt lat="40.5632783" lon="16.6302517"><ele>63.0</ele><time>2026-03-22T15:18:06.453Z</time></trkpt><trkpt lat="40.56323" lon="16.630135"><ele>63.0</ele><time>2026-03-22T15:18:07.452Z</time></trkpt><trkpt lat="40.5631833" lon="16.630015"><ele>63.0</ele><time>2026-03-22T15:18:08.453Z</time></trkpt><trkpt lat="40.5631383" lon="16.629895"><ele>63.0</ele><time>2026-03-22T15:18:09.453Z</time></trkpt><trkpt lat="40.5630967" lon="16.629775"><ele>63.0</ele><time>2026-03-22T15:18:10.452Z</time></trkpt><trkpt lat="40.5630567" lon="16.629655"><ele>63.0</ele><time>2026-03-22T15:18:11.452Z</time></trkpt><trkpt lat="40.56302" lon="16.6295483"><ele>63.0</ele><time>2026-03-22T15:18:12.452Z</time></trkpt><trkpt lat="40.5629867" lon="16.6294467"><ele>63.0</ele><time>2026-03-22T15:18:13.452Z</time></trkpt><trkpt lat="40.5629533" lon="16.6293517"><ele>63.0</ele><time>2026-03-22T15:18:14.452Z</time></trkpt><trkpt lat="40.56292" lon="16.6292683"><ele>63.0</ele><time>2026-03-22T15:18:15.452Z</time></trkpt><trkpt lat="40.562895" lon="16.6291883"><ele>63.0</ele><time>2026-03-22T15:18:16.453Z</time></trkpt><trkpt lat="40.5628683" lon="16.629055"><ele>63.0</ele><time>2026-03-22T15:18:18.452Z</time></trkpt><trkpt lat="40.56282" lon="16.628985"><ele>63.0</ele><time>2026-03-22T15:18:21.452Z</time></trkpt><trkpt lat="40.5627467" lon="16.6289383"><ele>63.0</ele><time>2026-03-22T15:18:24.452Z</time></trkpt><trkpt lat="40.5626083" lon="16.6289217"><ele>63.0</ele><time>2026-03-22T15:18:26.452Z</time></trkpt><trkpt lat="40.5625217" lon="16.628905"><ele>63.0</ele><time>2026-03-22T15:18:27.451Z</time></trkpt><trkpt lat="40.5624267" lon="16.62888"><ele>63.0</ele><time>2026-03-22T15:18:28.452Z</time></trkpt><trkpt lat="40.5623283" lon="16.6288533"><ele>63.0</ele><time>2026-03-22T15:18:29.452Z</time></trkpt><trkpt lat="40.5622233" lon="16.62883"><ele>63.0</ele><time>2026-03-22T15:18:30.452Z</time></trkpt><trkpt lat="40.5621133" lon="16.6288083"><ele>63.0</ele><time>2026-03-22T15:18:31.452Z</time></trkpt><trkpt lat="40.562005" lon="16.62879"><ele>63.0</ele><time>2026-03-22T15:18:32.453Z</time></trkpt><trkpt lat="40.5618983" lon="16.62877"><ele>63.0</ele><time>2026-03-22T15:18:33.453Z</time></trkpt><trkpt lat="40.56179" lon="16.6287517"><ele>62.75</ele><time>2026-03-22T15:18:34.454Z</time></trkpt><trkpt lat="40.561675" lon="16.6287333"><ele>62.5</ele><time>2026-03-22T15:18:35.452Z</time></trkpt><trkpt lat="40.5615583" lon="16.628715"><ele>62.25</ele><time>2026-03-22T15:18:36.455Z</time></trkpt><trkpt lat="40.5614417" lon="16.6287033"><ele>62.0</ele><time>2026-03-22T15:18:37.452Z</time></trkpt><trkpt lat="40.56132" lon="16.6286967"><ele>62.25</ele><time>2026-03-22T15:18:38.453Z</time></trkpt><trkpt lat="40.5611983" lon="16.6286917"><ele>62.5</ele><time>2026-03-22T15:18:39.452Z</time></trkpt><trkpt lat="40.5610733" lon="16.6286867"><ele>62.75</ele><time>2026-03-22T15:18:40.453Z</time></trkpt><trkpt lat="40.5609467" lon="16.62868"><ele>63.0</ele><time>2026-03-22T15:18:41.451Z</time></trkpt><trkpt lat="40.560815" lon="16.6286733"><ele>63.0</ele><time>2026-03-22T15:18:42.451Z</time></trkpt><trkpt lat="40.560685" lon="16.6286683"><ele>63.0</ele><time>2026-03-22T15:18:43.452Z</time></trkpt><trkpt lat="40.56055" lon="16.62866"><ele>63.0</ele><time>2026-03-22T15:18:44.452Z</time></trkpt><trkpt lat="40.5604167" lon="16.6286533"><ele>63.0</ele><time>2026-03-22T15:18:45.452Z</time></trkpt><trkpt lat="40.56028" lon="16.6286517"><ele>64.0</ele><time>2026-03-22T15:18:46.452Z</time></trkpt><trkpt lat="40.5601433" lon="16.6286517"><ele>65.0</ele><time>2026-03-22T15:18:47.453Z</time></trkpt><trkpt lat="40.560005" lon="16.6286517"><ele>66.0</ele><time>2026-03-22T15:18:48.452Z</time></trkpt><trkpt lat="40.559865" lon="16.6286517"><ele>67.0</ele><time>2026-03-22T15:18:49.454Z</time></trkpt><trkpt lat="40.5597183" lon="16.6286483"><ele>67.0</ele><time>2026-03-22T15:18:50.452Z</time></trkpt><trkpt lat="40.5595683" lon="16.628645"><ele>67.0</ele><time>2026-03-22T15:18:51.452Z</time></trkpt><trkpt lat="40.5594183" lon="16.6286367"><ele>67.0</ele><time>2026-03-22T15:18:52.453Z</time></trkpt><trkpt lat="40.55927" lon="16.62863"><ele>67.0</ele><time>2026-03-22T15:18:53.452Z</time></trkpt><trkpt lat="40.5591183" lon="16.628625"><ele>65.0</ele><time>2026-03-22T15:18:54.452Z</time></trkpt><trkpt lat="40.5589633" lon="16.62862"><ele>63.0</ele><time>2026-03-22T15:18:55.451Z</time></trkpt><trkpt lat="40.5588067" lon="16.6286167"><ele>61.0</ele><time>2026-03-22T15:18:56.454Z</time></trkpt><trkpt lat="40.5586483" lon="16.62861"><ele>61.0</ele><time>2026-03-22T15:18:57.453Z</time></trkpt><trkpt lat="40.5584867" lon="16.628605"><ele>61.0</ele><time>2026-03-22T15:18:58.452Z</time></trkpt><trkpt lat="40.5583267" lon="16.6286067"><ele>61.0</ele><time>2026-03-22T15:18:59.452Z</time></trkpt><trkpt lat="40.558165" lon="16.6286267"><ele>61.666666666666664</ele><time>2026-03-22T15:19:00.453Z</time></trkpt><trkpt lat="40.5580017" lon="16.6286717"><ele>62.33333333333333</ele><time>2026-03-22T15:19:01.454Z</time></trkpt><trkpt lat="40.5578383" lon="16.62874"><ele>63.0</ele><time>2026-03-22T15:19:02.452Z</time></trkpt><trkpt lat="40.557675" lon="16.6288217"><ele>63.0</ele><time>2026-03-22T15:19:03.452Z</time></trkpt><trkpt lat="40.557515" lon="16.62891"><ele>63.0</ele><time>2026-03-22T15:19:04.452Z</time></trkpt><trkpt lat="40.557355" lon="16.6290033"><ele>63.0</ele><time>2026-03-22T15:19:05.453Z</time></trkpt><trkpt lat="40.5571983" lon="16.6290983"><ele>63.0</ele><time>2026-03-22T15:19:06.454Z</time></trkpt><trkpt lat="40.557045" lon="16.6291933"><ele>63.0</ele><time>2026-03-22T15:19:07.454Z</time></trkpt><trkpt lat="40.5568917" lon="16.6292867"><ele>63.0</ele><time>2026-03-22T15:19:08.453Z</time></trkpt><trkpt lat="40.55674" lon="16.6293783"><ele>62.66666666666667</ele><time>2026-03-22T15:19:09.453Z</time></trkpt><trkpt lat="40.55659" lon="16.629475"><ele>62.333333333333336</ele><time>2026-03-22T15:19:10.453Z</time></trkpt><trkpt lat="40.5564417" lon="16.629575"><ele>62.0</ele><time>2026-03-22T15:19:11.453Z</time></trkpt><trkpt lat="40.5562867" lon="16.62967"><ele>62.333333333333336</ele><time>2026-03-22T15:19:12.453Z</time></trkpt><trkpt lat="40.5561283" lon="16.6297567"><ele>62.66666666666667</ele><time>2026-03-22T15:19:13.452Z</time></trkpt><trkpt lat="40.5559667" lon="16.62984"><ele>63.0</ele><time>2026-03-22T15:19:14.453Z</time></trkpt><trkpt lat="40.5558067" lon="16.629925"><ele>63.0</ele><time>2026-03-22T15:19:15.452Z</time></trkpt><trkpt lat="40.5556467" lon="16.630015"><ele>63.0</ele><time>2026-03-22T15:19:16.452Z</time></trkpt><trkpt lat="40.555485" lon="16.6301067"><ele>63.0</ele><time>2026-03-22T15:19:17.454Z</time></trkpt><trkpt lat="40.555325" lon="16.630195"><ele>62.66666666666667</ele><time>2026-03-22T15:19:18.452Z</time></trkpt><trkpt lat="40.5551633" lon="16.6302717"><ele>62.333333333333336</ele><time>2026-03-22T15:19:19.452Z</time></trkpt><trkpt lat="40.554995" lon="16.6303267"><ele>62.0</ele><time>2026-03-22T15:19:20.452Z</time></trkpt><trkpt lat="40.5548183" lon="16.6303533"><ele>62.66666666666667</ele><time>2026-03-22T15:19:21.453Z</time></trkpt><trkpt lat="40.5546383" lon="16.6303583"><ele>63.33333333333333</ele><time>2026-03-22T15:19:22.452Z</time></trkpt><trkpt lat="40.5544583" lon="16.6303517"><ele>64.0</ele><time>2026-03-22T15:19:23.451Z</time></trkpt><trkpt lat="40.5542767" lon="16.630345"><ele>64.33333333333333</ele><time>2026-03-22T15:19:24.455Z</time></trkpt><trkpt lat="40.55409" lon="16.6303417"><ele>64.66666666666667</ele><time>2026-03-22T15:19:25.452Z</time></trkpt><trkpt lat="40.5539033" lon="16.6303433"><ele>65.0</ele><time>2026-03-22T15:19:26.452Z</time></trkpt><trkpt lat="40.55372" lon="16.6303417"><ele>65.0</ele><time>2026-03-22T15:19:27.453Z</time></trkpt><trkpt lat="40.5535333" lon="16.6303383"><ele>65.0</ele><time>2026-03-22T15:19:28.452Z</time></trkpt><trkpt lat="40.553345" lon="16.6303333"><ele>65.0</ele><time>2026-03-22T15:19:29.454Z</time></trkpt><trkpt lat="40.5531583" lon="16.6303283"><ele>65.0</ele><time>2026-03-22T15:19:30.454Z</time></trkpt><trkpt lat="40.5529717" lon="16.6303267"><ele>65.0</ele><time>2026-03-22T15:19:31.452Z</time></trkpt><trkpt lat="40.5527883" lon="16.6303367"><ele>65.0</ele><time>2026-03-22T15:19:32.453Z</time></trkpt><trkpt lat="40.5526083" lon="16.6303667"><ele>65.66666666666667</ele><time>2026-03-22T15:19:33.452Z</time></trkpt><trkpt lat="40.5524267" lon="16.6304167"><ele>66.33333333333333</ele><time>2026-03-22T15:19:34.452Z</time></trkpt><trkpt lat="40.5522467" lon="16.6304867"><ele>67.0</ele><time>2026-03-22T15:19:35.452Z</time></trkpt><trkpt lat="40.5520683" lon="16.63057"><ele>65.33333333333333</ele><time>2026-03-22T15:19:36.452Z</time></trkpt><trkpt lat="40.5518917" lon="16.6306583"><ele>63.66666666666667</ele><time>2026-03-22T15:19:37.453Z</time></trkpt><trkpt lat="40.5517133" lon="16.63075"><ele>62.0</ele><time>2026-03-22T15:19:38.453Z</time></trkpt><trkpt lat="40.5515367" lon="16.6308383"><ele>62.0</ele><time>2026-03-22T15:19:39.452Z</time></trkpt><trkpt lat="40.5513583" lon="16.6309267"><ele>62.0</ele><time>2026-03-22T15:19:40.453Z</time></trkpt><trkpt lat="40.55118" lon="16.631015"><ele>62.0</ele><time>2026-03-22T15:19:41.451Z</time></trkpt><trkpt lat="40.5510033" lon="16.6311017"><ele>62.66666666666667</ele><time>2026-03-22T15:19:42.452Z</time></trkpt><trkpt lat="40.5508267" lon="16.63119"><ele>63.33333333333333</ele><time>2026-03-22T15:19:43.452Z</time></trkpt><trkpt lat="40.5506483" lon="16.6312817"><ele>64.0</ele><time>2026-03-22T15:19:44.453Z</time></trkpt><trkpt lat="40.5504717" lon="16.6313733"><ele>63.0</ele><time>2026-03-22T15:19:45.452Z</time></trkpt><trkpt lat="40.5502933" lon="16.6314617"><ele>62.0</ele><time>2026-03-22T15:19:46.452Z</time></trkpt><trkpt lat="40.5501133" lon="16.631545"><ele>61.0</ele><time>2026-03-22T15:19:47.452Z</time></trkpt><trkpt lat="40.5499317" lon="16.6316217"><ele>61.0</ele><time>2026-03-22T15:19:48.452Z</time></trkpt><trkpt lat="40.5497483" lon="16.6316867"><ele>61.0</ele><time>2026-03-22T15:19:49.452Z</time></trkpt><trkpt lat="40.5495633" lon="16.6317433"><ele>61.0</ele><time>2026-03-22T15:19:50.452Z</time></trkpt><trkpt lat="40.54938" lon="16.6317917"><ele>60.0</ele><time>2026-03-22T15:19:51.452Z</time></trkpt><trkpt lat="40.5491967" lon="16.63183"><ele>59.0</ele><time>2026-03-22T15:19:52.452Z</time></trkpt><trkpt lat="40.5490133" lon="16.63186"><ele>58.0</ele><time>2026-03-22T15:19:53.452Z</time></trkpt><trkpt lat="40.54883" lon="16.6318933"><ele>58.33333333333333</ele><time>2026-03-22T15:19:54.454Z</time></trkpt><trkpt lat="40.5486467" lon="16.6319317"><ele>58.66666666666667</ele><time>2026-03-22T15:19:55.452Z</time></trkpt><trkpt lat="40.54846" lon="16.6319767"><ele>59.0</ele><time>2026-03-22T15:19:56.453Z</time></trkpt><trkpt lat="40.54827" lon="16.632025"><ele>59.0</ele><time>2026-03-22T15:19:57.452Z</time></trkpt><trkpt lat="40.5480817" lon="16.6320717"><ele>59.0</ele><time>2026-03-22T15:19:58.452Z</time></trkpt><trkpt lat="40.5478933" lon="16.6321133"><ele>59.0</ele><time>2026-03-22T15:19:59.453Z</time></trkpt><trkpt lat="40.5477083" lon="16.6321517"><ele>59.0</ele><time>2026-03-22T15:20:00.452Z</time></trkpt><trkpt lat="40.547525" lon="16.63219"><ele>59.0</ele><time>2026-03-22T15:20:01.452Z</time></trkpt><trkpt lat="40.5473467" lon="16.63223"><ele>59.0</ele><time>2026-03-22T15:20:02.451Z</time></trkpt><trkpt lat="40.5471683" lon="16.6322667"><ele>60.0</ele><time>2026-03-22T15:20:03.452Z</time></trkpt><trkpt lat="40.5469967" lon="16.63229"><ele>61.0</ele><time>2026-03-22T15:20:04.451Z</time></trkpt><trkpt lat="40.5468383" lon="16.63228"><ele>62.0</ele><time>2026-03-22T15:20:05.453Z</time></trkpt><trkpt lat="40.5466817" lon="16.6322283"><ele>62.0</ele><time>2026-03-22T15:20:06.454Z</time></trkpt><trkpt lat="40.5465217" lon="16.6321567"><ele>62.0</ele><time>2026-03-22T15:20:07.451Z</time></trkpt><trkpt lat="40.5463567" lon="16.63208"><ele>62.0</ele><time>2026-03-22T15:20:08.457Z</time></trkpt><trkpt lat="40.5461883" lon="16.6320033"><ele>60.333333333333336</ele><time>2026-03-22T15:20:09.452Z</time></trkpt><trkpt lat="40.5460133" lon="16.631935"><ele>58.66666666666667</ele><time>2026-03-22T15:20:10.451Z</time></trkpt><trkpt lat="40.545835" lon="16.6318717"><ele>57.0</ele><time>2026-03-22T15:20:11.452Z</time></trkpt><trkpt lat="40.5456583" lon="16.6318133"><ele>57.0</ele><time>2026-03-22T15:20:12.453Z</time></trkpt><trkpt lat="40.5454867" lon="16.6317567"><ele>57.0</ele><time>2026-03-22T15:20:13.453Z</time></trkpt><trkpt lat="40.5453183" lon="16.6317067"><ele>57.0</ele><time>2026-03-22T15:20:14.452Z</time></trkpt><trkpt lat="40.54515" lon="16.6316717"><ele>57.33333333333333</ele><time>2026-03-22T15:20:15.453Z</time></trkpt><trkpt lat="40.5449733" lon="16.63166"><ele>57.666666666666664</ele><time>2026-03-22T15:20:16.452Z</time></trkpt><trkpt lat="40.5448" lon="16.6316817"><ele>58.0</ele><time>2026-03-22T15:20:17.452Z</time></trkpt><trkpt lat="40.544625" lon="16.6317217"><ele>58.0</ele><time>2026-03-22T15:20:18.453Z</time></trkpt><trkpt lat="40.544445" lon="16.6317767"><ele>58.0</ele><time>2026-03-22T15:20:19.451Z</time></trkpt><trkpt lat="40.544265" lon="16.63184"><ele>58.0</ele><time>2026-03-22T15:20:20.452Z</time></trkpt><trkpt lat="40.5440817" lon="16.63191"><ele>58.33333333333333</ele><time>2026-03-22T15:20:21.452Z</time></trkpt><trkpt lat="40.5439" lon="16.6319783"><ele>58.66666666666667</ele><time>2026-03-22T15:20:22.452Z</time></trkpt><trkpt lat="40.5437183" lon="16.632045"><ele>59.0</ele><time>2026-03-22T15:20:23.452Z</time></trkpt><trkpt lat="40.5435383" lon="16.63211"><ele>59.0</ele><time>2026-03-22T15:20:24.453Z</time></trkpt><trkpt lat="40.5433583" lon="16.6321733"><ele>59.0</ele><time>2026-03-22T15:20:25.453Z</time></trkpt><trkpt lat="40.5431783" lon="16.6322383"><ele>59.0</ele><time>2026-03-22T15:20:26.452Z</time></trkpt><trkpt lat="40.5430017" lon="16.6323"><ele>59.0</ele><time>2026-03-22T15:20:27.454Z</time></trkpt><trkpt lat="40.542825" lon="16.6323633"><ele>59.0</ele><time>2026-03-22T15:20:28.452Z</time></trkpt><trkpt lat="40.5426483" lon="16.6324233"><ele>59.0</ele><time>2026-03-22T15:20:29.452Z</time></trkpt><trkpt lat="40.5424767" lon="16.6324783"><ele>59.0</ele><time>2026-03-22T15:20:30.453Z</time></trkpt><trkpt lat="40.5423017" lon="16.632535"><ele>59.0</ele><time>2026-03-22T15:20:31.453Z</time></trkpt><trkpt lat="40.5421283" lon="16.632595"><ele>59.0</ele><time>2026-03-22T15:20:32.453Z</time></trkpt><trkpt lat="40.541955" lon="16.6326567"><ele>59.0</ele><time>2026-03-22T15:20:33.452Z</time></trkpt><trkpt lat="40.5417833" lon="16.6327217"><ele>59.0</ele><time>2026-03-22T15:20:34.452Z</time></trkpt><trkpt lat="40.5416117" lon="16.632785"><ele>59.0</ele><time>2026-03-22T15:20:35.452Z</time></trkpt><trkpt lat="40.54144" lon="16.63285"><ele>59.66666666666667</ele><time>2026-03-22T15:20:36.451Z</time></trkpt><trkpt lat="40.541265" lon="16.6329117"><ele>60.33333333333333</ele><time>2026-03-22T15:20:37.453Z</time></trkpt><trkpt lat="40.5410933" lon="16.6329733"><ele>61.0</ele><time>2026-03-22T15:20:38.452Z</time></trkpt><trkpt lat="40.54092" lon="16.6330317"><ele>61.33333333333333</ele><time>2026-03-22T15:20:39.453Z</time></trkpt><trkpt lat="40.5407483" lon="16.6330883"><ele>61.66666666666667</ele><time>2026-03-22T15:20:40.452Z</time></trkpt><trkpt lat="40.5405817" lon="16.6331483"><ele>62.0</ele><time>2026-03-22T15:20:41.452Z</time></trkpt><trkpt lat="40.5404217" lon="16.6332233"><ele>62.0</ele><time>2026-03-22T15:20:42.452Z</time></trkpt><trkpt lat="40.5402667" lon="16.6333267"><ele>62.0</ele><time>2026-03-22T15:20:43.452Z</time></trkpt><trkpt lat="40.5401233" lon="16.63347"><ele>62.0</ele><time>2026-03-22T15:20:44.453Z</time></trkpt><trkpt lat="40.54" lon="16.6336467"><ele>62.0</ele><time>2026-03-22T15:20:45.452Z</time></trkpt><trkpt lat="40.5399" lon="16.6338567"><ele>62.0</ele><time>2026-03-22T15:20:46.451Z</time></trkpt><trkpt lat="40.5398167" lon="16.63409"><ele>62.0</ele><time>2026-03-22T15:20:47.451Z</time></trkpt><trkpt lat="40.5397383" lon="16.6343233"><ele>63.0</ele><time>2026-03-22T15:20:48.454Z</time></trkpt><trkpt lat="40.5396617" lon="16.6345517"><ele>64.0</ele><time>2026-03-22T15:20:49.454Z</time></trkpt><trkpt lat="40.5395817" lon="16.634775"><ele>65.0</ele><time>2026-03-22T15:20:50.452Z</time></trkpt><trkpt lat="40.5394967" lon="16.6349933"><ele>63.333333333333336</ele><time>2026-03-22T15:20:51.452Z</time></trkpt><trkpt lat="40.5393967" lon="16.635205"><ele>61.66666666666667</ele><time>2026-03-22T15:20:52.452Z</time></trkpt><trkpt lat="40.53928" lon="16.6354017"><ele>60.0</ele><time>2026-03-22T15:20:53.452Z</time></trkpt><trkpt lat="40.5391467" lon="16.6355817"><ele>60.0</ele><time>2026-03-22T15:20:54.453Z</time></trkpt><trkpt lat="40.539" lon="16.6357533"><ele>60.0</ele><time>2026-03-22T15:20:55.452Z</time></trkpt><trkpt lat="40.5388467" lon="16.6359233"><ele>60.0</ele><time>2026-03-22T15:20:56.453Z</time></trkpt><trkpt lat="40.5386933" lon="16.63609"><ele>61.0</ele><time>2026-03-22T15:20:57.451Z</time></trkpt><trkpt lat="40.538545" lon="16.63625"><ele>62.0</ele><time>2026-03-22T15:20:58.453Z</time></trkpt><trkpt lat="40.5384017" lon="16.6364117"><ele>63.0</ele><time>2026-03-22T15:20:59.452Z</time></trkpt><trkpt lat="40.5382567" lon="16.636575"><ele>63.0</ele><time>2026-03-22T15:21:00.452Z</time></trkpt><trkpt lat="40.5381117" lon="16.6367383"><ele>63.0</ele><time>2026-03-22T15:21:01.451Z</time></trkpt><trkpt lat="40.537965" lon="16.6369017"><ele>63.0</ele><time>2026-03-22T15:21:02.452Z</time></trkpt><trkpt lat="40.53782" lon="16.6370633"><ele>62.66666666666667</ele><time>2026-03-22T15:21:03.451Z</time></trkpt><trkpt lat="40.537675" lon="16.637225"><ele>62.333333333333336</ele><time>2026-03-22T15:21:04.451Z</time></trkpt><trkpt lat="40.5375317" lon="16.6373883"><ele>62.0</ele><time>2026-03-22T15:21:05.452Z</time></trkpt><trkpt lat="40.5373867" lon="16.6375517"><ele>62.0</ele><time>2026-03-22T15:21:06.453Z</time></trkpt><trkpt lat="40.5372433" lon="16.6377117"><ele>62.0</ele><time>2026-03-22T15:21:07.453Z</time></trkpt><trkpt lat="40.5371033" lon="16.63787"><ele>62.0</ele><time>2026-03-22T15:21:08.452Z</time></trkpt><trkpt lat="40.5369617" lon="16.638025"><ele>61.333333333333336</ele><time>2026-03-22T15:21:09.452Z</time></trkpt><trkpt lat="40.5368183" lon="16.63818"><ele>60.66666666666667</ele><time>2026-03-22T15:21:10.451Z</time></trkpt><trkpt lat="40.536675" lon="16.638335"><ele>60.0</ele><time>2026-03-22T15:21:11.453Z</time></trkpt><trkpt lat="40.5365317" lon="16.63849"><ele>60.0</ele><time>2026-03-22T15:21:12.455Z</time></trkpt><trkpt lat="40.53639" lon="16.6386517"><ele>60.0</ele><time>2026-03-22T15:21:13.451Z</time></trkpt><trkpt lat="40.5362517" lon="16.6388133"><ele>60.0</ele><time>2026-03-22T15:21:14.454Z</time></trkpt><trkpt lat="40.5361117" lon="16.6389767"><ele>60.0</ele><time>2026-03-22T15:21:15.452Z</time></trkpt><trkpt lat="40.53597" lon="16.6391367"><ele>60.0</ele><time>2026-03-22T15:21:16.454Z</time></trkpt><trkpt lat="40.5358283" lon="16.6392983"><ele>60.0</ele><time>2026-03-22T15:21:17.453Z</time></trkpt><trkpt lat="40.5356867" lon="16.63946"><ele>61.0</ele><time>2026-03-22T15:21:18.453Z</time></trkpt><trkpt lat="40.535545" lon="16.63962"><ele>62.0</ele><time>2026-03-22T15:21:19.451Z</time></trkpt><trkpt lat="40.5354033" lon="16.6397833"><ele>63.0</ele><time>2026-03-22T15:21:20.452Z</time></trkpt><trkpt lat="40.5352633" lon="16.6399417"><ele>62.33333333333333</ele><time>2026-03-22T15:21:21.452Z</time></trkpt><trkpt lat="40.5351233" lon="16.6401"><ele>61.666666666666664</ele><time>2026-03-22T15:21:22.453Z</time></trkpt><trkpt lat="40.5349867" lon="16.6402567"><ele>61.0</ele><time>2026-03-22T15:21:23.452Z</time></trkpt><trkpt lat="40.5348517" lon="16.6404083"><ele>61.0</ele><time>2026-03-22T15:21:24.452Z</time></trkpt><trkpt lat="40.5347183" lon="16.6405583"><ele>61.0</ele><time>2026-03-22T15:21:25.452Z</time></trkpt><trkpt lat="40.534585" lon="16.6407067"><ele>61.0</ele><time>2026-03-22T15:21:26.452Z</time></trkpt><trkpt lat="40.5344533" lon="16.640855"><ele>60.33333333333333</ele><time>2026-03-22T15:21:27.451Z</time></trkpt><trkpt lat="40.5343233" lon="16.6409983"><ele>59.66666666666667</ele><time>2026-03-22T15:21:28.452Z</time></trkpt><trkpt lat="40.5341933" lon="16.64114"><ele>59.0</ele><time>2026-03-22T15:21:29.452Z</time></trkpt><trkpt lat="40.5340633" lon="16.6412817"><ele>59.0</ele><time>2026-03-22T15:21:30.454Z</time></trkpt><trkpt lat="40.5339383" lon="16.6414217"><ele>59.0</ele><time>2026-03-22T15:21:31.451Z</time></trkpt><trkpt lat="40.5338183" lon="16.641555"><ele>59.0</ele><time>2026-03-22T15:21:32.452Z</time></trkpt><trkpt lat="40.5337033" lon="16.6416833"><ele>59.25</ele><time>2026-03-22T15:21:33.451Z</time></trkpt><trkpt lat="40.5335983" lon="16.6418033"><ele>59.5</ele><time>2026-03-22T15:21:34.452Z</time></trkpt><trkpt lat="40.5335" lon="16.6419133"><ele>59.75</ele><time>2026-03-22T15:21:35.456Z</time></trkpt><trkpt lat="40.5334083" lon="16.6420017"><ele>60.0</ele><time>2026-03-22T15:21:36.452Z</time></trkpt><trkpt lat="40.5333233" lon="16.6420633"><ele>60.0</ele><time>2026-03-22T15:21:37.452Z</time></trkpt><trkpt lat="40.53325" lon="16.6421033"><ele>60.0</ele><time>2026-03-22T15:21:38.455Z</time></trkpt><trkpt lat="40.5331667" lon="16.6421617"><ele>60.0</ele><time>2026-03-22T15:21:40.452Z</time></trkpt><trkpt lat="40.5331633" lon="16.6423083"><ele>60.0</ele><time>2026-03-22T15:21:50.452Z</time></trkpt><trkpt lat="40.5332133" lon="16.6424867"><ele>60.0</ele><time>2026-03-22T15:21:52.452Z</time></trkpt><trkpt lat="40.5332567" lon="16.64259"><ele>60.0</ele><time>2026-03-22T15:21:53.451Z</time></trkpt><trkpt lat="40.5332983" lon="16.64271"><ele>60.0</ele><time>2026-03-22T15:21:54.451Z</time></trkpt><trkpt lat="40.5333367" lon="16.64284"><ele>60.0</ele><time>2026-03-22T15:21:55.451Z</time></trkpt><trkpt lat="40.5333717" lon="16.6429783"><ele>60.0</ele><time>2026-03-22T15:21:56.452Z</time></trkpt><trkpt lat="40.5334117" lon="16.6431183"><ele>60.0</ele><time>2026-03-22T15:21:57.452Z</time></trkpt><trkpt lat="40.5334567" lon="16.6432583"><ele>60.5</ele><time>2026-03-22T15:21:58.454Z</time></trkpt><trkpt lat="40.5335067" lon="16.6434083"><ele>61.0</ele><time>2026-03-22T15:21:59.451Z</time></trkpt><trkpt lat="40.53356" lon="16.643575"><ele>61.5</ele><time>2026-03-22T15:22:00.452Z</time></trkpt><trkpt lat="40.5336133" lon="16.6437467"><ele>62.0</ele><time>2026-03-22T15:22:01.452Z</time></trkpt><trkpt lat="40.533665" lon="16.6439167"><ele>62.25</ele><time>2026-03-22T15:22:02.452Z</time></trkpt><trkpt lat="40.5337217" lon="16.6440883"><ele>62.5</ele><time>2026-03-22T15:22:03.454Z</time></trkpt><trkpt lat="40.5337783" lon="16.6442617"><ele>62.75</ele><time>2026-03-22T15:22:04.452Z</time></trkpt><trkpt lat="40.5338333" lon="16.6444367"><ele>63.0</ele><time>2026-03-22T15:22:05.453Z</time></trkpt><trkpt lat="40.5338917" lon="16.6446133"><ele>63.33333333333333</ele><time>2026-03-22T15:22:06.456Z</time></trkpt><trkpt lat="40.5339617" lon="16.64479"><ele>63.666666666666664</ele><time>2026-03-22T15:22:07.455Z</time></trkpt><trkpt lat="40.5340467" lon="16.6449633"><ele>64.0</ele><time>2026-03-22T15:22:08.454Z</time></trkpt><trkpt lat="40.5341567" lon="16.6451283"><ele>64.0</ele><time>2026-03-22T15:22:09.451Z</time></trkpt><trkpt lat="40.5342917" lon="16.6452733"><ele>64.0</ele><time>2026-03-22T15:22:10.451Z</time></trkpt><trkpt lat="40.53444" lon="16.6454067"><ele>64.0</ele><time>2026-03-22T15:22:11.452Z</time></trkpt><trkpt lat="40.5345917" lon="16.6455367"><ele>65.66666666666666</ele><time>2026-03-22T15:22:12.453Z</time></trkpt><trkpt lat="40.53474" lon="16.6456617"><ele>67.33333333333333</ele><time>2026-03-22T15:22:13.452Z</time></trkpt><trkpt lat="40.5348933" lon="16.6457867"><ele>69.0</ele><time>2026-03-22T15:22:14.454Z</time></trkpt><trkpt lat="40.5350517" lon="16.6459083"><ele>69.0</ele><time>2026-03-22T15:22:15.452Z</time></trkpt><trkpt lat="40.5352217" lon="16.6460267"><ele>69.0</ele><time>2026-03-22T15:22:16.452Z</time></trkpt><trkpt lat="40.5353967" lon="16.6461433"><ele>69.0</ele><time>2026-03-22T15:22:17.453Z</time></trkpt><trkpt lat="40.5355733" lon="16.64626"><ele>72.0</ele><time>2026-03-22T15:22:18.452Z</time></trkpt><trkpt lat="40.5357517" lon="16.64637"><ele>75.0</ele><time>2026-03-22T15:22:19.453Z</time></trkpt><trkpt lat="40.5359283" lon="16.6464817"><ele>78.0</ele><time>2026-03-22T15:22:20.453Z</time></trkpt><trkpt lat="40.5361083" lon="16.6465917"><ele>81.66666666666667</ele><time>2026-03-22T15:22:21.456Z</time></trkpt><trkpt lat="40.536285" lon="16.6467"><ele>85.33333333333334</ele><time>2026-03-22T15:22:22.452Z</time></trkpt><trkpt lat="40.5364633" lon="16.6468133"><ele>89.0</ele><time>2026-03-22T15:22:23.455Z</time></trkpt><trkpt lat="40.5366383" lon="16.6469333"><ele>87.66666666666667</ele><time>2026-03-22T15:22:24.452Z</time></trkpt><trkpt lat="40.5368083" lon="16.6470583"><ele>86.33333333333333</ele><time>2026-03-22T15:22:25.452Z</time></trkpt><trkpt lat="40.5369733" lon="16.6471883"><ele>85.0</ele><time>2026-03-22T15:22:26.457Z</time></trkpt><trkpt lat="40.537135" lon="16.6473267"><ele>89.0</ele><time>2026-03-22T15:22:27.454Z</time></trkpt><trkpt lat="40.5372967" lon="16.64747"><ele>93.0</ele><time>2026-03-22T15:22:28.452Z</time></trkpt><trkpt lat="40.5374583" lon="16.647615"><ele>97.0</ele><time>2026-03-22T15:22:29.452Z</time></trkpt><trkpt lat="40.537615" lon="16.647765"><ele>94.0</ele><time>2026-03-22T15:22:30.451Z</time></trkpt><trkpt lat="40.537775" lon="16.647915"><ele>91.0</ele><time>2026-03-22T15:22:31.452Z</time></trkpt><trkpt lat="40.5379383" lon="16.6480633"><ele>88.0</ele><time>2026-03-22T15:22:32.453Z</time></trkpt><trkpt lat="40.5381067" lon="16.64821"><ele>93.33333333333333</ele><time>2026-03-22T15:22:33.452Z</time></trkpt><trkpt lat="40.5382767" lon="16.6483617"><ele>98.66666666666666</ele><time>2026-03-22T15:22:34.452Z</time></trkpt><trkpt lat="40.538445" lon="16.6485133"><ele>104.0</ele><time>2026-03-22T15:22:35.453Z</time></trkpt><trkpt lat="40.5386133" lon="16.6486617"><ele>110.33333333333333</ele><time>2026-03-22T15:22:36.451Z</time></trkpt><trkpt lat="40.5387817" lon="16.648815"><ele>116.66666666666666</ele><time>2026-03-22T15:22:37.451Z</time></trkpt><trkpt lat="40.5389533" lon="16.6489683"><ele>123.0</ele><time>2026-03-22T15:22:38.453Z</time></trkpt><trkpt lat="40.5391283" lon="16.6491217"><ele>123.0</ele><time>2026-03-22T15:22:39.451Z</time></trkpt><trkpt lat="40.53931" lon="16.649275"><ele>123.0</ele><time>2026-03-22T15:22:40.452Z</time></trkpt><trkpt lat="40.539495" lon="16.649425"><ele>123.0</ele><time>2026-03-22T15:22:41.451Z</time></trkpt><trkpt lat="40.53968" lon="16.6495817"><ele>127.33333333333334</ele><time>2026-03-22T15:22:42.451Z</time></trkpt><trkpt lat="40.539865" lon="16.64974"><ele>131.66666666666669</ele><time>2026-03-22T15:22:43.451Z</time></trkpt><trkpt lat="40.5400533" lon="16.649905"><ele>136.0</ele><time>2026-03-22T15:22:44.452Z</time></trkpt><trkpt lat="40.5402467" lon="16.6500767"><ele>140.5</ele><time>2026-03-22T15:22:45.453Z</time></trkpt><trkpt lat="40.540445" lon="16.6502533"><ele>145.0</ele><time>2026-03-22T15:22:46.452Z</time></trkpt><trkpt lat="40.5406467" lon="16.65043"><ele>145.0</ele><time>2026-03-22T15:22:47.452Z</time></trkpt><trkpt lat="40.5408517" lon="16.6506133"><ele>145.0</ele><time>2026-03-22T15:22:48.452Z</time></trkpt><trkpt lat="40.5410567" lon="16.650795"><ele>149.0</ele><time>2026-03-22T15:22:49.451Z</time></trkpt><trkpt lat="40.5412667" lon="16.6509783"><ele>153.0</ele><time>2026-03-22T15:22:50.452Z</time></trkpt><trkpt lat="40.5414767" lon="16.6511617"><ele>153.0</ele><time>2026-03-22T15:22:51.452Z</time></trkpt><trkpt lat="40.541685" lon="16.6513433"><ele>153.0</ele><time>2026-03-22T15:22:52.453Z</time></trkpt><trkpt lat="40.5418917" lon="16.65152"><ele>158.0</ele><time>2026-03-22T15:22:53.451Z</time></trkpt><trkpt lat="40.5421033" lon="16.6516917"><ele>163.0</ele><time>2026-03-22T15:22:54.453Z</time></trkpt><trkpt lat="40.54232" lon="16.6518533"><ele>164.5</ele><time>2026-03-22T15:22:55.452Z</time></trkpt><trkpt lat="40.5425367" lon="16.6520083"><ele>166.0</ele><time>2026-03-22T15:22:56.453Z</time></trkpt><trkpt lat="40.5427583" lon="16.65216"><ele>168.5</ele><time>2026-03-22T15:22:57.452Z</time></trkpt><trkpt lat="40.5429767" lon="16.652305"><ele>171.0</ele><time>2026-03-22T15:22:58.453Z</time></trkpt><trkpt lat="40.5431917" lon="16.6524433"><ele>171.0</ele><time>2026-03-22T15:22:59.452Z</time></trkpt><trkpt lat="40.5433883" lon="16.6525683"><ele>171.0</ele><time>2026-03-22T15:23:00.454Z</time></trkpt><trkpt lat="40.5435617" lon="16.6526733"><ele>171.0</ele><time>2026-03-22T15:23:01.451Z</time></trkpt><trkpt lat="40.5437117" lon="16.652765"><ele>174.25</ele><time>2026-03-22T15:23:02.451Z</time></trkpt><trkpt lat="40.5438367" lon="16.6528617"><ele>177.5</ele><time>2026-03-22T15:23:03.452Z</time></trkpt><trkpt lat="40.5439583" lon="16.6529433"><ele>180.75</ele><time>2026-03-22T15:23:04.452Z</time></trkpt><trkpt lat="40.5440967" lon="16.653015"><ele>184.0</ele><time>2026-03-22T15:23:05.453Z</time></trkpt><trkpt lat="40.5442517" lon="16.6530833"><ele>184.0</ele><time>2026-03-22T15:23:06.452Z</time></trkpt><trkpt lat="40.54442" lon="16.6531717"><ele>184.0</ele><time>2026-03-22T15:23:07.452Z</time></trkpt><trkpt lat="40.5445883" lon="16.6532883"><ele>184.0</ele><time>2026-03-22T15:23:08.452Z</time></trkpt><trkpt lat="40.5447583" lon="16.6534133"><ele>186.66666666666669</ele><time>2026-03-22T15:23:09.451Z</time></trkpt><trkpt lat="40.5449367" lon="16.6535417"><ele>189.33333333333334</ele><time>2026-03-22T15:23:10.453Z</time></trkpt><trkpt lat="40.5451233" lon="16.6536783"><ele>192.0</ele><time>2026-03-22T15:23:11.452Z</time></trkpt><trkpt lat="40.5453183" lon="16.6538117"><ele>197.5</ele><time>2026-03-22T15:23:12.451Z</time></trkpt><trkpt lat="40.5455233" lon="16.6539317"><ele>203.0</ele><time>2026-03-22T15:23:13.451Z</time></trkpt><trkpt lat="40.5457367" lon="16.6540367"><ele>203.0</ele><time>2026-03-22T15:23:14.452Z</time></trkpt><trkpt lat="40.5459583" lon="16.6541233"><ele>203.0</ele><time>2026-03-22T15:23:15.452Z</time></trkpt><trkpt lat="40.5461833" lon="16.6541933"><ele>206.0</ele><time>2026-03-22T15:23:16.452Z</time></trkpt><trkpt lat="40.546415" lon="16.6542533"><ele>209.0</ele><time>2026-03-22T15:23:17.451Z</time></trkpt><trkpt lat="40.5466517" lon="16.6543117"><ele>209.0</ele><time>2026-03-22T15:23:18.451Z</time></trkpt><trkpt lat="40.5468883" lon="16.6543733"><ele>209.0</ele><time>2026-03-22T15:23:19.452Z</time></trkpt><trkpt lat="40.54712" lon="16.6544367"><ele>217.0</ele><time>2026-03-22T15:23:20.452Z</time></trkpt><trkpt lat="40.5473467" lon="16.654505"><ele>225.0</ele><time>2026-03-22T15:23:21.45Z</time></trkpt><trkpt lat="40.5475633" lon="16.654585"><ele>225.0</ele><time>2026-03-22T15:23:22.451Z</time></trkpt><trkpt lat="40.547765" lon="16.65469"><ele>225.0</ele><time>2026-03-22T15:23:23.452Z</time></trkpt><trkpt lat="40.5479517" lon="16.6548133"><ele>225.0</ele><time>2026-03-22T15:23:24.451Z</time></trkpt><trkpt lat="40.5481283" lon="16.65495"><ele>228.66666666666669</ele><time>2026-03-22T15:23:25.452Z</time></trkpt><trkpt lat="40.5482967" lon="16.6550967"><ele>232.33333333333334</ele><time>2026-03-22T15:23:26.452Z</time></trkpt><trkpt lat="40.54846" lon="16.6552533"><ele>236.0</ele><time>2026-03-22T15:23:27.451Z</time></trkpt><trkpt lat="40.548615" lon="16.65542"><ele>241.66666666666669</ele><time>2026-03-22T15:23:28.452Z</time></trkpt><trkpt lat="40.5487683" lon="16.655605"><ele>247.33333333333331</ele><time>2026-03-22T15:23:29.451Z</time></trkpt><trkpt lat="40.5489183" lon="16.65579"><ele>253.0</ele><time>2026-03-22T15:23:30.451Z</time></trkpt><trkpt lat="40.5490683" lon="16.6559717"><ele>254.0</ele><time>2026-03-22T15:23:31.451Z</time></trkpt><trkpt lat="40.549215" lon="16.6561433"><ele>255.0</ele><time>2026-03-22T15:23:32.452Z</time></trkpt><trkpt lat="40.549355" lon="16.6562983"><ele>256.0</ele><time>2026-03-22T15:23:33.451Z</time></trkpt><trkpt lat="40.54949" lon="16.6564367"><ele>257.0</ele><time>2026-03-22T15:23:34.452Z</time></trkpt><trkpt lat="40.549615" lon="16.6565717"><ele>258.0</ele><time>2026-03-22T15:23:35.451Z</time></trkpt><trkpt lat="40.54973" lon="16.6566933"><ele>259.0</ele><time>2026-03-22T15:23:36.451Z</time></trkpt><trkpt lat="40.5498367" lon="16.6568083"><ele>260.0</ele><time>2026-03-22T15:23:37.451Z</time></trkpt><trkpt lat="40.5499367" lon="16.6569167"><ele>260.0</ele><time>2026-03-22T15:23:38.452Z</time></trkpt><trkpt lat="40.5500317" lon="16.65702"><ele>260.0</ele><time>2026-03-22T15:23:39.451Z</time></trkpt><trkpt lat="40.5501133" lon="16.657115"><ele>260.0</ele><time>2026-03-22T15:23:40.451Z</time></trkpt><trkpt lat="40.5501833" lon="16.6571983"><ele>260.0</ele><time>2026-03-22T15:23:41.45Z</time></trkpt><trkpt lat="40.550245" lon="16.657275"><ele>260.0</ele><time>2026-03-22T15:23:42.451Z</time></trkpt><trkpt lat="40.5502983" lon="16.6573517"><ele>260.0</ele><time>2026-03-22T15:23:43.452Z</time></trkpt><trkpt lat="40.5503467" lon="16.6574267"><ele>260.0</ele><time>2026-03-22T15:23:44.452Z</time></trkpt><trkpt lat="40.55039" lon="16.657505"><ele>260.0</ele><time>2026-03-22T15:23:45.452Z</time></trkpt><trkpt lat="40.5504283" lon="16.6575867"><ele>260.0</ele><time>2026-03-22T15:23:46.452Z</time></trkpt><trkpt lat="40.55046" lon="16.6576883"><ele>260.0</ele><time>2026-03-22T15:23:47.451Z</time></trkpt><trkpt lat="40.550495" lon="16.6578"><ele>260.0</ele><time>2026-03-22T15:23:48.451Z</time></trkpt><trkpt lat="40.5505367" lon="16.65791"><ele>260.8</ele><time>2026-03-22T15:23:49.451Z</time></trkpt><trkpt lat="40.5505833" lon="16.6580183"><ele>261.6</ele><time>2026-03-22T15:23:50.452Z</time></trkpt><trkpt lat="40.55063" lon="16.6581283"><ele>262.4</ele><time>2026-03-22T15:23:51.452Z</time></trkpt><trkpt lat="40.5506767" lon="16.6582367"><ele>263.2</ele><time>2026-03-22T15:23:52.452Z</time></trkpt><trkpt lat="40.5507233" lon="16.6583517"><ele>264.0</ele><time>2026-03-22T15:23:53.453Z</time></trkpt><trkpt lat="40.55077" lon="16.6584683"><ele>264.0</ele><time>2026-03-22T15:23:54.452Z</time></trkpt><trkpt lat="40.5508133" lon="16.6585867"><ele>264.0</ele><time>2026-03-22T15:23:55.452Z</time></trkpt><trkpt lat="40.5508583" lon="16.65871"><ele>264.0</ele><time>2026-03-22T15:23:56.453Z</time></trkpt><trkpt lat="40.5509" lon="16.6588367"><ele>264.0</ele><time>2026-03-22T15:23:57.453Z</time></trkpt><trkpt lat="40.5509433" lon="16.6589683"><ele>264.0</ele><time>2026-03-22T15:23:58.453Z</time></trkpt><trkpt lat="40.5509833" lon="16.6591017"><ele>264.59999999999997</ele><time>2026-03-22T15:23:59.452Z</time></trkpt><trkpt lat="40.5510233" lon="16.6592367"><ele>265.2</ele><time>2026-03-22T15:24:00.452Z</time></trkpt><trkpt lat="40.5510717" lon="16.65937"><ele>265.79999999999995</ele><time>2026-03-22T15:24:01.452Z</time></trkpt><trkpt lat="40.5511283" lon="16.6594917"><ele>266.4</ele><time>2026-03-22T15:24:02.453Z</time></trkpt><trkpt lat="40.5511917" lon="16.6595933"><ele>267.0</ele><time>2026-03-22T15:24:03.453Z</time></trkpt><trkpt lat="40.5512617" lon="16.6596817"><ele>268.3333333333333</ele><time>2026-03-22T15:24:04.452Z</time></trkpt><trkpt lat="40.551335" lon="16.6597633"><ele>269.6666666666667</ele><time>2026-03-22T15:24:05.453Z</time></trkpt><trkpt lat="40.5514133" lon="16.6598333"><ele>271.0</ele><time>2026-03-22T15:24:06.452Z</time></trkpt><trkpt lat="40.5514867" lon="16.6598883"><ele>272.33333333333337</ele><time>2026-03-22T15:24:07.452Z</time></trkpt><trkpt lat="40.5515583" lon="16.65994"><ele>273.6666666666667</ele><time>2026-03-22T15:24:08.453Z</time></trkpt><trkpt lat="40.5516267" lon="16.6599867"><ele>275.0</ele><time>2026-03-22T15:24:09.452Z</time></trkpt><trkpt lat="40.5517033" lon="16.6600333"><ele>275.0</ele><time>2026-03-22T15:24:10.452Z</time></trkpt><trkpt lat="40.55178" lon="16.660085"><ele>275.0</ele><time>2026-03-22T15:24:11.453Z</time></trkpt><trkpt lat="40.5518567" lon="16.6601417"><ele>275.0</ele><time>2026-03-22T15:24:12.453Z</time></trkpt><trkpt lat="40.551935" lon="16.660195"><ele>275.0</ele><time>2026-03-22T15:24:13.452Z</time></trkpt><trkpt lat="40.5520117" lon="16.6602433"><ele>275.0</ele><time>2026-03-22T15:24:14.453Z</time></trkpt><trkpt lat="40.55208" lon="16.660295"><ele>275.0</ele><time>2026-03-22T15:24:15.452Z</time></trkpt><trkpt lat="40.552135" lon="16.6603567"><ele>275.6666666666667</ele><time>2026-03-22T15:24:16.453Z</time></trkpt><trkpt lat="40.5521783" lon="16.66044"><ele>276.33333333333337</ele><time>2026-03-22T15:24:17.452Z</time></trkpt><trkpt lat="40.5521833" lon="16.66053"><ele>277.0</ele><time>2026-03-22T15:24:18.454Z</time></trkpt><trkpt lat="40.55214" lon="16.6606117"><ele>277.6666666666667</ele><time>2026-03-22T15:24:19.454Z</time></trkpt><trkpt lat="40.55208" lon="16.660675"><ele>278.3333333333333</ele><time>2026-03-22T15:24:20.452Z</time></trkpt><trkpt lat="40.552015" lon="16.660735"><ele>279.0</ele><time>2026-03-22T15:24:21.451Z</time></trkpt><trkpt lat="40.5519517" lon="16.6607983"><ele>279.0</ele><time>2026-03-22T15:24:22.452Z</time></trkpt><trkpt lat="40.5518933" lon="16.66088"><ele>279.0</ele><time>2026-03-22T15:24:23.451Z</time></trkpt><trkpt lat="40.5518433" lon="16.6609667"><ele>279.0</ele><time>2026-03-22T15:24:24.453Z</time></trkpt><trkpt lat="40.5517933" lon="16.6610633"><ele>279.0</ele><time>2026-03-22T15:24:25.454Z</time></trkpt><trkpt lat="40.55174" lon="16.66114"><ele>279.0</ele><time>2026-03-22T15:24:26.453Z</time></trkpt><trkpt lat="40.55164" lon="16.6612167"><ele>279.0</ele><time>2026-03-22T15:24:28.452Z</time></trkpt><trkpt lat="40.5515717" lon="16.661195"><ele>279.0</ele><time>2026-03-22T15:24:29.454Z</time></trkpt><trkpt lat="40.5515017" lon="16.6611667"><ele>279.0</ele><time>2026-03-22T15:24:30.452Z</time></trkpt><trkpt lat="40.5514317" lon="16.6611267"><ele>279.0</ele><time>2026-03-22T15:24:31.455Z</time></trkpt><trkpt lat="40.5513583" lon="16.6610783"><ele>279.0</ele><time>2026-03-22T15:24:32.453Z</time></trkpt><trkpt lat="40.5512833" lon="16.661035"><ele>279.0</ele><time>2026-03-22T15:24:33.454Z</time></trkpt><trkpt lat="40.5512033" lon="16.661"><ele>277.5</ele><time>2026-03-22T15:24:34.453Z</time></trkpt><trkpt lat="40.551125" lon="16.66097"><ele>276.0</ele><time>2026-03-22T15:24:35.453Z</time></trkpt><trkpt lat="40.551045" lon="16.6609567"><ele>274.5</ele><time>2026-03-22T15:24:36.452Z</time></trkpt><trkpt lat="40.550965" lon="16.66095"><ele>273.0</ele><time>2026-03-22T15:24:37.453Z</time></trkpt><trkpt lat="40.5508817" lon="16.6609433"><ele>271.5</ele><time>2026-03-22T15:24:38.453Z</time></trkpt><trkpt lat="40.5508" lon="16.66094"><ele>270.0</ele><time>2026-03-22T15:24:39.452Z</time></trkpt><trkpt lat="40.5507167" lon="16.6609383"><ele>270.0</ele><time>2026-03-22T15:24:40.452Z</time></trkpt><trkpt lat="40.55063" lon="16.6609433"><ele>270.0</ele><time>2026-03-22T15:24:41.452Z</time></trkpt><trkpt lat="40.5505417" lon="16.66097"><ele>270.0</ele><time>2026-03-22T15:24:42.452Z</time></trkpt><trkpt lat="40.5504483" lon="16.661015"><ele>270.0</ele><time>2026-03-22T15:24:43.452Z</time></trkpt><trkpt lat="40.55035" lon="16.661075"><ele>270.0</ele><time>2026-03-22T15:24:44.452Z</time></trkpt><trkpt lat="40.55025" lon="16.661135"><ele>269.8</ele><time>2026-03-22T15:24:45.453Z</time></trkpt><trkpt lat="40.5501483" lon="16.66119"><ele>269.6</ele><time>2026-03-22T15:24:46.452Z</time></trkpt><trkpt lat="40.5500483" lon="16.66124"><ele>269.4</ele><time>2026-03-22T15:24:47.454Z</time></trkpt><trkpt lat="40.54995" lon="16.6612867"><ele>269.2</ele><time>2026-03-22T15:24:48.455Z</time></trkpt><trkpt lat="40.5498533" lon="16.6613333"><ele>269.0</ele><time>2026-03-22T15:24:49.454Z</time></trkpt><trkpt lat="40.5497583" lon="16.6613767"><ele>269.0</ele><time>2026-03-22T15:24:50.454Z</time></trkpt><trkpt lat="40.549665" lon="16.66142"><ele>269.0</ele><time>2026-03-22T15:24:51.453Z</time></trkpt><trkpt lat="40.5495733" lon="16.6614633"><ele>269.0</ele><time>2026-03-22T15:24:52.453Z</time></trkpt><trkpt lat="40.5494833" lon="16.661505"><ele>269.0</ele><time>2026-03-22T15:24:53.454Z</time></trkpt><trkpt lat="40.5494033" lon="16.6615483"><ele>269.0</ele><time>2026-03-22T15:24:54.453Z</time></trkpt><trkpt lat="40.549325" lon="16.6615917"><ele>269.4</ele><time>2026-03-22T15:24:55.454Z</time></trkpt><trkpt lat="40.5492533" lon="16.661625"><ele>269.79999999999995</ele><time>2026-03-22T15:24:56.453Z</time></trkpt><trkpt lat="40.5491633" lon="16.661695"><ele>270.20000000000005</ele><time>2026-03-22T15:24:58.455Z</time></trkpt><trkpt lat="40.54917" lon="16.66179"><ele>270.6</ele><time>2026-03-22T15:25:00.452Z</time></trkpt><trkpt lat="40.5492683" lon="16.66189"><ele>271.0</ele><time>2026-03-22T15:25:02.453Z</time></trkpt><trkpt lat="40.54936" lon="16.6619817"><ele>271.0</ele><time>2026-03-22T15:25:04.453Z</time></trkpt><trkpt lat="40.5494517" lon="16.6620533"><ele>271.0</ele><time>2026-03-22T15:25:06.452Z</time></trkpt><trkpt lat="40.5495317" lon="16.66216"><ele>271.0</ele><time>2026-03-22T15:25:08.455Z</time></trkpt><trkpt lat="40.5495917" lon="16.6622367"><ele>271.0</ele><time>2026-03-22T15:25:10.455Z</time></trkpt><trkpt lat="40.54967" lon="16.6622583"><ele>271.0</ele><time>2026-03-22T15:25:12.452Z</time></trkpt><trkpt lat="40.549775" lon="16.6622417"><ele>271.5</ele><time>2026-03-22T15:25:14.453Z</time></trkpt><trkpt lat="40.5498917" lon="16.66227"><ele>272.0</ele><time>2026-03-22T15:25:16.454Z</time></trkpt><trkpt lat="40.54994" lon="16.6623333"><ele>272.5</ele><time>2026-03-22T15:25:17.454Z</time></trkpt><trkpt lat="40.5499817" lon="16.6624167"><ele>273.0</ele><time>2026-03-22T15:25:18.453Z</time></trkpt><trkpt lat="40.5500283" lon="16.66249"><ele>273.5</ele><time>2026-03-22T15:25:19.453Z</time></trkpt><trkpt lat="40.550075" lon="16.662565"><ele>274.0</ele><time>2026-03-22T15:25:20.453Z</time></trkpt><trkpt lat="40.5501233" lon="16.6626383"><ele>274.0</ele><time>2026-03-22T15:25:21.458Z</time></trkpt><trkpt lat="40.5501767" lon="16.6626983"><ele>274.0</ele><time>2026-03-22T15:25:22.452Z</time></trkpt><trkpt lat="40.55023" lon="16.662755"><ele>274.0</ele><time>2026-03-22T15:25:23.452Z</time></trkpt><trkpt lat="40.550285" lon="16.6627967"><ele>274.0</ele><time>2026-03-22T15:25:24.452Z</time></trkpt><trkpt lat="40.5503917" lon="16.66283"><ele>274.0</ele><time>2026-03-22T15:25:26.453Z</time></trkpt><trkpt lat="40.5505" lon="16.66274"><ele>274.0</ele><time>2026-03-22T15:25:28.457Z</time></trkpt><trkpt lat="40.5505467" lon="16.6626383"><ele>276.75</ele><time>2026-03-22T15:25:29.453Z</time></trkpt><trkpt lat="40.5506183" lon="16.6625333"><ele>279.5</ele><time>2026-03-22T15:25:30.452Z</time></trkpt><trkpt lat="40.550695" lon="16.6624233"><ele>282.25</ele><time>2026-03-22T15:25:31.452Z</time></trkpt><trkpt lat="40.5507833" lon="16.6622933"><ele>285.0</ele><time>2026-03-22T15:25:32.453Z</time></trkpt><trkpt lat="40.5508583" lon="16.662155"><ele>285.0</ele><time>2026-03-22T15:25:33.452Z</time></trkpt><trkpt lat="40.5509233" lon="16.6620283"><ele>285.0</ele><time>2026-03-22T15:25:34.453Z</time></trkpt><trkpt lat="40.5509817" lon="16.6619117"><ele>285.0</ele><time>2026-03-22T15:25:35.454Z</time></trkpt><trkpt lat="40.5510333" lon="16.6618167"><ele>285.0</ele><time>2026-03-22T15:25:36.454Z</time></trkpt><trkpt lat="40.5510817" lon="16.66175"><ele>285.0</ele><time>2026-03-22T15:25:37.454Z</time></trkpt><trkpt lat="40.5512" lon="16.6616917"><ele>285.8</ele><time>2026-03-22T15:25:39.452Z</time></trkpt><trkpt lat="40.5512867" lon="16.6617233"><ele>286.6</ele><time>2026-03-22T15:25:40.452Z</time></trkpt><trkpt lat="40.5513767" lon="16.66177"><ele>287.4</ele><time>2026-03-22T15:25:41.451Z</time></trkpt><trkpt lat="40.5514483" lon="16.6618317"><ele>288.2</ele><time>2026-03-22T15:25:42.452Z</time></trkpt><trkpt lat="40.5514933" lon="16.6619"><ele>289.0</ele><time>2026-03-22T15:25:43.451Z</time></trkpt><trkpt lat="40.551515" lon="16.6620833"><ele>290.75</ele><time>2026-03-22T15:25:45.452Z</time></trkpt><trkpt lat="40.5514783" lon="16.6622067"><ele>292.5</ele><time>2026-03-22T15:25:46.452Z</time></trkpt><trkpt lat="40.5514383" lon="16.662345"><ele>294.25</ele><time>2026-03-22T15:25:47.452Z</time></trkpt><trkpt lat="40.5513867" lon="16.6625033"><ele>296.0</ele><time>2026-03-22T15:25:48.452Z</time></trkpt><trkpt lat="40.55132" lon="16.6626717"><ele>295.0</ele><time>2026-03-22T15:25:49.452Z</time></trkpt><trkpt lat="40.551255" lon="16.6628383"><ele>294.0</ele><time>2026-03-22T15:25:50.453Z</time></trkpt><trkpt lat="40.5511917" lon="16.6630067"><ele>293.0</ele><time>2026-03-22T15:25:51.452Z</time></trkpt><trkpt lat="40.551135" lon="16.66318"><ele>292.0</ele><time>2026-03-22T15:25:52.452Z</time></trkpt><trkpt lat="40.5510917" lon="16.66336"><ele>292.0</ele><time>2026-03-22T15:25:53.455Z</time></trkpt><trkpt lat="40.5510517" lon="16.663545"><ele>292.0</ele><time>2026-03-22T15:25:54.452Z</time></trkpt><trkpt lat="40.5510167" lon="16.6637317"><ele>292.0</ele><time>2026-03-22T15:25:55.455Z</time></trkpt><trkpt lat="40.5509833" lon="16.66392"><ele>292.0</ele><time>2026-03-22T15:25:56.453Z</time></trkpt><trkpt lat="40.5509617" lon="16.6641117"><ele>293.0</ele><time>2026-03-22T15:25:57.452Z</time></trkpt><trkpt lat="40.550955" lon="16.6643033"><ele>294.0</ele><time>2026-03-22T15:25:58.455Z</time></trkpt><trkpt lat="40.5509517" lon="16.6644917"><ele>295.0</ele><time>2026-03-22T15:25:59.452Z</time></trkpt><trkpt lat="40.5509567" lon="16.6646733"><ele>296.0</ele><time>2026-03-22T15:26:00.452Z</time></trkpt><trkpt lat="40.5509633" lon="16.6648433"><ele>297.2</ele><time>2026-03-22T15:26:01.452Z</time></trkpt><trkpt lat="40.5509683" lon="16.6650067"><ele>298.40000000000003</ele><time>2026-03-22T15:26:02.452Z</time></trkpt><trkpt lat="40.550965" lon="16.665155"><ele>299.6</ele><time>2026-03-22T15:26:03.452Z</time></trkpt><trkpt lat="40.5509417" lon="16.6652833"><ele>300.8</ele><time>2026-03-22T15:26:04.452Z</time></trkpt><trkpt lat="40.5508867" lon="16.66539"><ele>302.0</ele><time>2026-03-22T15:26:05.453Z</time></trkpt><trkpt lat="40.5508033" lon="16.6654667"><ele>305.25</ele><time>2026-03-22T15:26:06.453Z</time></trkpt><trkpt lat="40.55071" lon="16.6655267"><ele>308.5</ele><time>2026-03-22T15:26:07.452Z</time></trkpt><trkpt lat="40.5506017" lon="16.6655567"><ele>311.75</ele><time>2026-03-22T15:26:08.453Z</time></trkpt><trkpt lat="40.5504817" lon="16.6655733"><ele>315.0</ele><time>2026-03-22T15:26:09.452Z</time></trkpt><trkpt lat="40.550365" lon="16.6655967"><ele>315.0</ele><time>2026-03-22T15:26:10.454Z</time></trkpt><trkpt lat="40.5502417" lon="16.6656083"><ele>315.0</ele><time>2026-03-22T15:26:11.453Z</time></trkpt><trkpt lat="40.5501183" lon="16.6656217"><ele>315.0</ele><time>2026-03-22T15:26:12.454Z</time></trkpt><trkpt lat="40.549995" lon="16.6656233"><ele>315.0</ele><time>2026-03-22T15:26:13.452Z</time></trkpt><trkpt lat="40.5498833" lon="16.6656183"><ele>315.0</ele><time>2026-03-22T15:26:14.453Z</time></trkpt><trkpt lat="40.54978" lon="16.6655967"><ele>315.0</ele><time>2026-03-22T15:26:15.452Z</time></trkpt><trkpt lat="40.54969" lon="16.66558"><ele>315.0</ele><time>2026-03-22T15:26:16.453Z</time></trkpt><trkpt lat="40.5496033" lon="16.6655783"><ele>315.0</ele><time>2026-03-22T15:26:17.453Z</time></trkpt><trkpt lat="40.54952" lon="16.665595"><ele>315.0</ele><time>2026-03-22T15:26:18.453Z</time></trkpt><trkpt lat="40.549445" lon="16.66564"><ele>315.0</ele><time>2026-03-22T15:26:19.452Z</time></trkpt><trkpt lat="40.549415" lon="16.6657283"><ele>314.3333333333333</ele><time>2026-03-22T15:26:20.453Z</time></trkpt><trkpt lat="40.5494283" lon="16.66587"><ele>313.6666666666667</ele><time>2026-03-22T15:26:21.453Z</time></trkpt><trkpt lat="40.5494333" lon="16.6659983"><ele>313.0</ele><time>2026-03-22T15:26:22.451Z</time></trkpt><trkpt lat="40.5494383" lon="16.6661183"><ele>312.33333333333337</ele><time>2026-03-22T15:26:23.451Z</time></trkpt><trkpt lat="40.5494417" lon="16.6662183"><ele>311.6666666666667</ele><time>2026-03-22T15:26:24.452Z</time></trkpt><trkpt lat="40.5494917" lon="16.66628"><ele>311.0</ele><time>2026-03-22T15:26:26.453Z</time></trkpt><trkpt lat="40.5495783" lon="16.66629"><ele>315.25</ele><time>2026-03-22T15:26:28.451Z</time></trkpt><trkpt lat="40.5496967" lon="16.6662717"><ele>319.5</ele><time>2026-03-22T15:26:30.452Z</time></trkpt><trkpt lat="40.54979" lon="16.6662533"><ele>323.75</ele><time>2026-03-22T15:26:31.453Z</time></trkpt><trkpt lat="40.5499083" lon="16.6662333"><ele>328.0</ele><time>2026-03-22T15:26:32.452Z</time></trkpt><trkpt lat="40.55005" lon="16.6662233"><ele>328.0</ele><time>2026-03-22T15:26:33.452Z</time></trkpt><trkpt lat="40.5502017" lon="16.666215"><ele>328.0</ele><time>2026-03-22T15:26:34.452Z</time></trkpt><trkpt lat="40.5503633" lon="16.6662133"><ele>328.0</ele><time>2026-03-22T15:26:35.453Z</time></trkpt><trkpt lat="40.5505233" lon="16.6662133"><ele>328.0</ele><time>2026-03-22T15:26:36.454Z</time></trkpt><trkpt lat="40.5506783" lon="16.6662117"><ele>328.0</ele><time>2026-03-22T15:26:37.451Z</time></trkpt><trkpt lat="40.5508233" lon="16.6662067"><ele>328.0</ele><time>2026-03-22T15:26:38.454Z</time></trkpt><trkpt lat="40.5509683" lon="16.666195"><ele>328.0</ele><time>2026-03-22T15:26:39.452Z</time></trkpt><trkpt lat="40.5511233" lon="16.6661817"><ele>328.66666666666663</ele><time>2026-03-22T15:26:40.452Z</time></trkpt><trkpt lat="40.5512817" lon="16.6661583"><ele>329.3333333333333</ele><time>2026-03-22T15:26:41.452Z</time></trkpt><trkpt lat="40.551435" lon="16.6661317"><ele>330.0</ele><time>2026-03-22T15:26:42.452Z</time></trkpt><trkpt lat="40.5515817" lon="16.6661017"><ele>329.5</ele><time>2026-03-22T15:26:43.452Z</time></trkpt><trkpt lat="40.5517133" lon="16.6660733"><ele>329.0</ele><time>2026-03-22T15:26:44.452Z</time></trkpt><trkpt lat="40.551835" lon="16.66605"><ele>328.5</ele><time>2026-03-22T15:26:45.452Z</time></trkpt><trkpt lat="40.5519417" lon="16.666025"><ele>328.0</ele><time>2026-03-22T15:26:46.455Z</time></trkpt><trkpt lat="40.5520533" lon="16.66607"><ele>329.5</ele><time>2026-03-22T15:26:47.452Z</time></trkpt><trkpt lat="40.5521467" lon="16.66615"><ele>331.0</ele><time>2026-03-22T15:26:48.452Z</time></trkpt><trkpt lat="40.5522383" lon="16.666285"><ele>332.5</ele><time>2026-03-22T15:26:49.454Z</time></trkpt><trkpt lat="40.5523333" lon="16.66644"><ele>334.0</ele><time>2026-03-22T15:26:50.453Z</time></trkpt><trkpt lat="40.5524233" lon="16.6666033"><ele>334.0</ele><time>2026-03-22T15:26:51.452Z</time></trkpt><trkpt lat="40.5525133" lon="16.6667583"><ele>334.0</ele><time>2026-03-22T15:26:52.452Z</time></trkpt><trkpt lat="40.552615" lon="16.6669083"><ele>334.0</ele><time>2026-03-22T15:26:53.452Z</time></trkpt><trkpt lat="40.552735" lon="16.6670333"><ele>333.75</ele><time>2026-03-22T15:26:54.453Z</time></trkpt><trkpt lat="40.5528617" lon="16.6671267"><ele>333.5</ele><time>2026-03-22T15:26:55.456Z</time></trkpt><trkpt lat="40.5529833" lon="16.6671967"><ele>333.25</ele><time>2026-03-22T15:26:56.452Z</time></trkpt><trkpt lat="40.5530983" lon="16.6672533"><ele>333.0</ele><time>2026-03-22T15:26:57.456Z</time></trkpt><trkpt lat="40.5532017" lon="16.6672983"><ele>333.3333333333333</ele><time>2026-03-22T15:26:58.453Z</time></trkpt><trkpt lat="40.5532917" lon="16.6673233"><ele>333.6666666666667</ele><time>2026-03-22T15:26:59.452Z</time></trkpt><trkpt lat="40.5533717" lon="16.6673283"><ele>334.0</ele><time>2026-03-22T15:27:00.452Z</time></trkpt><trkpt lat="40.5534433" lon="16.6673333"><ele>334.33333333333337</ele><time>2026-03-22T15:27:01.458Z</time></trkpt><trkpt lat="40.5535583" lon="16.6673483"><ele>334.6666666666667</ele><time>2026-03-22T15:27:03.453Z</time></trkpt><trkpt lat="40.5536217" lon="16.66737"><ele>335.0</ele><time>2026-03-22T15:27:04.453Z</time></trkpt><trkpt lat="40.55369" lon="16.6673917"><ele>335.71428571428567</ele><time>2026-03-22T15:27:05.452Z</time></trkpt><trkpt lat="40.5537617" lon="16.6674017"><ele>336.42857142857144</ele><time>2026-03-22T15:27:06.452Z</time></trkpt><trkpt lat="40.55384" lon="16.6674167"><ele>337.1428571428571</ele><time>2026-03-22T15:27:07.453Z</time></trkpt><trkpt lat="40.5539183" lon="16.6674167"><ele>337.85714285714283</ele><time>2026-03-22T15:27:08.453Z</time></trkpt><trkpt lat="40.5539883" lon="16.6674283"><ele>338.57142857142856</ele><time>2026-03-22T15:27:09.453Z</time></trkpt><trkpt lat="40.55406" lon="16.6674383"><ele>339.2857142857143</ele><time>2026-03-22T15:27:10.453Z</time></trkpt><trkpt lat="40.5541317" lon="16.667455"><ele>340.0</ele><time>2026-03-22T15:27:11.454Z</time></trkpt><trkpt lat="40.5542167" lon="16.6674833"><ele>340.0</ele><time>2026-03-22T15:27:12.452Z</time></trkpt><trkpt lat="40.55431" lon="16.66749"><ele>340.0</ele><time>2026-03-22T15:27:13.453Z</time></trkpt><trkpt lat="40.5544033" lon="16.6675067"><ele>340.0</ele><time>2026-03-22T15:27:14.453Z</time></trkpt><trkpt lat="40.554515" lon="16.6675183"><ele>340.0</ele><time>2026-03-22T15:27:15.451Z</time></trkpt><trkpt lat="40.55463" lon="16.667535"><ele>340.0</ele><time>2026-03-22T15:27:16.452Z</time></trkpt><trkpt lat="40.55474" lon="16.6675533"><ele>341.0</ele><time>2026-03-22T15:27:17.452Z</time></trkpt><trkpt lat="40.5548367" lon="16.66757"><ele>342.0</ele><time>2026-03-22T15:27:18.453Z</time></trkpt><trkpt lat="40.5549233" lon="16.6675817"><ele>343.0</ele><time>2026-03-22T15:27:19.452Z</time></trkpt><trkpt lat="40.555" lon="16.6675817"><ele>344.0</ele><time>2026-03-22T15:27:20.453Z</time></trkpt><trkpt lat="40.5550917" lon="16.66759"><ele>345.0</ele><time>2026-03-22T15:27:22.455Z</time></trkpt><trkpt lat="40.5551667" lon="16.6675467"><ele>346.0</ele><time>2026-03-22T15:27:24.451Z</time></trkpt><trkpt lat="40.5552183" lon="16.6674417"><ele>346.0</ele><time>2026-03-22T15:27:26.453Z</time></trkpt><trkpt lat="40.5552567" lon="16.6673283"><ele>346.0</ele><time>2026-03-22T15:27:28.452Z</time></trkpt><trkpt lat="40.555275" lon="16.6672083"><ele>346.0</ele><time>2026-03-22T15:27:30.452Z</time></trkpt><trkpt lat="40.555295" lon="16.6670917"><ele>346.0</ele><time>2026-03-22T15:27:32.454Z</time></trkpt><trkpt lat="40.5553217" lon="16.6669733"><ele>346.0</ele><time>2026-03-22T15:27:34.453Z</time></trkpt><trkpt lat="40.5553683" lon="16.6668533"><ele>346.0</ele><time>2026-03-22T15:27:36.452Z</time></trkpt><trkpt lat="40.55541" lon="16.6667267"><ele>346.0</ele><time>2026-03-22T15:27:38.453Z</time></trkpt><trkpt lat="40.5554467" lon="16.6665867"><ele>346.0</ele><time>2026-03-22T15:27:40.454Z</time></trkpt><trkpt lat="40.5554783" lon="16.6664417"><ele>346.0</ele><time>2026-03-22T15:27:42.453Z</time></trkpt><trkpt lat="40.5555233" lon="16.666305"><ele>346.0</ele><time>2026-03-22T15:27:44.455Z</time></trkpt><trkpt lat="40.55556" lon="16.66617"><ele>347.20000000000005</ele><time>2026-03-22T15:27:46.453Z</time></trkpt><trkpt lat="40.5556083" lon="16.6660317"><ele>348.40000000000003</ele><time>2026-03-22T15:27:48.453Z</time></trkpt><trkpt lat="40.5556283" lon="16.6659383"><ele>349.6</ele><time>2026-03-22T15:27:49.455Z</time></trkpt><trkpt lat="40.5556517" lon="16.6658267"><ele>350.8</ele><time>2026-03-22T15:27:50.454Z</time></trkpt><trkpt lat="40.5556783" lon="16.66571"><ele>352.0</ele><time>2026-03-22T15:27:51.452Z</time></trkpt><trkpt lat="40.555705" lon="16.6656017"><ele>352.0</ele><time>2026-03-22T15:27:52.453Z</time></trkpt><trkpt lat="40.555735" lon="16.6655"><ele>352.0</ele><time>2026-03-22T15:27:53.453Z</time></trkpt><trkpt lat="40.5557833" lon="16.6654133"><ele>352.0</ele><time>2026-03-22T15:27:54.453Z</time></trkpt><trkpt lat="40.55585" lon="16.6653217"><ele>352.0</ele><time>2026-03-22T15:27:55.453Z</time></trkpt><trkpt lat="40.5559217" lon="16.6652267"><ele>352.0</ele><time>2026-03-22T15:27:56.454Z</time></trkpt><trkpt lat="40.555995" lon="16.66513"><ele>353.25</ele><time>2026-03-22T15:27:57.454Z</time></trkpt><trkpt lat="40.556075" lon="16.6650317"><ele>354.5</ele><time>2026-03-22T15:27:58.452Z</time></trkpt><trkpt lat="40.5561567" lon="16.6649283"><ele>355.75</ele><time>2026-03-22T15:27:59.453Z</time></trkpt><trkpt lat="40.5562483" lon="16.6648233"><ele>357.0</ele><time>2026-03-22T15:28:00.452Z</time></trkpt><trkpt lat="40.55634" lon="16.6647267"><ele>357.20000000000005</ele><time>2026-03-22T15:28:01.454Z</time></trkpt><trkpt lat="40.5564267" lon="16.66464"><ele>357.4</ele><time>2026-03-22T15:28:02.453Z</time></trkpt><trkpt lat="40.5565017" lon="16.66455"><ele>357.6</ele><time>2026-03-22T15:28:03.452Z</time></trkpt><trkpt lat="40.5565733" lon="16.6644683"><ele>357.79999999999995</ele><time>2026-03-22T15:28:04.452Z</time></trkpt><trkpt lat="40.5566383" lon="16.6643833"><ele>358.0</ele><time>2026-03-22T15:28:05.453Z</time></trkpt><trkpt lat="40.5567" lon="16.6643067"><ele>358.5</ele><time>2026-03-22T15:28:06.452Z</time></trkpt><trkpt lat="40.5567583" lon="16.6642333"><ele>359.0</ele><time>2026-03-22T15:28:07.455Z</time></trkpt><trkpt lat="40.5568133" lon="16.6641667"><ele>359.5</ele><time>2026-03-22T15:28:08.454Z</time></trkpt><trkpt lat="40.556865" lon="16.6641033"><ele>360.0</ele><time>2026-03-22T15:28:09.452Z</time></trkpt><trkpt lat="40.5569517" lon="16.6640017"><ele>360.5</ele><time>2026-03-22T15:28:11.455Z</time></trkpt><trkpt lat="40.5570383" lon="16.66392"><ele>361.0</ele><time>2026-03-22T15:28:13.452Z</time></trkpt><trkpt lat="40.5571383" lon="16.6638333"><ele>361.5</ele><time>2026-03-22T15:28:15.451Z</time></trkpt><trkpt lat="40.55723" lon="16.6637617"><ele>362.0</ele><time>2026-03-22T15:28:17.452Z</time></trkpt><trkpt lat="40.5573433" lon="16.6636533"><ele>362.5</ele><time>2026-03-22T15:28:19.452Z</time></trkpt><trkpt lat="40.5574217" lon="16.66357"><ele>363.0</ele><time>2026-03-22T15:28:20.453Z</time></trkpt><trkpt lat="40.557505" lon="16.6634733"><ele>363.0</ele><time>2026-03-22T15:28:21.452Z</time></trkpt><trkpt lat="40.557585" lon="16.66339"><ele>363.0</ele><time>2026-03-22T15:28:22.453Z</time></trkpt><trkpt lat="40.557655" lon="16.6633133"><ele>363.0</ele><time>2026-03-22T15:28:23.452Z</time></trkpt><trkpt lat="40.55772" lon="16.66326"><ele>363.0</ele><time>2026-03-22T15:28:24.457Z</time></trkpt><trkpt lat="40.5577767" lon="16.6632183"><ele>363.0</ele><time>2026-03-22T15:28:25.452Z</time></trkpt><trkpt lat="40.557865" lon="16.66319"><ele>363.0</ele><time>2026-03-22T15:28:27.452Z</time></trkpt><trkpt lat="40.5579183" lon="16.6632433"><ele>363.0</ele><time>2026-03-22T15:28:28.452Z</time></trkpt><trkpt lat="40.557965" lon="16.663355"><ele>363.0</ele><time>2026-03-22T15:28:29.453Z</time></trkpt><trkpt lat="40.5580033" lon="16.66347"><ele>363.0</ele><time>2026-03-22T15:28:30.452Z</time></trkpt><trkpt lat="40.55804" lon="16.663565"><ele>363.0</ele><time>2026-03-22T15:28:31.452Z</time></trkpt><trkpt lat="40.5581133" lon="16.6636833"><ele>363.0</ele><time>2026-03-22T15:28:33.452Z</time></trkpt><trkpt lat="40.5582133" lon="16.6637033"><ele>363.0</ele><time>2026-03-22T15:28:35.452Z</time></trkpt><trkpt lat="40.5582817" lon="16.6636717"><ele>363.0</ele><time>2026-03-22T15:28:36.452Z</time></trkpt><trkpt lat="40.55835" lon="16.6636233"><ele>363.0</ele><time>2026-03-22T15:28:37.453Z</time></trkpt><trkpt lat="40.5584533" lon="16.6635767"><ele>363.0</ele><time>2026-03-22T15:28:39.453Z</time></trkpt><trkpt lat="40.558525" lon="16.6635967"><ele>363.0</ele><time>2026-03-22T15:28:41.454Z</time></trkpt><trkpt lat="40.5584767" lon="16.6636867"><ele>363.0</ele><time>2026-03-22T15:28:44.455Z</time></trkpt><trkpt lat="40.55835" lon="16.66373"><ele>363.0</ele><time>2026-03-22T15:28:46.453Z</time></trkpt><trkpt lat="40.5582767" lon="16.6637483"><ele>363.0</ele><time>2026-03-22T15:28:47.452Z</time></trkpt><trkpt lat="40.5582067" lon="16.663755"><ele>363.0</ele><time>2026-03-22T15:28:48.453Z</time></trkpt><trkpt lat="40.558105" lon="16.6637367"><ele>363.0</ele><time>2026-03-22T15:28:50.453Z</time></trkpt><trkpt lat="40.5580483" lon="16.6636333"><ele>363.0</ele><time>2026-03-22T15:28:52.454Z</time></trkpt><trkpt lat="40.558005" lon="16.66349"><ele>363.0</ele><time>2026-03-22T15:28:54.452Z</time></trkpt><trkpt lat="40.557955" lon="16.6633817"><ele>363.0</ele><time>2026-03-22T15:28:56.455Z</time></trkpt><trkpt lat="40.5579167" lon="16.6632983"><ele>363.0</ele><time>2026-03-22T15:28:58.452Z</time></trkpt><trkpt lat="40.55783" lon="16.6633117"><ele>363.0</ele><time>2026-03-22T15:29:00.452Z</time></trkpt><trkpt lat="40.5577667" lon="16.6633533"><ele>363.0</ele><time>2026-03-22T15:29:01.453Z</time></trkpt><trkpt lat="40.5577033" lon="16.6633983"><ele>363.0</ele><time>2026-03-22T15:29:02.454Z</time></trkpt><trkpt lat="40.55762" lon="16.6634717"><ele>363.0</ele><time>2026-03-22T15:29:03.453Z</time></trkpt><trkpt lat="40.5575417" lon="16.6635417"><ele>363.0</ele><time>2026-03-22T15:29:04.452Z</time></trkpt><trkpt lat="40.5574683" lon="16.66361"><ele>363.0</ele><time>2026-03-22T15:29:05.452Z</time></trkpt><trkpt lat="40.5574033" lon="16.6636767"><ele>363.0</ele><time>2026-03-22T15:29:06.453Z</time></trkpt><trkpt lat="40.5573467" lon="16.6637383"><ele>363.0</ele><time>2026-03-22T15:29:07.452Z</time></trkpt><trkpt lat="40.557295" lon="16.66379"><ele>363.0</ele><time>2026-03-22T15:29:08.452Z</time></trkpt><trkpt lat="40.5572467" lon="16.6638467"><ele>363.0</ele><time>2026-03-22T15:29:09.452Z</time></trkpt><trkpt lat="40.557195" lon="16.663905"><ele>363.0</ele><time>2026-03-22T15:29:10.453Z</time></trkpt><trkpt lat="40.5571383" lon="16.66396"><ele>363.0</ele><time>2026-03-22T15:29:11.453Z</time></trkpt><trkpt lat="40.55708" lon="16.6640133"><ele>363.0</ele><time>2026-03-22T15:29:12.452Z</time></trkpt><trkpt lat="40.557015" lon="16.6640717"><ele>363.0</ele><time>2026-03-22T15:29:13.452Z</time></trkpt><trkpt lat="40.556945" lon="16.6641417"><ele>363.0</ele><time>2026-03-22T15:29:14.454Z</time></trkpt><trkpt lat="40.55687" lon="16.6642183"><ele>362.59999999999997</ele><time>2026-03-22T15:29:15.451Z</time></trkpt><trkpt lat="40.556795" lon="16.6643"><ele>362.2</ele><time>2026-03-22T15:29:16.452Z</time></trkpt><trkpt lat="40.5567217" lon="16.6643867"><ele>361.8</ele><time>2026-03-22T15:29:17.451Z</time></trkpt><trkpt lat="40.5566483" lon="16.6644667"><ele>361.4</ele><time>2026-03-22T15:29:18.453Z</time></trkpt><trkpt lat="40.5565783" lon="16.6645533"><ele>361.0</ele><time>2026-03-22T15:29:19.452Z</time></trkpt><trkpt lat="40.5565" lon="16.66464"><ele>360.4</ele><time>2026-03-22T15:29:20.452Z</time></trkpt><trkpt lat="40.5564217" lon="16.664735"><ele>359.8</ele><time>2026-03-22T15:29:21.452Z</time></trkpt><trkpt lat="40.5563433" lon="16.66482"><ele>359.2</ele><time>2026-03-22T15:29:22.452Z</time></trkpt><trkpt lat="40.5562633" lon="16.6648883"><ele>358.59999999999997</ele><time>2026-03-22T15:29:23.453Z</time></trkpt><trkpt lat="40.556185" lon="16.66495"><ele>358.0</ele><time>2026-03-22T15:29:24.452Z</time></trkpt><trkpt lat="40.5561167" lon="16.6650183"><ele>357.8333333333333</ele><time>2026-03-22T15:29:25.452Z</time></trkpt><trkpt lat="40.5560533" lon="16.66509"><ele>357.66666666666663</ele><time>2026-03-22T15:29:26.453Z</time></trkpt><trkpt lat="40.5559883" lon="16.6651567"><ele>357.5</ele><time>2026-03-22T15:29:27.452Z</time></trkpt><trkpt lat="40.5559267" lon="16.6652217"><ele>357.3333333333333</ele><time>2026-03-22T15:29:28.453Z</time></trkpt><trkpt lat="40.555865" lon="16.6652833"><ele>357.1666666666667</ele><time>2026-03-22T15:29:29.452Z</time></trkpt><trkpt lat="40.5558083" lon="16.6653483"><ele>357.0</ele><time>2026-03-22T15:29:30.452Z</time></trkpt><trkpt lat="40.5557533" lon="16.665415"><ele>356.2857142857143</ele><time>2026-03-22T15:29:31.453Z</time></trkpt><trkpt lat="40.5556933" lon="16.6654733"><ele>355.57142857142856</ele><time>2026-03-22T15:29:32.453Z</time></trkpt><trkpt lat="40.5556367" lon="16.6655333"><ele>354.8571428571429</ele><time>2026-03-22T15:29:33.452Z</time></trkpt><trkpt lat="40.5555817" lon="16.6655917"><ele>354.1428571428571</ele><time>2026-03-22T15:29:34.452Z</time></trkpt><trkpt lat="40.555525" lon="16.665645"><ele>353.42857142857144</ele><time>2026-03-22T15:29:35.451Z</time></trkpt><trkpt lat="40.5554717" lon="16.6656933"><ele>352.7142857142857</ele><time>2026-03-22T15:29:36.454Z</time></trkpt><trkpt lat="40.5554167" lon="16.6657367"><ele>352.0</ele><time>2026-03-22T15:29:37.452Z</time></trkpt><trkpt lat="40.5553583" lon="16.6657717"><ele>351.16666666666663</ele><time>2026-03-22T15:29:38.453Z</time></trkpt><trkpt lat="40.5552967" lon="16.6658017"><ele>350.3333333333333</ele><time>2026-03-22T15:29:39.453Z</time></trkpt><trkpt lat="40.5552383" lon="16.6658333"><ele>349.5</ele><time>2026-03-22T15:29:40.453Z</time></trkpt><trkpt lat="40.55518" lon="16.6658667"><ele>348.6666666666667</ele><time>2026-03-22T15:29:41.457Z</time></trkpt><trkpt lat="40.55512" lon="16.6658933"><ele>347.83333333333337</ele><time>2026-03-22T15:29:42.452Z</time></trkpt><trkpt lat="40.5550033" lon="16.665945"><ele>347.0</ele><time>2026-03-22T15:29:44.453Z</time></trkpt><trkpt lat="40.5549133" lon="16.6660167"><ele>346.6</ele><time>2026-03-22T15:29:46.453Z</time></trkpt><trkpt lat="40.5548533" lon="16.6661233"><ele>346.20000000000005</ele><time>2026-03-22T15:29:48.452Z</time></trkpt><trkpt lat="40.55478" lon="16.6662367"><ele>345.8</ele><time>2026-03-22T15:29:50.455Z</time></trkpt><trkpt lat="40.5547017" lon="16.6663467"><ele>345.4</ele><time>2026-03-22T15:29:52.453Z</time></trkpt><trkpt lat="40.5546333" lon="16.666445"><ele>345.0</ele><time>2026-03-22T15:29:54.453Z</time></trkpt><trkpt lat="40.5545683" lon="16.66654"><ele>344.1666666666667</ele><time>2026-03-22T15:29:56.453Z</time></trkpt><trkpt lat="40.554495" lon="16.6666367"><ele>343.3333333333333</ele><time>2026-03-22T15:29:58.455Z</time></trkpt><trkpt lat="40.5544333" lon="16.666705"><ele>342.5</ele><time>2026-03-22T15:30:00.453Z</time></trkpt><trkpt lat="40.5543767" lon="16.66676"><ele>341.66666666666663</ele><time>2026-03-22T15:30:03.452Z</time></trkpt><trkpt lat="40.5543133" lon="16.66679"><ele>340.8333333333333</ele><time>2026-03-22T15:30:05.453Z</time></trkpt><trkpt lat="40.5542383" lon="16.6668267"><ele>340.0</ele><time>2026-03-22T15:30:07.454Z</time></trkpt><trkpt lat="40.5541667" lon="16.6668583"><ele>340.0</ele><time>2026-03-22T15:30:09.457Z</time></trkpt><trkpt lat="40.5541017" lon="16.6668117"><ele>340.0</ele><time>2026-03-22T15:30:12.453Z</time></trkpt><trkpt lat="40.5540767" lon="16.666705"><ele>340.0</ele><time>2026-03-22T15:30:14.453Z</time></trkpt><trkpt lat="40.5540333" lon="16.6665717"><ele>340.0</ele><time>2026-03-22T15:30:16.453Z</time></trkpt><trkpt lat="40.5540083" lon="16.6664917"><ele>340.0</ele><time>2026-03-22T15:30:17.452Z</time></trkpt><trkpt lat="40.5539833" lon="16.6664017"><ele>340.0</ele><time>2026-03-22T15:30:18.452Z</time></trkpt><trkpt lat="40.5539567" lon="16.666315"><ele>340.0</ele><time>2026-03-22T15:30:19.452Z</time></trkpt><trkpt lat="40.5539317" lon="16.6662267"><ele>340.0</ele><time>2026-03-22T15:30:20.454Z</time></trkpt><trkpt lat="40.5539083" lon="16.6661417"><ele>340.0</ele><time>2026-03-22T15:30:21.452Z</time></trkpt><trkpt lat="40.5538833" lon="16.6660583"><ele>340.0</ele><time>2026-03-22T15:30:22.452Z</time></trkpt><trkpt lat="40.55386" lon="16.6659767"><ele>340.0</ele><time>2026-03-22T15:30:23.452Z</time></trkpt><trkpt lat="40.5538367" lon="16.6658917"><ele>340.0</ele><time>2026-03-22T15:30:24.451Z</time></trkpt><trkpt lat="40.55381" lon="16.6658117"><ele>340.0</ele><time>2026-03-22T15:30:25.452Z</time></trkpt><trkpt lat="40.5537817" lon="16.6657333"><ele>341.0</ele><time>2026-03-22T15:30:26.454Z</time></trkpt><trkpt lat="40.5537417" lon="16.6656033"><ele>341.0</ele><time>2026-03-22T15:30:28.452Z</time></trkpt><trkpt lat="40.5537017" lon="16.6655283"><ele>343.0</ele><time>2026-03-22T15:30:30.452Z</time></trkpt><trkpt lat="40.55361" lon="16.6655567"><ele>343.0</ele><time>2026-03-22T15:30:33.453Z</time></trkpt></trkseg><trkseg><trkpt lat="40.5531907" lon="16.6659339"><ele>343.0</ele><time>2026-03-22T20:06:31.876Z</time></trkpt><trkpt lat="40.5531391" lon="16.6658754"><ele>343.0</ele><time>2026-03-22T20:06:33.451Z</time></trkpt><trkpt lat="40.5530368" lon="16.6657442"><ele>343.0</ele><time>2026-03-22T20:06:38.451Z</time></trkpt><trkpt lat="40.553205" lon="16.665726"><ele>343.0</ele><time>2026-03-22T20:08:35.392Z</time></trkpt></trkseg><trkseg><trkpt lat="40.553443" lon="16.666124"><ele>342.3333333333333</ele><time>2026-03-29T12:45:06.497Z</time></trkpt><trkpt lat="40.5534033" lon="16.6660408"><ele>342.66666666666663</ele><time>2026-03-29T12:45:18.542Z</time></trkpt><trkpt lat="40.5534883" lon="16.6656317"><ele>343.0</ele><time>2026-03-29T12:45:31.458Z</time></trkpt><trkpt lat="40.5535867" lon="16.66558"><ele>343.0</ele><time>2026-03-29T12:45:33.458Z</time></trkpt><trkpt lat="40.55366" lon="16.6656167"><ele>343.0</ele><time>2026-03-29T12:45:35.455Z</time></trkpt><trkpt lat="40.5537033" lon="16.6657233"><ele>343.0</ele><time>2026-03-29T12:45:37.46Z</time></trkpt><trkpt lat="40.5537417" lon="16.6658467"><ele>343.0</ele><time>2026-03-29T12:45:39.455Z</time></trkpt><trkpt lat="40.553785" lon="16.665985"><ele>343.0</ele><time>2026-03-29T12:45:41.455Z</time></trkpt><trkpt lat="40.5538283" lon="16.6661417"><ele>342.57142857142856</ele><time>2026-03-29T12:45:43.454Z</time></trkpt><trkpt lat="40.5538517" lon="16.6662217"><ele>342.1428571428571</ele><time>2026-03-29T12:45:44.456Z</time></trkpt><trkpt lat="40.5538783" lon="16.666305"><ele>341.7142857142857</ele><time>2026-03-29T12:45:45.456Z</time></trkpt><trkpt lat="40.5539117" lon="16.6663867"><ele>341.2857142857143</ele><time>2026-03-29T12:45:46.454Z</time></trkpt><trkpt lat="40.5539467" lon="16.6664683"><ele>340.85714285714283</ele><time>2026-03-29T12:45:47.455Z</time></trkpt><trkpt lat="40.5539783" lon="16.6665517"><ele>340.42857142857144</ele><time>2026-03-29T12:45:48.454Z</time></trkpt><trkpt lat="40.5540033" lon="16.666635"><ele>340.0</ele><time>2026-03-29T12:45:49.455Z</time></trkpt><trkpt lat="40.554025" lon="16.6667167"><ele>340.0</ele><time>2026-03-29T12:45:50.456Z</time></trkpt><trkpt lat="40.5540467" lon="16.6667967"><ele>340.0</ele><time>2026-03-29T12:45:51.455Z</time></trkpt><trkpt lat="40.5540733" lon="16.666875"><ele>340.0</ele><time>2026-03-29T12:45:52.456Z</time></trkpt><trkpt lat="40.5541067" lon="16.6669467"><ele>340.0</ele><time>2026-03-29T12:45:53.455Z</time></trkpt><trkpt lat="40.5541733" lon="16.6670767"><ele>340.0</ele><time>2026-03-29T12:45:55.455Z</time></trkpt><trkpt lat="40.5542317" lon="16.6671667"><ele>340.0</ele><time>2026-03-29T12:45:57.454Z</time></trkpt><trkpt lat="40.5541783" lon="16.6672533"><ele>340.0</ele><time>2026-03-29T12:46:01.455Z</time></trkpt><trkpt lat="40.5541333" lon="16.667315"><ele>340.0</ele><time>2026-03-29T12:46:03.455Z</time></trkpt><trkpt lat="40.5540783" lon="16.6673783"><ele>340.0</ele><time>2026-03-29T12:46:06.454Z</time></trkpt><trkpt lat="40.554" lon="16.6673917"><ele>340.0</ele><time>2026-03-29T12:46:08.456Z</time></trkpt><trkpt lat="40.5539117" lon="16.66738"><ele>340.0</ele><time>2026-03-29T12:46:10.456Z</time></trkpt><trkpt lat="40.55381" lon="16.6673683"><ele>340.0</ele><time>2026-03-29T12:46:12.456Z</time></trkpt><trkpt lat="40.5536983" lon="16.667355"><ele>339.0</ele><time>2026-03-29T12:46:14.455Z</time></trkpt><trkpt lat="40.5535967" lon="16.6673383"><ele>338.0</ele><time>2026-03-29T12:46:16.455Z</time></trkpt><trkpt lat="40.5534867" lon="16.667325"><ele>337.0</ele><time>2026-03-29T12:46:18.456Z</time></trkpt><trkpt lat="40.5533733" lon="16.667295"><ele>336.0</ele><time>2026-03-29T12:46:20.456Z</time></trkpt><trkpt lat="40.553265" lon="16.66727"><ele>335.0</ele><time>2026-03-29T12:46:22.454Z</time></trkpt><trkpt lat="40.55315" lon="16.6672417"><ele>335.0</ele><time>2026-03-29T12:46:24.455Z</time></trkpt><trkpt lat="40.55304" lon="16.6671867"><ele>335.0</ele><time>2026-03-29T12:46:26.455Z</time></trkpt><trkpt lat="40.5529783" lon="16.6671683"><ele>335.0</ele><time>2026-03-29T12:46:27.454Z</time></trkpt><trkpt lat="40.5529167" lon="16.667135"><ele>335.0</ele><time>2026-03-29T12:46:28.455Z</time></trkpt><trkpt lat="40.5528567" lon="16.6671"><ele>335.0</ele><time>2026-03-29T12:46:29.456Z</time></trkpt><trkpt lat="40.5527933" lon="16.66706"><ele>335.0</ele><time>2026-03-29T12:46:30.453Z</time></trkpt><trkpt lat="40.5527333" lon="16.6670167"><ele>334.83333333333337</ele><time>2026-03-29T12:46:31.454Z</time></trkpt><trkpt lat="40.5526817" lon="16.6669617"><ele>334.6666666666667</ele><time>2026-03-29T12:46:32.454Z</time></trkpt><trkpt lat="40.5526333" lon="16.6669033"><ele>334.5</ele><time>2026-03-29T12:46:33.463Z</time></trkpt><trkpt lat="40.5525433" lon="16.6667867"><ele>334.3333333333333</ele><time>2026-03-29T12:46:35.454Z</time></trkpt><trkpt lat="40.5524967" lon="16.6667217"><ele>334.16666666666663</ele><time>2026-03-29T12:46:36.454Z</time></trkpt><trkpt lat="40.5524533" lon="16.6666433"><ele>334.0</ele><time>2026-03-29T12:46:37.455Z</time></trkpt><trkpt lat="40.55241" lon="16.6665633"><ele>334.0</ele><time>2026-03-29T12:46:38.456Z</time></trkpt><trkpt lat="40.5523717" lon="16.6664883"><ele>334.0</ele><time>2026-03-29T12:46:39.454Z</time></trkpt><trkpt lat="40.5523" lon="16.6663583"><ele>334.0</ele><time>2026-03-29T12:46:41.455Z</time></trkpt><trkpt lat="40.5522683" lon="16.666285"><ele>334.0</ele><time>2026-03-29T12:46:42.454Z</time></trkpt><trkpt lat="40.5522433" lon="16.6661483"><ele>334.0</ele><time>2026-03-29T12:46:44.454Z</time></trkpt><trkpt lat="40.55218" lon="16.6660517"><ele>333.0</ele><time>2026-03-29T12:46:46.453Z</time></trkpt><trkpt lat="40.55206" lon="16.66606"><ele>332.0</ele><time>2026-03-29T12:46:48.454Z</time></trkpt><trkpt lat="40.5519433" lon="16.6661017"><ele>331.0</ele><time>2026-03-29T12:46:50.455Z</time></trkpt><trkpt lat="40.551835" lon="16.6661267"><ele>330.0</ele><time>2026-03-29T12:46:52.454Z</time></trkpt><trkpt lat="40.551715" lon="16.6661367"><ele>330.0</ele><time>2026-03-29T12:46:54.454Z</time></trkpt><trkpt lat="40.5515967" lon="16.6661433"><ele>330.0</ele><time>2026-03-29T12:46:56.454Z</time></trkpt><trkpt lat="40.5514717" lon="16.6661733"><ele>330.0</ele><time>2026-03-29T12:46:58.454Z</time></trkpt><trkpt lat="40.5514033" lon="16.66619"><ele>330.0</ele><time>2026-03-29T12:46:59.454Z</time></trkpt><trkpt lat="40.5513333" lon="16.6662033"><ele>330.0</ele><time>2026-03-29T12:47:00.454Z</time></trkpt><trkpt lat="40.5512567" lon="16.66621"><ele>329.6666666666667</ele><time>2026-03-29T12:47:01.454Z</time></trkpt><trkpt lat="40.55118" lon="16.6662133"><ele>329.3333333333333</ele><time>2026-03-29T12:47:02.456Z</time></trkpt><trkpt lat="40.5511017" lon="16.6662167"><ele>329.0</ele><time>2026-03-29T12:47:03.454Z</time></trkpt><trkpt lat="40.551025" lon="16.66622"><ele>328.66666666666663</ele><time>2026-03-29T12:47:04.454Z</time></trkpt><trkpt lat="40.5509417" lon="16.6662233"><ele>328.3333333333333</ele><time>2026-03-29T12:47:05.454Z</time></trkpt><trkpt lat="40.5508633" lon="16.6662233"><ele>328.0</ele><time>2026-03-29T12:47:06.453Z</time></trkpt><trkpt lat="40.550785" lon="16.666215"><ele>328.0</ele><time>2026-03-29T12:47:07.455Z</time></trkpt><trkpt lat="40.5506983" lon="16.6662117"><ele>328.0</ele><time>2026-03-29T12:47:08.454Z</time></trkpt><trkpt lat="40.5506167" lon="16.6662167"><ele>328.0</ele><time>2026-03-29T12:47:09.454Z</time></trkpt><trkpt lat="40.5505333" lon="16.6662233"><ele>328.0</ele><time>2026-03-29T12:47:10.454Z</time></trkpt><trkpt lat="40.5504517" lon="16.6662267"><ele>328.0</ele><time>2026-03-29T12:47:11.454Z</time></trkpt><trkpt lat="40.5503683" lon="16.6662317"><ele>328.0</ele><time>2026-03-29T12:47:12.454Z</time></trkpt><trkpt lat="40.5502833" lon="16.6662367"><ele>328.0</ele><time>2026-03-29T12:47:13.454Z</time></trkpt><trkpt lat="40.550195" lon="16.6662333"><ele>328.0</ele><time>2026-03-29T12:47:14.455Z</time></trkpt><trkpt lat="40.55011" lon="16.6662383"><ele>328.0</ele><time>2026-03-29T12:47:15.454Z</time></trkpt><trkpt lat="40.550025" lon="16.6662417"><ele>328.0</ele><time>2026-03-29T12:47:16.454Z</time></trkpt><trkpt lat="40.5499417" lon="16.66624"><ele>328.0</ele><time>2026-03-29T12:47:17.454Z</time></trkpt><trkpt lat="40.54986" lon="16.6662433"><ele>328.0</ele><time>2026-03-29T12:47:18.454Z</time></trkpt><trkpt lat="40.5497767" lon="16.6662483"><ele>328.0</ele><time>2026-03-29T12:47:19.454Z</time></trkpt><trkpt lat="40.5496933" lon="16.666255"><ele>328.0</ele><time>2026-03-29T12:47:20.454Z</time></trkpt><trkpt lat="40.5496083" lon="16.6662717"><ele>328.0</ele><time>2026-03-29T12:47:21.453Z</time></trkpt><trkpt lat="40.5495233" lon="16.6662917"><ele>328.0</ele><time>2026-03-29T12:47:22.454Z</time></trkpt><trkpt lat="40.54944" lon="16.6663183"><ele>328.0</ele><time>2026-03-29T12:47:23.454Z</time></trkpt><trkpt lat="40.5493583" lon="16.666345"><ele>328.0</ele><time>2026-03-29T12:47:24.457Z</time></trkpt><trkpt lat="40.549275" lon="16.666375"><ele>326.66666666666663</ele><time>2026-03-29T12:47:25.453Z</time></trkpt><trkpt lat="40.5491917" lon="16.666405"><ele>325.3333333333333</ele><time>2026-03-29T12:47:26.454Z</time></trkpt><trkpt lat="40.54911" lon="16.6664317"><ele>324.0</ele><time>2026-03-29T12:47:27.454Z</time></trkpt><trkpt lat="40.5490283" lon="16.6664633"><ele>322.6666666666667</ele><time>2026-03-29T12:47:28.455Z</time></trkpt><trkpt lat="40.5489467" lon="16.666495"><ele>321.33333333333337</ele><time>2026-03-29T12:47:29.454Z</time></trkpt><trkpt lat="40.5488683" lon="16.6665267"><ele>320.0</ele><time>2026-03-29T12:47:30.454Z</time></trkpt><trkpt lat="40.5487933" lon="16.6665533"><ele>320.0</ele><time>2026-03-29T12:47:31.454Z</time></trkpt><trkpt lat="40.5487167" lon="16.6665783"><ele>320.0</ele><time>2026-03-29T12:47:32.455Z</time></trkpt><trkpt lat="40.5486383" lon="16.666605"><ele>320.0</ele><time>2026-03-29T12:47:33.454Z</time></trkpt><trkpt lat="40.5485633" lon="16.6666283"><ele>320.0</ele><time>2026-03-29T12:47:34.454Z</time></trkpt><trkpt lat="40.548485" lon="16.6666533"><ele>320.0</ele><time>2026-03-29T12:47:35.454Z</time></trkpt><trkpt lat="40.5484033" lon="16.6666783"><ele>320.0</ele><time>2026-03-29T12:47:36.454Z</time></trkpt><trkpt lat="40.548325" lon="16.6667033"><ele>318.83333333333337</ele><time>2026-03-29T12:47:37.454Z</time></trkpt><trkpt lat="40.5482467" lon="16.66673"><ele>317.6666666666667</ele><time>2026-03-29T12:47:38.454Z</time></trkpt><trkpt lat="40.5481633" lon="16.66676"><ele>316.5</ele><time>2026-03-29T12:47:39.453Z</time></trkpt><trkpt lat="40.5480783" lon="16.6667867"><ele>315.3333333333333</ele><time>2026-03-29T12:47:40.454Z</time></trkpt><trkpt lat="40.5479933" lon="16.6668133"><ele>314.16666666666663</ele><time>2026-03-29T12:47:41.459Z</time></trkpt><trkpt lat="40.5479067" lon="16.6668433"><ele>313.0</ele><time>2026-03-29T12:47:42.453Z</time></trkpt><trkpt lat="40.5478217" lon="16.6668717"><ele>313.5</ele><time>2026-03-29T12:47:43.454Z</time></trkpt><trkpt lat="40.5477383" lon="16.6669033"><ele>314.0</ele><time>2026-03-29T12:47:44.454Z</time></trkpt><trkpt lat="40.547655" lon="16.66693"><ele>314.5</ele><time>2026-03-29T12:47:45.453Z</time></trkpt><trkpt lat="40.54757" lon="16.666955"><ele>315.0</ele><time>2026-03-29T12:47:46.453Z</time></trkpt><trkpt lat="40.5474883" lon="16.6669817"><ele>315.5</ele><time>2026-03-29T12:47:47.453Z</time></trkpt><trkpt lat="40.5474033" lon="16.6670083"><ele>316.0</ele><time>2026-03-29T12:47:48.454Z</time></trkpt><trkpt lat="40.5473233" lon="16.667035"><ele>316.0</ele><time>2026-03-29T12:47:49.454Z</time></trkpt><trkpt lat="40.5472383" lon="16.667065"><ele>316.0</ele><time>2026-03-29T12:47:50.455Z</time></trkpt><trkpt lat="40.547155" lon="16.6670917"><ele>316.0</ele><time>2026-03-29T12:47:51.454Z</time></trkpt><trkpt lat="40.54707" lon="16.6671067"><ele>316.0</ele><time>2026-03-29T12:47:52.455Z</time></trkpt><trkpt lat="40.546985" lon="16.6671133"><ele>316.0</ele><time>2026-03-29T12:47:53.455Z</time></trkpt><trkpt lat="40.5469017" lon="16.6671167"><ele>316.0</ele><time>2026-03-29T12:47:54.454Z</time></trkpt><trkpt lat="40.5468183" lon="16.6671133"><ele>314.66666666666663</ele><time>2026-03-29T12:47:55.454Z</time></trkpt><trkpt lat="40.546735" lon="16.6671067"><ele>313.3333333333333</ele><time>2026-03-29T12:47:56.454Z</time></trkpt><trkpt lat="40.5466517" lon="16.667095"><ele>312.0</ele><time>2026-03-29T12:47:57.455Z</time></trkpt><trkpt lat="40.5465683" lon="16.6670783"><ele>310.6666666666667</ele><time>2026-03-29T12:47:58.456Z</time></trkpt><trkpt lat="40.5464833" lon="16.66706"><ele>309.33333333333337</ele><time>2026-03-29T12:47:59.454Z</time></trkpt><trkpt lat="40.5464" lon="16.66704"><ele>308.0</ele><time>2026-03-29T12:48:00.455Z</time></trkpt><trkpt lat="40.5463183" lon="16.6670167"><ele>308.0</ele><time>2026-03-29T12:48:01.454Z</time></trkpt><trkpt lat="40.5462333" lon="16.6669967"><ele>308.0</ele><time>2026-03-29T12:48:02.455Z</time></trkpt><trkpt lat="40.54615" lon="16.66698"><ele>308.0</ele><time>2026-03-29T12:48:03.454Z</time></trkpt><trkpt lat="40.546065" lon="16.6669683"><ele>308.0</ele><time>2026-03-29T12:48:04.454Z</time></trkpt><trkpt lat="40.5459817" lon="16.6669683"><ele>308.0</ele><time>2026-03-29T12:48:05.453Z</time></trkpt><trkpt lat="40.5459" lon="16.6669767"><ele>308.0</ele><time>2026-03-29T12:48:06.454Z</time></trkpt><trkpt lat="40.5458167" lon="16.667"><ele>307.83333333333337</ele><time>2026-03-29T12:48:07.455Z</time></trkpt><trkpt lat="40.5457367" lon="16.667035"><ele>307.6666666666667</ele><time>2026-03-29T12:48:08.454Z</time></trkpt><trkpt lat="40.5456583" lon="16.6670767"><ele>307.5</ele><time>2026-03-29T12:48:09.457Z</time></trkpt><trkpt lat="40.5455817" lon="16.6671217"><ele>307.3333333333333</ele><time>2026-03-29T12:48:10.454Z</time></trkpt><trkpt lat="40.545505" lon="16.6671683"><ele>307.16666666666663</ele><time>2026-03-29T12:48:11.455Z</time></trkpt><trkpt lat="40.5454283" lon="16.6672133"><ele>307.0</ele><time>2026-03-29T12:48:12.454Z</time></trkpt><trkpt lat="40.5453533" lon="16.66726"><ele>306.8333333333333</ele><time>2026-03-29T12:48:13.454Z</time></trkpt><trkpt lat="40.5452783" lon="16.667305"><ele>306.66666666666663</ele><time>2026-03-29T12:48:14.454Z</time></trkpt><trkpt lat="40.5452067" lon="16.66735"><ele>306.5</ele><time>2026-03-29T12:48:15.455Z</time></trkpt><trkpt lat="40.545135" lon="16.6674017"><ele>306.3333333333333</ele><time>2026-03-29T12:48:16.454Z</time></trkpt><trkpt lat="40.5450667" lon="16.6674633"><ele>306.1666666666667</ele><time>2026-03-29T12:48:17.455Z</time></trkpt><trkpt lat="40.5450067" lon="16.66754"><ele>306.0</ele><time>2026-03-29T12:48:18.455Z</time></trkpt><trkpt lat="40.5449533" lon="16.667625"><ele>306.0</ele><time>2026-03-29T12:48:19.455Z</time></trkpt><trkpt lat="40.544905" lon="16.667715"><ele>306.0</ele><time>2026-03-29T12:48:20.455Z</time></trkpt><trkpt lat="40.54486" lon="16.667805"><ele>306.0</ele><time>2026-03-29T12:48:21.454Z</time></trkpt><trkpt lat="40.5448183" lon="16.6678983"><ele>306.0</ele><time>2026-03-29T12:48:22.454Z</time></trkpt><trkpt lat="40.5447783" lon="16.6679967"><ele>306.0</ele><time>2026-03-29T12:48:23.455Z</time></trkpt><trkpt lat="40.5447333" lon="16.6680967"><ele>306.0</ele><time>2026-03-29T12:48:24.455Z</time></trkpt><trkpt lat="40.54469" lon="16.6682017"><ele>306.6666666666667</ele><time>2026-03-29T12:48:25.455Z</time></trkpt><trkpt lat="40.5446483" lon="16.6683067"><ele>307.3333333333333</ele><time>2026-03-29T12:48:26.454Z</time></trkpt><trkpt lat="40.544605" lon="16.6684067"><ele>308.0</ele><time>2026-03-29T12:48:27.456Z</time></trkpt><trkpt lat="40.5445617" lon="16.6685033"><ele>308.66666666666663</ele><time>2026-03-29T12:48:28.454Z</time></trkpt><trkpt lat="40.5445167" lon="16.6686017"><ele>309.3333333333333</ele><time>2026-03-29T12:48:29.455Z</time></trkpt><trkpt lat="40.544475" lon="16.6687017"><ele>310.0</ele><time>2026-03-29T12:48:30.454Z</time></trkpt><trkpt lat="40.5444333" lon="16.6688"><ele>308.66666666666663</ele><time>2026-03-29T12:48:31.454Z</time></trkpt><trkpt lat="40.5443833" lon="16.6688933"><ele>307.3333333333333</ele><time>2026-03-29T12:48:32.454Z</time></trkpt><trkpt lat="40.54433" lon="16.6689833"><ele>306.0</ele><time>2026-03-29T12:48:33.454Z</time></trkpt><trkpt lat="40.5442733" lon="16.6690733"><ele>304.6666666666667</ele><time>2026-03-29T12:48:34.454Z</time></trkpt><trkpt lat="40.5442183" lon="16.669165"><ele>303.33333333333337</ele><time>2026-03-29T12:48:35.454Z</time></trkpt><trkpt lat="40.5441617" lon="16.669255"><ele>302.0</ele><time>2026-03-29T12:48:36.455Z</time></trkpt><trkpt lat="40.544105" lon="16.669345"><ele>302.0</ele><time>2026-03-29T12:48:37.455Z</time></trkpt><trkpt lat="40.5440483" lon="16.6694367"><ele>302.0</ele><time>2026-03-29T12:48:38.454Z</time></trkpt><trkpt lat="40.5439917" lon="16.6695283"><ele>302.0</ele><time>2026-03-29T12:48:39.454Z</time></trkpt><trkpt lat="40.543935" lon="16.66962"><ele>302.0</ele><time>2026-03-29T12:48:40.454Z</time></trkpt><trkpt lat="40.54388" lon="16.66971"><ele>302.0</ele><time>2026-03-29T12:48:41.454Z</time></trkpt><trkpt lat="40.5438233" lon="16.6697983"><ele>302.0</ele><time>2026-03-29T12:48:42.454Z</time></trkpt><trkpt lat="40.5437667" lon="16.66989"><ele>300.2</ele><time>2026-03-29T12:48:43.454Z</time></trkpt><trkpt lat="40.5437117" lon="16.6699817"><ele>298.4</ele><time>2026-03-29T12:48:44.454Z</time></trkpt><trkpt lat="40.543655" lon="16.6700767"><ele>296.6</ele><time>2026-03-29T12:48:45.454Z</time></trkpt><trkpt lat="40.5435983" lon="16.6701733"><ele>294.8</ele><time>2026-03-29T12:48:46.453Z</time></trkpt><trkpt lat="40.54354" lon="16.6702683"><ele>293.0</ele><time>2026-03-29T12:48:47.453Z</time></trkpt><trkpt lat="40.5434817" lon="16.670365"><ele>292.2</ele><time>2026-03-29T12:48:48.454Z</time></trkpt><trkpt lat="40.543425" lon="16.6704617"><ele>291.4</ele><time>2026-03-29T12:48:49.454Z</time></trkpt><trkpt lat="40.54337" lon="16.6705567"><ele>290.59999999999997</ele><time>2026-03-29T12:48:50.455Z</time></trkpt><trkpt lat="40.543315" lon="16.6706533"><ele>289.8</ele><time>2026-03-29T12:48:51.455Z</time></trkpt><trkpt lat="40.5432583" lon="16.6707517"><ele>289.0</ele><time>2026-03-29T12:48:52.455Z</time></trkpt><trkpt lat="40.543205" lon="16.6708433"><ele>289.0</ele><time>2026-03-29T12:48:53.454Z</time></trkpt><trkpt lat="40.54315" lon="16.67093"><ele>289.0</ele><time>2026-03-29T12:48:54.454Z</time></trkpt><trkpt lat="40.5430933" lon="16.6710183"><ele>289.0</ele><time>2026-03-29T12:48:55.454Z</time></trkpt><trkpt lat="40.5430383" lon="16.6711067"><ele>289.0</ele><time>2026-03-29T12:48:56.455Z</time></trkpt><trkpt lat="40.5429817" lon="16.6711967"><ele>289.0</ele><time>2026-03-29T12:48:57.454Z</time></trkpt><trkpt lat="40.54293" lon="16.6712867"><ele>289.0</ele><time>2026-03-29T12:48:58.454Z</time></trkpt><trkpt lat="40.5428767" lon="16.6713783"><ele>288.5</ele><time>2026-03-29T12:48:59.454Z</time></trkpt><trkpt lat="40.542825" lon="16.67147"><ele>288.0</ele><time>2026-03-29T12:49:00.454Z</time></trkpt><trkpt lat="40.5427733" lon="16.6715617"><ele>287.5</ele><time>2026-03-29T12:49:01.454Z</time></trkpt><trkpt lat="40.54272" lon="16.6716517"><ele>287.0</ele><time>2026-03-29T12:49:02.455Z</time></trkpt><trkpt lat="40.542665" lon="16.67174"><ele>286.5</ele><time>2026-03-29T12:49:03.454Z</time></trkpt><trkpt lat="40.5426117" lon="16.6718283"><ele>286.0</ele><time>2026-03-29T12:49:04.455Z</time></trkpt><trkpt lat="40.542555" lon="16.6719167"><ele>286.66666666666663</ele><time>2026-03-29T12:49:05.453Z</time></trkpt><trkpt lat="40.5425" lon="16.6720067"><ele>287.3333333333333</ele><time>2026-03-29T12:49:06.453Z</time></trkpt><trkpt lat="40.5424467" lon="16.6721"><ele>288.0</ele><time>2026-03-29T12:49:07.454Z</time></trkpt><trkpt lat="40.5423967" lon="16.6721933"><ele>288.6666666666667</ele><time>2026-03-29T12:49:08.455Z</time></trkpt><trkpt lat="40.542345" lon="16.672285"><ele>289.33333333333337</ele><time>2026-03-29T12:49:09.454Z</time></trkpt><trkpt lat="40.5422933" lon="16.6723733"><ele>290.0</ele><time>2026-03-29T12:49:10.454Z</time></trkpt><trkpt lat="40.5422383" lon="16.672465"><ele>290.0</ele><time>2026-03-29T12:49:11.454Z</time></trkpt><trkpt lat="40.5421783" lon="16.6725583"><ele>290.0</ele><time>2026-03-29T12:49:12.456Z</time></trkpt><trkpt lat="40.5421167" lon="16.6726533"><ele>290.0</ele><time>2026-03-29T12:49:13.454Z</time></trkpt><trkpt lat="40.542055" lon="16.67275"><ele>290.0</ele><time>2026-03-29T12:49:14.455Z</time></trkpt><trkpt lat="40.541995" lon="16.6728533"><ele>290.0</ele><time>2026-03-29T12:49:15.454Z</time></trkpt><trkpt lat="40.5419383" lon="16.672955"><ele>287.8</ele><time>2026-03-29T12:49:16.455Z</time></trkpt><trkpt lat="40.5418783" lon="16.6730583"><ele>285.6</ele><time>2026-03-29T12:49:17.454Z</time></trkpt><trkpt lat="40.5418217" lon="16.6731583"><ele>283.4</ele><time>2026-03-29T12:49:18.454Z</time></trkpt><trkpt lat="40.5417717" lon="16.6732633"><ele>281.2</ele><time>2026-03-29T12:49:19.455Z</time></trkpt><trkpt lat="40.5417317" lon="16.6733733"><ele>279.0</ele><time>2026-03-29T12:49:20.456Z</time></trkpt><trkpt lat="40.5417" lon="16.67349"><ele>279.0</ele><time>2026-03-29T12:49:21.454Z</time></trkpt><trkpt lat="40.5416783" lon="16.673605"><ele>279.0</ele><time>2026-03-29T12:49:22.455Z</time></trkpt><trkpt lat="40.5416617" lon="16.67372"><ele>279.0</ele><time>2026-03-29T12:49:23.455Z</time></trkpt><trkpt lat="40.5416517" lon="16.6738383"><ele>279.0</ele><time>2026-03-29T12:49:24.454Z</time></trkpt><trkpt lat="40.5416517" lon="16.673955"><ele>279.0</ele><time>2026-03-29T12:49:25.453Z</time></trkpt><trkpt lat="40.541655" lon="16.67408"><ele>279.3333333333333</ele><time>2026-03-29T12:49:26.453Z</time></trkpt><trkpt lat="40.5416567" lon="16.6741983"><ele>279.6666666666667</ele><time>2026-03-29T12:49:27.454Z</time></trkpt><trkpt lat="40.5416617" lon="16.674315"><ele>280.0</ele><time>2026-03-29T12:49:28.454Z</time></trkpt><trkpt lat="40.541665" lon="16.674435"><ele>280.33333333333337</ele><time>2026-03-29T12:49:29.455Z</time></trkpt><trkpt lat="40.5416667" lon="16.6745483"><ele>280.6666666666667</ele><time>2026-03-29T12:49:30.455Z</time></trkpt><trkpt lat="40.5416683" lon="16.6746617"><ele>281.0</ele><time>2026-03-29T12:49:31.454Z</time></trkpt><trkpt lat="40.5416717" lon="16.674775"><ele>281.0</ele><time>2026-03-29T12:49:32.455Z</time></trkpt><trkpt lat="40.541675" lon="16.6748917"><ele>281.0</ele><time>2026-03-29T12:49:33.454Z</time></trkpt><trkpt lat="40.5416817" lon="16.67501"><ele>281.0</ele><time>2026-03-29T12:49:34.455Z</time></trkpt><trkpt lat="40.5416867" lon="16.67513"><ele>281.0</ele><time>2026-03-29T12:49:35.454Z</time></trkpt><trkpt lat="40.5416917" lon="16.67525"><ele>281.0</ele><time>2026-03-29T12:49:36.454Z</time></trkpt><trkpt lat="40.5416933" lon="16.6753683"><ele>280.40000000000003</ele><time>2026-03-29T12:49:37.454Z</time></trkpt><trkpt lat="40.5416917" lon="16.67549"><ele>279.8</ele><time>2026-03-29T12:49:38.454Z</time></trkpt><trkpt lat="40.5416883" lon="16.675605"><ele>279.20000000000005</ele><time>2026-03-29T12:49:39.454Z</time></trkpt><trkpt lat="40.5416633" lon="16.67573"><ele>278.6</ele><time>2026-03-29T12:49:40.454Z</time></trkpt><trkpt lat="40.541635" lon="16.675855"><ele>278.0</ele><time>2026-03-29T12:49:41.454Z</time></trkpt><trkpt lat="40.541585" lon="16.6759767"><ele>278.0</ele><time>2026-03-29T12:49:42.454Z</time></trkpt><trkpt lat="40.5415283" lon="16.676085"><ele>278.0</ele><time>2026-03-29T12:49:43.454Z</time></trkpt><trkpt lat="40.54146" lon="16.67618"><ele>278.0</ele><time>2026-03-29T12:49:44.455Z</time></trkpt><trkpt lat="40.5413917" lon="16.6762783"><ele>278.0</ele><time>2026-03-29T12:49:45.455Z</time></trkpt><trkpt lat="40.5413217" lon="16.6763717"><ele>278.0</ele><time>2026-03-29T12:49:46.453Z</time></trkpt><trkpt lat="40.5412533" lon="16.6764667"><ele>278.6</ele><time>2026-03-29T12:49:47.454Z</time></trkpt><trkpt lat="40.54118" lon="16.6765667"><ele>279.20000000000005</ele><time>2026-03-29T12:49:48.454Z</time></trkpt><trkpt lat="40.54111" lon="16.67668"><ele>279.8</ele><time>2026-03-29T12:49:49.454Z</time></trkpt><trkpt lat="40.5410517" lon="16.6768067"><ele>280.40000000000003</ele><time>2026-03-29T12:49:50.455Z</time></trkpt><trkpt lat="40.5409967" lon="16.6769417"><ele>281.0</ele><time>2026-03-29T12:49:51.454Z</time></trkpt><trkpt lat="40.540945" lon="16.67708"><ele>281.0</ele><time>2026-03-29T12:49:52.454Z</time></trkpt><trkpt lat="40.540895" lon="16.67722"><ele>281.0</ele><time>2026-03-29T12:49:53.455Z</time></trkpt><trkpt lat="40.5408483" lon="16.67736"><ele>281.0</ele><time>2026-03-29T12:49:54.454Z</time></trkpt><trkpt lat="40.5408033" lon="16.6775"><ele>281.0</ele><time>2026-03-29T12:49:55.458Z</time></trkpt><trkpt lat="40.5407583" lon="16.6776417"><ele>278.25</ele><time>2026-03-29T12:49:56.455Z</time></trkpt><trkpt lat="40.5407183" lon="16.6777867"><ele>275.5</ele><time>2026-03-29T12:49:57.454Z</time></trkpt><trkpt lat="40.5406817" lon="16.677935"><ele>272.75</ele><time>2026-03-29T12:49:58.454Z</time></trkpt><trkpt lat="40.5406517" lon="16.6780917"><ele>270.0</ele><time>2026-03-29T12:49:59.455Z</time></trkpt><trkpt lat="40.5406333" lon="16.6782483"><ele>270.0</ele><time>2026-03-29T12:50:00.454Z</time></trkpt><trkpt lat="40.54062" lon="16.6784117"><ele>270.0</ele><time>2026-03-29T12:50:01.454Z</time></trkpt><trkpt lat="40.5406117" lon="16.67857"><ele>270.0</ele><time>2026-03-29T12:50:02.454Z</time></trkpt><trkpt lat="40.5406033" lon="16.67873"><ele>270.0</ele><time>2026-03-29T12:50:03.454Z</time></trkpt><trkpt lat="40.5405917" lon="16.67889"><ele>268.75</ele><time>2026-03-29T12:50:04.454Z</time></trkpt><trkpt lat="40.54058" lon="16.6790483"><ele>267.5</ele><time>2026-03-29T12:50:05.453Z</time></trkpt><trkpt lat="40.5405683" lon="16.679205"><ele>266.25</ele><time>2026-03-29T12:50:06.454Z</time></trkpt><trkpt lat="40.5405583" lon="16.6793617"><ele>265.0</ele><time>2026-03-29T12:50:07.453Z</time></trkpt><trkpt lat="40.5405467" lon="16.6795167"><ele>265.0</ele><time>2026-03-29T12:50:08.454Z</time></trkpt><trkpt lat="40.540535" lon="16.67967"><ele>265.0</ele><time>2026-03-29T12:50:09.454Z</time></trkpt><trkpt lat="40.540525" lon="16.67982"><ele>265.0</ele><time>2026-03-29T12:50:10.454Z</time></trkpt><trkpt lat="40.540515" lon="16.6799717"><ele>265.0</ele><time>2026-03-29T12:50:11.454Z</time></trkpt><trkpt lat="40.5405033" lon="16.680125"><ele>264.6</ele><time>2026-03-29T12:50:12.454Z</time></trkpt><trkpt lat="40.5404883" lon="16.6802733"><ele>264.2</ele><time>2026-03-29T12:50:13.454Z</time></trkpt><trkpt lat="40.54046" lon="16.6804167"><ele>263.8</ele><time>2026-03-29T12:50:14.454Z</time></trkpt><trkpt lat="40.54042" lon="16.6805517"><ele>263.4</ele><time>2026-03-29T12:50:15.454Z</time></trkpt><trkpt lat="40.5403683" lon="16.68068"><ele>263.0</ele><time>2026-03-29T12:50:16.455Z</time></trkpt><trkpt lat="40.5403067" lon="16.680805"><ele>263.0</ele><time>2026-03-29T12:50:17.454Z</time></trkpt><trkpt lat="40.5402417" lon="16.680925"><ele>263.0</ele><time>2026-03-29T12:50:18.455Z</time></trkpt><trkpt lat="40.5401733" lon="16.6810417"><ele>263.0</ele><time>2026-03-29T12:50:19.454Z</time></trkpt><trkpt lat="40.5401017" lon="16.6811583"><ele>263.0</ele><time>2026-03-29T12:50:20.455Z</time></trkpt><trkpt lat="40.5400283" lon="16.6812717"><ele>264.5</ele><time>2026-03-29T12:50:21.455Z</time></trkpt><trkpt lat="40.5399583" lon="16.6813883"><ele>266.0</ele><time>2026-03-29T12:50:22.455Z</time></trkpt><trkpt lat="40.5398883" lon="16.681505"><ele>267.5</ele><time>2026-03-29T12:50:23.454Z</time></trkpt><trkpt lat="40.5398167" lon="16.6816233"><ele>269.0</ele><time>2026-03-29T12:50:24.455Z</time></trkpt><trkpt lat="40.5397483" lon="16.68174"><ele>269.0</ele><time>2026-03-29T12:50:25.453Z</time></trkpt><trkpt lat="40.5396817" lon="16.681855"><ele>269.0</ele><time>2026-03-29T12:50:26.456Z</time></trkpt><trkpt lat="40.5396133" lon="16.6819683"><ele>269.0</ele><time>2026-03-29T12:50:27.453Z</time></trkpt><trkpt lat="40.5395433" lon="16.68208"><ele>269.0</ele><time>2026-03-29T12:50:28.455Z</time></trkpt><trkpt lat="40.539475" lon="16.6821917"><ele>269.0</ele><time>2026-03-29T12:50:29.454Z</time></trkpt><trkpt lat="40.5394067" lon="16.682305"><ele>268.8</ele><time>2026-03-29T12:50:30.457Z</time></trkpt><trkpt lat="40.5393367" lon="16.6824167"><ele>268.59999999999997</ele><time>2026-03-29T12:50:31.454Z</time></trkpt><trkpt lat="40.5392583" lon="16.682525"><ele>268.4</ele><time>2026-03-29T12:50:32.454Z</time></trkpt><trkpt lat="40.5391767" lon="16.682625"><ele>268.2</ele><time>2026-03-29T12:50:33.454Z</time></trkpt><trkpt lat="40.5390867" lon="16.682715"><ele>268.0</ele><time>2026-03-29T12:50:34.454Z</time></trkpt><trkpt lat="40.5389917" lon="16.6827983"><ele>268.0</ele><time>2026-03-29T12:50:35.454Z</time></trkpt><trkpt lat="40.5388967" lon="16.6828767"><ele>268.0</ele><time>2026-03-29T12:50:36.454Z</time></trkpt><trkpt lat="40.5388067" lon="16.6829583"><ele>268.0</ele><time>2026-03-29T12:50:37.454Z</time></trkpt><trkpt lat="40.538725" lon="16.683055"><ele>268.0</ele><time>2026-03-29T12:50:38.454Z</time></trkpt><trkpt lat="40.53866" lon="16.683175"><ele>268.0</ele><time>2026-03-29T12:50:39.454Z</time></trkpt><trkpt lat="40.538615" lon="16.6833133"><ele>268.0</ele><time>2026-03-29T12:50:40.455Z</time></trkpt><trkpt lat="40.5385867" lon="16.6834633"><ele>268.0</ele><time>2026-03-29T12:50:41.455Z</time></trkpt><trkpt lat="40.5385667" lon="16.683615"><ele>268.0</ele><time>2026-03-29T12:50:42.454Z</time></trkpt><trkpt lat="40.53855" lon="16.6837667"><ele>268.0</ele><time>2026-03-29T12:50:43.454Z</time></trkpt><trkpt lat="40.538525" lon="16.6839167"><ele>271.0</ele><time>2026-03-29T12:50:44.455Z</time></trkpt><trkpt lat="40.5384783" lon="16.684055"><ele>274.0</ele><time>2026-03-29T12:50:45.453Z</time></trkpt><trkpt lat="40.5384067" lon="16.6841717"><ele>277.0</ele><time>2026-03-29T12:50:46.454Z</time></trkpt><trkpt lat="40.538315" lon="16.6842717"><ele>280.0</ele><time>2026-03-29T12:50:47.458Z</time></trkpt><trkpt lat="40.5382117" lon="16.6843667"><ele>280.5</ele><time>2026-03-29T12:50:48.455Z</time></trkpt><trkpt lat="40.5381033" lon="16.6844533"><ele>281.0</ele><time>2026-03-29T12:50:49.454Z</time></trkpt><trkpt lat="40.537995" lon="16.6845467"><ele>281.5</ele><time>2026-03-29T12:50:50.454Z</time></trkpt><trkpt lat="40.5378867" lon="16.6846417"><ele>282.0</ele><time>2026-03-29T12:50:51.454Z</time></trkpt><trkpt lat="40.5377833" lon="16.6847433"><ele>280.25</ele><time>2026-03-29T12:50:52.454Z</time></trkpt><trkpt lat="40.5376833" lon="16.6848517"><ele>278.5</ele><time>2026-03-29T12:50:53.455Z</time></trkpt><trkpt lat="40.5375883" lon="16.68496"><ele>276.75</ele><time>2026-03-29T12:50:54.454Z</time></trkpt><trkpt lat="40.537495" lon="16.68507"><ele>275.0</ele><time>2026-03-29T12:50:55.455Z</time></trkpt><trkpt lat="40.5374033" lon="16.68518"><ele>275.5</ele><time>2026-03-29T12:50:56.455Z</time></trkpt><trkpt lat="40.537315" lon="16.6852917"><ele>276.0</ele><time>2026-03-29T12:50:57.454Z</time></trkpt><trkpt lat="40.5372283" lon="16.685405"><ele>276.5</ele><time>2026-03-29T12:50:58.455Z</time></trkpt><trkpt lat="40.5371467" lon="16.6855233"><ele>277.0</ele><time>2026-03-29T12:50:59.455Z</time></trkpt><trkpt lat="40.5370683" lon="16.685645"><ele>276.25</ele><time>2026-03-29T12:51:00.455Z</time></trkpt><trkpt lat="40.5369983" lon="16.6857783"><ele>275.5</ele><time>2026-03-29T12:51:01.455Z</time></trkpt><trkpt lat="40.5369383" lon="16.68592"><ele>274.75</ele><time>2026-03-29T12:51:02.454Z</time></trkpt><trkpt lat="40.5368783" lon="16.6860667"><ele>274.0</ele><time>2026-03-29T12:51:03.454Z</time></trkpt><trkpt lat="40.5368183" lon="16.6862117"><ele>273.75</ele><time>2026-03-29T12:51:04.454Z</time></trkpt><trkpt lat="40.5367583" lon="16.6863567"><ele>273.5</ele><time>2026-03-29T12:51:05.453Z</time></trkpt><trkpt lat="40.5366967" lon="16.6865017"><ele>273.25</ele><time>2026-03-29T12:51:06.454Z</time></trkpt><trkpt lat="40.5366367" lon="16.6866417"><ele>273.0</ele><time>2026-03-29T12:51:07.453Z</time></trkpt><trkpt lat="40.53658" lon="16.68678"><ele>273.0</ele><time>2026-03-29T12:51:08.455Z</time></trkpt><trkpt lat="40.536525" lon="16.6869167"><ele>273.0</ele><time>2026-03-29T12:51:09.455Z</time></trkpt><trkpt lat="40.5364683" lon="16.6870533"><ele>273.0</ele><time>2026-03-29T12:51:10.454Z</time></trkpt><trkpt lat="40.53641" lon="16.6871917"><ele>273.0</ele><time>2026-03-29T12:51:11.455Z</time></trkpt><trkpt lat="40.5363483" lon="16.6873283"><ele>272.25</ele><time>2026-03-29T12:51:12.454Z</time></trkpt><trkpt lat="40.5362667" lon="16.6874567"><ele>271.5</ele><time>2026-03-29T12:51:13.454Z</time></trkpt><trkpt lat="40.536175" lon="16.6875667"><ele>270.75</ele><time>2026-03-29T12:51:14.455Z</time></trkpt><trkpt lat="40.5360767" lon="16.687665"><ele>270.0</ele><time>2026-03-29T12:51:15.454Z</time></trkpt><trkpt lat="40.5359733" lon="16.68775"><ele>269.75</ele><time>2026-03-29T12:51:16.455Z</time></trkpt><trkpt lat="40.5358683" lon="16.6878283"><ele>269.5</ele><time>2026-03-29T12:51:17.455Z</time></trkpt><trkpt lat="40.5357617" lon="16.6879067"><ele>269.25</ele><time>2026-03-29T12:51:18.454Z</time></trkpt><trkpt lat="40.5356533" lon="16.6879867"><ele>269.0</ele><time>2026-03-29T12:51:19.454Z</time></trkpt><trkpt lat="40.5355467" lon="16.6880667"><ele>269.0</ele><time>2026-03-29T12:51:20.455Z</time></trkpt><trkpt lat="40.53544" lon="16.6881433"><ele>269.0</ele><time>2026-03-29T12:51:21.456Z</time></trkpt><trkpt lat="40.53533" lon="16.6882217"><ele>269.0</ele><time>2026-03-29T12:51:22.454Z</time></trkpt><trkpt lat="40.53522" lon="16.6883"><ele>269.0</ele><time>2026-03-29T12:51:23.454Z</time></trkpt><trkpt lat="40.5351083" lon="16.6883817"><ele>268.5</ele><time>2026-03-29T12:51:24.454Z</time></trkpt><trkpt lat="40.5349933" lon="16.688465"><ele>268.0</ele><time>2026-03-29T12:51:25.453Z</time></trkpt><trkpt lat="40.5348783" lon="16.6885517"><ele>267.5</ele><time>2026-03-29T12:51:26.455Z</time></trkpt><trkpt lat="40.5347617" lon="16.6886383"><ele>267.0</ele><time>2026-03-29T12:51:27.453Z</time></trkpt><trkpt lat="40.5346433" lon="16.6887233"><ele>265.75</ele><time>2026-03-29T12:51:28.454Z</time></trkpt><trkpt lat="40.5345283" lon="16.6888083"><ele>264.5</ele><time>2026-03-29T12:51:29.455Z</time></trkpt><trkpt lat="40.5344133" lon="16.688895"><ele>263.25</ele><time>2026-03-29T12:51:30.455Z</time></trkpt><trkpt lat="40.5342983" lon="16.68898"><ele>262.0</ele><time>2026-03-29T12:51:31.454Z</time></trkpt><trkpt lat="40.5341833" lon="16.6890667"><ele>262.0</ele><time>2026-03-29T12:51:32.455Z</time></trkpt><trkpt lat="40.5340667" lon="16.6891533"><ele>262.0</ele><time>2026-03-29T12:51:33.454Z</time></trkpt><trkpt lat="40.53395" lon="16.6892417"><ele>262.0</ele><time>2026-03-29T12:51:34.454Z</time></trkpt><trkpt lat="40.5338333" lon="16.68933"><ele>262.0</ele><time>2026-03-29T12:51:35.454Z</time></trkpt><trkpt lat="40.53372" lon="16.68942"><ele>261.0</ele><time>2026-03-29T12:51:36.454Z</time></trkpt><trkpt lat="40.533605" lon="16.6895067"><ele>260.0</ele><time>2026-03-29T12:51:37.456Z</time></trkpt><trkpt lat="40.5334883" lon="16.6895917"><ele>259.0</ele><time>2026-03-29T12:51:38.456Z</time></trkpt><trkpt lat="40.5333733" lon="16.689675"><ele>258.0</ele><time>2026-03-29T12:51:39.455Z</time></trkpt><trkpt lat="40.53326" lon="16.68976"><ele>258.0</ele><time>2026-03-29T12:51:40.454Z</time></trkpt><trkpt lat="40.5331467" lon="16.6898433"><ele>258.0</ele><time>2026-03-29T12:51:41.455Z</time></trkpt><trkpt lat="40.5330333" lon="16.6899267"><ele>258.0</ele><time>2026-03-29T12:51:42.454Z</time></trkpt><trkpt lat="40.5329167" lon="16.69"><ele>258.0</ele><time>2026-03-29T12:51:43.455Z</time></trkpt><trkpt lat="40.5328" lon="16.690065"><ele>256.75</ele><time>2026-03-29T12:51:44.456Z</time></trkpt><trkpt lat="40.5326817" lon="16.6901217"><ele>255.5</ele><time>2026-03-29T12:51:45.453Z</time></trkpt><trkpt lat="40.532565" lon="16.690175"><ele>254.25</ele><time>2026-03-29T12:51:46.453Z</time></trkpt><trkpt lat="40.5324467" lon="16.6902317"><ele>253.0</ele><time>2026-03-29T12:51:47.453Z</time></trkpt><trkpt lat="40.53233" lon="16.6902917"><ele>253.0</ele><time>2026-03-29T12:51:48.454Z</time></trkpt><trkpt lat="40.5322133" lon="16.690355"><ele>253.0</ele><time>2026-03-29T12:51:49.454Z</time></trkpt><trkpt lat="40.532105" lon="16.6904267"><ele>253.0</ele><time>2026-03-29T12:51:50.454Z</time></trkpt><trkpt lat="40.532005" lon="16.6905183"><ele>253.0</ele><time>2026-03-29T12:51:51.454Z</time></trkpt><trkpt lat="40.5319167" lon="16.6906383"><ele>250.0</ele><time>2026-03-29T12:51:52.454Z</time></trkpt><trkpt lat="40.5318467" lon="16.6907883"><ele>247.0</ele><time>2026-03-29T12:51:53.458Z</time></trkpt><trkpt lat="40.5317917" lon="16.6909517"><ele>244.0</ele><time>2026-03-29T12:51:54.454Z</time></trkpt><trkpt lat="40.5317483" lon="16.6911233"><ele>241.0</ele><time>2026-03-29T12:51:55.454Z</time></trkpt><trkpt lat="40.5317083" lon="16.691295"><ele>240.75</ele><time>2026-03-29T12:51:56.454Z</time></trkpt><trkpt lat="40.5316717" lon="16.6914633"><ele>240.5</ele><time>2026-03-29T12:51:57.455Z</time></trkpt><trkpt lat="40.5316317" lon="16.691625"><ele>240.25</ele><time>2026-03-29T12:51:58.457Z</time></trkpt><trkpt lat="40.5315917" lon="16.69178"><ele>240.0</ele><time>2026-03-29T12:51:59.454Z</time></trkpt><trkpt lat="40.53155" lon="16.6919333"><ele>239.0</ele><time>2026-03-29T12:52:00.454Z</time></trkpt><trkpt lat="40.531505" lon="16.6920867"><ele>238.0</ele><time>2026-03-29T12:52:01.454Z</time></trkpt><trkpt lat="40.53146" lon="16.6922383"><ele>237.0</ele><time>2026-03-29T12:52:02.455Z</time></trkpt><trkpt lat="40.5314133" lon="16.6923917"><ele>236.0</ele><time>2026-03-29T12:52:03.455Z</time></trkpt><trkpt lat="40.5313583" lon="16.69254"><ele>236.0</ele><time>2026-03-29T12:52:04.454Z</time></trkpt><trkpt lat="40.5312967" lon="16.69268"><ele>236.0</ele><time>2026-03-29T12:52:05.454Z</time></trkpt><trkpt lat="40.5312267" lon="16.6928083"><ele>236.0</ele><time>2026-03-29T12:52:06.453Z</time></trkpt><trkpt lat="40.53115" lon="16.6929317"><ele>236.0</ele><time>2026-03-29T12:52:07.454Z</time></trkpt><trkpt lat="40.5310683" lon="16.69305"><ele>233.75</ele><time>2026-03-29T12:52:08.454Z</time></trkpt><trkpt lat="40.5309833" lon="16.6931633"><ele>231.5</ele><time>2026-03-29T12:52:09.455Z</time></trkpt><trkpt lat="40.5308967" lon="16.693275"><ele>229.25</ele><time>2026-03-29T12:52:10.454Z</time></trkpt><trkpt lat="40.53081" lon="16.69338"><ele>227.0</ele><time>2026-03-29T12:52:11.456Z</time></trkpt><trkpt lat="40.5307183" lon="16.69348"><ele>227.0</ele><time>2026-03-29T12:52:12.455Z</time></trkpt><trkpt lat="40.5306183" lon="16.6935683"><ele>227.0</ele><time>2026-03-29T12:52:13.455Z</time></trkpt><trkpt lat="40.5305133" lon="16.6936433"><ele>227.0</ele><time>2026-03-29T12:52:14.455Z</time></trkpt><trkpt lat="40.5304067" lon="16.6937083"><ele>227.0</ele><time>2026-03-29T12:52:15.454Z</time></trkpt><trkpt lat="40.5303017" lon="16.6937717"><ele>227.25</ele><time>2026-03-29T12:52:16.455Z</time></trkpt><trkpt lat="40.5301933" lon="16.69384"><ele>227.5</ele><time>2026-03-29T12:52:17.455Z</time></trkpt><trkpt lat="40.5300833" lon="16.69391"><ele>227.75</ele><time>2026-03-29T12:52:18.454Z</time></trkpt><trkpt lat="40.529975" lon="16.69398"><ele>228.0</ele><time>2026-03-29T12:52:19.455Z</time></trkpt><trkpt lat="40.529865" lon="16.6940483"><ele>228.0</ele><time>2026-03-29T12:52:20.455Z</time></trkpt><trkpt lat="40.529755" lon="16.6941167"><ele>228.0</ele><time>2026-03-29T12:52:21.454Z</time></trkpt><trkpt lat="40.5296467" lon="16.6941883"><ele>228.0</ele><time>2026-03-29T12:52:22.455Z</time></trkpt><trkpt lat="40.52954" lon="16.6942667"><ele>228.0</ele><time>2026-03-29T12:52:23.455Z</time></trkpt><trkpt lat="40.5294367" lon="16.6943583"><ele>227.25</ele><time>2026-03-29T12:52:24.455Z</time></trkpt><trkpt lat="40.529345" lon="16.694465"><ele>226.5</ele><time>2026-03-29T12:52:25.453Z</time></trkpt><trkpt lat="40.5292617" lon="16.6945883"><ele>225.75</ele><time>2026-03-29T12:52:26.454Z</time></trkpt><trkpt lat="40.5291883" lon="16.6947217"><ele>225.0</ele><time>2026-03-29T12:52:27.453Z</time></trkpt><trkpt lat="40.5291217" lon="16.6948617"><ele>225.0</ele><time>2026-03-29T12:52:28.454Z</time></trkpt><trkpt lat="40.5290667" lon="16.6950067"><ele>225.0</ele><time>2026-03-29T12:52:29.454Z</time></trkpt><trkpt lat="40.5290217" lon="16.6951583"><ele>225.0</ele><time>2026-03-29T12:52:30.454Z</time></trkpt><trkpt lat="40.5289817" lon="16.6953117"><ele>225.0</ele><time>2026-03-29T12:52:31.454Z</time></trkpt><trkpt lat="40.5289467" lon="16.6954633"><ele>223.25</ele><time>2026-03-29T12:52:32.454Z</time></trkpt><trkpt lat="40.5289083" lon="16.6956167"><ele>221.5</ele><time>2026-03-29T12:52:33.455Z</time></trkpt><trkpt lat="40.5288667" lon="16.695765"><ele>219.75</ele><time>2026-03-29T12:52:34.455Z</time></trkpt><trkpt lat="40.528815" lon="16.6959017"><ele>218.0</ele><time>2026-03-29T12:52:35.454Z</time></trkpt><trkpt lat="40.52876" lon="16.69603"><ele>218.0</ele><time>2026-03-29T12:52:36.454Z</time></trkpt><trkpt lat="40.5287" lon="16.6961583"><ele>218.0</ele><time>2026-03-29T12:52:37.458Z</time></trkpt><trkpt lat="40.5286367" lon="16.6962867"><ele>218.0</ele><time>2026-03-29T12:52:38.455Z</time></trkpt><trkpt lat="40.5285717" lon="16.6964117"><ele>218.0</ele><time>2026-03-29T12:52:39.455Z</time></trkpt><trkpt lat="40.528505" lon="16.6965333"><ele>218.0</ele><time>2026-03-29T12:52:40.455Z</time></trkpt><trkpt lat="40.5284367" lon="16.6966567"><ele>218.0</ele><time>2026-03-29T12:52:41.454Z</time></trkpt><trkpt lat="40.5283717" lon="16.6967767"><ele>218.0</ele><time>2026-03-29T12:52:42.455Z</time></trkpt><trkpt lat="40.5283017" lon="16.6968933"><ele>218.0</ele><time>2026-03-29T12:52:43.455Z</time></trkpt><trkpt lat="40.5282217" lon="16.696995"><ele>217.75</ele><time>2026-03-29T12:52:44.454Z</time></trkpt><trkpt lat="40.5281267" lon="16.6970783"><ele>217.5</ele><time>2026-03-29T12:52:45.454Z</time></trkpt><trkpt lat="40.5280167" lon="16.697135"><ele>217.25</ele><time>2026-03-29T12:52:46.454Z</time></trkpt><trkpt lat="40.527895" lon="16.6971617"><ele>217.0</ele><time>2026-03-29T12:52:47.454Z</time></trkpt><trkpt lat="40.52777" lon="16.697165"><ele>215.75</ele><time>2026-03-29T12:52:48.454Z</time></trkpt><trkpt lat="40.527645" lon="16.6971333"><ele>214.5</ele><time>2026-03-29T12:52:49.454Z</time></trkpt><trkpt lat="40.5275233" lon="16.6970933"><ele>213.25</ele><time>2026-03-29T12:52:50.455Z</time></trkpt><trkpt lat="40.5274017" lon="16.6970533"><ele>212.0</ele><time>2026-03-29T12:52:51.454Z</time></trkpt><trkpt lat="40.5272817" lon="16.6970167"><ele>212.0</ele><time>2026-03-29T12:52:52.454Z</time></trkpt><trkpt lat="40.5271633" lon="16.6969817"><ele>212.0</ele><time>2026-03-29T12:52:53.455Z</time></trkpt><trkpt lat="40.5270483" lon="16.6969483"><ele>212.0</ele><time>2026-03-29T12:52:54.455Z</time></trkpt><trkpt lat="40.52693" lon="16.6969217"><ele>212.0</ele><time>2026-03-29T12:52:55.454Z</time></trkpt><trkpt lat="40.5268083" lon="16.6969017"><ele>211.25</ele><time>2026-03-29T12:52:56.455Z</time></trkpt><trkpt lat="40.5266867" lon="16.6968883"><ele>210.5</ele><time>2026-03-29T12:52:57.455Z</time></trkpt><trkpt lat="40.526565" lon="16.6968733"><ele>209.75</ele><time>2026-03-29T12:52:58.455Z</time></trkpt><trkpt lat="40.5264417" lon="16.6968617"><ele>209.0</ele><time>2026-03-29T12:52:59.455Z</time></trkpt><trkpt lat="40.5263167" lon="16.6968533"><ele>207.75</ele><time>2026-03-29T12:53:00.454Z</time></trkpt><trkpt lat="40.526195" lon="16.6968433"><ele>206.5</ele><time>2026-03-29T12:53:01.454Z</time></trkpt><trkpt lat="40.52607" lon="16.696835"><ele>205.25</ele><time>2026-03-29T12:53:02.455Z</time></trkpt><trkpt lat="40.5259483" lon="16.6968267"><ele>204.0</ele><time>2026-03-29T12:53:03.454Z</time></trkpt><trkpt lat="40.525825" lon="16.6968167"><ele>204.0</ele><time>2026-03-29T12:53:04.454Z</time></trkpt><trkpt lat="40.5257017" lon="16.6968067"><ele>204.0</ele><time>2026-03-29T12:53:05.453Z</time></trkpt><trkpt lat="40.5255783" lon="16.6967983"><ele>204.0</ele><time>2026-03-29T12:53:06.454Z</time></trkpt><trkpt lat="40.5254533" lon="16.696795"><ele>204.0</ele><time>2026-03-29T12:53:07.453Z</time></trkpt><trkpt lat="40.52533" lon="16.6968033"><ele>203.0</ele><time>2026-03-29T12:53:08.455Z</time></trkpt><trkpt lat="40.5252083" lon="16.6968183"><ele>202.0</ele><time>2026-03-29T12:53:09.455Z</time></trkpt><trkpt lat="40.525085" lon="16.6968433"><ele>201.0</ele><time>2026-03-29T12:53:10.454Z</time></trkpt><trkpt lat="40.5249617" lon="16.6968717"><ele>200.0</ele><time>2026-03-29T12:53:11.454Z</time></trkpt><trkpt lat="40.5248383" lon="16.6969017"><ele>200.0</ele><time>2026-03-29T12:53:12.455Z</time></trkpt><trkpt lat="40.5247117" lon="16.6969267"><ele>200.0</ele><time>2026-03-29T12:53:13.454Z</time></trkpt><trkpt lat="40.524585" lon="16.696935"><ele>200.0</ele><time>2026-03-29T12:53:14.454Z</time></trkpt><trkpt lat="40.5244567" lon="16.6969267"><ele>200.0</ele><time>2026-03-29T12:53:15.454Z</time></trkpt><trkpt lat="40.5243283" lon="16.69691"><ele>198.0</ele><time>2026-03-29T12:53:16.454Z</time></trkpt><trkpt lat="40.5242033" lon="16.696895"><ele>196.0</ele><time>2026-03-29T12:53:17.455Z</time></trkpt><trkpt lat="40.5240783" lon="16.6968817"><ele>194.0</ele><time>2026-03-29T12:53:18.454Z</time></trkpt><trkpt lat="40.5239517" lon="16.69688"><ele>192.0</ele><time>2026-03-29T12:53:19.455Z</time></trkpt><trkpt lat="40.5238283" lon="16.6968867"><ele>192.5</ele><time>2026-03-29T12:53:20.454Z</time></trkpt><trkpt lat="40.5237033" lon="16.6969117"><ele>193.0</ele><time>2026-03-29T12:53:21.454Z</time></trkpt><trkpt lat="40.52358" lon="16.6969483"><ele>193.5</ele><time>2026-03-29T12:53:22.454Z</time></trkpt><trkpt lat="40.5234583" lon="16.69699"><ele>194.0</ele><time>2026-03-29T12:53:23.455Z</time></trkpt><trkpt lat="40.5233367" lon="16.6970367"><ele>194.5</ele><time>2026-03-29T12:53:24.454Z</time></trkpt><trkpt lat="40.5232167" lon="16.6970867"><ele>195.0</ele><time>2026-03-29T12:53:25.454Z</time></trkpt><trkpt lat="40.5230967" lon="16.6971383"><ele>195.5</ele><time>2026-03-29T12:53:26.455Z</time></trkpt><trkpt lat="40.5229767" lon="16.6971917"><ele>196.0</ele><time>2026-03-29T12:53:27.455Z</time></trkpt><trkpt lat="40.52286" lon="16.69724"><ele>196.0</ele><time>2026-03-29T12:53:28.455Z</time></trkpt><trkpt lat="40.5227433" lon="16.6972883"><ele>196.0</ele><time>2026-03-29T12:53:29.455Z</time></trkpt><trkpt lat="40.522625" lon="16.6973367"><ele>196.0</ele><time>2026-03-29T12:53:30.454Z</time></trkpt><trkpt lat="40.5225017" lon="16.6973833"><ele>196.0</ele><time>2026-03-29T12:53:31.454Z</time></trkpt><trkpt lat="40.5223783" lon="16.69743"><ele>196.0</ele><time>2026-03-29T12:53:32.455Z</time></trkpt><trkpt lat="40.52225" lon="16.69748"><ele>196.0</ele><time>2026-03-29T12:53:33.455Z</time></trkpt><trkpt lat="40.5221183" lon="16.6975333"><ele>196.0</ele><time>2026-03-29T12:53:34.454Z</time></trkpt><trkpt lat="40.5219867" lon="16.6975883"><ele>196.0</ele><time>2026-03-29T12:53:35.454Z</time></trkpt><trkpt lat="40.5218617" lon="16.69764"><ele>196.0</ele><time>2026-03-29T12:53:36.455Z</time></trkpt><trkpt lat="40.5217417" lon="16.6976933"><ele>196.0</ele><time>2026-03-29T12:53:37.454Z</time></trkpt><trkpt lat="40.5216267" lon="16.697765"><ele>196.0</ele><time>2026-03-29T12:53:38.455Z</time></trkpt><trkpt lat="40.5215283" lon="16.6978667"><ele>196.0</ele><time>2026-03-29T12:53:39.454Z</time></trkpt><trkpt lat="40.5214417" lon="16.697985"><ele>195.75</ele><time>2026-03-29T12:53:40.457Z</time></trkpt><trkpt lat="40.5213683" lon="16.6981267"><ele>195.5</ele><time>2026-03-29T12:53:41.454Z</time></trkpt><trkpt lat="40.521315" lon="16.6983033"><ele>195.25</ele><time>2026-03-29T12:53:42.454Z</time></trkpt><trkpt lat="40.52127" lon="16.698485"><ele>195.0</ele><time>2026-03-29T12:53:43.454Z</time></trkpt><trkpt lat="40.52123" lon="16.6986767"><ele>193.0</ele><time>2026-03-29T12:53:44.456Z</time></trkpt><trkpt lat="40.5211883" lon="16.69886"><ele>191.0</ele><time>2026-03-29T12:53:45.453Z</time></trkpt><trkpt lat="40.521145" lon="16.6990383"><ele>189.0</ele><time>2026-03-29T12:53:46.454Z</time></trkpt><trkpt lat="40.5211017" lon="16.6992117"><ele>187.0</ele><time>2026-03-29T12:53:47.453Z</time></trkpt><trkpt lat="40.5210583" lon="16.6993833"><ele>187.25</ele><time>2026-03-29T12:53:48.454Z</time></trkpt><trkpt lat="40.5210067" lon="16.699555"><ele>187.5</ele><time>2026-03-29T12:53:49.454Z</time></trkpt><trkpt lat="40.5209417" lon="16.69972"><ele>187.75</ele><time>2026-03-29T12:53:50.455Z</time></trkpt><trkpt lat="40.5208667" lon="16.6998817"><ele>188.0</ele><time>2026-03-29T12:53:51.455Z</time></trkpt><trkpt lat="40.5207883" lon="16.7000383"><ele>188.0</ele><time>2026-03-29T12:53:52.456Z</time></trkpt><trkpt lat="40.52071" lon="16.700195"><ele>188.0</ele><time>2026-03-29T12:53:53.454Z</time></trkpt><trkpt lat="40.5206317" lon="16.7003517"><ele>188.0</ele><time>2026-03-29T12:53:54.455Z</time></trkpt><trkpt lat="40.5205483" lon="16.70051"><ele>188.0</ele><time>2026-03-29T12:53:55.454Z</time></trkpt><trkpt lat="40.520465" lon="16.7006683"><ele>187.25</ele><time>2026-03-29T12:53:56.455Z</time></trkpt><trkpt lat="40.5203783" lon="16.7008233"><ele>186.5</ele><time>2026-03-29T12:53:57.455Z</time></trkpt><trkpt lat="40.5202833" lon="16.7009783"><ele>185.75</ele><time>2026-03-29T12:53:58.454Z</time></trkpt><trkpt lat="40.5201867" lon="16.7011283"><ele>185.0</ele><time>2026-03-29T12:53:59.455Z</time></trkpt><trkpt lat="40.5200867" lon="16.701275"><ele>185.0</ele><time>2026-03-29T12:54:00.454Z</time></trkpt><trkpt lat="40.519985" lon="16.7014217"><ele>185.0</ele><time>2026-03-29T12:54:01.454Z</time></trkpt><trkpt lat="40.519885" lon="16.7015667"><ele>185.0</ele><time>2026-03-29T12:54:02.455Z</time></trkpt><trkpt lat="40.5197833" lon="16.70171"><ele>185.0</ele><time>2026-03-29T12:54:03.454Z</time></trkpt><trkpt lat="40.5196817" lon="16.701855"><ele>184.75</ele><time>2026-03-29T12:54:04.455Z</time></trkpt><trkpt lat="40.51958" lon="16.702"><ele>184.5</ele><time>2026-03-29T12:54:05.453Z</time></trkpt><trkpt lat="40.5194817" lon="16.7021483"><ele>184.25</ele><time>2026-03-29T12:54:06.454Z</time></trkpt><trkpt lat="40.5193817" lon="16.702295"><ele>184.0</ele><time>2026-03-29T12:54:07.454Z</time></trkpt><trkpt lat="40.5192783" lon="16.7024467"><ele>184.0</ele><time>2026-03-29T12:54:08.455Z</time></trkpt><trkpt lat="40.5191767" lon="16.7025967"><ele>184.0</ele><time>2026-03-29T12:54:09.456Z</time></trkpt><trkpt lat="40.519075" lon="16.702745"><ele>184.0</ele><time>2026-03-29T12:54:10.454Z</time></trkpt><trkpt lat="40.5189733" lon="16.7028933"><ele>182.33333333333334</ele><time>2026-03-29T12:54:11.455Z</time></trkpt><trkpt lat="40.518875" lon="16.7030417"><ele>180.66666666666666</ele><time>2026-03-29T12:54:12.455Z</time></trkpt><trkpt lat="40.5187767" lon="16.70319"><ele>179.0</ele><time>2026-03-29T12:54:13.454Z</time></trkpt><trkpt lat="40.518675" lon="16.7033383"><ele>178.66666666666666</ele><time>2026-03-29T12:54:14.455Z</time></trkpt><trkpt lat="40.5185733" lon="16.7034867"><ele>178.33333333333334</ele><time>2026-03-29T12:54:15.455Z</time></trkpt><trkpt lat="40.5184683" lon="16.7036367"><ele>178.0</ele><time>2026-03-29T12:54:16.454Z</time></trkpt><trkpt lat="40.5183617" lon="16.7037933"><ele>177.33333333333334</ele><time>2026-03-29T12:54:17.454Z</time></trkpt><trkpt lat="40.5182533" lon="16.7039567"><ele>176.66666666666666</ele><time>2026-03-29T12:54:18.455Z</time></trkpt><trkpt lat="40.5181433" lon="16.7041167"><ele>176.0</ele><time>2026-03-29T12:54:19.454Z</time></trkpt><trkpt lat="40.5180333" lon="16.70427"><ele>175.66666666666666</ele><time>2026-03-29T12:54:20.455Z</time></trkpt><trkpt lat="40.5179183" lon="16.7044167"><ele>175.33333333333334</ele><time>2026-03-29T12:54:21.455Z</time></trkpt><trkpt lat="40.5178" lon="16.7045533"><ele>175.0</ele><time>2026-03-29T12:54:22.454Z</time></trkpt><trkpt lat="40.5176767" lon="16.7046817"><ele>174.0</ele><time>2026-03-29T12:54:23.454Z</time></trkpt><trkpt lat="40.5175517" lon="16.7048033"><ele>173.0</ele><time>2026-03-29T12:54:24.454Z</time></trkpt><trkpt lat="40.517425" lon="16.7049183"><ele>172.0</ele><time>2026-03-29T12:54:25.454Z</time></trkpt><trkpt lat="40.5172917" lon="16.7050233"><ele>172.0</ele><time>2026-03-29T12:54:26.455Z</time></trkpt><trkpt lat="40.517155" lon="16.70512"><ele>172.0</ele><time>2026-03-29T12:54:27.453Z</time></trkpt><trkpt lat="40.5170167" lon="16.705205"><ele>172.0</ele><time>2026-03-29T12:54:28.454Z</time></trkpt><trkpt lat="40.5168767" lon="16.7052817"><ele>171.5</ele><time>2026-03-29T12:54:29.454Z</time></trkpt><trkpt lat="40.5167367" lon="16.705355"><ele>171.0</ele><time>2026-03-29T12:54:30.454Z</time></trkpt><trkpt lat="40.5166033" lon="16.7054233"><ele>170.5</ele><time>2026-03-29T12:54:31.454Z</time></trkpt><trkpt lat="40.5164717" lon="16.7054967"><ele>170.0</ele><time>2026-03-29T12:54:32.455Z</time></trkpt><trkpt lat="40.5163467" lon="16.7055883"><ele>168.0</ele><time>2026-03-29T12:54:33.457Z</time></trkpt><trkpt lat="40.516235" lon="16.70571"><ele>166.0</ele><time>2026-03-29T12:54:34.454Z</time></trkpt><trkpt lat="40.516145" lon="16.70587"><ele>164.0</ele><time>2026-03-29T12:54:35.454Z</time></trkpt><trkpt lat="40.5160717" lon="16.7060517"><ele>164.25</ele><time>2026-03-29T12:54:36.455Z</time></trkpt><trkpt lat="40.51601" lon="16.7062367"><ele>164.5</ele><time>2026-03-29T12:54:37.455Z</time></trkpt><trkpt lat="40.5159533" lon="16.7064167"><ele>164.75</ele><time>2026-03-29T12:54:38.455Z</time></trkpt><trkpt lat="40.5158983" lon="16.7065883"><ele>165.0</ele><time>2026-03-29T12:54:39.456Z</time></trkpt><trkpt lat="40.515845" lon="16.70675"><ele>165.0</ele><time>2026-03-29T12:54:40.456Z</time></trkpt><trkpt lat="40.5157883" lon="16.7068883"><ele>165.0</ele><time>2026-03-29T12:54:41.455Z</time></trkpt><trkpt lat="40.5157133" lon="16.7069917"><ele>165.0</ele><time>2026-03-29T12:54:42.456Z</time></trkpt><trkpt lat="40.5156217" lon="16.7070633"><ele>165.0</ele><time>2026-03-29T12:54:43.455Z</time></trkpt><trkpt lat="40.51551" lon="16.707085"><ele>165.0</ele><time>2026-03-29T12:54:44.455Z</time></trkpt><trkpt lat="40.5153883" lon="16.7070583"><ele>162.5</ele><time>2026-03-29T12:54:45.453Z</time></trkpt><trkpt lat="40.5152667" lon="16.7069783"><ele>160.0</ele><time>2026-03-29T12:54:46.453Z</time></trkpt><trkpt lat="40.51515" lon="16.7068967"><ele>157.5</ele><time>2026-03-29T12:54:47.454Z</time></trkpt><trkpt lat="40.5150317" lon="16.70685"><ele>155.0</ele><time>2026-03-29T12:54:48.455Z</time></trkpt><trkpt lat="40.5149267" lon="16.7068083"><ele>155.0</ele><time>2026-03-29T12:54:49.454Z</time></trkpt><trkpt lat="40.5148333" lon="16.7067633"><ele>155.0</ele><time>2026-03-29T12:54:50.455Z</time></trkpt><trkpt lat="40.514745" lon="16.706725"><ele>155.0</ele><time>2026-03-29T12:54:51.455Z</time></trkpt><trkpt lat="40.5146567" lon="16.7067033"><ele>155.0</ele><time>2026-03-29T12:54:52.455Z</time></trkpt><trkpt lat="40.5145667" lon="16.7066967"><ele>155.0</ele><time>2026-03-29T12:54:53.454Z</time></trkpt><trkpt lat="40.5144767" lon="16.7066983"><ele>153.33333333333331</ele><time>2026-03-29T12:54:54.454Z</time></trkpt><trkpt lat="40.5143883" lon="16.7066933"><ele>151.66666666666666</ele><time>2026-03-29T12:54:55.455Z</time></trkpt><trkpt lat="40.5143067" lon="16.7066833"><ele>150.0</ele><time>2026-03-29T12:54:56.455Z</time></trkpt><trkpt lat="40.51423" lon="16.7066833"><ele>148.33333333333334</ele><time>2026-03-29T12:54:57.458Z</time></trkpt><trkpt lat="40.51416" lon="16.7067033"><ele>146.66666666666669</ele><time>2026-03-29T12:54:58.454Z</time></trkpt><trkpt lat="40.5141017" lon="16.7067467"><ele>145.0</ele><time>2026-03-29T12:54:59.455Z</time></trkpt><trkpt lat="40.51406" lon="16.7068417"><ele>145.83333333333334</ele><time>2026-03-29T12:55:00.455Z</time></trkpt><trkpt lat="40.514045" lon="16.706955"><ele>146.66666666666669</ele><time>2026-03-29T12:55:01.455Z</time></trkpt><trkpt lat="40.5140367" lon="16.7070583"><ele>147.5</ele><time>2026-03-29T12:55:02.455Z</time></trkpt><trkpt lat="40.5140083" lon="16.70715"><ele>148.33333333333334</ele><time>2026-03-29T12:55:03.454Z</time></trkpt><trkpt lat="40.51396" lon="16.7072167"><ele>149.16666666666666</ele><time>2026-03-29T12:55:04.455Z</time></trkpt><trkpt lat="40.5138733" lon="16.7072333"><ele>150.0</ele><time>2026-03-29T12:55:05.454Z</time></trkpt><trkpt lat="40.5137883" lon="16.70722"><ele>145.8</ele><time>2026-03-29T12:55:06.453Z</time></trkpt><trkpt lat="40.5137" lon="16.7072033"><ele>141.6</ele><time>2026-03-29T12:55:07.453Z</time></trkpt><trkpt lat="40.5136133" lon="16.7072167"><ele>137.4</ele><time>2026-03-29T12:55:08.456Z</time></trkpt><trkpt lat="40.5135233" lon="16.7072583"><ele>133.2</ele><time>2026-03-29T12:55:09.454Z</time></trkpt><trkpt lat="40.5134367" lon="16.7073117"><ele>129.0</ele><time>2026-03-29T12:55:10.455Z</time></trkpt><trkpt lat="40.51336" lon="16.70737"><ele>129.0</ele><time>2026-03-29T12:55:11.454Z</time></trkpt><trkpt lat="40.51328" lon="16.7074333"><ele>129.0</ele><time>2026-03-29T12:55:12.457Z</time></trkpt><trkpt lat="40.5132017" lon="16.7074933"><ele>129.0</ele><time>2026-03-29T12:55:13.454Z</time></trkpt><trkpt lat="40.513125" lon="16.7075533"><ele>129.0</ele><time>2026-03-29T12:55:14.455Z</time></trkpt><trkpt lat="40.51305" lon="16.7076217"><ele>129.0</ele><time>2026-03-29T12:55:15.454Z</time></trkpt><trkpt lat="40.5129683" lon="16.7076817"><ele>127.0</ele><time>2026-03-29T12:55:16.455Z</time></trkpt><trkpt lat="40.512895" lon="16.7077467"><ele>125.0</ele><time>2026-03-29T12:55:17.455Z</time></trkpt><trkpt lat="40.51283" lon="16.7078167"><ele>123.0</ele><time>2026-03-29T12:55:18.456Z</time></trkpt><trkpt lat="40.5127783" lon="16.7078933"><ele>121.0</ele><time>2026-03-29T12:55:19.454Z</time></trkpt><trkpt lat="40.5127267" lon="16.707965"><ele>119.0</ele><time>2026-03-29T12:55:20.455Z</time></trkpt><trkpt lat="40.51267" lon="16.7080083"><ele>117.0</ele><time>2026-03-29T12:55:21.455Z</time></trkpt><trkpt lat="40.5125517" lon="16.7079917"><ele>117.0</ele><time>2026-03-29T12:55:23.454Z</time></trkpt><trkpt lat="40.512505" lon="16.70793"><ele>117.0</ele><time>2026-03-29T12:55:24.454Z</time></trkpt><trkpt lat="40.5124683" lon="16.707845"><ele>117.0</ele><time>2026-03-29T12:55:25.454Z</time></trkpt><trkpt lat="40.5124333" lon="16.7077517"><ele>117.0</ele><time>2026-03-29T12:55:26.454Z</time></trkpt><trkpt lat="40.5123883" lon="16.7076483"><ele>117.0</ele><time>2026-03-29T12:55:27.453Z</time></trkpt><trkpt lat="40.512335" lon="16.7075567"><ele>117.0</ele><time>2026-03-29T12:55:28.454Z</time></trkpt><trkpt lat="40.5122767" lon="16.7074667"><ele>115.5</ele><time>2026-03-29T12:55:29.455Z</time></trkpt><trkpt lat="40.512215" lon="16.7073833"><ele>114.0</ele><time>2026-03-29T12:55:30.454Z</time></trkpt><trkpt lat="40.512155" lon="16.7073033"><ele>112.5</ele><time>2026-03-29T12:55:31.457Z</time></trkpt><trkpt lat="40.512105" lon="16.7072283"><ele>111.0</ele><time>2026-03-29T12:55:32.454Z</time></trkpt><trkpt lat="40.5120533" lon="16.7071633"><ele>109.5</ele><time>2026-03-29T12:55:33.457Z</time></trkpt><trkpt lat="40.51199" lon="16.7071167"><ele>108.0</ele><time>2026-03-29T12:55:34.455Z</time></trkpt><trkpt lat="40.5119217" lon="16.7070817"><ele>105.85714285714286</ele><time>2026-03-29T12:55:35.455Z</time></trkpt><trkpt lat="40.5118533" lon="16.7070667"><ele>103.71428571428571</ele><time>2026-03-29T12:55:36.455Z</time></trkpt><trkpt lat="40.511785" lon="16.7070733"><ele>101.57142857142858</ele><time>2026-03-29T12:55:37.455Z</time></trkpt><trkpt lat="40.51172" lon="16.707085"><ele>99.42857142857143</ele><time>2026-03-29T12:55:38.455Z</time></trkpt><trkpt lat="40.5116517" lon="16.7070883"><ele>97.28571428571429</ele><time>2026-03-29T12:55:39.454Z</time></trkpt><trkpt lat="40.5115833" lon="16.70708"><ele>95.14285714285715</ele><time>2026-03-29T12:55:40.454Z</time></trkpt><trkpt lat="40.5115117" lon="16.7070683"><ele>93.0</ele><time>2026-03-29T12:55:41.454Z</time></trkpt><trkpt lat="40.51144" lon="16.7070717"><ele>93.00000000000001</ele><time>2026-03-29T12:55:42.455Z</time></trkpt><trkpt lat="40.5113717" lon="16.7070867"><ele>93.0</ele><time>2026-03-29T12:55:43.455Z</time></trkpt><trkpt lat="40.5113017" lon="16.707115"><ele>93.0</ele><time>2026-03-29T12:55:44.456Z</time></trkpt><trkpt lat="40.5112283" lon="16.7071483"><ele>93.0</ele><time>2026-03-29T12:55:45.454Z</time></trkpt><trkpt lat="40.5111533" lon="16.7071767"><ele>93.0</ele><time>2026-03-29T12:55:46.537Z</time></trkpt><trkpt lat="40.511085" lon="16.7072083"><ele>93.00000000000001</ele><time>2026-03-29T12:55:47.453Z</time></trkpt><trkpt lat="40.5110117" lon="16.7072367"><ele>93.0</ele><time>2026-03-29T12:55:48.456Z</time></trkpt><trkpt lat="40.5109283" lon="16.7072517"><ele>91.16666666666667</ele><time>2026-03-29T12:55:49.455Z</time></trkpt><trkpt lat="40.5108483" lon="16.7072633"><ele>89.33333333333333</ele><time>2026-03-29T12:55:50.455Z</time></trkpt><trkpt lat="40.5107783" lon="16.707285"><ele>87.5</ele><time>2026-03-29T12:55:51.459Z</time></trkpt><trkpt lat="40.510705" lon="16.707315"><ele>85.66666666666666</ele><time>2026-03-29T12:55:52.454Z</time></trkpt><trkpt lat="40.5105767" lon="16.70734"><ele>83.83333333333333</ele><time>2026-03-29T12:55:54.455Z</time></trkpt><trkpt lat="40.51051" lon="16.707355"><ele>82.0</ele><time>2026-03-29T12:55:55.454Z</time></trkpt><trkpt lat="40.5104417" lon="16.70737"><ele>80.28571428571428</ele><time>2026-03-29T12:55:56.455Z</time></trkpt><trkpt lat="40.5103733" lon="16.707385"><ele>78.57142857142857</ele><time>2026-03-29T12:55:57.459Z</time></trkpt><trkpt lat="40.5103067" lon="16.7073917"><ele>76.85714285714286</ele><time>2026-03-29T12:55:58.455Z</time></trkpt><trkpt lat="40.51024" lon="16.7074083"><ele>75.14285714285714</ele><time>2026-03-29T12:55:59.454Z</time></trkpt><trkpt lat="40.5101717" lon="16.707425"><ele>73.42857142857143</ele><time>2026-03-29T12:56:00.455Z</time></trkpt><trkpt lat="40.5101083" lon="16.7074333"><ele>71.71428571428571</ele><time>2026-03-29T12:56:01.454Z</time></trkpt><trkpt lat="40.5100317" lon="16.7074483"><ele>70.0</ele><time>2026-03-29T12:56:02.455Z</time></trkpt><trkpt lat="40.509955" lon="16.7074633"><ele>70.0</ele><time>2026-03-29T12:56:03.454Z</time></trkpt><trkpt lat="40.5098783" lon="16.7074833"><ele>70.0</ele><time>2026-03-29T12:56:04.454Z</time></trkpt><trkpt lat="40.5098017" lon="16.7075033"><ele>70.0</ele><time>2026-03-29T12:56:05.454Z</time></trkpt><trkpt lat="40.509725" lon="16.707525"><ele>70.0</ele><time>2026-03-29T12:56:06.453Z</time></trkpt><trkpt lat="40.5096533" lon="16.7075533"><ele>70.0</ele><time>2026-03-29T12:56:07.454Z</time></trkpt><trkpt lat="40.5095817" lon="16.707585"><ele>70.0</ele><time>2026-03-29T12:56:08.455Z</time></trkpt><trkpt lat="40.5095083" lon="16.707615"><ele>69.83333333333333</ele><time>2026-03-29T12:56:09.455Z</time></trkpt><trkpt lat="40.5094383" lon="16.707645"><ele>69.66666666666666</ele><time>2026-03-29T12:56:10.454Z</time></trkpt><trkpt lat="40.5093683" lon="16.70768"><ele>69.5</ele><time>2026-03-29T12:56:11.455Z</time></trkpt><trkpt lat="40.5092983" lon="16.70772"><ele>69.33333333333333</ele><time>2026-03-29T12:56:12.454Z</time></trkpt><trkpt lat="40.5092233" lon="16.70775"><ele>69.16666666666667</ele><time>2026-03-29T12:56:13.454Z</time></trkpt><trkpt lat="40.509145" lon="16.70777"><ele>69.0</ele><time>2026-03-29T12:56:14.455Z</time></trkpt><trkpt lat="40.5090683" lon="16.707785"><ele>69.0</ele><time>2026-03-29T12:56:15.454Z</time></trkpt><trkpt lat="40.5089933" lon="16.7078"><ele>69.0</ele><time>2026-03-29T12:56:16.455Z</time></trkpt><trkpt lat="40.508925" lon="16.707805"><ele>69.0</ele><time>2026-03-29T12:56:17.454Z</time></trkpt><trkpt lat="40.5088617" lon="16.707805"><ele>69.0</ele><time>2026-03-29T12:56:18.455Z</time></trkpt><trkpt lat="40.508755" lon="16.707805"><ele>69.0</ele><time>2026-03-29T12:56:20.455Z</time></trkpt><trkpt lat="40.50866" lon="16.70782"><ele>69.0</ele><time>2026-03-29T12:56:22.456Z</time></trkpt><trkpt lat="40.5085667" lon="16.7078583"><ele>68.16666666666667</ele><time>2026-03-29T12:56:24.456Z</time></trkpt><trkpt lat="40.5084867" lon="16.7079117"><ele>67.33333333333333</ele><time>2026-03-29T12:56:26.455Z</time></trkpt><trkpt lat="40.5084167" lon="16.7079767"><ele>66.5</ele><time>2026-03-29T12:56:28.454Z</time></trkpt><trkpt lat="40.508355" lon="16.70803"><ele>65.66666666666666</ele><time>2026-03-29T12:56:30.455Z</time></trkpt><trkpt lat="40.5082917" lon="16.7080883"><ele>64.83333333333333</ele><time>2026-03-29T12:56:32.455Z</time></trkpt><trkpt lat="40.5082233" lon="16.708135"><ele>64.0</ele><time>2026-03-29T12:56:34.454Z</time></trkpt><trkpt lat="40.508145" lon="16.7081833"><ele>63.99999999999999</ele><time>2026-03-29T12:56:36.454Z</time></trkpt><trkpt lat="40.5080617" lon="16.70817"><ele>64.0</ele><time>2026-03-29T12:56:39.454Z</time></trkpt><trkpt lat="40.5079683" lon="16.7081583"><ele>64.0</ele><time>2026-03-29T12:56:42.455Z</time></trkpt><trkpt lat="40.5078833" lon="16.708155"><ele>64.0</ele><time>2026-03-29T12:56:45.454Z</time></trkpt><trkpt lat="40.5078083" lon="16.7081483"><ele>63.99999999999999</ele><time>2026-03-29T12:56:54.454Z</time></trkpt><trkpt lat="40.5077333" lon="16.708185"><ele>64.0</ele><time>2026-03-29T12:57:00.454Z</time></trkpt><trkpt lat="40.5076467" lon="16.7082283"><ele>63.83333333333333</ele><time>2026-03-29T12:57:03.455Z</time></trkpt><trkpt lat="40.507585" lon="16.7082733"><ele>63.666666666666664</ele><time>2026-03-29T12:57:05.455Z</time></trkpt><trkpt lat="40.5075067" lon="16.70834"><ele>63.5</ele><time>2026-03-29T12:57:07.454Z</time></trkpt><trkpt lat="40.5074217" lon="16.7083933"><ele>63.33333333333333</ele><time>2026-03-29T12:57:09.455Z</time></trkpt><trkpt lat="40.5073433" lon="16.7084333"><ele>63.166666666666664</ele><time>2026-03-29T12:57:11.455Z</time></trkpt><trkpt lat="40.50727" lon="16.7084717"><ele>63.0</ele><time>2026-03-29T12:57:13.454Z</time></trkpt><trkpt lat="40.507205" lon="16.7085067"><ele>63.0</ele><time>2026-03-29T12:57:15.454Z</time></trkpt><trkpt lat="40.5071667" lon="16.708575"><ele>63.0</ele><time>2026-03-29T12:57:25.455Z</time></trkpt><trkpt lat="40.5070983" lon="16.708635"><ele>63.0</ele><time>2026-03-29T12:57:27.455Z</time></trkpt><trkpt lat="40.5070283" lon="16.708725"><ele>63.0</ele><time>2026-03-29T12:57:29.455Z</time></trkpt><trkpt lat="40.5069683" lon="16.7088017"><ele>63.0</ele><time>2026-03-29T12:57:31.455Z</time></trkpt><trkpt lat="40.5068983" lon="16.708875"><ele>63.0</ele><time>2026-03-29T12:57:33.454Z</time></trkpt><trkpt lat="40.5068483" lon="16.708945"><ele>62.42857142857143</ele><time>2026-03-29T12:57:35.455Z</time></trkpt><trkpt lat="40.5067817" lon="16.7089783"><ele>61.85714285714286</ele><time>2026-03-29T12:57:38.456Z</time></trkpt><trkpt lat="40.5067033" lon="16.7089817"><ele>61.285714285714285</ele><time>2026-03-29T12:57:47.454Z</time></trkpt><trkpt lat="40.50662" lon="16.7089717"><ele>60.714285714285715</ele><time>2026-03-29T12:57:50.455Z</time></trkpt><trkpt lat="40.5065467" lon="16.7089817"><ele>60.142857142857146</ele><time>2026-03-29T12:57:52.454Z</time></trkpt><trkpt lat="40.5064817" lon="16.7090117"><ele>59.57142857142857</ele><time>2026-03-29T12:57:54.455Z</time></trkpt><trkpt lat="40.5064183" lon="16.7090467"><ele>59.0</ele><time>2026-03-29T12:57:56.456Z</time></trkpt><trkpt lat="40.506355" lon="16.709085"><ele>59.0</ele><time>2026-03-29T12:57:58.455Z</time></trkpt><trkpt lat="40.5062967" lon="16.7091217"><ele>59.0</ele><time>2026-03-29T12:58:00.455Z</time></trkpt><trkpt lat="40.506235" lon="16.7091633"><ele>59.0</ele><time>2026-03-29T12:58:02.456Z</time></trkpt><trkpt lat="40.50617" lon="16.7091933"><ele>59.0</ele><time>2026-03-29T12:58:05.454Z</time></trkpt><trkpt lat="40.5060883" lon="16.7092367"><ele>59.0</ele><time>2026-03-29T12:58:08.456Z</time></trkpt><trkpt lat="40.5060183" lon="16.7092717"><ele>59.0</ele><time>2026-03-29T12:58:10.458Z</time></trkpt><trkpt lat="40.5059517" lon="16.7093"><ele>59.0</ele><time>2026-03-29T12:58:12.454Z</time></trkpt><trkpt lat="40.5058717" lon="16.7093467"><ele>59.333333333333336</ele><time>2026-03-29T12:58:15.456Z</time></trkpt><trkpt lat="40.5058083" lon="16.709385"><ele>59.66666666666667</ele><time>2026-03-29T12:58:17.455Z</time></trkpt><trkpt lat="40.5057317" lon="16.709425"><ele>60.0</ele><time>2026-03-29T12:58:19.456Z</time></trkpt><trkpt lat="40.5056633" lon="16.7094633"><ele>60.33333333333333</ele><time>2026-03-29T12:58:21.455Z</time></trkpt><trkpt lat="40.5055917" lon="16.7094917"><ele>60.666666666666664</ele><time>2026-03-29T12:58:23.455Z</time></trkpt><trkpt lat="40.5055067" lon="16.709515"><ele>61.0</ele><time>2026-03-29T12:58:25.454Z</time></trkpt><trkpt lat="40.5054383" lon="16.7095217"><ele>60.99999999999999</ele><time>2026-03-29T12:58:27.454Z</time></trkpt><trkpt lat="40.5053683" lon="16.7095333"><ele>61.0</ele><time>2026-03-29T12:58:29.455Z</time></trkpt><trkpt lat="40.50529" lon="16.7095417"><ele>61.0</ele><time>2026-03-29T12:58:31.456Z</time></trkpt><trkpt lat="40.5052183" lon="16.709535"><ele>61.0</ele><time>2026-03-29T12:58:33.455Z</time></trkpt><trkpt lat="40.5051433" lon="16.70952"><ele>60.99999999999999</ele><time>2026-03-29T12:58:35.455Z</time></trkpt><trkpt lat="40.5050633" lon="16.709515"><ele>61.0</ele><time>2026-03-29T12:58:37.455Z</time></trkpt><trkpt lat="40.504985" lon="16.7095167"><ele>60.99999999999999</ele><time>2026-03-29T12:58:39.455Z</time></trkpt><trkpt lat="40.5049067" lon="16.7095217"><ele>61.0</ele><time>2026-03-29T12:58:41.454Z</time></trkpt><trkpt lat="40.50484" lon="16.7095283"><ele>61.0</ele><time>2026-03-29T12:58:43.458Z</time></trkpt><trkpt lat="40.504765" lon="16.7095467"><ele>61.0</ele><time>2026-03-29T12:58:45.454Z</time></trkpt><trkpt lat="40.5047" lon="16.709565"><ele>60.99999999999999</ele><time>2026-03-29T12:58:47.455Z</time></trkpt><trkpt lat="40.5046217" lon="16.70958"><ele>61.0</ele><time>2026-03-29T12:58:49.455Z</time></trkpt><trkpt lat="40.5045367" lon="16.70959"><ele>60.99999999999999</ele><time>2026-03-29T12:58:51.454Z</time></trkpt><trkpt lat="40.5044483" lon="16.7095933"><ele>61.0</ele><time>2026-03-29T12:58:53.455Z</time></trkpt><trkpt lat="40.504365" lon="16.70959"><ele>61.0</ele><time>2026-03-29T12:58:55.456Z</time></trkpt><trkpt lat="40.504285" lon="16.7095817"><ele>61.0</ele><time>2026-03-29T12:58:57.455Z</time></trkpt><trkpt lat="40.5042033" lon="16.7095683"><ele>60.99999999999999</ele><time>2026-03-29T12:58:59.455Z</time></trkpt><trkpt lat="40.5041183" lon="16.70955"><ele>61.0</ele><time>2026-03-29T12:59:01.455Z</time></trkpt><trkpt lat="40.50404" lon="16.709535"><ele>60.99999999999999</ele><time>2026-03-29T12:59:03.455Z</time></trkpt><trkpt lat="40.5039567" lon="16.70952"><ele>61.0</ele><time>2026-03-29T12:59:05.454Z</time></trkpt><trkpt lat="40.5038767" lon="16.70951"><ele>61.0</ele><time>2026-03-29T12:59:07.454Z</time></trkpt><trkpt lat="40.5037933" lon="16.7095017"><ele>61.0</ele><time>2026-03-29T12:59:09.456Z</time></trkpt><trkpt lat="40.5037083" lon="16.7095"><ele>60.99999999999999</ele><time>2026-03-29T12:59:11.455Z</time></trkpt><trkpt lat="40.503635" lon="16.709505"><ele>61.0</ele><time>2026-03-29T12:59:13.456Z</time></trkpt><trkpt lat="40.50357" lon="16.7095117"><ele>60.14285714285713</ele><time>2026-03-29T12:59:15.455Z</time></trkpt><trkpt lat="40.5035033" lon="16.70952"><ele>59.285714285714285</ele><time>2026-03-29T12:59:17.455Z</time></trkpt><trkpt lat="40.5034233" lon="16.7095217"><ele>58.42857142857142</ele><time>2026-03-29T12:59:19.456Z</time></trkpt><trkpt lat="40.5033517" lon="16.7095283"><ele>57.57142857142857</ele><time>2026-03-29T12:59:21.454Z</time></trkpt><trkpt lat="40.503265" lon="16.70954"><ele>56.71428571428571</ele><time>2026-03-29T12:59:23.454Z</time></trkpt><trkpt lat="40.50319" lon="16.7095433"><ele>55.857142857142854</ele><time>2026-03-29T12:59:25.453Z</time></trkpt><trkpt lat="40.503125" lon="16.7095333"><ele>55.0</ele><time>2026-03-29T12:59:28.454Z</time></trkpt><trkpt lat="40.5030417" lon="16.7095517"><ele>54.99999999999999</ele><time>2026-03-29T12:59:31.455Z</time></trkpt><trkpt lat="40.50296" lon="16.709605"><ele>55.0</ele><time>2026-03-29T13:00:07.455Z</time></trkpt><trkpt lat="40.50289" lon="16.7096233"><ele>55.0</ele><time>2026-03-29T13:00:09.455Z</time></trkpt><trkpt lat="40.5028067" lon="16.70964"><ele>55.0</ele><time>2026-03-29T13:00:11.455Z</time></trkpt><trkpt lat="40.5027117" lon="16.7096733"><ele>54.99999999999999</ele><time>2026-03-29T13:00:13.454Z</time></trkpt><trkpt lat="40.5026383" lon="16.70967"><ele>55.0</ele><time>2026-03-29T13:00:15.455Z</time></trkpt><trkpt lat="40.502545" lon="16.709645"><ele>53.99999999999999</ele><time>2026-03-29T13:00:18.457Z</time></trkpt><trkpt lat="40.5024767" lon="16.7096383"><ele>53.0</ele><time>2026-03-29T13:00:20.455Z</time></trkpt><trkpt lat="40.5024017" lon="16.7096467"><ele>52.0</ele><time>2026-03-29T13:00:23.456Z</time></trkpt><trkpt lat="40.502325" lon="16.7096517"><ele>51.0</ele><time>2026-03-29T13:00:25.454Z</time></trkpt><trkpt lat="40.50224" lon="16.70967"><ele>49.99999999999999</ele><time>2026-03-29T13:00:27.454Z</time></trkpt><trkpt lat="40.50216" lon="16.709695"><ele>49.0</ele><time>2026-03-29T13:00:29.457Z</time></trkpt><trkpt lat="40.5020783" lon="16.7097233"><ele>48.666666666666664</ele><time>2026-03-29T13:00:31.456Z</time></trkpt><trkpt lat="40.502" lon="16.7097433"><ele>48.33333333333333</ele><time>2026-03-29T13:00:33.456Z</time></trkpt><trkpt lat="40.5019233" lon="16.7097567"><ele>48.0</ele><time>2026-03-29T13:00:35.457Z</time></trkpt><trkpt lat="40.5018583" lon="16.7097617"><ele>47.666666666666664</ele><time>2026-03-29T13:00:37.456Z</time></trkpt><trkpt lat="40.5017767" lon="16.7097617"><ele>47.33333333333333</ele><time>2026-03-29T13:00:40.456Z</time></trkpt><trkpt lat="40.5016833" lon="16.7097417"><ele>47.0</ele><time>2026-03-29T13:00:43.456Z</time></trkpt><trkpt lat="40.501615" lon="16.709725"><ele>47.0</ele><time>2026-03-29T13:00:45.454Z</time></trkpt><trkpt lat="40.5015383" lon="16.709715"><ele>47.0</ele><time>2026-03-29T13:00:47.454Z</time></trkpt><trkpt lat="40.5014517" lon="16.70972"><ele>47.0</ele><time>2026-03-29T13:00:49.455Z</time></trkpt><trkpt lat="40.5013767" lon="16.709725"><ele>47.0</ele><time>2026-03-29T13:00:51.455Z</time></trkpt><trkpt lat="40.5012867" lon="16.7097483"><ele>47.0</ele><time>2026-03-29T13:00:54.455Z</time></trkpt><trkpt lat="40.5012117" lon="16.70977"><ele>47.0</ele><time>2026-03-29T13:00:57.455Z</time></trkpt><trkpt lat="40.50115" lon="16.7097867"><ele>46.33333333333333</ele><time>2026-03-29T13:00:59.456Z</time></trkpt><trkpt lat="40.5010733" lon="16.7098083"><ele>45.666666666666664</ele><time>2026-03-29T13:01:01.456Z</time></trkpt><trkpt lat="40.5009867" lon="16.7098283"><ele>45.0</ele><time>2026-03-29T13:01:03.455Z</time></trkpt><trkpt lat="40.5008983" lon="16.7098433"><ele>44.333333333333336</ele><time>2026-03-29T13:01:05.456Z</time></trkpt><trkpt lat="40.5008033" lon="16.7098633"><ele>43.66666666666667</ele><time>2026-03-29T13:01:07.455Z</time></trkpt><trkpt lat="40.5007217" lon="16.7098683"><ele>43.0</ele><time>2026-03-29T13:01:09.455Z</time></trkpt><trkpt lat="40.500655" lon="16.70988"><ele>43.0</ele><time>2026-03-29T13:01:14.455Z</time></trkpt><trkpt lat="40.500595" lon="16.7099067"><ele>43.0</ele><time>2026-03-29T13:01:16.455Z</time></trkpt><trkpt lat="40.500505" lon="16.70994"><ele>43.0</ele><time>2026-03-29T13:01:18.454Z</time></trkpt><trkpt lat="40.5004133" lon="16.7099733"><ele>43.0</ele><time>2026-03-29T13:01:20.456Z</time></trkpt><trkpt lat="40.5003283" lon="16.710015"><ele>43.0</ele><time>2026-03-29T13:01:22.455Z</time></trkpt><trkpt lat="40.5002517" lon="16.7100417"><ele>43.0</ele><time>2026-03-29T13:01:24.453Z</time></trkpt><trkpt lat="40.5001717" lon="16.7100467"><ele>42.8</ele><time>2026-03-29T13:01:26.454Z</time></trkpt><trkpt lat="40.5000633" lon="16.7100467"><ele>42.599999999999994</ele><time>2026-03-29T13:01:28.453Z</time></trkpt><trkpt lat="40.49994" lon="16.7100383"><ele>42.400000000000006</ele><time>2026-03-29T13:01:30.454Z</time></trkpt><trkpt lat="40.4998267" lon="16.710025"><ele>42.2</ele><time>2026-03-29T13:01:32.456Z</time></trkpt><trkpt lat="40.4997567" lon="16.710015"><ele>42.0</ele><time>2026-03-29T13:01:34.454Z</time></trkpt><trkpt lat="40.4996667" lon="16.7099967"><ele>42.0</ele><time>2026-03-29T13:01:37.454Z</time></trkpt><trkpt lat="40.4995867" lon="16.71"><ele>42.0</ele><time>2026-03-29T13:01:39.454Z</time></trkpt><trkpt lat="40.499515" lon="16.7100283"><ele>42.0</ele><time>2026-03-29T13:01:42.454Z</time></trkpt><trkpt lat="40.4994533" lon="16.710065"><ele>42.0</ele><time>2026-03-29T13:01:44.453Z</time></trkpt><trkpt lat="40.499375" lon="16.7101017"><ele>42.0</ele><time>2026-03-29T13:01:46.453Z</time></trkpt><trkpt lat="40.4993067" lon="16.71011"><ele>42.0</ele><time>2026-03-29T13:01:48.453Z</time></trkpt><trkpt lat="40.4992233" lon="16.7101217"><ele>41.666666666666664</ele><time>2026-03-29T13:03:02.455Z</time></trkpt><trkpt lat="40.49916" lon="16.7101483"><ele>41.333333333333336</ele><time>2026-03-29T13:03:05.453Z</time></trkpt><trkpt lat="40.4991017" lon="16.7102483"><ele>41.0</ele><time>2026-03-29T13:03:17.454Z</time></trkpt><trkpt lat="40.4990517" lon="16.7103383"><ele>40.66666666666667</ele><time>2026-03-29T13:03:19.455Z</time></trkpt><trkpt lat="40.49899" lon="16.710405"><ele>40.333333333333336</ele><time>2026-03-29T13:03:21.454Z</time></trkpt><trkpt lat="40.49893" lon="16.710465"><ele>40.0</ele><time>2026-03-29T13:03:23.454Z</time></trkpt><trkpt lat="40.4988733" lon="16.7105183"><ele>40.0</ele><time>2026-03-29T13:03:25.454Z</time></trkpt><trkpt lat="40.498805" lon="16.71058"><ele>40.0</ele><time>2026-03-29T13:03:27.453Z</time></trkpt><trkpt lat="40.4987333" lon="16.7106433"><ele>40.0</ele><time>2026-03-29T13:03:29.454Z</time></trkpt><trkpt lat="40.498655" lon="16.7107367"><ele>40.0</ele><time>2026-03-29T13:03:31.455Z</time></trkpt><trkpt lat="40.4985733" lon="16.7108567"><ele>40.0</ele><time>2026-03-29T13:03:33.454Z</time></trkpt><trkpt lat="40.4985067" lon="16.7109133"><ele>39.833333333333336</ele><time>2026-03-29T13:03:35.454Z</time></trkpt><trkpt lat="40.4984517" lon="16.7108617"><ele>39.66666666666667</ele><time>2026-03-29T13:03:39.455Z</time></trkpt><trkpt lat="40.498505" lon="16.7107633"><ele>39.5</ele><time>2026-03-29T13:03:41.455Z</time></trkpt><trkpt lat="40.4985483" lon="16.7106767"><ele>39.333333333333336</ele><time>2026-03-29T13:03:42.454Z</time></trkpt><trkpt lat="40.4985917" lon="16.710575"><ele>39.166666666666664</ele><time>2026-03-29T13:03:43.455Z</time></trkpt><trkpt lat="40.4986333" lon="16.710465"><ele>39.0</ele><time>2026-03-29T13:03:44.455Z</time></trkpt><trkpt lat="40.4986767" lon="16.7103567"><ele>39.0</ele><time>2026-03-29T13:03:45.453Z</time></trkpt><trkpt lat="40.4987183" lon="16.71025"><ele>39.0</ele><time>2026-03-29T13:03:46.453Z</time></trkpt><trkpt lat="40.49876" lon="16.7101433"><ele>39.0</ele><time>2026-03-29T13:03:47.454Z</time></trkpt><trkpt lat="40.4988" lon="16.7100367"><ele>39.0</ele><time>2026-03-29T13:03:48.455Z</time></trkpt><trkpt lat="40.498835" lon="16.7099233"><ele>39.0</ele><time>2026-03-29T13:03:49.454Z</time></trkpt><trkpt lat="40.49887" lon="16.70981"><ele>39.0</ele><time>2026-03-29T13:03:50.454Z</time></trkpt><trkpt lat="40.4989083" lon="16.7096983"><ele>39.0</ele><time>2026-03-29T13:03:51.454Z</time></trkpt><trkpt lat="40.4989517" lon="16.7095867"><ele>39.0</ele><time>2026-03-29T13:03:52.455Z</time></trkpt><trkpt lat="40.499" lon="16.7094733"><ele>39.0</ele><time>2026-03-29T13:03:53.454Z</time></trkpt><trkpt lat="40.4990517" lon="16.709365"><ele>39.0</ele><time>2026-03-29T13:03:54.455Z</time></trkpt><trkpt lat="40.4991083" lon="16.7092633"><ele>39.4</ele><time>2026-03-29T13:03:55.455Z</time></trkpt><trkpt lat="40.49917" lon="16.7091683"><ele>39.8</ele><time>2026-03-29T13:03:56.455Z</time></trkpt><trkpt lat="40.499235" lon="16.7090767"><ele>40.199999999999996</ele><time>2026-03-29T13:03:57.456Z</time></trkpt><trkpt lat="40.4993" lon="16.70898"><ele>40.599999999999994</ele><time>2026-03-29T13:03:58.454Z</time></trkpt><trkpt lat="40.499365" lon="16.70888"><ele>41.0</ele><time>2026-03-29T13:03:59.454Z</time></trkpt><trkpt lat="40.499425" lon="16.708775"><ele>41.0</ele><time>2026-03-29T13:04:00.454Z</time></trkpt><trkpt lat="40.49948" lon="16.708665"><ele>41.0</ele><time>2026-03-29T13:04:01.455Z</time></trkpt><trkpt lat="40.4995317" lon="16.7085517"><ele>41.0</ele><time>2026-03-29T13:04:02.455Z</time></trkpt><trkpt lat="40.4995767" lon="16.708435"><ele>41.0</ele><time>2026-03-29T13:04:03.454Z</time></trkpt><trkpt lat="40.49962" lon="16.708315"><ele>41.0</ele><time>2026-03-29T13:04:04.454Z</time></trkpt><trkpt lat="40.4996617" lon="16.7081933"><ele>41.0</ele><time>2026-03-29T13:04:05.454Z</time></trkpt><trkpt lat="40.4997" lon="16.7080683"><ele>41.0</ele><time>2026-03-29T13:04:06.454Z</time></trkpt><trkpt lat="40.499735" lon="16.7079417"><ele>41.0</ele><time>2026-03-29T13:04:07.454Z</time></trkpt><trkpt lat="40.49977" lon="16.707815"><ele>41.0</ele><time>2026-03-29T13:04:08.456Z</time></trkpt><trkpt lat="40.4998033" lon="16.70769"><ele>41.0</ele><time>2026-03-29T13:04:09.454Z</time></trkpt><trkpt lat="40.4998317" lon="16.7075767"><ele>40.666666666666664</ele><time>2026-03-29T13:04:10.456Z</time></trkpt><trkpt lat="40.4998567" lon="16.7074717"><ele>40.33333333333333</ele><time>2026-03-29T13:04:11.455Z</time></trkpt><trkpt lat="40.49988" lon="16.7073717"><ele>40.0</ele><time>2026-03-29T13:04:12.455Z</time></trkpt><trkpt lat="40.4999067" lon="16.70727"><ele>39.666666666666664</ele><time>2026-03-29T13:04:13.454Z</time></trkpt><trkpt lat="40.499935" lon="16.7071717"><ele>39.333333333333336</ele><time>2026-03-29T13:04:14.454Z</time></trkpt><trkpt lat="40.499965" lon="16.7070683"><ele>39.0</ele><time>2026-03-29T13:04:15.454Z</time></trkpt><trkpt lat="40.4999983" lon="16.7069583"><ele>39.4</ele><time>2026-03-29T13:04:16.454Z</time></trkpt><trkpt lat="40.5000333" lon="16.7068433"><ele>39.8</ele><time>2026-03-29T13:04:17.454Z</time></trkpt><trkpt lat="40.5000667" lon="16.706725"><ele>40.199999999999996</ele><time>2026-03-29T13:04:18.454Z</time></trkpt><trkpt lat="40.5001017" lon="16.7066017"><ele>40.599999999999994</ele><time>2026-03-29T13:04:19.455Z</time></trkpt><trkpt lat="40.500135" lon="16.706475"><ele>41.0</ele><time>2026-03-29T13:04:20.456Z</time></trkpt><trkpt lat="40.5001617" lon="16.7063433"><ele>41.0</ele><time>2026-03-29T13:04:21.455Z</time></trkpt><trkpt lat="40.5001917" lon="16.7062133"><ele>41.0</ele><time>2026-03-29T13:04:22.454Z</time></trkpt><trkpt lat="40.5002267" lon="16.7060833"><ele>41.0</ele><time>2026-03-29T13:04:23.455Z</time></trkpt><trkpt lat="40.500265" lon="16.705955"><ele>41.0</ele><time>2026-03-29T13:04:24.455Z</time></trkpt><trkpt lat="40.5003017" lon="16.7058233"><ele>41.0</ele><time>2026-03-29T13:04:25.453Z</time></trkpt><trkpt lat="40.5003383" lon="16.7056933"><ele>40.599999999999994</ele><time>2026-03-29T13:04:26.454Z</time></trkpt><trkpt lat="40.500375" lon="16.7055633"><ele>40.199999999999996</ele><time>2026-03-29T13:04:27.453Z</time></trkpt><trkpt lat="40.50041" lon="16.7054317"><ele>39.8</ele><time>2026-03-29T13:04:28.455Z</time></trkpt><trkpt lat="40.5004483" lon="16.7053017"><ele>39.4</ele><time>2026-03-29T13:04:29.456Z</time></trkpt><trkpt lat="40.5004833" lon="16.7051717"><ele>39.0</ele><time>2026-03-29T13:04:30.454Z</time></trkpt><trkpt lat="40.5005217" lon="16.7050433"><ele>40.0</ele><time>2026-03-29T13:04:31.455Z</time></trkpt><trkpt lat="40.5005567" lon="16.7049117"><ele>41.0</ele><time>2026-03-29T13:04:32.455Z</time></trkpt><trkpt lat="40.5005933" lon="16.7047817"><ele>42.0</ele><time>2026-03-29T13:04:33.454Z</time></trkpt><trkpt lat="40.50063" lon="16.7046533"><ele>43.0</ele><time>2026-03-29T13:04:34.455Z</time></trkpt><trkpt lat="40.5006667" lon="16.7045233"><ele>44.0</ele><time>2026-03-29T13:04:35.455Z</time></trkpt><trkpt lat="40.5007017" lon="16.7043933"><ele>44.0</ele><time>2026-03-29T13:04:36.455Z</time></trkpt><trkpt lat="40.500735" lon="16.704265"><ele>44.0</ele><time>2026-03-29T13:04:37.454Z</time></trkpt><trkpt lat="40.50077" lon="16.7041367"><ele>44.0</ele><time>2026-03-29T13:04:38.454Z</time></trkpt><trkpt lat="40.5008017" lon="16.7040117"><ele>44.0</ele><time>2026-03-29T13:04:39.456Z</time></trkpt><trkpt lat="40.5008367" lon="16.7038917"><ele>44.0</ele><time>2026-03-29T13:04:40.455Z</time></trkpt><trkpt lat="40.5008717" lon="16.7037733"><ele>44.0</ele><time>2026-03-29T13:04:41.454Z</time></trkpt><trkpt lat="40.5009033" lon="16.7036483"><ele>44.0</ele><time>2026-03-29T13:04:42.454Z</time></trkpt><trkpt lat="40.5009333" lon="16.7035133"><ele>44.0</ele><time>2026-03-29T13:04:43.454Z</time></trkpt><trkpt lat="40.5009617" lon="16.7033783"><ele>44.0</ele><time>2026-03-29T13:04:44.455Z</time></trkpt><trkpt lat="40.5009933" lon="16.7032433"><ele>44.0</ele><time>2026-03-29T13:04:45.454Z</time></trkpt><trkpt lat="40.5010233" lon="16.7031083"><ele>43.400000000000006</ele><time>2026-03-29T13:04:46.454Z</time></trkpt><trkpt lat="40.5010517" lon="16.7029717"><ele>42.8</ele><time>2026-03-29T13:04:47.455Z</time></trkpt><trkpt lat="40.5010817" lon="16.7028367"><ele>42.2</ele><time>2026-03-29T13:04:48.454Z</time></trkpt><trkpt lat="40.5011117" lon="16.702705"><ele>41.599999999999994</ele><time>2026-03-29T13:04:49.454Z</time></trkpt><trkpt lat="40.5011417" lon="16.7025717"><ele>41.0</ele><time>2026-03-29T13:04:50.455Z</time></trkpt><trkpt lat="40.501175" lon="16.70243"><ele>40.75</ele><time>2026-03-29T13:04:51.455Z</time></trkpt><trkpt lat="40.5012083" lon="16.7022867"><ele>40.5</ele><time>2026-03-29T13:04:52.454Z</time></trkpt><trkpt lat="40.5012433" lon="16.7021433"><ele>40.25</ele><time>2026-03-29T13:04:53.455Z</time></trkpt><trkpt lat="40.50128" lon="16.701995"><ele>40.0</ele><time>2026-03-29T13:04:54.455Z</time></trkpt><trkpt lat="40.5013183" lon="16.7018467"><ele>41.0</ele><time>2026-03-29T13:04:55.454Z</time></trkpt><trkpt lat="40.501355" lon="16.7016967"><ele>42.0</ele><time>2026-03-29T13:04:56.455Z</time></trkpt><trkpt lat="40.5013933" lon="16.7015417"><ele>43.0</ele><time>2026-03-29T13:04:57.454Z</time></trkpt><trkpt lat="40.5014283" lon="16.70139"><ele>44.0</ele><time>2026-03-29T13:04:58.454Z</time></trkpt><trkpt lat="40.5014667" lon="16.7012417"><ele>43.666666666666664</ele><time>2026-03-29T13:04:59.454Z</time></trkpt><trkpt lat="40.5015417" lon="16.7009417"><ele>43.333333333333336</ele><time>2026-03-29T13:05:01.454Z</time></trkpt><trkpt lat="40.50158" lon="16.7007917"><ele>43.0</ele><time>2026-03-29T13:05:02.455Z</time></trkpt><trkpt lat="40.5016133" lon="16.7006383"><ele>43.0</ele><time>2026-03-29T13:05:03.454Z</time></trkpt><trkpt lat="40.50164" lon="16.7004783"><ele>43.0</ele><time>2026-03-29T13:05:04.457Z</time></trkpt><trkpt lat="40.5016567" lon="16.700315"><ele>43.0</ele><time>2026-03-29T13:05:05.455Z</time></trkpt><trkpt lat="40.5016617" lon="16.7001483"><ele>43.0</ele><time>2026-03-29T13:05:06.454Z</time></trkpt><trkpt lat="40.5016533" lon="16.69998"><ele>42.75</ele><time>2026-03-29T13:05:07.455Z</time></trkpt><trkpt lat="40.5016367" lon="16.6998133"><ele>42.5</ele><time>2026-03-29T13:05:08.456Z</time></trkpt><trkpt lat="40.5016217" lon="16.699645"><ele>42.25</ele><time>2026-03-29T13:05:09.454Z</time></trkpt><trkpt lat="40.501605" lon="16.6994833"><ele>42.0</ele><time>2026-03-29T13:05:10.455Z</time></trkpt><trkpt lat="40.5015867" lon="16.69932"><ele>41.75</ele><time>2026-03-29T13:05:11.454Z</time></trkpt><trkpt lat="40.5015683" lon="16.6991567"><ele>41.5</ele><time>2026-03-29T13:05:12.454Z</time></trkpt><trkpt lat="40.5015483" lon="16.6989933"><ele>41.25</ele><time>2026-03-29T13:05:13.454Z</time></trkpt><trkpt lat="40.50153" lon="16.6988283"><ele>41.0</ele><time>2026-03-29T13:05:14.454Z</time></trkpt><trkpt lat="40.5015133" lon="16.6986633"><ele>40.0</ele><time>2026-03-29T13:05:15.455Z</time></trkpt><trkpt lat="40.5014967" lon="16.6984933"><ele>39.0</ele><time>2026-03-29T13:05:16.455Z</time></trkpt><trkpt lat="40.50148" lon="16.6983217"><ele>38.0</ele><time>2026-03-29T13:05:17.454Z</time></trkpt><trkpt lat="40.5014617" lon="16.6981467"><ele>37.0</ele><time>2026-03-29T13:05:18.455Z</time></trkpt><trkpt lat="40.5014433" lon="16.697975"><ele>37.0</ele><time>2026-03-29T13:05:19.454Z</time></trkpt><trkpt lat="40.501425" lon="16.6978067"><ele>37.0</ele><time>2026-03-29T13:05:20.454Z</time></trkpt><trkpt lat="40.5014083" lon="16.6976417"><ele>37.0</ele><time>2026-03-29T13:05:21.454Z</time></trkpt><trkpt lat="40.5013917" lon="16.6974783"><ele>37.0</ele><time>2026-03-29T13:05:22.454Z</time></trkpt><trkpt lat="40.5013767" lon="16.6973167"><ele>37.5</ele><time>2026-03-29T13:05:23.454Z</time></trkpt><trkpt lat="40.50136" lon="16.69715"><ele>38.0</ele><time>2026-03-29T13:05:24.454Z</time></trkpt><trkpt lat="40.5013417" lon="16.6969817"><ele>38.5</ele><time>2026-03-29T13:05:25.453Z</time></trkpt><trkpt lat="40.5013233" lon="16.69681"><ele>39.0</ele><time>2026-03-29T13:05:26.455Z</time></trkpt><trkpt lat="40.5013067" lon="16.6966367"><ele>39.5</ele><time>2026-03-29T13:05:27.453Z</time></trkpt><trkpt lat="40.50129" lon="16.6964617"><ele>40.0</ele><time>2026-03-29T13:05:28.454Z</time></trkpt><trkpt lat="40.5012717" lon="16.6962867"><ele>40.5</ele><time>2026-03-29T13:05:29.454Z</time></trkpt><trkpt lat="40.5012533" lon="16.6961133"><ele>41.0</ele><time>2026-03-29T13:05:30.457Z</time></trkpt><trkpt lat="40.5012317" lon="16.6959383"><ele>41.0</ele><time>2026-03-29T13:05:31.455Z</time></trkpt><trkpt lat="40.5012067" lon="16.695765"><ele>41.0</ele><time>2026-03-29T13:05:32.455Z</time></trkpt><trkpt lat="40.5011817" lon="16.6955933"><ele>41.0</ele><time>2026-03-29T13:05:33.454Z</time></trkpt><trkpt lat="40.5011583" lon="16.6954183"><ele>41.0</ele><time>2026-03-29T13:05:34.454Z</time></trkpt><trkpt lat="40.50113" lon="16.6952433"><ele>41.0</ele><time>2026-03-29T13:05:35.459Z</time></trkpt><trkpt lat="40.5010917" lon="16.695065"><ele>41.0</ele><time>2026-03-29T13:05:36.456Z</time></trkpt><trkpt lat="40.5010433" lon="16.694885"><ele>41.0</ele><time>2026-03-29T13:05:37.455Z</time></trkpt><trkpt lat="40.5009917" lon="16.6947067"><ele>41.0</ele><time>2026-03-29T13:05:38.455Z</time></trkpt><trkpt lat="40.5009333" lon="16.6945283"><ele>41.25</ele><time>2026-03-29T13:05:39.454Z</time></trkpt><trkpt lat="40.5008717" lon="16.6943533"><ele>41.5</ele><time>2026-03-29T13:05:40.455Z</time></trkpt><trkpt lat="40.50081" lon="16.6941783"><ele>41.75</ele><time>2026-03-29T13:05:41.454Z</time></trkpt><trkpt lat="40.5007483" lon="16.6940017"><ele>42.0</ele><time>2026-03-29T13:05:42.455Z</time></trkpt><trkpt lat="40.5006883" lon="16.6938217"><ele>42.0</ele><time>2026-03-29T13:05:43.454Z</time></trkpt><trkpt lat="40.5006267" lon="16.6936417"><ele>42.0</ele><time>2026-03-29T13:05:44.456Z</time></trkpt><trkpt lat="40.5005667" lon="16.6934617"><ele>42.0</ele><time>2026-03-29T13:05:45.453Z</time></trkpt><trkpt lat="40.5005033" lon="16.69328"><ele>42.333333333333336</ele><time>2026-03-29T13:05:46.454Z</time></trkpt><trkpt lat="40.5004417" lon="16.6930967"><ele>42.66666666666667</ele><time>2026-03-29T13:05:47.453Z</time></trkpt><trkpt lat="40.5003767" lon="16.6929117"><ele>43.0</ele><time>2026-03-29T13:05:48.454Z</time></trkpt><trkpt lat="40.500315" lon="16.6927267"><ele>42.0</ele><time>2026-03-29T13:05:49.454Z</time></trkpt><trkpt lat="40.5002583" lon="16.6925417"><ele>41.0</ele><time>2026-03-29T13:05:50.454Z</time></trkpt><trkpt lat="40.50021" lon="16.6923533"><ele>40.0</ele><time>2026-03-29T13:05:51.454Z</time></trkpt><trkpt lat="40.5001683" lon="16.6921617"><ele>40.0</ele><time>2026-03-29T13:05:52.454Z</time></trkpt><trkpt lat="40.5001317" lon="16.6919667"><ele>40.0</ele><time>2026-03-29T13:05:53.454Z</time></trkpt><trkpt lat="40.5001" lon="16.69177"><ele>40.0</ele><time>2026-03-29T13:05:54.454Z</time></trkpt><trkpt lat="40.5000683" lon="16.6915733"><ele>40.66666666666667</ele><time>2026-03-29T13:05:55.454Z</time></trkpt><trkpt lat="40.5000333" lon="16.6913767"><ele>41.333333333333336</ele><time>2026-03-29T13:05:56.455Z</time></trkpt><trkpt lat="40.4999967" lon="16.6911783"><ele>42.0</ele><time>2026-03-29T13:05:57.454Z</time></trkpt><trkpt lat="40.4999583" lon="16.6909817"><ele>42.333333333333336</ele><time>2026-03-29T13:05:58.455Z</time></trkpt><trkpt lat="40.49992" lon="16.690785"><ele>42.66666666666667</ele><time>2026-03-29T13:05:59.454Z</time></trkpt><trkpt lat="40.499885" lon="16.6905867"><ele>43.0</ele><time>2026-03-29T13:06:00.454Z</time></trkpt><trkpt lat="40.4998517" lon="16.6903867"><ele>42.66666666666667</ele><time>2026-03-29T13:06:01.454Z</time></trkpt><trkpt lat="40.49982" lon="16.6901833"><ele>42.333333333333336</ele><time>2026-03-29T13:06:02.455Z</time></trkpt><trkpt lat="40.49979" lon="16.6899783"><ele>42.0</ele><time>2026-03-29T13:06:03.455Z</time></trkpt><trkpt lat="40.4997767" lon="16.6897767"><ele>42.0</ele><time>2026-03-29T13:06:04.456Z</time></trkpt><trkpt lat="40.49977" lon="16.6895817"><ele>42.0</ele><time>2026-03-29T13:06:05.454Z</time></trkpt><trkpt lat="40.4997617" lon="16.6893783"><ele>42.0</ele><time>2026-03-29T13:06:06.454Z</time></trkpt><trkpt lat="40.4997567" lon="16.6891783"><ele>43.0</ele><time>2026-03-29T13:06:07.453Z</time></trkpt><trkpt lat="40.49975" lon="16.6889733"><ele>44.0</ele><time>2026-03-29T13:06:08.454Z</time></trkpt><trkpt lat="40.4997433" lon="16.6887667"><ele>45.0</ele><time>2026-03-29T13:06:09.454Z</time></trkpt><trkpt lat="40.4997383" lon="16.68856"><ele>46.0</ele><time>2026-03-29T13:06:10.455Z</time></trkpt><trkpt lat="40.49973" lon="16.6883517"><ele>47.0</ele><time>2026-03-29T13:06:11.454Z</time></trkpt><trkpt lat="40.4997217" lon="16.6881417"><ele>48.0</ele><time>2026-03-29T13:06:12.454Z</time></trkpt><trkpt lat="40.4997117" lon="16.687935"><ele>47.666666666666664</ele><time>2026-03-29T13:06:13.454Z</time></trkpt><trkpt lat="40.4996983" lon="16.68773"><ele>47.33333333333333</ele><time>2026-03-29T13:06:14.456Z</time></trkpt><trkpt lat="40.4996883" lon="16.6875333"><ele>47.0</ele><time>2026-03-29T13:06:15.454Z</time></trkpt><trkpt lat="40.4996783" lon="16.6873383"><ele>47.0</ele><time>2026-03-29T13:06:16.454Z</time></trkpt><trkpt lat="40.49967" lon="16.6871433"><ele>47.0</ele><time>2026-03-29T13:06:17.454Z</time></trkpt><trkpt lat="40.4996667" lon="16.686955"><ele>47.0</ele><time>2026-03-29T13:06:18.454Z</time></trkpt><trkpt lat="40.4996617" lon="16.686765"><ele>47.0</ele><time>2026-03-29T13:06:19.454Z</time></trkpt><trkpt lat="40.499655" lon="16.686575"><ele>47.0</ele><time>2026-03-29T13:06:20.455Z</time></trkpt><trkpt lat="40.4996483" lon="16.6863833"><ele>47.0</ele><time>2026-03-29T13:06:21.454Z</time></trkpt><trkpt lat="40.49964" lon="16.6861817"><ele>47.0</ele><time>2026-03-29T13:06:22.454Z</time></trkpt><trkpt lat="40.4996283" lon="16.685975"><ele>47.0</ele><time>2026-03-29T13:06:23.456Z</time></trkpt><trkpt lat="40.49962" lon="16.6857683"><ele>47.0</ele><time>2026-03-29T13:06:24.454Z</time></trkpt><trkpt lat="40.499615" lon="16.685565"><ele>47.0</ele><time>2026-03-29T13:06:25.454Z</time></trkpt><trkpt lat="40.4996183" lon="16.68536"><ele>46.666666666666664</ele><time>2026-03-29T13:06:26.454Z</time></trkpt><trkpt lat="40.49963" lon="16.6851583"><ele>46.333333333333336</ele><time>2026-03-29T13:06:27.454Z</time></trkpt><trkpt lat="40.4996517" lon="16.6849617"><ele>46.0</ele><time>2026-03-29T13:06:28.454Z</time></trkpt><trkpt lat="40.4996783" lon="16.6847717"><ele>46.0</ele><time>2026-03-29T13:06:29.454Z</time></trkpt><trkpt lat="40.4997033" lon="16.6845833"><ele>46.0</ele><time>2026-03-29T13:06:30.454Z</time></trkpt><trkpt lat="40.4997217" lon="16.684395"><ele>46.0</ele><time>2026-03-29T13:06:31.458Z</time></trkpt><trkpt lat="40.4997367" lon="16.6842133"><ele>46.0</ele><time>2026-03-29T13:06:32.456Z</time></trkpt><trkpt lat="40.4997517" lon="16.68403"><ele>45.66666666666667</ele><time>2026-03-29T13:06:33.456Z</time></trkpt><trkpt lat="40.4997733" lon="16.6838367"><ele>45.333333333333336</ele><time>2026-03-29T13:06:34.454Z</time></trkpt><trkpt lat="40.4997983" lon="16.683635"><ele>45.0</ele><time>2026-03-29T13:06:35.455Z</time></trkpt><trkpt lat="40.4998233" lon="16.6834333"><ele>44.333333333333336</ele><time>2026-03-29T13:06:36.454Z</time></trkpt><trkpt lat="40.4998417" lon="16.683225"><ele>43.66666666666667</ele><time>2026-03-29T13:06:37.455Z</time></trkpt><trkpt lat="40.499855" lon="16.6830167"><ele>43.0</ele><time>2026-03-29T13:06:38.455Z</time></trkpt><trkpt lat="40.4998667" lon="16.6828067"><ele>43.0</ele><time>2026-03-29T13:06:39.454Z</time></trkpt><trkpt lat="40.4998733" lon="16.6826"><ele>43.0</ele><time>2026-03-29T13:06:40.454Z</time></trkpt><trkpt lat="40.49988" lon="16.682395"><ele>43.0</ele><time>2026-03-29T13:06:41.454Z</time></trkpt><trkpt lat="40.499885" lon="16.6821917"><ele>43.0</ele><time>2026-03-29T13:06:42.454Z</time></trkpt><trkpt lat="40.4998933" lon="16.6819917"><ele>43.0</ele><time>2026-03-29T13:06:43.454Z</time></trkpt><trkpt lat="40.4999017" lon="16.6817933"><ele>43.0</ele><time>2026-03-29T13:06:44.457Z</time></trkpt><trkpt lat="40.49991" lon="16.6815933"><ele>42.66666666666667</ele><time>2026-03-29T13:06:45.454Z</time></trkpt><trkpt lat="40.499915" lon="16.6813917"><ele>42.333333333333336</ele><time>2026-03-29T13:06:46.454Z</time></trkpt><trkpt lat="40.4999217" lon="16.6811917"><ele>42.0</ele><time>2026-03-29T13:06:47.456Z</time></trkpt><trkpt lat="40.49993" lon="16.680995"><ele>42.0</ele><time>2026-03-29T13:06:48.454Z</time></trkpt><trkpt lat="40.4999367" lon="16.6808033"><ele>42.0</ele><time>2026-03-29T13:06:49.454Z</time></trkpt><trkpt lat="40.4999467" lon="16.680625"><ele>42.0</ele><time>2026-03-29T13:06:50.455Z</time></trkpt><trkpt lat="40.499955" lon="16.68047"><ele>42.0</ele><time>2026-03-29T13:06:51.454Z</time></trkpt><trkpt lat="40.4999583" lon="16.68034"><ele>41.8</ele><time>2026-03-29T13:06:52.454Z</time></trkpt><trkpt lat="40.4999517" lon="16.68024"><ele>41.6</ele><time>2026-03-29T13:06:53.455Z</time></trkpt><trkpt lat="40.4998883" lon="16.6801183"><ele>41.4</ele><time>2026-03-29T13:06:55.454Z</time></trkpt><trkpt lat="40.4997517" lon="16.6801483"><ele>41.199999999999996</ele><time>2026-03-29T13:06:57.454Z</time></trkpt><trkpt lat="40.4996683" lon="16.6802183"><ele>41.0</ele><time>2026-03-29T13:06:58.454Z</time></trkpt><trkpt lat="40.4995783" lon="16.6802917"><ele>41.0</ele><time>2026-03-29T13:06:59.454Z</time></trkpt><trkpt lat="40.4994783" lon="16.68036"><ele>41.0</ele><time>2026-03-29T13:07:00.455Z</time></trkpt><trkpt lat="40.499375" lon="16.680425"><ele>41.0</ele><time>2026-03-29T13:07:01.456Z</time></trkpt><trkpt lat="40.4992717" lon="16.6804917"><ele>41.0</ele><time>2026-03-29T13:07:02.456Z</time></trkpt><trkpt lat="40.4991683" lon="16.6805633"><ele>41.0</ele><time>2026-03-29T13:07:03.454Z</time></trkpt><trkpt lat="40.4990667" lon="16.6806383"><ele>41.0</ele><time>2026-03-29T13:07:04.454Z</time></trkpt><trkpt lat="40.498965" lon="16.6807133"><ele>41.0</ele><time>2026-03-29T13:07:05.455Z</time></trkpt><trkpt lat="40.4988633" lon="16.68079"><ele>41.0</ele><time>2026-03-29T13:07:06.454Z</time></trkpt><trkpt lat="40.4987617" lon="16.6808667"><ele>41.25</ele><time>2026-03-29T13:07:07.454Z</time></trkpt><trkpt lat="40.49866" lon="16.680945"><ele>41.5</ele><time>2026-03-29T13:07:08.456Z</time></trkpt><trkpt lat="40.4985567" lon="16.6810233"><ele>41.75</ele><time>2026-03-29T13:07:09.455Z</time></trkpt><trkpt lat="40.4984533" lon="16.6810983"><ele>42.0</ele><time>2026-03-29T13:07:10.456Z</time></trkpt><trkpt lat="40.498345" lon="16.6811683"><ele>42.0</ele><time>2026-03-29T13:07:11.459Z</time></trkpt><trkpt lat="40.498235" lon="16.6812367"><ele>42.0</ele><time>2026-03-29T13:07:12.454Z</time></trkpt><trkpt lat="40.4981217" lon="16.6813117"><ele>42.0</ele><time>2026-03-29T13:07:13.455Z</time></trkpt><trkpt lat="40.4980067" lon="16.68139"><ele>42.0</ele><time>2026-03-29T13:07:14.456Z</time></trkpt><trkpt lat="40.4978933" lon="16.6814717"><ele>42.25</ele><time>2026-03-29T13:07:15.455Z</time></trkpt><trkpt lat="40.49778" lon="16.6815533"><ele>42.5</ele><time>2026-03-29T13:07:16.454Z</time></trkpt><trkpt lat="40.4976683" lon="16.6816317"><ele>42.75</ele><time>2026-03-29T13:07:17.454Z</time></trkpt><trkpt lat="40.497565" lon="16.6817067"><ele>43.0</ele><time>2026-03-29T13:07:18.454Z</time></trkpt><trkpt lat="40.4974717" lon="16.681775"><ele>43.0</ele><time>2026-03-29T13:07:19.454Z</time></trkpt><trkpt lat="40.49739" lon="16.681835"><ele>43.0</ele><time>2026-03-29T13:07:20.455Z</time></trkpt><trkpt lat="40.4973233" lon="16.6818783"><ele>43.0</ele><time>2026-03-29T13:07:21.454Z</time></trkpt><trkpt lat="40.4972433" lon="16.681875"><ele>43.0</ele><time>2026-03-29T13:07:23.454Z</time></trkpt><trkpt lat="40.4972317" lon="16.6817567"><ele>43.0</ele><time>2026-03-29T13:07:25.455Z</time></trkpt><trkpt lat="40.4972417" lon="16.681655"><ele>43.0</ele><time>2026-03-29T13:07:26.454Z</time></trkpt><trkpt lat="40.4972567" lon="16.6815383"><ele>43.0</ele><time>2026-03-29T13:07:27.453Z</time></trkpt><trkpt lat="40.4972733" lon="16.6814133"><ele>43.0</ele><time>2026-03-29T13:07:28.454Z</time></trkpt><trkpt lat="40.49729" lon="16.68129"><ele>43.0</ele><time>2026-03-29T13:07:29.455Z</time></trkpt><trkpt lat="40.4973067" lon="16.6811617"><ele>43.0</ele><time>2026-03-29T13:07:30.455Z</time></trkpt><trkpt lat="40.497325" lon="16.681035"><ele>43.0</ele><time>2026-03-29T13:07:31.454Z</time></trkpt><trkpt lat="40.49734" lon="16.68091"><ele>42.8</ele><time>2026-03-29T13:07:32.458Z</time></trkpt><trkpt lat="40.4973517" lon="16.6807883"><ele>42.599999999999994</ele><time>2026-03-29T13:07:33.455Z</time></trkpt><trkpt lat="40.4973683" lon="16.6806683"><ele>42.400000000000006</ele><time>2026-03-29T13:07:34.455Z</time></trkpt><trkpt lat="40.4973817" lon="16.68055"><ele>42.2</ele><time>2026-03-29T13:07:35.455Z</time></trkpt><trkpt lat="40.4973867" lon="16.680435"><ele>42.0</ele><time>2026-03-29T13:07:36.455Z</time></trkpt><trkpt lat="40.4973917" lon="16.6803217"><ele>42.166666666666664</ele><time>2026-03-29T13:07:37.455Z</time></trkpt><trkpt lat="40.497405" lon="16.6802133"><ele>42.333333333333336</ele><time>2026-03-29T13:07:38.455Z</time></trkpt><trkpt lat="40.4974167" lon="16.6800983"><ele>42.5</ele><time>2026-03-29T13:07:39.454Z</time></trkpt><trkpt lat="40.49743" lon="16.6799817"><ele>42.66666666666667</ele><time>2026-03-29T13:07:40.455Z</time></trkpt><trkpt lat="40.4974433" lon="16.6798683"><ele>42.833333333333336</ele><time>2026-03-29T13:07:41.454Z</time></trkpt><trkpt lat="40.4974583" lon="16.6797567"><ele>43.0</ele><time>2026-03-29T13:07:42.454Z</time></trkpt><trkpt lat="40.497475" lon="16.6796433"><ele>43.0</ele><time>2026-03-29T13:07:43.454Z</time></trkpt><trkpt lat="40.4974883" lon="16.6795283"><ele>43.0</ele><time>2026-03-29T13:07:44.455Z</time></trkpt><trkpt lat="40.4975033" lon="16.679415"><ele>43.0</ele><time>2026-03-29T13:07:45.459Z</time></trkpt><trkpt lat="40.497515" lon="16.6793033"><ele>43.0</ele><time>2026-03-29T13:07:46.453Z</time></trkpt><trkpt lat="40.4975233" lon="16.6791967"><ele>43.0</ele><time>2026-03-29T13:07:47.453Z</time></trkpt><trkpt lat="40.4975333" lon="16.6791"><ele>43.0</ele><time>2026-03-29T13:07:48.455Z</time></trkpt><trkpt lat="40.4975417" lon="16.6790083"><ele>42.833333333333336</ele><time>2026-03-29T13:07:49.455Z</time></trkpt><trkpt lat="40.4975467" lon="16.6789117"><ele>42.66666666666667</ele><time>2026-03-29T13:07:50.456Z</time></trkpt><trkpt lat="40.4975533" lon="16.67881"><ele>42.5</ele><time>2026-03-29T13:07:51.455Z</time></trkpt><trkpt lat="40.4975633" lon="16.6787083"><ele>42.333333333333336</ele><time>2026-03-29T13:07:52.458Z</time></trkpt><trkpt lat="40.4975767" lon="16.678615"><ele>42.166666666666664</ele><time>2026-03-29T13:07:53.454Z</time></trkpt><trkpt lat="40.497605" lon="16.67848"><ele>42.0</ele><time>2026-03-29T13:07:55.454Z</time></trkpt><trkpt lat="40.49768" lon="16.6784483"><ele>42.0</ele><time>2026-03-29T13:07:59.454Z</time></trkpt><trkpt lat="40.497765" lon="16.678455"><ele>42.0</ele><time>2026-03-29T13:08:02.456Z</time></trkpt><trkpt lat="40.4978583" lon="16.67847"><ele>42.0</ele><time>2026-03-29T13:08:04.455Z</time></trkpt><trkpt lat="40.497985" lon="16.6784933"><ele>42.0</ele><time>2026-03-29T13:08:06.455Z</time></trkpt><trkpt lat="40.4980533" lon="16.6785083"><ele>42.0</ele><time>2026-03-29T13:08:07.453Z</time></trkpt><trkpt lat="40.4981233" lon="16.6785217"><ele>42.0</ele><time>2026-03-29T13:08:08.456Z</time></trkpt><trkpt lat="40.498195" lon="16.67853"><ele>42.0</ele><time>2026-03-29T13:08:09.454Z</time></trkpt><trkpt lat="40.4982633" lon="16.6785417"><ele>42.0</ele><time>2026-03-29T13:08:10.454Z</time></trkpt><trkpt lat="40.4983317" lon="16.6785533"><ele>42.0</ele><time>2026-03-29T13:08:11.454Z</time></trkpt><trkpt lat="40.4984067" lon="16.6785667"><ele>42.0</ele><time>2026-03-29T13:08:12.454Z</time></trkpt><trkpt lat="40.49847" lon="16.6785817"><ele>42.0</ele><time>2026-03-29T13:08:13.454Z</time></trkpt><trkpt lat="40.4985333" lon="16.678595"><ele>42.0</ele><time>2026-03-29T13:08:14.455Z</time></trkpt><trkpt lat="40.4986633" lon="16.67862"><ele>41.8</ele><time>2026-03-29T13:08:16.454Z</time></trkpt><trkpt lat="40.4987333" lon="16.6786333"><ele>41.6</ele><time>2026-03-29T13:08:17.454Z</time></trkpt><trkpt lat="40.4988017" lon="16.6786483"><ele>41.4</ele><time>2026-03-29T13:08:18.455Z</time></trkpt><trkpt lat="40.498865" lon="16.6786617"><ele>41.199999999999996</ele><time>2026-03-29T13:08:19.454Z</time></trkpt><trkpt lat="40.498995" lon="16.6786833"><ele>41.0</ele><time>2026-03-29T13:08:21.454Z</time></trkpt><trkpt lat="40.4991217" lon="16.678715"><ele>41.5</ele><time>2026-03-29T13:08:23.455Z</time></trkpt><trkpt lat="40.4991867" lon="16.6787283"><ele>42.0</ele><time>2026-03-29T13:08:24.454Z</time></trkpt><trkpt lat="40.4992533" lon="16.6787433"><ele>42.5</ele><time>2026-03-29T13:08:25.455Z</time></trkpt><trkpt lat="40.4993933" lon="16.6787717"><ele>43.0</ele><time>2026-03-29T13:08:27.457Z</time></trkpt><trkpt lat="40.499465" lon="16.6787833"><ele>43.5</ele><time>2026-03-29T13:08:28.454Z</time></trkpt><trkpt lat="40.4995383" lon="16.678795"><ele>44.0</ele><time>2026-03-29T13:08:29.454Z</time></trkpt><trkpt lat="40.499605" lon="16.6788083"><ele>44.400000000000006</ele><time>2026-03-29T13:08:30.455Z</time></trkpt><trkpt lat="40.4997183" lon="16.6788317"><ele>44.8</ele><time>2026-03-29T13:08:32.455Z</time></trkpt><trkpt lat="40.49979" lon="16.6788167"><ele>45.2</ele><time>2026-03-29T13:08:34.454Z</time></trkpt><trkpt lat="40.4998183" lon="16.6787033"><ele>45.599999999999994</ele><time>2026-03-29T13:08:36.455Z</time></trkpt><trkpt lat="40.4998383" lon="16.6785433"><ele>46.0</ele><time>2026-03-29T13:08:38.455Z</time></trkpt><trkpt lat="40.49985" lon="16.6784517"><ele>46.0</ele><time>2026-03-29T13:08:39.458Z</time></trkpt><trkpt lat="40.49986" lon="16.6783617"><ele>46.0</ele><time>2026-03-29T13:08:40.456Z</time></trkpt><trkpt lat="40.499865" lon="16.6782767"><ele>46.0</ele><time>2026-03-29T13:08:41.454Z</time></trkpt><trkpt lat="40.49988" lon="16.678135"><ele>46.0</ele><time>2026-03-29T13:08:43.454Z</time></trkpt><trkpt lat="40.4999383" lon="16.678025"><ele>46.0</ele><time>2026-03-29T13:08:45.454Z</time></trkpt><trkpt lat="40.4999867" lon="16.677895"><ele>46.0</ele><time>2026-03-29T13:08:47.454Z</time></trkpt><trkpt lat="40.5000233" lon="16.6777883"><ele>46.0</ele><time>2026-03-29T13:08:49.454Z</time></trkpt><trkpt lat="40.50007" lon="16.6776117"><ele>46.0</ele><time>2026-03-29T13:08:52.454Z</time></trkpt><trkpt lat="40.5000967" lon="16.6773917"><ele>46.0</ele><time>2026-03-29T13:08:54.455Z</time></trkpt><trkpt lat="40.5001067" lon="16.677255"><ele>45.66666666666667</ele><time>2026-03-29T13:08:55.454Z</time></trkpt><trkpt lat="40.5001433" lon="16.676975"><ele>45.333333333333336</ele><time>2026-03-29T13:08:57.454Z</time></trkpt><trkpt lat="40.5001683" lon="16.6768333"><ele>45.0</ele><time>2026-03-29T13:08:58.455Z</time></trkpt><trkpt lat="40.5002267" lon="16.6765483"><ele>44.75</ele><time>2026-03-29T13:09:00.455Z</time></trkpt><trkpt lat="40.5002617" lon="16.6764083"><ele>44.5</ele><time>2026-03-29T13:09:01.454Z</time></trkpt><trkpt lat="40.5002933" lon="16.67627"><ele>44.25</ele><time>2026-03-29T13:09:02.456Z</time></trkpt><trkpt lat="40.5003267" lon="16.6761333"><ele>44.0</ele><time>2026-03-29T13:09:03.454Z</time></trkpt><trkpt lat="40.5004017" lon="16.6758617"><ele>47.25</ele><time>2026-03-29T13:09:05.455Z</time></trkpt><trkpt lat="40.5004417" lon="16.6757267"><ele>50.5</ele><time>2026-03-29T13:09:06.454Z</time></trkpt><trkpt lat="40.5004817" lon="16.675585"><ele>53.75</ele><time>2026-03-29T13:09:07.454Z</time></trkpt><trkpt lat="40.5005233" lon="16.6754417"><ele>57.0</ele><time>2026-03-29T13:09:08.455Z</time></trkpt><trkpt lat="40.5005667" lon="16.6752933"><ele>56.25</ele><time>2026-03-29T13:09:09.454Z</time></trkpt><trkpt lat="40.50061" lon="16.6751433"><ele>55.5</ele><time>2026-03-29T13:09:10.454Z</time></trkpt><trkpt lat="40.500655" lon="16.6749917"><ele>54.75</ele><time>2026-03-29T13:09:11.454Z</time></trkpt><trkpt lat="40.5007" lon="16.67484"><ele>54.0</ele><time>2026-03-29T13:09:12.454Z</time></trkpt><trkpt lat="40.5007467" lon="16.674685"><ele>54.0</ele><time>2026-03-29T13:09:13.454Z</time></trkpt><trkpt lat="40.500795" lon="16.67453"><ele>54.0</ele><time>2026-03-29T13:09:14.456Z</time></trkpt><trkpt lat="40.5008417" lon="16.6743717"><ele>54.0</ele><time>2026-03-29T13:09:15.454Z</time></trkpt><trkpt lat="40.50089" lon="16.67421"><ele>54.0</ele><time>2026-03-29T13:09:16.456Z</time></trkpt><trkpt lat="40.5009433" lon="16.6740467"><ele>53.25</ele><time>2026-03-29T13:09:17.455Z</time></trkpt><trkpt lat="40.500995" lon="16.6738833"><ele>52.5</ele><time>2026-03-29T13:09:18.454Z</time></trkpt><trkpt lat="40.5010517" lon="16.6737233"><ele>51.75</ele><time>2026-03-29T13:09:19.456Z</time></trkpt><trkpt lat="40.5011033" lon="16.6735783"><ele>51.0</ele><time>2026-03-29T13:09:20.456Z</time></trkpt><trkpt lat="40.5011483" lon="16.6734467"><ele>50.5</ele><time>2026-03-29T13:09:21.454Z</time></trkpt><trkpt lat="40.50119" lon="16.6733133"><ele>50.0</ele><time>2026-03-29T13:09:22.454Z</time></trkpt><trkpt lat="40.5012417" lon="16.6731767"><ele>49.5</ele><time>2026-03-29T13:09:23.455Z</time></trkpt><trkpt lat="40.5012983" lon="16.67304"><ele>49.0</ele><time>2026-03-29T13:09:24.454Z</time></trkpt><trkpt lat="40.5013533" lon="16.6728967"><ele>49.75</ele><time>2026-03-29T13:09:25.454Z</time></trkpt><trkpt lat="40.5014083" lon="16.6727433"><ele>50.5</ele><time>2026-03-29T13:09:26.454Z</time></trkpt><trkpt lat="40.501475" lon="16.6725917"><ele>51.25</ele><time>2026-03-29T13:09:27.454Z</time></trkpt><trkpt lat="40.5015617" lon="16.6724483"><ele>52.0</ele><time>2026-03-29T13:09:28.455Z</time></trkpt><trkpt lat="40.501665" lon="16.6723233"><ele>52.0</ele><time>2026-03-29T13:09:29.455Z</time></trkpt><trkpt lat="40.501775" lon="16.6722217"><ele>52.0</ele><time>2026-03-29T13:09:30.456Z</time></trkpt><trkpt lat="40.50188" lon="16.6721433"><ele>52.0</ele><time>2026-03-29T13:09:31.455Z</time></trkpt><trkpt lat="40.50197" lon="16.672085"><ele>52.0</ele><time>2026-03-29T13:09:32.459Z</time></trkpt><trkpt lat="40.50205" lon="16.672035"><ele>52.0</ele><time>2026-03-29T13:09:33.454Z</time></trkpt><trkpt lat="40.502125" lon="16.6719833"><ele>51.666666666666664</ele><time>2026-03-29T13:09:34.456Z</time></trkpt><trkpt lat="40.5021967" lon="16.6719333"><ele>51.33333333333333</ele><time>2026-03-29T13:09:35.454Z</time></trkpt><trkpt lat="40.5022633" lon="16.6718833"><ele>51.0</ele><time>2026-03-29T13:09:36.536Z</time></trkpt><trkpt lat="40.5023283" lon="16.671835"><ele>50.66666666666667</ele><time>2026-03-29T13:09:37.456Z</time></trkpt><trkpt lat="40.5023867" lon="16.6717933"><ele>50.333333333333336</ele><time>2026-03-29T13:09:38.455Z</time></trkpt><trkpt lat="40.502495" lon="16.671725"><ele>50.0</ele><time>2026-03-29T13:09:40.454Z</time></trkpt><trkpt lat="40.5026033" lon="16.67164"><ele>50.00000000000001</ele><time>2026-03-29T13:09:42.454Z</time></trkpt><trkpt lat="40.5026633" lon="16.6715883"><ele>50.0</ele><time>2026-03-29T13:09:43.455Z</time></trkpt><trkpt lat="40.502725" lon="16.671535"><ele>50.0</ele><time>2026-03-29T13:09:44.455Z</time></trkpt><trkpt lat="40.50279" lon="16.6714833"><ele>50.0</ele><time>2026-03-29T13:09:45.455Z</time></trkpt><trkpt lat="40.502855" lon="16.6714333"><ele>50.0</ele><time>2026-03-29T13:09:46.453Z</time></trkpt><trkpt lat="40.50292" lon="16.6713817"><ele>50.00000000000001</ele><time>2026-03-29T13:09:47.455Z</time></trkpt><trkpt lat="40.5029833" lon="16.67133"><ele>50.0</ele><time>2026-03-29T13:09:48.454Z</time></trkpt><trkpt lat="40.5030417" lon="16.67129"><ele>50.4</ele><time>2026-03-29T13:09:49.454Z</time></trkpt><trkpt lat="40.5031517" lon="16.6712167"><ele>50.8</ele><time>2026-03-29T13:09:51.454Z</time></trkpt><trkpt lat="40.503255" lon="16.6711467"><ele>51.2</ele><time>2026-03-29T13:09:53.455Z</time></trkpt><trkpt lat="40.5033617" lon="16.6710683"><ele>51.6</ele><time>2026-03-29T13:09:55.454Z</time></trkpt><trkpt lat="40.50343" lon="16.671035"><ele>52.0</ele><time>2026-03-29T13:09:56.455Z</time></trkpt><trkpt lat="40.5034983" lon="16.6709867"><ele>51.49999999999999</ele><time>2026-03-29T13:09:57.454Z</time></trkpt><trkpt lat="40.5035667" lon="16.6709283"><ele>51.0</ele><time>2026-03-29T13:09:58.455Z</time></trkpt><trkpt lat="40.5036367" lon="16.670865"><ele>50.5</ele><time>2026-03-29T13:09:59.456Z</time></trkpt><trkpt lat="40.5037083" lon="16.6708"><ele>50.0</ele><time>2026-03-29T13:10:00.455Z</time></trkpt><trkpt lat="40.5037817" lon="16.6707317"><ele>49.49999999999999</ele><time>2026-03-29T13:10:01.456Z</time></trkpt><trkpt lat="40.503855" lon="16.6706617"><ele>49.0</ele><time>2026-03-29T13:10:02.457Z</time></trkpt><trkpt lat="40.503925" lon="16.6705867"><ele>49.0</ele><time>2026-03-29T13:10:03.455Z</time></trkpt><trkpt lat="40.5039983" lon="16.67051"><ele>49.0</ele><time>2026-03-29T13:10:04.454Z</time></trkpt><trkpt lat="40.5040767" lon="16.67043"><ele>49.0</ele><time>2026-03-29T13:10:05.455Z</time></trkpt><trkpt lat="40.5041567" lon="16.6703483"><ele>49.0</ele><time>2026-03-29T13:10:06.454Z</time></trkpt><trkpt lat="40.5042417" lon="16.6702633"><ele>49.0</ele><time>2026-03-29T13:10:07.455Z</time></trkpt><trkpt lat="40.50433" lon="16.6701783"><ele>48.75</ele><time>2026-03-29T13:10:08.46Z</time></trkpt><trkpt lat="40.5044183" lon="16.6700883"><ele>48.5</ele><time>2026-03-29T13:10:09.456Z</time></trkpt><trkpt lat="40.5045083" lon="16.6699917"><ele>48.25</ele><time>2026-03-29T13:10:10.455Z</time></trkpt><trkpt lat="40.5046" lon="16.6698917"><ele>48.0</ele><time>2026-03-29T13:10:11.454Z</time></trkpt><trkpt lat="40.5046967" lon="16.669795"><ele>47.75</ele><time>2026-03-29T13:10:12.454Z</time></trkpt><trkpt lat="40.504795" lon="16.6696967"><ele>47.5</ele><time>2026-03-29T13:10:13.454Z</time></trkpt><trkpt lat="40.504895" lon="16.6696"><ele>47.25</ele><time>2026-03-29T13:10:14.456Z</time></trkpt><trkpt lat="40.504995" lon="16.6695067"><ele>47.0</ele><time>2026-03-29T13:10:15.455Z</time></trkpt><trkpt lat="40.5050967" lon="16.6694117"><ele>47.0</ele><time>2026-03-29T13:10:16.454Z</time></trkpt><trkpt lat="40.505195" lon="16.6693167"><ele>47.0</ele><time>2026-03-29T13:10:17.455Z</time></trkpt><trkpt lat="40.5052933" lon="16.6692217"><ele>47.0</ele><time>2026-03-29T13:10:18.455Z</time></trkpt><trkpt lat="40.50539" lon="16.6691267"><ele>47.0</ele><time>2026-03-29T13:10:19.456Z</time></trkpt><trkpt lat="40.505485" lon="16.66903"><ele>47.5</ele><time>2026-03-29T13:10:20.455Z</time></trkpt><trkpt lat="40.5055817" lon="16.6689283"><ele>48.0</ele><time>2026-03-29T13:10:21.454Z</time></trkpt><trkpt lat="40.5056783" lon="16.668825"><ele>48.5</ele><time>2026-03-29T13:10:22.454Z</time></trkpt><trkpt lat="40.5057767" lon="16.6687217"><ele>49.0</ele><time>2026-03-29T13:10:23.454Z</time></trkpt><trkpt lat="40.5058733" lon="16.6686233"><ele>49.25</ele><time>2026-03-29T13:10:24.454Z</time></trkpt><trkpt lat="40.50597" lon="16.6685217"><ele>49.5</ele><time>2026-03-29T13:10:25.454Z</time></trkpt><trkpt lat="40.5060683" lon="16.6684233"><ele>49.75</ele><time>2026-03-29T13:10:26.454Z</time></trkpt><trkpt lat="40.5061683" lon="16.668325"><ele>50.0</ele><time>2026-03-29T13:10:27.454Z</time></trkpt><trkpt lat="40.50627" lon="16.6682233"><ele>50.0</ele><time>2026-03-29T13:10:28.455Z</time></trkpt><trkpt lat="40.5063717" lon="16.6681217"><ele>50.0</ele><time>2026-03-29T13:10:29.455Z</time></trkpt><trkpt lat="40.506475" lon="16.668015"><ele>50.0</ele><time>2026-03-29T13:10:30.454Z</time></trkpt><trkpt lat="40.50658" lon="16.6679083"><ele>50.0</ele><time>2026-03-29T13:10:31.455Z</time></trkpt><trkpt lat="40.5066867" lon="16.6677983"><ele>49.25</ele><time>2026-03-29T13:10:32.456Z</time></trkpt><trkpt lat="40.5067933" lon="16.6676883"><ele>48.5</ele><time>2026-03-29T13:10:33.454Z</time></trkpt><trkpt lat="40.5069017" lon="16.6675833"><ele>47.75</ele><time>2026-03-29T13:10:34.456Z</time></trkpt><trkpt lat="40.50701" lon="16.66748"><ele>47.0</ele><time>2026-03-29T13:10:35.454Z</time></trkpt><trkpt lat="40.5071217" lon="16.6673717"><ele>47.0</ele><time>2026-03-29T13:10:36.455Z</time></trkpt><trkpt lat="40.507235" lon="16.6672583"><ele>47.0</ele><time>2026-03-29T13:10:37.454Z</time></trkpt><trkpt lat="40.5073467" lon="16.6671467"><ele>47.0</ele><time>2026-03-29T13:10:38.454Z</time></trkpt><trkpt lat="40.50746" lon="16.66703"><ele>47.0</ele><time>2026-03-29T13:10:39.455Z</time></trkpt><trkpt lat="40.5075783" lon="16.6669083"><ele>47.666666666666664</ele><time>2026-03-29T13:10:40.454Z</time></trkpt><trkpt lat="40.5076983" lon="16.666785"><ele>48.33333333333333</ele><time>2026-03-29T13:10:41.458Z</time></trkpt><trkpt lat="40.50782" lon="16.6666617"><ele>49.0</ele><time>2026-03-29T13:10:42.455Z</time></trkpt><trkpt lat="40.5079433" lon="16.66654"><ele>49.33333333333333</ele><time>2026-03-29T13:10:43.455Z</time></trkpt><trkpt lat="40.5080667" lon="16.6664183"><ele>49.66666666666667</ele><time>2026-03-29T13:10:44.455Z</time></trkpt><trkpt lat="40.50819" lon="16.666295"><ele>50.0</ele><time>2026-03-29T13:10:45.455Z</time></trkpt><trkpt lat="40.5083117" lon="16.6661667"><ele>50.0</ele><time>2026-03-29T13:10:46.454Z</time></trkpt><trkpt lat="40.5084333" lon="16.66604"><ele>50.0</ele><time>2026-03-29T13:10:47.454Z</time></trkpt><trkpt lat="40.508555" lon="16.6659133"><ele>50.0</ele><time>2026-03-29T13:10:48.455Z</time></trkpt><trkpt lat="40.5086767" lon="16.665785"><ele>50.333333333333336</ele><time>2026-03-29T13:10:49.457Z</time></trkpt><trkpt lat="40.5088017" lon="16.6656567"><ele>50.66666666666667</ele><time>2026-03-29T13:10:50.455Z</time></trkpt><trkpt lat="40.5089283" lon="16.6655333"><ele>51.0</ele><time>2026-03-29T13:10:51.455Z</time></trkpt><trkpt lat="40.509055" lon="16.66541"><ele>51.0</ele><time>2026-03-29T13:10:52.455Z</time></trkpt><trkpt lat="40.5091817" lon="16.665285"><ele>51.0</ele><time>2026-03-29T13:10:53.454Z</time></trkpt><trkpt lat="40.5093067" lon="16.6651583"><ele>51.0</ele><time>2026-03-29T13:10:54.455Z</time></trkpt><trkpt lat="40.5094317" lon="16.66503"><ele>51.0</ele><time>2026-03-29T13:10:55.455Z</time></trkpt><trkpt lat="40.5095583" lon="16.6649017"><ele>51.0</ele><time>2026-03-29T13:10:56.459Z</time></trkpt><trkpt lat="40.5096833" lon="16.6647733"><ele>51.0</ele><time>2026-03-29T13:10:57.454Z</time></trkpt><trkpt lat="40.509805" lon="16.6646483"><ele>51.0</ele><time>2026-03-29T13:10:58.456Z</time></trkpt><trkpt lat="40.50993" lon="16.6645233"><ele>51.0</ele><time>2026-03-29T13:10:59.456Z</time></trkpt><trkpt lat="40.51005" lon="16.6643967"><ele>51.0</ele><time>2026-03-29T13:11:00.455Z</time></trkpt><trkpt lat="40.5101683" lon="16.6642767"><ele>51.0</ele><time>2026-03-29T13:11:01.454Z</time></trkpt><trkpt lat="40.5102883" lon="16.664155"><ele>51.0</ele><time>2026-03-29T13:11:02.457Z</time></trkpt><trkpt lat="40.5104083" lon="16.6640367"><ele>51.0</ele><time>2026-03-29T13:11:03.454Z</time></trkpt><trkpt lat="40.5105183" lon="16.6639233"><ele>51.0</ele><time>2026-03-29T13:11:04.454Z</time></trkpt><trkpt lat="40.510635" lon="16.6638083"><ele>50.75</ele><time>2026-03-29T13:11:05.456Z</time></trkpt><trkpt lat="40.5107433" lon="16.6636917"><ele>50.5</ele><time>2026-03-29T13:11:06.454Z</time></trkpt><trkpt lat="40.5108467" lon="16.6635783"><ele>50.25</ele><time>2026-03-29T13:11:07.455Z</time></trkpt><trkpt lat="40.51094" lon="16.6634717"><ele>50.0</ele><time>2026-03-29T13:11:08.455Z</time></trkpt><trkpt lat="40.5110267" lon="16.6633683"><ele>50.0</ele><time>2026-03-29T13:11:09.454Z</time></trkpt><trkpt lat="40.5111033" lon="16.6632717"><ele>50.0</ele><time>2026-03-29T13:11:10.454Z</time></trkpt><trkpt lat="40.511175" lon="16.6631767"><ele>50.0</ele><time>2026-03-29T13:11:11.454Z</time></trkpt><trkpt lat="40.511225" lon="16.6631067"><ele>50.0</ele><time>2026-03-29T13:11:12.458Z</time></trkpt><trkpt lat="40.5112333" lon="16.6629867"><ele>50.0</ele><time>2026-03-29T13:11:14.457Z</time></trkpt><trkpt lat="40.5111417" lon="16.662905"><ele>50.00000000000001</ele><time>2026-03-29T13:11:16.455Z</time></trkpt><trkpt lat="40.5110717" lon="16.662875"><ele>50.0</ele><time>2026-03-29T13:11:17.454Z</time></trkpt><trkpt lat="40.5109883" lon="16.6628533"><ele>50.0</ele><time>2026-03-29T13:11:18.456Z</time></trkpt><trkpt lat="40.5109083" lon="16.66284"><ele>50.0</ele><time>2026-03-29T13:11:19.455Z</time></trkpt><trkpt lat="40.5108383" lon="16.66283"><ele>50.00000000000001</ele><time>2026-03-29T13:11:20.455Z</time></trkpt><trkpt lat="40.510735" lon="16.6627633"><ele>50.0</ele><time>2026-03-29T13:11:22.457Z</time></trkpt><trkpt lat="40.510695" lon="16.66268"><ele>50.0</ele><time>2026-03-29T13:11:23.455Z</time></trkpt><trkpt lat="40.5106633" lon="16.66257"><ele>50.0</ele><time>2026-03-29T13:11:24.456Z</time></trkpt><trkpt lat="40.510625" lon="16.6624517"><ele>50.0</ele><time>2026-03-29T13:11:25.454Z</time></trkpt><trkpt lat="40.5105733" lon="16.6623333"><ele>50.0</ele><time>2026-03-29T13:11:26.454Z</time></trkpt><trkpt lat="40.5105217" lon="16.6622133"><ele>50.0</ele><time>2026-03-29T13:11:27.453Z</time></trkpt><trkpt lat="40.51047" lon="16.66209"><ele>50.0</ele><time>2026-03-29T13:11:28.455Z</time></trkpt><trkpt lat="40.51042" lon="16.6619667"><ele>50.0</ele><time>2026-03-29T13:11:29.455Z</time></trkpt><trkpt lat="40.5103667" lon="16.6618433"><ele>50.0</ele><time>2026-03-29T13:11:30.456Z</time></trkpt><trkpt lat="40.5103133" lon="16.66172"><ele>50.0</ele><time>2026-03-29T13:11:31.455Z</time></trkpt><trkpt lat="40.5102583" lon="16.661595"><ele>50.0</ele><time>2026-03-29T13:11:32.456Z</time></trkpt><trkpt lat="40.5102017" lon="16.6614717"><ele>49.6</ele><time>2026-03-29T13:11:33.454Z</time></trkpt><trkpt lat="40.5101417" lon="16.6613517"><ele>49.2</ele><time>2026-03-29T13:11:34.455Z</time></trkpt><trkpt lat="40.51008" lon="16.66123"><ele>48.8</ele><time>2026-03-29T13:11:35.455Z</time></trkpt><trkpt lat="40.510025" lon="16.661105"><ele>48.4</ele><time>2026-03-29T13:11:36.454Z</time></trkpt><trkpt lat="40.5099733" lon="16.660985"><ele>48.0</ele><time>2026-03-29T13:11:37.454Z</time></trkpt><trkpt lat="40.5099217" lon="16.66087"><ele>47.8</ele><time>2026-03-29T13:11:38.456Z</time></trkpt><trkpt lat="40.509865" lon="16.6607583"><ele>47.599999999999994</ele><time>2026-03-29T13:11:39.455Z</time></trkpt><trkpt lat="40.5098083" lon="16.660645"><ele>47.400000000000006</ele><time>2026-03-29T13:11:40.454Z</time></trkpt><trkpt lat="40.509755" lon="16.6605333"><ele>47.2</ele><time>2026-03-29T13:11:41.455Z</time></trkpt><trkpt lat="40.5097083" lon="16.660425"><ele>47.0</ele><time>2026-03-29T13:11:42.454Z</time></trkpt><trkpt lat="40.509665" lon="16.6603167"><ele>47.0</ele><time>2026-03-29T13:11:43.454Z</time></trkpt><trkpt lat="40.509615" lon="16.66021"><ele>47.0</ele><time>2026-03-29T13:11:44.455Z</time></trkpt><trkpt lat="40.5095633" lon="16.6601033"><ele>47.0</ele><time>2026-03-29T13:11:45.455Z</time></trkpt><trkpt lat="40.509515" lon="16.66"><ele>47.0</ele><time>2026-03-29T13:11:46.455Z</time></trkpt><trkpt lat="40.5094633" lon="16.659895"><ele>47.0</ele><time>2026-03-29T13:11:47.454Z</time></trkpt><trkpt lat="40.50941" lon="16.65979"><ele>47.0</ele><time>2026-03-29T13:11:48.454Z</time></trkpt><trkpt lat="40.50936" lon="16.6596883"><ele>47.0</ele><time>2026-03-29T13:11:49.454Z</time></trkpt><trkpt lat="40.5093167" lon="16.6595883"><ele>47.0</ele><time>2026-03-29T13:11:50.457Z</time></trkpt><trkpt lat="40.5092733" lon="16.6594883"><ele>47.0</ele><time>2026-03-29T13:11:51.455Z</time></trkpt><trkpt lat="40.5092317" lon="16.6593917"><ele>47.0</ele><time>2026-03-29T13:11:52.454Z</time></trkpt><trkpt lat="40.5091917" lon="16.6592933"><ele>47.0</ele><time>2026-03-29T13:11:53.454Z</time></trkpt><trkpt lat="40.5091483" lon="16.6591883"><ele>47.400000000000006</ele><time>2026-03-29T13:11:54.455Z</time></trkpt><trkpt lat="40.5091017" lon="16.6590833"><ele>47.800000000000004</ele><time>2026-03-29T13:11:55.455Z</time></trkpt><trkpt lat="40.5090517" lon="16.6589783"><ele>48.2</ele><time>2026-03-29T13:11:56.455Z</time></trkpt><trkpt lat="40.509005" lon="16.658875"><ele>48.6</ele><time>2026-03-29T13:11:57.454Z</time></trkpt><trkpt lat="40.5089617" lon="16.658775"><ele>49.0</ele><time>2026-03-29T13:11:58.455Z</time></trkpt><trkpt lat="40.508915" lon="16.658675"><ele>48.800000000000004</ele><time>2026-03-29T13:11:59.455Z</time></trkpt><trkpt lat="40.5088667" lon="16.6585767"><ele>48.6</ele><time>2026-03-29T13:12:00.455Z</time></trkpt><trkpt lat="40.5088217" lon="16.658475"><ele>48.4</ele><time>2026-03-29T13:12:01.454Z</time></trkpt><trkpt lat="40.5087767" lon="16.658375"><ele>48.2</ele><time>2026-03-29T13:12:02.456Z</time></trkpt><trkpt lat="40.50873" lon="16.6582733"><ele>48.0</ele><time>2026-03-29T13:12:03.455Z</time></trkpt><trkpt lat="40.5086817" lon="16.6581667"><ele>47.599999999999994</ele><time>2026-03-29T13:12:04.455Z</time></trkpt><trkpt lat="40.5086333" lon="16.6580617"><ele>47.199999999999996</ele><time>2026-03-29T13:12:05.458Z</time></trkpt><trkpt lat="40.50858" lon="16.6579633"><ele>46.8</ele><time>2026-03-29T13:12:06.454Z</time></trkpt><trkpt lat="40.5085267" lon="16.6578617"><ele>46.4</ele><time>2026-03-29T13:12:07.454Z</time></trkpt><trkpt lat="40.5084783" lon="16.6577583"><ele>46.0</ele><time>2026-03-29T13:12:08.455Z</time></trkpt><trkpt lat="40.5084283" lon="16.6576517"><ele>46.0</ele><time>2026-03-29T13:12:09.454Z</time></trkpt><trkpt lat="40.50838" lon="16.6575433"><ele>46.0</ele><time>2026-03-29T13:12:10.455Z</time></trkpt><trkpt lat="40.5083283" lon="16.6574333"><ele>46.0</ele><time>2026-03-29T13:12:11.454Z</time></trkpt><trkpt lat="40.5082733" lon="16.6573267"><ele>46.0</ele><time>2026-03-29T13:12:12.455Z</time></trkpt><trkpt lat="40.5082183" lon="16.65722"><ele>46.0</ele><time>2026-03-29T13:12:13.455Z</time></trkpt><trkpt lat="40.50817" lon="16.6571133"><ele>46.0</ele><time>2026-03-29T13:12:14.455Z</time></trkpt><trkpt lat="40.50812" lon="16.6570067"><ele>46.0</ele><time>2026-03-29T13:12:15.454Z</time></trkpt><trkpt lat="40.50807" lon="16.6569083"><ele>46.0</ele><time>2026-03-29T13:12:16.455Z</time></trkpt><trkpt lat="40.5080317" lon="16.6568133"><ele>46.0</ele><time>2026-03-29T13:12:17.455Z</time></trkpt><trkpt lat="40.5079983" lon="16.6567367"><ele>46.0</ele><time>2026-03-29T13:12:18.454Z</time></trkpt><trkpt lat="40.5079483" lon="16.6566533"><ele>46.0</ele><time>2026-03-29T13:12:20.456Z</time></trkpt><trkpt lat="40.507885" lon="16.6566917"><ele>46.0</ele><time>2026-03-29T13:12:24.455Z</time></trkpt><trkpt lat="40.50784" lon="16.6567967"><ele>46.0</ele><time>2026-03-29T13:12:26.456Z</time></trkpt><trkpt lat="40.5078017" lon="16.6568783"><ele>46.0</ele><time>2026-03-29T13:12:27.454Z</time></trkpt><trkpt lat="40.5077583" lon="16.6569583"><ele>46.0</ele><time>2026-03-29T13:12:28.454Z</time></trkpt><trkpt lat="40.507715" lon="16.657035"><ele>46.0</ele><time>2026-03-29T13:12:29.455Z</time></trkpt><trkpt lat="40.5076567" lon="16.6571517"><ele>46.0</ele><time>2026-03-29T13:12:31.454Z</time></trkpt><trkpt lat="40.50758" lon="16.65727"><ele>46.285714285714285</ele><time>2026-03-29T13:12:33.454Z</time></trkpt><trkpt lat="40.5075417" lon="16.6573433"><ele>46.57142857142857</ele><time>2026-03-29T13:12:34.455Z</time></trkpt><trkpt lat="40.5075017" lon="16.65742"><ele>46.857142857142854</ele><time>2026-03-29T13:12:35.454Z</time></trkpt><trkpt lat="40.5074567" lon="16.65749"><ele>47.14285714285714</ele><time>2026-03-29T13:12:36.454Z</time></trkpt><trkpt lat="40.5074133" lon="16.6575633"><ele>47.42857142857143</ele><time>2026-03-29T13:12:37.455Z</time></trkpt><trkpt lat="40.5073717" lon="16.65764"><ele>47.71428571428571</ele><time>2026-03-29T13:12:38.455Z</time></trkpt><trkpt lat="40.50733" lon="16.6577183"><ele>48.0</ele><time>2026-03-29T13:12:39.458Z</time></trkpt><trkpt lat="40.507285" lon="16.657795"><ele>47.99999999999999</ele><time>2026-03-29T13:12:40.455Z</time></trkpt><trkpt lat="40.5072433" lon="16.65787"><ele>48.0</ele><time>2026-03-29T13:12:41.454Z</time></trkpt><trkpt lat="40.5072033" lon="16.6579433"><ele>48.0</ele><time>2026-03-29T13:12:42.455Z</time></trkpt><trkpt lat="40.5071633" lon="16.6580133"><ele>48.0</ele><time>2026-03-29T13:12:43.456Z</time></trkpt><trkpt lat="40.507125" lon="16.658085"><ele>48.0</ele><time>2026-03-29T13:12:44.456Z</time></trkpt><trkpt lat="40.50709" lon="16.6581617"><ele>47.99999999999999</ele><time>2026-03-29T13:12:45.458Z</time></trkpt><trkpt lat="40.5070467" lon="16.6582417"><ele>48.0</ele><time>2026-03-29T13:12:46.454Z</time></trkpt><trkpt lat="40.5070033" lon="16.6583267"><ele>48.166666666666664</ele><time>2026-03-29T13:12:47.454Z</time></trkpt><trkpt lat="40.5069633" lon="16.658405"><ele>48.33333333333333</ele><time>2026-03-29T13:12:48.457Z</time></trkpt><trkpt lat="40.5069217" lon="16.6584783"><ele>48.5</ele><time>2026-03-29T13:12:49.455Z</time></trkpt><trkpt lat="40.5068417" lon="16.6586083"><ele>48.666666666666664</ele><time>2026-03-29T13:12:51.455Z</time></trkpt><trkpt lat="40.5067817" lon="16.6587067"><ele>48.83333333333333</ele><time>2026-03-29T13:12:53.454Z</time></trkpt><trkpt lat="40.5067783" lon="16.6588183"><ele>49.0</ele><time>2026-03-29T13:12:55.455Z</time></trkpt><trkpt lat="40.5068417" lon="16.6589067"><ele>48.666666666666664</ele><time>2026-03-29T13:12:58.457Z</time></trkpt><trkpt lat="40.506915" lon="16.6590433"><ele>48.33333333333333</ele><time>2026-03-29T13:13:00.454Z</time></trkpt><trkpt lat="40.5069583" lon="16.6591217"><ele>48.0</ele><time>2026-03-29T13:13:01.456Z</time></trkpt><trkpt lat="40.5070033" lon="16.6591983"><ele>47.666666666666664</ele><time>2026-03-29T13:13:02.457Z</time></trkpt><trkpt lat="40.5070483" lon="16.6592733"><ele>47.33333333333333</ele><time>2026-03-29T13:13:03.455Z</time></trkpt><trkpt lat="40.5070933" lon="16.6593467"><ele>47.0</ele><time>2026-03-29T13:13:04.455Z</time></trkpt><trkpt lat="40.5071367" lon="16.65942"><ele>46.83333333333333</ele><time>2026-03-29T13:13:05.456Z</time></trkpt><trkpt lat="40.507175" lon="16.65949"><ele>46.666666666666664</ele><time>2026-03-29T13:13:06.454Z</time></trkpt><trkpt lat="40.5072267" lon="16.6596083"><ele>46.5</ele><time>2026-03-29T13:13:08.455Z</time></trkpt><trkpt lat="40.5072" lon="16.6596967"><ele>46.333333333333336</ele><time>2026-03-29T13:13:10.455Z</time></trkpt><trkpt lat="40.5070967" lon="16.6597467"><ele>46.16666666666667</ele><time>2026-03-29T13:13:12.454Z</time></trkpt><trkpt lat="40.507025" lon="16.6597683"><ele>46.0</ele><time>2026-03-29T13:13:13.455Z</time></trkpt><trkpt lat="40.5069483" lon="16.6597917"><ele>45.85714285714286</ele><time>2026-03-29T13:13:14.455Z</time></trkpt><trkpt lat="40.5068767" lon="16.6598117"><ele>45.71428571428571</ele><time>2026-03-29T13:13:15.454Z</time></trkpt><trkpt lat="40.506805" lon="16.65983"><ele>45.57142857142857</ele><time>2026-03-29T13:13:16.454Z</time></trkpt><trkpt lat="40.50674" lon="16.659845"><ele>45.42857142857143</ele><time>2026-03-29T13:13:17.456Z</time></trkpt><trkpt lat="40.5066767" lon="16.6598617"><ele>45.28571428571429</ele><time>2026-03-29T13:13:18.456Z</time></trkpt><trkpt lat="40.5066117" lon="16.6598833"><ele>45.14285714285714</ele><time>2026-03-29T13:13:19.455Z</time></trkpt><trkpt lat="40.5065433" lon="16.6599083"><ele>45.0</ele><time>2026-03-29T13:13:20.455Z</time></trkpt><trkpt lat="40.5064667" lon="16.6599367"><ele>45.0</ele><time>2026-03-29T13:13:21.455Z</time></trkpt><trkpt lat="40.506385" lon="16.6599683"><ele>45.0</ele><time>2026-03-29T13:13:22.454Z</time></trkpt><trkpt lat="40.5063067" lon="16.6599917"><ele>45.0</ele><time>2026-03-29T13:13:23.455Z</time></trkpt><trkpt lat="40.5062333" lon="16.6600083"><ele>45.0</ele><time>2026-03-29T13:13:24.457Z</time></trkpt><trkpt lat="40.5061667" lon="16.6600233"><ele>45.0</ele><time>2026-03-29T13:13:25.455Z</time></trkpt><trkpt lat="40.5061017" lon="16.6600433"><ele>45.0</ele><time>2026-03-29T13:13:26.454Z</time></trkpt><trkpt lat="40.50604" lon="16.6600683"><ele>45.0</ele><time>2026-03-29T13:13:27.454Z</time></trkpt><trkpt lat="40.5059783" lon="16.6600917"><ele>45.166666666666664</ele><time>2026-03-29T13:13:28.458Z</time></trkpt><trkpt lat="40.505915" lon="16.6601017"><ele>45.333333333333336</ele><time>2026-03-29T13:13:29.454Z</time></trkpt><trkpt lat="40.5058517" lon="16.6601017"><ele>45.5</ele><time>2026-03-29T13:13:30.455Z</time></trkpt><trkpt lat="40.5057367" lon="16.6601117"><ele>45.66666666666667</ele><time>2026-03-29T13:13:32.459Z</time></trkpt><trkpt lat="40.5056133" lon="16.6601283"><ele>45.833333333333336</ele><time>2026-03-29T13:13:34.456Z</time></trkpt><trkpt lat="40.50555" lon="16.6601467"><ele>46.0</ele><time>2026-03-29T13:13:35.454Z</time></trkpt><trkpt lat="40.50549" lon="16.6601733"><ele>46.16666666666667</ele><time>2026-03-29T13:13:36.455Z</time></trkpt><trkpt lat="40.50539" lon="16.6602467"><ele>46.333333333333336</ele><time>2026-03-29T13:13:38.456Z</time></trkpt><trkpt lat="40.5052833" lon="16.6603083"><ele>46.5</ele><time>2026-03-29T13:13:40.455Z</time></trkpt><trkpt lat="40.50522" lon="16.6603317"><ele>46.666666666666664</ele><time>2026-03-29T13:13:41.458Z</time></trkpt><trkpt lat="40.505155" lon="16.660355"><ele>46.83333333333333</ele><time>2026-03-29T13:13:42.455Z</time></trkpt><trkpt lat="40.5050917" lon="16.6603733"><ele>47.0</ele><time>2026-03-29T13:13:43.455Z</time></trkpt><trkpt lat="40.5049783" lon="16.6604067"><ele>45.6</ele><time>2026-03-29T13:13:45.455Z</time></trkpt><trkpt lat="40.5048917" lon="16.6604317"><ele>44.2</ele><time>2026-03-29T13:13:47.454Z</time></trkpt><trkpt lat="40.50481" lon="16.66045"><ele>42.8</ele><time>2026-03-29T13:13:50.455Z</time></trkpt><trkpt lat="40.5048383" lon="16.6605267"><ele>41.4</ele><time>2026-03-29T13:14:09.453Z</time></trkpt><trkpt lat="40.504925" lon="16.6604817"><ele>40.0</ele><time>2026-03-29T13:14:15.453Z</time></trkpt><trkpt lat="40.50504" lon="16.660425"><ele>40.0</ele><time>2026-03-29T13:14:17.454Z</time></trkpt><trkpt lat="40.5051217" lon="16.6603967"><ele>40.0</ele><time>2026-03-29T13:14:18.454Z</time></trkpt><trkpt lat="40.505185" lon="16.6603667"><ele>40.0</ele><time>2026-03-29T13:14:19.456Z</time></trkpt><trkpt lat="40.5052517" lon="16.6603367"><ele>40.0</ele><time>2026-03-29T13:14:20.455Z</time></trkpt><trkpt lat="40.505315" lon="16.6603033"><ele>40.0</ele><time>2026-03-29T13:14:21.453Z</time></trkpt><trkpt lat="40.5053717" lon="16.6602617"><ele>40.0</ele><time>2026-03-29T13:14:22.454Z</time></trkpt><trkpt lat="40.5054283" lon="16.660205"><ele>40.0</ele><time>2026-03-29T13:14:23.454Z</time></trkpt><trkpt lat="40.5055467" lon="16.6601333"><ele>41.0</ele><time>2026-03-29T13:14:25.455Z</time></trkpt><trkpt lat="40.5056167" lon="16.6601067"><ele>42.0</ele><time>2026-03-29T13:14:26.454Z</time></trkpt><trkpt lat="40.5057333" lon="16.66009"><ele>43.0</ele><time>2026-03-29T13:14:28.455Z</time></trkpt><trkpt lat="40.5057967" lon="16.6600883"><ele>44.0</ele><time>2026-03-29T13:14:29.454Z</time></trkpt><trkpt lat="40.5058617" lon="16.66009"><ele>45.0</ele><time>2026-03-29T13:14:30.454Z</time></trkpt><trkpt lat="40.5059367" lon="16.660085"><ele>46.0</ele><time>2026-03-29T13:14:31.454Z</time></trkpt><trkpt lat="40.5060183" lon="16.660065"><ele>46.0</ele><time>2026-03-29T13:14:32.454Z</time></trkpt><trkpt lat="40.5061017" lon="16.660035"><ele>46.0</ele><time>2026-03-29T13:14:33.454Z</time></trkpt><trkpt lat="40.5061933" lon="16.6600083"><ele>46.0</ele><time>2026-03-29T13:14:34.457Z</time></trkpt><trkpt lat="40.506295" lon="16.659985"><ele>46.0</ele><time>2026-03-29T13:14:35.456Z</time></trkpt><trkpt lat="40.5064017" lon="16.6599533"><ele>46.0</ele><time>2026-03-29T13:14:36.456Z</time></trkpt><trkpt lat="40.5065067" lon="16.659915"><ele>45.8</ele><time>2026-03-29T13:14:37.454Z</time></trkpt><trkpt lat="40.5065917" lon="16.6598767"><ele>45.599999999999994</ele><time>2026-03-29T13:14:38.456Z</time></trkpt><trkpt lat="40.5066783" lon="16.65984"><ele>45.4</ele><time>2026-03-29T13:14:39.454Z</time></trkpt><trkpt lat="40.5067717" lon="16.6598117"><ele>45.2</ele><time>2026-03-29T13:14:40.454Z</time></trkpt><trkpt lat="40.5068633" lon="16.65979"><ele>45.0</ele><time>2026-03-29T13:14:41.454Z</time></trkpt><trkpt lat="40.5069583" lon="16.6597633"><ele>45.0</ele><time>2026-03-29T13:14:42.456Z</time></trkpt><trkpt lat="40.5070483" lon="16.65974"><ele>45.0</ele><time>2026-03-29T13:14:43.454Z</time></trkpt><trkpt lat="40.5071317" lon="16.659715"><ele>45.0</ele><time>2026-03-29T13:14:44.454Z</time></trkpt><trkpt lat="40.5072333" lon="16.6596767"><ele>45.0</ele><time>2026-03-29T13:14:46.453Z</time></trkpt><trkpt lat="40.507265" lon="16.6595983"><ele>45.0</ele><time>2026-03-29T13:14:48.457Z</time></trkpt><trkpt lat="40.5072083" lon="16.6594567"><ele>45.166666666666664</ele><time>2026-03-29T13:14:50.454Z</time></trkpt><trkpt lat="40.5071483" lon="16.6593633"><ele>45.333333333333336</ele><time>2026-03-29T13:14:51.453Z</time></trkpt><trkpt lat="40.50709" lon="16.6592667"><ele>45.5</ele><time>2026-03-29T13:14:52.455Z</time></trkpt><trkpt lat="40.5070283" lon="16.659175"><ele>45.66666666666667</ele><time>2026-03-29T13:14:53.454Z</time></trkpt><trkpt lat="40.506975" lon="16.6590983"><ele>45.833333333333336</ele><time>2026-03-29T13:14:54.454Z</time></trkpt><trkpt lat="40.5069283" lon="16.6590217"><ele>46.0</ele><time>2026-03-29T13:14:55.454Z</time></trkpt><trkpt lat="40.5068783" lon="16.6589533"><ele>46.199999999999996</ele><time>2026-03-29T13:14:56.454Z</time></trkpt><trkpt lat="40.506805" lon="16.6588467"><ele>46.4</ele><time>2026-03-29T13:14:58.455Z</time></trkpt><trkpt lat="40.50677" lon="16.6587333"><ele>46.6</ele><time>2026-03-29T13:15:00.454Z</time></trkpt><trkpt lat="40.5068267" lon="16.6586083"><ele>46.8</ele><time>2026-03-29T13:15:02.454Z</time></trkpt><trkpt lat="40.506875" lon="16.658535"><ele>47.0</ele><time>2026-03-29T13:15:03.457Z</time></trkpt><trkpt lat="40.5069183" lon="16.65846"><ele>47.14285714285714</ele><time>2026-03-29T13:15:04.454Z</time></trkpt><trkpt lat="40.506965" lon="16.6583783"><ele>47.285714285714285</ele><time>2026-03-29T13:15:05.454Z</time></trkpt><trkpt lat="40.5070167" lon="16.6583"><ele>47.42857142857143</ele><time>2026-03-29T13:15:06.453Z</time></trkpt><trkpt lat="40.50706" lon="16.6582283"><ele>47.57142857142857</ele><time>2026-03-29T13:15:07.453Z</time></trkpt><trkpt lat="40.5071017" lon="16.6581567"><ele>47.714285714285715</ele><time>2026-03-29T13:15:08.454Z</time></trkpt><trkpt lat="40.50714" lon="16.65808"><ele>47.857142857142854</ele><time>2026-03-29T13:15:09.455Z</time></trkpt><trkpt lat="40.50718" lon="16.658"><ele>48.0</ele><time>2026-03-29T13:15:10.454Z</time></trkpt><trkpt lat="40.5072267" lon="16.6579183"><ele>48.0</ele><time>2026-03-29T13:15:11.454Z</time></trkpt><trkpt lat="40.5072767" lon="16.6578367"><ele>48.0</ele><time>2026-03-29T13:15:12.454Z</time></trkpt><trkpt lat="40.5073283" lon="16.65774"><ele>48.0</ele><time>2026-03-29T13:15:13.454Z</time></trkpt><trkpt lat="40.5073833" lon="16.6576383"><ele>48.0</ele><time>2026-03-29T13:15:14.454Z</time></trkpt><trkpt lat="40.5074433" lon="16.6575333"><ele>48.0</ele><time>2026-03-29T13:15:15.454Z</time></trkpt><trkpt lat="40.5075" lon="16.657435"><ele>48.0</ele><time>2026-03-29T13:15:16.454Z</time></trkpt><trkpt lat="40.5075483" lon="16.6573433"><ele>48.0</ele><time>2026-03-29T13:15:17.454Z</time></trkpt><trkpt lat="40.5075867" lon="16.65727"><ele>48.0</ele><time>2026-03-29T13:15:18.454Z</time></trkpt><trkpt lat="40.5076583" lon="16.6571483"><ele>48.0</ele><time>2026-03-29T13:15:20.455Z</time></trkpt><trkpt lat="40.5076983" lon="16.6570817"><ele>48.0</ele><time>2026-03-29T13:15:21.455Z</time></trkpt><trkpt lat="40.50774" lon="16.6569783"><ele>48.0</ele><time>2026-03-29T13:15:22.454Z</time></trkpt><trkpt lat="40.5077917" lon="16.6568833"><ele>48.0</ele><time>2026-03-29T13:15:23.454Z</time></trkpt><trkpt lat="40.50784" lon="16.6567917"><ele>48.0</ele><time>2026-03-29T13:15:24.454Z</time></trkpt><trkpt lat="40.5078717" lon="16.6567183"><ele>48.0</ele><time>2026-03-29T13:15:25.454Z</time></trkpt><trkpt lat="40.507935" lon="16.6566133"><ele>48.0</ele><time>2026-03-29T13:15:27.454Z</time></trkpt><trkpt lat="40.5080017" lon="16.656495"><ele>48.0</ele><time>2026-03-29T13:15:29.456Z</time></trkpt><trkpt lat="40.5080433" lon="16.6564183"><ele>48.0</ele><time>2026-03-29T13:15:30.454Z</time></trkpt><trkpt lat="40.5080833" lon="16.65634"><ele>48.0</ele><time>2026-03-29T13:15:31.454Z</time></trkpt><trkpt lat="40.5081217" lon="16.65626"><ele>48.0</ele><time>2026-03-29T13:15:32.455Z</time></trkpt><trkpt lat="40.5081617" lon="16.6561717"><ele>48.0</ele><time>2026-03-29T13:15:33.455Z</time></trkpt><trkpt lat="40.5081983" lon="16.6560883"><ele>48.0</ele><time>2026-03-29T13:15:34.454Z</time></trkpt><trkpt lat="40.5082333" lon="16.6560117"><ele>48.0</ele><time>2026-03-29T13:15:35.456Z</time></trkpt><trkpt lat="40.5082767" lon="16.6559483"><ele>48.0</ele><time>2026-03-29T13:15:36.454Z</time></trkpt><trkpt lat="40.5083783" lon="16.65589"><ele>48.2</ele><time>2026-03-29T13:15:38.455Z</time></trkpt><trkpt lat="40.50848" lon="16.6558633"><ele>48.4</ele><time>2026-03-29T13:15:40.455Z</time></trkpt><trkpt lat="40.5085617" lon="16.6557983"><ele>48.6</ele><time>2026-03-29T13:15:42.454Z</time></trkpt><trkpt lat="40.50863" lon="16.6556767"><ele>48.800000000000004</ele><time>2026-03-29T13:15:44.458Z</time></trkpt><trkpt lat="40.5086983" lon="16.6555467"><ele>49.0</ele><time>2026-03-29T13:15:46.455Z</time></trkpt><trkpt lat="40.508765" lon="16.6554167"><ele>49.0</ele><time>2026-03-29T13:15:48.454Z</time></trkpt><trkpt lat="40.508835" lon="16.6553067"><ele>49.0</ele><time>2026-03-29T13:15:50.456Z</time></trkpt><trkpt lat="40.5088833" lon="16.655195"><ele>49.0</ele><time>2026-03-29T13:15:52.454Z</time></trkpt><trkpt lat="40.5089167" lon="16.655035"><ele>49.0</ele><time>2026-03-29T13:15:54.454Z</time></trkpt><trkpt lat="40.5089267" lon="16.6549483"><ele>49.0</ele><time>2026-03-29T13:15:55.454Z</time></trkpt><trkpt lat="40.50894" lon="16.6548633"><ele>48.0</ele><time>2026-03-29T13:15:56.454Z</time></trkpt><trkpt lat="40.5089617" lon="16.6547817"><ele>47.0</ele><time>2026-03-29T13:15:57.454Z</time></trkpt><trkpt lat="40.5090233" lon="16.6546433"><ele>46.0</ele><time>2026-03-29T13:15:59.454Z</time></trkpt><trkpt lat="40.5090967" lon="16.6545433"><ele>45.0</ele><time>2026-03-29T13:16:01.455Z</time></trkpt><trkpt lat="40.5091783" lon="16.6544583"><ele>44.0</ele><time>2026-03-29T13:16:03.456Z</time></trkpt><trkpt lat="40.5092217" lon="16.6543983"><ele>43.5</ele><time>2026-03-29T13:16:04.454Z</time></trkpt><trkpt lat="40.509265" lon="16.65432"><ele>43.0</ele><time>2026-03-29T13:16:05.454Z</time></trkpt><trkpt lat="40.5093083" lon="16.654235"><ele>42.5</ele><time>2026-03-29T13:16:06.453Z</time></trkpt><trkpt lat="40.50936" lon="16.6541567"><ele>42.0</ele><time>2026-03-29T13:16:07.453Z</time></trkpt><trkpt lat="40.5094067" lon="16.6540767"><ele>41.5</ele><time>2026-03-29T13:16:08.454Z</time></trkpt><trkpt lat="40.509455" lon="16.653995"><ele>41.0</ele><time>2026-03-29T13:16:09.454Z</time></trkpt><trkpt lat="40.5095117" lon="16.6539283"><ele>41.0</ele><time>2026-03-29T13:16:10.454Z</time></trkpt><trkpt lat="40.5095717" lon="16.653865"><ele>41.0</ele><time>2026-03-29T13:16:11.454Z</time></trkpt><trkpt lat="40.5096267" lon="16.6538017"><ele>41.0</ele><time>2026-03-29T13:16:12.454Z</time></trkpt><trkpt lat="40.5096883" lon="16.6537383"><ele>41.0</ele><time>2026-03-29T13:16:13.454Z</time></trkpt><trkpt lat="40.5097533" lon="16.65368"><ele>41.0</ele><time>2026-03-29T13:16:14.454Z</time></trkpt><trkpt lat="40.50981" lon="16.65363"><ele>41.0</ele><time>2026-03-29T13:16:15.454Z</time></trkpt><trkpt lat="40.5099083" lon="16.6535317"><ele>42.0</ele><time>2026-03-29T13:16:17.458Z</time></trkpt><trkpt lat="40.5100083" lon="16.6534283"><ele>43.0</ele><time>2026-03-29T13:16:19.454Z</time></trkpt><trkpt lat="40.5100617" lon="16.6533783"><ele>44.0</ele><time>2026-03-29T13:16:20.455Z</time></trkpt><trkpt lat="40.5101133" lon="16.6533267"><ele>45.0</ele><time>2026-03-29T13:16:21.454Z</time></trkpt><trkpt lat="40.5102017" lon="16.6532517"><ele>46.0</ele><time>2026-03-29T13:16:23.454Z</time></trkpt><trkpt lat="40.5102933" lon="16.6531767"><ele>46.0</ele><time>2026-03-29T13:16:25.454Z</time></trkpt><trkpt lat="40.51037" lon="16.6530767"><ele>46.0</ele><time>2026-03-29T13:16:27.453Z</time></trkpt><trkpt lat="40.5104467" lon="16.652985"><ele>46.0</ele><time>2026-03-29T13:16:29.453Z</time></trkpt><trkpt lat="40.5105017" lon="16.65292"><ele>46.0</ele><time>2026-03-29T13:16:31.454Z</time></trkpt><trkpt lat="40.5105133" lon="16.6528267"><ele>46.0</ele><time>2026-03-29T13:16:34.454Z</time></trkpt><trkpt lat="40.5105767" lon="16.65277"><ele>46.0</ele><time>2026-03-29T13:16:38.455Z</time></trkpt><trkpt lat="40.51064" lon="16.6527417"><ele>46.333333333333336</ele><time>2026-03-29T13:16:41.454Z</time></trkpt><trkpt lat="40.5106983" lon="16.652685"><ele>46.66666666666667</ele><time>2026-03-29T13:16:43.454Z</time></trkpt><trkpt lat="40.51074" lon="16.6526117"><ele>47.0</ele><time>2026-03-29T13:16:46.453Z</time></trkpt><trkpt lat="40.51067" lon="16.65265"><ele>47.333333333333336</ele><time>2026-03-29T13:16:58.453Z</time></trkpt><trkpt lat="40.5106383" lon="16.6527433"><ele>47.666666666666664</ele><time>2026-03-29T13:17:00.454Z</time></trkpt><trkpt lat="40.5105733" lon="16.65284"><ele>48.0</ele><time>2026-03-29T13:17:02.455Z</time></trkpt><trkpt lat="40.5105267" lon="16.6529"><ele>48.0</ele><time>2026-03-29T13:17:03.455Z</time></trkpt><trkpt lat="40.5104717" lon="16.6529583"><ele>48.0</ele><time>2026-03-29T13:17:04.454Z</time></trkpt><trkpt lat="40.5104133" lon="16.653015"><ele>48.0</ele><time>2026-03-29T13:17:05.454Z</time></trkpt><trkpt lat="40.5103567" lon="16.65307"><ele>48.0</ele><time>2026-03-29T13:17:06.454Z</time></trkpt><trkpt lat="40.510275" lon="16.6531717"><ele>48.0</ele><time>2026-03-29T13:17:08.455Z</time></trkpt><trkpt lat="40.510195" lon="16.6532517"><ele>48.0</ele><time>2026-03-29T13:17:10.454Z</time></trkpt><trkpt lat="40.5101417" lon="16.6533017"><ele>47.99999999999999</ele><time>2026-03-29T13:17:11.454Z</time></trkpt><trkpt lat="40.51008" lon="16.6533617"><ele>48.0</ele><time>2026-03-29T13:17:12.454Z</time></trkpt><trkpt lat="40.5100167" lon="16.6534217"><ele>48.0</ele><time>2026-03-29T13:17:13.454Z</time></trkpt><trkpt lat="40.50996" lon="16.65348"><ele>48.0</ele><time>2026-03-29T13:17:14.454Z</time></trkpt><trkpt lat="40.509905" lon="16.653535"><ele>48.0</ele><time>2026-03-29T13:17:15.454Z</time></trkpt><trkpt lat="40.50985" lon="16.65359"><ele>47.99999999999999</ele><time>2026-03-29T13:17:16.456Z</time></trkpt><trkpt lat="40.5097967" lon="16.653645"><ele>48.0</ele><time>2026-03-29T13:17:17.454Z</time></trkpt><trkpt lat="40.50974" lon="16.6537083"><ele>47.99999999999999</ele><time>2026-03-29T13:17:18.454Z</time></trkpt><trkpt lat="40.5096833" lon="16.653775"><ele>48.0</ele><time>2026-03-29T13:17:19.454Z</time></trkpt><trkpt lat="40.5096267" lon="16.65384"><ele>48.0</ele><time>2026-03-29T13:17:20.454Z</time></trkpt><trkpt lat="40.50957" lon="16.6539033"><ele>48.0</ele><time>2026-03-29T13:17:21.454Z</time></trkpt><trkpt lat="40.5095117" lon="16.6539667"><ele>48.0</ele><time>2026-03-29T13:17:22.454Z</time></trkpt><trkpt lat="40.50946" lon="16.6540283"><ele>47.99999999999999</ele><time>2026-03-29T13:17:23.454Z</time></trkpt><trkpt lat="40.5094083" lon="16.6540917"><ele>48.0</ele><time>2026-03-29T13:17:24.454Z</time></trkpt><trkpt lat="40.5093583" lon="16.6541583"><ele>47.333333333333336</ele><time>2026-03-29T13:17:25.454Z</time></trkpt><trkpt lat="40.5093117" lon="16.65423"><ele>46.666666666666664</ele><time>2026-03-29T13:17:26.454Z</time></trkpt><trkpt lat="40.5092667" lon="16.654305"><ele>46.0</ele><time>2026-03-29T13:17:27.459Z</time></trkpt><trkpt lat="40.5092233" lon="16.6543683"><ele>45.33333333333333</ele><time>2026-03-29T13:17:28.454Z</time></trkpt><trkpt lat="40.5091483" lon="16.6544617"><ele>44.666666666666664</ele><time>2026-03-29T13:17:30.456Z</time></trkpt><trkpt lat="40.5090833" lon="16.65453"><ele>44.0</ele><time>2026-03-29T13:17:32.454Z</time></trkpt><trkpt lat="40.509025" lon="16.654615"><ele>44.0</ele><time>2026-03-29T13:17:34.455Z</time></trkpt><trkpt lat="40.5089733" lon="16.654755"><ele>44.0</ele><time>2026-03-29T13:17:36.454Z</time></trkpt><trkpt lat="40.5089567" lon="16.6548433"><ele>44.0</ele><time>2026-03-29T13:17:37.454Z</time></trkpt><trkpt lat="40.50893" lon="16.654995"><ele>44.0</ele><time>2026-03-29T13:17:39.454Z</time></trkpt><trkpt lat="40.5089017" lon="16.6551533"><ele>44.0</ele><time>2026-03-29T13:17:41.455Z</time></trkpt><trkpt lat="40.5088467" lon="16.6552917"><ele>43.83333333333333</ele><time>2026-03-29T13:17:43.456Z</time></trkpt><trkpt lat="40.5088017" lon="16.65536"><ele>43.666666666666664</ele><time>2026-03-29T13:17:44.455Z</time></trkpt><trkpt lat="40.5087583" lon="16.655435"><ele>43.5</ele><time>2026-03-29T13:17:45.455Z</time></trkpt><trkpt lat="40.5087167" lon="16.655515"><ele>43.333333333333336</ele><time>2026-03-29T13:17:46.454Z</time></trkpt><trkpt lat="40.5086683" lon="16.6556"><ele>43.16666666666667</ele><time>2026-03-29T13:17:47.453Z</time></trkpt><trkpt lat="40.5086267" lon="16.655665"><ele>43.0</ele><time>2026-03-29T13:17:48.456Z</time></trkpt><trkpt lat="40.5085567" lon="16.6557883"><ele>43.0</ele><time>2026-03-29T13:17:50.454Z</time></trkpt><trkpt lat="40.5084567" lon="16.65588"><ele>43.0</ele><time>2026-03-29T13:17:52.456Z</time></trkpt><trkpt lat="40.5083417" lon="16.6559067"><ele>43.0</ele><time>2026-03-29T13:17:54.455Z</time></trkpt><trkpt lat="40.5082483" lon="16.6559717"><ele>43.0</ele><time>2026-03-29T13:17:56.454Z</time></trkpt><trkpt lat="40.5082083" lon="16.6560383"><ele>43.0</ele><time>2026-03-29T13:17:57.454Z</time></trkpt><trkpt lat="40.508175" lon="16.65611"><ele>43.833333333333336</ele><time>2026-03-29T13:17:58.454Z</time></trkpt><trkpt lat="40.5081383" lon="16.6562017"><ele>44.66666666666667</ele><time>2026-03-29T13:17:59.455Z</time></trkpt><trkpt lat="40.5081017" lon="16.6562883"><ele>45.5</ele><time>2026-03-29T13:18:00.454Z</time></trkpt><trkpt lat="40.50806" lon="16.6563717"><ele>46.333333333333336</ele><time>2026-03-29T13:18:01.454Z</time></trkpt><trkpt lat="40.5080133" lon="16.656455"><ele>47.166666666666664</ele><time>2026-03-29T13:18:02.454Z</time></trkpt><trkpt lat="40.5079717" lon="16.6565267"><ele>48.0</ele><time>2026-03-29T13:18:03.454Z</time></trkpt><trkpt lat="40.50794" lon="16.656635"><ele>48.0</ele><time>2026-03-29T13:18:05.456Z</time></trkpt><trkpt lat="40.5079683" lon="16.656745"><ele>48.0</ele><time>2026-03-29T13:18:07.454Z</time></trkpt><trkpt lat="40.508015" lon="16.6568333"><ele>48.0</ele><time>2026-03-29T13:18:08.453Z</time></trkpt><trkpt lat="40.5080683" lon="16.6569433"><ele>48.0</ele><time>2026-03-29T13:18:09.454Z</time></trkpt><trkpt lat="40.5081217" lon="16.6570633"><ele>48.0</ele><time>2026-03-29T13:18:10.455Z</time></trkpt><trkpt lat="40.5081817" lon="16.657185"><ele>47.599999999999994</ele><time>2026-03-29T13:18:11.454Z</time></trkpt><trkpt lat="40.5082417" lon="16.657315"><ele>47.199999999999996</ele><time>2026-03-29T13:18:12.455Z</time></trkpt><trkpt lat="40.5083" lon="16.6574367"><ele>46.8</ele><time>2026-03-29T13:18:13.454Z</time></trkpt><trkpt lat="40.50836" lon="16.6575583"><ele>46.4</ele><time>2026-03-29T13:18:14.455Z</time></trkpt><trkpt lat="40.50842" lon="16.6576833"><ele>46.0</ele><time>2026-03-29T13:18:15.454Z</time></trkpt><trkpt lat="40.5084833" lon="16.65781"><ele>46.0</ele><time>2026-03-29T13:18:16.454Z</time></trkpt><trkpt lat="40.5085517" lon="16.65794"><ele>46.0</ele><time>2026-03-29T13:18:17.454Z</time></trkpt><trkpt lat="40.5086217" lon="16.658075"><ele>46.0</ele><time>2026-03-29T13:18:18.454Z</time></trkpt><trkpt lat="40.50869" lon="16.6582083"><ele>46.0</ele><time>2026-03-29T13:18:19.454Z</time></trkpt><trkpt lat="40.5087533" lon="16.65834"><ele>46.4</ele><time>2026-03-29T13:18:20.455Z</time></trkpt><trkpt lat="40.508815" lon="16.6584717"><ele>46.8</ele><time>2026-03-29T13:18:21.454Z</time></trkpt><trkpt lat="40.508875" lon="16.6585983"><ele>47.199999999999996</ele><time>2026-03-29T13:18:22.455Z</time></trkpt><trkpt lat="40.5089333" lon="16.6587233"><ele>47.599999999999994</ele><time>2026-03-29T13:18:23.454Z</time></trkpt><trkpt lat="40.5089867" lon="16.658845"><ele>48.0</ele><time>2026-03-29T13:18:24.454Z</time></trkpt><trkpt lat="40.50904" lon="16.6589717"><ele>48.25</ele><time>2026-03-29T13:18:25.456Z</time></trkpt><trkpt lat="40.5090967" lon="16.6591"><ele>48.5</ele><time>2026-03-29T13:18:26.454Z</time></trkpt><trkpt lat="40.5091585" lon="16.6592268"><ele>48.75</ele><time>2026-03-29T13:18:27.453Z</time></trkpt><trkpt lat="40.5092184" lon="16.6593521"><ele>49.0</ele><time>2026-03-29T13:18:28.454Z</time></trkpt><trkpt lat="40.5092748" lon="16.6594781"><ele>48.6</ele><time>2026-03-29T13:18:29.454Z</time></trkpt><trkpt lat="40.5093292" lon="16.6596004"><ele>48.2</ele><time>2026-03-29T13:18:30.455Z</time></trkpt><trkpt lat="40.509384" lon="16.6597259"><ele>47.800000000000004</ele><time>2026-03-29T13:18:31.455Z</time></trkpt><trkpt lat="40.5094367" lon="16.6598434"><ele>47.400000000000006</ele><time>2026-03-29T13:18:32.456Z</time></trkpt><trkpt lat="40.5094888" lon="16.6599531"><ele>47.0</ele><time>2026-03-29T13:18:33.455Z</time></trkpt><trkpt lat="40.5095418" lon="16.6600675"><ele>47.0</ele><time>2026-03-29T13:18:34.454Z</time></trkpt><trkpt lat="40.5095976" lon="16.6601887"><ele>47.0</ele><time>2026-03-29T13:18:35.456Z</time></trkpt><trkpt lat="40.5096545" lon="16.6603123"><ele>47.0</ele><time>2026-03-29T13:18:36.454Z</time></trkpt><trkpt lat="40.5097146" lon="16.6604404"><ele>47.0</ele><time>2026-03-29T13:18:37.455Z</time></trkpt><trkpt lat="40.5097755" lon="16.6605703"><ele>47.0</ele><time>2026-03-29T13:18:38.459Z</time></trkpt><trkpt lat="40.509837" lon="16.6607025"><ele>47.0</ele><time>2026-03-29T13:18:39.454Z</time></trkpt><trkpt lat="40.5099014" lon="16.6608378"><ele>47.0</ele><time>2026-03-29T13:18:40.456Z</time></trkpt><trkpt lat="40.509965" lon="16.6609705"><ele>47.0</ele><time>2026-03-29T13:18:41.456Z</time></trkpt><trkpt lat="40.5100272" lon="16.6611035"><ele>47.0</ele><time>2026-03-29T13:18:42.454Z</time></trkpt><trkpt lat="40.5100885" lon="16.6612373"><ele>47.25</ele><time>2026-03-29T13:18:43.454Z</time></trkpt><trkpt lat="40.5101484" lon="16.6613693"><ele>47.5</ele><time>2026-03-29T13:18:44.454Z</time></trkpt><trkpt lat="40.5102058" lon="16.6615001"><ele>47.75</ele><time>2026-03-29T13:18:45.456Z</time></trkpt><trkpt lat="40.5102622" lon="16.6616289"><ele>48.0</ele><time>2026-03-29T13:18:46.454Z</time></trkpt><trkpt lat="40.5103176" lon="16.661755"><ele>48.0</ele><time>2026-03-29T13:18:47.454Z</time></trkpt><trkpt lat="40.5103721" lon="16.6618733"><ele>48.0</ele><time>2026-03-29T13:18:48.455Z</time></trkpt><trkpt lat="40.5104243" lon="16.6619907"><ele>48.0</ele><time>2026-03-29T13:18:49.454Z</time></trkpt><trkpt lat="40.5104773" lon="16.6621063"><ele>48.0</ele><time>2026-03-29T13:18:50.456Z</time></trkpt><trkpt lat="40.5105301" lon="16.6622161"><ele>48.0</ele><time>2026-03-29T13:18:51.454Z</time></trkpt><trkpt lat="40.5105819" lon="16.6623243"><ele>48.333333333333336</ele><time>2026-03-29T13:18:52.456Z</time></trkpt><trkpt lat="40.5106345" lon="16.6624321"><ele>48.66666666666667</ele><time>2026-03-29T13:18:53.455Z</time></trkpt><trkpt lat="40.5106827" lon="16.6625399"><ele>49.0</ele><time>2026-03-29T13:18:54.454Z</time></trkpt><trkpt lat="40.5107205" lon="16.662641"><ele>49.333333333333336</ele><time>2026-03-29T13:18:55.454Z</time></trkpt><trkpt lat="40.5107544" lon="16.662729"><ele>49.66666666666667</ele><time>2026-03-29T13:18:56.455Z</time></trkpt><trkpt lat="40.510792" lon="16.6627959"><ele>50.0</ele><time>2026-03-29T13:18:57.454Z</time></trkpt><trkpt lat="40.5108975" lon="16.6628639"><ele>50.00000000000001</ele><time>2026-03-29T13:18:59.454Z</time></trkpt><trkpt lat="40.5109743" lon="16.6628916"><ele>50.0</ele><time>2026-03-29T13:19:00.454Z</time></trkpt><trkpt lat="40.5110506" lon="16.6629118"><ele>50.0</ele><time>2026-03-29T13:19:01.454Z</time></trkpt><trkpt lat="40.5111249" lon="16.6629298"><ele>50.0</ele><time>2026-03-29T13:19:02.454Z</time></trkpt><trkpt lat="40.5112238" lon="16.6629795"><ele>50.00000000000001</ele><time>2026-03-29T13:19:04.454Z</time></trkpt><trkpt lat="40.511303" lon="16.6629714"><ele>50.0</ele><time>2026-03-29T13:19:07.458Z</time></trkpt><trkpt lat="40.5113936" lon="16.6628965"><ele>50.4</ele><time>2026-03-29T13:19:09.456Z</time></trkpt><trkpt lat="40.5114567" lon="16.6628278"><ele>50.8</ele><time>2026-03-29T13:19:10.456Z</time></trkpt><trkpt lat="40.5115332" lon="16.6627414"><ele>51.2</ele><time>2026-03-29T13:19:11.454Z</time></trkpt><trkpt lat="40.5116195" lon="16.6626407"><ele>51.6</ele><time>2026-03-29T13:19:12.454Z</time></trkpt><trkpt lat="40.5117072" lon="16.6625331"><ele>52.0</ele><time>2026-03-29T13:19:13.459Z</time></trkpt><trkpt lat="40.5117959" lon="16.6624227"><ele>52.0</ele><time>2026-03-29T13:19:14.455Z</time></trkpt><trkpt lat="40.511885" lon="16.6623128"><ele>52.0</ele><time>2026-03-29T13:19:15.454Z</time></trkpt><trkpt lat="40.5119739" lon="16.6622037"><ele>52.0</ele><time>2026-03-29T13:19:16.454Z</time></trkpt><trkpt lat="40.5120626" lon="16.6620952"><ele>52.0</ele><time>2026-03-29T13:19:17.454Z</time></trkpt><trkpt lat="40.5121527" lon="16.6619848"><ele>51.25</ele><time>2026-03-29T13:19:18.457Z</time></trkpt><trkpt lat="40.5122455" lon="16.6618728"><ele>50.5</ele><time>2026-03-29T13:19:19.454Z</time></trkpt><trkpt lat="40.5123407" lon="16.6617568"><ele>49.75</ele><time>2026-03-29T13:19:20.455Z</time></trkpt><trkpt lat="40.5124433" lon="16.6616356"><ele>49.0</ele><time>2026-03-29T13:19:21.454Z</time></trkpt><trkpt lat="40.5125556" lon="16.6615076"><ele>49.0</ele><time>2026-03-29T13:19:22.454Z</time></trkpt><trkpt lat="40.5126723" lon="16.6613742"><ele>49.0</ele><time>2026-03-29T13:19:23.455Z</time></trkpt><trkpt lat="40.5127901" lon="16.6612386"><ele>49.0</ele><time>2026-03-29T13:19:24.454Z</time></trkpt><trkpt lat="40.5129105" lon="16.6611028"><ele>50.0</ele><time>2026-03-29T13:19:25.454Z</time></trkpt><trkpt lat="40.5130312" lon="16.6609674"><ele>51.0</ele><time>2026-03-29T13:19:26.458Z</time></trkpt><trkpt lat="40.5131526" lon="16.6608285"><ele>52.0</ele><time>2026-03-29T13:19:27.453Z</time></trkpt><trkpt lat="40.513273" lon="16.6606898"><ele>52.0</ele><time>2026-03-29T13:19:28.454Z</time></trkpt><trkpt lat="40.5133917" lon="16.6605587"><ele>52.0</ele><time>2026-03-29T13:19:29.454Z</time></trkpt><trkpt lat="40.5135126" lon="16.660429"><ele>52.0</ele><time>2026-03-29T13:19:30.454Z</time></trkpt><trkpt lat="40.513637" lon="16.6602974"><ele>52.0</ele><time>2026-03-29T13:19:31.454Z</time></trkpt><trkpt lat="40.5137595" lon="16.6601627"><ele>52.0</ele><time>2026-03-29T13:19:32.455Z</time></trkpt><trkpt lat="40.5138797" lon="16.660023"><ele>52.0</ele><time>2026-03-29T13:19:33.455Z</time></trkpt><trkpt lat="40.5139997" lon="16.6598828"><ele>52.0</ele><time>2026-03-29T13:19:34.454Z</time></trkpt><trkpt lat="40.5141224" lon="16.6597458"><ele>52.0</ele><time>2026-03-29T13:19:35.454Z</time></trkpt><trkpt lat="40.5142456" lon="16.6596093"><ele>52.0</ele><time>2026-03-29T13:19:36.454Z</time></trkpt><trkpt lat="40.5143663" lon="16.6594739"><ele>51.666666666666664</ele><time>2026-03-29T13:19:37.455Z</time></trkpt><trkpt lat="40.5144878" lon="16.6593363"><ele>51.33333333333333</ele><time>2026-03-29T13:19:38.455Z</time></trkpt><trkpt lat="40.5146149" lon="16.6591964"><ele>51.0</ele><time>2026-03-29T13:19:39.537Z</time></trkpt><trkpt lat="40.5147351" lon="16.659065"><ele>52.66666666666667</ele><time>2026-03-29T13:19:40.455Z</time></trkpt><trkpt lat="40.5148619" lon="16.658929"><ele>54.333333333333336</ele><time>2026-03-29T13:19:41.454Z</time></trkpt><trkpt lat="40.5149928" lon="16.6587914"><ele>56.0</ele><time>2026-03-29T13:19:42.454Z</time></trkpt><trkpt lat="40.5151253" lon="16.6586556"><ele>56.0</ele><time>2026-03-29T13:19:43.454Z</time></trkpt><trkpt lat="40.5152587" lon="16.6585206"><ele>56.0</ele><time>2026-03-29T13:19:44.455Z</time></trkpt><trkpt lat="40.5153923" lon="16.6583913"><ele>56.0</ele><time>2026-03-29T13:19:45.454Z</time></trkpt><trkpt lat="40.5155289" lon="16.6582663"><ele>56.0</ele><time>2026-03-29T13:19:46.454Z</time></trkpt><trkpt lat="40.5156703" lon="16.6581416"><ele>56.0</ele><time>2026-03-29T13:19:47.454Z</time></trkpt><trkpt lat="40.5158152" lon="16.6580126"><ele>56.0</ele><time>2026-03-29T13:19:48.453Z</time></trkpt><trkpt lat="40.515963" lon="16.6578811"><ele>55.333333333333336</ele><time>2026-03-29T13:19:49.454Z</time></trkpt><trkpt lat="40.5161089" lon="16.6577451"><ele>54.66666666666667</ele><time>2026-03-29T13:19:50.455Z</time></trkpt><trkpt lat="40.5162546" lon="16.6576096"><ele>54.0</ele><time>2026-03-29T13:19:51.454Z</time></trkpt><trkpt lat="40.5164014" lon="16.6574759"><ele>55.33333333333333</ele><time>2026-03-29T13:19:52.459Z</time></trkpt><trkpt lat="40.5165438" lon="16.6573445"><ele>56.666666666666664</ele><time>2026-03-29T13:19:53.454Z</time></trkpt><trkpt lat="40.5166869" lon="16.6572142"><ele>58.0</ele><time>2026-03-29T13:19:54.454Z</time></trkpt><trkpt lat="40.5168299" lon="16.6570871"><ele>58.0</ele><time>2026-03-29T13:19:55.454Z</time></trkpt><trkpt lat="40.5169715" lon="16.6569632"><ele>58.0</ele><time>2026-03-29T13:19:56.456Z</time></trkpt><trkpt lat="40.5171103" lon="16.6568385"><ele>58.0</ele><time>2026-03-29T13:19:57.455Z</time></trkpt><trkpt lat="40.5172526" lon="16.6567136"><ele>58.0</ele><time>2026-03-29T13:19:58.454Z</time></trkpt><trkpt lat="40.517396" lon="16.656589"><ele>58.0</ele><time>2026-03-29T13:19:59.456Z</time></trkpt><trkpt lat="40.5175379" lon="16.6564681"><ele>58.0</ele><time>2026-03-29T13:20:00.454Z</time></trkpt><trkpt lat="40.5176796" lon="16.6563457"><ele>58.0</ele><time>2026-03-29T13:20:01.454Z</time></trkpt><trkpt lat="40.5178226" lon="16.6562242"><ele>58.0</ele><time>2026-03-29T13:20:02.455Z</time></trkpt><trkpt lat="40.5179673" lon="16.6561029"><ele>58.0</ele><time>2026-03-29T13:20:03.454Z</time></trkpt><trkpt lat="40.5181138" lon="16.6559828"><ele>58.33333333333333</ele><time>2026-03-29T13:20:04.455Z</time></trkpt><trkpt lat="40.5182566" lon="16.6558673"><ele>58.66666666666667</ele><time>2026-03-29T13:20:05.454Z</time></trkpt><trkpt lat="40.518401" lon="16.6557538"><ele>59.0</ele><time>2026-03-29T13:20:06.454Z</time></trkpt><trkpt lat="40.5185461" lon="16.6556409"><ele>59.0</ele><time>2026-03-29T13:20:07.453Z</time></trkpt><trkpt lat="40.5186899" lon="16.6555289"><ele>59.0</ele><time>2026-03-29T13:20:08.455Z</time></trkpt><trkpt lat="40.5188334" lon="16.6554115"><ele>59.0</ele><time>2026-03-29T13:20:09.461Z</time></trkpt><trkpt lat="40.5189775" lon="16.6552919"><ele>58.66666666666667</ele><time>2026-03-29T13:20:10.454Z</time></trkpt><trkpt lat="40.5191242" lon="16.6551719"><ele>58.33333333333333</ele><time>2026-03-29T13:20:11.454Z</time></trkpt><trkpt lat="40.5192708" lon="16.6550508"><ele>58.0</ele><time>2026-03-29T13:20:12.454Z</time></trkpt><trkpt lat="40.5194147" lon="16.6549345"><ele>58.0</ele><time>2026-03-29T13:20:13.455Z</time></trkpt><trkpt lat="40.5195568" lon="16.6548193"><ele>58.0</ele><time>2026-03-29T13:20:14.455Z</time></trkpt><trkpt lat="40.5196982" lon="16.6547058"><ele>58.0</ele><time>2026-03-29T13:20:15.454Z</time></trkpt><trkpt lat="40.5198341" lon="16.6545924"><ele>58.666666666666664</ele><time>2026-03-29T13:20:16.455Z</time></trkpt><trkpt lat="40.51997" lon="16.654476"><ele>59.33333333333333</ele><time>2026-03-29T13:20:17.454Z</time></trkpt><trkpt lat="40.5201065" lon="16.6543593"><ele>60.0</ele><time>2026-03-29T13:20:18.454Z</time></trkpt><trkpt lat="40.5202457" lon="16.6542456"><ele>59.66666666666667</ele><time>2026-03-29T13:20:19.454Z</time></trkpt><trkpt lat="40.5203888" lon="16.6541324"><ele>59.333333333333336</ele><time>2026-03-29T13:20:20.455Z</time></trkpt><trkpt lat="40.5205369" lon="16.654019"><ele>59.0</ele><time>2026-03-29T13:20:21.454Z</time></trkpt><trkpt lat="40.520686" lon="16.6539015"><ele>59.0</ele><time>2026-03-29T13:20:22.454Z</time></trkpt><trkpt lat="40.5208347" lon="16.6537812"><ele>59.0</ele><time>2026-03-29T13:20:23.454Z</time></trkpt><trkpt lat="40.5209847" lon="16.6536575"><ele>59.0</ele><time>2026-03-29T13:20:24.457Z</time></trkpt><trkpt lat="40.5211346" lon="16.6535314"><ele>59.0</ele><time>2026-03-29T13:20:25.454Z</time></trkpt><trkpt lat="40.5212846" lon="16.6534045"><ele>59.0</ele><time>2026-03-29T13:20:26.455Z</time></trkpt><trkpt lat="40.5214344" lon="16.6532763"><ele>59.0</ele><time>2026-03-29T13:20:27.454Z</time></trkpt><trkpt lat="40.5215845" lon="16.6531549"><ele>59.0</ele><time>2026-03-29T13:20:28.458Z</time></trkpt><trkpt lat="40.5217332" lon="16.6530382"><ele>59.0</ele><time>2026-03-29T13:20:29.454Z</time></trkpt><trkpt lat="40.5218871" lon="16.6529213"><ele>59.0</ele><time>2026-03-29T13:20:30.454Z</time></trkpt><trkpt lat="40.522042" lon="16.6528056"><ele>59.333333333333336</ele><time>2026-03-29T13:20:31.455Z</time></trkpt><trkpt lat="40.5221958" lon="16.6526842"><ele>59.66666666666667</ele><time>2026-03-29T13:20:32.455Z</time></trkpt><trkpt lat="40.522348" lon="16.6525624"><ele>60.0</ele><time>2026-03-29T13:20:33.454Z</time></trkpt><trkpt lat="40.522501" lon="16.652439"><ele>60.0</ele><time>2026-03-29T13:20:34.454Z</time></trkpt><trkpt lat="40.5226518" lon="16.6523143"><ele>60.0</ele><time>2026-03-29T13:20:35.454Z</time></trkpt><trkpt lat="40.5228031" lon="16.6521908"><ele>60.0</ele><time>2026-03-29T13:20:36.455Z</time></trkpt><trkpt lat="40.522952" lon="16.6520634"><ele>60.0</ele><time>2026-03-29T13:20:37.454Z</time></trkpt><trkpt lat="40.5231019" lon="16.6519363"><ele>60.0</ele><time>2026-03-29T13:20:38.456Z</time></trkpt><trkpt lat="40.5232532" lon="16.6518095"><ele>60.0</ele><time>2026-03-29T13:20:39.455Z</time></trkpt><trkpt lat="40.5234076" lon="16.6516844"><ele>60.0</ele><time>2026-03-29T13:20:40.454Z</time></trkpt><trkpt lat="40.5235625" lon="16.6515596"><ele>60.0</ele><time>2026-03-29T13:20:41.454Z</time></trkpt><trkpt lat="40.5237151" lon="16.6514359"><ele>60.0</ele><time>2026-03-29T13:20:42.455Z</time></trkpt><trkpt lat="40.5238652" lon="16.6513142"><ele>60.0</ele><time>2026-03-29T13:20:43.454Z</time></trkpt><trkpt lat="40.5240133" lon="16.6511955"><ele>60.0</ele><time>2026-03-29T13:20:44.454Z</time></trkpt><trkpt lat="40.5241601" lon="16.6510781"><ele>60.0</ele><time>2026-03-29T13:20:45.454Z</time></trkpt><trkpt lat="40.5243109" lon="16.6509646"><ele>60.0</ele><time>2026-03-29T13:20:46.454Z</time></trkpt><trkpt lat="40.5244612" lon="16.6508499"><ele>60.0</ele><time>2026-03-29T13:20:47.453Z</time></trkpt><trkpt lat="40.5246086" lon="16.6507331"><ele>60.0</ele><time>2026-03-29T13:20:48.454Z</time></trkpt><trkpt lat="40.5247565" lon="16.6506145"><ele>60.0</ele><time>2026-03-29T13:20:49.457Z</time></trkpt><trkpt lat="40.5249032" lon="16.6504961"><ele>60.0</ele><time>2026-03-29T13:20:50.456Z</time></trkpt><trkpt lat="40.5250513" lon="16.650379"><ele>60.0</ele><time>2026-03-29T13:20:51.454Z</time></trkpt><trkpt lat="40.5252011" lon="16.6502654"><ele>60.0</ele><time>2026-03-29T13:20:52.454Z</time></trkpt><trkpt lat="40.5253499" lon="16.6501563"><ele>60.0</ele><time>2026-03-29T13:20:53.455Z</time></trkpt><trkpt lat="40.525498" lon="16.6500457"><ele>60.0</ele><time>2026-03-29T13:20:54.454Z</time></trkpt><trkpt lat="40.5256434" lon="16.6499314"><ele>61.33333333333333</ele><time>2026-03-29T13:20:55.455Z</time></trkpt><trkpt lat="40.5257885" lon="16.6498144"><ele>62.666666666666664</ele><time>2026-03-29T13:20:56.459Z</time></trkpt><trkpt lat="40.5259314" lon="16.6497008"><ele>64.0</ele><time>2026-03-29T13:20:57.455Z</time></trkpt><trkpt lat="40.526072" lon="16.6495902"><ele>64.0</ele><time>2026-03-29T13:20:58.454Z</time></trkpt><trkpt lat="40.5262133" lon="16.6494796"><ele>64.0</ele><time>2026-03-29T13:20:59.455Z</time></trkpt><trkpt lat="40.526355" lon="16.6493678"><ele>64.0</ele><time>2026-03-29T13:21:00.455Z</time></trkpt><trkpt lat="40.5264967" lon="16.6492545"><ele>64.66666666666666</ele><time>2026-03-29T13:21:01.455Z</time></trkpt><trkpt lat="40.5266407" lon="16.6491409"><ele>65.33333333333333</ele><time>2026-03-29T13:21:02.456Z</time></trkpt><trkpt lat="40.5267855" lon="16.6490278"><ele>66.0</ele><time>2026-03-29T13:21:03.454Z</time></trkpt><trkpt lat="40.5270713" lon="16.6488041"><ele>66.0</ele><time>2026-03-29T13:21:05.454Z</time></trkpt><trkpt lat="40.527213" lon="16.6486938"><ele>66.0</ele><time>2026-03-29T13:21:06.454Z</time></trkpt><trkpt lat="40.5273533" lon="16.6485769"><ele>66.0</ele><time>2026-03-29T13:21:07.454Z</time></trkpt><trkpt lat="40.5274906" lon="16.6484536"><ele>65.33333333333333</ele><time>2026-03-29T13:21:08.455Z</time></trkpt><trkpt lat="40.5276257" lon="16.6483184"><ele>64.66666666666666</ele><time>2026-03-29T13:21:09.454Z</time></trkpt><trkpt lat="40.5277588" lon="16.648169"><ele>64.0</ele><time>2026-03-29T13:21:10.454Z</time></trkpt><trkpt lat="40.5278888" lon="16.6480058"><ele>64.33333333333333</ele><time>2026-03-29T13:21:11.454Z</time></trkpt><trkpt lat="40.5280183" lon="16.6478336"><ele>64.66666666666667</ele><time>2026-03-29T13:21:12.454Z</time></trkpt><trkpt lat="40.5281465" lon="16.6476545"><ele>65.0</ele><time>2026-03-29T13:21:13.455Z</time></trkpt><trkpt lat="40.5282703" lon="16.647472"><ele>65.0</ele><time>2026-03-29T13:21:14.454Z</time></trkpt><trkpt lat="40.5283904" lon="16.647285"><ele>65.0</ele><time>2026-03-29T13:21:15.454Z</time></trkpt><trkpt lat="40.5285099" lon="16.6470964"><ele>65.0</ele><time>2026-03-29T13:21:16.454Z</time></trkpt><trkpt lat="40.52863" lon="16.6469122"><ele>65.33333333333334</ele><time>2026-03-29T13:21:17.454Z</time></trkpt><trkpt lat="40.52875" lon="16.6467321"><ele>65.66666666666667</ele><time>2026-03-29T13:21:18.454Z</time></trkpt><trkpt lat="40.5288713" lon="16.6465523"><ele>66.0</ele><time>2026-03-29T13:21:19.454Z</time></trkpt><trkpt lat="40.5289929" lon="16.6463739"><ele>66.0</ele><time>2026-03-29T13:21:20.455Z</time></trkpt><trkpt lat="40.5291148" lon="16.6461987"><ele>66.0</ele><time>2026-03-29T13:21:21.455Z</time></trkpt><trkpt lat="40.5292392" lon="16.646025"><ele>66.0</ele><time>2026-03-29T13:21:22.455Z</time></trkpt><trkpt lat="40.5293672" lon="16.645852"><ele>65.66666666666667</ele><time>2026-03-29T13:21:23.454Z</time></trkpt><trkpt lat="40.5294985" lon="16.6456803"><ele>65.33333333333334</ele><time>2026-03-29T13:21:24.454Z</time></trkpt><trkpt lat="40.529629" lon="16.6455085"><ele>65.0</ele><time>2026-03-29T13:21:25.455Z</time></trkpt><trkpt lat="40.5297582" lon="16.6453392"><ele>64.0</ele><time>2026-03-29T13:21:26.454Z</time></trkpt><trkpt lat="40.5298822" lon="16.6451696"><ele>63.0</ele><time>2026-03-29T13:21:27.454Z</time></trkpt><trkpt lat="40.5300051" lon="16.6449964"><ele>62.0</ele><time>2026-03-29T13:21:28.453Z</time></trkpt><trkpt lat="40.5301279" lon="16.6448232"><ele>62.0</ele><time>2026-03-29T13:21:29.455Z</time></trkpt><trkpt lat="40.5302521" lon="16.6446562"><ele>62.0</ele><time>2026-03-29T13:21:30.454Z</time></trkpt><trkpt lat="40.5303771" lon="16.6444944"><ele>62.0</ele><time>2026-03-29T13:21:31.454Z</time></trkpt><trkpt lat="40.5305039" lon="16.6443385"><ele>61.66666666666667</ele><time>2026-03-29T13:21:32.454Z</time></trkpt><trkpt lat="40.530638" lon="16.6441919"><ele>61.33333333333333</ele><time>2026-03-29T13:21:33.454Z</time></trkpt><trkpt lat="40.5307865" lon="16.6440585"><ele>61.0</ele><time>2026-03-29T13:21:34.455Z</time></trkpt><trkpt lat="40.5309455" lon="16.6439342"><ele>61.0</ele><time>2026-03-29T13:21:35.454Z</time></trkpt><trkpt lat="40.5311095" lon="16.6438127"><ele>61.0</ele><time>2026-03-29T13:21:36.454Z</time></trkpt><trkpt lat="40.5312738" lon="16.6436934"><ele>61.0</ele><time>2026-03-29T13:21:37.454Z</time></trkpt><trkpt lat="40.5314362" lon="16.6435774"><ele>60.33333333333333</ele><time>2026-03-29T13:21:38.455Z</time></trkpt><trkpt lat="40.5315992" lon="16.6434611"><ele>59.66666666666667</ele><time>2026-03-29T13:21:39.455Z</time></trkpt><trkpt lat="40.5317625" lon="16.6433456"><ele>59.0</ele><time>2026-03-29T13:21:40.456Z</time></trkpt><trkpt lat="40.5319268" lon="16.6432283"><ele>59.66666666666667</ele><time>2026-03-29T13:21:41.455Z</time></trkpt><trkpt lat="40.5320895" lon="16.64311"><ele>60.33333333333333</ele><time>2026-03-29T13:21:42.454Z</time></trkpt><trkpt lat="40.5322498" lon="16.6429944"><ele>61.0</ele><time>2026-03-29T13:21:43.455Z</time></trkpt><trkpt lat="40.5324013" lon="16.6428896"><ele>60.75</ele><time>2026-03-29T13:21:44.455Z</time></trkpt><trkpt lat="40.5325401" lon="16.6427932"><ele>60.5</ele><time>2026-03-29T13:21:45.454Z</time></trkpt><trkpt lat="40.5326675" lon="16.642701"><ele>60.25</ele><time>2026-03-29T13:21:46.453Z</time></trkpt><trkpt lat="40.532781" lon="16.6426148"><ele>60.0</ele><time>2026-03-29T13:21:47.454Z</time></trkpt><trkpt lat="40.5328828" lon="16.6425369"><ele>60.0</ele><time>2026-03-29T13:21:48.453Z</time></trkpt><trkpt lat="40.532973" lon="16.6424753"><ele>60.0</ele><time>2026-03-29T13:21:49.454Z</time></trkpt><trkpt lat="40.5330492" lon="16.6424376"><ele>60.0</ele><time>2026-03-29T13:21:50.455Z</time></trkpt><trkpt lat="40.5331512" lon="16.6423929"><ele>60.0</ele><time>2026-03-29T13:21:52.454Z</time></trkpt><trkpt lat="40.5332266" lon="16.642299"><ele>60.0</ele><time>2026-03-29T13:21:56.454Z</time></trkpt><trkpt lat="40.53331" lon="16.6421924"><ele>60.0</ele><time>2026-03-29T13:21:58.454Z</time></trkpt><trkpt lat="40.5333701" lon="16.6421083"><ele>60.0</ele><time>2026-03-29T13:21:59.455Z</time></trkpt><trkpt lat="40.5334434" lon="16.6420165"><ele>60.0</ele><time>2026-03-29T13:22:00.456Z</time></trkpt><trkpt lat="40.5335296" lon="16.6419176"><ele>60.0</ele><time>2026-03-29T13:22:01.455Z</time></trkpt><trkpt lat="40.533625" lon="16.6418093"><ele>60.0</ele><time>2026-03-29T13:22:02.455Z</time></trkpt><trkpt lat="40.5337242" lon="16.6416998"><ele>59.75</ele><time>2026-03-29T13:22:03.457Z</time></trkpt><trkpt lat="40.533825" lon="16.6415892"><ele>59.5</ele><time>2026-03-29T13:22:04.455Z</time></trkpt><trkpt lat="40.533928" lon="16.6414771"><ele>59.25</ele><time>2026-03-29T13:22:05.454Z</time></trkpt><trkpt lat="40.5340304" lon="16.6413649"><ele>59.0</ele><time>2026-03-29T13:22:06.453Z</time></trkpt><trkpt lat="40.5341354" lon="16.641252"><ele>59.0</ele><time>2026-03-29T13:22:07.454Z</time></trkpt><trkpt lat="40.5342407" lon="16.6411403"><ele>59.0</ele><time>2026-03-29T13:22:08.454Z</time></trkpt><trkpt lat="40.5343458" lon="16.6410254"><ele>59.0</ele><time>2026-03-29T13:22:09.454Z</time></trkpt><trkpt lat="40.5344521" lon="16.6409081"><ele>59.0</ele><time>2026-03-29T13:22:10.455Z</time></trkpt><trkpt lat="40.5345605" lon="16.640785"><ele>59.66666666666667</ele><time>2026-03-29T13:22:11.455Z</time></trkpt><trkpt lat="40.5346734" lon="16.6406567"><ele>60.33333333333333</ele><time>2026-03-29T13:22:12.454Z</time></trkpt><trkpt lat="40.534793" lon="16.6405221"><ele>61.0</ele><time>2026-03-29T13:22:13.454Z</time></trkpt><trkpt lat="40.534918" lon="16.6403836"><ele>59.33333333333333</ele><time>2026-03-29T13:22:14.455Z</time></trkpt><trkpt lat="40.535045" lon="16.6402432"><ele>57.66666666666667</ele><time>2026-03-29T13:22:15.454Z</time></trkpt><trkpt lat="40.5351738" lon="16.6400998"><ele>56.0</ele><time>2026-03-29T13:22:16.454Z</time></trkpt><trkpt lat="40.5352999" lon="16.6399601"><ele>58.333333333333336</ele><time>2026-03-29T13:22:17.456Z</time></trkpt><trkpt lat="40.5354246" lon="16.6398221"><ele>60.66666666666667</ele><time>2026-03-29T13:22:18.454Z</time></trkpt><trkpt lat="40.5355498" lon="16.6396784"><ele>63.0</ele><time>2026-03-29T13:22:19.455Z</time></trkpt><trkpt lat="40.535676" lon="16.6395324"><ele>62.0</ele><time>2026-03-29T13:22:20.456Z</time></trkpt><trkpt lat="40.5358026" lon="16.6393896"><ele>61.0</ele><time>2026-03-29T13:22:21.454Z</time></trkpt><trkpt lat="40.535931" lon="16.6392514"><ele>60.0</ele><time>2026-03-29T13:22:22.454Z</time></trkpt><trkpt lat="40.5360595" lon="16.6391109"><ele>60.0</ele><time>2026-03-29T13:22:23.454Z</time></trkpt><trkpt lat="40.5361877" lon="16.6389665"><ele>60.0</ele><time>2026-03-29T13:22:24.454Z</time></trkpt><trkpt lat="40.5363148" lon="16.6388207"><ele>60.0</ele><time>2026-03-29T13:22:25.454Z</time></trkpt><trkpt lat="40.5364429" lon="16.6386728"><ele>60.0</ele><time>2026-03-29T13:22:26.454Z</time></trkpt><trkpt lat="40.5365728" lon="16.6385276"><ele>60.0</ele><time>2026-03-29T13:22:27.453Z</time></trkpt><trkpt lat="40.5367031" lon="16.6383817"><ele>60.0</ele><time>2026-03-29T13:22:28.453Z</time></trkpt><trkpt lat="40.5368326" lon="16.6382339"><ele>60.0</ele><time>2026-03-29T13:22:29.455Z</time></trkpt><trkpt lat="40.5369611" lon="16.6380869"><ele>60.0</ele><time>2026-03-29T13:22:30.456Z</time></trkpt><trkpt lat="40.5370908" lon="16.6379435"><ele>60.0</ele><time>2026-03-29T13:22:31.455Z</time></trkpt><trkpt lat="40.5372197" lon="16.6378013"><ele>60.66666666666667</ele><time>2026-03-29T13:22:32.456Z</time></trkpt><trkpt lat="40.5373452" lon="16.6376578"><ele>61.333333333333336</ele><time>2026-03-29T13:22:33.454Z</time></trkpt><trkpt lat="40.5374688" lon="16.6375123"><ele>62.0</ele><time>2026-03-29T13:22:34.455Z</time></trkpt><trkpt lat="40.5375888" lon="16.6373693"><ele>62.0</ele><time>2026-03-29T13:22:35.454Z</time></trkpt><trkpt lat="40.5377048" lon="16.6372341"><ele>62.0</ele><time>2026-03-29T13:22:36.456Z</time></trkpt><trkpt lat="40.5378227" lon="16.6371045"><ele>62.0</ele><time>2026-03-29T13:22:37.454Z</time></trkpt><trkpt lat="40.5379413" lon="16.6369733"><ele>62.333333333333336</ele><time>2026-03-29T13:22:38.456Z</time></trkpt><trkpt lat="40.5380584" lon="16.6368397"><ele>62.66666666666667</ele><time>2026-03-29T13:22:39.456Z</time></trkpt><trkpt lat="40.5381776" lon="16.6367051"><ele>63.0</ele><time>2026-03-29T13:22:40.454Z</time></trkpt><trkpt lat="40.5383017" lon="16.636568"><ele>63.0</ele><time>2026-03-29T13:22:41.458Z</time></trkpt><trkpt lat="40.5384285" lon="16.6364267"><ele>63.0</ele><time>2026-03-29T13:22:42.454Z</time></trkpt><trkpt lat="40.5385587" lon="16.6362826"><ele>63.0</ele><time>2026-03-29T13:22:43.457Z</time></trkpt><trkpt lat="40.5386877" lon="16.6361402"><ele>62.0</ele><time>2026-03-29T13:22:44.454Z</time></trkpt><trkpt lat="40.5388181" lon="16.6359965"><ele>61.0</ele><time>2026-03-29T13:22:45.454Z</time></trkpt><trkpt lat="40.5389479" lon="16.6358497"><ele>60.0</ele><time>2026-03-29T13:22:46.454Z</time></trkpt><trkpt lat="40.5390763" lon="16.6356998"><ele>60.0</ele><time>2026-03-29T13:22:47.453Z</time></trkpt><trkpt lat="40.5392036" lon="16.6355481"><ele>60.0</ele><time>2026-03-29T13:22:48.453Z</time></trkpt><trkpt lat="40.539325" lon="16.6353869"><ele>60.0</ele><time>2026-03-29T13:22:49.455Z</time></trkpt><trkpt lat="40.5394341" lon="16.6352089"><ele>59.0</ele><time>2026-03-29T13:22:50.455Z</time></trkpt><trkpt lat="40.5395257" lon="16.6350166"><ele>58.0</ele><time>2026-03-29T13:22:51.455Z</time></trkpt><trkpt lat="40.5396039" lon="16.634814"><ele>57.0</ele><time>2026-03-29T13:22:52.454Z</time></trkpt><trkpt lat="40.5396759" lon="16.6346095"><ele>58.66666666666667</ele><time>2026-03-29T13:22:53.456Z</time></trkpt><trkpt lat="40.5397484" lon="16.6344048"><ele>60.333333333333336</ele><time>2026-03-29T13:22:54.454Z</time></trkpt><trkpt lat="40.5398205" lon="16.6341994"><ele>62.0</ele><time>2026-03-29T13:22:55.454Z</time></trkpt><trkpt lat="40.5398915" lon="16.633994"><ele>62.0</ele><time>2026-03-29T13:22:56.455Z</time></trkpt><trkpt lat="40.5399651" lon="16.6337954"><ele>62.0</ele><time>2026-03-29T13:22:57.454Z</time></trkpt><trkpt lat="40.5400558" lon="16.6336113"><ele>62.0</ele><time>2026-03-29T13:22:58.454Z</time></trkpt><trkpt lat="40.5401724" lon="16.6334481"><ele>62.0</ele><time>2026-03-29T13:22:59.455Z</time></trkpt><trkpt lat="40.540315" lon="16.6333116"><ele>62.0</ele><time>2026-03-29T13:23:00.457Z</time></trkpt><trkpt lat="40.5404764" lon="16.6332089"><ele>62.0</ele><time>2026-03-29T13:23:01.456Z</time></trkpt><trkpt lat="40.5406518" lon="16.6331353"><ele>62.0</ele><time>2026-03-29T13:23:02.455Z</time></trkpt><trkpt lat="40.5408296" lon="16.6330668"><ele>62.0</ele><time>2026-03-29T13:23:03.455Z</time></trkpt><trkpt lat="40.5410114" lon="16.6330065"><ele>62.0</ele><time>2026-03-29T13:23:04.454Z</time></trkpt><trkpt lat="40.5411923" lon="16.6329499"><ele>61.66666666666667</ele><time>2026-03-29T13:23:05.46Z</time></trkpt><trkpt lat="40.541368" lon="16.6328918"><ele>61.33333333333333</ele><time>2026-03-29T13:23:06.454Z</time></trkpt><trkpt lat="40.5415431" lon="16.632831"><ele>61.0</ele><time>2026-03-29T13:23:07.456Z</time></trkpt><trkpt lat="40.5417164" lon="16.6327679"><ele>60.33333333333333</ele><time>2026-03-29T13:23:08.454Z</time></trkpt><trkpt lat="40.5418881" lon="16.6327046"><ele>59.66666666666667</ele><time>2026-03-29T13:23:09.455Z</time></trkpt><trkpt lat="40.5420511" lon="16.6326467"><ele>59.0</ele><time>2026-03-29T13:23:10.454Z</time></trkpt><trkpt lat="40.5422036" lon="16.632595"><ele>59.0</ele><time>2026-03-29T13:23:11.455Z</time></trkpt><trkpt lat="40.5423411" lon="16.6325464"><ele>59.0</ele><time>2026-03-29T13:23:12.454Z</time></trkpt><trkpt lat="40.5424607" lon="16.6325032"><ele>59.0</ele><time>2026-03-29T13:23:13.456Z</time></trkpt><trkpt lat="40.5425715" lon="16.6324636"><ele>59.0</ele><time>2026-03-29T13:23:14.455Z</time></trkpt><trkpt lat="40.5426873" lon="16.6324212"><ele>59.0</ele><time>2026-03-29T13:23:15.454Z</time></trkpt><trkpt lat="40.5428104" lon="16.6323721"><ele>59.0</ele><time>2026-03-29T13:23:16.454Z</time></trkpt><trkpt lat="40.5429399" lon="16.6323202"><ele>59.0</ele><time>2026-03-29T13:23:17.454Z</time></trkpt><trkpt lat="40.5430762" lon="16.6322737"><ele>59.0</ele><time>2026-03-29T13:23:18.454Z</time></trkpt><trkpt lat="40.5432208" lon="16.6322272"><ele>59.0</ele><time>2026-03-29T13:23:19.454Z</time></trkpt><trkpt lat="40.5433667" lon="16.6321797"><ele>59.0</ele><time>2026-03-29T13:23:20.456Z</time></trkpt><trkpt lat="40.5435065" lon="16.6321315"><ele>59.0</ele><time>2026-03-29T13:23:21.455Z</time></trkpt><trkpt lat="40.5436353" lon="16.6320857"><ele>59.0</ele><time>2026-03-29T13:23:22.456Z</time></trkpt><trkpt lat="40.5437553" lon="16.6320404"><ele>58.800000000000004</ele><time>2026-03-29T13:23:23.454Z</time></trkpt><trkpt lat="40.5438631" lon="16.632"><ele>58.60000000000001</ele><time>2026-03-29T13:23:24.454Z</time></trkpt><trkpt lat="40.5439596" lon="16.6319674"><ele>58.4</ele><time>2026-03-29T13:23:25.454Z</time></trkpt><trkpt lat="40.5440433" lon="16.6319328"><ele>58.2</ele><time>2026-03-29T13:23:26.456Z</time></trkpt><trkpt lat="40.5441066" lon="16.63189"><ele>58.0</ele><time>2026-03-29T13:23:27.454Z</time></trkpt><trkpt lat="40.5441537" lon="16.6317545"><ele>57.99999999999999</ele><time>2026-03-29T13:23:29.456Z</time></trkpt><trkpt lat="40.5441328" lon="16.6316602"><ele>58.0</ele><time>2026-03-29T13:23:30.454Z</time></trkpt><trkpt lat="40.5440959" lon="16.6315495"><ele>58.0</ele><time>2026-03-29T13:23:31.454Z</time></trkpt><trkpt lat="40.544065" lon="16.6314354"><ele>58.0</ele><time>2026-03-29T13:23:32.456Z</time></trkpt><trkpt lat="40.544041" lon="16.6313202"><ele>57.99999999999999</ele><time>2026-03-29T13:23:33.454Z</time></trkpt><trkpt lat="40.5440175" lon="16.6312089"><ele>58.0</ele><time>2026-03-29T13:23:34.454Z</time></trkpt><trkpt lat="40.5439846" lon="16.6311113"><ele>57.57142857142858</ele><time>2026-03-29T13:23:35.455Z</time></trkpt><trkpt lat="40.5439405" lon="16.631027"><ele>57.142857142857146</ele><time>2026-03-29T13:23:36.456Z</time></trkpt><trkpt lat="40.5438987" lon="16.630945"><ele>56.714285714285715</ele><time>2026-03-29T13:23:37.454Z</time></trkpt><trkpt lat="40.5438629" lon="16.6308595"><ele>56.28571428571429</ele><time>2026-03-29T13:23:38.456Z</time></trkpt><trkpt lat="40.5438327" lon="16.6307689"><ele>55.85714285714286</ele><time>2026-03-29T13:23:39.454Z</time></trkpt><trkpt lat="40.5438074" lon="16.6306798"><ele>55.42857142857142</ele><time>2026-03-29T13:23:40.454Z</time></trkpt><trkpt lat="40.5437861" lon="16.6305911"><ele>55.0</ele><time>2026-03-29T13:23:41.456Z</time></trkpt><trkpt lat="40.5437718" lon="16.6304987"><ele>54.99999999999999</ele><time>2026-03-29T13:23:42.456Z</time></trkpt><trkpt lat="40.5437663" lon="16.6304024"><ele>55.0</ele><time>2026-03-29T13:23:43.454Z</time></trkpt><trkpt lat="40.5437681" lon="16.6302981"><ele>55.0</ele><time>2026-03-29T13:23:44.455Z</time></trkpt><trkpt lat="40.543771" lon="16.6301809"><ele>55.0</ele><time>2026-03-29T13:23:45.455Z</time></trkpt><trkpt lat="40.5437732" lon="16.6300531"><ele>54.99999999999999</ele><time>2026-03-29T13:23:46.454Z</time></trkpt><trkpt lat="40.5437778" lon="16.6299208"><ele>55.0</ele><time>2026-03-29T13:23:47.455Z</time></trkpt><trkpt lat="40.5437829" lon="16.6297812"><ele>55.0</ele><time>2026-03-29T13:23:48.454Z</time></trkpt><trkpt lat="40.5437851" lon="16.6296368"><ele>55.0</ele><time>2026-03-29T13:23:49.454Z</time></trkpt><trkpt lat="40.5437825" lon="16.6294897"><ele>55.0</ele><time>2026-03-29T13:23:50.455Z</time></trkpt><trkpt lat="40.543777" lon="16.6293438"><ele>55.0</ele><time>2026-03-29T13:23:51.454Z</time></trkpt><trkpt lat="40.5437684" lon="16.6291969"><ele>55.0</ele><time>2026-03-29T13:23:52.454Z</time></trkpt><trkpt lat="40.5437564" lon="16.6290513"><ele>55.0</ele><time>2026-03-29T13:23:53.454Z</time></trkpt><trkpt lat="40.5437444" lon="16.6289119"><ele>55.0</ele><time>2026-03-29T13:23:54.454Z</time></trkpt><trkpt lat="40.543734" lon="16.6287813"><ele>55.0</ele><time>2026-03-29T13:23:55.454Z</time></trkpt><trkpt lat="40.5437259" lon="16.6286611"><ele>55.0</ele><time>2026-03-29T13:23:56.455Z</time></trkpt><trkpt lat="40.5437188" lon="16.6285509"><ele>55.0</ele><time>2026-03-29T13:23:57.455Z</time></trkpt><trkpt lat="40.5437098" lon="16.6284491"><ele>54.99999999999999</ele><time>2026-03-29T13:23:58.454Z</time></trkpt><trkpt lat="40.5436971" lon="16.6283566"><ele>55.0</ele><time>2026-03-29T13:23:59.473Z</time></trkpt><trkpt lat="40.5436842" lon="16.6282099"><ele>55.0</ele><time>2026-03-29T13:24:01.456Z</time></trkpt><trkpt lat="40.5436732" lon="16.6281138"><ele>55.0</ele><time>2026-03-29T13:24:03.453Z</time></trkpt><trkpt lat="40.5436717" lon="16.628015"><ele>54.99999999999999</ele><time>2026-03-29T13:24:59.454Z</time></trkpt><trkpt lat="40.5436483" lon="16.627865"><ele>55.0</ele><time>2026-03-29T13:25:01.454Z</time></trkpt><trkpt lat="40.5436433" lon="16.627745"><ele>55.0</ele><time>2026-03-29T13:25:02.456Z</time></trkpt><trkpt lat="40.5436367" lon="16.6276117"><ele>55.0</ele><time>2026-03-29T13:25:03.455Z</time></trkpt><trkpt lat="40.543625" lon="16.6274767"><ele>55.0</ele><time>2026-03-29T13:25:04.454Z</time></trkpt><trkpt lat="40.5436067" lon="16.6273333"><ele>55.0</ele><time>2026-03-29T13:25:05.454Z</time></trkpt><trkpt lat="40.54359" lon="16.6271933"><ele>55.0</ele><time>2026-03-29T13:25:06.453Z</time></trkpt><trkpt lat="40.5435783" lon="16.62706"><ele>55.0</ele><time>2026-03-29T13:25:07.454Z</time></trkpt><trkpt lat="40.5435683" lon="16.6269317"><ele>55.0</ele><time>2026-03-29T13:25:08.455Z</time></trkpt><trkpt lat="40.54356" lon="16.626805"><ele>55.0</ele><time>2026-03-29T13:25:09.454Z</time></trkpt><trkpt lat="40.543545" lon="16.6266783"><ele>55.0</ele><time>2026-03-29T13:25:10.454Z</time></trkpt><trkpt lat="40.5435283" lon="16.6265467"><ele>55.0</ele><time>2026-03-29T13:25:11.454Z</time></trkpt><trkpt lat="40.5435133" lon="16.6264133"><ele>55.0</ele><time>2026-03-29T13:25:12.454Z</time></trkpt><trkpt lat="40.5435017" lon="16.62628"><ele>55.0</ele><time>2026-03-29T13:25:13.454Z</time></trkpt><trkpt lat="40.54349" lon="16.6261483"><ele>55.0</ele><time>2026-03-29T13:25:14.455Z</time></trkpt><trkpt lat="40.5434783" lon="16.6260167"><ele>55.0</ele><time>2026-03-29T13:25:15.454Z</time></trkpt><trkpt lat="40.543465" lon="16.6258867"><ele>55.0</ele><time>2026-03-29T13:25:16.454Z</time></trkpt><trkpt lat="40.5434533" lon="16.6257617"><ele>54.33333333333333</ele><time>2026-03-29T13:25:17.455Z</time></trkpt><trkpt lat="40.5434433" lon="16.62564"><ele>53.666666666666664</ele><time>2026-03-29T13:25:18.454Z</time></trkpt><trkpt lat="40.5434417" lon="16.6255217"><ele>53.0</ele><time>2026-03-29T13:25:19.454Z</time></trkpt><trkpt lat="40.5434517" lon="16.6254017"><ele>52.33333333333333</ele><time>2026-03-29T13:25:20.454Z</time></trkpt><trkpt lat="40.5434683" lon="16.62529"><ele>51.666666666666664</ele><time>2026-03-29T13:25:21.454Z</time></trkpt><trkpt lat="40.5434883" lon="16.62518"><ele>51.0</ele><time>2026-03-29T13:25:22.454Z</time></trkpt><trkpt lat="40.5435033" lon="16.6250683"><ele>49.833333333333336</ele><time>2026-03-29T13:25:23.455Z</time></trkpt><trkpt lat="40.5435183" lon="16.624955"><ele>48.666666666666664</ele><time>2026-03-29T13:25:24.454Z</time></trkpt><trkpt lat="40.5435367" lon="16.6248383"><ele>47.5</ele><time>2026-03-29T13:25:25.454Z</time></trkpt><trkpt lat="40.5435533" lon="16.6247217"><ele>46.33333333333333</ele><time>2026-03-29T13:25:26.454Z</time></trkpt><trkpt lat="40.5435717" lon="16.6246083"><ele>45.166666666666664</ele><time>2026-03-29T13:25:27.454Z</time></trkpt><trkpt lat="40.54359" lon="16.6244917"><ele>44.0</ele><time>2026-03-29T13:25:28.453Z</time></trkpt><trkpt lat="40.543605" lon="16.6243783"><ele>43.5</ele><time>2026-03-29T13:25:29.455Z</time></trkpt><trkpt lat="40.54362" lon="16.624265"><ele>43.0</ele><time>2026-03-29T13:25:30.454Z</time></trkpt><trkpt lat="40.5436367" lon="16.6241583"><ele>42.5</ele><time>2026-03-29T13:25:31.455Z</time></trkpt><trkpt lat="40.5436517" lon="16.624055"><ele>42.0</ele><time>2026-03-29T13:25:32.455Z</time></trkpt><trkpt lat="40.5436667" lon="16.6239617"><ele>41.5</ele><time>2026-03-29T13:25:33.454Z</time></trkpt><trkpt lat="40.5436883" lon="16.6238433"><ele>41.0</ele><time>2026-03-29T13:25:35.455Z</time></trkpt><trkpt lat="40.5437017" lon="16.6237367"><ele>41.0</ele><time>2026-03-29T13:25:38.455Z</time></trkpt><trkpt lat="40.5437067" lon="16.6236383"><ele>41.0</ele><time>2026-03-29T13:25:40.455Z</time></trkpt><trkpt lat="40.543715" lon="16.6235117"><ele>41.0</ele><time>2026-03-29T13:25:42.454Z</time></trkpt><trkpt lat="40.543745" lon="16.6233817"><ele>41.0</ele><time>2026-03-29T13:25:44.455Z</time></trkpt><trkpt lat="40.54377" lon="16.6232267"><ele>41.0</ele><time>2026-03-29T13:25:46.454Z</time></trkpt><trkpt lat="40.5437833" lon="16.623135"><ele>40.8</ele><time>2026-03-29T13:25:47.453Z</time></trkpt><trkpt lat="40.5437933" lon="16.623045"><ele>40.599999999999994</ele><time>2026-03-29T13:25:48.456Z</time></trkpt><trkpt lat="40.54381" lon="16.622915"><ele>40.4</ele><time>2026-03-29T13:25:50.455Z</time></trkpt><trkpt lat="40.5438217" lon="16.62278"><ele>40.2</ele><time>2026-03-29T13:25:58.455Z</time></trkpt><trkpt lat="40.5438467" lon="16.6226517"><ele>40.0</ele><time>2026-03-29T13:26:00.454Z</time></trkpt><trkpt lat="40.5438767" lon="16.6224933"><ele>40.66666666666667</ele><time>2026-03-29T13:26:02.455Z</time></trkpt><trkpt lat="40.54389" lon="16.6224033"><ele>41.333333333333336</ele><time>2026-03-29T13:26:03.455Z</time></trkpt><trkpt lat="40.5439033" lon="16.6223033"><ele>42.0</ele><time>2026-03-29T13:26:04.454Z</time></trkpt><trkpt lat="40.54392" lon="16.6222017"><ele>42.666666666666664</ele><time>2026-03-29T13:26:05.455Z</time></trkpt><trkpt lat="40.54393" lon="16.6221033"><ele>43.33333333333333</ele><time>2026-03-29T13:26:06.455Z</time></trkpt><trkpt lat="40.5439367" lon="16.6220067"><ele>44.0</ele><time>2026-03-29T13:26:07.455Z</time></trkpt><trkpt lat="40.54393" lon="16.6219033"><ele>45.6</ele><time>2026-03-29T13:26:08.455Z</time></trkpt><trkpt lat="40.5439083" lon="16.621785"><ele>47.2</ele><time>2026-03-29T13:26:09.454Z</time></trkpt><trkpt lat="40.543875" lon="16.621655"><ele>48.800000000000004</ele><time>2026-03-29T13:26:10.454Z</time></trkpt><trkpt lat="40.5438283" lon="16.6215117"><ele>50.400000000000006</ele><time>2026-03-29T13:26:11.454Z</time></trkpt><trkpt lat="40.5437767" lon="16.621375"><ele>52.0</ele><time>2026-03-29T13:26:12.454Z</time></trkpt><trkpt lat="40.5437367" lon="16.6212633"><ele>51.99999999999999</ele><time>2026-03-29T13:26:13.454Z</time></trkpt><trkpt lat="40.543705" lon="16.6211717"><ele>52.0</ele><time>2026-03-29T13:26:14.455Z</time></trkpt><trkpt lat="40.5436833" lon="16.6210917"><ele>52.0</ele><time>2026-03-29T13:26:15.454Z</time></trkpt><trkpt lat="40.5436867" lon="16.6209383"><ele>52.0</ele><time>2026-03-29T13:26:17.455Z</time></trkpt><trkpt lat="40.5437083" lon="16.6208417"><ele>51.99999999999999</ele><time>2026-03-29T13:26:18.454Z</time></trkpt><trkpt lat="40.543735" lon="16.620715"><ele>52.0</ele><time>2026-03-29T13:26:19.454Z</time></trkpt><trkpt lat="40.5437733" lon="16.620555"><ele>53.0</ele><time>2026-03-29T13:26:20.454Z</time></trkpt><trkpt lat="40.5438117" lon="16.620385"><ele>54.0</ele><time>2026-03-29T13:26:21.454Z</time></trkpt><trkpt lat="40.5438567" lon="16.6201983"><ele>55.0</ele><time>2026-03-29T13:26:22.454Z</time></trkpt><trkpt lat="40.5439017" lon="16.619995"><ele>56.0</ele><time>2026-03-29T13:26:23.454Z</time></trkpt><trkpt lat="40.5439483" lon="16.619785"><ele>56.0</ele><time>2026-03-29T13:26:24.454Z</time></trkpt><trkpt lat="40.5439933" lon="16.6195717"><ele>56.0</ele><time>2026-03-29T13:26:25.455Z</time></trkpt><trkpt lat="40.54404" lon="16.6193617"><ele>56.0</ele><time>2026-03-29T13:26:26.454Z</time></trkpt><trkpt lat="40.5440867" lon="16.619155"><ele>56.0</ele><time>2026-03-29T13:26:27.453Z</time></trkpt><trkpt lat="40.5441333" lon="16.618955"><ele>56.0</ele><time>2026-03-29T13:26:28.453Z</time></trkpt><trkpt lat="40.5441767" lon="16.6187617"><ele>56.0</ele><time>2026-03-29T13:26:29.455Z</time></trkpt><trkpt lat="40.5442167" lon="16.6185733"><ele>56.0</ele><time>2026-03-29T13:26:30.454Z</time></trkpt><trkpt lat="40.544255" lon="16.618395"><ele>56.0</ele><time>2026-03-29T13:26:31.454Z</time></trkpt><trkpt lat="40.5442933" lon="16.6182233"><ele>56.0</ele><time>2026-03-29T13:26:32.455Z</time></trkpt><trkpt lat="40.5443333" lon="16.6180617"><ele>56.0</ele><time>2026-03-29T13:26:33.454Z</time></trkpt><trkpt lat="40.54437" lon="16.6179017"><ele>56.25</ele><time>2026-03-29T13:26:34.455Z</time></trkpt><trkpt lat="40.5444067" lon="16.6177383"><ele>56.5</ele><time>2026-03-29T13:26:35.454Z</time></trkpt><trkpt lat="40.5444467" lon="16.617575"><ele>56.75</ele><time>2026-03-29T13:26:36.454Z</time></trkpt><trkpt lat="40.544485" lon="16.6174067"><ele>57.0</ele><time>2026-03-29T13:26:37.454Z</time></trkpt><trkpt lat="40.5445167" lon="16.6172317"><ele>55.75</ele><time>2026-03-29T13:26:38.454Z</time></trkpt><trkpt lat="40.5445517" lon="16.6170533"><ele>54.5</ele><time>2026-03-29T13:26:39.454Z</time></trkpt><trkpt lat="40.5445883" lon="16.6168767"><ele>53.25</ele><time>2026-03-29T13:26:40.455Z</time></trkpt><trkpt lat="40.54463" lon="16.6167"><ele>52.0</ele><time>2026-03-29T13:26:41.457Z</time></trkpt><trkpt lat="40.5446717" lon="16.6165217"><ele>52.0</ele><time>2026-03-29T13:26:42.454Z</time></trkpt><trkpt lat="40.5447133" lon="16.6163383"><ele>52.0</ele><time>2026-03-29T13:26:43.454Z</time></trkpt><trkpt lat="40.5447533" lon="16.6161467"><ele>52.0</ele><time>2026-03-29T13:26:44.454Z</time></trkpt><trkpt lat="40.5447933" lon="16.6159483"><ele>53.33333333333333</ele><time>2026-03-29T13:26:45.455Z</time></trkpt><trkpt lat="40.544835" lon="16.6157483"><ele>54.66666666666667</ele><time>2026-03-29T13:26:46.453Z</time></trkpt><trkpt lat="40.5448767" lon="16.61555"><ele>56.0</ele><time>2026-03-29T13:26:47.453Z</time></trkpt><trkpt lat="40.54492" lon="16.6153567"><ele>56.333333333333336</ele><time>2026-03-29T13:26:48.454Z</time></trkpt><trkpt lat="40.54496" lon="16.615165"><ele>56.66666666666667</ele><time>2026-03-29T13:26:49.455Z</time></trkpt><trkpt lat="40.5450017" lon="16.6149733"><ele>57.0</ele><time>2026-03-29T13:26:50.456Z</time></trkpt><trkpt lat="40.545045" lon="16.6147817"><ele>57.0</ele><time>2026-03-29T13:26:51.454Z</time></trkpt><trkpt lat="40.54509" lon="16.6145917"><ele>57.0</ele><time>2026-03-29T13:26:52.454Z</time></trkpt><trkpt lat="40.5451317" lon="16.6144017"><ele>57.0</ele><time>2026-03-29T13:26:53.454Z</time></trkpt><trkpt lat="40.5451717" lon="16.6142117"><ele>57.0</ele><time>2026-03-29T13:26:54.455Z</time></trkpt><trkpt lat="40.5452117" lon="16.614025"><ele>57.0</ele><time>2026-03-29T13:26:55.454Z</time></trkpt><trkpt lat="40.5452483" lon="16.6138367"><ele>57.0</ele><time>2026-03-29T13:26:56.455Z</time></trkpt><trkpt lat="40.545285" lon="16.61364"><ele>57.0</ele><time>2026-03-29T13:26:57.454Z</time></trkpt><trkpt lat="40.5453267" lon="16.6134367"><ele>57.33333333333333</ele><time>2026-03-29T13:26:58.454Z</time></trkpt><trkpt lat="40.5453717" lon="16.6132283"><ele>57.666666666666664</ele><time>2026-03-29T13:26:59.454Z</time></trkpt><trkpt lat="40.5454167" lon="16.6130217"><ele>58.0</ele><time>2026-03-29T13:27:00.454Z</time></trkpt><trkpt lat="40.5454617" lon="16.6128217"><ele>58.0</ele><time>2026-03-29T13:27:01.454Z</time></trkpt><trkpt lat="40.5455017" lon="16.6126333"><ele>58.0</ele><time>2026-03-29T13:27:02.455Z</time></trkpt><trkpt lat="40.54554" lon="16.6124583"><ele>58.0</ele><time>2026-03-29T13:27:03.455Z</time></trkpt><trkpt lat="40.545575" lon="16.612295"><ele>58.0</ele><time>2026-03-29T13:27:04.454Z</time></trkpt><trkpt lat="40.5456083" lon="16.612145"><ele>58.0</ele><time>2026-03-29T13:27:05.456Z</time></trkpt><trkpt lat="40.5456333" lon="16.6120017"><ele>58.0</ele><time>2026-03-29T13:27:06.455Z</time></trkpt><trkpt lat="40.54564" lon="16.6118617"><ele>58.0</ele><time>2026-03-29T13:27:07.454Z</time></trkpt><trkpt lat="40.5456167" lon="16.6117233"><ele>58.0</ele><time>2026-03-29T13:27:08.455Z</time></trkpt><trkpt lat="40.5455667" lon="16.61158"><ele>58.0</ele><time>2026-03-29T13:27:09.454Z</time></trkpt><trkpt lat="40.5455067" lon="16.6114333"><ele>57.599999999999994</ele><time>2026-03-29T13:27:10.454Z</time></trkpt><trkpt lat="40.545445" lon="16.6112917"><ele>57.199999999999996</ele><time>2026-03-29T13:27:11.454Z</time></trkpt><trkpt lat="40.5453833" lon="16.6111667"><ele>56.8</ele><time>2026-03-29T13:27:12.455Z</time></trkpt><trkpt lat="40.54532" lon="16.611055"><ele>56.4</ele><time>2026-03-29T13:27:13.455Z</time></trkpt><trkpt lat="40.5452533" lon="16.61095"><ele>56.0</ele><time>2026-03-29T13:27:14.455Z</time></trkpt><trkpt lat="40.5451933" lon="16.610845"><ele>58.8</ele><time>2026-03-29T13:27:15.455Z</time></trkpt><trkpt lat="40.5451483" lon="16.6107317"><ele>61.599999999999994</ele><time>2026-03-29T13:27:16.455Z</time></trkpt><trkpt lat="40.545125" lon="16.6106033"><ele>64.4</ele><time>2026-03-29T13:27:17.454Z</time></trkpt><trkpt lat="40.5451267" lon="16.6104617"><ele>67.2</ele><time>2026-03-29T13:27:18.455Z</time></trkpt><trkpt lat="40.5451583" lon="16.6103183"><ele>70.0</ele><time>2026-03-29T13:27:19.454Z</time></trkpt><trkpt lat="40.5452117" lon="16.61018"><ele>70.5</ele><time>2026-03-29T13:27:20.456Z</time></trkpt><trkpt lat="40.5452817" lon="16.61005"><ele>71.0</ele><time>2026-03-29T13:27:21.454Z</time></trkpt><trkpt lat="40.545355" lon="16.6099283"><ele>71.5</ele><time>2026-03-29T13:27:22.455Z</time></trkpt><trkpt lat="40.5454283" lon="16.6098033"><ele>72.0</ele><time>2026-03-29T13:27:23.454Z</time></trkpt><trkpt lat="40.5454883" lon="16.609665"><ele>69.0</ele><time>2026-03-29T13:27:24.455Z</time></trkpt><trkpt lat="40.5455417" lon="16.6095117"><ele>66.0</ele><time>2026-03-29T13:27:25.454Z</time></trkpt><trkpt lat="40.54559" lon="16.6093483"><ele>63.0</ele><time>2026-03-29T13:27:26.454Z</time></trkpt><trkpt lat="40.5456367" lon="16.6091817"><ele>60.0</ele><time>2026-03-29T13:27:27.454Z</time></trkpt><trkpt lat="40.5456717" lon="16.6090217"><ele>60.0</ele><time>2026-03-29T13:27:28.454Z</time></trkpt><trkpt lat="40.54569" lon="16.608855"><ele>60.0</ele><time>2026-03-29T13:27:29.455Z</time></trkpt><trkpt lat="40.5456867" lon="16.60867"><ele>60.0</ele><time>2026-03-29T13:27:30.454Z</time></trkpt><trkpt lat="40.5456617" lon="16.6084683"><ele>60.0</ele><time>2026-03-29T13:27:31.454Z</time></trkpt><trkpt lat="40.5456183" lon="16.60826"><ele>60.0</ele><time>2026-03-29T13:27:32.455Z</time></trkpt><trkpt lat="40.5455633" lon="16.608055"><ele>60.0</ele><time>2026-03-29T13:27:33.456Z</time></trkpt><trkpt lat="40.545495" lon="16.607855"><ele>60.0</ele><time>2026-03-29T13:27:34.454Z</time></trkpt><trkpt lat="40.5454183" lon="16.607665"><ele>61.0</ele><time>2026-03-29T13:27:35.455Z</time></trkpt><trkpt lat="40.54534" lon="16.6074817"><ele>62.0</ele><time>2026-03-29T13:27:36.455Z</time></trkpt><trkpt lat="40.5452617" lon="16.6073117"><ele>63.0</ele><time>2026-03-29T13:27:37.454Z</time></trkpt><trkpt lat="40.5451983" lon="16.60715"><ele>64.0</ele><time>2026-03-29T13:27:38.455Z</time></trkpt><trkpt lat="40.54516" lon="16.6069783"><ele>64.25</ele><time>2026-03-29T13:27:39.456Z</time></trkpt><trkpt lat="40.5451433" lon="16.60679"><ele>64.5</ele><time>2026-03-29T13:27:40.456Z</time></trkpt><trkpt lat="40.545145" lon="16.606605"><ele>64.75</ele><time>2026-03-29T13:27:41.455Z</time></trkpt><trkpt lat="40.5451517" lon="16.606425"><ele>65.0</ele><time>2026-03-29T13:27:42.454Z</time></trkpt><trkpt lat="40.5451533" lon="16.606255"><ele>65.25</ele><time>2026-03-29T13:27:43.454Z</time></trkpt><trkpt lat="40.5451367" lon="16.606095"><ele>65.5</ele><time>2026-03-29T13:27:44.456Z</time></trkpt><trkpt lat="40.5451033" lon="16.6059417"><ele>65.75</ele><time>2026-03-29T13:27:45.454Z</time></trkpt><trkpt lat="40.545055" lon="16.6057933"><ele>66.0</ele><time>2026-03-29T13:27:46.454Z</time></trkpt><trkpt lat="40.5449883" lon="16.60565"><ele>66.0</ele><time>2026-03-29T13:27:47.454Z</time></trkpt><trkpt lat="40.5449017" lon="16.60551"><ele>66.0</ele><time>2026-03-29T13:27:48.454Z</time></trkpt><trkpt lat="40.5448033" lon="16.6053733"><ele>66.0</ele><time>2026-03-29T13:27:49.456Z</time></trkpt><trkpt lat="40.5446967" lon="16.6052483"><ele>66.0</ele><time>2026-03-29T13:27:50.455Z</time></trkpt><trkpt lat="40.544575" lon="16.60514"><ele>66.5</ele><time>2026-03-29T13:27:51.455Z</time></trkpt><trkpt lat="40.54445" lon="16.605055"><ele>67.0</ele><time>2026-03-29T13:27:52.459Z</time></trkpt><trkpt lat="40.5443367" lon="16.60497"><ele>67.5</ele><time>2026-03-29T13:27:53.454Z</time></trkpt><trkpt lat="40.5442467" lon="16.6048633"><ele>68.0</ele><time>2026-03-29T13:27:54.456Z</time></trkpt><trkpt lat="40.544175" lon="16.6047333"><ele>68.0</ele><time>2026-03-29T13:27:55.454Z</time></trkpt><trkpt lat="40.5441233" lon="16.6045783"><ele>68.0</ele><time>2026-03-29T13:27:56.454Z</time></trkpt><trkpt lat="40.5440983" lon="16.6044083"><ele>68.0</ele><time>2026-03-29T13:27:57.455Z</time></trkpt><trkpt lat="40.54409" lon="16.6042367"><ele>68.0</ele><time>2026-03-29T13:27:58.454Z</time></trkpt><trkpt lat="40.5441017" lon="16.6040767"><ele>67.0</ele><time>2026-03-29T13:27:59.455Z</time></trkpt><trkpt lat="40.5441417" lon="16.6039483"><ele>66.0</ele><time>2026-03-29T13:28:00.454Z</time></trkpt><trkpt lat="40.5442017" lon="16.6038367"><ele>65.0</ele><time>2026-03-29T13:28:01.455Z</time></trkpt><trkpt lat="40.5442767" lon="16.60372"><ele>64.0</ele><time>2026-03-29T13:28:02.455Z</time></trkpt><trkpt lat="40.5443533" lon="16.603595"><ele>63.0</ele><time>2026-03-29T13:28:03.454Z</time></trkpt><trkpt lat="40.5444267" lon="16.6034683"><ele>63.0</ele><time>2026-03-29T13:28:04.455Z</time></trkpt><trkpt lat="40.5444933" lon="16.6033333"><ele>63.0</ele><time>2026-03-29T13:28:05.455Z</time></trkpt><trkpt lat="40.5445417" lon="16.6031817"><ele>63.0</ele><time>2026-03-29T13:28:06.454Z</time></trkpt><trkpt lat="40.54456" lon="16.6030083"><ele>63.0</ele><time>2026-03-29T13:28:07.456Z</time></trkpt><trkpt lat="40.54455" lon="16.6028133"><ele>62.66666666666667</ele><time>2026-03-29T13:28:08.454Z</time></trkpt><trkpt lat="40.5445217" lon="16.6026017"><ele>62.333333333333336</ele><time>2026-03-29T13:28:09.454Z</time></trkpt><trkpt lat="40.5444833" lon="16.6023867"><ele>62.0</ele><time>2026-03-29T13:28:10.454Z</time></trkpt><trkpt lat="40.5444383" lon="16.6021733"><ele>62.66666666666667</ele><time>2026-03-29T13:28:11.454Z</time></trkpt><trkpt lat="40.5443933" lon="16.6019633"><ele>63.33333333333333</ele><time>2026-03-29T13:28:12.454Z</time></trkpt><trkpt lat="40.5443483" lon="16.6017633"><ele>64.0</ele><time>2026-03-29T13:28:13.454Z</time></trkpt><trkpt lat="40.5443033" lon="16.6015767"><ele>64.0</ele><time>2026-03-29T13:28:14.456Z</time></trkpt><trkpt lat="40.5442533" lon="16.601405"><ele>64.0</ele><time>2026-03-29T13:28:15.454Z</time></trkpt><trkpt lat="40.5442033" lon="16.6012367"><ele>64.0</ele><time>2026-03-29T13:28:16.454Z</time></trkpt><trkpt lat="40.5441583" lon="16.6010733"><ele>64.0</ele><time>2026-03-29T13:28:17.454Z</time></trkpt><trkpt lat="40.5441183" lon="16.600925"><ele>64.0</ele><time>2026-03-29T13:28:18.454Z</time></trkpt><trkpt lat="40.544065" lon="16.600795"><ele>64.0</ele><time>2026-03-29T13:28:19.454Z</time></trkpt><trkpt lat="40.5439833" lon="16.6006783"><ele>64.0</ele><time>2026-03-29T13:28:20.455Z</time></trkpt><trkpt lat="40.54388" lon="16.6005667"><ele>64.0</ele><time>2026-03-29T13:28:21.454Z</time></trkpt><trkpt lat="40.5437633" lon="16.6004567"><ele>64.25</ele><time>2026-03-29T13:28:22.454Z</time></trkpt><trkpt lat="40.543645" lon="16.600345"><ele>64.5</ele><time>2026-03-29T13:28:23.454Z</time></trkpt><trkpt lat="40.5435267" lon="16.600235"><ele>64.75</ele><time>2026-03-29T13:28:24.454Z</time></trkpt><trkpt lat="40.543405" lon="16.600125"><ele>65.0</ele><time>2026-03-29T13:28:25.454Z</time></trkpt><trkpt lat="40.5432817" lon="16.6000183"><ele>65.0</ele><time>2026-03-29T13:28:26.454Z</time></trkpt><trkpt lat="40.5431617" lon="16.5999117"><ele>65.0</ele><time>2026-03-29T13:28:27.454Z</time></trkpt><trkpt lat="40.5430417" lon="16.599805"><ele>65.0</ele><time>2026-03-29T13:28:28.454Z</time></trkpt><trkpt lat="40.542925" lon="16.5996967"><ele>65.0</ele><time>2026-03-29T13:28:29.457Z</time></trkpt><trkpt lat="40.5428183" lon="16.5995933"><ele>66.2</ele><time>2026-03-29T13:28:30.454Z</time></trkpt><trkpt lat="40.542725" lon="16.5994933"><ele>67.4</ele><time>2026-03-29T13:28:31.454Z</time></trkpt><trkpt lat="40.5426517" lon="16.5993933"><ele>68.6</ele><time>2026-03-29T13:28:32.455Z</time></trkpt><trkpt lat="40.5426017" lon="16.5992883"><ele>69.8</ele><time>2026-03-29T13:28:33.454Z</time></trkpt><trkpt lat="40.5425733" lon="16.59918"><ele>71.0</ele><time>2026-03-29T13:28:34.454Z</time></trkpt><trkpt lat="40.5425883" lon="16.599075"><ele>71.0</ele><time>2026-03-29T13:28:35.454Z</time></trkpt><trkpt lat="40.542635" lon="16.59898"><ele>71.0</ele><time>2026-03-29T13:28:36.454Z</time></trkpt><trkpt lat="40.5427117" lon="16.5989117"><ele>71.0</ele><time>2026-03-29T13:28:37.454Z</time></trkpt><trkpt lat="40.5428033" lon="16.5988717"><ele>71.0</ele><time>2026-03-29T13:28:38.455Z</time></trkpt><trkpt lat="40.5428967" lon="16.5988433"><ele>71.0</ele><time>2026-03-29T13:28:39.456Z</time></trkpt><trkpt lat="40.5429833" lon="16.5988083"><ele>70.39999999999999</ele><time>2026-03-29T13:28:40.455Z</time></trkpt><trkpt lat="40.5430517" lon="16.598755"><ele>69.8</ele><time>2026-03-29T13:28:41.455Z</time></trkpt><trkpt lat="40.5430933" lon="16.5986617"><ele>69.19999999999999</ele><time>2026-03-29T13:28:42.455Z</time></trkpt><trkpt lat="40.5431067" lon="16.5985367"><ele>68.6</ele><time>2026-03-29T13:28:43.454Z</time></trkpt><trkpt lat="40.543095" lon="16.5983833"><ele>68.0</ele><time>2026-03-29T13:28:44.457Z</time></trkpt><trkpt lat="40.543075" lon="16.5982183"><ele>68.0</ele><time>2026-03-29T13:28:45.454Z</time></trkpt><trkpt lat="40.5430533" lon="16.5980517"><ele>68.0</ele><time>2026-03-29T13:28:46.453Z</time></trkpt><trkpt lat="40.5430283" lon="16.5978783"><ele>68.0</ele><time>2026-03-29T13:28:47.455Z</time></trkpt><trkpt lat="40.5430083" lon="16.59769"><ele>68.0</ele><time>2026-03-29T13:28:48.454Z</time></trkpt><trkpt lat="40.542995" lon="16.597495"><ele>68.25</ele><time>2026-03-29T13:28:49.454Z</time></trkpt><trkpt lat="40.5429817" lon="16.5973017"><ele>68.5</ele><time>2026-03-29T13:28:50.455Z</time></trkpt><trkpt lat="40.5429633" lon="16.59711"><ele>68.75</ele><time>2026-03-29T13:28:51.454Z</time></trkpt><trkpt lat="40.5429383" lon="16.5969183"><ele>69.0</ele><time>2026-03-29T13:28:52.454Z</time></trkpt><trkpt lat="40.54291" lon="16.5967267"><ele>69.5</ele><time>2026-03-29T13:28:53.455Z</time></trkpt><trkpt lat="40.54288" lon="16.5965333"><ele>70.0</ele><time>2026-03-29T13:28:54.454Z</time></trkpt><trkpt lat="40.5428467" lon="16.5963417"><ele>70.5</ele><time>2026-03-29T13:28:55.454Z</time></trkpt><trkpt lat="40.5428133" lon="16.5961517"><ele>71.0</ele><time>2026-03-29T13:28:56.455Z</time></trkpt><trkpt lat="40.5427817" lon="16.5959583"><ele>71.66666666666667</ele><time>2026-03-29T13:28:57.454Z</time></trkpt><trkpt lat="40.5427517" lon="16.595755"><ele>72.33333333333333</ele><time>2026-03-29T13:28:58.455Z</time></trkpt><trkpt lat="40.5427233" lon="16.59555"><ele>73.0</ele><time>2026-03-29T13:28:59.454Z</time></trkpt><trkpt lat="40.542695" lon="16.595345"><ele>73.66666666666666</ele><time>2026-03-29T13:29:00.454Z</time></trkpt><trkpt lat="40.5426667" lon="16.5951417"><ele>74.33333333333333</ele><time>2026-03-29T13:29:01.454Z</time></trkpt><trkpt lat="40.5426367" lon="16.59493"><ele>75.0</ele><time>2026-03-29T13:29:02.456Z</time></trkpt><trkpt lat="40.542595" lon="16.59471"><ele>74.33333333333333</ele><time>2026-03-29T13:29:03.454Z</time></trkpt><trkpt lat="40.5425417" lon="16.594495"><ele>73.66666666666666</ele><time>2026-03-29T13:29:04.455Z</time></trkpt><trkpt lat="40.54248" lon="16.5942867"><ele>73.0</ele><time>2026-03-29T13:29:05.454Z</time></trkpt><trkpt lat="40.5424167" lon="16.5940833"><ele>73.0</ele><time>2026-03-29T13:29:06.453Z</time></trkpt><trkpt lat="40.5423517" lon="16.59389"><ele>73.0</ele><time>2026-03-29T13:29:07.453Z</time></trkpt><trkpt lat="40.54229" lon="16.59371"><ele>73.0</ele><time>2026-03-29T13:29:08.454Z</time></trkpt><trkpt lat="40.54223" lon="16.5935383"><ele>73.5</ele><time>2026-03-29T13:29:09.454Z</time></trkpt><trkpt lat="40.542175" lon="16.5933667"><ele>74.0</ele><time>2026-03-29T13:29:10.455Z</time></trkpt><trkpt lat="40.5421233" lon="16.59319"><ele>74.5</ele><time>2026-03-29T13:29:11.454Z</time></trkpt><trkpt lat="40.5420833" lon="16.59301"><ele>75.0</ele><time>2026-03-29T13:29:12.456Z</time></trkpt><trkpt lat="40.5420483" lon="16.5928317"><ele>75.0</ele><time>2026-03-29T13:29:13.454Z</time></trkpt><trkpt lat="40.5420167" lon="16.5926533"><ele>75.0</ele><time>2026-03-29T13:29:14.455Z</time></trkpt><trkpt lat="40.5419833" lon="16.592475"><ele>75.0</ele><time>2026-03-29T13:29:15.455Z</time></trkpt><trkpt lat="40.5419483" lon="16.5922983"><ele>75.0</ele><time>2026-03-29T13:29:16.454Z</time></trkpt><trkpt lat="40.54191" lon="16.59213"><ele>75.75</ele><time>2026-03-29T13:29:17.455Z</time></trkpt><trkpt lat="40.5418667" lon="16.5919667"><ele>76.5</ele><time>2026-03-29T13:29:18.454Z</time></trkpt><trkpt lat="40.5418167" lon="16.5918083"><ele>77.25</ele><time>2026-03-29T13:29:19.454Z</time></trkpt><trkpt lat="40.54177" lon="16.5916617"><ele>78.0</ele><time>2026-03-29T13:29:20.455Z</time></trkpt><trkpt lat="40.5417183" lon="16.5915283"><ele>78.0</ele><time>2026-03-29T13:29:21.455Z</time></trkpt><trkpt lat="40.54166" lon="16.5914"><ele>78.0</ele><time>2026-03-29T13:29:22.454Z</time></trkpt><trkpt lat="40.5415883" lon="16.591265"><ele>78.0</ele><time>2026-03-29T13:29:23.454Z</time></trkpt><trkpt lat="40.5415117" lon="16.5911267"><ele>78.0</ele><time>2026-03-29T13:29:24.454Z</time></trkpt><trkpt lat="40.5414283" lon="16.59098"><ele>78.5</ele><time>2026-03-29T13:29:25.454Z</time></trkpt><trkpt lat="40.5413367" lon="16.5908317"><ele>79.0</ele><time>2026-03-29T13:29:26.454Z</time></trkpt><trkpt lat="40.5412367" lon="16.5906867"><ele>79.5</ele><time>2026-03-29T13:29:27.453Z</time></trkpt><trkpt lat="40.5411283" lon="16.59055"><ele>80.0</ele><time>2026-03-29T13:29:28.454Z</time></trkpt><trkpt lat="40.5410217" lon="16.5904233"><ele>80.0</ele><time>2026-03-29T13:29:29.455Z</time></trkpt><trkpt lat="40.5409133" lon="16.5903017"><ele>80.0</ele><time>2026-03-29T13:29:30.454Z</time></trkpt><trkpt lat="40.5408133" lon="16.59018"><ele>80.0</ele><time>2026-03-29T13:29:31.454Z</time></trkpt><trkpt lat="40.54072" lon="16.5900567"><ele>80.0</ele><time>2026-03-29T13:29:32.455Z</time></trkpt><trkpt lat="40.54063" lon="16.5899333"><ele>80.0</ele><time>2026-03-29T13:29:33.454Z</time></trkpt><trkpt lat="40.5405483" lon="16.5898117"><ele>80.0</ele><time>2026-03-29T13:29:34.455Z</time></trkpt><trkpt lat="40.5404733" lon="16.5896933"><ele>80.0</ele><time>2026-03-29T13:29:35.454Z</time></trkpt><trkpt lat="40.5404117" lon="16.5895917"><ele>80.0</ele><time>2026-03-29T13:29:36.454Z</time></trkpt><trkpt lat="40.5403533" lon="16.589515"><ele>80.0</ele><time>2026-03-29T13:29:37.454Z</time></trkpt><trkpt lat="40.5402967" lon="16.5894783"><ele>80.2</ele><time>2026-03-29T13:29:38.456Z</time></trkpt><trkpt lat="40.540235" lon="16.5894983"><ele>80.4</ele><time>2026-03-29T13:29:39.454Z</time></trkpt><trkpt lat="40.540175" lon="16.5895767"><ele>80.6</ele><time>2026-03-29T13:29:40.454Z</time></trkpt><trkpt lat="40.54011" lon="16.5897067"><ele>80.8</ele><time>2026-03-29T13:29:41.455Z</time></trkpt><trkpt lat="40.5400467" lon="16.5898633"><ele>81.0</ele><time>2026-03-29T13:29:42.454Z</time></trkpt><trkpt lat="40.5399733" lon="16.5900283"><ele>81.0</ele><time>2026-03-29T13:29:43.455Z</time></trkpt><trkpt lat="40.5398867" lon="16.5902"><ele>81.0</ele><time>2026-03-29T13:29:44.456Z</time></trkpt><trkpt lat="40.5397933" lon="16.5903783"><ele>81.0</ele><time>2026-03-29T13:29:45.454Z</time></trkpt><trkpt lat="40.5397017" lon="16.590555"><ele>81.0</ele><time>2026-03-29T13:29:46.453Z</time></trkpt><trkpt lat="40.5396083" lon="16.5907317"><ele>81.0</ele><time>2026-03-29T13:29:47.455Z</time></trkpt><trkpt lat="40.5395133" lon="16.5909033"><ele>81.0</ele><time>2026-03-29T13:29:48.454Z</time></trkpt><trkpt lat="40.53942" lon="16.59107"><ele>81.0</ele><time>2026-03-29T13:29:49.454Z</time></trkpt><trkpt lat="40.53933" lon="16.591235"><ele>81.0</ele><time>2026-03-29T13:29:50.456Z</time></trkpt><trkpt lat="40.5392467" lon="16.5913967"><ele>81.0</ele><time>2026-03-29T13:29:51.454Z</time></trkpt><trkpt lat="40.5391783" lon="16.59156"><ele>81.0</ele><time>2026-03-29T13:29:52.455Z</time></trkpt><trkpt lat="40.5391367" lon="16.591735"><ele>81.0</ele><time>2026-03-29T13:29:53.454Z</time></trkpt><trkpt lat="40.5391383" lon="16.5919167"><ele>81.0</ele><time>2026-03-29T13:29:54.458Z</time></trkpt><trkpt lat="40.53918" lon="16.5920933"><ele>81.0</ele><time>2026-03-29T13:29:55.454Z</time></trkpt><trkpt lat="40.53925" lon="16.5922517"><ele>81.0</ele><time>2026-03-29T13:29:56.455Z</time></trkpt><trkpt lat="40.5393333" lon="16.5923917"><ele>81.0</ele><time>2026-03-29T13:29:57.455Z</time></trkpt><trkpt lat="40.53941" lon="16.5925267"><ele>81.0</ele><time>2026-03-29T13:29:58.456Z</time></trkpt><trkpt lat="40.539465" lon="16.592665"><ele>81.0</ele><time>2026-03-29T13:29:59.46Z</time></trkpt><trkpt lat="40.5394967" lon="16.5928133"><ele>81.0</ele><time>2026-03-29T13:30:00.455Z</time></trkpt><trkpt lat="40.539505" lon="16.5929717"><ele>80.25</ele><time>2026-03-29T13:30:01.455Z</time></trkpt><trkpt lat="40.539485" lon="16.5931383"><ele>79.5</ele><time>2026-03-29T13:30:02.456Z</time></trkpt><trkpt lat="40.5394383" lon="16.5933133"><ele>78.75</ele><time>2026-03-29T13:30:03.454Z</time></trkpt><trkpt lat="40.53937" lon="16.5935"><ele>78.0</ele><time>2026-03-29T13:30:04.455Z</time></trkpt><trkpt lat="40.5392933" lon="16.5936917"><ele>77.33333333333333</ele><time>2026-03-29T13:30:05.455Z</time></trkpt><trkpt lat="40.5392133" lon="16.5938867"><ele>76.66666666666666</ele><time>2026-03-29T13:30:06.454Z</time></trkpt><trkpt lat="40.5391317" lon="16.5940917"><ele>76.0</ele><time>2026-03-29T13:30:07.456Z</time></trkpt><trkpt lat="40.5390483" lon="16.5943"><ele>75.33333333333333</ele><time>2026-03-29T13:30:08.454Z</time></trkpt><trkpt lat="40.53896" lon="16.5945133"><ele>74.66666666666667</ele><time>2026-03-29T13:30:09.454Z</time></trkpt><trkpt lat="40.5388667" lon="16.594725"><ele>74.0</ele><time>2026-03-29T13:30:10.455Z</time></trkpt><trkpt lat="40.5387733" lon="16.59494"><ele>75.0</ele><time>2026-03-29T13:30:11.454Z</time></trkpt><trkpt lat="40.5386783" lon="16.5951567"><ele>76.0</ele><time>2026-03-29T13:30:12.455Z</time></trkpt><trkpt lat="40.5385817" lon="16.595375"><ele>77.0</ele><time>2026-03-29T13:30:13.454Z</time></trkpt><trkpt lat="40.5384833" lon="16.5955933"><ele>77.0</ele><time>2026-03-29T13:30:14.455Z</time></trkpt><trkpt lat="40.5383867" lon="16.5958167"><ele>77.0</ele><time>2026-03-29T13:30:15.454Z</time></trkpt><trkpt lat="40.5382883" lon="16.59604"><ele>77.0</ele><time>2026-03-29T13:30:16.455Z</time></trkpt><trkpt lat="40.53819" lon="16.596265"><ele>77.0</ele><time>2026-03-29T13:30:17.455Z</time></trkpt><trkpt lat="40.5380933" lon="16.5964917"><ele>77.0</ele><time>2026-03-29T13:30:18.455Z</time></trkpt><trkpt lat="40.5379967" lon="16.5967183"><ele>77.0</ele><time>2026-03-29T13:30:19.454Z</time></trkpt><trkpt lat="40.5379" lon="16.5969483"><ele>78.33333333333334</ele><time>2026-03-29T13:30:20.455Z</time></trkpt><trkpt lat="40.5378017" lon="16.597175"><ele>79.66666666666667</ele><time>2026-03-29T13:30:21.454Z</time></trkpt><trkpt lat="40.5377" lon="16.5974033"><ele>81.0</ele><time>2026-03-29T13:30:22.454Z</time></trkpt><trkpt lat="40.5375983" lon="16.5976283"><ele>81.66666666666667</ele><time>2026-03-29T13:30:23.455Z</time></trkpt><trkpt lat="40.5374967" lon="16.5978517"><ele>82.33333333333334</ele><time>2026-03-29T13:30:24.455Z</time></trkpt><trkpt lat="40.5373933" lon="16.59808"><ele>83.0</ele><time>2026-03-29T13:30:25.454Z</time></trkpt><trkpt lat="40.5372933" lon="16.5983067"><ele>83.0</ele><time>2026-03-29T13:30:26.455Z</time></trkpt><trkpt lat="40.5371917" lon="16.5985367"><ele>83.0</ele><time>2026-03-29T13:30:27.455Z</time></trkpt><trkpt lat="40.5370867" lon="16.5987683"><ele>83.0</ele><time>2026-03-29T13:30:28.453Z</time></trkpt><trkpt lat="40.536985" lon="16.599"><ele>83.0</ele><time>2026-03-29T13:30:29.455Z</time></trkpt><trkpt lat="40.5368817" lon="16.599235"><ele>83.0</ele><time>2026-03-29T13:30:30.454Z</time></trkpt><trkpt lat="40.5367733" lon="16.59947"><ele>83.0</ele><time>2026-03-29T13:30:31.455Z</time></trkpt><trkpt lat="40.53667" lon="16.599705"><ele>83.0</ele><time>2026-03-29T13:30:32.455Z</time></trkpt><trkpt lat="40.5365683" lon="16.5999417"><ele>83.0</ele><time>2026-03-29T13:30:33.454Z</time></trkpt><trkpt lat="40.536465" lon="16.6001833"><ele>83.0</ele><time>2026-03-29T13:30:34.455Z</time></trkpt><trkpt lat="40.5363617" lon="16.60042"><ele>83.0</ele><time>2026-03-29T13:30:35.455Z</time></trkpt><trkpt lat="40.5362558" lon="16.6006637"><ele>83.0</ele><time>2026-03-29T13:30:36.454Z</time></trkpt><trkpt lat="40.5361508" lon="16.6009084"><ele>83.0</ele><time>2026-03-29T13:30:37.455Z</time></trkpt><trkpt lat="40.5360478" lon="16.6011507"><ele>81.66666666666667</ele><time>2026-03-29T13:30:38.457Z</time></trkpt><trkpt lat="40.5359443" lon="16.6013896"><ele>80.33333333333333</ele><time>2026-03-29T13:30:39.454Z</time></trkpt><trkpt lat="40.5358414" lon="16.6016312"><ele>79.0</ele><time>2026-03-29T13:30:40.457Z</time></trkpt><trkpt lat="40.5357372" lon="16.6018725"><ele>77.66666666666666</ele><time>2026-03-29T13:30:41.454Z</time></trkpt><trkpt lat="40.5356321" lon="16.6021086"><ele>76.33333333333333</ele><time>2026-03-29T13:30:42.454Z</time></trkpt><trkpt lat="40.5355277" lon="16.6023464"><ele>75.0</ele><time>2026-03-29T13:30:43.454Z</time></trkpt><trkpt lat="40.5354222" lon="16.6025817"><ele>76.66666666666667</ele><time>2026-03-29T13:30:44.454Z</time></trkpt><trkpt lat="40.5353173" lon="16.6028164"><ele>78.33333333333334</ele><time>2026-03-29T13:30:45.455Z</time></trkpt><trkpt lat="40.5352141" lon="16.6030515"><ele>80.0</ele><time>2026-03-29T13:30:46.456Z</time></trkpt><trkpt lat="40.5351125" lon="16.6032862"><ele>80.0</ele><time>2026-03-29T13:30:47.455Z</time></trkpt><trkpt lat="40.5350096" lon="16.6035223"><ele>80.0</ele><time>2026-03-29T13:30:48.453Z</time></trkpt><trkpt lat="40.5349074" lon="16.6037604"><ele>80.0</ele><time>2026-03-29T13:30:49.454Z</time></trkpt><trkpt lat="40.5348041" lon="16.6040003"><ele>78.0</ele><time>2026-03-29T13:30:50.455Z</time></trkpt><trkpt lat="40.5347006" lon="16.6042419"><ele>76.0</ele><time>2026-03-29T13:30:51.454Z</time></trkpt><trkpt lat="40.5345974" lon="16.60448"><ele>74.0</ele><time>2026-03-29T13:30:52.459Z</time></trkpt><trkpt lat="40.5344955" lon="16.604715"><ele>74.0</ele><time>2026-03-29T13:30:53.454Z</time></trkpt><trkpt lat="40.5343939" lon="16.6049499"><ele>74.0</ele><time>2026-03-29T13:30:54.456Z</time></trkpt><trkpt lat="40.5342912" lon="16.6051835"><ele>74.0</ele><time>2026-03-29T13:30:55.455Z</time></trkpt><trkpt lat="40.5341892" lon="16.605418"><ele>72.33333333333334</ele><time>2026-03-29T13:30:56.455Z</time></trkpt><trkpt lat="40.5340877" lon="16.6056513"><ele>70.66666666666667</ele><time>2026-03-29T13:30:57.454Z</time></trkpt><trkpt lat="40.5339859" lon="16.6058836"><ele>69.0</ele><time>2026-03-29T13:30:58.454Z</time></trkpt><trkpt lat="40.5338831" lon="16.6061168"><ele>68.66666666666667</ele><time>2026-03-29T13:30:59.459Z</time></trkpt><trkpt lat="40.5337814" lon="16.6063492"><ele>68.33333333333334</ele><time>2026-03-29T13:31:00.455Z</time></trkpt><trkpt lat="40.5336794" lon="16.6065815"><ele>68.0</ele><time>2026-03-29T13:31:01.456Z</time></trkpt><trkpt lat="40.533577" lon="16.6068138"><ele>67.66666666666667</ele><time>2026-03-29T13:31:02.455Z</time></trkpt><trkpt lat="40.5334744" lon="16.607048"><ele>67.33333333333333</ele><time>2026-03-29T13:31:03.455Z</time></trkpt><trkpt lat="40.5333714" lon="16.6072802"><ele>67.0</ele><time>2026-03-29T13:31:04.454Z</time></trkpt><trkpt lat="40.5332686" lon="16.6075114"><ele>67.0</ele><time>2026-03-29T13:31:05.455Z</time></trkpt><trkpt lat="40.5331675" lon="16.6077431"><ele>67.0</ele><time>2026-03-29T13:31:06.453Z</time></trkpt><trkpt lat="40.5330654" lon="16.6079734"><ele>67.0</ele><time>2026-03-29T13:31:07.454Z</time></trkpt><trkpt lat="40.5329677" lon="16.6082062"><ele>67.33333333333333</ele><time>2026-03-29T13:31:08.455Z</time></trkpt><trkpt lat="40.5328772" lon="16.6084458"><ele>67.66666666666667</ele><time>2026-03-29T13:31:09.454Z</time></trkpt><trkpt lat="40.5327952" lon="16.6086929"><ele>68.0</ele><time>2026-03-29T13:31:10.454Z</time></trkpt><trkpt lat="40.5327201" lon="16.6089475"><ele>68.0</ele><time>2026-03-29T13:31:11.454Z</time></trkpt><trkpt lat="40.5326515" lon="16.6092055"><ele>68.0</ele><time>2026-03-29T13:31:12.456Z</time></trkpt><trkpt lat="40.5325885" lon="16.6094642"><ele>68.0</ele><time>2026-03-29T13:31:13.456Z</time></trkpt><trkpt lat="40.5325294" lon="16.6097223"><ele>67.33333333333334</ele><time>2026-03-29T13:31:14.455Z</time></trkpt><trkpt lat="40.5324731" lon="16.6099825"><ele>66.66666666666667</ele><time>2026-03-29T13:31:15.454Z</time></trkpt><trkpt lat="40.5324185" lon="16.6102431"><ele>66.0</ele><time>2026-03-29T13:31:16.455Z</time></trkpt><trkpt lat="40.5323651" lon="16.6105007"><ele>65.0</ele><time>2026-03-29T13:31:17.454Z</time></trkpt><trkpt lat="40.532313" lon="16.6107576"><ele>64.0</ele><time>2026-03-29T13:31:18.454Z</time></trkpt><trkpt lat="40.5322601" lon="16.611014"><ele>63.0</ele><time>2026-03-29T13:31:19.456Z</time></trkpt><trkpt lat="40.5322082" lon="16.6112679"><ele>63.33333333333333</ele><time>2026-03-29T13:31:20.455Z</time></trkpt><trkpt lat="40.5321565" lon="16.6115224"><ele>63.666666666666664</ele><time>2026-03-29T13:31:21.454Z</time></trkpt><trkpt lat="40.5321048" lon="16.6117773"><ele>64.0</ele><time>2026-03-29T13:31:22.454Z</time></trkpt><trkpt lat="40.5320531" lon="16.6120335"><ele>64.0</ele><time>2026-03-29T13:31:23.455Z</time></trkpt><trkpt lat="40.5320016" lon="16.6122904"><ele>64.0</ele><time>2026-03-29T13:31:24.455Z</time></trkpt><trkpt lat="40.5319518" lon="16.6125473"><ele>64.0</ele><time>2026-03-29T13:31:25.455Z</time></trkpt><trkpt lat="40.5319008" lon="16.612804"><ele>63.33333333333333</ele><time>2026-03-29T13:31:26.455Z</time></trkpt><trkpt lat="40.5318505" lon="16.6130605"><ele>62.66666666666667</ele><time>2026-03-29T13:31:27.453Z</time></trkpt><trkpt lat="40.5317991" lon="16.6133173"><ele>62.0</ele><time>2026-03-29T13:31:28.454Z</time></trkpt><trkpt lat="40.5317457" lon="16.6135753"><ele>61.333333333333336</ele><time>2026-03-29T13:31:29.455Z</time></trkpt><trkpt lat="40.5316933" lon="16.6138335"><ele>60.66666666666667</ele><time>2026-03-29T13:31:30.455Z</time></trkpt><trkpt lat="40.5316415" lon="16.6140922"><ele>60.0</ele><time>2026-03-29T13:31:31.454Z</time></trkpt><trkpt lat="40.531589" lon="16.6143537"><ele>59.0</ele><time>2026-03-29T13:31:32.455Z</time></trkpt><trkpt lat="40.5315352" lon="16.6146167"><ele>58.0</ele><time>2026-03-29T13:31:33.454Z</time></trkpt><trkpt lat="40.5314818" lon="16.6148801"><ele>57.0</ele><time>2026-03-29T13:31:34.454Z</time></trkpt><trkpt lat="40.5314289" lon="16.6151435"><ele>57.0</ele><time>2026-03-29T13:31:35.454Z</time></trkpt><trkpt lat="40.5313739" lon="16.6154056"><ele>57.0</ele><time>2026-03-29T13:31:36.457Z</time></trkpt><trkpt lat="40.531319" lon="16.6156644"><ele>57.0</ele><time>2026-03-29T13:31:37.455Z</time></trkpt><trkpt lat="40.531264" lon="16.6159227"><ele>58.0</ele><time>2026-03-29T13:31:38.455Z</time></trkpt><trkpt lat="40.5312103" lon="16.6161808"><ele>59.0</ele><time>2026-03-29T13:31:39.454Z</time></trkpt><trkpt lat="40.5311569" lon="16.6164378"><ele>60.0</ele><time>2026-03-29T13:31:40.454Z</time></trkpt><trkpt lat="40.5311023" lon="16.6166971"><ele>60.0</ele><time>2026-03-29T13:31:41.454Z</time></trkpt><trkpt lat="40.5310474" lon="16.6169571"><ele>60.0</ele><time>2026-03-29T13:31:42.454Z</time></trkpt><trkpt lat="40.5309935" lon="16.6172174"><ele>60.0</ele><time>2026-03-29T13:31:43.454Z</time></trkpt><trkpt lat="40.53094" lon="16.6174776"><ele>59.66666666666667</ele><time>2026-03-29T13:31:44.455Z</time></trkpt><trkpt lat="40.5308879" lon="16.6177401"><ele>59.333333333333336</ele><time>2026-03-29T13:31:45.454Z</time></trkpt><trkpt lat="40.5308371" lon="16.6180046"><ele>59.0</ele><time>2026-03-29T13:31:46.454Z</time></trkpt><trkpt lat="40.5307855" lon="16.6182675"><ele>58.66666666666667</ele><time>2026-03-29T13:31:47.453Z</time></trkpt><trkpt lat="40.530732" lon="16.6185277"><ele>58.33333333333333</ele><time>2026-03-29T13:31:48.454Z</time></trkpt><trkpt lat="40.5306794" lon="16.618788"><ele>58.0</ele><time>2026-03-29T13:31:49.454Z</time></trkpt><trkpt lat="40.5306276" lon="16.6190466"><ele>58.0</ele><time>2026-03-29T13:31:50.457Z</time></trkpt><trkpt lat="40.5305727" lon="16.6193057"><ele>58.0</ele><time>2026-03-29T13:31:51.455Z</time></trkpt><trkpt lat="40.5305174" lon="16.6195672"><ele>58.0</ele><time>2026-03-29T13:31:52.454Z</time></trkpt><trkpt lat="40.5304579" lon="16.6198262"><ele>58.33333333333333</ele><time>2026-03-29T13:31:53.455Z</time></trkpt><trkpt lat="40.5303911" lon="16.6200818"><ele>58.66666666666667</ele><time>2026-03-29T13:31:54.455Z</time></trkpt><trkpt lat="40.5303156" lon="16.6203334"><ele>59.0</ele><time>2026-03-29T13:31:55.454Z</time></trkpt><trkpt lat="40.5302282" lon="16.6205787"><ele>59.0</ele><time>2026-03-29T13:31:56.455Z</time></trkpt><trkpt lat="40.53013" lon="16.6208201"><ele>59.0</ele><time>2026-03-29T13:31:57.455Z</time></trkpt><trkpt lat="40.5300204" lon="16.621057"><ele>59.0</ele><time>2026-03-29T13:31:58.458Z</time></trkpt><trkpt lat="40.5299042" lon="16.621288"><ele>58.333333333333336</ele><time>2026-03-29T13:31:59.454Z</time></trkpt><trkpt lat="40.5297798" lon="16.6215112"><ele>57.66666666666667</ele><time>2026-03-29T13:32:00.454Z</time></trkpt><trkpt lat="40.5296451" lon="16.6217265"><ele>57.0</ele><time>2026-03-29T13:32:01.456Z</time></trkpt><trkpt lat="40.5295027" lon="16.6219358"><ele>56.33333333333333</ele><time>2026-03-29T13:32:02.455Z</time></trkpt><trkpt lat="40.5293555" lon="16.622139"><ele>55.666666666666664</ele><time>2026-03-29T13:32:03.454Z</time></trkpt><trkpt lat="40.5292021" lon="16.6223372"><ele>55.0</ele><time>2026-03-29T13:32:04.454Z</time></trkpt><trkpt lat="40.5290459" lon="16.6225303"><ele>55.0</ele><time>2026-03-29T13:32:05.455Z</time></trkpt><trkpt lat="40.5288881" lon="16.6227234"><ele>55.0</ele><time>2026-03-29T13:32:06.455Z</time></trkpt><trkpt lat="40.5287322" lon="16.6229166"><ele>55.0</ele><time>2026-03-29T13:32:07.453Z</time></trkpt><trkpt lat="40.5285769" lon="16.6231111"><ele>55.33333333333333</ele><time>2026-03-29T13:32:08.454Z</time></trkpt><trkpt lat="40.5284193" lon="16.6233049"><ele>55.66666666666667</ele><time>2026-03-29T13:32:09.454Z</time></trkpt><trkpt lat="40.5282609" lon="16.6235"><ele>56.0</ele><time>2026-03-29T13:32:10.455Z</time></trkpt><trkpt lat="40.5281025" lon="16.6236951"><ele>56.0</ele><time>2026-03-29T13:32:11.455Z</time></trkpt><trkpt lat="40.5279446" lon="16.6238895"><ele>56.0</ele><time>2026-03-29T13:32:12.454Z</time></trkpt><trkpt lat="40.5277865" lon="16.6240832"><ele>56.0</ele><time>2026-03-29T13:32:13.456Z</time></trkpt><trkpt lat="40.5276307" lon="16.6242751"><ele>56.0</ele><time>2026-03-29T13:32:14.455Z</time></trkpt><trkpt lat="40.5274759" lon="16.6244664"><ele>56.0</ele><time>2026-03-29T13:32:15.454Z</time></trkpt><trkpt lat="40.527323" lon="16.6246583"><ele>56.0</ele><time>2026-03-29T13:32:16.461Z</time></trkpt><trkpt lat="40.52717" lon="16.6248483"><ele>56.0</ele><time>2026-03-29T13:32:17.454Z</time></trkpt><trkpt lat="40.5270167" lon="16.6250417"><ele>56.0</ele><time>2026-03-29T13:32:18.454Z</time></trkpt><trkpt lat="40.5268633" lon="16.6252317"><ele>56.0</ele><time>2026-03-29T13:32:19.454Z</time></trkpt><trkpt lat="40.526715" lon="16.6254183"><ele>55.66666666666667</ele><time>2026-03-29T13:32:20.455Z</time></trkpt><trkpt lat="40.5265717" lon="16.6255933"><ele>55.33333333333333</ele><time>2026-03-29T13:32:21.455Z</time></trkpt><trkpt lat="40.5264383" lon="16.6257567"><ele>55.0</ele><time>2026-03-29T13:32:22.455Z</time></trkpt><trkpt lat="40.526305" lon="16.6259233"><ele>55.0</ele><time>2026-03-29T13:32:23.454Z</time></trkpt><trkpt lat="40.5261667" lon="16.6260967"><ele>55.0</ele><time>2026-03-29T13:32:24.455Z</time></trkpt><trkpt lat="40.526025" lon="16.6262717"><ele>55.0</ele><time>2026-03-29T13:32:25.454Z</time></trkpt><trkpt lat="40.5258817" lon="16.62645"><ele>54.666666666666664</ele><time>2026-03-29T13:32:26.455Z</time></trkpt><trkpt lat="40.525735" lon="16.6266283"><ele>54.33333333333333</ele><time>2026-03-29T13:32:27.455Z</time></trkpt><trkpt lat="40.5255867" lon="16.62681"><ele>54.0</ele><time>2026-03-29T13:32:28.454Z</time></trkpt><trkpt lat="40.5254367" lon="16.6269933"><ele>54.33333333333333</ele><time>2026-03-29T13:32:29.455Z</time></trkpt><trkpt lat="40.5252833" lon="16.62718"><ele>54.666666666666664</ele><time>2026-03-29T13:32:30.454Z</time></trkpt><trkpt lat="40.5251233" lon="16.6273667"><ele>55.0</ele><time>2026-03-29T13:32:31.455Z</time></trkpt><trkpt lat="40.52496" lon="16.6275517"><ele>55.0</ele><time>2026-03-29T13:32:32.455Z</time></trkpt><trkpt lat="40.524795" lon="16.6277333"><ele>55.0</ele><time>2026-03-29T13:32:33.455Z</time></trkpt><trkpt lat="40.5246283" lon="16.6279167"><ele>55.0</ele><time>2026-03-29T13:32:34.454Z</time></trkpt><trkpt lat="40.5244633" lon="16.6281"><ele>54.33333333333333</ele><time>2026-03-29T13:32:35.455Z</time></trkpt><trkpt lat="40.5242983" lon="16.6282833"><ele>53.66666666666667</ele><time>2026-03-29T13:32:36.455Z</time></trkpt><trkpt lat="40.5241333" lon="16.6284667"><ele>53.0</ele><time>2026-03-29T13:32:37.455Z</time></trkpt><trkpt lat="40.52397" lon="16.6286467"><ele>53.0</ele><time>2026-03-29T13:32:38.455Z</time></trkpt><trkpt lat="40.523805" lon="16.6288267"><ele>53.0</ele><time>2026-03-29T13:32:39.454Z</time></trkpt><trkpt lat="40.5236433" lon="16.6290067"><ele>53.0</ele><time>2026-03-29T13:32:40.455Z</time></trkpt><trkpt lat="40.5234833" lon="16.6291867"><ele>53.0</ele><time>2026-03-29T13:32:41.454Z</time></trkpt><trkpt lat="40.5233217" lon="16.6293667"><ele>53.0</ele><time>2026-03-29T13:32:42.454Z</time></trkpt><trkpt lat="40.52316" lon="16.6295467"><ele>53.0</ele><time>2026-03-29T13:32:43.454Z</time></trkpt><trkpt lat="40.5229983" lon="16.6297267"><ele>53.333333333333336</ele><time>2026-03-29T13:32:44.456Z</time></trkpt><trkpt lat="40.5228367" lon="16.6299067"><ele>53.66666666666667</ele><time>2026-03-29T13:32:45.455Z</time></trkpt><trkpt lat="40.522675" lon="16.6300867"><ele>54.0</ele><time>2026-03-29T13:32:46.454Z</time></trkpt><trkpt lat="40.5225117" lon="16.6302683"><ele>54.0</ele><time>2026-03-29T13:32:47.454Z</time></trkpt><trkpt lat="40.5223467" lon="16.63045"><ele>54.0</ele><time>2026-03-29T13:32:48.455Z</time></trkpt><trkpt lat="40.52218" lon="16.63063"><ele>54.0</ele><time>2026-03-29T13:32:49.454Z</time></trkpt><trkpt lat="40.522015" lon="16.63081"><ele>54.0</ele><time>2026-03-29T13:32:50.455Z</time></trkpt><trkpt lat="40.5218483" lon="16.6309867"><ele>54.0</ele><time>2026-03-29T13:32:51.455Z</time></trkpt><trkpt lat="40.52168" lon="16.6311583"><ele>54.0</ele><time>2026-03-29T13:32:52.455Z</time></trkpt><trkpt lat="40.52151" lon="16.6313317"><ele>54.0</ele><time>2026-03-29T13:32:53.455Z</time></trkpt><trkpt lat="40.52134" lon="16.631505"><ele>54.0</ele><time>2026-03-29T13:32:54.455Z</time></trkpt><trkpt lat="40.5211683" lon="16.6316783"><ele>54.0</ele><time>2026-03-29T13:32:55.455Z</time></trkpt><trkpt lat="40.520995" lon="16.6318517"><ele>53.33333333333333</ele><time>2026-03-29T13:32:56.455Z</time></trkpt><trkpt lat="40.52082" lon="16.6320267"><ele>52.666666666666664</ele><time>2026-03-29T13:32:57.454Z</time></trkpt><trkpt lat="40.520645" lon="16.632205"><ele>52.0</ele><time>2026-03-29T13:32:58.455Z</time></trkpt><trkpt lat="40.5204683" lon="16.6323833"><ele>52.666666666666664</ele><time>2026-03-29T13:32:59.456Z</time></trkpt><trkpt lat="40.52029" lon="16.6325583"><ele>53.33333333333333</ele><time>2026-03-29T13:33:00.455Z</time></trkpt><trkpt lat="40.52011" lon="16.63273"><ele>54.0</ele><time>2026-03-29T13:33:01.455Z</time></trkpt><trkpt lat="40.5199267" lon="16.6329033"><ele>54.0</ele><time>2026-03-29T13:33:02.455Z</time></trkpt><trkpt lat="40.5197433" lon="16.6330733"><ele>54.0</ele><time>2026-03-29T13:33:03.454Z</time></trkpt><trkpt lat="40.5195583" lon="16.6332433"><ele>54.0</ele><time>2026-03-29T13:33:04.454Z</time></trkpt><trkpt lat="40.5193717" lon="16.633415"><ele>54.0</ele><time>2026-03-29T13:33:05.454Z</time></trkpt><trkpt lat="40.519185" lon="16.633585"><ele>52.5</ele><time>2026-03-29T13:33:06.454Z</time></trkpt><trkpt lat="40.5189967" lon="16.63375"><ele>51.0</ele><time>2026-03-29T13:33:07.454Z</time></trkpt><trkpt lat="40.5188067" lon="16.6339167"><ele>51.0</ele><time>2026-03-29T13:33:08.454Z</time></trkpt><trkpt lat="40.5186167" lon="16.6340817"><ele>51.0</ele><time>2026-03-29T13:33:09.454Z</time></trkpt><trkpt lat="40.5184267" lon="16.634245"><ele>51.0</ele><time>2026-03-29T13:33:10.455Z</time></trkpt><trkpt lat="40.5182367" lon="16.6344083"><ele>51.0</ele><time>2026-03-29T13:33:11.454Z</time></trkpt><trkpt lat="40.51805" lon="16.6345683"><ele>51.0</ele><time>2026-03-29T13:33:12.454Z</time></trkpt><trkpt lat="40.5178633" lon="16.6347267"><ele>51.0</ele><time>2026-03-29T13:33:13.456Z</time></trkpt><trkpt lat="40.5176767" lon="16.6348817"><ele>51.0</ele><time>2026-03-29T13:33:14.455Z</time></trkpt><trkpt lat="40.51749" lon="16.6350383"><ele>51.0</ele><time>2026-03-29T13:33:15.454Z</time></trkpt><trkpt lat="40.5173017" lon="16.6351967"><ele>51.0</ele><time>2026-03-29T13:33:16.454Z</time></trkpt><trkpt lat="40.517115" lon="16.635355"><ele>51.0</ele><time>2026-03-29T13:33:17.454Z</time></trkpt><trkpt lat="40.51693" lon="16.6355167"><ele>51.66666666666667</ele><time>2026-03-29T13:33:18.457Z</time></trkpt><trkpt lat="40.516745" lon="16.635675"><ele>52.333333333333336</ele><time>2026-03-29T13:33:19.455Z</time></trkpt><trkpt lat="40.5165667" lon="16.6358383"><ele>53.0</ele><time>2026-03-29T13:33:20.455Z</time></trkpt><trkpt lat="40.516385" lon="16.6360017"><ele>52.333333333333336</ele><time>2026-03-29T13:33:21.454Z</time></trkpt><trkpt lat="40.5162033" lon="16.636165"><ele>51.66666666666667</ele><time>2026-03-29T13:33:22.454Z</time></trkpt><trkpt lat="40.5160217" lon="16.6363233"><ele>51.0</ele><time>2026-03-29T13:33:23.454Z</time></trkpt><trkpt lat="40.515845" lon="16.63648"><ele>51.0</ele><time>2026-03-29T13:33:24.454Z</time></trkpt><trkpt lat="40.5156667" lon="16.6366383"><ele>51.0</ele><time>2026-03-29T13:33:25.456Z</time></trkpt><trkpt lat="40.51549" lon="16.6367967"><ele>51.0</ele><time>2026-03-29T13:33:26.455Z</time></trkpt><trkpt lat="40.515315" lon="16.6369567"><ele>51.0</ele><time>2026-03-29T13:33:27.453Z</time></trkpt><trkpt lat="40.5151433" lon="16.63712"><ele>51.0</ele><time>2026-03-29T13:33:28.453Z</time></trkpt><trkpt lat="40.5149717" lon="16.637285"><ele>51.0</ele><time>2026-03-29T13:33:29.454Z</time></trkpt><trkpt lat="40.5148017" lon="16.6374517"><ele>51.0</ele><time>2026-03-29T13:33:30.455Z</time></trkpt><trkpt lat="40.5146317" lon="16.6376167"><ele>51.0</ele><time>2026-03-29T13:33:31.455Z</time></trkpt><trkpt lat="40.5144633" lon="16.6377833"><ele>51.0</ele><time>2026-03-29T13:33:32.455Z</time></trkpt><trkpt lat="40.5142933" lon="16.6379517"><ele>50.0</ele><time>2026-03-29T13:33:33.455Z</time></trkpt><trkpt lat="40.514125" lon="16.6381167"><ele>49.0</ele><time>2026-03-29T13:33:34.454Z</time></trkpt><trkpt lat="40.513955" lon="16.6382867"><ele>48.0</ele><time>2026-03-29T13:33:35.455Z</time></trkpt><trkpt lat="40.5137867" lon="16.6384567"><ele>48.33333333333333</ele><time>2026-03-29T13:33:36.456Z</time></trkpt><trkpt lat="40.5136183" lon="16.6386233"><ele>48.666666666666664</ele><time>2026-03-29T13:33:37.455Z</time></trkpt><trkpt lat="40.51345" lon="16.63879"><ele>49.0</ele><time>2026-03-29T13:33:38.455Z</time></trkpt><trkpt lat="40.5132817" lon="16.638955"><ele>49.0</ele><time>2026-03-29T13:33:39.454Z</time></trkpt><trkpt lat="40.5131133" lon="16.6391183"><ele>49.0</ele><time>2026-03-29T13:33:40.454Z</time></trkpt><trkpt lat="40.5129483" lon="16.63928"><ele>49.0</ele><time>2026-03-29T13:33:41.455Z</time></trkpt><trkpt lat="40.5127817" lon="16.6394417"><ele>49.0</ele><time>2026-03-29T13:33:42.454Z</time></trkpt><trkpt lat="40.5126167" lon="16.639605"><ele>49.0</ele><time>2026-03-29T13:33:43.454Z</time></trkpt><trkpt lat="40.5124533" lon="16.639765"><ele>49.0</ele><time>2026-03-29T13:33:44.456Z</time></trkpt><trkpt lat="40.5122883" lon="16.6399283"><ele>49.0</ele><time>2026-03-29T13:33:45.454Z</time></trkpt><trkpt lat="40.5121267" lon="16.64009"><ele>49.0</ele><time>2026-03-29T13:33:46.454Z</time></trkpt><trkpt lat="40.5119617" lon="16.6402567"><ele>49.0</ele><time>2026-03-29T13:33:47.453Z</time></trkpt><trkpt lat="40.5117983" lon="16.64042"><ele>48.33333333333333</ele><time>2026-03-29T13:33:48.454Z</time></trkpt><trkpt lat="40.5116333" lon="16.640585"><ele>47.666666666666664</ele><time>2026-03-29T13:33:49.455Z</time></trkpt><trkpt lat="40.51147" lon="16.6407467"><ele>47.0</ele><time>2026-03-29T13:33:50.456Z</time></trkpt><trkpt lat="40.5113067" lon="16.6409117"><ele>47.666666666666664</ele><time>2026-03-29T13:33:51.455Z</time></trkpt><trkpt lat="40.5111433" lon="16.6410767"><ele>48.33333333333333</ele><time>2026-03-29T13:33:52.454Z</time></trkpt><trkpt lat="40.5109783" lon="16.64124"><ele>49.0</ele><time>2026-03-29T13:33:53.454Z</time></trkpt><trkpt lat="40.5108133" lon="16.6414017"><ele>49.33333333333333</ele><time>2026-03-29T13:33:54.454Z</time></trkpt><trkpt lat="40.51065" lon="16.6415633"><ele>49.66666666666667</ele><time>2026-03-29T13:33:55.454Z</time></trkpt><trkpt lat="40.510485" lon="16.6417267"><ele>50.0</ele><time>2026-03-29T13:33:56.456Z</time></trkpt><trkpt lat="40.5103217" lon="16.6418917"><ele>51.0</ele><time>2026-03-29T13:33:57.455Z</time></trkpt><trkpt lat="40.51016" lon="16.64206"><ele>52.0</ele><time>2026-03-29T13:33:58.456Z</time></trkpt><trkpt lat="40.51" lon="16.64223"><ele>53.0</ele><time>2026-03-29T13:33:59.454Z</time></trkpt><trkpt lat="40.50984" lon="16.6424"><ele>53.0</ele><time>2026-03-29T13:34:00.455Z</time></trkpt><trkpt lat="40.5096833" lon="16.6425717"><ele>53.0</ele><time>2026-03-29T13:34:01.454Z</time></trkpt><trkpt lat="40.509525" lon="16.6427467"><ele>53.0</ele><time>2026-03-29T13:34:02.455Z</time></trkpt><trkpt lat="40.509365" lon="16.6429233"><ele>52.66666666666667</ele><time>2026-03-29T13:34:03.455Z</time></trkpt><trkpt lat="40.5092067" lon="16.6431"><ele>52.33333333333333</ele><time>2026-03-29T13:34:04.454Z</time></trkpt><trkpt lat="40.5090517" lon="16.64328"><ele>52.0</ele><time>2026-03-29T13:34:05.454Z</time></trkpt><trkpt lat="40.5088967" lon="16.6434633"><ele>52.33333333333333</ele><time>2026-03-29T13:34:06.454Z</time></trkpt><trkpt lat="40.50874" lon="16.6436483"><ele>52.66666666666667</ele><time>2026-03-29T13:34:07.454Z</time></trkpt><trkpt lat="40.508585" lon="16.643835"><ele>53.0</ele><time>2026-03-29T13:34:08.455Z</time></trkpt><trkpt lat="40.5084283" lon="16.6440233"><ele>53.0</ele><time>2026-03-29T13:34:09.454Z</time></trkpt><trkpt lat="40.5082733" lon="16.6442117"><ele>53.0</ele><time>2026-03-29T13:34:10.455Z</time></trkpt><trkpt lat="40.50812" lon="16.6444"><ele>53.0</ele><time>2026-03-29T13:34:11.456Z</time></trkpt><trkpt lat="40.5079667" lon="16.6445917"><ele>53.0</ele><time>2026-03-29T13:34:12.456Z</time></trkpt><trkpt lat="40.5078167" lon="16.6447867"><ele>53.0</ele><time>2026-03-29T13:34:13.455Z</time></trkpt><trkpt lat="40.5076667" lon="16.64498"><ele>53.0</ele><time>2026-03-29T13:34:14.455Z</time></trkpt><trkpt lat="40.5075183" lon="16.6451767"><ele>52.66666666666667</ele><time>2026-03-29T13:34:15.454Z</time></trkpt><trkpt lat="40.5073683" lon="16.6453767"><ele>52.33333333333333</ele><time>2026-03-29T13:34:16.454Z</time></trkpt><trkpt lat="40.5072183" lon="16.6455783"><ele>52.0</ele><time>2026-03-29T13:34:17.454Z</time></trkpt><trkpt lat="40.50707" lon="16.64578"><ele>51.666666666666664</ele><time>2026-03-29T13:34:18.454Z</time></trkpt><trkpt lat="40.5069233" lon="16.6459867"><ele>51.33333333333333</ele><time>2026-03-29T13:34:19.454Z</time></trkpt><trkpt lat="40.50678" lon="16.6461967"><ele>51.0</ele><time>2026-03-29T13:34:20.456Z</time></trkpt><trkpt lat="40.5066367" lon="16.6464067"><ele>51.0</ele><time>2026-03-29T13:34:21.454Z</time></trkpt><trkpt lat="40.50649" lon="16.6466233"><ele>51.0</ele><time>2026-03-29T13:34:22.456Z</time></trkpt><trkpt lat="40.5063483" lon="16.6468383"><ele>51.0</ele><time>2026-03-29T13:34:23.454Z</time></trkpt><trkpt lat="40.506205" lon="16.6470567"><ele>50.33333333333333</ele><time>2026-03-29T13:34:24.455Z</time></trkpt><trkpt lat="40.5060633" lon="16.6472733"><ele>49.666666666666664</ele><time>2026-03-29T13:34:25.455Z</time></trkpt><trkpt lat="40.505925" lon="16.6474917"><ele>49.0</ele><time>2026-03-29T13:34:26.456Z</time></trkpt><trkpt lat="40.5057883" lon="16.6477133"><ele>48.666666666666664</ele><time>2026-03-29T13:34:27.453Z</time></trkpt><trkpt lat="40.5056517" lon="16.647935"><ele>48.33333333333333</ele><time>2026-03-29T13:34:28.455Z</time></trkpt><trkpt lat="40.5055167" lon="16.6481567"><ele>48.0</ele><time>2026-03-29T13:34:29.455Z</time></trkpt><trkpt lat="40.5053833" lon="16.6483817"><ele>48.0</ele><time>2026-03-29T13:34:30.454Z</time></trkpt><trkpt lat="40.5052517" lon="16.6486083"><ele>48.0</ele><time>2026-03-29T13:34:31.455Z</time></trkpt><trkpt lat="40.5051233" lon="16.6488383"><ele>48.0</ele><time>2026-03-29T13:34:32.455Z</time></trkpt><trkpt lat="40.504995" lon="16.6490683"><ele>48.0</ele><time>2026-03-29T13:34:33.454Z</time></trkpt><trkpt lat="40.5048717" lon="16.6492967"><ele>48.0</ele><time>2026-03-29T13:34:34.455Z</time></trkpt><trkpt lat="40.5047467" lon="16.649525"><ele>48.0</ele><time>2026-03-29T13:34:35.455Z</time></trkpt><trkpt lat="40.5046267" lon="16.6497517"><ele>48.0</ele><time>2026-03-29T13:34:36.455Z</time></trkpt><trkpt lat="40.5045083" lon="16.6499767"><ele>48.0</ele><time>2026-03-29T13:34:37.455Z</time></trkpt><trkpt lat="40.5043917" lon="16.6502033"><ele>48.0</ele><time>2026-03-29T13:34:38.456Z</time></trkpt><trkpt lat="40.5042733" lon="16.6504317"><ele>48.33333333333333</ele><time>2026-03-29T13:34:39.454Z</time></trkpt><trkpt lat="40.5041567" lon="16.6506583"><ele>48.666666666666664</ele><time>2026-03-29T13:34:40.456Z</time></trkpt><trkpt lat="40.5040367" lon="16.6508867"><ele>49.0</ele><time>2026-03-29T13:34:41.454Z</time></trkpt><trkpt lat="40.50392" lon="16.651115"><ele>49.0</ele><time>2026-03-29T13:34:42.454Z</time></trkpt><trkpt lat="40.5038017" lon="16.6513467"><ele>49.0</ele><time>2026-03-29T13:34:43.454Z</time></trkpt><trkpt lat="40.503685" lon="16.6515833"><ele>49.0</ele><time>2026-03-29T13:34:44.455Z</time></trkpt><trkpt lat="40.5035717" lon="16.6518217"><ele>49.33333333333333</ele><time>2026-03-29T13:34:45.455Z</time></trkpt><trkpt lat="40.5034567" lon="16.65206"><ele>49.66666666666667</ele><time>2026-03-29T13:34:46.454Z</time></trkpt><trkpt lat="40.5033433" lon="16.6522967"><ele>50.0</ele><time>2026-03-29T13:34:47.454Z</time></trkpt><trkpt lat="40.5032283" lon="16.6525367"><ele>50.0</ele><time>2026-03-29T13:34:48.454Z</time></trkpt><trkpt lat="40.5031133" lon="16.652775"><ele>50.0</ele><time>2026-03-29T13:34:49.454Z</time></trkpt><trkpt lat="40.502995" lon="16.65301"><ele>50.0</ele><time>2026-03-29T13:34:50.455Z</time></trkpt><trkpt lat="40.50288" lon="16.653245"><ele>50.0</ele><time>2026-03-29T13:34:51.454Z</time></trkpt><trkpt lat="40.502765" lon="16.6534767"><ele>50.0</ele><time>2026-03-29T13:34:52.454Z</time></trkpt><trkpt lat="40.5026483" lon="16.6537067"><ele>50.0</ele><time>2026-03-29T13:34:53.455Z</time></trkpt><trkpt lat="40.5025333" lon="16.6539383"><ele>50.0</ele><time>2026-03-29T13:34:54.454Z</time></trkpt><trkpt lat="40.50242" lon="16.6541683"><ele>50.0</ele><time>2026-03-29T13:34:55.454Z</time></trkpt><trkpt lat="40.5023067" lon="16.6543983"><ele>50.0</ele><time>2026-03-29T13:34:56.455Z</time></trkpt><trkpt lat="40.502195" lon="16.6546267"><ele>50.0</ele><time>2026-03-29T13:34:57.454Z</time></trkpt><trkpt lat="40.5020817" lon="16.6548533"><ele>50.0</ele><time>2026-03-29T13:34:58.454Z</time></trkpt><trkpt lat="40.5019683" lon="16.65508"><ele>50.0</ele><time>2026-03-29T13:34:59.455Z</time></trkpt><trkpt lat="40.5018533" lon="16.6553033"><ele>49.333333333333336</ele><time>2026-03-29T13:35:00.455Z</time></trkpt><trkpt lat="40.501735" lon="16.6555233"><ele>48.66666666666667</ele><time>2026-03-29T13:35:01.457Z</time></trkpt><trkpt lat="40.5016117" lon="16.6557417"><ele>48.0</ele><time>2026-03-29T13:35:02.455Z</time></trkpt><trkpt lat="40.5014867" lon="16.6559583"><ele>47.666666666666664</ele><time>2026-03-29T13:35:03.456Z</time></trkpt><trkpt lat="40.5013583" lon="16.6561717"><ele>47.33333333333333</ele><time>2026-03-29T13:35:04.458Z</time></trkpt><trkpt lat="40.5012233" lon="16.65638"><ele>47.0</ele><time>2026-03-29T13:35:05.454Z</time></trkpt><trkpt lat="40.5010833" lon="16.656585"><ele>47.33333333333333</ele><time>2026-03-29T13:35:06.455Z</time></trkpt><trkpt lat="40.500935" lon="16.6567833"><ele>47.666666666666664</ele><time>2026-03-29T13:35:07.453Z</time></trkpt><trkpt lat="40.50078" lon="16.656975"><ele>48.0</ele><time>2026-03-29T13:35:08.454Z</time></trkpt><trkpt lat="40.5006233" lon="16.6571633"><ele>48.0</ele><time>2026-03-29T13:35:09.454Z</time></trkpt><trkpt lat="40.500465" lon="16.6573483"><ele>48.0</ele><time>2026-03-29T13:35:10.454Z</time></trkpt><trkpt lat="40.500305" lon="16.6575317"><ele>48.0</ele><time>2026-03-29T13:35:11.456Z</time></trkpt><trkpt lat="40.5001367" lon="16.65771"><ele>48.0</ele><time>2026-03-29T13:35:12.454Z</time></trkpt><trkpt lat="40.4999683" lon="16.6578817"><ele>48.0</ele><time>2026-03-29T13:35:13.455Z</time></trkpt><trkpt lat="40.4997933" lon="16.65805"><ele>48.0</ele><time>2026-03-29T13:35:14.455Z</time></trkpt><trkpt lat="40.499615" lon="16.6582083"><ele>47.666666666666664</ele><time>2026-03-29T13:35:15.454Z</time></trkpt><trkpt lat="40.4994333" lon="16.65836"><ele>47.33333333333333</ele><time>2026-03-29T13:35:16.454Z</time></trkpt><trkpt lat="40.4992467" lon="16.6585067"><ele>47.0</ele><time>2026-03-29T13:35:17.455Z</time></trkpt><trkpt lat="40.4990617" lon="16.6586517"><ele>47.0</ele><time>2026-03-29T13:35:18.455Z</time></trkpt><trkpt lat="40.4988767" lon="16.658795"><ele>47.0</ele><time>2026-03-29T13:35:19.454Z</time></trkpt><trkpt lat="40.4986933" lon="16.6589383"><ele>47.0</ele><time>2026-03-29T13:35:20.455Z</time></trkpt><trkpt lat="40.49851" lon="16.6590783"><ele>47.0</ele><time>2026-03-29T13:35:21.455Z</time></trkpt><trkpt lat="40.4983233" lon="16.6592183"><ele>47.0</ele><time>2026-03-29T13:35:22.454Z</time></trkpt><trkpt lat="40.4981383" lon="16.659355"><ele>47.0</ele><time>2026-03-29T13:35:23.454Z</time></trkpt><trkpt lat="40.4979533" lon="16.65949"><ele>47.666666666666664</ele><time>2026-03-29T13:35:24.454Z</time></trkpt><trkpt lat="40.4977667" lon="16.6596283"><ele>48.33333333333333</ele><time>2026-03-29T13:35:25.454Z</time></trkpt><trkpt lat="40.4975817" lon="16.6597683"><ele>49.0</ele><time>2026-03-29T13:35:26.456Z</time></trkpt><trkpt lat="40.4973983" lon="16.6599067"><ele>49.0</ele><time>2026-03-29T13:35:27.454Z</time></trkpt><trkpt lat="40.497215" lon="16.660045"><ele>49.0</ele><time>2026-03-29T13:35:28.454Z</time></trkpt><trkpt lat="40.49703" lon="16.6601833"><ele>49.0</ele><time>2026-03-29T13:35:29.454Z</time></trkpt><trkpt lat="40.4968483" lon="16.660325"><ele>48.33333333333333</ele><time>2026-03-29T13:35:30.454Z</time></trkpt><trkpt lat="40.4966667" lon="16.6604717"><ele>47.666666666666664</ele><time>2026-03-29T13:35:31.455Z</time></trkpt><trkpt lat="40.4964867" lon="16.66062"><ele>47.0</ele><time>2026-03-29T13:35:32.456Z</time></trkpt><trkpt lat="40.4963083" lon="16.6607683"><ele>46.666666666666664</ele><time>2026-03-29T13:35:33.456Z</time></trkpt><trkpt lat="40.4961317" lon="16.66092"><ele>46.333333333333336</ele><time>2026-03-29T13:35:34.454Z</time></trkpt><trkpt lat="40.4959583" lon="16.661075"><ele>46.0</ele><time>2026-03-29T13:35:35.454Z</time></trkpt><trkpt lat="40.4957883" lon="16.6612333"><ele>46.0</ele><time>2026-03-29T13:35:36.454Z</time></trkpt><trkpt lat="40.4956217" lon="16.661395"><ele>46.0</ele><time>2026-03-29T13:35:37.455Z</time></trkpt><trkpt lat="40.49546" lon="16.6615567"><ele>46.0</ele><time>2026-03-29T13:35:38.456Z</time></trkpt><trkpt lat="40.4953017" lon="16.6617233"><ele>46.0</ele><time>2026-03-29T13:35:39.455Z</time></trkpt><trkpt lat="40.495145" lon="16.6618967"><ele>46.0</ele><time>2026-03-29T13:35:40.454Z</time></trkpt><trkpt lat="40.4949933" lon="16.6620733"><ele>46.0</ele><time>2026-03-29T13:35:41.454Z</time></trkpt><trkpt lat="40.4948483" lon="16.6622467"><ele>46.0</ele><time>2026-03-29T13:35:42.454Z</time></trkpt><trkpt lat="40.4947083" lon="16.662415"><ele>46.0</ele><time>2026-03-29T13:35:43.455Z</time></trkpt><trkpt lat="40.4945733" lon="16.66258"><ele>46.0</ele><time>2026-03-29T13:35:44.455Z</time></trkpt><trkpt lat="40.4944433" lon="16.6627483"><ele>45.66666666666667</ele><time>2026-03-29T13:35:45.455Z</time></trkpt><trkpt lat="40.494325" lon="16.66292"><ele>45.333333333333336</ele><time>2026-03-29T13:35:46.454Z</time></trkpt><trkpt lat="40.4942117" lon="16.663095"><ele>45.0</ele><time>2026-03-29T13:35:47.454Z</time></trkpt><trkpt lat="40.4941017" lon="16.6632717"><ele>45.0</ele><time>2026-03-29T13:35:48.454Z</time></trkpt><trkpt lat="40.493995" lon="16.6634483"><ele>45.0</ele><time>2026-03-29T13:35:49.454Z</time></trkpt><trkpt lat="40.493895" lon="16.6636267"><ele>45.0</ele><time>2026-03-29T13:35:50.454Z</time></trkpt><trkpt lat="40.4937983" lon="16.6637917"><ele>45.0</ele><time>2026-03-29T13:35:51.455Z</time></trkpt><trkpt lat="40.4937083" lon="16.663945"><ele>45.0</ele><time>2026-03-29T13:35:52.454Z</time></trkpt><trkpt lat="40.493615" lon="16.6640917"><ele>45.0</ele><time>2026-03-29T13:35:53.454Z</time></trkpt><trkpt lat="40.4935117" lon="16.6642217"><ele>45.0</ele><time>2026-03-29T13:35:54.454Z</time></trkpt><trkpt lat="40.4934" lon="16.6643333"><ele>45.0</ele><time>2026-03-29T13:35:55.456Z</time></trkpt><trkpt lat="40.493275" lon="16.6644283"><ele>45.0</ele><time>2026-03-29T13:35:56.455Z</time></trkpt><trkpt lat="40.49314" lon="16.6645083"><ele>45.0</ele><time>2026-03-29T13:35:57.455Z</time></trkpt><trkpt lat="40.4929983" lon="16.6645717"><ele>45.0</ele><time>2026-03-29T13:35:58.454Z</time></trkpt><trkpt lat="40.4928433" lon="16.66462"><ele>45.666666666666664</ele><time>2026-03-29T13:35:59.454Z</time></trkpt><trkpt lat="40.4926767" lon="16.6646483"><ele>46.33333333333333</ele><time>2026-03-29T13:36:00.455Z</time></trkpt><trkpt lat="40.4924983" lon="16.6646517"><ele>47.0</ele><time>2026-03-29T13:36:01.455Z</time></trkpt><trkpt lat="40.4923133" lon="16.66464"><ele>47.0</ele><time>2026-03-29T13:36:02.455Z</time></trkpt><trkpt lat="40.4921267" lon="16.6646183"><ele>47.0</ele><time>2026-03-29T13:36:03.454Z</time></trkpt><trkpt lat="40.4919433" lon="16.6645967"><ele>47.0</ele><time>2026-03-29T13:36:04.456Z</time></trkpt><trkpt lat="40.49177" lon="16.6645817"><ele>49.33333333333333</ele><time>2026-03-29T13:36:05.454Z</time></trkpt><trkpt lat="40.4916083" lon="16.6645683"><ele>51.666666666666664</ele><time>2026-03-29T13:36:06.454Z</time></trkpt><trkpt lat="40.4914533" lon="16.6645483"><ele>54.0</ele><time>2026-03-29T13:36:07.455Z</time></trkpt><trkpt lat="40.4912967" lon="16.6645267"><ele>54.66666666666667</ele><time>2026-03-29T13:36:08.454Z</time></trkpt><trkpt lat="40.4911367" lon="16.6644967"><ele>55.333333333333336</ele><time>2026-03-29T13:36:09.454Z</time></trkpt><trkpt lat="40.4909733" lon="16.664455"><ele>56.0</ele><time>2026-03-29T13:36:10.455Z</time></trkpt><trkpt lat="40.4908067" lon="16.6644067"><ele>60.333333333333336</ele><time>2026-03-29T13:36:11.454Z</time></trkpt><trkpt lat="40.4906483" lon="16.6643417"><ele>64.66666666666667</ele><time>2026-03-29T13:36:12.455Z</time></trkpt><trkpt lat="40.4905133" lon="16.66426"><ele>69.0</ele><time>2026-03-29T13:36:13.455Z</time></trkpt><trkpt lat="40.4903883" lon="16.66418"><ele>69.5</ele><time>2026-03-29T13:36:14.455Z</time></trkpt><trkpt lat="40.490258" lon="16.6641256"><ele>70.0</ele><time>2026-03-29T13:36:15.454Z</time></trkpt><trkpt lat="40.4901129" lon="16.6641014"><ele>70.5</ele><time>2026-03-29T13:36:16.454Z</time></trkpt><trkpt lat="40.4899591" lon="16.6640995"><ele>71.0</ele><time>2026-03-29T13:36:17.455Z</time></trkpt><trkpt lat="40.4898128" lon="16.66411"><ele>71.0</ele><time>2026-03-29T13:36:18.454Z</time></trkpt><trkpt lat="40.4896856" lon="16.6641333"><ele>71.0</ele><time>2026-03-29T13:36:19.455Z</time></trkpt><trkpt lat="40.4895749" lon="16.6641836"><ele>71.0</ele><time>2026-03-29T13:36:20.455Z</time></trkpt><trkpt lat="40.489484" lon="16.6642689"><ele>71.0</ele><time>2026-03-29T13:36:21.454Z</time></trkpt><trkpt lat="40.4894199" lon="16.6643928"><ele>73.75</ele><time>2026-03-29T13:36:22.454Z</time></trkpt><trkpt lat="40.489377" lon="16.6645482"><ele>76.5</ele><time>2026-03-29T13:36:23.457Z</time></trkpt><trkpt lat="40.489329" lon="16.6647075"><ele>79.25</ele><time>2026-03-29T13:36:24.455Z</time></trkpt><trkpt lat="40.4892593" lon="16.6648491"><ele>82.0</ele><time>2026-03-29T13:36:25.456Z</time></trkpt><trkpt lat="40.4891906" lon="16.6649745"><ele>82.0</ele><time>2026-03-29T13:36:26.456Z</time></trkpt><trkpt lat="40.489147" lon="16.6651044"><ele>82.0</ele><time>2026-03-29T13:36:27.453Z</time></trkpt><trkpt lat="40.4891363" lon="16.6652499"><ele>82.0</ele><time>2026-03-29T13:36:28.455Z</time></trkpt><trkpt lat="40.489133" lon="16.6653953"><ele>82.0</ele><time>2026-03-29T13:36:29.454Z</time></trkpt><trkpt lat="40.4891063" lon="16.6655225"><ele>82.0</ele><time>2026-03-29T13:36:30.454Z</time></trkpt><trkpt lat="40.4890514" lon="16.6656128"><ele>82.75</ele><time>2026-03-29T13:36:31.454Z</time></trkpt><trkpt lat="40.4889651" lon="16.665654"><ele>83.5</ele><time>2026-03-29T13:36:32.456Z</time></trkpt><trkpt lat="40.4888481" lon="16.6656485"><ele>84.25</ele><time>2026-03-29T13:36:33.454Z</time></trkpt><trkpt lat="40.4887151" lon="16.6656086"><ele>85.0</ele><time>2026-03-29T13:36:34.456Z</time></trkpt><trkpt lat="40.4885881" lon="16.6655556"><ele>85.0</ele><time>2026-03-29T13:36:35.455Z</time></trkpt><trkpt lat="40.4884739" lon="16.6655162"><ele>85.0</ele><time>2026-03-29T13:36:36.457Z</time></trkpt><trkpt lat="40.4883715" lon="16.6655182"><ele>85.0</ele><time>2026-03-29T13:36:37.454Z</time></trkpt><trkpt lat="40.4882793" lon="16.665567"><ele>85.0</ele><time>2026-03-29T13:36:38.455Z</time></trkpt><trkpt lat="40.4882054" lon="16.6656492"><ele>85.0</ele><time>2026-03-29T13:36:39.455Z</time></trkpt><trkpt lat="40.488174" lon="16.6657896"><ele>85.0</ele><time>2026-03-29T13:36:40.455Z</time></trkpt><trkpt lat="40.4881568" lon="16.6659507"><ele>85.0</ele><time>2026-03-29T13:36:41.454Z</time></trkpt><trkpt lat="40.4881257" lon="16.6661017"><ele>85.0</ele><time>2026-03-29T13:36:42.454Z</time></trkpt><trkpt lat="40.4880627" lon="16.6662286"><ele>85.0</ele><time>2026-03-29T13:36:43.455Z</time></trkpt><trkpt lat="40.4879609" lon="16.6663319"><ele>86.5</ele><time>2026-03-29T13:36:44.456Z</time></trkpt><trkpt lat="40.4878383" lon="16.6664312"><ele>88.0</ele><time>2026-03-29T13:36:45.455Z</time></trkpt><trkpt lat="40.487711" lon="16.6665308"><ele>89.5</ele><time>2026-03-29T13:36:46.454Z</time></trkpt><trkpt lat="40.4875906" lon="16.6666258"><ele>91.0</ele><time>2026-03-29T13:36:47.454Z</time></trkpt><trkpt lat="40.4874854" lon="16.6667215"><ele>91.0</ele><time>2026-03-29T13:36:48.454Z</time></trkpt><trkpt lat="40.4874001" lon="16.6668286"><ele>91.0</ele><time>2026-03-29T13:36:49.455Z</time></trkpt><trkpt lat="40.4873372" lon="16.6669678"><ele>91.0</ele><time>2026-03-29T13:36:50.455Z</time></trkpt><trkpt lat="40.4872941" lon="16.6671329"><ele>91.0</ele><time>2026-03-29T13:36:51.454Z</time></trkpt><trkpt lat="40.4872521" lon="16.6673084"><ele>90.5</ele><time>2026-03-29T13:36:52.455Z</time></trkpt><trkpt lat="40.4872028" lon="16.667472"><ele>90.0</ele><time>2026-03-29T13:36:53.455Z</time></trkpt><trkpt lat="40.4871304" lon="16.6676109"><ele>89.5</ele><time>2026-03-29T13:36:54.454Z</time></trkpt><trkpt lat="40.4870233" lon="16.6677242"><ele>89.0</ele><time>2026-03-29T13:36:55.454Z</time></trkpt><trkpt lat="40.486889" lon="16.6678198"><ele>91.66666666666667</ele><time>2026-03-29T13:36:56.455Z</time></trkpt><trkpt lat="40.4867458" lon="16.6679091"><ele>94.33333333333334</ele><time>2026-03-29T13:36:57.455Z</time></trkpt><trkpt lat="40.4865959" lon="16.6680095"><ele>97.0</ele><time>2026-03-29T13:36:58.454Z</time></trkpt><trkpt lat="40.4864372" lon="16.6681241"><ele>97.0</ele><time>2026-03-29T13:36:59.454Z</time></trkpt><trkpt lat="40.486277" lon="16.6682383"><ele>97.0</ele><time>2026-03-29T13:37:00.454Z</time></trkpt><trkpt lat="40.4861263" lon="16.6683439"><ele>97.0</ele><time>2026-03-29T13:37:01.454Z</time></trkpt><trkpt lat="40.4859885" lon="16.668438"><ele>100.0</ele><time>2026-03-29T13:37:02.455Z</time></trkpt><trkpt lat="40.4858672" lon="16.6685408"><ele>103.0</ele><time>2026-03-29T13:37:03.454Z</time></trkpt><trkpt lat="40.4857608" lon="16.6686752"><ele>106.0</ele><time>2026-03-29T13:37:04.455Z</time></trkpt><trkpt lat="40.4856782" lon="16.6688478"><ele>109.0</ele><time>2026-03-29T13:37:05.454Z</time></trkpt><trkpt lat="40.4856219" lon="16.6690487"><ele>109.0</ele><time>2026-03-29T13:37:06.454Z</time></trkpt><trkpt lat="40.4855785" lon="16.6692626"><ele>109.0</ele><time>2026-03-29T13:37:07.454Z</time></trkpt><trkpt lat="40.4855452" lon="16.6694802"><ele>109.0</ele><time>2026-03-29T13:37:08.456Z</time></trkpt><trkpt lat="40.4855272" lon="16.6696986"><ele>109.33333333333334</ele><time>2026-03-29T13:37:09.454Z</time></trkpt><trkpt lat="40.485526" lon="16.6699164"><ele>109.66666666666666</ele><time>2026-03-29T13:37:10.457Z</time></trkpt><trkpt lat="40.4855369" lon="16.670128"><ele>110.0</ele><time>2026-03-29T13:37:11.454Z</time></trkpt><trkpt lat="40.4855554" lon="16.6703364"><ele>111.66666666666666</ele><time>2026-03-29T13:37:12.454Z</time></trkpt><trkpt lat="40.4856015" lon="16.6705413"><ele>113.33333333333334</ele><time>2026-03-29T13:37:13.455Z</time></trkpt><trkpt lat="40.4856763" lon="16.6707443"><ele>115.0</ele><time>2026-03-29T13:37:14.455Z</time></trkpt><trkpt lat="40.4857549" lon="16.6709516"><ele>119.0</ele><time>2026-03-29T13:37:15.455Z</time></trkpt><trkpt lat="40.4858262" lon="16.6711674"><ele>123.0</ele><time>2026-03-29T13:37:16.454Z</time></trkpt><trkpt lat="40.4858906" lon="16.6713953"><ele>127.0</ele><time>2026-03-29T13:37:17.454Z</time></trkpt><trkpt lat="40.485958" lon="16.6716238"><ele>127.0</ele><time>2026-03-29T13:37:18.455Z</time></trkpt><trkpt lat="40.4860257" lon="16.6718458"><ele>127.0</ele><time>2026-03-29T13:37:19.455Z</time></trkpt><trkpt lat="40.486095" lon="16.6720628"><ele>127.0</ele><time>2026-03-29T13:37:20.455Z</time></trkpt><trkpt lat="40.4861605" lon="16.6722706"><ele>129.33333333333334</ele><time>2026-03-29T13:37:21.454Z</time></trkpt><trkpt lat="40.4862202" lon="16.6724671"><ele>131.66666666666666</ele><time>2026-03-29T13:37:22.454Z</time></trkpt><trkpt lat="40.4862681" lon="16.6726662"><ele>134.0</ele><time>2026-03-29T13:37:23.454Z</time></trkpt><trkpt lat="40.4862955" lon="16.6728806"><ele>135.33333333333331</ele><time>2026-03-29T13:37:24.454Z</time></trkpt><trkpt lat="40.4863008" lon="16.6731102"><ele>136.66666666666666</ele><time>2026-03-29T13:37:25.455Z</time></trkpt><trkpt lat="40.4862827" lon="16.6733452"><ele>138.0</ele><time>2026-03-29T13:37:26.455Z</time></trkpt><trkpt lat="40.4862554" lon="16.6735797"><ele>138.0</ele><time>2026-03-29T13:37:27.454Z</time></trkpt><trkpt lat="40.4862359" lon="16.6738088"><ele>138.0</ele><time>2026-03-29T13:37:28.455Z</time></trkpt><trkpt lat="40.4862246" lon="16.6740338"><ele>138.0</ele><time>2026-03-29T13:37:29.456Z</time></trkpt><trkpt lat="40.4862069" lon="16.6742523"><ele>137.75</ele><time>2026-03-29T13:37:30.454Z</time></trkpt><trkpt lat="40.486175" lon="16.6744565"><ele>137.5</ele><time>2026-03-29T13:37:31.454Z</time></trkpt><trkpt lat="40.4861226" lon="16.6746395"><ele>137.25</ele><time>2026-03-29T13:37:32.456Z</time></trkpt><trkpt lat="40.4860625" lon="16.6747972"><ele>137.0</ele><time>2026-03-29T13:37:33.454Z</time></trkpt><trkpt lat="40.4860233" lon="16.6749512"><ele>137.0</ele><time>2026-03-29T13:37:34.455Z</time></trkpt><trkpt lat="40.4860203" lon="16.6751055"><ele>137.0</ele><time>2026-03-29T13:37:35.457Z</time></trkpt><trkpt lat="40.4860281" lon="16.6752465"><ele>137.0</ele><time>2026-03-29T13:37:36.454Z</time></trkpt><trkpt lat="40.4860155" lon="16.6753728"><ele>137.0</ele><time>2026-03-29T13:37:37.455Z</time></trkpt><trkpt lat="40.4859621" lon="16.6754766"><ele>137.0</ele><time>2026-03-29T13:37:38.455Z</time></trkpt><trkpt lat="40.4858642" lon="16.6755493"><ele>137.75</ele><time>2026-03-29T13:37:39.454Z</time></trkpt><trkpt lat="40.4857392" lon="16.6755895"><ele>138.5</ele><time>2026-03-29T13:37:40.454Z</time></trkpt><trkpt lat="40.4856006" lon="16.6755839"><ele>139.25</ele><time>2026-03-29T13:37:41.457Z</time></trkpt><trkpt lat="40.4854653" lon="16.6755375"><ele>140.0</ele><time>2026-03-29T13:37:42.454Z</time></trkpt><trkpt lat="40.4853438" lon="16.6754679"><ele>140.0</ele><time>2026-03-29T13:37:43.454Z</time></trkpt><trkpt lat="40.4852276" lon="16.6754156"><ele>140.0</ele><time>2026-03-29T13:37:44.456Z</time></trkpt><trkpt lat="40.4851086" lon="16.6754083"><ele>140.0</ele><time>2026-03-29T13:37:45.454Z</time></trkpt><trkpt lat="40.4849973" lon="16.6754568"><ele>140.0</ele><time>2026-03-29T13:37:46.455Z</time></trkpt><trkpt lat="40.4849011" lon="16.6755587"><ele>140.0</ele><time>2026-03-29T13:37:47.453Z</time></trkpt><trkpt lat="40.4848112" lon="16.6757106"><ele>140.0</ele><time>2026-03-29T13:37:48.453Z</time></trkpt><trkpt lat="40.4847167" lon="16.6758841"><ele>140.0</ele><time>2026-03-29T13:37:49.455Z</time></trkpt><trkpt lat="40.4846046" lon="16.6760527"><ele>143.33333333333331</ele><time>2026-03-29T13:37:50.456Z</time></trkpt><trkpt lat="40.484473" lon="16.6762057"><ele>146.66666666666666</ele><time>2026-03-29T13:37:51.454Z</time></trkpt><trkpt lat="40.4843237" lon="16.6763563"><ele>150.0</ele><time>2026-03-29T13:37:52.454Z</time></trkpt><trkpt lat="40.4841699" lon="16.6765098"><ele>150.0</ele><time>2026-03-29T13:37:53.454Z</time></trkpt><trkpt lat="40.4840324" lon="16.6766586"><ele>150.0</ele><time>2026-03-29T13:37:54.454Z</time></trkpt><trkpt lat="40.4839231" lon="16.6768106"><ele>150.0</ele><time>2026-03-29T13:37:55.46Z</time></trkpt><trkpt lat="40.4838496" lon="16.6769867"><ele>146.66666666666666</ele><time>2026-03-29T13:37:56.456Z</time></trkpt><trkpt lat="40.4837986" lon="16.6771879"><ele>143.33333333333331</ele><time>2026-03-29T13:37:57.456Z</time></trkpt><trkpt lat="40.4837442" lon="16.6773953"><ele>140.0</ele><time>2026-03-29T13:37:58.455Z</time></trkpt><trkpt lat="40.4836648" lon="16.6775937"><ele>148.33333333333331</ele><time>2026-03-29T13:37:59.456Z</time></trkpt><trkpt lat="40.4835652" lon="16.6777743"><ele>156.66666666666666</ele><time>2026-03-29T13:38:00.455Z</time></trkpt><trkpt lat="40.4834652" lon="16.6779435"><ele>165.0</ele><time>2026-03-29T13:38:01.455Z</time></trkpt><trkpt lat="40.4833789" lon="16.6781156"><ele>165.0</ele><time>2026-03-29T13:38:02.455Z</time></trkpt><trkpt lat="40.4833075" lon="16.6782967"><ele>165.0</ele><time>2026-03-29T13:38:03.457Z</time></trkpt><trkpt lat="40.4832539" lon="16.6784964"><ele>165.0</ele><time>2026-03-29T13:38:04.454Z</time></trkpt><trkpt lat="40.4832187" lon="16.6787161"><ele>163.66666666666666</ele><time>2026-03-29T13:38:05.455Z</time></trkpt><trkpt lat="40.4831925" lon="16.6789509"><ele>162.33333333333331</ele><time>2026-03-29T13:38:06.455Z</time></trkpt><trkpt lat="40.4831609" lon="16.6791893"><ele>161.0</ele><time>2026-03-29T13:38:07.454Z</time></trkpt><trkpt lat="40.4831243" lon="16.6794237"><ele>159.33333333333331</ele><time>2026-03-29T13:38:08.454Z</time></trkpt><trkpt lat="40.4830824" lon="16.6796523"><ele>157.66666666666666</ele><time>2026-03-29T13:38:09.454Z</time></trkpt><trkpt lat="40.483041" lon="16.6798765"><ele>156.0</ele><time>2026-03-29T13:38:10.456Z</time></trkpt><trkpt lat="40.482998" lon="16.6800963"><ele>154.66666666666666</ele><time>2026-03-29T13:38:11.454Z</time></trkpt><trkpt lat="40.4829496" lon="16.6803146"><ele>153.33333333333331</ele><time>2026-03-29T13:38:12.458Z</time></trkpt><trkpt lat="40.4828904" lon="16.6805299"><ele>152.0</ele><time>2026-03-29T13:38:13.454Z</time></trkpt><trkpt lat="40.4828245" lon="16.6807377"><ele>160.66666666666666</ele><time>2026-03-29T13:38:14.455Z</time></trkpt><trkpt lat="40.482756" lon="16.6809345"><ele>169.33333333333334</ele><time>2026-03-29T13:38:15.455Z</time></trkpt><trkpt lat="40.4826878" lon="16.6811163"><ele>178.0</ele><time>2026-03-29T13:38:16.455Z</time></trkpt><trkpt lat="40.4826309" lon="16.6812926"><ele>178.0</ele><time>2026-03-29T13:38:17.456Z</time></trkpt><trkpt lat="40.4826003" lon="16.6814814"><ele>178.0</ele><time>2026-03-29T13:38:18.455Z</time></trkpt><trkpt lat="40.4826009" lon="16.681684"><ele>178.0</ele><time>2026-03-29T13:38:19.455Z</time></trkpt><trkpt lat="40.4826184" lon="16.6818896"><ele>176.5</ele><time>2026-03-29T13:38:20.456Z</time></trkpt><trkpt lat="40.4826393" lon="16.6820897"><ele>175.0</ele><time>2026-03-29T13:38:21.455Z</time></trkpt><trkpt lat="40.482645" lon="16.6822709"><ele>173.5</ele><time>2026-03-29T13:38:22.455Z</time></trkpt><trkpt lat="40.4826279" lon="16.6824221"><ele>172.0</ele><time>2026-03-29T13:38:23.455Z</time></trkpt><trkpt lat="40.4825847" lon="16.6825356"><ele>172.0</ele><time>2026-03-29T13:38:24.455Z</time></trkpt><trkpt lat="40.4825234" lon="16.6826043"><ele>172.0</ele><time>2026-03-29T13:38:25.454Z</time></trkpt><trkpt lat="40.4824517" lon="16.6825879"><ele>172.0</ele><time>2026-03-29T13:38:26.455Z</time></trkpt><trkpt lat="40.4823767" lon="16.68251"><ele>172.0</ele><time>2026-03-29T13:38:27.454Z</time></trkpt><trkpt lat="40.4822993" lon="16.6824279"><ele>172.0</ele><time>2026-03-29T13:38:28.454Z</time></trkpt><trkpt lat="40.4822221" lon="16.6823728"><ele>172.0</ele><time>2026-03-29T13:38:29.455Z</time></trkpt><trkpt lat="40.4821392" lon="16.6824154"><ele>175.25</ele><time>2026-03-29T13:38:30.455Z</time></trkpt><trkpt lat="40.4820554" lon="16.6825338"><ele>178.5</ele><time>2026-03-29T13:38:31.455Z</time></trkpt><trkpt lat="40.4819805" lon="16.6827078"><ele>181.75</ele><time>2026-03-29T13:38:32.455Z</time></trkpt><trkpt lat="40.4819087" lon="16.6829107"><ele>185.0</ele><time>2026-03-29T13:38:33.454Z</time></trkpt><trkpt lat="40.4818352" lon="16.6831179"><ele>185.0</ele><time>2026-03-29T13:38:34.454Z</time></trkpt><trkpt lat="40.4817433" lon="16.6833163"><ele>185.0</ele><time>2026-03-29T13:38:35.455Z</time></trkpt><trkpt lat="40.4816273" lon="16.6834933"><ele>185.0</ele><time>2026-03-29T13:38:36.454Z</time></trkpt><trkpt lat="40.4814847" lon="16.6836372"><ele>185.0</ele><time>2026-03-29T13:38:37.455Z</time></trkpt><trkpt lat="40.4813181" lon="16.6837593"><ele>185.0</ele><time>2026-03-29T13:38:38.455Z</time></trkpt><trkpt lat="40.4811421" lon="16.6838686"><ele>185.0</ele><time>2026-03-29T13:38:39.455Z</time></trkpt><trkpt lat="40.4809697" lon="16.6839683"><ele>185.0</ele><time>2026-03-29T13:38:40.455Z</time></trkpt><trkpt lat="40.4808061" lon="16.6840579"><ele>185.0</ele><time>2026-03-29T13:38:41.455Z</time></trkpt><trkpt lat="40.4806406" lon="16.6841302"><ele>185.0</ele><time>2026-03-29T13:38:42.454Z</time></trkpt><trkpt lat="40.480464" lon="16.6841724"><ele>184.33333333333331</ele><time>2026-03-29T13:38:43.455Z</time></trkpt><trkpt lat="40.4802774" lon="16.6841794"><ele>183.66666666666666</ele><time>2026-03-29T13:38:44.454Z</time></trkpt><trkpt lat="40.4800778" lon="16.68417"><ele>183.0</ele><time>2026-03-29T13:38:45.455Z</time></trkpt><trkpt lat="40.4798724" lon="16.6841632"><ele>183.0</ele><time>2026-03-29T13:38:46.456Z</time></trkpt><trkpt lat="40.4796691" lon="16.6841589"><ele>183.0</ele><time>2026-03-29T13:38:47.454Z</time></trkpt><trkpt lat="40.4794666" lon="16.6841647"><ele>183.0</ele><time>2026-03-29T13:38:48.459Z</time></trkpt><trkpt lat="40.479265" lon="16.6841893"><ele>182.66666666666666</ele><time>2026-03-29T13:38:49.456Z</time></trkpt><trkpt lat="40.4790644" lon="16.6842463"><ele>182.33333333333331</ele><time>2026-03-29T13:38:50.456Z</time></trkpt><trkpt lat="40.4788661" lon="16.6843407"><ele>182.0</ele><time>2026-03-29T13:38:51.454Z</time></trkpt><trkpt lat="40.4786738" lon="16.6844649"><ele>181.0</ele><time>2026-03-29T13:38:52.454Z</time></trkpt><trkpt lat="40.4784869" lon="16.6846088"><ele>180.0</ele><time>2026-03-29T13:38:53.454Z</time></trkpt><trkpt lat="40.4783068" lon="16.6847672"><ele>179.0</ele><time>2026-03-29T13:38:54.454Z</time></trkpt><trkpt lat="40.4781294" lon="16.6849332"><ele>179.0</ele><time>2026-03-29T13:38:55.455Z</time></trkpt><trkpt lat="40.4779531" lon="16.6851005"><ele>179.0</ele><time>2026-03-29T13:38:56.455Z</time></trkpt><trkpt lat="40.4777768" lon="16.6852708"><ele>179.0</ele><time>2026-03-29T13:38:57.455Z</time></trkpt><trkpt lat="40.4775992" lon="16.6854419"><ele>179.0</ele><time>2026-03-29T13:38:58.455Z</time></trkpt><trkpt lat="40.4774235" lon="16.6856127"><ele>179.0</ele><time>2026-03-29T13:38:59.456Z</time></trkpt><trkpt lat="40.4772487" lon="16.6857825"><ele>179.0</ele><time>2026-03-29T13:39:00.455Z</time></trkpt><trkpt lat="40.4770727" lon="16.6859536"><ele>179.0</ele><time>2026-03-29T13:39:01.455Z</time></trkpt><trkpt lat="40.4768958" lon="16.6861239"><ele>179.0</ele><time>2026-03-29T13:39:02.455Z</time></trkpt><trkpt lat="40.4767188" lon="16.6862923"><ele>179.0</ele><time>2026-03-29T13:39:03.455Z</time></trkpt><trkpt lat="40.4765447" lon="16.6864577"><ele>179.0</ele><time>2026-03-29T13:39:04.455Z</time></trkpt><trkpt lat="40.4763714" lon="16.6866211"><ele>179.0</ele><time>2026-03-29T13:39:05.455Z</time></trkpt><trkpt lat="40.4761953" lon="16.6867843"><ele>179.0</ele><time>2026-03-29T13:39:06.455Z</time></trkpt><trkpt lat="40.4760119" lon="16.6869418"><ele>178.33333333333331</ele><time>2026-03-29T13:39:07.454Z</time></trkpt><trkpt lat="40.4758205" lon="16.6870897"><ele>177.66666666666666</ele><time>2026-03-29T13:39:08.454Z</time></trkpt><trkpt lat="40.4756278" lon="16.6872296"><ele>177.0</ele><time>2026-03-29T13:39:09.454Z</time></trkpt><trkpt lat="40.4754369" lon="16.6873615"><ele>176.66666666666666</ele><time>2026-03-29T13:39:10.454Z</time></trkpt><trkpt lat="40.4752467" lon="16.6874919"><ele>176.33333333333331</ele><time>2026-03-29T13:39:11.455Z</time></trkpt><trkpt lat="40.4750552" lon="16.6876231"><ele>176.0</ele><time>2026-03-29T13:39:12.455Z</time></trkpt><trkpt lat="40.4748607" lon="16.6877531"><ele>175.66666666666666</ele><time>2026-03-29T13:39:13.455Z</time></trkpt><trkpt lat="40.4746654" lon="16.6878788"><ele>175.33333333333334</ele><time>2026-03-29T13:39:14.456Z</time></trkpt><trkpt lat="40.4744645" lon="16.6879948"><ele>175.0</ele><time>2026-03-29T13:39:15.454Z</time></trkpt><trkpt lat="40.4742595" lon="16.6881012"><ele>175.0</ele><time>2026-03-29T13:39:16.454Z</time></trkpt><trkpt lat="40.4740527" lon="16.6882022"><ele>175.0</ele><time>2026-03-29T13:39:17.456Z</time></trkpt><trkpt lat="40.473847" lon="16.6883061"><ele>175.0</ele><time>2026-03-29T13:39:18.456Z</time></trkpt><trkpt lat="40.4736431" lon="16.6884143"><ele>175.33333333333334</ele><time>2026-03-29T13:39:19.454Z</time></trkpt><trkpt lat="40.4734371" lon="16.6885223"><ele>175.66666666666666</ele><time>2026-03-29T13:39:20.456Z</time></trkpt><trkpt lat="40.4732319" lon="16.6886291"><ele>176.0</ele><time>2026-03-29T13:39:21.456Z</time></trkpt><trkpt lat="40.473027" lon="16.6887344"><ele>175.33333333333331</ele><time>2026-03-29T13:39:22.454Z</time></trkpt><trkpt lat="40.4728234" lon="16.6888395"><ele>174.66666666666666</ele><time>2026-03-29T13:39:23.456Z</time></trkpt><trkpt lat="40.4726204" lon="16.6889457"><ele>174.0</ele><time>2026-03-29T13:39:24.454Z</time></trkpt><trkpt lat="40.4724172" lon="16.6890557"><ele>174.0</ele><time>2026-03-29T13:39:25.455Z</time></trkpt><trkpt lat="40.4722153" lon="16.6891657"><ele>174.0</ele><time>2026-03-29T13:39:26.455Z</time></trkpt><trkpt lat="40.4720135" lon="16.689277"><ele>174.0</ele><time>2026-03-29T13:39:27.455Z</time></trkpt><trkpt lat="40.4718134" lon="16.6893914"><ele>173.66666666666666</ele><time>2026-03-29T13:39:28.454Z</time></trkpt><trkpt lat="40.4716162" lon="16.6895181"><ele>173.33333333333331</ele><time>2026-03-29T13:39:29.455Z</time></trkpt><trkpt lat="40.4714223" lon="16.6896624"><ele>173.0</ele><time>2026-03-29T13:39:30.455Z</time></trkpt><trkpt lat="40.4712297" lon="16.6898265"><ele>173.0</ele><time>2026-03-29T13:39:31.454Z</time></trkpt><trkpt lat="40.4710407" lon="16.6899984"><ele>173.0</ele><time>2026-03-29T13:39:32.455Z</time></trkpt><trkpt lat="40.4708527" lon="16.6901708"><ele>172.0</ele><time>2026-03-29T13:39:33.455Z</time></trkpt><trkpt lat="40.4706635" lon="16.6903409"><ele>171.0</ele><time>2026-03-29T13:39:34.454Z</time></trkpt><trkpt lat="40.4704724" lon="16.6905137"><ele>171.0</ele><time>2026-03-29T13:39:35.455Z</time></trkpt><trkpt lat="40.4702806" lon="16.690686"><ele>171.0</ele><time>2026-03-29T13:39:36.455Z</time></trkpt><trkpt lat="40.4700886" lon="16.6908593"><ele>171.0</ele><time>2026-03-29T13:39:37.456Z</time></trkpt><trkpt lat="40.4698983" lon="16.6910326"><ele>171.0</ele><time>2026-03-29T13:39:38.455Z</time></trkpt><trkpt lat="40.4697085" lon="16.6912031"><ele>170.0</ele><time>2026-03-29T13:39:39.454Z</time></trkpt><trkpt lat="40.4695201" lon="16.6913705"><ele>169.0</ele><time>2026-03-29T13:39:40.456Z</time></trkpt><trkpt lat="40.4693351" lon="16.6915353"><ele>169.0</ele><time>2026-03-29T13:39:41.454Z</time></trkpt><trkpt lat="40.4691519" lon="16.6916985"><ele>169.0</ele><time>2026-03-29T13:39:42.454Z</time></trkpt><trkpt lat="40.4689688" lon="16.6918589"><ele>169.0</ele><time>2026-03-29T13:39:43.455Z</time></trkpt><trkpt lat="40.468788" lon="16.6920167"><ele>169.33333333333334</ele><time>2026-03-29T13:39:44.456Z</time></trkpt><trkpt lat="40.4686125" lon="16.6921689"><ele>169.66666666666666</ele><time>2026-03-29T13:39:45.455Z</time></trkpt><trkpt lat="40.468441" lon="16.6923143"><ele>170.0</ele><time>2026-03-29T13:39:46.454Z</time></trkpt><trkpt lat="40.4682683" lon="16.6924584"><ele>170.0</ele><time>2026-03-29T13:39:47.454Z</time></trkpt><trkpt lat="40.468095" lon="16.6926016"><ele>170.0</ele><time>2026-03-29T13:39:48.454Z</time></trkpt><trkpt lat="40.4679157" lon="16.6927416"><ele>170.0</ele><time>2026-03-29T13:39:49.455Z</time></trkpt><trkpt lat="40.4677296" lon="16.6928767"><ele>169.66666666666666</ele><time>2026-03-29T13:39:50.455Z</time></trkpt><trkpt lat="40.4675342" lon="16.6930042"><ele>169.33333333333334</ele><time>2026-03-29T13:39:51.454Z</time></trkpt><trkpt lat="40.4673313" lon="16.6931214"><ele>169.0</ele><time>2026-03-29T13:39:52.454Z</time></trkpt><trkpt lat="40.4671296" lon="16.6932308"><ele>169.66666666666669</ele><time>2026-03-29T13:39:53.455Z</time></trkpt><trkpt lat="40.4669292" lon="16.6933387"><ele>170.33333333333334</ele><time>2026-03-29T13:39:54.455Z</time></trkpt><trkpt lat="40.4667334" lon="16.6934494"><ele>171.0</ele><time>2026-03-29T13:39:55.454Z</time></trkpt><trkpt lat="40.4665417" lon="16.6935579"><ele>170.33333333333334</ele><time>2026-03-29T13:39:56.455Z</time></trkpt><trkpt lat="40.4663546" lon="16.6936672"><ele>169.66666666666669</ele><time>2026-03-29T13:39:57.454Z</time></trkpt><trkpt lat="40.4661709" lon="16.6937827"><ele>169.0</ele><time>2026-03-29T13:39:58.455Z</time></trkpt><trkpt lat="40.4659909" lon="16.6939154"><ele>168.66666666666669</ele><time>2026-03-29T13:39:59.454Z</time></trkpt><trkpt lat="40.4658217" lon="16.6940682"><ele>168.33333333333334</ele><time>2026-03-29T13:40:00.454Z</time></trkpt><trkpt lat="40.4656659" lon="16.6942437"><ele>168.0</ele><time>2026-03-29T13:40:01.455Z</time></trkpt><trkpt lat="40.4655195" lon="16.6944243"><ele>167.33333333333334</ele><time>2026-03-29T13:40:02.455Z</time></trkpt><trkpt lat="40.4653786" lon="16.6945939"><ele>166.66666666666669</ele><time>2026-03-29T13:40:03.454Z</time></trkpt><trkpt lat="40.4652376" lon="16.6947402"><ele>166.0</ele><time>2026-03-29T13:40:04.455Z</time></trkpt><trkpt lat="40.4650952" lon="16.6948619"><ele>166.0</ele><time>2026-03-29T13:40:05.455Z</time></trkpt><trkpt lat="40.4649565" lon="16.6949637"><ele>166.0</ele><time>2026-03-29T13:40:06.454Z</time></trkpt><trkpt lat="40.4648237" lon="16.6950499"><ele>166.0</ele><time>2026-03-29T13:40:07.456Z</time></trkpt><trkpt lat="40.4646886" lon="16.6951118"><ele>165.33333333333334</ele><time>2026-03-29T13:40:08.454Z</time></trkpt><trkpt lat="40.4645422" lon="16.6951326"><ele>164.66666666666666</ele><time>2026-03-29T13:40:09.456Z</time></trkpt><trkpt lat="40.4643817" lon="16.6951183"><ele>164.0</ele><time>2026-03-29T13:40:10.454Z</time></trkpt><trkpt lat="40.4642083" lon="16.69508"><ele>164.0</ele><time>2026-03-29T13:40:11.456Z</time></trkpt><trkpt lat="40.4640383" lon="16.695055"><ele>164.0</ele><time>2026-03-29T13:40:12.455Z</time></trkpt><trkpt lat="40.4638767" lon="16.6950267"><ele>164.0</ele><time>2026-03-29T13:40:13.455Z</time></trkpt><trkpt lat="40.46373" lon="16.69499"><ele>163.0</ele><time>2026-03-29T13:40:14.455Z</time></trkpt><trkpt lat="40.4636033" lon="16.69494"><ele>162.0</ele><time>2026-03-29T13:40:15.455Z</time></trkpt><trkpt lat="40.4634983" lon="16.6948683"><ele>161.0</ele><time>2026-03-29T13:40:16.455Z</time></trkpt><trkpt lat="40.4634167" lon="16.6947467"><ele>160.0</ele><time>2026-03-29T13:40:17.455Z</time></trkpt><trkpt lat="40.4633483" lon="16.69461"><ele>160.0</ele><time>2026-03-29T13:40:18.454Z</time></trkpt><trkpt lat="40.4633" lon="16.6944783"><ele>160.0</ele><time>2026-03-29T13:40:19.454Z</time></trkpt><trkpt lat="40.4632717" lon="16.6943683"><ele>160.0</ele><time>2026-03-29T13:40:20.455Z</time></trkpt><trkpt lat="40.46327" lon="16.6942733"><ele>160.0</ele><time>2026-03-29T13:40:21.456Z</time></trkpt><trkpt lat="40.4633033" lon="16.6941883"><ele>160.0</ele><time>2026-03-29T13:40:22.454Z</time></trkpt><trkpt lat="40.463365" lon="16.6941167"><ele>160.0</ele><time>2026-03-29T13:40:23.454Z</time></trkpt><trkpt lat="40.4634717" lon="16.69409"><ele>159.75</ele><time>2026-03-29T13:40:24.454Z</time></trkpt><trkpt lat="40.4635867" lon="16.6940933"><ele>159.5</ele><time>2026-03-29T13:40:25.454Z</time></trkpt><trkpt lat="40.463705" lon="16.6941017"><ele>159.25</ele><time>2026-03-29T13:40:26.458Z</time></trkpt><trkpt lat="40.46383" lon="16.694085"><ele>159.0</ele><time>2026-03-29T13:40:27.454Z</time></trkpt><trkpt lat="40.4639567" lon="16.6940333"><ele>159.0</ele><time>2026-03-29T13:40:28.455Z</time></trkpt><trkpt lat="40.4640783" lon="16.6939533"><ele>159.0</ele><time>2026-03-29T13:40:29.455Z</time></trkpt><trkpt lat="40.4641867" lon="16.69385"><ele>159.0</ele><time>2026-03-29T13:40:30.454Z</time></trkpt><trkpt lat="40.464285" lon="16.6937117"><ele>159.0</ele><time>2026-03-29T13:40:31.456Z</time></trkpt><trkpt lat="40.464365" lon="16.6935383"><ele>155.66666666666666</ele><time>2026-03-29T13:40:32.455Z</time></trkpt><trkpt lat="40.4644283" lon="16.69335"><ele>152.33333333333331</ele><time>2026-03-29T13:40:33.454Z</time></trkpt><trkpt lat="40.4644917" lon="16.6931667"><ele>149.0</ele><time>2026-03-29T13:40:34.454Z</time></trkpt><trkpt lat="40.4645683" lon="16.6929917"><ele>149.0</ele><time>2026-03-29T13:40:35.456Z</time></trkpt><trkpt lat="40.4646667" lon="16.6928233"><ele>149.0</ele><time>2026-03-29T13:40:36.454Z</time></trkpt><trkpt lat="40.46478" lon="16.69266"><ele>149.0</ele><time>2026-03-29T13:40:37.458Z</time></trkpt><trkpt lat="40.4648933" lon="16.6925017"><ele>149.0</ele><time>2026-03-29T13:40:38.455Z</time></trkpt><trkpt lat="40.4649933" lon="16.692355"><ele>149.0</ele><time>2026-03-29T13:40:39.455Z</time></trkpt><trkpt lat="40.4650833" lon="16.692185"><ele>149.0</ele><time>2026-03-29T13:40:40.455Z</time></trkpt><trkpt lat="40.4651567" lon="16.6919917"><ele>146.25</ele><time>2026-03-29T13:40:41.454Z</time></trkpt><trkpt lat="40.465225" lon="16.691795"><ele>143.5</ele><time>2026-03-29T13:40:42.456Z</time></trkpt><trkpt lat="40.4652917" lon="16.6916133"><ele>140.75</ele><time>2026-03-29T13:40:43.454Z</time></trkpt><trkpt lat="40.4653483" lon="16.6914583"><ele>138.0</ele><time>2026-03-29T13:40:44.456Z</time></trkpt><trkpt lat="40.4653783" lon="16.69131"><ele>138.0</ele><time>2026-03-29T13:40:45.463Z</time></trkpt><trkpt lat="40.4653714" lon="16.6911636"><ele>138.0</ele><time>2026-03-29T13:40:46.454Z</time></trkpt><trkpt lat="40.4653223" lon="16.6910241"><ele>138.0</ele><time>2026-03-29T13:40:47.454Z</time></trkpt><trkpt lat="40.4652434" lon="16.6908901"><ele>138.0</ele><time>2026-03-29T13:40:48.456Z</time></trkpt><trkpt lat="40.465142" lon="16.6907503"><ele>138.25</ele><time>2026-03-29T13:40:49.455Z</time></trkpt><trkpt lat="40.4650395" lon="16.6906044"><ele>138.5</ele><time>2026-03-29T13:40:50.456Z</time></trkpt><trkpt lat="40.4649439" lon="16.690456"><ele>138.75</ele><time>2026-03-29T13:40:51.455Z</time></trkpt><trkpt lat="40.4648574" lon="16.6903182"><ele>139.0</ele><time>2026-03-29T13:40:52.456Z</time></trkpt><trkpt lat="40.4647887" lon="16.6902272"><ele>139.0</ele><time>2026-03-29T13:40:53.455Z</time></trkpt><trkpt lat="40.4647257" lon="16.6901737"><ele>139.0</ele><time>2026-03-29T13:40:54.454Z</time></trkpt><trkpt lat="40.4646523" lon="16.6901549"><ele>139.0</ele><time>2026-03-29T13:40:55.454Z</time></trkpt><trkpt lat="40.4645523" lon="16.6902057"><ele>139.0</ele><time>2026-03-29T13:40:56.456Z</time></trkpt><trkpt lat="40.4644314" lon="16.6903086"><ele>139.0</ele><time>2026-03-29T13:40:57.454Z</time></trkpt><trkpt lat="40.4642995" lon="16.6904483"><ele>137.66666666666669</ele><time>2026-03-29T13:40:58.455Z</time></trkpt><trkpt lat="40.4641683" lon="16.6906001"><ele>136.33333333333334</ele><time>2026-03-29T13:40:59.457Z</time></trkpt><trkpt lat="40.4640454" lon="16.6907429"><ele>135.0</ele><time>2026-03-29T13:41:00.455Z</time></trkpt><trkpt lat="40.4639261" lon="16.6908603"><ele>135.0</ele><time>2026-03-29T13:41:01.455Z</time></trkpt><trkpt lat="40.4637976" lon="16.6909393"><ele>135.0</ele><time>2026-03-29T13:41:02.455Z</time></trkpt><trkpt lat="40.4636545" lon="16.6909857"><ele>135.0</ele><time>2026-03-29T13:41:03.454Z</time></trkpt><trkpt lat="40.4634985" lon="16.6910173"><ele>135.0</ele><time>2026-03-29T13:41:04.456Z</time></trkpt><trkpt lat="40.4633405" lon="16.6910658"><ele>134.66666666666666</ele><time>2026-03-29T13:41:05.454Z</time></trkpt><trkpt lat="40.4631842" lon="16.6911508"><ele>134.33333333333331</ele><time>2026-03-29T13:41:06.455Z</time></trkpt><trkpt lat="40.4630367" lon="16.6912675"><ele>134.0</ele><time>2026-03-29T13:41:07.454Z</time></trkpt><trkpt lat="40.4628953" lon="16.6913978"><ele>134.0</ele><time>2026-03-29T13:41:08.454Z</time></trkpt><trkpt lat="40.4627595" lon="16.6915133"><ele>134.0</ele><time>2026-03-29T13:41:09.454Z</time></trkpt><trkpt lat="40.4626246" lon="16.691607"><ele>134.0</ele><time>2026-03-29T13:41:10.454Z</time></trkpt><trkpt lat="40.4624828" lon="16.6916766"><ele>134.0</ele><time>2026-03-29T13:41:11.454Z</time></trkpt><trkpt lat="40.4623092" lon="16.6917154"><ele>134.0</ele><time>2026-03-29T13:41:12.455Z</time></trkpt><trkpt lat="40.4621182" lon="16.6917567"><ele>134.0</ele><time>2026-03-29T13:41:13.455Z</time></trkpt><trkpt lat="40.4619251" lon="16.6918101"><ele>132.33333333333331</ele><time>2026-03-29T13:41:14.455Z</time></trkpt><trkpt lat="40.4617386" lon="16.6918667"><ele>130.66666666666666</ele><time>2026-03-29T13:41:15.454Z</time></trkpt><trkpt lat="40.4615608" lon="16.6919128"><ele>129.0</ele><time>2026-03-29T13:41:16.454Z</time></trkpt><trkpt lat="40.46139" lon="16.6919447"><ele>129.33333333333334</ele><time>2026-03-29T13:41:17.454Z</time></trkpt><trkpt lat="40.4612275" lon="16.6919645"><ele>129.66666666666669</ele><time>2026-03-29T13:41:18.454Z</time></trkpt><trkpt lat="40.4610783" lon="16.6919767"><ele>130.0</ele><time>2026-03-29T13:41:19.455Z</time></trkpt><trkpt lat="40.4609417" lon="16.6920017"><ele>130.0</ele><time>2026-03-29T13:41:20.455Z</time></trkpt><trkpt lat="40.460825" lon="16.6920467"><ele>130.0</ele><time>2026-03-29T13:41:21.455Z</time></trkpt><trkpt lat="40.4607317" lon="16.6921367"><ele>130.0</ele><time>2026-03-29T13:41:22.454Z</time></trkpt><trkpt lat="40.460665" lon="16.692275"><ele>130.0</ele><time>2026-03-29T13:41:23.454Z</time></trkpt><trkpt lat="40.4605817" lon="16.6924283"><ele>130.0</ele><time>2026-03-29T13:41:24.454Z</time></trkpt><trkpt lat="40.4604667" lon="16.69258"><ele>130.0</ele><time>2026-03-29T13:41:25.454Z</time></trkpt><trkpt lat="40.460345" lon="16.69274"><ele>130.0</ele><time>2026-03-29T13:41:26.456Z</time></trkpt><trkpt lat="40.4602467" lon="16.6928983"><ele>131.25</ele><time>2026-03-29T13:41:27.454Z</time></trkpt><trkpt lat="40.4601633" lon="16.6930417"><ele>132.5</ele><time>2026-03-29T13:41:28.454Z</time></trkpt><trkpt lat="40.460075" lon="16.6931533"><ele>133.75</ele><time>2026-03-29T13:41:29.454Z</time></trkpt><trkpt lat="40.4599683" lon="16.69322"><ele>135.0</ele><time>2026-03-29T13:41:30.455Z</time></trkpt><trkpt lat="40.45983" lon="16.6932367"><ele>135.0</ele><time>2026-03-29T13:41:31.456Z</time></trkpt><trkpt lat="40.459675" lon="16.6931983"><ele>135.0</ele><time>2026-03-29T13:41:32.455Z</time></trkpt><trkpt lat="40.45951" lon="16.6931333"><ele>135.0</ele><time>2026-03-29T13:41:33.455Z</time></trkpt><trkpt lat="40.459345" lon="16.6930717"><ele>137.25</ele><time>2026-03-29T13:41:34.455Z</time></trkpt><trkpt lat="40.4591883" lon="16.6930217"><ele>139.5</ele><time>2026-03-29T13:41:35.454Z</time></trkpt><trkpt lat="40.4590467" lon="16.6929817"><ele>141.75</ele><time>2026-03-29T13:41:36.454Z</time></trkpt><trkpt lat="40.458915" lon="16.6929683"><ele>144.0</ele><time>2026-03-29T13:41:37.461Z</time></trkpt><trkpt lat="40.458795" lon="16.693"><ele>145.5</ele><time>2026-03-29T13:41:38.455Z</time></trkpt><trkpt lat="40.458695" lon="16.69308"><ele>147.0</ele><time>2026-03-29T13:41:39.454Z</time></trkpt><trkpt lat="40.4586183" lon="16.6932083"><ele>148.5</ele><time>2026-03-29T13:41:40.454Z</time></trkpt><trkpt lat="40.4585617" lon="16.693355"><ele>150.0</ele><time>2026-03-29T13:41:41.456Z</time></trkpt><trkpt lat="40.4585017" lon="16.693495"><ele>150.0</ele><time>2026-03-29T13:41:42.455Z</time></trkpt><trkpt lat="40.4584267" lon="16.6936083"><ele>150.0</ele><time>2026-03-29T13:41:43.454Z</time></trkpt><trkpt lat="40.45833" lon="16.6936767"><ele>150.0</ele><time>2026-03-29T13:41:44.455Z</time></trkpt><trkpt lat="40.4582" lon="16.693665"><ele>150.0</ele><time>2026-03-29T13:41:45.454Z</time></trkpt><trkpt lat="40.4580667" lon="16.693585"><ele>150.66666666666666</ele><time>2026-03-29T13:41:46.454Z</time></trkpt><trkpt lat="40.457935" lon="16.693455"><ele>151.33333333333331</ele><time>2026-03-29T13:41:47.454Z</time></trkpt><trkpt lat="40.4578" lon="16.693305"><ele>152.0</ele><time>2026-03-29T13:41:48.454Z</time></trkpt><trkpt lat="40.4576633" lon="16.69316"><ele>152.0</ele><time>2026-03-29T13:41:49.455Z</time></trkpt><trkpt lat="40.457525" lon="16.6930167"><ele>152.0</ele><time>2026-03-29T13:41:50.456Z</time></trkpt><trkpt lat="40.4574" lon="16.6928633"><ele>152.0</ele><time>2026-03-29T13:41:51.454Z</time></trkpt><trkpt lat="40.457295" lon="16.692685"><ele>152.0</ele><time>2026-03-29T13:41:52.454Z</time></trkpt><trkpt lat="40.4572117" lon="16.6924783"><ele>152.0</ele><time>2026-03-29T13:41:53.454Z</time></trkpt><trkpt lat="40.4571417" lon="16.6922583"><ele>152.0</ele><time>2026-03-29T13:41:54.455Z</time></trkpt><trkpt lat="40.4570783" lon="16.6920383"><ele>153.0</ele><time>2026-03-29T13:41:55.454Z</time></trkpt><trkpt lat="40.457015" lon="16.691825"><ele>154.0</ele><time>2026-03-29T13:41:56.456Z</time></trkpt><trkpt lat="40.456955" lon="16.6916233"><ele>155.0</ele><time>2026-03-29T13:41:57.454Z</time></trkpt><trkpt lat="40.456895" lon="16.6914333"><ele>155.0</ele><time>2026-03-29T13:41:58.454Z</time></trkpt><trkpt lat="40.4568283" lon="16.6912433"><ele>155.0</ele><time>2026-03-29T13:41:59.455Z</time></trkpt><trkpt lat="40.4567467" lon="16.69106"><ele>155.0</ele><time>2026-03-29T13:42:00.458Z</time></trkpt><trkpt lat="40.4566433" lon="16.6908867"><ele>153.66666666666666</ele><time>2026-03-29T13:42:01.454Z</time></trkpt><trkpt lat="40.4565283" lon="16.6907133"><ele>152.33333333333334</ele><time>2026-03-29T13:42:02.457Z</time></trkpt><trkpt lat="40.4564067" lon="16.6905483"><ele>151.0</ele><time>2026-03-29T13:42:03.455Z</time></trkpt><trkpt lat="40.4562633" lon="16.6903967"><ele>151.33333333333334</ele><time>2026-03-29T13:42:04.454Z</time></trkpt><trkpt lat="40.4561" lon="16.6902567"><ele>151.66666666666666</ele><time>2026-03-29T13:42:05.455Z</time></trkpt><trkpt lat="40.45593" lon="16.690125"><ele>152.0</ele><time>2026-03-29T13:42:06.455Z</time></trkpt><trkpt lat="40.45577" lon="16.689995"><ele>152.0</ele><time>2026-03-29T13:42:07.455Z</time></trkpt><trkpt lat="40.455615" lon="16.689865"><ele>152.0</ele><time>2026-03-29T13:42:08.455Z</time></trkpt><trkpt lat="40.455465" lon="16.6897417"><ele>152.0</ele><time>2026-03-29T13:42:09.454Z</time></trkpt><trkpt lat="40.4553183" lon="16.689635"><ele>151.66666666666666</ele><time>2026-03-29T13:42:10.455Z</time></trkpt><trkpt lat="40.4551683" lon="16.6895617"><ele>151.33333333333334</ele><time>2026-03-29T13:42:11.454Z</time></trkpt><trkpt lat="40.4550067" lon="16.68953"><ele>151.0</ele><time>2026-03-29T13:42:12.454Z</time></trkpt><trkpt lat="40.454835" lon="16.68954"><ele>151.0</ele><time>2026-03-29T13:42:13.454Z</time></trkpt><trkpt lat="40.45466" lon="16.689565"><ele>151.0</ele><time>2026-03-29T13:42:14.455Z</time></trkpt><trkpt lat="40.45448" lon="16.6895767"><ele>151.0</ele><time>2026-03-29T13:42:15.454Z</time></trkpt><trkpt lat="40.4543067" lon="16.6895533"><ele>151.33333333333334</ele><time>2026-03-29T13:42:16.454Z</time></trkpt><trkpt lat="40.4541367" lon="16.6894817"><ele>151.66666666666666</ele><time>2026-03-29T13:42:17.455Z</time></trkpt><trkpt lat="40.4539667" lon="16.689385"><ele>152.0</ele><time>2026-03-29T13:42:18.455Z</time></trkpt><trkpt lat="40.453795" lon="16.68928"><ele>153.33333333333331</ele><time>2026-03-29T13:42:19.455Z</time></trkpt><trkpt lat="40.4536133" lon="16.68917"><ele>154.66666666666666</ele><time>2026-03-29T13:42:20.455Z</time></trkpt><trkpt lat="40.453425" lon="16.6890567"><ele>156.0</ele><time>2026-03-29T13:42:21.454Z</time></trkpt><trkpt lat="40.4532283" lon="16.68894"><ele>156.0</ele><time>2026-03-29T13:42:22.454Z</time></trkpt><trkpt lat="40.4530283" lon="16.68882"><ele>156.0</ele><time>2026-03-29T13:42:23.454Z</time></trkpt><trkpt lat="40.4528267" lon="16.6887017"><ele>156.0</ele><time>2026-03-29T13:42:24.455Z</time></trkpt><trkpt lat="40.452625" lon="16.6885833"><ele>155.66666666666666</ele><time>2026-03-29T13:42:25.454Z</time></trkpt><trkpt lat="40.4524267" lon="16.6884667"><ele>155.33333333333331</ele><time>2026-03-29T13:42:26.455Z</time></trkpt><trkpt lat="40.4522317" lon="16.6883533"><ele>155.0</ele><time>2026-03-29T13:42:27.454Z</time></trkpt><trkpt lat="40.4520467" lon="16.6882417"><ele>154.33333333333331</ele><time>2026-03-29T13:42:28.455Z</time></trkpt><trkpt lat="40.4518683" lon="16.6881333"><ele>153.66666666666666</ele><time>2026-03-29T13:42:29.454Z</time></trkpt><trkpt lat="40.451695" lon="16.6880167"><ele>153.0</ele><time>2026-03-29T13:42:30.455Z</time></trkpt><trkpt lat="40.4515267" lon="16.6878833"><ele>153.0</ele><time>2026-03-29T13:42:31.455Z</time></trkpt><trkpt lat="40.4513617" lon="16.6877267"><ele>153.0</ele><time>2026-03-29T13:42:32.456Z</time></trkpt><trkpt lat="40.451205" lon="16.68755"><ele>153.0</ele><time>2026-03-29T13:42:33.456Z</time></trkpt><trkpt lat="40.4510467" lon="16.687365"><ele>153.0</ele><time>2026-03-29T13:42:34.454Z</time></trkpt><trkpt lat="40.4508867" lon="16.6871817"><ele>153.0</ele><time>2026-03-29T13:42:35.455Z</time></trkpt><trkpt lat="40.4507283" lon="16.6869983"><ele>153.0</ele><time>2026-03-29T13:42:36.454Z</time></trkpt><trkpt lat="40.4505733" lon="16.6868183"><ele>154.33333333333334</ele><time>2026-03-29T13:42:37.454Z</time></trkpt><trkpt lat="40.4504183" lon="16.6866383"><ele>155.66666666666669</ele><time>2026-03-29T13:42:38.455Z</time></trkpt><trkpt lat="40.4502667" lon="16.68646"><ele>157.0</ele><time>2026-03-29T13:42:39.454Z</time></trkpt><trkpt lat="40.4501133" lon="16.6862833"><ele>157.0</ele><time>2026-03-29T13:42:40.455Z</time></trkpt><trkpt lat="40.4499633" lon="16.6861083"><ele>157.0</ele><time>2026-03-29T13:42:41.454Z</time></trkpt><trkpt lat="40.4498217" lon="16.6859267"><ele>157.0</ele><time>2026-03-29T13:42:42.454Z</time></trkpt><trkpt lat="40.449695" lon="16.6857383"><ele>156.66666666666669</ele><time>2026-03-29T13:42:43.456Z</time></trkpt><trkpt lat="40.4495833" lon="16.6855533"><ele>156.33333333333334</ele><time>2026-03-29T13:42:44.455Z</time></trkpt><trkpt lat="40.4494667" lon="16.6853817"><ele>156.0</ele><time>2026-03-29T13:42:45.454Z</time></trkpt><trkpt lat="40.4493317" lon="16.6852317"><ele>157.66666666666666</ele><time>2026-03-29T13:42:46.454Z</time></trkpt><trkpt lat="40.4491683" lon="16.6851083"><ele>159.33333333333331</ele><time>2026-03-29T13:42:47.453Z</time></trkpt><trkpt lat="40.4489867" lon="16.6849983"><ele>161.0</ele><time>2026-03-29T13:42:48.455Z</time></trkpt><trkpt lat="40.4488017" lon="16.6848883"><ele>160.33333333333331</ele><time>2026-03-29T13:42:49.455Z</time></trkpt><trkpt lat="40.44862" lon="16.6847717"><ele>159.66666666666666</ele><time>2026-03-29T13:42:50.455Z</time></trkpt><trkpt lat="40.4484433" lon="16.684655"><ele>159.0</ele><time>2026-03-29T13:42:51.455Z</time></trkpt><trkpt lat="40.4482733" lon="16.684545"><ele>159.0</ele><time>2026-03-29T13:42:52.454Z</time></trkpt><trkpt lat="40.44811" lon="16.6844467"><ele>159.0</ele><time>2026-03-29T13:42:53.455Z</time></trkpt><trkpt lat="40.4479467" lon="16.684375"><ele>159.0</ele><time>2026-03-29T13:42:54.454Z</time></trkpt><trkpt lat="40.4477833" lon="16.6843267"><ele>159.33333333333334</ele><time>2026-03-29T13:42:55.454Z</time></trkpt><trkpt lat="40.4476283" lon="16.6842967"><ele>159.66666666666669</ele><time>2026-03-29T13:42:56.455Z</time></trkpt><trkpt lat="40.4474867" lon="16.6842583"><ele>160.0</ele><time>2026-03-29T13:42:57.454Z</time></trkpt><trkpt lat="40.4473483" lon="16.6841883"><ele>160.0</ele><time>2026-03-29T13:42:58.454Z</time></trkpt><trkpt lat="40.44721" lon="16.6840717"><ele>160.0</ele><time>2026-03-29T13:42:59.454Z</time></trkpt><trkpt lat="40.44707" lon="16.6839367"><ele>160.0</ele><time>2026-03-29T13:43:00.454Z</time></trkpt><trkpt lat="40.4469217" lon="16.6838133"><ele>159.0</ele><time>2026-03-29T13:43:01.456Z</time></trkpt><trkpt lat="40.44675" lon="16.683705"><ele>158.0</ele><time>2026-03-29T13:43:02.455Z</time></trkpt><trkpt lat="40.4465633" lon="16.6836133"><ele>157.0</ele><time>2026-03-29T13:43:03.455Z</time></trkpt><trkpt lat="40.4463683" lon="16.683525"><ele>156.66666666666669</ele><time>2026-03-29T13:43:04.454Z</time></trkpt><trkpt lat="40.446165" lon="16.6834433"><ele>156.33333333333334</ele><time>2026-03-29T13:43:05.455Z</time></trkpt><trkpt lat="40.44596" lon="16.6833717"><ele>156.0</ele><time>2026-03-29T13:43:06.455Z</time></trkpt><trkpt lat="40.445755" lon="16.6833167"><ele>156.0</ele><time>2026-03-29T13:43:07.456Z</time></trkpt><trkpt lat="40.4455533" lon="16.68328"><ele>156.0</ele><time>2026-03-29T13:43:08.455Z</time></trkpt><trkpt lat="40.4453567" lon="16.683255"><ele>156.0</ele><time>2026-03-29T13:43:09.454Z</time></trkpt><trkpt lat="40.44517" lon="16.6832217"><ele>157.0</ele><time>2026-03-29T13:43:10.454Z</time></trkpt><trkpt lat="40.4449917" lon="16.6831733"><ele>158.0</ele><time>2026-03-29T13:43:11.454Z</time></trkpt><trkpt lat="40.4448167" lon="16.6831183"><ele>159.0</ele><time>2026-03-29T13:43:12.454Z</time></trkpt><trkpt lat="40.444635" lon="16.6830733"><ele>158.33333333333334</ele><time>2026-03-29T13:43:13.454Z</time></trkpt><trkpt lat="40.4444433" lon="16.683045"><ele>157.66666666666669</ele><time>2026-03-29T13:43:14.456Z</time></trkpt><trkpt lat="40.444245" lon="16.6830367"><ele>157.0</ele><time>2026-03-29T13:43:15.455Z</time></trkpt><trkpt lat="40.4440417" lon="16.6830533"><ele>157.0</ele><time>2026-03-29T13:43:16.456Z</time></trkpt><trkpt lat="40.4438367" lon="16.6830867"><ele>157.0</ele><time>2026-03-29T13:43:17.454Z</time></trkpt><trkpt lat="40.443635" lon="16.6831283"><ele>157.0</ele><time>2026-03-29T13:43:18.457Z</time></trkpt><trkpt lat="40.4434333" lon="16.683165"><ele>155.66666666666669</ele><time>2026-03-29T13:43:19.455Z</time></trkpt><trkpt lat="40.4432283" lon="16.6831833"><ele>154.33333333333334</ele><time>2026-03-29T13:43:20.457Z</time></trkpt><trkpt lat="40.4430167" lon="16.683175"><ele>153.0</ele><time>2026-03-29T13:43:21.455Z</time></trkpt><trkpt lat="40.442805" lon="16.68315"><ele>153.0</ele><time>2026-03-29T13:43:22.455Z</time></trkpt><trkpt lat="40.442595" lon="16.6831183"><ele>153.0</ele><time>2026-03-29T13:43:23.454Z</time></trkpt><trkpt lat="40.442385" lon="16.6830817"><ele>153.0</ele><time>2026-03-29T13:43:24.454Z</time></trkpt><trkpt lat="40.44218" lon="16.6830367"><ele>152.66666666666666</ele><time>2026-03-29T13:43:25.455Z</time></trkpt><trkpt lat="40.4419783" lon="16.6829867"><ele>152.33333333333331</ele><time>2026-03-29T13:43:26.455Z</time></trkpt><trkpt lat="40.44178" lon="16.6829367"><ele>152.0</ele><time>2026-03-29T13:43:27.455Z</time></trkpt><trkpt lat="40.441585" lon="16.6828933"><ele>152.0</ele><time>2026-03-29T13:43:28.454Z</time></trkpt><trkpt lat="40.4413933" lon="16.682845"><ele>152.0</ele><time>2026-03-29T13:43:29.455Z</time></trkpt><trkpt lat="40.4412117" lon="16.682785"><ele>152.0</ele><time>2026-03-29T13:43:30.454Z</time></trkpt><trkpt lat="40.4410417" lon="16.6827033"><ele>152.66666666666666</ele><time>2026-03-29T13:43:31.454Z</time></trkpt><trkpt lat="40.4408783" lon="16.68259"><ele>153.33333333333334</ele><time>2026-03-29T13:43:32.455Z</time></trkpt><trkpt lat="40.4407233" lon="16.682445"><ele>154.0</ele><time>2026-03-29T13:43:33.454Z</time></trkpt><trkpt lat="40.4405833" lon="16.6822683"><ele>153.33333333333334</ele><time>2026-03-29T13:43:34.455Z</time></trkpt><trkpt lat="40.4404633" lon="16.6820683"><ele>152.66666666666666</ele><time>2026-03-29T13:43:35.455Z</time></trkpt><trkpt lat="40.4403613" lon="16.6818724"><ele>152.0</ele><time>2026-03-29T13:43:36.454Z</time></trkpt><trkpt lat="40.4402835" lon="16.6817012"><ele>151.5</ele><time>2026-03-29T13:43:37.455Z</time></trkpt><trkpt lat="40.4402248" lon="16.6815471"><ele>151.0</ele><time>2026-03-29T13:43:38.456Z</time></trkpt><trkpt lat="40.4401959" lon="16.6813932"><ele>150.5</ele><time>2026-03-29T13:43:39.455Z</time></trkpt><trkpt lat="40.4402019" lon="16.681219"><ele>150.0</ele><time>2026-03-29T13:43:40.456Z</time></trkpt><trkpt lat="40.44024" lon="16.6810355"><ele>149.0</ele><time>2026-03-29T13:43:41.455Z</time></trkpt><trkpt lat="40.4402855" lon="16.6808622"><ele>148.0</ele><time>2026-03-29T13:43:42.454Z</time></trkpt><trkpt lat="40.4403152" lon="16.6807107"><ele>147.0</ele><time>2026-03-29T13:43:43.454Z</time></trkpt><trkpt lat="40.4403089" lon="16.6805703"><ele>146.0</ele><time>2026-03-29T13:43:44.454Z</time></trkpt><trkpt lat="40.4402653" lon="16.6804459"><ele>146.0</ele><time>2026-03-29T13:43:45.456Z</time></trkpt><trkpt lat="40.4401897" lon="16.6803444"><ele>146.0</ele><time>2026-03-29T13:43:46.457Z</time></trkpt><trkpt lat="40.4400752" lon="16.680258"><ele>146.0</ele><time>2026-03-29T13:43:47.454Z</time></trkpt><trkpt lat="40.4399381" lon="16.6801794"><ele>146.0</ele><time>2026-03-29T13:43:48.454Z</time></trkpt><trkpt lat="40.4397995" lon="16.6801025"><ele>145.5</ele><time>2026-03-29T13:43:49.453Z</time></trkpt><trkpt lat="40.4396725" lon="16.6800241"><ele>145.0</ele><time>2026-03-29T13:43:50.456Z</time></trkpt><trkpt lat="40.4395556" lon="16.6799663"><ele>144.5</ele><time>2026-03-29T13:43:51.454Z</time></trkpt><trkpt lat="40.4394495" lon="16.6799532"><ele>144.0</ele><time>2026-03-29T13:43:52.454Z</time></trkpt><trkpt lat="40.4393541" lon="16.6799987"><ele>144.5</ele><time>2026-03-29T13:43:53.455Z</time></trkpt><trkpt lat="40.439264" lon="16.680096"><ele>145.0</ele><time>2026-03-29T13:43:54.455Z</time></trkpt><trkpt lat="40.4391746" lon="16.6802196"><ele>145.5</ele><time>2026-03-29T13:43:55.454Z</time></trkpt><trkpt lat="40.4390669" lon="16.6803215"><ele>146.0</ele><time>2026-03-29T13:43:56.456Z</time></trkpt><trkpt lat="40.438939" lon="16.6803932"><ele>147.66666666666666</ele><time>2026-03-29T13:43:57.454Z</time></trkpt><trkpt lat="40.4387941" lon="16.6804392"><ele>149.33333333333334</ele><time>2026-03-29T13:43:58.454Z</time></trkpt><trkpt lat="40.4386406" lon="16.6804753"><ele>151.0</ele><time>2026-03-29T13:43:59.456Z</time></trkpt><trkpt lat="40.4384758" lon="16.6805046"><ele>151.0</ele><time>2026-03-29T13:44:00.454Z</time></trkpt><trkpt lat="40.4382966" lon="16.6805111"><ele>151.0</ele><time>2026-03-29T13:44:01.454Z</time></trkpt><trkpt lat="40.4381045" lon="16.6804889"><ele>151.0</ele><time>2026-03-29T13:44:02.455Z</time></trkpt><trkpt lat="40.4379094" lon="16.6804546"><ele>150.33333333333334</ele><time>2026-03-29T13:44:03.454Z</time></trkpt><trkpt lat="40.4377147" lon="16.6804167"><ele>149.66666666666666</ele><time>2026-03-29T13:44:04.455Z</time></trkpt><trkpt lat="40.4375182" lon="16.6803818"><ele>149.0</ele><time>2026-03-29T13:44:05.454Z</time></trkpt><trkpt lat="40.4373207" lon="16.6803515"><ele>149.66666666666666</ele><time>2026-03-29T13:44:06.454Z</time></trkpt><trkpt lat="40.4371234" lon="16.680325"><ele>150.33333333333334</ele><time>2026-03-29T13:44:07.454Z</time></trkpt><trkpt lat="40.4369253" lon="16.6802959"><ele>151.0</ele><time>2026-03-29T13:44:08.454Z</time></trkpt><trkpt lat="40.4367298" lon="16.6802662"><ele>152.0</ele><time>2026-03-29T13:44:09.454Z</time></trkpt><trkpt lat="40.4365354" lon="16.6802399"><ele>153.0</ele><time>2026-03-29T13:44:10.455Z</time></trkpt><trkpt lat="40.4363375" lon="16.6802205"><ele>154.0</ele><time>2026-03-29T13:44:11.454Z</time></trkpt><trkpt lat="40.436136" lon="16.6802123"><ele>154.0</ele><time>2026-03-29T13:44:12.454Z</time></trkpt><trkpt lat="40.4359295" lon="16.6802118"><ele>154.0</ele><time>2026-03-29T13:44:13.454Z</time></trkpt><trkpt lat="40.4357234" lon="16.6802186"><ele>154.0</ele><time>2026-03-29T13:44:14.455Z</time></trkpt><trkpt lat="40.4355182" lon="16.680227"><ele>153.66666666666669</ele><time>2026-03-29T13:44:15.454Z</time></trkpt><trkpt lat="40.4353147" lon="16.6802437"><ele>153.33333333333334</ele><time>2026-03-29T13:44:16.454Z</time></trkpt><trkpt lat="40.4351119" lon="16.6802667"><ele>153.0</ele><time>2026-03-29T13:44:17.454Z</time></trkpt><trkpt lat="40.4349081" lon="16.6802995"><ele>152.33333333333334</ele><time>2026-03-29T13:44:18.455Z</time></trkpt><trkpt lat="40.4347062" lon="16.6803412"><ele>151.66666666666669</ele><time>2026-03-29T13:44:19.454Z</time></trkpt><trkpt lat="40.4345063" lon="16.6803869"><ele>151.0</ele><time>2026-03-29T13:44:20.456Z</time></trkpt><trkpt lat="40.4343108" lon="16.6804426"><ele>150.66666666666669</ele><time>2026-03-29T13:44:21.454Z</time></trkpt><trkpt lat="40.4341193" lon="16.6805075"><ele>150.33333333333334</ele><time>2026-03-29T13:44:22.454Z</time></trkpt><trkpt lat="40.4339325" lon="16.6805742"><ele>150.0</ele><time>2026-03-29T13:44:23.455Z</time></trkpt><trkpt lat="40.4337495" lon="16.6806299"><ele>150.0</ele><time>2026-03-29T13:44:24.456Z</time></trkpt><trkpt lat="40.4335663" lon="16.6806616"><ele>150.0</ele><time>2026-03-29T13:44:25.454Z</time></trkpt><trkpt lat="40.4333871" lon="16.6806615"><ele>150.0</ele><time>2026-03-29T13:44:26.455Z</time></trkpt><trkpt lat="40.4332154" lon="16.6806482"><ele>150.0</ele><time>2026-03-29T13:44:27.454Z</time></trkpt><trkpt lat="40.433055" lon="16.680631"><ele>150.0</ele><time>2026-03-29T13:44:28.454Z</time></trkpt><trkpt lat="40.4328966" lon="16.6806025"><ele>150.0</ele><time>2026-03-29T13:44:29.456Z</time></trkpt><trkpt lat="40.4327326" lon="16.6805523"><ele>149.66666666666666</ele><time>2026-03-29T13:44:30.455Z</time></trkpt><trkpt lat="40.4325584" lon="16.6804783"><ele>149.33333333333331</ele><time>2026-03-29T13:44:31.455Z</time></trkpt><trkpt lat="40.4323763" lon="16.6803914"><ele>149.0</ele><time>2026-03-29T13:44:32.455Z</time></trkpt><trkpt lat="40.4321896" lon="16.6803061"><ele>148.66666666666666</ele><time>2026-03-29T13:44:33.454Z</time></trkpt><trkpt lat="40.4319965" lon="16.6802132"><ele>148.33333333333334</ele><time>2026-03-29T13:44:34.454Z</time></trkpt><trkpt lat="40.4317993" lon="16.6801153"><ele>148.0</ele><time>2026-03-29T13:44:35.454Z</time></trkpt><trkpt lat="40.4316034" lon="16.680012"><ele>148.0</ele><time>2026-03-29T13:44:36.454Z</time></trkpt><trkpt lat="40.4314099" lon="16.6799064"><ele>148.0</ele><time>2026-03-29T13:44:37.456Z</time></trkpt><trkpt lat="40.4312197" lon="16.6797979"><ele>148.0</ele><time>2026-03-29T13:44:38.455Z</time></trkpt><trkpt lat="40.4310298" lon="16.6796883"><ele>148.0</ele><time>2026-03-29T13:44:39.454Z</time></trkpt><trkpt lat="40.4308382" lon="16.6795781"><ele>148.0</ele><time>2026-03-29T13:44:40.456Z</time></trkpt><trkpt lat="40.4306494" lon="16.6794707"><ele>148.0</ele><time>2026-03-29T13:44:41.455Z</time></trkpt><trkpt lat="40.4304613" lon="16.6793628"><ele>147.66666666666669</ele><time>2026-03-29T13:44:42.455Z</time></trkpt><trkpt lat="40.4302773" lon="16.679255"><ele>147.33333333333334</ele><time>2026-03-29T13:44:43.454Z</time></trkpt><trkpt lat="40.4300961" lon="16.679145"><ele>147.0</ele><time>2026-03-29T13:44:44.455Z</time></trkpt><trkpt lat="40.4299147" lon="16.6790325"><ele>147.0</ele><time>2026-03-29T13:44:45.454Z</time></trkpt><trkpt lat="40.4297331" lon="16.6789131"><ele>147.0</ele><time>2026-03-29T13:44:46.454Z</time></trkpt><trkpt lat="40.4295514" lon="16.6787845"><ele>147.0</ele><time>2026-03-29T13:44:47.454Z</time></trkpt><trkpt lat="40.429374" lon="16.6786439"><ele>147.66666666666666</ele><time>2026-03-29T13:44:48.454Z</time></trkpt><trkpt lat="40.4292046" lon="16.6784886"><ele>148.33333333333331</ele><time>2026-03-29T13:44:49.454Z</time></trkpt><trkpt lat="40.4290425" lon="16.6783216"><ele>149.0</ele><time>2026-03-29T13:44:50.455Z</time></trkpt><trkpt lat="40.4288832" lon="16.6781481"><ele>148.0</ele><time>2026-03-29T13:44:51.454Z</time></trkpt><trkpt lat="40.4287235" lon="16.6779767"><ele>147.0</ele><time>2026-03-29T13:44:52.456Z</time></trkpt><trkpt lat="40.4285633" lon="16.6778055"><ele>146.0</ele><time>2026-03-29T13:44:53.455Z</time></trkpt><trkpt lat="40.4284066" lon="16.6776339"><ele>146.0</ele><time>2026-03-29T13:44:54.454Z</time></trkpt><trkpt lat="40.4282499" lon="16.677462"><ele>146.0</ele><time>2026-03-29T13:44:55.454Z</time></trkpt><trkpt lat="40.4280959" lon="16.6772965"><ele>146.0</ele><time>2026-03-29T13:44:56.455Z</time></trkpt><trkpt lat="40.4279406" lon="16.6771358"><ele>146.0</ele><time>2026-03-29T13:44:57.454Z</time></trkpt><trkpt lat="40.4277798" lon="16.6769836"><ele>146.0</ele><time>2026-03-29T13:44:58.455Z</time></trkpt><trkpt lat="40.4276121" lon="16.6768471"><ele>146.0</ele><time>2026-03-29T13:44:59.455Z</time></trkpt><trkpt lat="40.4274311" lon="16.6767365"><ele>147.33333333333331</ele><time>2026-03-29T13:45:00.454Z</time></trkpt><trkpt lat="40.4272419" lon="16.6766546"><ele>148.66666666666666</ele><time>2026-03-29T13:45:01.455Z</time></trkpt><trkpt lat="40.4270463" lon="16.6766014"><ele>150.0</ele><time>2026-03-29T13:45:02.455Z</time></trkpt><trkpt lat="40.4268462" lon="16.6765715"><ele>150.0</ele><time>2026-03-29T13:45:03.455Z</time></trkpt><trkpt lat="40.4266452" lon="16.6765562"><ele>150.0</ele><time>2026-03-29T13:45:04.455Z</time></trkpt><trkpt lat="40.426443" lon="16.6765453"><ele>150.0</ele><time>2026-03-29T13:45:05.456Z</time></trkpt><trkpt lat="40.4262398" lon="16.6765341"><ele>149.33333333333334</ele><time>2026-03-29T13:45:06.454Z</time></trkpt><trkpt lat="40.4260337" lon="16.6765227"><ele>148.66666666666669</ele><time>2026-03-29T13:45:07.454Z</time></trkpt><trkpt lat="40.4258279" lon="16.6765122"><ele>148.0</ele><time>2026-03-29T13:45:08.455Z</time></trkpt><trkpt lat="40.4256216" lon="16.6764998"><ele>147.0</ele><time>2026-03-29T13:45:09.454Z</time></trkpt><trkpt lat="40.4254204" lon="16.6764925"><ele>146.0</ele><time>2026-03-29T13:45:10.456Z</time></trkpt><trkpt lat="40.4252271" lon="16.6764812"><ele>145.0</ele><time>2026-03-29T13:45:11.455Z</time></trkpt><trkpt lat="40.4250429" lon="16.6764661"><ele>145.0</ele><time>2026-03-29T13:45:12.455Z</time></trkpt><trkpt lat="40.4248639" lon="16.6764383"><ele>145.0</ele><time>2026-03-29T13:45:13.454Z</time></trkpt><trkpt lat="40.4246875" lon="16.6763806"><ele>145.0</ele><time>2026-03-29T13:45:14.456Z</time></trkpt><trkpt lat="40.4245209" lon="16.6762755"><ele>145.66666666666669</ele><time>2026-03-29T13:45:15.454Z</time></trkpt><trkpt lat="40.4243695" lon="16.6761337"><ele>146.33333333333334</ele><time>2026-03-29T13:45:16.455Z</time></trkpt><trkpt lat="40.424229" lon="16.6759838"><ele>147.0</ele><time>2026-03-29T13:45:17.456Z</time></trkpt><trkpt lat="40.4240944" lon="16.675843"><ele>147.0</ele><time>2026-03-29T13:45:18.456Z</time></trkpt><trkpt lat="40.4239526" lon="16.675722"><ele>147.0</ele><time>2026-03-29T13:45:19.454Z</time></trkpt><trkpt lat="40.4238031" lon="16.6756293"><ele>147.0</ele><time>2026-03-29T13:45:20.455Z</time></trkpt><trkpt lat="40.4236367" lon="16.6755729"><ele>147.0</ele><time>2026-03-29T13:45:21.454Z</time></trkpt><trkpt lat="40.4234574" lon="16.6755414"><ele>147.0</ele><time>2026-03-29T13:45:22.455Z</time></trkpt><trkpt lat="40.4232799" lon="16.6755164"><ele>147.0</ele><time>2026-03-29T13:45:23.456Z</time></trkpt><trkpt lat="40.4231174" lon="16.6754945"><ele>146.66666666666666</ele><time>2026-03-29T13:45:24.454Z</time></trkpt><trkpt lat="40.4229644" lon="16.6754894"><ele>146.33333333333331</ele><time>2026-03-29T13:45:25.454Z</time></trkpt><trkpt lat="40.4228107" lon="16.6755197"><ele>146.0</ele><time>2026-03-29T13:45:26.456Z</time></trkpt><trkpt lat="40.4226532" lon="16.6755895"><ele>146.0</ele><time>2026-03-29T13:45:27.454Z</time></trkpt><trkpt lat="40.4224951" lon="16.6756809"><ele>146.0</ele><time>2026-03-29T13:45:28.454Z</time></trkpt><trkpt lat="40.4223364" lon="16.6757794"><ele>146.0</ele><time>2026-03-29T13:45:29.456Z</time></trkpt><trkpt lat="40.4221705" lon="16.6758713"><ele>146.0</ele><time>2026-03-29T13:45:30.455Z</time></trkpt><trkpt lat="40.4220039" lon="16.6759486"><ele>146.0</ele><time>2026-03-29T13:45:31.455Z</time></trkpt><trkpt lat="40.421837" lon="16.6760137"><ele>146.0</ele><time>2026-03-29T13:45:32.455Z</time></trkpt><trkpt lat="40.4216685" lon="16.6760696"><ele>145.33333333333331</ele><time>2026-03-29T13:45:33.455Z</time></trkpt><trkpt lat="40.4214969" lon="16.6761205"><ele>144.66666666666666</ele><time>2026-03-29T13:45:34.456Z</time></trkpt><trkpt lat="40.4213236" lon="16.6761719"><ele>144.0</ele><time>2026-03-29T13:45:35.458Z</time></trkpt><trkpt lat="40.4211525" lon="16.6762257"><ele>143.33333333333334</ele><time>2026-03-29T13:45:36.457Z</time></trkpt><trkpt lat="40.4209792" lon="16.6762805"><ele>142.66666666666669</ele><time>2026-03-29T13:45:37.456Z</time></trkpt><trkpt lat="40.4208056" lon="16.6763332"><ele>142.0</ele><time>2026-03-29T13:45:38.46Z</time></trkpt><trkpt lat="40.4206336" lon="16.6763826"><ele>142.0</ele><time>2026-03-29T13:45:39.456Z</time></trkpt><trkpt lat="40.4204619" lon="16.6764208"><ele>142.0</ele><time>2026-03-29T13:45:40.457Z</time></trkpt><trkpt lat="40.4202904" lon="16.6764449"><ele>142.0</ele><time>2026-03-29T13:45:41.454Z</time></trkpt><trkpt lat="40.4201181" lon="16.6764512"><ele>142.0</ele><time>2026-03-29T13:45:42.455Z</time></trkpt><trkpt lat="40.4199451" lon="16.6764517"><ele>142.0</ele><time>2026-03-29T13:45:43.454Z</time></trkpt><trkpt lat="40.4197728" lon="16.6764494"><ele>142.0</ele><time>2026-03-29T13:45:44.456Z</time></trkpt><trkpt lat="40.4195989" lon="16.676444"><ele>141.66666666666669</ele><time>2026-03-29T13:45:45.455Z</time></trkpt><trkpt lat="40.4194251" lon="16.6764378"><ele>141.33333333333334</ele><time>2026-03-29T13:45:46.454Z</time></trkpt><trkpt lat="40.4192506" lon="16.6764347"><ele>141.0</ele><time>2026-03-29T13:45:47.453Z</time></trkpt><trkpt lat="40.419078" lon="16.6764395"><ele>141.0</ele><time>2026-03-29T13:45:48.454Z</time></trkpt><trkpt lat="40.4189035" lon="16.6764493"><ele>141.0</ele><time>2026-03-29T13:45:49.454Z</time></trkpt><trkpt lat="40.418725" lon="16.676465"><ele>141.0</ele><time>2026-03-29T13:45:50.455Z</time></trkpt><trkpt lat="40.4185483" lon="16.67648"><ele>141.66666666666666</ele><time>2026-03-29T13:45:51.455Z</time></trkpt><trkpt lat="40.4183767" lon="16.676495"><ele>142.33333333333331</ele><time>2026-03-29T13:45:52.454Z</time></trkpt><trkpt lat="40.4182133" lon="16.6765117"><ele>143.0</ele><time>2026-03-29T13:45:53.456Z</time></trkpt><trkpt lat="40.41806" lon="16.6765283"><ele>143.0</ele><time>2026-03-29T13:45:54.455Z</time></trkpt><trkpt lat="40.4179167" lon="16.676545"><ele>143.0</ele><time>2026-03-29T13:45:55.456Z</time></trkpt><trkpt lat="40.4177833" lon="16.6765633"><ele>143.0</ele><time>2026-03-29T13:45:56.455Z</time></trkpt><trkpt lat="40.4176633" lon="16.6765783"><ele>143.0</ele><time>2026-03-29T13:45:57.454Z</time></trkpt><trkpt lat="40.4175583" lon="16.6765817"><ele>142.99999999999997</ele><time>2026-03-29T13:45:58.455Z</time></trkpt><trkpt lat="40.4174683" lon="16.6765667"><ele>143.0</ele><time>2026-03-29T13:45:59.455Z</time></trkpt><trkpt lat="40.41739" lon="16.67653"><ele>143.0</ele><time>2026-03-29T13:46:00.455Z</time></trkpt><trkpt lat="40.41732" lon="16.6764933"><ele>143.0</ele><time>2026-03-29T13:46:01.455Z</time></trkpt><trkpt lat="40.4172533" lon="16.676475"><ele>143.0</ele><time>2026-03-29T13:46:02.455Z</time></trkpt><trkpt lat="40.41719" lon="16.6764883"><ele>142.99999999999997</ele><time>2026-03-29T13:46:03.454Z</time></trkpt><trkpt lat="40.4171417" lon="16.6765417"><ele>143.0</ele><time>2026-03-29T13:46:04.455Z</time></trkpt><trkpt lat="40.417115" lon="16.6766217"><ele>143.0</ele><time>2026-03-29T13:46:05.455Z</time></trkpt><trkpt lat="40.417125" lon="16.6767283"><ele>143.0</ele><time>2026-03-29T13:46:06.454Z</time></trkpt><trkpt lat="40.4171667" lon="16.6768433"><ele>143.0</ele><time>2026-03-29T13:46:07.454Z</time></trkpt><trkpt lat="40.4172067" lon="16.6769617"><ele>143.0</ele><time>2026-03-29T13:46:08.454Z</time></trkpt><trkpt lat="40.4172317" lon="16.677095"><ele>143.0</ele><time>2026-03-29T13:46:09.454Z</time></trkpt><trkpt lat="40.4172433" lon="16.67724"><ele>142.5</ele><time>2026-03-29T13:46:10.455Z</time></trkpt><trkpt lat="40.417265" lon="16.677395"><ele>142.0</ele><time>2026-03-29T13:46:11.455Z</time></trkpt><trkpt lat="40.4172983" lon="16.6775717"><ele>141.5</ele><time>2026-03-29T13:46:12.454Z</time></trkpt><trkpt lat="40.4173267" lon="16.6777667"><ele>141.0</ele><time>2026-03-29T13:46:13.454Z</time></trkpt><trkpt lat="40.4173317" lon="16.6779667"><ele>141.0</ele><time>2026-03-29T13:46:14.456Z</time></trkpt><trkpt lat="40.4173167" lon="16.6781717"><ele>141.0</ele><time>2026-03-29T13:46:15.455Z</time></trkpt><trkpt lat="40.4172917" lon="16.678375"><ele>141.0</ele><time>2026-03-29T13:46:16.454Z</time></trkpt><trkpt lat="40.4172717" lon="16.67858"><ele>141.33333333333334</ele><time>2026-03-29T13:46:17.454Z</time></trkpt><trkpt lat="40.4172583" lon="16.6787883"><ele>141.66666666666669</ele><time>2026-03-29T13:46:18.456Z</time></trkpt><trkpt lat="40.4172533" lon="16.6790033"><ele>142.0</ele><time>2026-03-29T13:46:19.454Z</time></trkpt><trkpt lat="40.41725" lon="16.6792233"><ele>141.66666666666669</ele><time>2026-03-29T13:46:20.455Z</time></trkpt><trkpt lat="40.4172467" lon="16.6794433"><ele>141.33333333333334</ele><time>2026-03-29T13:46:21.454Z</time></trkpt><trkpt lat="40.4172483" lon="16.6796633"><ele>141.0</ele><time>2026-03-29T13:46:22.455Z</time></trkpt><trkpt lat="40.4172533" lon="16.6798767"><ele>141.0</ele><time>2026-03-29T13:46:23.454Z</time></trkpt><trkpt lat="40.4172567" lon="16.6800867"><ele>141.0</ele><time>2026-03-29T13:46:24.455Z</time></trkpt><trkpt lat="40.4172605" lon="16.6802917"><ele>141.0</ele><time>2026-03-29T13:46:25.455Z</time></trkpt><trkpt lat="40.4172598" lon="16.6804953"><ele>141.0</ele><time>2026-03-29T13:46:26.455Z</time></trkpt><trkpt lat="40.4172566" lon="16.6806942"><ele>141.0</ele><time>2026-03-29T13:46:27.454Z</time></trkpt><trkpt lat="40.4172544" lon="16.6808933"><ele>141.0</ele><time>2026-03-29T13:46:28.454Z</time></trkpt><trkpt lat="40.4172544" lon="16.6810961"><ele>141.0</ele><time>2026-03-29T13:46:29.455Z</time></trkpt><trkpt lat="40.4172521" lon="16.6813006"><ele>141.0</ele><time>2026-03-29T13:46:30.455Z</time></trkpt><trkpt lat="40.4172495" lon="16.6815033"><ele>141.0</ele><time>2026-03-29T13:46:31.455Z</time></trkpt><trkpt lat="40.4172477" lon="16.6817068"><ele>141.0</ele><time>2026-03-29T13:46:32.455Z</time></trkpt><trkpt lat="40.4172489" lon="16.6819089"><ele>141.0</ele><time>2026-03-29T13:46:33.454Z</time></trkpt><trkpt lat="40.4172497" lon="16.6821132"><ele>141.0</ele><time>2026-03-29T13:46:34.454Z</time></trkpt><trkpt lat="40.4172488" lon="16.6823183"><ele>140.66666666666666</ele><time>2026-03-29T13:46:35.455Z</time></trkpt><trkpt lat="40.4172493" lon="16.6825279"><ele>140.33333333333331</ele><time>2026-03-29T13:46:36.454Z</time></trkpt><trkpt lat="40.4172518" lon="16.6827396"><ele>140.0</ele><time>2026-03-29T13:46:37.456Z</time></trkpt><trkpt lat="40.4172513" lon="16.682953"><ele>140.0</ele><time>2026-03-29T13:46:38.455Z</time></trkpt><trkpt lat="40.4172481" lon="16.6831667"><ele>140.0</ele><time>2026-03-29T13:46:39.454Z</time></trkpt><trkpt lat="40.4172428" lon="16.6833735"><ele>140.0</ele><time>2026-03-29T13:46:40.455Z</time></trkpt><trkpt lat="40.417237" lon="16.6835706"><ele>140.0</ele><time>2026-03-29T13:46:41.456Z</time></trkpt><trkpt lat="40.4172341" lon="16.6837542"><ele>140.0</ele><time>2026-03-29T13:46:42.454Z</time></trkpt><trkpt lat="40.417231" lon="16.6839262"><ele>140.0</ele><time>2026-03-29T13:46:43.455Z</time></trkpt><trkpt lat="40.4172296" lon="16.6840866"><ele>140.0</ele><time>2026-03-29T13:46:44.455Z</time></trkpt><trkpt lat="40.4172263" lon="16.6842322"><ele>140.0</ele><time>2026-03-29T13:46:45.458Z</time></trkpt><trkpt lat="40.4172208" lon="16.6843716"><ele>140.0</ele><time>2026-03-29T13:46:46.456Z</time></trkpt><trkpt lat="40.4172115" lon="16.6845216"><ele>140.0</ele><time>2026-03-29T13:46:47.453Z</time></trkpt><trkpt lat="40.4171919" lon="16.6846923"><ele>140.0</ele><time>2026-03-29T13:46:48.454Z</time></trkpt><trkpt lat="40.4171588" lon="16.684878"><ele>139.5</ele><time>2026-03-29T13:46:49.454Z</time></trkpt><trkpt lat="40.4171098" lon="16.6850633"><ele>139.0</ele><time>2026-03-29T13:46:50.455Z</time></trkpt><trkpt lat="40.4170459" lon="16.6852399"><ele>138.5</ele><time>2026-03-29T13:46:51.455Z</time></trkpt><trkpt lat="40.4169711" lon="16.6854084"><ele>138.0</ele><time>2026-03-29T13:46:52.456Z</time></trkpt><trkpt lat="40.4168841" lon="16.6855717"><ele>138.0</ele><time>2026-03-29T13:46:53.455Z</time></trkpt><trkpt lat="40.4167831" lon="16.6857343"><ele>138.0</ele><time>2026-03-29T13:46:54.455Z</time></trkpt><trkpt lat="40.4166671" lon="16.6858915"><ele>138.0</ele><time>2026-03-29T13:46:55.454Z</time></trkpt><trkpt lat="40.4165379" lon="16.6860367"><ele>138.0</ele><time>2026-03-29T13:46:56.455Z</time></trkpt><trkpt lat="40.4164014" lon="16.6861719"><ele>138.0</ele><time>2026-03-29T13:46:57.454Z</time></trkpt><trkpt lat="40.4162642" lon="16.6863035"><ele>138.0</ele><time>2026-03-29T13:46:58.454Z</time></trkpt><trkpt lat="40.4161276" lon="16.6864323"><ele>138.0</ele><time>2026-03-29T13:46:59.455Z</time></trkpt><trkpt lat="40.4159927" lon="16.6865588"><ele>138.0</ele><time>2026-03-29T13:47:00.455Z</time></trkpt><trkpt lat="40.4158576" lon="16.6866845"><ele>138.0</ele><time>2026-03-29T13:47:01.454Z</time></trkpt><trkpt lat="40.4157215" lon="16.6868095"><ele>136.33333333333334</ele><time>2026-03-29T13:47:02.455Z</time></trkpt><trkpt lat="40.415589" lon="16.6869326"><ele>134.66666666666669</ele><time>2026-03-29T13:47:03.454Z</time></trkpt><trkpt lat="40.4154588" lon="16.6870542"><ele>133.0</ele><time>2026-03-29T13:47:04.454Z</time></trkpt><trkpt lat="40.415329" lon="16.6871768"><ele>132.66666666666669</ele><time>2026-03-29T13:47:05.454Z</time></trkpt><trkpt lat="40.4151978" lon="16.6872988"><ele>132.33333333333334</ele><time>2026-03-29T13:47:06.454Z</time></trkpt><trkpt lat="40.4150682" lon="16.6874165"><ele>132.0</ele><time>2026-03-29T13:47:07.454Z</time></trkpt><trkpt lat="40.4149447" lon="16.6875253"><ele>132.0</ele><time>2026-03-29T13:47:08.454Z</time></trkpt><trkpt lat="40.4148263" lon="16.6876321"><ele>132.0</ele><time>2026-03-29T13:47:09.453Z</time></trkpt><trkpt lat="40.4147055" lon="16.6877443"><ele>132.0</ele><time>2026-03-29T13:47:10.461Z</time></trkpt><trkpt lat="40.414588" lon="16.6878509"><ele>132.0</ele><time>2026-03-29T13:47:11.454Z</time></trkpt><trkpt lat="40.4144781" lon="16.6879517"><ele>132.75</ele><time>2026-03-29T13:47:12.455Z</time></trkpt><trkpt lat="40.4143794" lon="16.6880572"><ele>133.5</ele><time>2026-03-29T13:47:13.455Z</time></trkpt><trkpt lat="40.4142898" lon="16.6881851"><ele>134.25</ele><time>2026-03-29T13:47:14.455Z</time></trkpt><trkpt lat="40.4142081" lon="16.6883364"><ele>135.0</ele><time>2026-03-29T13:47:15.454Z</time></trkpt><trkpt lat="40.4141268" lon="16.6884977"><ele>135.0</ele><time>2026-03-29T13:47:16.455Z</time></trkpt><trkpt lat="40.4140495" lon="16.6886581"><ele>135.0</ele><time>2026-03-29T13:47:17.454Z</time></trkpt><trkpt lat="40.413978" lon="16.6888055"><ele>135.0</ele><time>2026-03-29T13:47:18.454Z</time></trkpt><trkpt lat="40.4139151" lon="16.6889285"><ele>135.0</ele><time>2026-03-29T13:47:19.456Z</time></trkpt><trkpt lat="40.413866" lon="16.6890285"><ele>135.0</ele><time>2026-03-29T13:47:20.455Z</time></trkpt><trkpt lat="40.413832" lon="16.6891079"><ele>135.0</ele><time>2026-03-29T13:47:21.454Z</time></trkpt><trkpt lat="40.4137621" lon="16.6892504"><ele>135.0</ele><time>2026-03-29T13:47:23.454Z</time></trkpt><trkpt lat="40.4137135" lon="16.6893555"><ele>135.0</ele><time>2026-03-29T13:47:24.455Z</time></trkpt><trkpt lat="40.4136591" lon="16.6894867"><ele>135.0</ele><time>2026-03-29T13:47:25.456Z</time></trkpt><trkpt lat="40.413602" lon="16.6896334"><ele>135.0</ele><time>2026-03-29T13:47:26.455Z</time></trkpt><trkpt lat="40.4135398" lon="16.6897813"><ele>135.0</ele><time>2026-03-29T13:47:27.454Z</time></trkpt><trkpt lat="40.4134768" lon="16.6899271"><ele>135.0</ele><time>2026-03-29T13:47:28.453Z</time></trkpt><trkpt lat="40.4134145" lon="16.6900663"><ele>135.0</ele><time>2026-03-29T13:47:29.454Z</time></trkpt><trkpt lat="40.413353" lon="16.6902041"><ele>134.75</ele><time>2026-03-29T13:47:30.455Z</time></trkpt><trkpt lat="40.4132939" lon="16.6903409"><ele>134.5</ele><time>2026-03-29T13:47:31.454Z</time></trkpt><trkpt lat="40.4132357" lon="16.6904736"><ele>134.25</ele><time>2026-03-29T13:47:32.455Z</time></trkpt><trkpt lat="40.4131769" lon="16.6905984"><ele>134.0</ele><time>2026-03-29T13:47:33.454Z</time></trkpt><trkpt lat="40.4131243" lon="16.6907135"><ele>134.0</ele><time>2026-03-29T13:47:34.455Z</time></trkpt><trkpt lat="40.4130788" lon="16.6908152"><ele>134.0</ele><time>2026-03-29T13:47:35.458Z</time></trkpt><trkpt lat="40.4130414" lon="16.6909033"><ele>134.0</ele><time>2026-03-29T13:47:36.454Z</time></trkpt><trkpt lat="40.4129825" lon="16.6910227"><ele>134.0</ele><time>2026-03-29T13:47:38.455Z</time></trkpt><trkpt lat="40.4129286" lon="16.6910899"><ele>134.0</ele><time>2026-03-29T13:47:42.455Z</time></trkpt><trkpt lat="40.4128417" lon="16.6910883"><ele>134.0</ele><time>2026-03-29T13:47:47.455Z</time></trkpt><trkpt lat="40.4127817" lon="16.6910367"><ele>133.66666666666666</ele><time>2026-03-29T13:47:49.455Z</time></trkpt><trkpt lat="40.412695" lon="16.69097"><ele>133.33333333333331</ele><time>2026-03-29T13:47:51.454Z</time></trkpt><trkpt lat="40.4125867" lon="16.69089"><ele>133.0</ele><time>2026-03-29T13:47:53.455Z</time></trkpt><trkpt lat="40.412525" lon="16.6908433"><ele>132.66666666666666</ele><time>2026-03-29T13:47:54.455Z</time></trkpt><trkpt lat="40.4124617" lon="16.690795"><ele>132.33333333333334</ele><time>2026-03-29T13:47:55.455Z</time></trkpt><trkpt lat="40.4123983" lon="16.6907467"><ele>132.0</ele><time>2026-03-29T13:47:56.456Z</time></trkpt><trkpt lat="40.4123333" lon="16.6907"><ele>132.0</ele><time>2026-03-29T13:47:57.455Z</time></trkpt><trkpt lat="40.41227" lon="16.6906517"><ele>132.0</ele><time>2026-03-29T13:47:58.454Z</time></trkpt><trkpt lat="40.4122067" lon="16.6906033"><ele>132.0</ele><time>2026-03-29T13:47:59.455Z</time></trkpt><trkpt lat="40.4121433" lon="16.6905533"><ele>132.0</ele><time>2026-03-29T13:48:00.456Z</time></trkpt><trkpt lat="40.41208" lon="16.6905033"><ele>132.0</ele><time>2026-03-29T13:48:01.456Z</time></trkpt><trkpt lat="40.4120183" lon="16.690455"><ele>132.0</ele><time>2026-03-29T13:48:02.455Z</time></trkpt><trkpt lat="40.411955" lon="16.6904083"><ele>132.0</ele><time>2026-03-29T13:48:03.456Z</time></trkpt><trkpt lat="40.41189" lon="16.69036"><ele>132.33333333333334</ele><time>2026-03-29T13:48:04.455Z</time></trkpt><trkpt lat="40.411825" lon="16.69031"><ele>132.66666666666666</ele><time>2026-03-29T13:48:05.456Z</time></trkpt><trkpt lat="40.4117583" lon="16.69026"><ele>133.0</ele><time>2026-03-29T13:48:06.455Z</time></trkpt><trkpt lat="40.4116933" lon="16.6902083"><ele>133.33333333333331</ele><time>2026-03-29T13:48:07.454Z</time></trkpt><trkpt lat="40.4116283" lon="16.690155"><ele>133.66666666666666</ele><time>2026-03-29T13:48:08.455Z</time></trkpt><trkpt lat="40.4115617" lon="16.6901033"><ele>134.0</ele><time>2026-03-29T13:48:09.454Z</time></trkpt><trkpt lat="40.411495" lon="16.6900517"><ele>134.16666666666666</ele><time>2026-03-29T13:48:10.455Z</time></trkpt><trkpt lat="40.4114283" lon="16.690005"><ele>134.33333333333331</ele><time>2026-03-29T13:48:11.457Z</time></trkpt><trkpt lat="40.41136" lon="16.689955"><ele>134.5</ele><time>2026-03-29T13:48:12.455Z</time></trkpt><trkpt lat="40.411295" lon="16.6899033"><ele>134.66666666666666</ele><time>2026-03-29T13:48:13.455Z</time></trkpt><trkpt lat="40.4112283" lon="16.6898517"><ele>134.83333333333334</ele><time>2026-03-29T13:48:14.456Z</time></trkpt><trkpt lat="40.4111633" lon="16.6898017"><ele>135.0</ele><time>2026-03-29T13:48:15.454Z</time></trkpt><trkpt lat="40.4111017" lon="16.689755"><ele>135.0</ele><time>2026-03-29T13:48:16.457Z</time></trkpt><trkpt lat="40.4110033" lon="16.689695"><ele>135.0</ele><time>2026-03-29T13:48:18.455Z</time></trkpt><trkpt lat="40.4109317" lon="16.6896983"><ele>135.0</ele><time>2026-03-29T13:48:20.455Z</time></trkpt><trkpt lat="40.4108617" lon="16.6897067"><ele>135.0</ele><time>2026-03-29T13:48:52.454Z</time></trkpt><trkpt lat="40.4108017" lon="16.689675"><ele>135.0</ele><time>2026-03-29T13:48:58.454Z</time></trkpt><trkpt lat="40.4108628" lon="16.6897144"><ele>135.0</ele><time>2026-03-29T13:49:42.521Z</time></trkpt><trkpt lat="40.4109276" lon="16.6897201"><ele>135.0</ele><time>2026-03-29T13:49:44.574Z</time></trkpt><trkpt lat="40.410985" lon="16.689798"><ele>135.0</ele><time>2026-03-29T13:50:27.471Z</time></trkpt><trkpt lat="40.4111221" lon="16.6898577"><ele>135.0</ele><time>2026-03-29T13:50:28.454Z</time></trkpt><trkpt lat="40.4112195" lon="16.6899191"><ele>135.0</ele><time>2026-03-29T13:50:29.456Z</time></trkpt><trkpt lat="40.4113163" lon="16.6899887"><ele>135.0</ele><time>2026-03-29T13:50:30.456Z</time></trkpt><trkpt lat="40.4114145" lon="16.6900627"><ele>135.2</ele><time>2026-03-29T13:50:31.457Z</time></trkpt><trkpt lat="40.4115117" lon="16.6901358"><ele>135.4</ele><time>2026-03-29T13:50:32.458Z</time></trkpt><trkpt lat="40.4116051" lon="16.6902052"><ele>135.6</ele><time>2026-03-29T13:50:33.455Z</time></trkpt><trkpt lat="40.4116915" lon="16.6902704"><ele>135.8</ele><time>2026-03-29T13:50:34.456Z</time></trkpt><trkpt lat="40.411771" lon="16.6903297"><ele>136.0</ele><time>2026-03-29T13:50:35.456Z</time></trkpt><trkpt lat="40.4118463" lon="16.6903873"><ele>135.7142857142857</ele><time>2026-03-29T13:50:36.454Z</time></trkpt><trkpt lat="40.4119168" lon="16.6904381"><ele>135.42857142857142</ele><time>2026-03-29T13:50:37.456Z</time></trkpt><trkpt lat="40.4119793" lon="16.6904836"><ele>135.14285714285714</ele><time>2026-03-29T13:50:38.459Z</time></trkpt><trkpt lat="40.4120377" lon="16.6905281"><ele>134.85714285714283</ele><time>2026-03-29T13:50:39.456Z</time></trkpt><trkpt lat="40.4120944" lon="16.6905704"><ele>134.57142857142856</ele><time>2026-03-29T13:50:40.458Z</time></trkpt><trkpt lat="40.4121504" lon="16.6906143"><ele>134.28571428571428</ele><time>2026-03-29T13:50:41.457Z</time></trkpt><trkpt lat="40.412206" lon="16.6906583"><ele>134.0</ele><time>2026-03-29T13:50:42.454Z</time></trkpt><trkpt lat="40.4123086" lon="16.6907345"><ele>133.6</ele><time>2026-03-29T13:50:44.457Z</time></trkpt><trkpt lat="40.4124002" lon="16.6907933"><ele>133.2</ele><time>2026-03-29T13:50:46.454Z</time></trkpt><trkpt lat="40.4124934" lon="16.69086"><ele>132.79999999999998</ele><time>2026-03-29T13:50:48.454Z</time></trkpt><trkpt lat="40.4125881" lon="16.6909299"><ele>132.4</ele><time>2026-03-29T13:50:50.456Z</time></trkpt><trkpt lat="40.4126639" lon="16.6909891"><ele>132.0</ele><time>2026-03-29T13:50:53.468Z</time></trkpt><trkpt lat="40.412735" lon="16.6910533"><ele>132.0</ele><time>2026-03-29T13:50:55.455Z</time></trkpt><trkpt lat="40.412825" lon="16.6911233"><ele>132.0</ele><time>2026-03-29T13:50:57.463Z</time></trkpt><trkpt lat="40.412905" lon="16.6911283"><ele>132.0</ele><time>2026-03-29T13:50:59.465Z</time></trkpt><trkpt lat="40.41296" lon="16.69102"><ele>132.0</ele><time>2026-03-29T13:51:01.464Z</time></trkpt><trkpt lat="40.412995" lon="16.69093"><ele>132.0</ele><time>2026-03-29T13:51:02.466Z</time></trkpt><trkpt lat="40.4130367" lon="16.6908283"><ele>132.0</ele><time>2026-03-29T13:51:03.463Z</time></trkpt><trkpt lat="40.41309" lon="16.6907067"><ele>132.5</ele><time>2026-03-29T13:51:04.465Z</time></trkpt><trkpt lat="40.41315" lon="16.690575"><ele>133.0</ele><time>2026-03-29T13:51:05.466Z</time></trkpt><trkpt lat="40.41321" lon="16.69044"><ele>133.5</ele><time>2026-03-29T13:51:06.47Z</time></trkpt><trkpt lat="40.4132783" lon="16.690295"><ele>134.0</ele><time>2026-03-29T13:51:07.47Z</time></trkpt><trkpt lat="40.4133483" lon="16.6901533"><ele>134.25</ele><time>2026-03-29T13:51:08.47Z</time></trkpt><trkpt lat="40.4134167" lon="16.6900083"><ele>134.5</ele><time>2026-03-29T13:51:09.466Z</time></trkpt><trkpt lat="40.413485" lon="16.6898667"><ele>134.75</ele><time>2026-03-29T13:51:10.465Z</time></trkpt><trkpt lat="40.41355" lon="16.689725"><ele>135.0</ele><time>2026-03-29T13:51:11.465Z</time></trkpt><trkpt lat="40.4136067" lon="16.6895933"><ele>135.0</ele><time>2026-03-29T13:51:12.466Z</time></trkpt><trkpt lat="40.4136633" lon="16.6894717"><ele>135.0</ele><time>2026-03-29T13:51:13.466Z</time></trkpt><trkpt lat="40.4137183" lon="16.6893617"><ele>135.0</ele><time>2026-03-29T13:51:14.466Z</time></trkpt><trkpt lat="40.413765" lon="16.6892717"><ele>135.0</ele><time>2026-03-29T13:51:15.457Z</time></trkpt><trkpt lat="40.41381" lon="16.6891817"><ele>135.0</ele><time>2026-03-29T13:51:16.458Z</time></trkpt><trkpt lat="40.413855" lon="16.6890833"><ele>135.0</ele><time>2026-03-29T13:51:17.47Z</time></trkpt><trkpt lat="40.4139033" lon="16.6889783"><ele>135.0</ele><time>2026-03-29T13:51:18.47Z</time></trkpt><trkpt lat="40.413955" lon="16.6888683"><ele>135.0</ele><time>2026-03-29T13:51:19.468Z</time></trkpt><trkpt lat="40.4140083" lon="16.6887583"><ele>135.0</ele><time>2026-03-29T13:51:20.471Z</time></trkpt><trkpt lat="40.4140683" lon="16.688635"><ele>135.0</ele><time>2026-03-29T13:51:21.468Z</time></trkpt><trkpt lat="40.41413" lon="16.6884983"><ele>135.0</ele><time>2026-03-29T13:51:22.468Z</time></trkpt><trkpt lat="40.4141933" lon="16.6883567"><ele>135.0</ele><time>2026-03-29T13:51:23.468Z</time></trkpt><trkpt lat="40.4142633" lon="16.6882217"><ele>135.0</ele><time>2026-03-29T13:51:24.463Z</time></trkpt><trkpt lat="40.414355" lon="16.6880967"><ele>135.0</ele><time>2026-03-29T13:51:25.465Z</time></trkpt><trkpt lat="40.4144683" lon="16.6879633"><ele>135.0</ele><time>2026-03-29T13:51:26.465Z</time></trkpt><trkpt lat="40.41461" lon="16.68783"><ele>135.0</ele><time>2026-03-29T13:51:27.464Z</time></trkpt><trkpt lat="40.41476" lon="16.6876967"><ele>135.0</ele><time>2026-03-29T13:51:28.465Z</time></trkpt><trkpt lat="40.4149133" lon="16.6875633"><ele>134.0</ele><time>2026-03-29T13:51:29.465Z</time></trkpt><trkpt lat="40.4150633" lon="16.6874267"><ele>133.0</ele><time>2026-03-29T13:51:30.467Z</time></trkpt><trkpt lat="40.4152133" lon="16.6872933"><ele>132.0</ele><time>2026-03-29T13:51:31.465Z</time></trkpt><trkpt lat="40.4153567" lon="16.6871567"><ele>132.33333333333334</ele><time>2026-03-29T13:51:32.467Z</time></trkpt><trkpt lat="40.4155" lon="16.6870217"><ele>132.66666666666669</ele><time>2026-03-29T13:51:33.462Z</time></trkpt><trkpt lat="40.4156433" lon="16.6868783"><ele>133.0</ele><time>2026-03-29T13:51:34.464Z</time></trkpt><trkpt lat="40.415785" lon="16.68674"><ele>134.66666666666669</ele><time>2026-03-29T13:51:35.464Z</time></trkpt><trkpt lat="40.41593" lon="16.686605"><ele>136.33333333333334</ele><time>2026-03-29T13:51:36.468Z</time></trkpt><trkpt lat="40.4160767" lon="16.68647"><ele>138.0</ele><time>2026-03-29T13:51:37.466Z</time></trkpt><trkpt lat="40.4162233" lon="16.686335"><ele>138.0</ele><time>2026-03-29T13:51:38.458Z</time></trkpt><trkpt lat="40.4163717" lon="16.6861983"><ele>138.0</ele><time>2026-03-29T13:51:39.465Z</time></trkpt><trkpt lat="40.416515" lon="16.6860583"><ele>138.0</ele><time>2026-03-29T13:51:40.468Z</time></trkpt><trkpt lat="40.416645" lon="16.6859167"><ele>138.0</ele><time>2026-03-29T13:51:41.469Z</time></trkpt><trkpt lat="40.4167583" lon="16.68578"><ele>138.0</ele><time>2026-03-29T13:51:42.469Z</time></trkpt><trkpt lat="40.4168517" lon="16.6856517"><ele>138.0</ele><time>2026-03-29T13:51:43.467Z</time></trkpt><trkpt lat="40.416925" lon="16.685535"><ele>138.0</ele><time>2026-03-29T13:51:44.471Z</time></trkpt><trkpt lat="40.416985" lon="16.6854317"><ele>138.0</ele><time>2026-03-29T13:51:45.465Z</time></trkpt><trkpt lat="40.4170417" lon="16.68532"><ele>138.0</ele><time>2026-03-29T13:51:46.468Z</time></trkpt><trkpt lat="40.4170983" lon="16.685195"><ele>138.0</ele><time>2026-03-29T13:51:47.47Z</time></trkpt><trkpt lat="40.417145" lon="16.6850633"><ele>138.0</ele><time>2026-03-29T13:51:48.468Z</time></trkpt><trkpt lat="40.4171783" lon="16.6849383"><ele>138.0</ele><time>2026-03-29T13:51:49.469Z</time></trkpt><trkpt lat="40.417205" lon="16.684825"><ele>138.0</ele><time>2026-03-29T13:51:50.47Z</time></trkpt><trkpt lat="40.4172283" lon="16.6847233"><ele>138.0</ele><time>2026-03-29T13:51:51.467Z</time></trkpt><trkpt lat="40.4172683" lon="16.6845733"><ele>138.0</ele><time>2026-03-29T13:51:53.465Z</time></trkpt><trkpt lat="40.4173133" lon="16.6844667"><ele>138.0</ele><time>2026-03-29T13:51:55.467Z</time></trkpt><trkpt lat="40.417355" lon="16.6843767"><ele>138.0</ele><time>2026-03-29T13:51:57.464Z</time></trkpt><trkpt lat="40.417335" lon="16.6842583"><ele>138.5</ele><time>2026-03-29T13:51:59.459Z</time></trkpt><trkpt lat="40.417275" lon="16.68411"><ele>139.0</ele><time>2026-03-29T13:52:01.465Z</time></trkpt><trkpt lat="40.4172483" lon="16.684005"><ele>139.5</ele><time>2026-03-29T13:52:02.469Z</time></trkpt><trkpt lat="40.4172317" lon="16.6838533"><ele>140.0</ele><time>2026-03-29T13:52:03.469Z</time></trkpt><trkpt lat="40.4172283" lon="16.6836833"><ele>140.0</ele><time>2026-03-29T13:52:04.468Z</time></trkpt><trkpt lat="40.4172383" lon="16.6835"><ele>140.0</ele><time>2026-03-29T13:52:05.469Z</time></trkpt><trkpt lat="40.4172517" lon="16.6832983"><ele>140.0</ele><time>2026-03-29T13:52:06.465Z</time></trkpt><trkpt lat="40.4172617" lon="16.6830833"><ele>140.0</ele><time>2026-03-29T13:52:07.47Z</time></trkpt><trkpt lat="40.4172733" lon="16.6828633"><ele>140.0</ele><time>2026-03-29T13:52:08.473Z</time></trkpt><trkpt lat="40.4172767" lon="16.6826383"><ele>140.0</ele><time>2026-03-29T13:52:09.469Z</time></trkpt><trkpt lat="40.4172767" lon="16.6823983"><ele>140.0</ele><time>2026-03-29T13:52:10.467Z</time></trkpt><trkpt lat="40.417275" lon="16.68217"><ele>140.0</ele><time>2026-03-29T13:52:11.47Z</time></trkpt><trkpt lat="40.4172733" lon="16.6819667"><ele>140.0</ele><time>2026-03-29T13:52:12.467Z</time></trkpt><trkpt lat="40.4172717" lon="16.68177"><ele>140.33333333333331</ele><time>2026-03-29T13:52:13.471Z</time></trkpt><trkpt lat="40.4172733" lon="16.68157"><ele>140.66666666666666</ele><time>2026-03-29T13:52:14.472Z</time></trkpt><trkpt lat="40.417275" lon="16.6813617"><ele>141.0</ele><time>2026-03-29T13:52:15.47Z</time></trkpt><trkpt lat="40.4172767" lon="16.6811417"><ele>141.0</ele><time>2026-03-29T13:52:16.468Z</time></trkpt><trkpt lat="40.4172783" lon="16.6809183"><ele>141.0</ele><time>2026-03-29T13:52:17.468Z</time></trkpt><trkpt lat="40.4172767" lon="16.68069"><ele>141.0</ele><time>2026-03-29T13:52:18.468Z</time></trkpt><trkpt lat="40.4172733" lon="16.6804533"><ele>141.0</ele><time>2026-03-29T13:52:19.467Z</time></trkpt><trkpt lat="40.41727" lon="16.68021"><ele>141.0</ele><time>2026-03-29T13:52:20.469Z</time></trkpt><trkpt lat="40.41727" lon="16.6799617"><ele>141.0</ele><time>2026-03-29T13:52:21.468Z</time></trkpt><trkpt lat="40.4172717" lon="16.679705"><ele>141.0</ele><time>2026-03-29T13:52:22.457Z</time></trkpt><trkpt lat="40.41727" lon="16.67945"><ele>141.0</ele><time>2026-03-29T13:52:23.47Z</time></trkpt><trkpt lat="40.417265" lon="16.6791983"><ele>141.0</ele><time>2026-03-29T13:52:24.471Z</time></trkpt><trkpt lat="40.4172633" lon="16.6789517"><ele>141.0</ele><time>2026-03-29T13:52:25.465Z</time></trkpt><trkpt lat="40.417265" lon="16.67871"><ele>141.0</ele><time>2026-03-29T13:52:26.469Z</time></trkpt><trkpt lat="40.4172767" lon="16.6784783"><ele>141.0</ele><time>2026-03-29T13:52:27.468Z</time></trkpt><trkpt lat="40.4172967" lon="16.6782567"><ele>141.0</ele><time>2026-03-29T13:52:28.466Z</time></trkpt><trkpt lat="40.4173117" lon="16.6780417"><ele>141.0</ele><time>2026-03-29T13:52:29.468Z</time></trkpt><trkpt lat="40.4173083" lon="16.67783"><ele>141.0</ele><time>2026-03-29T13:52:30.468Z</time></trkpt><trkpt lat="40.417285" lon="16.6776183"><ele>141.0</ele><time>2026-03-29T13:52:31.468Z</time></trkpt><trkpt lat="40.4172583" lon="16.6774183"><ele>141.0</ele><time>2026-03-29T13:52:32.471Z</time></trkpt><trkpt lat="40.4172467" lon="16.6772267"><ele>141.0</ele><time>2026-03-29T13:52:33.468Z</time></trkpt><trkpt lat="40.4172517" lon="16.6770517"><ele>141.0</ele><time>2026-03-29T13:52:34.468Z</time></trkpt><trkpt lat="40.41727" lon="16.676905"><ele>141.4</ele><time>2026-03-29T13:52:35.468Z</time></trkpt><trkpt lat="40.417315" lon="16.6767833"><ele>141.8</ele><time>2026-03-29T13:52:36.465Z</time></trkpt><trkpt lat="40.4173883" lon="16.6766917"><ele>142.20000000000002</ele><time>2026-03-29T13:52:37.468Z</time></trkpt><trkpt lat="40.4174817" lon="16.6766317"><ele>142.6</ele><time>2026-03-29T13:52:38.475Z</time></trkpt><trkpt lat="40.4176" lon="16.6765933"><ele>143.0</ele><time>2026-03-29T13:52:39.47Z</time></trkpt><trkpt lat="40.4177383" lon="16.676575"><ele>143.0</ele><time>2026-03-29T13:52:40.47Z</time></trkpt><trkpt lat="40.4178883" lon="16.6765667"><ele>143.0</ele><time>2026-03-29T13:52:41.468Z</time></trkpt><trkpt lat="40.4180483" lon="16.6765583"><ele>143.0</ele><time>2026-03-29T13:52:42.469Z</time></trkpt><trkpt lat="40.4182167" lon="16.6765467"><ele>143.0</ele><time>2026-03-29T13:52:43.457Z</time></trkpt><trkpt lat="40.4183833" lon="16.6765283"><ele>143.0</ele><time>2026-03-29T13:52:44.46Z</time></trkpt><trkpt lat="40.4185533" lon="16.6765083"><ele>143.0</ele><time>2026-03-29T13:52:45.469Z</time></trkpt><trkpt lat="40.4187233" lon="16.67649"><ele>142.33333333333331</ele><time>2026-03-29T13:52:46.466Z</time></trkpt><trkpt lat="40.418895" lon="16.676465"><ele>141.66666666666666</ele><time>2026-03-29T13:52:47.466Z</time></trkpt><trkpt lat="40.4190767" lon="16.67644"><ele>141.0</ele><time>2026-03-29T13:52:48.469Z</time></trkpt><trkpt lat="40.4192583" lon="16.67643"><ele>141.0</ele><time>2026-03-29T13:52:49.467Z</time></trkpt><trkpt lat="40.4194383" lon="16.676435"><ele>141.0</ele><time>2026-03-29T13:52:50.47Z</time></trkpt><trkpt lat="40.4196133" lon="16.6764467"><ele>141.0</ele><time>2026-03-29T13:52:51.466Z</time></trkpt><trkpt lat="40.4197933" lon="16.6764583"><ele>141.33333333333334</ele><time>2026-03-29T13:52:52.469Z</time></trkpt><trkpt lat="40.41998" lon="16.67647"><ele>141.66666666666669</ele><time>2026-03-29T13:52:53.468Z</time></trkpt><trkpt lat="40.4201633" lon="16.676475"><ele>142.0</ele><time>2026-03-29T13:52:54.466Z</time></trkpt><trkpt lat="40.4203433" lon="16.67647"><ele>142.0</ele><time>2026-03-29T13:52:55.466Z</time></trkpt><trkpt lat="40.420515" lon="16.6764433"><ele>142.0</ele><time>2026-03-29T13:52:56.47Z</time></trkpt><trkpt lat="40.4206883" lon="16.6764"><ele>142.0</ele><time>2026-03-29T13:52:57.468Z</time></trkpt><trkpt lat="40.4208617" lon="16.6763533"><ele>142.0</ele><time>2026-03-29T13:52:58.467Z</time></trkpt><trkpt lat="40.4210333" lon="16.676305"><ele>142.0</ele><time>2026-03-29T13:52:59.467Z</time></trkpt><trkpt lat="40.4212017" lon="16.676255"><ele>142.0</ele><time>2026-03-29T13:53:00.468Z</time></trkpt><trkpt lat="40.4213717" lon="16.6762033"><ele>142.66666666666669</ele><time>2026-03-29T13:53:01.468Z</time></trkpt><trkpt lat="40.4215383" lon="16.6761533"><ele>143.33333333333334</ele><time>2026-03-29T13:53:02.471Z</time></trkpt><trkpt lat="40.4217017" lon="16.6761"><ele>144.0</ele><time>2026-03-29T13:53:03.467Z</time></trkpt><trkpt lat="40.4218633" lon="16.67604"><ele>144.66666666666666</ele><time>2026-03-29T13:53:04.467Z</time></trkpt><trkpt lat="40.422025" lon="16.6759733"><ele>145.33333333333331</ele><time>2026-03-29T13:53:05.458Z</time></trkpt><trkpt lat="40.422185" lon="16.675895"><ele>146.0</ele><time>2026-03-29T13:53:06.459Z</time></trkpt><trkpt lat="40.4223417" lon="16.6758083"><ele>146.0</ele><time>2026-03-29T13:53:07.467Z</time></trkpt><trkpt lat="40.4224933" lon="16.6757183"><ele>146.0</ele><time>2026-03-29T13:53:08.469Z</time></trkpt><trkpt lat="40.422645" lon="16.675635"><ele>146.0</ele><time>2026-03-29T13:53:09.469Z</time></trkpt><trkpt lat="40.422795" lon="16.675575"><ele>146.0</ele><time>2026-03-29T13:53:10.469Z</time></trkpt><trkpt lat="40.4229517" lon="16.6755417"><ele>146.0</ele><time>2026-03-29T13:53:11.468Z</time></trkpt><trkpt lat="40.4231117" lon="16.6755367"><ele>146.0</ele><time>2026-03-29T13:53:12.469Z</time></trkpt><trkpt lat="40.42328" lon="16.675555"><ele>146.33333333333331</ele><time>2026-03-29T13:53:13.467Z</time></trkpt><trkpt lat="40.42344" lon="16.6755783"><ele>146.66666666666666</ele><time>2026-03-29T13:53:14.47Z</time></trkpt><trkpt lat="40.4235933" lon="16.675605"><ele>147.0</ele><time>2026-03-29T13:53:15.467Z</time></trkpt><trkpt lat="40.4237433" lon="16.6756533"><ele>147.33333333333334</ele><time>2026-03-29T13:53:16.465Z</time></trkpt><trkpt lat="40.4238883" lon="16.675735"><ele>147.66666666666669</ele><time>2026-03-29T13:53:17.466Z</time></trkpt><trkpt lat="40.4240383" lon="16.67585"><ele>148.0</ele><time>2026-03-29T13:53:18.467Z</time></trkpt><trkpt lat="40.42418" lon="16.6759917"><ele>147.66666666666669</ele><time>2026-03-29T13:53:19.469Z</time></trkpt><trkpt lat="40.42432" lon="16.6761367"><ele>147.33333333333334</ele><time>2026-03-29T13:53:20.47Z</time></trkpt><trkpt lat="40.424465" lon="16.6762717"><ele>147.0</ele><time>2026-03-29T13:53:21.467Z</time></trkpt><trkpt lat="40.4246133" lon="16.6763817"><ele>146.33333333333334</ele><time>2026-03-29T13:53:22.467Z</time></trkpt><trkpt lat="40.4247717" lon="16.6764633"><ele>145.66666666666669</ele><time>2026-03-29T13:53:23.467Z</time></trkpt><trkpt lat="40.4249433" lon="16.67651"><ele>145.0</ele><time>2026-03-29T13:53:24.465Z</time></trkpt><trkpt lat="40.425125" lon="16.676535"><ele>145.0</ele><time>2026-03-29T13:53:25.465Z</time></trkpt><trkpt lat="40.4253183" lon="16.6765417"><ele>145.0</ele><time>2026-03-29T13:53:26.47Z</time></trkpt><trkpt lat="40.425515" lon="16.67655"><ele>145.0</ele><time>2026-03-29T13:53:27.459Z</time></trkpt><trkpt lat="40.425705" lon="16.6765633"><ele>146.0</ele><time>2026-03-29T13:53:28.458Z</time></trkpt><trkpt lat="40.425895" lon="16.6765783"><ele>147.0</ele><time>2026-03-29T13:53:29.468Z</time></trkpt><trkpt lat="40.426085" lon="16.6765917"><ele>148.0</ele><time>2026-03-29T13:53:30.467Z</time></trkpt><trkpt lat="40.42627" lon="16.6766"><ele>148.66666666666669</ele><time>2026-03-29T13:53:31.469Z</time></trkpt><trkpt lat="40.42645" lon="16.6766083"><ele>149.33333333333334</ele><time>2026-03-29T13:53:32.472Z</time></trkpt><trkpt lat="40.4266217" lon="16.6766217"><ele>150.0</ele><time>2026-03-29T13:53:33.465Z</time></trkpt><trkpt lat="40.4267917" lon="16.6766367"><ele>150.0</ele><time>2026-03-29T13:53:34.466Z</time></trkpt><trkpt lat="40.4269617" lon="16.676655"><ele>150.0</ele><time>2026-03-29T13:53:35.467Z</time></trkpt><trkpt lat="40.42713" lon="16.6766867"><ele>150.0</ele><time>2026-03-29T13:53:36.467Z</time></trkpt><trkpt lat="40.4272917" lon="16.6767367"><ele>150.33333333333334</ele><time>2026-03-29T13:53:37.465Z</time></trkpt><trkpt lat="40.4274483" lon="16.6768083"><ele>150.66666666666669</ele><time>2026-03-29T13:53:38.471Z</time></trkpt><trkpt lat="40.42761" lon="16.6769067"><ele>151.0</ele><time>2026-03-29T13:53:39.468Z</time></trkpt><trkpt lat="40.4277667" lon="16.6770233"><ele>149.33333333333334</ele><time>2026-03-29T13:53:40.469Z</time></trkpt><trkpt lat="40.427915" lon="16.6771567"><ele>147.66666666666666</ele><time>2026-03-29T13:53:41.469Z</time></trkpt><trkpt lat="40.428065" lon="16.6773033"><ele>146.0</ele><time>2026-03-29T13:53:42.468Z</time></trkpt><trkpt lat="40.4282183" lon="16.6774617"><ele>146.0</ele><time>2026-03-29T13:53:43.468Z</time></trkpt><trkpt lat="40.4283683" lon="16.6776233"><ele>146.0</ele><time>2026-03-29T13:53:44.473Z</time></trkpt><trkpt lat="40.42852" lon="16.6777883"><ele>146.0</ele><time>2026-03-29T13:53:45.468Z</time></trkpt><trkpt lat="40.4286717" lon="16.6779567"><ele>147.0</ele><time>2026-03-29T13:53:46.469Z</time></trkpt><trkpt lat="40.42882" lon="16.678125"><ele>148.0</ele><time>2026-03-29T13:53:47.468Z</time></trkpt><trkpt lat="40.428975" lon="16.67829"><ele>149.0</ele><time>2026-03-29T13:53:48.471Z</time></trkpt><trkpt lat="40.42913" lon="16.6784567"><ele>148.33333333333331</ele><time>2026-03-29T13:53:49.458Z</time></trkpt><trkpt lat="40.4292933" lon="16.6786133"><ele>147.66666666666666</ele><time>2026-03-29T13:53:50.46Z</time></trkpt><trkpt lat="40.429465" lon="16.6787567"><ele>147.0</ele><time>2026-03-29T13:53:51.468Z</time></trkpt><trkpt lat="40.4296433" lon="16.6788883"><ele>147.0</ele><time>2026-03-29T13:53:52.465Z</time></trkpt><trkpt lat="40.4298267" lon="16.67901"><ele>147.0</ele><time>2026-03-29T13:53:53.468Z</time></trkpt><trkpt lat="40.4300067" lon="16.67913"><ele>147.0</ele><time>2026-03-29T13:53:54.468Z</time></trkpt><trkpt lat="40.4301917" lon="16.67925"><ele>147.0</ele><time>2026-03-29T13:53:55.467Z</time></trkpt><trkpt lat="40.43038" lon="16.6793667"><ele>147.0</ele><time>2026-03-29T13:53:56.469Z</time></trkpt><trkpt lat="40.430575" lon="16.6794767"><ele>147.0</ele><time>2026-03-29T13:53:57.469Z</time></trkpt><trkpt lat="40.43077" lon="16.679585"><ele>147.33333333333334</ele><time>2026-03-29T13:53:58.468Z</time></trkpt><trkpt lat="40.4309633" lon="16.6796967"><ele>147.66666666666669</ele><time>2026-03-29T13:53:59.466Z</time></trkpt><trkpt lat="40.43116" lon="16.6798067"><ele>148.0</ele><time>2026-03-29T13:54:00.468Z</time></trkpt><trkpt lat="40.4313567" lon="16.6799133"><ele>148.0</ele><time>2026-03-29T13:54:01.47Z</time></trkpt><trkpt lat="40.4315483" lon="16.6800183"><ele>148.0</ele><time>2026-03-29T13:54:02.471Z</time></trkpt><trkpt lat="40.4317383" lon="16.6801233"><ele>148.0</ele><time>2026-03-29T13:54:03.468Z</time></trkpt><trkpt lat="40.4319267" lon="16.68022"><ele>148.0</ele><time>2026-03-29T13:54:04.469Z</time></trkpt><trkpt lat="40.43211" lon="16.6803083"><ele>148.0</ele><time>2026-03-29T13:54:05.467Z</time></trkpt><trkpt lat="40.4322917" lon="16.68039"><ele>148.0</ele><time>2026-03-29T13:54:06.469Z</time></trkpt><trkpt lat="40.43247" lon="16.6804667"><ele>148.33333333333334</ele><time>2026-03-29T13:54:07.468Z</time></trkpt><trkpt lat="40.43265" lon="16.6805417"><ele>148.66666666666666</ele><time>2026-03-29T13:54:08.472Z</time></trkpt><trkpt lat="40.4328317" lon="16.6806083"><ele>149.0</ele><time>2026-03-29T13:54:09.467Z</time></trkpt><trkpt lat="40.4330183" lon="16.6806533"><ele>149.33333333333331</ele><time>2026-03-29T13:54:10.467Z</time></trkpt><trkpt lat="40.4332117" lon="16.680675"><ele>149.66666666666666</ele><time>2026-03-29T13:54:11.458Z</time></trkpt><trkpt lat="40.4334017" lon="16.6806817"><ele>150.0</ele><time>2026-03-29T13:54:12.471Z</time></trkpt><trkpt lat="40.4335933" lon="16.68067"><ele>150.0</ele><time>2026-03-29T13:54:13.468Z</time></trkpt><trkpt lat="40.4337833" lon="16.6806333"><ele>150.0</ele><time>2026-03-29T13:54:14.469Z</time></trkpt><trkpt lat="40.4339717" lon="16.6805767"><ele>150.0</ele><time>2026-03-29T13:54:15.469Z</time></trkpt><trkpt lat="40.4341567" lon="16.6805183"><ele>150.0</ele><time>2026-03-29T13:54:16.466Z</time></trkpt><trkpt lat="40.4343417" lon="16.6804633"><ele>150.0</ele><time>2026-03-29T13:54:17.468Z</time></trkpt><trkpt lat="40.4345233" lon="16.6804117"><ele>150.0</ele><time>2026-03-29T13:54:18.465Z</time></trkpt><trkpt lat="40.4347067" lon="16.6803683"><ele>150.33333333333334</ele><time>2026-03-29T13:54:19.468Z</time></trkpt><trkpt lat="40.434895" lon="16.6803317"><ele>150.66666666666669</ele><time>2026-03-29T13:54:20.466Z</time></trkpt><trkpt lat="40.4350833" lon="16.6802967"><ele>151.0</ele><time>2026-03-29T13:54:21.468Z</time></trkpt><trkpt lat="40.4352767" lon="16.6802683"><ele>152.0</ele><time>2026-03-29T13:54:22.469Z</time></trkpt><trkpt lat="40.4354767" lon="16.6802467"><ele>153.0</ele><time>2026-03-29T13:54:23.466Z</time></trkpt><trkpt lat="40.4356833" lon="16.6802383"><ele>154.0</ele><time>2026-03-29T13:54:24.468Z</time></trkpt><trkpt lat="40.43589" lon="16.68024"><ele>154.0</ele><time>2026-03-29T13:54:25.468Z</time></trkpt><trkpt lat="40.4360933" lon="16.6802483"><ele>154.0</ele><time>2026-03-29T13:54:26.471Z</time></trkpt><trkpt lat="40.4362983" lon="16.68026"><ele>154.0</ele><time>2026-03-29T13:54:27.465Z</time></trkpt><trkpt lat="40.436505" lon="16.6802767"><ele>153.0</ele><time>2026-03-29T13:54:28.468Z</time></trkpt><trkpt lat="40.4367117" lon="16.6803017"><ele>152.0</ele><time>2026-03-29T13:54:29.47Z</time></trkpt><trkpt lat="40.436915" lon="16.680335"><ele>151.0</ele><time>2026-03-29T13:54:30.47Z</time></trkpt><trkpt lat="40.4371217" lon="16.68037"><ele>150.33333333333334</ele><time>2026-03-29T13:54:31.471Z</time></trkpt><trkpt lat="40.43733" lon="16.6804033"><ele>149.66666666666666</ele><time>2026-03-29T13:54:32.469Z</time></trkpt><trkpt lat="40.4375367" lon="16.6804383"><ele>149.0</ele><time>2026-03-29T13:54:33.458Z</time></trkpt><trkpt lat="40.4377383" lon="16.6804683"><ele>149.0</ele><time>2026-03-29T13:54:34.468Z</time></trkpt><trkpt lat="40.437935" lon="16.6804967"><ele>149.0</ele><time>2026-03-29T13:54:35.469Z</time></trkpt><trkpt lat="40.4381233" lon="16.68052"><ele>149.0</ele><time>2026-03-29T13:54:36.468Z</time></trkpt><trkpt lat="40.4383067" lon="16.6805267"><ele>149.66666666666666</ele><time>2026-03-29T13:54:37.467Z</time></trkpt><trkpt lat="40.43848" lon="16.6805183"><ele>150.33333333333334</ele><time>2026-03-29T13:54:38.47Z</time></trkpt><trkpt lat="40.4386367" lon="16.6804933"><ele>151.0</ele><time>2026-03-29T13:54:39.465Z</time></trkpt><trkpt lat="40.4387833" lon="16.6804633"><ele>151.5</ele><time>2026-03-29T13:54:40.466Z</time></trkpt><trkpt lat="40.4389217" lon="16.68043"><ele>152.0</ele><time>2026-03-29T13:54:41.467Z</time></trkpt><trkpt lat="40.439045" lon="16.6803817"><ele>152.5</ele><time>2026-03-29T13:54:42.466Z</time></trkpt><trkpt lat="40.4391517" lon="16.6802967"><ele>153.0</ele><time>2026-03-29T13:54:43.467Z</time></trkpt><trkpt lat="40.43924" lon="16.68019"><ele>153.0</ele><time>2026-03-29T13:54:44.468Z</time></trkpt><trkpt lat="40.4393167" lon="16.6800917"><ele>153.0</ele><time>2026-03-29T13:54:45.466Z</time></trkpt><trkpt lat="40.43941" lon="16.6800267"><ele>153.0</ele><time>2026-03-29T13:54:46.47Z</time></trkpt><trkpt lat="40.439515" lon="16.6800017"><ele>153.0</ele><time>2026-03-29T13:54:47.469Z</time></trkpt><trkpt lat="40.4396433" lon="16.6800317"><ele>151.25</ele><time>2026-03-29T13:54:48.47Z</time></trkpt><trkpt lat="40.439775" lon="16.6801083"><ele>149.5</ele><time>2026-03-29T13:54:49.469Z</time></trkpt><trkpt lat="40.43991" lon="16.6802017"><ele>147.75</ele><time>2026-03-29T13:54:50.47Z</time></trkpt><trkpt lat="40.4400367" lon="16.6802867"><ele>146.0</ele><time>2026-03-29T13:54:51.468Z</time></trkpt><trkpt lat="40.440155" lon="16.68036"><ele>146.0</ele><time>2026-03-29T13:54:52.469Z</time></trkpt><trkpt lat="40.4402417" lon="16.6804483"><ele>146.0</ele><time>2026-03-29T13:54:53.469Z</time></trkpt><trkpt lat="40.4402917" lon="16.680575"><ele>146.0</ele><time>2026-03-29T13:54:54.458Z</time></trkpt><trkpt lat="40.440305" lon="16.6807267"><ele>146.0</ele><time>2026-03-29T13:54:55.457Z</time></trkpt><trkpt lat="40.4402833" lon="16.6809033"><ele>146.0</ele><time>2026-03-29T13:54:56.469Z</time></trkpt><trkpt lat="40.44024" lon="16.6810833"><ele>146.0</ele><time>2026-03-29T13:54:57.468Z</time></trkpt><trkpt lat="40.4402067" lon="16.68126"><ele>146.0</ele><time>2026-03-29T13:54:58.465Z</time></trkpt><trkpt lat="40.4402067" lon="16.6814383"><ele>146.0</ele><time>2026-03-29T13:54:59.468Z</time></trkpt><trkpt lat="40.4402533" lon="16.6816233"><ele>147.33333333333331</ele><time>2026-03-29T13:55:00.465Z</time></trkpt><trkpt lat="40.4403217" lon="16.6818133"><ele>148.66666666666666</ele><time>2026-03-29T13:55:01.467Z</time></trkpt><trkpt lat="40.440395" lon="16.6820017"><ele>150.0</ele><time>2026-03-29T13:55:02.469Z</time></trkpt><trkpt lat="40.44048" lon="16.6821833"><ele>151.33333333333334</ele><time>2026-03-29T13:55:03.467Z</time></trkpt><trkpt lat="40.440585" lon="16.6823567"><ele>152.66666666666669</ele><time>2026-03-29T13:55:04.467Z</time></trkpt><trkpt lat="40.4407167" lon="16.682515"><ele>154.0</ele><time>2026-03-29T13:55:05.467Z</time></trkpt><trkpt lat="40.4408717" lon="16.6826483"><ele>154.0</ele><time>2026-03-29T13:55:06.465Z</time></trkpt><trkpt lat="40.4410433" lon="16.6827567"><ele>154.0</ele><time>2026-03-29T13:55:07.47Z</time></trkpt><trkpt lat="40.4412233" lon="16.68284"><ele>154.0</ele><time>2026-03-29T13:55:08.472Z</time></trkpt><trkpt lat="40.44141" lon="16.682895"><ele>153.33333333333334</ele><time>2026-03-29T13:55:09.468Z</time></trkpt><trkpt lat="40.4416033" lon="16.6829383"><ele>152.66666666666666</ele><time>2026-03-29T13:55:10.466Z</time></trkpt><trkpt lat="40.4417933" lon="16.6829817"><ele>152.0</ele><time>2026-03-29T13:55:11.468Z</time></trkpt><trkpt lat="40.4419817" lon="16.6830233"><ele>152.33333333333331</ele><time>2026-03-29T13:55:12.468Z</time></trkpt><trkpt lat="40.44217" lon="16.6830633"><ele>152.66666666666666</ele><time>2026-03-29T13:55:13.465Z</time></trkpt><trkpt lat="40.44236" lon="16.6831017"><ele>153.0</ele><time>2026-03-29T13:55:14.471Z</time></trkpt><trkpt lat="40.44255" lon="16.6831383"><ele>153.0</ele><time>2026-03-29T13:55:15.469Z</time></trkpt><trkpt lat="40.4427383" lon="16.683165"><ele>153.0</ele><time>2026-03-29T13:55:16.456Z</time></trkpt><trkpt lat="40.4429283" lon="16.683185"><ele>153.0</ele><time>2026-03-29T13:55:17.458Z</time></trkpt><trkpt lat="40.44311" lon="16.6831983"><ele>153.0</ele><time>2026-03-29T13:55:18.467Z</time></trkpt><trkpt lat="40.4433" lon="16.6832"><ele>153.0</ele><time>2026-03-29T13:55:19.467Z</time></trkpt><trkpt lat="40.4434933" lon="16.6831767"><ele>153.0</ele><time>2026-03-29T13:55:20.47Z</time></trkpt><trkpt lat="40.443685" lon="16.6831333"><ele>154.33333333333334</ele><time>2026-03-29T13:55:21.467Z</time></trkpt><trkpt lat="40.44388" lon="16.68309"><ele>155.66666666666669</ele><time>2026-03-29T13:55:22.468Z</time></trkpt><trkpt lat="40.44407" lon="16.683065"><ele>157.0</ele><time>2026-03-29T13:55:23.469Z</time></trkpt><trkpt lat="40.444255" lon="16.6830617"><ele>157.0</ele><time>2026-03-29T13:55:24.465Z</time></trkpt><trkpt lat="40.4444367" lon="16.68308"><ele>157.0</ele><time>2026-03-29T13:55:25.467Z</time></trkpt><trkpt lat="40.4446217" lon="16.68312"><ele>157.0</ele><time>2026-03-29T13:55:26.47Z</time></trkpt><trkpt lat="40.444805" lon="16.6831733"><ele>157.66666666666669</ele><time>2026-03-29T13:55:27.465Z</time></trkpt><trkpt lat="40.4449933" lon="16.6832233"><ele>158.33333333333334</ele><time>2026-03-29T13:55:28.468Z</time></trkpt><trkpt lat="40.4451833" lon="16.68326"><ele>159.0</ele><time>2026-03-29T13:55:29.465Z</time></trkpt><trkpt lat="40.44538" lon="16.683285"><ele>158.0</ele><time>2026-03-29T13:55:30.469Z</time></trkpt><trkpt lat="40.4455783" lon="16.6833133"><ele>157.0</ele><time>2026-03-29T13:55:31.469Z</time></trkpt><trkpt lat="40.4457767" lon="16.68336"><ele>156.0</ele><time>2026-03-29T13:55:32.471Z</time></trkpt><trkpt lat="40.4459717" lon="16.68342"><ele>156.0</ele><time>2026-03-29T13:55:33.468Z</time></trkpt><trkpt lat="40.4461617" lon="16.6834883"><ele>156.0</ele><time>2026-03-29T13:55:34.459Z</time></trkpt><trkpt lat="40.4463517" lon="16.6835633"><ele>156.0</ele><time>2026-03-29T13:55:35.468Z</time></trkpt><trkpt lat="40.4465367" lon="16.6836417"><ele>156.33333333333334</ele><time>2026-03-29T13:55:36.47Z</time></trkpt><trkpt lat="40.4467117" lon="16.6837317"><ele>156.66666666666669</ele><time>2026-03-29T13:55:37.469Z</time></trkpt><trkpt lat="40.446875" lon="16.683835"><ele>157.0</ele><time>2026-03-29T13:55:38.458Z</time></trkpt><trkpt lat="40.44702" lon="16.6839517"><ele>158.0</ele><time>2026-03-29T13:55:39.456Z</time></trkpt><trkpt lat="40.447145" lon="16.6840717"><ele>159.0</ele><time>2026-03-29T13:55:40.468Z</time></trkpt><trkpt lat="40.4472667" lon="16.6841833"><ele>160.0</ele><time>2026-03-29T13:55:41.468Z</time></trkpt><trkpt lat="40.4474" lon="16.684265"><ele>160.0</ele><time>2026-03-29T13:55:42.471Z</time></trkpt><trkpt lat="40.447555" lon="16.68431"><ele>160.0</ele><time>2026-03-29T13:55:43.465Z</time></trkpt><trkpt lat="40.4477217" lon="16.68434"><ele>160.0</ele><time>2026-03-29T13:55:44.47Z</time></trkpt><trkpt lat="40.4478867" lon="16.6843867"><ele>159.66666666666669</ele><time>2026-03-29T13:55:45.468Z</time></trkpt><trkpt lat="40.4480567" lon="16.6844617"><ele>159.33333333333334</ele><time>2026-03-29T13:55:46.469Z</time></trkpt><trkpt lat="40.448235" lon="16.6845583"><ele>159.0</ele><time>2026-03-29T13:55:47.468Z</time></trkpt><trkpt lat="40.4484133" lon="16.6846667"><ele>159.0</ele><time>2026-03-29T13:55:48.469Z</time></trkpt><trkpt lat="40.4485883" lon="16.684775"><ele>159.0</ele><time>2026-03-29T13:55:49.468Z</time></trkpt><trkpt lat="40.4487467" lon="16.6848767"><ele>159.0</ele><time>2026-03-29T13:55:50.473Z</time></trkpt><trkpt lat="40.44889" lon="16.684965"><ele>159.5</ele><time>2026-03-29T13:55:51.465Z</time></trkpt><trkpt lat="40.4490183" lon="16.6850433"><ele>160.0</ele><time>2026-03-29T13:55:52.464Z</time></trkpt><trkpt lat="40.4491417" lon="16.68512"><ele>160.5</ele><time>2026-03-29T13:55:53.467Z</time></trkpt><trkpt lat="40.449275" lon="16.6852033"><ele>161.0</ele><time>2026-03-29T13:55:54.467Z</time></trkpt><trkpt lat="40.4494033" lon="16.6853233"><ele>160.66666666666666</ele><time>2026-03-29T13:55:55.467Z</time></trkpt><trkpt lat="40.4495233" lon="16.6854783"><ele>160.33333333333334</ele><time>2026-03-29T13:55:56.469Z</time></trkpt><trkpt lat="40.44964" lon="16.6856583"><ele>160.0</ele><time>2026-03-29T13:55:57.469Z</time></trkpt><trkpt lat="40.4497633" lon="16.6858517"><ele>160.0</ele><time>2026-03-29T13:55:58.467Z</time></trkpt><trkpt lat="40.4498983" lon="16.686045"><ele>160.0</ele><time>2026-03-29T13:55:59.473Z</time></trkpt><trkpt lat="40.4500483" lon="16.68623"><ele>160.0</ele><time>2026-03-29T13:56:00.46Z</time></trkpt><trkpt lat="40.4502067" lon="16.6864083"><ele>159.33333333333334</ele><time>2026-03-29T13:56:01.468Z</time></trkpt><trkpt lat="40.450365" lon="16.6865867"><ele>158.66666666666666</ele><time>2026-03-29T13:56:02.471Z</time></trkpt><trkpt lat="40.4505167" lon="16.6867683"><ele>158.0</ele><time>2026-03-29T13:56:03.468Z</time></trkpt><trkpt lat="40.4506633" lon="16.686945"><ele>156.33333333333331</ele><time>2026-03-29T13:56:04.467Z</time></trkpt><trkpt lat="40.4508133" lon="16.6871183"><ele>154.66666666666666</ele><time>2026-03-29T13:56:05.468Z</time></trkpt><trkpt lat="40.4509633" lon="16.6872867"><ele>153.0</ele><time>2026-03-29T13:56:06.465Z</time></trkpt><trkpt lat="40.4511083" lon="16.6874533"><ele>153.0</ele><time>2026-03-29T13:56:07.469Z</time></trkpt><trkpt lat="40.45125" lon="16.68762"><ele>153.0</ele><time>2026-03-29T13:56:08.469Z</time></trkpt><trkpt lat="40.4514017" lon="16.68778"><ele>153.0</ele><time>2026-03-29T13:56:09.469Z</time></trkpt><trkpt lat="40.4515683" lon="16.6879267"><ele>153.0</ele><time>2026-03-29T13:56:10.468Z</time></trkpt><trkpt lat="40.4517467" lon="16.68806"><ele>153.0</ele><time>2026-03-29T13:56:11.468Z</time></trkpt><trkpt lat="40.4519283" lon="16.6881833"><ele>153.0</ele><time>2026-03-29T13:56:12.467Z</time></trkpt><trkpt lat="40.4521117" lon="16.688305"><ele>153.66666666666666</ele><time>2026-03-29T13:56:13.468Z</time></trkpt><trkpt lat="40.4522983" lon="16.68843"><ele>154.33333333333331</ele><time>2026-03-29T13:56:14.469Z</time></trkpt><trkpt lat="40.45249" lon="16.6885533"><ele>155.0</ele><time>2026-03-29T13:56:15.465Z</time></trkpt><trkpt lat="40.4526833" lon="16.688675"><ele>155.33333333333331</ele><time>2026-03-29T13:56:16.469Z</time></trkpt><trkpt lat="40.4528767" lon="16.68879"><ele>155.66666666666666</ele><time>2026-03-29T13:56:17.468Z</time></trkpt><trkpt lat="40.453065" lon="16.688905"><ele>156.0</ele><time>2026-03-29T13:56:18.468Z</time></trkpt><trkpt lat="40.4532533" lon="16.6890167"><ele>156.0</ele><time>2026-03-29T13:56:19.471Z</time></trkpt><trkpt lat="40.45344" lon="16.6891267"><ele>156.0</ele><time>2026-03-29T13:56:20.474Z</time></trkpt><trkpt lat="40.453625" lon="16.689235"><ele>156.0</ele><time>2026-03-29T13:56:21.458Z</time></trkpt><trkpt lat="40.4538" lon="16.6893417"><ele>154.66666666666666</ele><time>2026-03-29T13:56:22.458Z</time></trkpt><trkpt lat="40.453965" lon="16.6894367"><ele>153.33333333333331</ele><time>2026-03-29T13:56:23.469Z</time></trkpt><trkpt lat="40.4541267" lon="16.689525"><ele>152.0</ele><time>2026-03-29T13:56:24.469Z</time></trkpt><trkpt lat="40.4542817" lon="16.68959"><ele>152.0</ele><time>2026-03-29T13:56:25.468Z</time></trkpt><trkpt lat="40.4544417" lon="16.6896167"><ele>152.0</ele><time>2026-03-29T13:56:26.471Z</time></trkpt><trkpt lat="40.4546067" lon="16.6896067"><ele>152.0</ele><time>2026-03-29T13:56:27.467Z</time></trkpt><trkpt lat="40.454765" lon="16.689585"><ele>151.75</ele><time>2026-03-29T13:56:28.468Z</time></trkpt><trkpt lat="40.4549117" lon="16.68957"><ele>151.5</ele><time>2026-03-29T13:56:29.467Z</time></trkpt><trkpt lat="40.4550533" lon="16.68958"><ele>151.25</ele><time>2026-03-29T13:56:30.468Z</time></trkpt><trkpt lat="40.4551933" lon="16.689625"><ele>151.0</ele><time>2026-03-29T13:56:31.468Z</time></trkpt><trkpt lat="40.4553317" lon="16.6897017"><ele>151.33333333333334</ele><time>2026-03-29T13:56:32.47Z</time></trkpt><trkpt lat="40.45547" lon="16.6897983"><ele>151.66666666666666</ele><time>2026-03-29T13:56:33.468Z</time></trkpt><trkpt lat="40.4556133" lon="16.689915"><ele>152.0</ele><time>2026-03-29T13:56:34.468Z</time></trkpt><trkpt lat="40.4557633" lon="16.69004"><ele>152.0</ele><time>2026-03-29T13:56:35.467Z</time></trkpt><trkpt lat="40.4559167" lon="16.6901667"><ele>152.0</ele><time>2026-03-29T13:56:36.469Z</time></trkpt><trkpt lat="40.4560667" lon="16.6902883"><ele>152.0</ele><time>2026-03-29T13:56:37.466Z</time></trkpt><trkpt lat="40.4562067" lon="16.6904083"><ele>154.66666666666666</ele><time>2026-03-29T13:56:38.47Z</time></trkpt><trkpt lat="40.4563433" lon="16.6905383"><ele>157.33333333333334</ele><time>2026-03-29T13:56:39.468Z</time></trkpt><trkpt lat="40.456475" lon="16.690695"><ele>160.0</ele><time>2026-03-29T13:56:40.469Z</time></trkpt><trkpt lat="40.456595" lon="16.6908683"><ele>160.0</ele><time>2026-03-29T13:56:41.464Z</time></trkpt><trkpt lat="40.4567067" lon="16.69106"><ele>160.0</ele><time>2026-03-29T13:56:42.467Z</time></trkpt><trkpt lat="40.456805" lon="16.6912683"><ele>160.0</ele><time>2026-03-29T13:56:43.459Z</time></trkpt><trkpt lat="40.4568917" lon="16.6915"><ele>158.33333333333334</ele><time>2026-03-29T13:56:44.459Z</time></trkpt><trkpt lat="40.4569633" lon="16.6917383"><ele>156.66666666666666</ele><time>2026-03-29T13:56:45.469Z</time></trkpt><trkpt lat="40.4570333" lon="16.69198"><ele>155.0</ele><time>2026-03-29T13:56:46.468Z</time></trkpt><trkpt lat="40.4571033" lon="16.6922183"><ele>155.33333333333331</ele><time>2026-03-29T13:56:47.469Z</time></trkpt><trkpt lat="40.457175" lon="16.6924383"><ele>155.66666666666666</ele><time>2026-03-29T13:56:48.465Z</time></trkpt><trkpt lat="40.457255" lon="16.6926467"><ele>156.0</ele><time>2026-03-29T13:56:49.468Z</time></trkpt><trkpt lat="40.457355" lon="16.6928367"><ele>154.66666666666666</ele><time>2026-03-29T13:56:50.471Z</time></trkpt><trkpt lat="40.4574817" lon="16.69301"><ele>153.33333333333331</ele><time>2026-03-29T13:56:51.468Z</time></trkpt><trkpt lat="40.4576217" lon="16.6931683"><ele>152.0</ele><time>2026-03-29T13:56:52.469Z</time></trkpt><trkpt lat="40.4577617" lon="16.693315"><ele>152.0</ele><time>2026-03-29T13:56:53.468Z</time></trkpt><trkpt lat="40.457885" lon="16.69345"><ele>152.0</ele><time>2026-03-29T13:56:54.467Z</time></trkpt><trkpt lat="40.4579983" lon="16.6935633"><ele>152.0</ele><time>2026-03-29T13:56:55.468Z</time></trkpt><trkpt lat="40.45811" lon="16.6936383"><ele>152.0</ele><time>2026-03-29T13:56:56.472Z</time></trkpt><trkpt lat="40.4582217" lon="16.6936717"><ele>151.6</ele><time>2026-03-29T13:56:57.47Z</time></trkpt><trkpt lat="40.4583317" lon="16.6936667"><ele>151.2</ele><time>2026-03-29T13:56:58.467Z</time></trkpt><trkpt lat="40.4584317" lon="16.6936083"><ele>150.8</ele><time>2026-03-29T13:56:59.47Z</time></trkpt><trkpt lat="40.4585067" lon="16.6935017"><ele>150.4</ele><time>2026-03-29T13:57:00.468Z</time></trkpt><trkpt lat="40.4585583" lon="16.6933683"><ele>150.0</ele><time>2026-03-29T13:57:01.468Z</time></trkpt><trkpt lat="40.4586017" lon="16.6932333"><ele>150.0</ele><time>2026-03-29T13:57:02.47Z</time></trkpt><trkpt lat="40.4586567" lon="16.693115"><ele>150.0</ele><time>2026-03-29T13:57:03.465Z</time></trkpt><trkpt lat="40.458735" lon="16.69303"><ele>150.0</ele><time>2026-03-29T13:57:04.465Z</time></trkpt><trkpt lat="40.45884" lon="16.6929867"><ele>150.0</ele><time>2026-03-29T13:57:05.457Z</time></trkpt><trkpt lat="40.4589617" lon="16.6929883"><ele>150.0</ele><time>2026-03-29T13:57:06.456Z</time></trkpt><trkpt lat="40.4590983" lon="16.6930233"><ele>148.5</ele><time>2026-03-29T13:57:07.465Z</time></trkpt><trkpt lat="40.4592383" lon="16.6930683"><ele>147.0</ele><time>2026-03-29T13:57:08.469Z</time></trkpt><trkpt lat="40.4593767" lon="16.6931183"><ele>145.5</ele><time>2026-03-29T13:57:09.468Z</time></trkpt><trkpt lat="40.4595067" lon="16.6931667"><ele>144.0</ele><time>2026-03-29T13:57:10.465Z</time></trkpt><trkpt lat="40.4596367" lon="16.6932133"><ele>141.75</ele><time>2026-03-29T13:57:11.47Z</time></trkpt><trkpt lat="40.459765" lon="16.693245"><ele>139.5</ele><time>2026-03-29T13:57:12.469Z</time></trkpt><trkpt lat="40.4598967" lon="16.693245"><ele>137.25</ele><time>2026-03-29T13:57:13.47Z</time></trkpt><trkpt lat="40.4600233" lon="16.6932083"><ele>135.0</ele><time>2026-03-29T13:57:14.47Z</time></trkpt><trkpt lat="40.460135" lon="16.693125"><ele>135.0</ele><time>2026-03-29T13:57:15.466Z</time></trkpt><trkpt lat="40.4602233" lon="16.692995"><ele>135.0</ele><time>2026-03-29T13:57:16.471Z</time></trkpt><trkpt lat="40.460295" lon="16.692835"><ele>135.0</ele><time>2026-03-29T13:57:17.465Z</time></trkpt><trkpt lat="40.4603833" lon="16.6926833"><ele>135.0</ele><time>2026-03-29T13:57:18.465Z</time></trkpt><trkpt lat="40.460485" lon="16.692555"><ele>133.75</ele><time>2026-03-29T13:57:19.464Z</time></trkpt><trkpt lat="40.4605833" lon="16.6924267"><ele>132.5</ele><time>2026-03-29T13:57:20.466Z</time></trkpt><trkpt lat="40.4606617" lon="16.69229"><ele>131.25</ele><time>2026-03-29T13:57:21.464Z</time></trkpt><trkpt lat="40.46073" lon="16.6921633"><ele>130.0</ele><time>2026-03-29T13:57:22.464Z</time></trkpt><trkpt lat="40.4608183" lon="16.6920683"><ele>130.0</ele><time>2026-03-29T13:57:23.464Z</time></trkpt><trkpt lat="40.460935" lon="16.6920067"><ele>130.0</ele><time>2026-03-29T13:57:24.464Z</time></trkpt><trkpt lat="40.4610883" lon="16.6919717"><ele>130.0</ele><time>2026-03-29T13:57:25.464Z</time></trkpt><trkpt lat="40.46126" lon="16.6919483"><ele>129.66666666666669</ele><time>2026-03-29T13:57:26.467Z</time></trkpt><trkpt lat="40.46145" lon="16.691915"><ele>129.33333333333334</ele><time>2026-03-29T13:57:27.456Z</time></trkpt><trkpt lat="40.4616417" lon="16.691855"><ele>129.0</ele><time>2026-03-29T13:57:28.467Z</time></trkpt><trkpt lat="40.46183" lon="16.6917817"><ele>129.0</ele><time>2026-03-29T13:57:29.468Z</time></trkpt><trkpt lat="40.4620167" lon="16.6917183"><ele>129.0</ele><time>2026-03-29T13:57:30.469Z</time></trkpt><trkpt lat="40.4621983" lon="16.6916767"><ele>129.0</ele><time>2026-03-29T13:57:31.467Z</time></trkpt><trkpt lat="40.46237" lon="16.6916433"><ele>130.66666666666666</ele><time>2026-03-29T13:57:32.47Z</time></trkpt><trkpt lat="40.4625317" lon="16.6916083"><ele>132.33333333333331</ele><time>2026-03-29T13:57:33.467Z</time></trkpt><trkpt lat="40.4626867" lon="16.69155"><ele>134.0</ele><time>2026-03-29T13:57:34.467Z</time></trkpt><trkpt lat="40.4628317" lon="16.6914517"><ele>132.66666666666666</ele><time>2026-03-29T13:57:35.468Z</time></trkpt><trkpt lat="40.46297" lon="16.6913233"><ele>131.33333333333334</ele><time>2026-03-29T13:57:36.461Z</time></trkpt><trkpt lat="40.4631117" lon="16.6912"><ele>130.0</ele><time>2026-03-29T13:57:37.465Z</time></trkpt><trkpt lat="40.4632617" lon="16.6911067"><ele>134.33333333333334</ele><time>2026-03-29T13:57:38.466Z</time></trkpt><trkpt lat="40.4634183" lon="16.6910417"><ele>138.66666666666666</ele><time>2026-03-29T13:57:39.465Z</time></trkpt><trkpt lat="40.4635683" lon="16.6910033"><ele>143.0</ele><time>2026-03-29T13:57:40.464Z</time></trkpt><trkpt lat="40.4637083" lon="16.69098"><ele>141.0</ele><time>2026-03-29T13:57:41.466Z</time></trkpt><trkpt lat="40.4638433" lon="16.6909417"><ele>139.0</ele><time>2026-03-29T13:57:42.464Z</time></trkpt><trkpt lat="40.4639683" lon="16.69086"><ele>137.0</ele><time>2026-03-29T13:57:43.468Z</time></trkpt><trkpt lat="40.4640817" lon="16.6907367"><ele>135.0</ele><time>2026-03-29T13:57:44.47Z</time></trkpt><trkpt lat="40.4641883" lon="16.6906033"><ele>135.0</ele><time>2026-03-29T13:57:45.465Z</time></trkpt><trkpt lat="40.4642983" lon="16.6904867"><ele>135.0</ele><time>2026-03-29T13:57:46.464Z</time></trkpt><trkpt lat="40.46441" lon="16.6903917"><ele>135.0</ele><time>2026-03-29T13:57:47.466Z</time></trkpt><trkpt lat="40.4645183" lon="16.6903167"><ele>135.0</ele><time>2026-03-29T13:57:48.456Z</time></trkpt><trkpt lat="40.4646183" lon="16.6902667"><ele>135.8</ele><time>2026-03-29T13:57:49.456Z</time></trkpt><trkpt lat="40.46471" lon="16.6902417"><ele>136.6</ele><time>2026-03-29T13:57:50.465Z</time></trkpt><trkpt lat="40.46479" lon="16.6902417"><ele>137.4</ele><time>2026-03-29T13:57:51.468Z</time></trkpt><trkpt lat="40.4648517" lon="16.6903017"><ele>138.2</ele><time>2026-03-29T13:57:52.468Z</time></trkpt><trkpt lat="40.46492" lon="16.6904067"><ele>139.0</ele><time>2026-03-29T13:57:53.468Z</time></trkpt><trkpt lat="40.46499" lon="16.6905367"><ele>138.75</ele><time>2026-03-29T13:57:54.469Z</time></trkpt><trkpt lat="40.4650667" lon="16.690675"><ele>138.5</ele><time>2026-03-29T13:57:55.47Z</time></trkpt><trkpt lat="40.4651517" lon="16.690815"><ele>138.25</ele><time>2026-03-29T13:57:56.47Z</time></trkpt><trkpt lat="40.4652417" lon="16.690955"><ele>138.0</ele><time>2026-03-29T13:57:57.468Z</time></trkpt><trkpt lat="40.4653133" lon="16.6910967"><ele>138.0</ele><time>2026-03-29T13:57:58.464Z</time></trkpt><trkpt lat="40.4653567" lon="16.6912517"><ele>138.0</ele><time>2026-03-29T13:57:59.464Z</time></trkpt><trkpt lat="40.4653583" lon="16.6914117"><ele>138.0</ele><time>2026-03-29T13:58:00.465Z</time></trkpt><trkpt lat="40.465305" lon="16.6915783"><ele>138.0</ele><time>2026-03-29T13:58:01.464Z</time></trkpt><trkpt lat="40.4652267" lon="16.6917533"><ele>141.66666666666666</ele><time>2026-03-29T13:58:02.466Z</time></trkpt><trkpt lat="40.46515" lon="16.691945"><ele>145.33333333333331</ele><time>2026-03-29T13:58:03.467Z</time></trkpt><trkpt lat="40.4650733" lon="16.69214"><ele>149.0</ele><time>2026-03-29T13:58:04.469Z</time></trkpt><trkpt lat="40.4649783" lon="16.6923267"><ele>149.0</ele><time>2026-03-29T13:58:05.469Z</time></trkpt><trkpt lat="40.46487" lon="16.6924967"><ele>149.0</ele><time>2026-03-29T13:58:06.472Z</time></trkpt><trkpt lat="40.464755" lon="16.6926583"><ele>149.0</ele><time>2026-03-29T13:58:07.466Z</time></trkpt><trkpt lat="40.46464" lon="16.6928267"><ele>149.0</ele><time>2026-03-29T13:58:08.469Z</time></trkpt><trkpt lat="40.4645333" lon="16.693015"><ele>149.0</ele><time>2026-03-29T13:58:09.467Z</time></trkpt><trkpt lat="40.4644517" lon="16.69323"><ele>149.0</ele><time>2026-03-29T13:58:10.461Z</time></trkpt><trkpt lat="40.4643817" lon="16.693445"><ele>152.33333333333331</ele><time>2026-03-29T13:58:11.461Z</time></trkpt><trkpt lat="40.4643" lon="16.69364"><ele>155.66666666666666</ele><time>2026-03-29T13:58:12.472Z</time></trkpt><trkpt lat="40.4641983" lon="16.6938067"><ele>159.0</ele><time>2026-03-29T13:58:13.471Z</time></trkpt><trkpt lat="40.4640767" lon="16.6939417"><ele>159.0</ele><time>2026-03-29T13:58:14.471Z</time></trkpt><trkpt lat="40.4639333" lon="16.69403"><ele>159.0</ele><time>2026-03-29T13:58:15.465Z</time></trkpt><trkpt lat="40.46379" lon="16.6940717"><ele>159.0</ele><time>2026-03-29T13:58:16.472Z</time></trkpt><trkpt lat="40.463655" lon="16.6940767"><ele>159.0</ele><time>2026-03-29T13:58:17.468Z</time></trkpt><trkpt lat="40.4635317" lon="16.6940683"><ele>159.2</ele><time>2026-03-29T13:58:18.471Z</time></trkpt><trkpt lat="40.4634217" lon="16.6940767"><ele>159.4</ele><time>2026-03-29T13:58:19.469Z</time></trkpt><trkpt lat="40.4633267" lon="16.6941183"><ele>159.6</ele><time>2026-03-29T13:58:20.468Z</time></trkpt><trkpt lat="40.4632583" lon="16.694195"><ele>159.8</ele><time>2026-03-29T13:58:21.469Z</time></trkpt><trkpt lat="40.463225" lon="16.6943083"><ele>160.0</ele><time>2026-03-29T13:58:22.467Z</time></trkpt><trkpt lat="40.46323" lon="16.6944417"><ele>160.0</ele><time>2026-03-29T13:58:23.469Z</time></trkpt><trkpt lat="40.4632783" lon="16.6945867"><ele>160.0</ele><time>2026-03-29T13:58:24.468Z</time></trkpt><trkpt lat="40.4633517" lon="16.6947267"><ele>160.0</ele><time>2026-03-29T13:58:25.47Z</time></trkpt><trkpt lat="40.4634417" lon="16.6948517"><ele>160.0</ele><time>2026-03-29T13:58:26.471Z</time></trkpt><trkpt lat="40.4635583" lon="16.6949483"><ele>160.0</ele><time>2026-03-29T13:58:27.465Z</time></trkpt><trkpt lat="40.46371" lon="16.69501"><ele>160.0</ele><time>2026-03-29T13:58:28.467Z</time></trkpt><trkpt lat="40.4638767" lon="16.6950533"><ele>160.0</ele><time>2026-03-29T13:58:29.467Z</time></trkpt><trkpt lat="40.4640467" lon="16.6950883"><ele>161.33333333333334</ele><time>2026-03-29T13:58:30.465Z</time></trkpt><trkpt lat="40.4642267" lon="16.6951217"><ele>162.66666666666666</ele><time>2026-03-29T13:58:31.471Z</time></trkpt><trkpt lat="40.4644017" lon="16.6951467"><ele>164.0</ele><time>2026-03-29T13:58:32.458Z</time></trkpt><trkpt lat="40.4645617" lon="16.6951517"><ele>164.66666666666666</ele><time>2026-03-29T13:58:33.457Z</time></trkpt><trkpt lat="40.4647217" lon="16.6951133"><ele>165.33333333333334</ele><time>2026-03-29T13:58:34.467Z</time></trkpt><trkpt lat="40.4648833" lon="16.695025"><ele>166.0</ele><time>2026-03-29T13:58:35.468Z</time></trkpt><trkpt lat="40.4650367" lon="16.6949083"><ele>166.0</ele><time>2026-03-29T13:58:36.468Z</time></trkpt><trkpt lat="40.46519" lon="16.6947783"><ele>166.0</ele><time>2026-03-29T13:58:37.465Z</time></trkpt><trkpt lat="40.46534" lon="16.6946317"><ele>166.0</ele><time>2026-03-29T13:58:38.47Z</time></trkpt><trkpt lat="40.4654817" lon="16.6944717"><ele>166.66666666666669</ele><time>2026-03-29T13:58:39.471Z</time></trkpt><trkpt lat="40.465615" lon="16.694305"><ele>167.33333333333334</ele><time>2026-03-29T13:58:40.47Z</time></trkpt><trkpt lat="40.465745" lon="16.6941483"><ele>168.0</ele><time>2026-03-29T13:58:41.468Z</time></trkpt><trkpt lat="40.465885" lon="16.694005"><ele>168.0</ele><time>2026-03-29T13:58:42.467Z</time></trkpt><trkpt lat="40.466045" lon="16.6938733"><ele>168.0</ele><time>2026-03-29T13:58:43.47Z</time></trkpt><trkpt lat="40.46621" lon="16.6937617"><ele>168.0</ele><time>2026-03-29T13:58:44.47Z</time></trkpt><trkpt lat="40.46638" lon="16.6936667"><ele>169.0</ele><time>2026-03-29T13:58:45.469Z</time></trkpt><trkpt lat="40.4665583" lon="16.693565"><ele>170.0</ele><time>2026-03-29T13:58:46.47Z</time></trkpt><trkpt lat="40.4667383" lon="16.69346"><ele>171.0</ele><time>2026-03-29T13:58:47.469Z</time></trkpt><trkpt lat="40.46692" lon="16.693355"><ele>171.0</ele><time>2026-03-29T13:58:48.467Z</time></trkpt><trkpt lat="40.4670983" lon="16.693255"><ele>171.0</ele><time>2026-03-29T13:58:49.469Z</time></trkpt><trkpt lat="40.467275" lon="16.693155"><ele>171.0</ele><time>2026-03-29T13:58:50.471Z</time></trkpt><trkpt lat="40.467445" lon="16.6930533"><ele>170.66666666666666</ele><time>2026-03-29T13:58:51.469Z</time></trkpt><trkpt lat="40.4676183" lon="16.6929433"><ele>170.33333333333331</ele><time>2026-03-29T13:58:52.467Z</time></trkpt><trkpt lat="40.4677933" lon="16.6928217"><ele>170.0</ele><time>2026-03-29T13:58:53.468Z</time></trkpt><trkpt lat="40.4679667" lon="16.692685"><ele>170.0</ele><time>2026-03-29T13:58:54.457Z</time></trkpt><trkpt lat="40.46814" lon="16.6925433"><ele>170.0</ele><time>2026-03-29T13:58:55.458Z</time></trkpt><trkpt lat="40.4683133" lon="16.6923983"><ele>170.0</ele><time>2026-03-29T13:58:56.472Z</time></trkpt><trkpt lat="40.46849" lon="16.6922517"><ele>170.0</ele><time>2026-03-29T13:58:57.468Z</time></trkpt><trkpt lat="40.4686667" lon="16.692105"><ele>170.0</ele><time>2026-03-29T13:58:58.469Z</time></trkpt><trkpt lat="40.4688417" lon="16.6919567"><ele>170.0</ele><time>2026-03-29T13:58:59.466Z</time></trkpt><trkpt lat="40.4690167" lon="16.6918067"><ele>169.66666666666666</ele><time>2026-03-29T13:59:00.468Z</time></trkpt><trkpt lat="40.4691917" lon="16.691655"><ele>169.33333333333334</ele><time>2026-03-29T13:59:01.472Z</time></trkpt><trkpt lat="40.4693733" lon="16.691495"><ele>169.0</ele><time>2026-03-29T13:59:02.472Z</time></trkpt><trkpt lat="40.4695567" lon="16.691335"><ele>169.33333333333334</ele><time>2026-03-29T13:59:03.465Z</time></trkpt><trkpt lat="40.4697383" lon="16.6911733"><ele>169.66666666666666</ele><time>2026-03-29T13:59:04.469Z</time></trkpt><trkpt lat="40.4699217" lon="16.6910133"><ele>170.0</ele><time>2026-03-29T13:59:05.468Z</time></trkpt><trkpt lat="40.4701033" lon="16.69085"><ele>170.33333333333331</ele><time>2026-03-29T13:59:06.469Z</time></trkpt><trkpt lat="40.470285" lon="16.690685"><ele>170.66666666666666</ele><time>2026-03-29T13:59:07.468Z</time></trkpt><trkpt lat="40.4704567" lon="16.690525"><ele>171.0</ele><time>2026-03-29T13:59:08.47Z</time></trkpt><trkpt lat="40.47063" lon="16.6903667"><ele>171.66666666666666</ele><time>2026-03-29T13:59:09.47Z</time></trkpt><trkpt lat="40.4708017" lon="16.6902067"><ele>172.33333333333331</ele><time>2026-03-29T13:59:10.469Z</time></trkpt><trkpt lat="40.47097" lon="16.6900533"><ele>173.0</ele><time>2026-03-29T13:59:11.468Z</time></trkpt><trkpt lat="40.4711417" lon="16.6899017"><ele>172.66666666666666</ele><time>2026-03-29T13:59:12.466Z</time></trkpt><trkpt lat="40.4713117" lon="16.68976"><ele>172.33333333333334</ele><time>2026-03-29T13:59:13.465Z</time></trkpt><trkpt lat="40.4714833" lon="16.689625"><ele>172.0</ele><time>2026-03-29T13:59:14.472Z</time></trkpt><trkpt lat="40.4716567" lon="16.6895017"><ele>172.66666666666669</ele><time>2026-03-29T13:59:15.469Z</time></trkpt><trkpt lat="40.4718367" lon="16.689385"><ele>173.33333333333334</ele><time>2026-03-29T13:59:16.457Z</time></trkpt><trkpt lat="40.4720183" lon="16.68927"><ele>174.0</ele><time>2026-03-29T13:59:17.471Z</time></trkpt><trkpt lat="40.4722067" lon="16.689165"><ele>174.0</ele><time>2026-03-29T13:59:18.469Z</time></trkpt><trkpt lat="40.4723983" lon="16.6890633"><ele>174.0</ele><time>2026-03-29T13:59:19.471Z</time></trkpt><trkpt lat="40.47259" lon="16.688965"><ele>174.0</ele><time>2026-03-29T13:59:20.472Z</time></trkpt><trkpt lat="40.472785" lon="16.688865"><ele>174.0</ele><time>2026-03-29T13:59:21.469Z</time></trkpt><trkpt lat="40.4729833" lon="16.6887667"><ele>174.0</ele><time>2026-03-29T13:59:22.469Z</time></trkpt><trkpt lat="40.4731783" lon="16.6886633"><ele>174.0</ele><time>2026-03-29T13:59:23.469Z</time></trkpt><trkpt lat="40.4733717" lon="16.6885633"><ele>174.33333333333334</ele><time>2026-03-29T13:59:24.468Z</time></trkpt><trkpt lat="40.4735617" lon="16.6884633"><ele>174.66666666666669</ele><time>2026-03-29T13:59:25.469Z</time></trkpt><trkpt lat="40.4737483" lon="16.6883633"><ele>175.0</ele><time>2026-03-29T13:59:26.469Z</time></trkpt><trkpt lat="40.4739333" lon="16.6882667"><ele>175.0</ele><time>2026-03-29T13:59:27.47Z</time></trkpt><trkpt lat="40.4741183" lon="16.68817"><ele>175.0</ele><time>2026-03-29T13:59:28.468Z</time></trkpt><trkpt lat="40.4743017" lon="16.6880717"><ele>175.0</ele><time>2026-03-29T13:59:29.468Z</time></trkpt><trkpt lat="40.47449" lon="16.68797"><ele>174.66666666666669</ele><time>2026-03-29T13:59:30.469Z</time></trkpt><trkpt lat="40.474675" lon="16.6878617"><ele>174.33333333333334</ele><time>2026-03-29T13:59:31.468Z</time></trkpt><trkpt lat="40.474855" lon="16.687745"><ele>174.0</ele><time>2026-03-29T13:59:32.471Z</time></trkpt><trkpt lat="40.4750367" lon="16.687625"><ele>174.66666666666666</ele><time>2026-03-29T13:59:33.469Z</time></trkpt><trkpt lat="40.475215" lon="16.6875017"><ele>175.33333333333331</ele><time>2026-03-29T13:59:34.467Z</time></trkpt><trkpt lat="40.4754" lon="16.6873767"><ele>176.0</ele><time>2026-03-29T13:59:35.469Z</time></trkpt><trkpt lat="40.4755817" lon="16.687255"><ele>176.33333333333331</ele><time>2026-03-29T13:59:36.469Z</time></trkpt><trkpt lat="40.47575" lon="16.687135"><ele>176.66666666666666</ele><time>2026-03-29T13:59:37.459Z</time></trkpt><trkpt lat="40.4759167" lon="16.6870133"><ele>177.0</ele><time>2026-03-29T13:59:38.458Z</time></trkpt><trkpt lat="40.47608" lon="16.6868833"><ele>177.33333333333334</ele><time>2026-03-29T13:59:39.47Z</time></trkpt><trkpt lat="40.4762467" lon="16.6867367"><ele>177.66666666666669</ele><time>2026-03-29T13:59:40.471Z</time></trkpt><trkpt lat="40.4764167" lon="16.6865717"><ele>178.0</ele><time>2026-03-29T13:59:41.469Z</time></trkpt><trkpt lat="40.4765883" lon="16.6863917"><ele>178.5</ele><time>2026-03-29T13:59:42.471Z</time></trkpt><trkpt lat="40.4767683" lon="16.6862083"><ele>179.0</ele><time>2026-03-29T13:59:43.466Z</time></trkpt><trkpt lat="40.476955" lon="16.686025"><ele>179.5</ele><time>2026-03-29T13:59:44.471Z</time></trkpt><trkpt lat="40.4771483" lon="16.6858467"><ele>180.0</ele><time>2026-03-29T13:59:45.465Z</time></trkpt><trkpt lat="40.47734" lon="16.6856717"><ele>180.0</ele><time>2026-03-29T13:59:46.47Z</time></trkpt><trkpt lat="40.4775283" lon="16.6855"><ele>180.0</ele><time>2026-03-29T13:59:47.465Z</time></trkpt><trkpt lat="40.4777117" lon="16.6853283"><ele>180.0</ele><time>2026-03-29T13:59:48.469Z</time></trkpt><trkpt lat="40.4778917" lon="16.6851567"><ele>180.0</ele><time>2026-03-29T13:59:49.469Z</time></trkpt><trkpt lat="40.4780683" lon="16.6849933"><ele>180.0</ele><time>2026-03-29T13:59:50.47Z</time></trkpt><trkpt lat="40.4782467" lon="16.6848333"><ele>179.66666666666666</ele><time>2026-03-29T13:59:51.469Z</time></trkpt><trkpt lat="40.4784233" lon="16.6846817"><ele>179.33333333333331</ele><time>2026-03-29T13:59:52.47Z</time></trkpt><trkpt lat="40.4786017" lon="16.68454"><ele>179.0</ele><time>2026-03-29T13:59:53.471Z</time></trkpt><trkpt lat="40.4787883" lon="16.6844117"><ele>180.0</ele><time>2026-03-29T13:59:54.47Z</time></trkpt><trkpt lat="40.4789833" lon="16.6843117"><ele>181.0</ele><time>2026-03-29T13:59:55.47Z</time></trkpt><trkpt lat="40.47919" lon="16.684235"><ele>182.0</ele><time>2026-03-29T13:59:56.472Z</time></trkpt><trkpt lat="40.4794067" lon="16.6841867"><ele>182.33333333333331</ele><time>2026-03-29T13:59:57.469Z</time></trkpt><trkpt lat="40.4796233" lon="16.6841717"><ele>182.66666666666666</ele><time>2026-03-29T13:59:58.469Z</time></trkpt><trkpt lat="40.4798283" lon="16.684175"><ele>183.0</ele><time>2026-03-29T13:59:59.459Z</time></trkpt><trkpt lat="40.48002" lon="16.6841833"><ele>183.0</ele><time>2026-03-29T14:00:00.459Z</time></trkpt><trkpt lat="40.4802033" lon="16.68419"><ele>183.0</ele><time>2026-03-29T14:00:01.473Z</time></trkpt><trkpt lat="40.4803817" lon="16.6841817"><ele>183.0</ele><time>2026-03-29T14:00:02.468Z</time></trkpt><trkpt lat="40.4805533" lon="16.6841467"><ele>183.66666666666666</ele><time>2026-03-29T14:00:03.47Z</time></trkpt><trkpt lat="40.48073" lon="16.68408"><ele>184.33333333333331</ele><time>2026-03-29T14:00:04.468Z</time></trkpt><trkpt lat="40.4809033" lon="16.6839933"><ele>185.0</ele><time>2026-03-29T14:00:05.472Z</time></trkpt><trkpt lat="40.48107" lon="16.6839"><ele>185.0</ele><time>2026-03-29T14:00:06.469Z</time></trkpt><trkpt lat="40.4812233" lon="16.6838133"><ele>185.0</ele><time>2026-03-29T14:00:07.469Z</time></trkpt><trkpt lat="40.4813617" lon="16.68373"><ele>185.0</ele><time>2026-03-29T14:00:08.471Z</time></trkpt><trkpt lat="40.481495" lon="16.683635"><ele>185.0</ele><time>2026-03-29T14:00:09.48Z</time></trkpt><trkpt lat="40.4816183" lon="16.68352"><ele>185.0</ele><time>2026-03-29T14:00:10.468Z</time></trkpt><trkpt lat="40.4817267" lon="16.6833817"><ele>185.0</ele><time>2026-03-29T14:00:11.47Z</time></trkpt><trkpt lat="40.4818117" lon="16.683225"><ele>185.0</ele><time>2026-03-29T14:00:12.47Z</time></trkpt><trkpt lat="40.4818717" lon="16.6830583"><ele>185.0</ele><time>2026-03-29T14:00:13.469Z</time></trkpt><trkpt lat="40.481925" lon="16.6828917"><ele>185.0</ele><time>2026-03-29T14:00:14.471Z</time></trkpt><trkpt lat="40.4819733" lon="16.6827367"><ele>185.0</ele><time>2026-03-29T14:00:15.468Z</time></trkpt><trkpt lat="40.4820167" lon="16.6826067"><ele>185.0</ele><time>2026-03-29T14:00:16.466Z</time></trkpt><trkpt lat="40.4820833" lon="16.6825033"><ele>182.83333333333331</ele><time>2026-03-29T14:00:17.464Z</time></trkpt><trkpt lat="40.48216" lon="16.6824317"><ele>180.66666666666666</ele><time>2026-03-29T14:00:18.464Z</time></trkpt><trkpt lat="40.48224" lon="16.6824033"><ele>178.5</ele><time>2026-03-29T14:00:19.468Z</time></trkpt><trkpt lat="40.4823233" lon="16.6824417"><ele>176.33333333333334</ele><time>2026-03-29T14:00:20.47Z</time></trkpt><trkpt lat="40.4824067" lon="16.6824983"><ele>174.16666666666669</ele><time>2026-03-29T14:00:21.456Z</time></trkpt><trkpt lat="40.4824817" lon="16.6825617"><ele>172.0</ele><time>2026-03-29T14:00:22.457Z</time></trkpt><trkpt lat="40.4825583" lon="16.6825967"><ele>172.0</ele><time>2026-03-29T14:00:23.467Z</time></trkpt><trkpt lat="40.4826267" lon="16.682555"><ele>172.0</ele><time>2026-03-29T14:00:24.467Z</time></trkpt><trkpt lat="40.48267" lon="16.68243"><ele>172.0</ele><time>2026-03-29T14:00:25.469Z</time></trkpt><trkpt lat="40.4826833" lon="16.6822533"><ele>172.0</ele><time>2026-03-29T14:00:26.471Z</time></trkpt><trkpt lat="40.48267" lon="16.6820617"><ele>173.5</ele><time>2026-03-29T14:00:27.469Z</time></trkpt><trkpt lat="40.4826483" lon="16.6818617"><ele>175.0</ele><time>2026-03-29T14:00:28.467Z</time></trkpt><trkpt lat="40.4826283" lon="16.6816667"><ele>176.5</ele><time>2026-03-29T14:00:29.469Z</time></trkpt><trkpt lat="40.482625" lon="16.6814783"><ele>178.0</ele><time>2026-03-29T14:00:30.472Z</time></trkpt><trkpt lat="40.4826433" lon="16.6812967"><ele>178.0</ele><time>2026-03-29T14:00:31.471Z</time></trkpt><trkpt lat="40.482685" lon="16.6811083"><ele>178.0</ele><time>2026-03-29T14:00:32.472Z</time></trkpt><trkpt lat="40.4827367" lon="16.68091"><ele>178.0</ele><time>2026-03-29T14:00:33.469Z</time></trkpt><trkpt lat="40.4828067" lon="16.6806917"><ele>180.33333333333334</ele><time>2026-03-29T14:00:34.469Z</time></trkpt><trkpt lat="40.48287" lon="16.6804583"><ele>182.66666666666666</ele><time>2026-03-29T14:00:35.466Z</time></trkpt><trkpt lat="40.4829267" lon="16.6802183"><ele>185.0</ele><time>2026-03-29T14:00:36.469Z</time></trkpt><trkpt lat="40.4829817" lon="16.6799717"><ele>177.0</ele><time>2026-03-29T14:00:37.471Z</time></trkpt><trkpt lat="40.4830483" lon="16.6797217"><ele>169.0</ele><time>2026-03-29T14:00:38.469Z</time></trkpt><trkpt lat="40.4831017" lon="16.6794817"><ele>161.0</ele><time>2026-03-29T14:00:39.47Z</time></trkpt><trkpt lat="40.4831417" lon="16.6792483"><ele>161.0</ele><time>2026-03-29T14:00:40.465Z</time></trkpt><trkpt lat="40.4831733" lon="16.6790283"><ele>161.0</ele><time>2026-03-29T14:00:41.468Z</time></trkpt><trkpt lat="40.4831983" lon="16.67882"><ele>161.0</ele><time>2026-03-29T14:00:42.469Z</time></trkpt><trkpt lat="40.4832267" lon="16.6786183"><ele>162.33333333333331</ele><time>2026-03-29T14:00:43.458Z</time></trkpt><trkpt lat="40.483265" lon="16.678425"><ele>163.66666666666666</ele><time>2026-03-29T14:00:44.458Z</time></trkpt><trkpt lat="40.483335" lon="16.6782333"><ele>165.0</ele><time>2026-03-29T14:00:45.469Z</time></trkpt><trkpt lat="40.4834133" lon="16.6780533"><ele>165.0</ele><time>2026-03-29T14:00:46.467Z</time></trkpt><trkpt lat="40.4835017" lon="16.677875"><ele>165.0</ele><time>2026-03-29T14:00:47.468Z</time></trkpt><trkpt lat="40.4835867" lon="16.6777033"><ele>165.0</ele><time>2026-03-29T14:00:48.47Z</time></trkpt><trkpt lat="40.483675" lon="16.677525"><ele>166.33333333333334</ele><time>2026-03-29T14:00:49.469Z</time></trkpt><trkpt lat="40.4837383" lon="16.6773383"><ele>167.66666666666669</ele><time>2026-03-29T14:00:50.47Z</time></trkpt><trkpt lat="40.48379" lon="16.677145"><ele>169.0</ele><time>2026-03-29T14:00:51.465Z</time></trkpt><trkpt lat="40.48384" lon="16.6769717"><ele>162.66666666666669</ele><time>2026-03-29T14:00:52.467Z</time></trkpt><trkpt lat="40.48391" lon="16.6768083"><ele>156.33333333333334</ele><time>2026-03-29T14:00:53.468Z</time></trkpt><trkpt lat="40.48401" lon="16.676655"><ele>150.0</ele><time>2026-03-29T14:00:54.47Z</time></trkpt><trkpt lat="40.4841367" lon="16.6765117"><ele>150.0</ele><time>2026-03-29T14:00:55.47Z</time></trkpt><trkpt lat="40.4842717" lon="16.6763683"><ele>150.0</ele><time>2026-03-29T14:00:56.471Z</time></trkpt><trkpt lat="40.4844133" lon="16.6762183"><ele>150.0</ele><time>2026-03-29T14:00:57.466Z</time></trkpt><trkpt lat="40.484545" lon="16.6760633"><ele>146.66666666666666</ele><time>2026-03-29T14:00:58.468Z</time></trkpt><trkpt lat="40.4846567" lon="16.6759033"><ele>143.33333333333331</ele><time>2026-03-29T14:00:59.467Z</time></trkpt><trkpt lat="40.4847567" lon="16.6757433"><ele>140.0</ele><time>2026-03-29T14:01:00.468Z</time></trkpt><trkpt lat="40.4848467" lon="16.675605"><ele>140.0</ele><time>2026-03-29T14:01:01.466Z</time></trkpt><trkpt lat="40.4849283" lon="16.6755"><ele>140.0</ele><time>2026-03-29T14:01:02.47Z</time></trkpt><trkpt lat="40.4850183" lon="16.6754283"><ele>140.0</ele><time>2026-03-29T14:01:03.468Z</time></trkpt><trkpt lat="40.4851217" lon="16.6753983"><ele>140.0</ele><time>2026-03-29T14:01:04.468Z</time></trkpt><trkpt lat="40.4852367" lon="16.6754167"><ele>140.0</ele><time>2026-03-29T14:01:05.46Z</time></trkpt><trkpt lat="40.4853567" lon="16.6754633"><ele>137.5</ele><time>2026-03-29T14:01:06.469Z</time></trkpt><trkpt lat="40.485485" lon="16.67552"><ele>135.0</ele><time>2026-03-29T14:01:07.471Z</time></trkpt><trkpt lat="40.4856183" lon="16.6755567"><ele>132.5</ele><time>2026-03-29T14:01:08.472Z</time></trkpt><trkpt lat="40.48575" lon="16.6755583"><ele>130.0</ele><time>2026-03-29T14:01:09.469Z</time></trkpt><trkpt lat="40.4858667" lon="16.6755333"><ele>130.0</ele><time>2026-03-29T14:01:10.469Z</time></trkpt><trkpt lat="40.4859667" lon="16.675475"><ele>130.0</ele><time>2026-03-29T14:01:11.47Z</time></trkpt><trkpt lat="40.4860417" lon="16.67538"><ele>130.0</ele><time>2026-03-29T14:01:12.466Z</time></trkpt><trkpt lat="40.486075" lon="16.6752533"><ele>130.0</ele><time>2026-03-29T14:01:13.47Z</time></trkpt><trkpt lat="40.4860683" lon="16.67511"><ele>130.0</ele><time>2026-03-29T14:01:14.472Z</time></trkpt><trkpt lat="40.48606" lon="16.674965"><ele>131.75</ele><time>2026-03-29T14:01:15.468Z</time></trkpt><trkpt lat="40.4860667" lon="16.67482"><ele>133.5</ele><time>2026-03-29T14:01:16.464Z</time></trkpt><trkpt lat="40.4861133" lon="16.6746717"><ele>135.25</ele><time>2026-03-29T14:01:17.463Z</time></trkpt><trkpt lat="40.4861633" lon="16.674515"><ele>137.0</ele><time>2026-03-29T14:01:18.462Z</time></trkpt><trkpt lat="40.4862" lon="16.6743283"><ele>137.33333333333331</ele><time>2026-03-29T14:01:19.464Z</time></trkpt><trkpt lat="40.4862233" lon="16.67412"><ele>137.66666666666666</ele><time>2026-03-29T14:01:20.467Z</time></trkpt><trkpt lat="40.4862433" lon="16.6739"><ele>138.0</ele><time>2026-03-29T14:01:21.469Z</time></trkpt><trkpt lat="40.48626" lon="16.673675"><ele>131.66666666666666</ele><time>2026-03-29T14:01:22.465Z</time></trkpt><trkpt lat="40.4862783" lon="16.673455"><ele>125.33333333333333</ele><time>2026-03-29T14:01:23.467Z</time></trkpt><trkpt lat="40.486295" lon="16.673245"><ele>119.0</ele><time>2026-03-29T14:01:24.469Z</time></trkpt><trkpt lat="40.4863067" lon="16.6730367"><ele>119.0</ele><time>2026-03-29T14:01:25.47Z</time></trkpt><trkpt lat="40.4863" lon="16.6728233"><ele>119.0</ele><time>2026-03-29T14:01:26.471Z</time></trkpt><trkpt lat="40.4862683" lon="16.6725967"><ele>119.0</ele><time>2026-03-29T14:01:27.459Z</time></trkpt><trkpt lat="40.4862133" lon="16.6723617"><ele>121.66666666666666</ele><time>2026-03-29T14:01:28.467Z</time></trkpt><trkpt lat="40.4861417" lon="16.67212"><ele>124.33333333333334</ele><time>2026-03-29T14:01:29.47Z</time></trkpt><trkpt lat="40.4860683" lon="16.6718817"><ele>127.0</ele><time>2026-03-29T14:01:30.47Z</time></trkpt><trkpt lat="40.4859983" lon="16.6716483"><ele>127.0</ele><time>2026-03-29T14:01:31.47Z</time></trkpt><trkpt lat="40.4859333" lon="16.6714267"><ele>127.0</ele><time>2026-03-29T14:01:32.47Z</time></trkpt><trkpt lat="40.48587" lon="16.6712167"><ele>127.0</ele><time>2026-03-29T14:01:33.469Z</time></trkpt><trkpt lat="40.4858083" lon="16.67101"><ele>123.0</ele><time>2026-03-29T14:01:34.468Z</time></trkpt><trkpt lat="40.48574" lon="16.670815"><ele>119.0</ele><time>2026-03-29T14:01:35.466Z</time></trkpt><trkpt lat="40.4856717" lon="16.6706383"><ele>115.0</ele><time>2026-03-29T14:01:36.469Z</time></trkpt><trkpt lat="40.4856133" lon="16.67045"><ele>113.33333333333334</ele><time>2026-03-29T14:01:37.465Z</time></trkpt><trkpt lat="40.4855683" lon="16.6702367"><ele>111.66666666666666</ele><time>2026-03-29T14:01:38.467Z</time></trkpt><trkpt lat="40.4855467" lon="16.67002"><ele>110.0</ele><time>2026-03-29T14:01:39.464Z</time></trkpt><trkpt lat="40.4855367" lon="16.669815"><ele>110.0</ele><time>2026-03-29T14:01:40.465Z</time></trkpt><trkpt lat="40.4855333" lon="16.6696167"><ele>110.0</ele><time>2026-03-29T14:01:41.467Z</time></trkpt><trkpt lat="40.4855483" lon="16.6694133"><ele>110.0</ele><time>2026-03-29T14:01:42.471Z</time></trkpt><trkpt lat="40.4855833" lon="16.66921"><ele>109.75</ele><time>2026-03-29T14:01:43.471Z</time></trkpt><trkpt lat="40.48563" lon="16.669015"><ele>109.5</ele><time>2026-03-29T14:01:44.471Z</time></trkpt><trkpt lat="40.4856833" lon="16.6688333"><ele>109.25</ele><time>2026-03-29T14:01:45.47Z</time></trkpt><trkpt lat="40.48575" lon="16.66867"><ele>109.0</ele><time>2026-03-29T14:01:46.471Z</time></trkpt><trkpt lat="40.4858617" lon="16.6685233"><ele>110.33333333333334</ele><time>2026-03-29T14:01:47.465Z</time></trkpt><trkpt lat="40.486" lon="16.6684017"><ele>111.66666666666666</ele><time>2026-03-29T14:01:48.469Z</time></trkpt><trkpt lat="40.4861617" lon="16.6682917"><ele>113.0</ele><time>2026-03-29T14:01:49.459Z</time></trkpt><trkpt lat="40.4863333" lon="16.6681817"><ele>107.66666666666666</ele><time>2026-03-29T14:01:50.47Z</time></trkpt><trkpt lat="40.486495" lon="16.668075"><ele>102.33333333333334</ele><time>2026-03-29T14:01:51.467Z</time></trkpt><trkpt lat="40.4866483" lon="16.6679717"><ele>97.0</ele><time>2026-03-29T14:01:52.468Z</time></trkpt><trkpt lat="40.4867883" lon="16.667875"><ele>97.0</ele><time>2026-03-29T14:01:53.47Z</time></trkpt><trkpt lat="40.48692" lon="16.667785"><ele>97.0</ele><time>2026-03-29T14:01:54.469Z</time></trkpt><trkpt lat="40.48704" lon="16.6676933"><ele>97.0</ele><time>2026-03-29T14:01:55.469Z</time></trkpt><trkpt lat="40.4871383" lon="16.6675817"><ele>97.0</ele><time>2026-03-29T14:01:56.469Z</time></trkpt><trkpt lat="40.487215" lon="16.667425"><ele>95.5</ele><time>2026-03-29T14:01:57.469Z</time></trkpt><trkpt lat="40.4872733" lon="16.66724"><ele>94.0</ele><time>2026-03-29T14:01:58.469Z</time></trkpt><trkpt lat="40.487325" lon="16.6670633"><ele>92.5</ele><time>2026-03-29T14:01:59.467Z</time></trkpt><trkpt lat="40.4873817" lon="16.6669033"><ele>91.0</ele><time>2026-03-29T14:02:00.472Z</time></trkpt><trkpt lat="40.4874533" lon="16.6667583"><ele>91.0</ele><time>2026-03-29T14:02:01.473Z</time></trkpt><trkpt lat="40.4875667" lon="16.6666283"><ele>91.0</ele><time>2026-03-29T14:02:02.471Z</time></trkpt><trkpt lat="40.4876983" lon="16.66652"><ele>91.0</ele><time>2026-03-29T14:02:03.47Z</time></trkpt><trkpt lat="40.4878333" lon="16.6664167"><ele>89.5</ele><time>2026-03-29T14:02:04.469Z</time></trkpt><trkpt lat="40.48796" lon="16.6663167"><ele>88.0</ele><time>2026-03-29T14:02:05.469Z</time></trkpt><trkpt lat="40.4880633" lon="16.6662133"><ele>86.5</ele><time>2026-03-29T14:02:06.465Z</time></trkpt><trkpt lat="40.4881417" lon="16.6660933"><ele>85.0</ele><time>2026-03-29T14:02:07.47Z</time></trkpt><trkpt lat="40.4881817" lon="16.6659483"><ele>85.0</ele><time>2026-03-29T14:02:08.47Z</time></trkpt><trkpt lat="40.4882083" lon="16.6657983"><ele>85.0</ele><time>2026-03-29T14:02:09.469Z</time></trkpt><trkpt lat="40.4882367" lon="16.6656683"><ele>85.0</ele><time>2026-03-29T14:02:10.457Z</time></trkpt><trkpt lat="40.4882883" lon="16.66557"><ele>85.0</ele><time>2026-03-29T14:02:11.457Z</time></trkpt><trkpt lat="40.488365" lon="16.665515"><ele>85.0</ele><time>2026-03-29T14:02:12.465Z</time></trkpt><trkpt lat="40.4884617" lon="16.6655133"><ele>85.0</ele><time>2026-03-29T14:02:13.467Z</time></trkpt><trkpt lat="40.4885717" lon="16.6655517"><ele>85.0</ele><time>2026-03-29T14:02:14.467Z</time></trkpt><trkpt lat="40.48869" lon="16.66559"><ele>85.0</ele><time>2026-03-29T14:02:15.468Z</time></trkpt><trkpt lat="40.4888167" lon="16.6656117"><ele>85.0</ele><time>2026-03-29T14:02:16.468Z</time></trkpt><trkpt lat="40.488935" lon="16.6656217"><ele>84.4</ele><time>2026-03-29T14:02:17.468Z</time></trkpt><trkpt lat="40.48904" lon="16.6655983"><ele>83.8</ele><time>2026-03-29T14:02:18.469Z</time></trkpt><trkpt lat="40.4891183" lon="16.6655267"><ele>83.19999999999999</ele><time>2026-03-29T14:02:19.467Z</time></trkpt><trkpt lat="40.4891617" lon="16.66541"><ele>82.6</ele><time>2026-03-29T14:02:20.469Z</time></trkpt><trkpt lat="40.4891633" lon="16.6652667"><ele>82.0</ele><time>2026-03-29T14:02:21.468Z</time></trkpt><trkpt lat="40.4891617" lon="16.665115"><ele>82.0</ele><time>2026-03-29T14:02:22.465Z</time></trkpt><trkpt lat="40.4891783" lon="16.66496"><ele>82.0</ele><time>2026-03-29T14:02:23.466Z</time></trkpt><trkpt lat="40.4892433" lon="16.66481"><ele>82.0</ele><time>2026-03-29T14:02:24.464Z</time></trkpt><trkpt lat="40.4893183" lon="16.6646683"><ele>82.0</ele><time>2026-03-29T14:02:25.466Z</time></trkpt><trkpt lat="40.4893717" lon="16.6645233"><ele>82.25</ele><time>2026-03-29T14:02:26.468Z</time></trkpt><trkpt lat="40.48941" lon="16.6643883"><ele>82.5</ele><time>2026-03-29T14:02:27.47Z</time></trkpt><trkpt lat="40.489465" lon="16.6642733"><ele>82.75</ele><time>2026-03-29T14:02:28.466Z</time></trkpt><trkpt lat="40.4895633" lon="16.6641833"><ele>83.0</ele><time>2026-03-29T14:02:29.467Z</time></trkpt><trkpt lat="40.4897017" lon="16.6641317"><ele>79.0</ele><time>2026-03-29T14:02:30.465Z</time></trkpt><trkpt lat="40.4898583" lon="16.6641133"><ele>75.0</ele><time>2026-03-29T14:02:31.467Z</time></trkpt><trkpt lat="40.4900133" lon="16.66411"><ele>71.0</ele><time>2026-03-29T14:02:32.457Z</time></trkpt><trkpt lat="40.4901633" lon="16.6641183"><ele>71.0</ele><time>2026-03-29T14:02:33.459Z</time></trkpt><trkpt lat="40.4903067" lon="16.6641567"><ele>71.0</ele><time>2026-03-29T14:02:34.468Z</time></trkpt><trkpt lat="40.4904467" lon="16.66423"><ele>71.0</ele><time>2026-03-29T14:02:35.471Z</time></trkpt><trkpt lat="40.49059" lon="16.6643267"><ele>70.33333333333334</ele><time>2026-03-29T14:02:36.473Z</time></trkpt><trkpt lat="40.4907417" lon="16.6644067"><ele>69.66666666666667</ele><time>2026-03-29T14:02:37.47Z</time></trkpt><trkpt lat="40.4909017" lon="16.6644733"><ele>69.0</ele><time>2026-03-29T14:02:38.471Z</time></trkpt><trkpt lat="40.4910633" lon="16.6645333"><ele>64.66666666666667</ele><time>2026-03-29T14:02:39.47Z</time></trkpt><trkpt lat="40.4912283" lon="16.6645883"><ele>60.333333333333336</ele><time>2026-03-29T14:02:40.47Z</time></trkpt><trkpt lat="40.4913967" lon="16.6646433"><ele>56.0</ele><time>2026-03-29T14:02:41.472Z</time></trkpt><trkpt lat="40.4915683" lon="16.6647"><ele>55.333333333333336</ele><time>2026-03-29T14:02:42.473Z</time></trkpt><trkpt lat="40.491745" lon="16.66476"><ele>54.66666666666667</ele><time>2026-03-29T14:02:43.471Z</time></trkpt><trkpt lat="40.4919233" lon="16.6648233"><ele>54.0</ele><time>2026-03-29T14:02:44.473Z</time></trkpt><trkpt lat="40.4921133" lon="16.6648933"><ele>51.666666666666664</ele><time>2026-03-29T14:02:45.47Z</time></trkpt><trkpt lat="40.4923133" lon="16.66497"><ele>49.33333333333333</ele><time>2026-03-29T14:02:46.468Z</time></trkpt><trkpt lat="40.492515" lon="16.6650633"><ele>47.0</ele><time>2026-03-29T14:02:47.468Z</time></trkpt><trkpt lat="40.4927067" lon="16.6651717"><ele>46.0</ele><time>2026-03-29T14:02:48.466Z</time></trkpt><trkpt lat="40.4928833" lon="16.6652867"><ele>45.0</ele><time>2026-03-29T14:02:49.468Z</time></trkpt><trkpt lat="40.4930483" lon="16.6653933"><ele>44.0</ele><time>2026-03-29T14:02:50.473Z</time></trkpt><trkpt lat="40.4932" lon="16.66549"><ele>44.0</ele><time>2026-03-29T14:02:51.47Z</time></trkpt><trkpt lat="40.49334" lon="16.6655833"><ele>44.0</ele><time>2026-03-29T14:02:52.47Z</time></trkpt><trkpt lat="40.493465" lon="16.665675"><ele>44.0</ele><time>2026-03-29T14:02:53.468Z</time></trkpt><trkpt lat="40.4935683" lon="16.6657783"><ele>44.0</ele><time>2026-03-29T14:02:54.458Z</time></trkpt><trkpt lat="40.4936517" lon="16.6659067"><ele>44.0</ele><time>2026-03-29T14:02:55.459Z</time></trkpt><trkpt lat="40.4937" lon="16.6660567"><ele>44.0</ele><time>2026-03-29T14:02:56.472Z</time></trkpt><trkpt lat="40.49371" lon="16.6662183"><ele>44.0</ele><time>2026-03-29T14:02:57.474Z</time></trkpt><trkpt lat="40.4936783" lon="16.6663733"><ele>44.0</ele><time>2026-03-29T14:02:58.471Z</time></trkpt><trkpt lat="40.493615" lon="16.66652"><ele>44.0</ele><time>2026-03-29T14:02:59.473Z</time></trkpt><trkpt lat="40.4935217" lon="16.666635"><ele>44.0</ele><time>2026-03-29T14:03:00.473Z</time></trkpt><trkpt lat="40.493405" lon="16.66671"><ele>44.0</ele><time>2026-03-29T14:03:01.471Z</time></trkpt><trkpt lat="40.4932767" lon="16.6667333"><ele>44.0</ele><time>2026-03-29T14:03:02.473Z</time></trkpt><trkpt lat="40.4931517" lon="16.66671"><ele>44.0</ele><time>2026-03-29T14:03:03.472Z</time></trkpt><trkpt lat="40.49304" lon="16.66664"><ele>44.0</ele><time>2026-03-29T14:03:04.468Z</time></trkpt><trkpt lat="40.4929533" lon="16.66653"><ele>44.0</ele><time>2026-03-29T14:03:05.473Z</time></trkpt><trkpt lat="40.4929017" lon="16.6663883"><ele>44.0</ele><time>2026-03-29T14:03:06.473Z</time></trkpt><trkpt lat="40.4928817" lon="16.6662317"><ele>44.0</ele><time>2026-03-29T14:03:07.473Z</time></trkpt><trkpt lat="40.4928967" lon="16.6660617"><ele>44.0</ele><time>2026-03-29T14:03:08.473Z</time></trkpt><trkpt lat="40.492945" lon="16.665885"><ele>44.0</ele><time>2026-03-29T14:03:09.471Z</time></trkpt><trkpt lat="40.4930117" lon="16.665695"><ele>44.0</ele><time>2026-03-29T14:03:10.471Z</time></trkpt><trkpt lat="40.493085" lon="16.6654983"><ele>44.0</ele><time>2026-03-29T14:03:11.474Z</time></trkpt><trkpt lat="40.4931667" lon="16.66529"><ele>44.0</ele><time>2026-03-29T14:03:12.473Z</time></trkpt><trkpt lat="40.4932517" lon="16.6650783"><ele>44.0</ele><time>2026-03-29T14:03:13.471Z</time></trkpt><trkpt lat="40.4933433" lon="16.664865"><ele>44.33333333333333</ele><time>2026-03-29T14:03:14.471Z</time></trkpt><trkpt lat="40.49344" lon="16.664645"><ele>44.666666666666664</ele><time>2026-03-29T14:03:15.47Z</time></trkpt><trkpt lat="40.4935417" lon="16.66442"><ele>45.0</ele><time>2026-03-29T14:03:16.457Z</time></trkpt><trkpt lat="40.4936467" lon="16.664195"><ele>45.0</ele><time>2026-03-29T14:03:17.459Z</time></trkpt><trkpt lat="40.4937567" lon="16.6639733"><ele>45.0</ele><time>2026-03-29T14:03:18.468Z</time></trkpt><trkpt lat="40.4938783" lon="16.6637533"><ele>45.0</ele><time>2026-03-29T14:03:19.471Z</time></trkpt><trkpt lat="40.4940067" lon="16.663535"><ele>45.0</ele><time>2026-03-29T14:03:20.473Z</time></trkpt><trkpt lat="40.49414" lon="16.66332"><ele>45.0</ele><time>2026-03-29T14:03:21.468Z</time></trkpt><trkpt lat="40.4942767" lon="16.6631117"><ele>45.0</ele><time>2026-03-29T14:03:22.469Z</time></trkpt><trkpt lat="40.494415" lon="16.662905"><ele>45.0</ele><time>2026-03-29T14:03:23.469Z</time></trkpt><trkpt lat="40.4945583" lon="16.6627033"><ele>45.0</ele><time>2026-03-29T14:03:24.468Z</time></trkpt><trkpt lat="40.494705" lon="16.6625067"><ele>45.0</ele><time>2026-03-29T14:03:25.472Z</time></trkpt><trkpt lat="40.4948533" lon="16.662315"><ele>45.0</ele><time>2026-03-29T14:03:26.472Z</time></trkpt><trkpt lat="40.4950017" lon="16.66213"><ele>45.0</ele><time>2026-03-29T14:03:27.47Z</time></trkpt><trkpt lat="40.495155" lon="16.66195"><ele>45.0</ele><time>2026-03-29T14:03:28.47Z</time></trkpt><trkpt lat="40.4953083" lon="16.6617767"><ele>45.333333333333336</ele><time>2026-03-29T14:03:29.472Z</time></trkpt><trkpt lat="40.49547" lon="16.6616083"><ele>45.66666666666667</ele><time>2026-03-29T14:03:30.472Z</time></trkpt><trkpt lat="40.49563" lon="16.6614433"><ele>46.0</ele><time>2026-03-29T14:03:31.47Z</time></trkpt><trkpt lat="40.495795" lon="16.66128"><ele>46.0</ele><time>2026-03-29T14:03:32.473Z</time></trkpt><trkpt lat="40.4959667" lon="16.6611217"><ele>46.0</ele><time>2026-03-29T14:03:33.47Z</time></trkpt><trkpt lat="40.4961367" lon="16.660965"><ele>46.0</ele><time>2026-03-29T14:03:34.471Z</time></trkpt><trkpt lat="40.4963117" lon="16.660815"><ele>46.333333333333336</ele><time>2026-03-29T14:03:35.473Z</time></trkpt><trkpt lat="40.4964883" lon="16.6606667"><ele>46.666666666666664</ele><time>2026-03-29T14:03:36.472Z</time></trkpt><trkpt lat="40.4966683" lon="16.6605183"><ele>47.0</ele><time>2026-03-29T14:03:37.469Z</time></trkpt><trkpt lat="40.49685" lon="16.6603717"><ele>47.666666666666664</ele><time>2026-03-29T14:03:38.459Z</time></trkpt><trkpt lat="40.4970417" lon="16.660225"><ele>48.33333333333333</ele><time>2026-03-29T14:03:39.467Z</time></trkpt><trkpt lat="40.4972317" lon="16.6600817"><ele>49.0</ele><time>2026-03-29T14:03:40.468Z</time></trkpt><trkpt lat="40.4974217" lon="16.6599383"><ele>49.0</ele><time>2026-03-29T14:03:41.47Z</time></trkpt><trkpt lat="40.49761" lon="16.6597933"><ele>49.0</ele><time>2026-03-29T14:03:42.472Z</time></trkpt><trkpt lat="40.4977983" lon="16.6596483"><ele>49.0</ele><time>2026-03-29T14:03:43.467Z</time></trkpt><trkpt lat="40.497985" lon="16.659505"><ele>48.33333333333333</ele><time>2026-03-29T14:03:44.472Z</time></trkpt><trkpt lat="40.4981717" lon="16.6593617"><ele>47.666666666666664</ele><time>2026-03-29T14:03:45.469Z</time></trkpt><trkpt lat="40.49836" lon="16.65922"><ele>47.0</ele><time>2026-03-29T14:03:46.469Z</time></trkpt><trkpt lat="40.498545" lon="16.65908"><ele>47.0</ele><time>2026-03-29T14:03:47.471Z</time></trkpt><trkpt lat="40.49873" lon="16.6589433"><ele>47.0</ele><time>2026-03-29T14:03:48.475Z</time></trkpt><trkpt lat="40.4989117" lon="16.6588067"><ele>47.0</ele><time>2026-03-29T14:03:49.469Z</time></trkpt><trkpt lat="40.4990933" lon="16.6586683"><ele>46.666666666666664</ele><time>2026-03-29T14:03:50.471Z</time></trkpt><trkpt lat="40.4992717" lon="16.6585283"><ele>46.333333333333336</ele><time>2026-03-29T14:03:51.47Z</time></trkpt><trkpt lat="40.4994467" lon="16.6583833"><ele>46.0</ele><time>2026-03-29T14:03:52.469Z</time></trkpt><trkpt lat="40.4996217" lon="16.6582333"><ele>46.66666666666667</ele><time>2026-03-29T14:03:53.466Z</time></trkpt><trkpt lat="40.4997933" lon="16.6580817"><ele>47.333333333333336</ele><time>2026-03-29T14:03:54.47Z</time></trkpt><trkpt lat="40.4999617" lon="16.6579233"><ele>48.0</ele><time>2026-03-29T14:03:55.471Z</time></trkpt><trkpt lat="40.500125" lon="16.6577617"><ele>48.0</ele><time>2026-03-29T14:03:56.473Z</time></trkpt><trkpt lat="40.5002867" lon="16.6575967"><ele>48.0</ele><time>2026-03-29T14:03:57.467Z</time></trkpt><trkpt lat="40.5004433" lon="16.6574283"><ele>48.0</ele><time>2026-03-29T14:03:58.47Z</time></trkpt><trkpt lat="40.5005967" lon="16.6572533"><ele>48.0</ele><time>2026-03-29T14:03:59.473Z</time></trkpt><trkpt lat="40.50075" lon="16.6570717"><ele>48.0</ele><time>2026-03-29T14:04:00.459Z</time></trkpt><trkpt lat="40.5008983" lon="16.6568867"><ele>48.0</ele><time>2026-03-29T14:04:01.471Z</time></trkpt><trkpt lat="40.5010433" lon="16.6566967"><ele>48.0</ele><time>2026-03-29T14:04:02.471Z</time></trkpt><trkpt lat="40.5011867" lon="16.6565"><ele>48.0</ele><time>2026-03-29T14:04:03.47Z</time></trkpt><trkpt lat="40.5013217" lon="16.6563"><ele>48.0</ele><time>2026-03-29T14:04:04.469Z</time></trkpt><trkpt lat="40.5014533" lon="16.6560933"><ele>48.0</ele><time>2026-03-29T14:04:05.47Z</time></trkpt><trkpt lat="40.5015817" lon="16.6558833"><ele>48.0</ele><time>2026-03-29T14:04:06.47Z</time></trkpt><trkpt lat="40.501705" lon="16.65567"><ele>48.0</ele><time>2026-03-29T14:04:07.471Z</time></trkpt><trkpt lat="40.5018267" lon="16.6554533"><ele>48.0</ele><time>2026-03-29T14:04:08.474Z</time></trkpt><trkpt lat="40.5019467" lon="16.6552317"><ele>48.0</ele><time>2026-03-29T14:04:09.47Z</time></trkpt><trkpt lat="40.5020633" lon="16.6550083"><ele>48.0</ele><time>2026-03-29T14:04:10.47Z</time></trkpt><trkpt lat="40.502175" lon="16.6547833"><ele>48.0</ele><time>2026-03-29T14:04:11.472Z</time></trkpt><trkpt lat="40.5022867" lon="16.65456"><ele>48.0</ele><time>2026-03-29T14:04:12.475Z</time></trkpt><trkpt lat="40.5023967" lon="16.6543367"><ele>48.0</ele><time>2026-03-29T14:04:13.471Z</time></trkpt><trkpt lat="40.5025033" lon="16.654115"><ele>48.66666666666667</ele><time>2026-03-29T14:04:14.473Z</time></trkpt><trkpt lat="40.5026067" lon="16.6538933"><ele>49.333333333333336</ele><time>2026-03-29T14:04:15.469Z</time></trkpt><trkpt lat="40.5027083" lon="16.65367"><ele>50.0</ele><time>2026-03-29T14:04:16.469Z</time></trkpt><trkpt lat="40.5028133" lon="16.653445"><ele>50.0</ele><time>2026-03-29T14:04:17.467Z</time></trkpt><trkpt lat="40.50292" lon="16.6532217"><ele>50.0</ele><time>2026-03-29T14:04:18.472Z</time></trkpt><trkpt lat="40.5030283" lon="16.653"><ele>50.0</ele><time>2026-03-29T14:04:19.471Z</time></trkpt><trkpt lat="40.5031383" lon="16.6527767"><ele>50.0</ele><time>2026-03-29T14:04:20.472Z</time></trkpt><trkpt lat="40.503245" lon="16.6525567"><ele>50.0</ele><time>2026-03-29T14:04:21.46Z</time></trkpt><trkpt lat="40.5033533" lon="16.652335"><ele>50.0</ele><time>2026-03-29T14:04:22.459Z</time></trkpt><trkpt lat="40.50346" lon="16.6521167"><ele>50.333333333333336</ele><time>2026-03-29T14:04:23.47Z</time></trkpt><trkpt lat="40.5035683" lon="16.6518983"><ele>50.66666666666667</ele><time>2026-03-29T14:04:24.467Z</time></trkpt><trkpt lat="40.5036733" lon="16.6516817"><ele>51.0</ele><time>2026-03-29T14:04:25.466Z</time></trkpt><trkpt lat="40.503775" lon="16.6514633"><ele>50.33333333333333</ele><time>2026-03-29T14:04:26.473Z</time></trkpt><trkpt lat="40.5038767" lon="16.6512483"><ele>49.666666666666664</ele><time>2026-03-29T14:04:27.47Z</time></trkpt><trkpt lat="40.503985" lon="16.6510317"><ele>49.0</ele><time>2026-03-29T14:04:28.471Z</time></trkpt><trkpt lat="40.5041" lon="16.6508133"><ele>49.0</ele><time>2026-03-29T14:04:29.471Z</time></trkpt><trkpt lat="40.5042117" lon="16.6505983"><ele>49.0</ele><time>2026-03-29T14:04:30.469Z</time></trkpt><trkpt lat="40.5043267" lon="16.6503817"><ele>49.0</ele><time>2026-03-29T14:04:31.47Z</time></trkpt><trkpt lat="40.5044367" lon="16.650165"><ele>48.666666666666664</ele><time>2026-03-29T14:04:32.473Z</time></trkpt><trkpt lat="40.50455" lon="16.6499483"><ele>48.33333333333333</ele><time>2026-03-29T14:04:33.468Z</time></trkpt><trkpt lat="40.5046633" lon="16.6497317"><ele>48.0</ele><time>2026-03-29T14:04:34.469Z</time></trkpt><trkpt lat="40.5047783" lon="16.6495183"><ele>48.0</ele><time>2026-03-29T14:04:35.47Z</time></trkpt><trkpt lat="40.5048967" lon="16.6493067"><ele>48.0</ele><time>2026-03-29T14:04:36.47Z</time></trkpt><trkpt lat="40.5050167" lon="16.6490967"><ele>48.0</ele><time>2026-03-29T14:04:37.464Z</time></trkpt><trkpt lat="40.505135" lon="16.6488867"><ele>48.0</ele><time>2026-03-29T14:04:38.471Z</time></trkpt><trkpt lat="40.5052533" lon="16.6486783"><ele>48.0</ele><time>2026-03-29T14:04:39.47Z</time></trkpt><trkpt lat="40.5053717" lon="16.64847"><ele>48.0</ele><time>2026-03-29T14:04:40.47Z</time></trkpt><trkpt lat="40.5054933" lon="16.6482633"><ele>48.0</ele><time>2026-03-29T14:04:41.47Z</time></trkpt><trkpt lat="40.5056167" lon="16.64806"><ele>48.0</ele><time>2026-03-29T14:04:42.466Z</time></trkpt><trkpt lat="40.5057417" lon="16.6478583"><ele>48.0</ele><time>2026-03-29T14:04:43.458Z</time></trkpt><trkpt lat="40.505865" lon="16.64766"><ele>48.33333333333333</ele><time>2026-03-29T14:04:44.459Z</time></trkpt><trkpt lat="40.505995" lon="16.6474583"><ele>48.666666666666664</ele><time>2026-03-29T14:04:45.467Z</time></trkpt><trkpt lat="40.5061233" lon="16.647255"><ele>49.0</ele><time>2026-03-29T14:04:46.469Z</time></trkpt><trkpt lat="40.5062517" lon="16.6470517"><ele>49.666666666666664</ele><time>2026-03-29T14:04:47.469Z</time></trkpt><trkpt lat="40.5063817" lon="16.6468483"><ele>50.33333333333333</ele><time>2026-03-29T14:04:48.468Z</time></trkpt><trkpt lat="40.5065167" lon="16.6466467"><ele>51.0</ele><time>2026-03-29T14:04:49.468Z</time></trkpt><trkpt lat="40.506655" lon="16.6464433"><ele>51.0</ele><time>2026-03-29T14:04:50.471Z</time></trkpt><trkpt lat="40.506795" lon="16.6462417"><ele>51.0</ele><time>2026-03-29T14:04:51.473Z</time></trkpt><trkpt lat="40.5069383" lon="16.6460367"><ele>51.0</ele><time>2026-03-29T14:04:52.466Z</time></trkpt><trkpt lat="40.507085" lon="16.64583"><ele>51.33333333333333</ele><time>2026-03-29T14:04:53.47Z</time></trkpt><trkpt lat="40.507235" lon="16.645625"><ele>51.666666666666664</ele><time>2026-03-29T14:04:54.472Z</time></trkpt><trkpt lat="40.507385" lon="16.6454217"><ele>52.0</ele><time>2026-03-29T14:04:55.47Z</time></trkpt><trkpt lat="40.5075367" lon="16.6452183"><ele>52.33333333333333</ele><time>2026-03-29T14:04:56.472Z</time></trkpt><trkpt lat="40.5076867" lon="16.6450183"><ele>52.66666666666667</ele><time>2026-03-29T14:04:57.469Z</time></trkpt><trkpt lat="40.5078367" lon="16.6448217"><ele>53.0</ele><time>2026-03-29T14:04:58.47Z</time></trkpt><trkpt lat="40.5079883" lon="16.6446233"><ele>53.0</ele><time>2026-03-29T14:04:59.47Z</time></trkpt><trkpt lat="40.50814" lon="16.6444283"><ele>53.0</ele><time>2026-03-29T14:05:00.467Z</time></trkpt><trkpt lat="40.5082917" lon="16.6442367"><ele>53.0</ele><time>2026-03-29T14:05:01.47Z</time></trkpt><trkpt lat="40.5084467" lon="16.644045"><ele>53.0</ele><time>2026-03-29T14:05:02.474Z</time></trkpt><trkpt lat="40.5086017" lon="16.6438567"><ele>53.0</ele><time>2026-03-29T14:05:03.472Z</time></trkpt><trkpt lat="40.5087583" lon="16.6436683"><ele>53.0</ele><time>2026-03-29T14:05:04.47Z</time></trkpt><trkpt lat="40.5089117" lon="16.6434817"><ele>52.66666666666667</ele><time>2026-03-29T14:05:05.458Z</time></trkpt><trkpt lat="40.50907" lon="16.6432933"><ele>52.33333333333333</ele><time>2026-03-29T14:05:06.461Z</time></trkpt><trkpt lat="40.5092317" lon="16.6431067"><ele>52.0</ele><time>2026-03-29T14:05:07.471Z</time></trkpt><trkpt lat="40.5093983" lon="16.6429217"><ele>51.666666666666664</ele><time>2026-03-29T14:05:08.472Z</time></trkpt><trkpt lat="40.5095667" lon="16.6427367"><ele>51.33333333333333</ele><time>2026-03-29T14:05:09.472Z</time></trkpt><trkpt lat="40.50973" lon="16.6425517"><ele>51.0</ele><time>2026-03-29T14:05:10.473Z</time></trkpt><trkpt lat="40.5099" lon="16.64237"><ele>50.66666666666667</ele><time>2026-03-29T14:05:11.472Z</time></trkpt><trkpt lat="40.5100733" lon="16.6421883"><ele>50.333333333333336</ele><time>2026-03-29T14:05:12.474Z</time></trkpt><trkpt lat="40.51025" lon="16.64201"><ele>50.0</ele><time>2026-03-29T14:05:13.473Z</time></trkpt><trkpt lat="40.5104283" lon="16.6418333"><ele>50.0</ele><time>2026-03-29T14:05:14.473Z</time></trkpt><trkpt lat="40.510605" lon="16.6416583"><ele>50.0</ele><time>2026-03-29T14:05:15.471Z</time></trkpt><trkpt lat="40.5107817" lon="16.6414817"><ele>50.0</ele><time>2026-03-29T14:05:16.467Z</time></trkpt><trkpt lat="40.5109633" lon="16.6413067"><ele>50.0</ele><time>2026-03-29T14:05:17.47Z</time></trkpt><trkpt lat="40.5111417" lon="16.6411333"><ele>50.0</ele><time>2026-03-29T14:05:18.469Z</time></trkpt><trkpt lat="40.5113133" lon="16.6409633"><ele>50.0</ele><time>2026-03-29T14:05:19.47Z</time></trkpt><trkpt lat="40.511485" lon="16.6407933"><ele>50.333333333333336</ele><time>2026-03-29T14:05:20.472Z</time></trkpt><trkpt lat="40.511655" lon="16.6406233"><ele>50.66666666666667</ele><time>2026-03-29T14:05:21.472Z</time></trkpt><trkpt lat="40.511825" lon="16.6404517"><ele>51.0</ele><time>2026-03-29T14:05:22.469Z</time></trkpt><trkpt lat="40.5119933" lon="16.6402833"><ele>50.33333333333333</ele><time>2026-03-29T14:05:23.468Z</time></trkpt><trkpt lat="40.5121633" lon="16.640115"><ele>49.666666666666664</ele><time>2026-03-29T14:05:24.468Z</time></trkpt><trkpt lat="40.5123333" lon="16.63995"><ele>49.0</ele><time>2026-03-29T14:05:25.471Z</time></trkpt><trkpt lat="40.5125017" lon="16.63979"><ele>49.0</ele><time>2026-03-29T14:05:26.471Z</time></trkpt><trkpt lat="40.51267" lon="16.6396283"><ele>49.0</ele><time>2026-03-29T14:05:27.458Z</time></trkpt><trkpt lat="40.5128383" lon="16.6394633"><ele>49.0</ele><time>2026-03-29T14:05:28.459Z</time></trkpt><trkpt lat="40.5130033" lon="16.6392967"><ele>49.0</ele><time>2026-03-29T14:05:29.471Z</time></trkpt><trkpt lat="40.51317" lon="16.6391317"><ele>49.0</ele><time>2026-03-29T14:05:30.469Z</time></trkpt><trkpt lat="40.5133367" lon="16.6389683"><ele>49.0</ele><time>2026-03-29T14:05:31.469Z</time></trkpt><trkpt lat="40.513505" lon="16.6388017"><ele>49.33333333333333</ele><time>2026-03-29T14:05:32.472Z</time></trkpt><trkpt lat="40.51367" lon="16.6386333"><ele>49.66666666666667</ele><time>2026-03-29T14:05:33.471Z</time></trkpt><trkpt lat="40.513845" lon="16.638465"><ele>50.0</ele><time>2026-03-29T14:05:34.469Z</time></trkpt><trkpt lat="40.5140167" lon="16.638295"><ele>50.0</ele><time>2026-03-29T14:05:35.47Z</time></trkpt><trkpt lat="40.5141933" lon="16.6381267"><ele>50.0</ele><time>2026-03-29T14:05:36.468Z</time></trkpt><trkpt lat="40.5143667" lon="16.6379567"><ele>50.0</ele><time>2026-03-29T14:05:37.471Z</time></trkpt><trkpt lat="40.51454" lon="16.6377867"><ele>50.333333333333336</ele><time>2026-03-29T14:05:38.472Z</time></trkpt><trkpt lat="40.51471" lon="16.63762"><ele>50.66666666666667</ele><time>2026-03-29T14:05:39.471Z</time></trkpt><trkpt lat="40.5148817" lon="16.637455"><ele>51.0</ele><time>2026-03-29T14:05:40.467Z</time></trkpt><trkpt lat="40.5150517" lon="16.63729"><ele>51.0</ele><time>2026-03-29T14:05:41.471Z</time></trkpt><trkpt lat="40.5152233" lon="16.6371283"><ele>51.0</ele><time>2026-03-29T14:05:42.471Z</time></trkpt><trkpt lat="40.5153983" lon="16.636965"><ele>51.0</ele><time>2026-03-29T14:05:43.47Z</time></trkpt><trkpt lat="40.5155683" lon="16.636805"><ele>51.0</ele><time>2026-03-29T14:05:44.473Z</time></trkpt><trkpt lat="40.5157317" lon="16.636645"><ele>51.0</ele><time>2026-03-29T14:05:45.47Z</time></trkpt><trkpt lat="40.5159" lon="16.6364883"><ele>51.0</ele><time>2026-03-29T14:05:46.469Z</time></trkpt><trkpt lat="40.51607" lon="16.6363333"><ele>51.66666666666667</ele><time>2026-03-29T14:05:47.471Z</time></trkpt><trkpt lat="40.51624" lon="16.6361783"><ele>52.333333333333336</ele><time>2026-03-29T14:05:48.472Z</time></trkpt><trkpt lat="40.51641" lon="16.636025"><ele>53.0</ele><time>2026-03-29T14:05:49.459Z</time></trkpt><trkpt lat="40.51658" lon="16.6358733"><ele>53.0</ele><time>2026-03-29T14:05:50.473Z</time></trkpt><trkpt lat="40.5167533" lon="16.6357217"><ele>53.0</ele><time>2026-03-29T14:05:51.47Z</time></trkpt><trkpt lat="40.5169267" lon="16.6355717"><ele>53.0</ele><time>2026-03-29T14:05:52.47Z</time></trkpt><trkpt lat="40.5171" lon="16.6354217"><ele>52.333333333333336</ele><time>2026-03-29T14:05:53.469Z</time></trkpt><trkpt lat="40.5172733" lon="16.635275"><ele>51.66666666666667</ele><time>2026-03-29T14:05:54.468Z</time></trkpt><trkpt lat="40.5174517" lon="16.6351267"><ele>51.0</ele><time>2026-03-29T14:05:55.471Z</time></trkpt><trkpt lat="40.5176267" lon="16.63498"><ele>51.0</ele><time>2026-03-29T14:05:56.471Z</time></trkpt><trkpt lat="40.517805" lon="16.6348317"><ele>51.0</ele><time>2026-03-29T14:05:57.471Z</time></trkpt><trkpt lat="40.5179867" lon="16.6346817"><ele>51.0</ele><time>2026-03-29T14:05:58.472Z</time></trkpt><trkpt lat="40.5181667" lon="16.6345283"><ele>51.0</ele><time>2026-03-29T14:05:59.472Z</time></trkpt><trkpt lat="40.5183467" lon="16.6343733"><ele>51.0</ele><time>2026-03-29T14:06:00.473Z</time></trkpt><trkpt lat="40.518525" lon="16.6342183"><ele>51.0</ele><time>2026-03-29T14:06:01.472Z</time></trkpt><trkpt lat="40.5187017" lon="16.6340617"><ele>51.0</ele><time>2026-03-29T14:06:02.471Z</time></trkpt><trkpt lat="40.5188767" lon="16.6339067"><ele>51.0</ele><time>2026-03-29T14:06:03.472Z</time></trkpt><trkpt lat="40.5190517" lon="16.6337467"><ele>51.0</ele><time>2026-03-29T14:06:04.47Z</time></trkpt><trkpt lat="40.5192283" lon="16.6335867"><ele>52.0</ele><time>2026-03-29T14:06:05.471Z</time></trkpt><trkpt lat="40.519405" lon="16.633425"><ele>53.0</ele><time>2026-03-29T14:06:06.472Z</time></trkpt><trkpt lat="40.5195783" lon="16.633265"><ele>54.0</ele><time>2026-03-29T14:06:07.47Z</time></trkpt><trkpt lat="40.5197533" lon="16.6331033"><ele>54.0</ele><time>2026-03-29T14:06:08.471Z</time></trkpt><trkpt lat="40.519925" lon="16.6329433"><ele>54.0</ele><time>2026-03-29T14:06:09.47Z</time></trkpt><trkpt lat="40.5200983" lon="16.6327783"><ele>54.0</ele><time>2026-03-29T14:06:10.47Z</time></trkpt><trkpt lat="40.5202717" lon="16.63261"><ele>53.33333333333333</ele><time>2026-03-29T14:06:11.461Z</time></trkpt><trkpt lat="40.520445" lon="16.6324433"><ele>52.666666666666664</ele><time>2026-03-29T14:06:12.469Z</time></trkpt><trkpt lat="40.520615" lon="16.6322783"><ele>52.0</ele><time>2026-03-29T14:06:13.471Z</time></trkpt><trkpt lat="40.5207883" lon="16.6321117"><ele>52.33333333333333</ele><time>2026-03-29T14:06:14.473Z</time></trkpt><trkpt lat="40.5209567" lon="16.631945"><ele>52.66666666666667</ele><time>2026-03-29T14:06:15.469Z</time></trkpt><trkpt lat="40.521125" lon="16.631775"><ele>53.0</ele><time>2026-03-29T14:06:16.469Z</time></trkpt><trkpt lat="40.5212933" lon="16.6316067"><ele>53.0</ele><time>2026-03-29T14:06:17.472Z</time></trkpt><trkpt lat="40.5214617" lon="16.6314367"><ele>53.0</ele><time>2026-03-29T14:06:18.471Z</time></trkpt><trkpt lat="40.5216283" lon="16.6312617"><ele>53.0</ele><time>2026-03-29T14:06:19.466Z</time></trkpt><trkpt lat="40.5217983" lon="16.631085"><ele>53.333333333333336</ele><time>2026-03-29T14:06:20.472Z</time></trkpt><trkpt lat="40.5219683" lon="16.630905"><ele>53.66666666666667</ele><time>2026-03-29T14:06:21.471Z</time></trkpt><trkpt lat="40.5221383" lon="16.630725"><ele>54.0</ele><time>2026-03-29T14:06:22.466Z</time></trkpt><trkpt lat="40.5223083" lon="16.63054"><ele>54.0</ele><time>2026-03-29T14:06:23.468Z</time></trkpt><trkpt lat="40.5224783" lon="16.6303583"><ele>54.0</ele><time>2026-03-29T14:06:24.469Z</time></trkpt><trkpt lat="40.52265" lon="16.6301733"><ele>54.0</ele><time>2026-03-29T14:06:25.471Z</time></trkpt><trkpt lat="40.5228183" lon="16.6299883"><ele>53.66666666666667</ele><time>2026-03-29T14:06:26.472Z</time></trkpt><trkpt lat="40.5229833" lon="16.6298017"><ele>53.333333333333336</ele><time>2026-03-29T14:06:27.472Z</time></trkpt><trkpt lat="40.52315" lon="16.629615"><ele>53.0</ele><time>2026-03-29T14:06:28.466Z</time></trkpt><trkpt lat="40.5233167" lon="16.6294283"><ele>53.0</ele><time>2026-03-29T14:06:29.469Z</time></trkpt><trkpt lat="40.52348" lon="16.62924"><ele>53.0</ele><time>2026-03-29T14:06:30.471Z</time></trkpt><trkpt lat="40.523645" lon="16.6290533"><ele>53.0</ele><time>2026-03-29T14:06:31.466Z</time></trkpt><trkpt lat="40.5238083" lon="16.6288667"><ele>53.0</ele><time>2026-03-29T14:06:32.46Z</time></trkpt><trkpt lat="40.523975" lon="16.62868"><ele>53.0</ele><time>2026-03-29T14:06:33.46Z</time></trkpt><trkpt lat="40.5241433" lon="16.6284933"><ele>53.0</ele><time>2026-03-29T14:06:34.47Z</time></trkpt><trkpt lat="40.52431" lon="16.6283083"><ele>53.0</ele><time>2026-03-29T14:06:35.472Z</time></trkpt><trkpt lat="40.524475" lon="16.6281217"><ele>53.0</ele><time>2026-03-29T14:06:36.472Z</time></trkpt><trkpt lat="40.5246433" lon="16.62794"><ele>53.0</ele><time>2026-03-29T14:06:37.471Z</time></trkpt><trkpt lat="40.52481" lon="16.62776"><ele>53.66666666666667</ele><time>2026-03-29T14:06:38.473Z</time></trkpt><trkpt lat="40.524975" lon="16.62758"><ele>54.33333333333333</ele><time>2026-03-29T14:06:39.471Z</time></trkpt><trkpt lat="40.5251333" lon="16.6274017"><ele>55.0</ele><time>2026-03-29T14:06:40.47Z</time></trkpt><trkpt lat="40.525285" lon="16.62723"><ele>54.666666666666664</ele><time>2026-03-29T14:06:41.467Z</time></trkpt><trkpt lat="40.5254217" lon="16.6270717"><ele>54.33333333333333</ele><time>2026-03-29T14:06:42.468Z</time></trkpt><trkpt lat="40.5255517" lon="16.62692"><ele>54.0</ele><time>2026-03-29T14:06:43.471Z</time></trkpt><trkpt lat="40.52567" lon="16.6267733"><ele>54.0</ele><time>2026-03-29T14:06:44.471Z</time></trkpt><trkpt lat="40.5257867" lon="16.626645"><ele>54.0</ele><time>2026-03-29T14:06:45.471Z</time></trkpt><trkpt lat="40.5259067" lon="16.6265467"><ele>54.0</ele><time>2026-03-29T14:06:46.469Z</time></trkpt><trkpt lat="40.5260317" lon="16.6264833"><ele>54.0</ele><time>2026-03-29T14:06:47.467Z</time></trkpt><trkpt lat="40.5261667" lon="16.6264667"><ele>54.0</ele><time>2026-03-29T14:06:48.472Z</time></trkpt><trkpt lat="40.526295" lon="16.62652"><ele>54.0</ele><time>2026-03-29T14:06:49.47Z</time></trkpt><trkpt lat="40.5264167" lon="16.6266383"><ele>54.0</ele><time>2026-03-29T14:06:50.472Z</time></trkpt><trkpt lat="40.5265167" lon="16.6268083"><ele>54.0</ele><time>2026-03-29T14:06:51.471Z</time></trkpt><trkpt lat="40.52662" lon="16.6269967"><ele>54.0</ele><time>2026-03-29T14:06:52.471Z</time></trkpt><trkpt lat="40.526725" lon="16.627205"><ele>54.0</ele><time>2026-03-29T14:06:53.47Z</time></trkpt><trkpt lat="40.5268367" lon="16.627415"><ele>54.0</ele><time>2026-03-29T14:06:54.459Z</time></trkpt><trkpt lat="40.5269583" lon="16.6276383"><ele>54.33333333333333</ele><time>2026-03-29T14:06:55.462Z</time></trkpt><trkpt lat="40.5270883" lon="16.6278667"><ele>54.666666666666664</ele><time>2026-03-29T14:06:56.471Z</time></trkpt><trkpt lat="40.5272217" lon="16.628095"><ele>55.0</ele><time>2026-03-29T14:06:57.471Z</time></trkpt><trkpt lat="40.5273533" lon="16.6283317"><ele>55.0</ele><time>2026-03-29T14:06:58.467Z</time></trkpt><trkpt lat="40.5274833" lon="16.6285783"><ele>55.0</ele><time>2026-03-29T14:06:59.472Z</time></trkpt><trkpt lat="40.52761" lon="16.6288367"><ele>53.5</ele><time>2026-03-29T14:07:00.472Z</time></trkpt><trkpt lat="40.5277383" lon="16.6291033"><ele>52.0</ele><time>2026-03-29T14:07:01.472Z</time></trkpt><trkpt lat="40.52787" lon="16.6293717"><ele>52.5</ele><time>2026-03-29T14:07:02.473Z</time></trkpt><trkpt lat="40.528" lon="16.62964"><ele>53.0</ele><time>2026-03-29T14:07:03.471Z</time></trkpt><trkpt lat="40.5281283" lon="16.6299083"><ele>53.0</ele><time>2026-03-29T14:07:04.465Z</time></trkpt><trkpt lat="40.528255" lon="16.630175"><ele>53.0</ele><time>2026-03-29T14:07:05.467Z</time></trkpt><trkpt lat="40.5283817" lon="16.6304367"><ele>52.0</ele><time>2026-03-29T14:07:06.472Z</time></trkpt><trkpt lat="40.5285083" lon="16.6307"><ele>51.0</ele><time>2026-03-29T14:07:07.471Z</time></trkpt><trkpt lat="40.528635" lon="16.63096"><ele>52.5</ele><time>2026-03-29T14:07:08.472Z</time></trkpt><trkpt lat="40.52876" lon="16.63122"><ele>54.0</ele><time>2026-03-29T14:07:09.472Z</time></trkpt><trkpt lat="40.5288867" lon="16.6314783"><ele>54.0</ele><time>2026-03-29T14:07:10.466Z</time></trkpt><trkpt lat="40.52901" lon="16.6317417"><ele>54.0</ele><time>2026-03-29T14:07:11.473Z</time></trkpt><trkpt lat="40.5291333" lon="16.6320017"><ele>53.5</ele><time>2026-03-29T14:07:12.471Z</time></trkpt><trkpt lat="40.5292567" lon="16.63226"><ele>53.0</ele><time>2026-03-29T14:07:13.47Z</time></trkpt><trkpt lat="40.52938" lon="16.632515"><ele>53.0</ele><time>2026-03-29T14:07:14.471Z</time></trkpt><trkpt lat="40.529505" lon="16.6327667"><ele>53.0</ele><time>2026-03-29T14:07:15.471Z</time></trkpt><trkpt lat="40.52963" lon="16.6330233"><ele>52.5</ele><time>2026-03-29T14:07:16.457Z</time></trkpt><trkpt lat="40.5297533" lon="16.6332783"><ele>52.0</ele><time>2026-03-29T14:07:17.458Z</time></trkpt><trkpt lat="40.5298767" lon="16.6335333"><ele>52.5</ele><time>2026-03-29T14:07:18.469Z</time></trkpt><trkpt lat="40.53" lon="16.6337917"><ele>53.0</ele><time>2026-03-29T14:07:19.469Z</time></trkpt><trkpt lat="40.5301217" lon="16.634045"><ele>53.0</ele><time>2026-03-29T14:07:20.47Z</time></trkpt><trkpt lat="40.5302433" lon="16.6343"><ele>53.0</ele><time>2026-03-29T14:07:21.468Z</time></trkpt><trkpt lat="40.530365" lon="16.6345533"><ele>50.0</ele><time>2026-03-29T14:07:22.47Z</time></trkpt><trkpt lat="40.5304883" lon="16.63481"><ele>47.0</ele><time>2026-03-29T14:07:23.468Z</time></trkpt><trkpt lat="40.5306117" lon="16.6350667"><ele>46.5</ele><time>2026-03-29T14:07:24.468Z</time></trkpt><trkpt lat="40.530735" lon="16.6353233"><ele>46.0</ele><time>2026-03-29T14:07:25.471Z</time></trkpt><trkpt lat="40.5308617" lon="16.6355817"><ele>46.0</ele><time>2026-03-29T14:07:26.473Z</time></trkpt><trkpt lat="40.5309867" lon="16.6358367"><ele>46.0</ele><time>2026-03-29T14:07:27.468Z</time></trkpt><trkpt lat="40.53111" lon="16.6360883"><ele>47.66666666666667</ele><time>2026-03-29T14:07:28.468Z</time></trkpt><trkpt lat="40.53123" lon="16.63634"><ele>49.333333333333336</ele><time>2026-03-29T14:07:29.47Z</time></trkpt><trkpt lat="40.5313433" lon="16.6365933"><ele>51.0</ele><time>2026-03-29T14:07:30.47Z</time></trkpt><trkpt lat="40.5314483" lon="16.6368483"><ele>51.33333333333333</ele><time>2026-03-29T14:07:31.47Z</time></trkpt><trkpt lat="40.5315433" lon="16.6371117"><ele>51.666666666666664</ele><time>2026-03-29T14:07:32.472Z</time></trkpt><trkpt lat="40.53163" lon="16.6373833"><ele>52.0</ele><time>2026-03-29T14:07:33.468Z</time></trkpt><trkpt lat="40.5317133" lon="16.6376583"><ele>53.0</ele><time>2026-03-29T14:07:34.47Z</time></trkpt><trkpt lat="40.531795" lon="16.6379317"><ele>54.0</ele><time>2026-03-29T14:07:35.467Z</time></trkpt><trkpt lat="40.5318733" lon="16.6382033"><ele>55.0</ele><time>2026-03-29T14:07:36.472Z</time></trkpt><trkpt lat="40.5319583" lon="16.6384783"><ele>55.33333333333333</ele><time>2026-03-29T14:07:37.471Z</time></trkpt><trkpt lat="40.5320433" lon="16.6387483"><ele>55.66666666666667</ele><time>2026-03-29T14:07:38.46Z</time></trkpt><trkpt lat="40.5321267" lon="16.6390183"><ele>56.0</ele><time>2026-03-29T14:07:39.459Z</time></trkpt><trkpt lat="40.53221" lon="16.63929"><ele>56.0</ele><time>2026-03-29T14:07:40.47Z</time></trkpt><trkpt lat="40.5322967" lon="16.639565"><ele>56.0</ele><time>2026-03-29T14:07:41.47Z</time></trkpt><trkpt lat="40.5323833" lon="16.63984"><ele>56.0</ele><time>2026-03-29T14:07:42.47Z</time></trkpt><trkpt lat="40.53247" lon="16.640115"><ele>56.0</ele><time>2026-03-29T14:07:43.47Z</time></trkpt><trkpt lat="40.5325583" lon="16.64039"><ele>56.333333333333336</ele><time>2026-03-29T14:07:44.471Z</time></trkpt><trkpt lat="40.532645" lon="16.6406633"><ele>56.66666666666667</ele><time>2026-03-29T14:07:45.471Z</time></trkpt><trkpt lat="40.5327317" lon="16.640935"><ele>57.0</ele><time>2026-03-29T14:07:46.469Z</time></trkpt><trkpt lat="40.532815" lon="16.6412017"><ele>58.0</ele><time>2026-03-29T14:07:47.469Z</time></trkpt><trkpt lat="40.5328967" lon="16.6414617"><ele>59.0</ele><time>2026-03-29T14:07:48.468Z</time></trkpt><trkpt lat="40.532975" lon="16.6417083"><ele>60.0</ele><time>2026-03-29T14:07:49.468Z</time></trkpt><trkpt lat="40.5330483" lon="16.641945"><ele>60.0</ele><time>2026-03-29T14:07:50.47Z</time></trkpt><trkpt lat="40.5331167" lon="16.642175"><ele>60.0</ele><time>2026-03-29T14:07:51.468Z</time></trkpt><trkpt lat="40.53319" lon="16.64241"><ele>60.0</ele><time>2026-03-29T14:07:52.468Z</time></trkpt><trkpt lat="40.5332667" lon="16.6426533"><ele>60.66666666666667</ele><time>2026-03-29T14:07:53.468Z</time></trkpt><trkpt lat="40.533345" lon="16.6429"><ele>61.333333333333336</ele><time>2026-03-29T14:07:54.47Z</time></trkpt><trkpt lat="40.5334233" lon="16.6431467"><ele>62.0</ele><time>2026-03-29T14:07:55.47Z</time></trkpt><trkpt lat="40.5335017" lon="16.643395"><ele>62.66666666666667</ele><time>2026-03-29T14:07:56.471Z</time></trkpt><trkpt lat="40.5335767" lon="16.643645"><ele>63.33333333333333</ele><time>2026-03-29T14:07:57.471Z</time></trkpt><trkpt lat="40.5336483" lon="16.643895"><ele>64.0</ele><time>2026-03-29T14:07:58.469Z</time></trkpt><trkpt lat="40.5337217" lon="16.6441383"><ele>64.0</ele><time>2026-03-29T14:07:59.47Z</time></trkpt><trkpt lat="40.5337983" lon="16.6443767"><ele>64.0</ele><time>2026-03-29T14:08:00.459Z</time></trkpt><trkpt lat="40.5338767" lon="16.6446133"><ele>64.0</ele><time>2026-03-29T14:08:01.459Z</time></trkpt><trkpt lat="40.5339717" lon="16.64484"><ele>64.0</ele><time>2026-03-29T14:08:02.472Z</time></trkpt><trkpt lat="40.5340967" lon="16.64505"><ele>64.0</ele><time>2026-03-29T14:08:03.472Z</time></trkpt><trkpt lat="40.5342533" lon="16.645235"><ele>64.0</ele><time>2026-03-29T14:08:04.47Z</time></trkpt><trkpt lat="40.5344367" lon="16.64541"><ele>66.5</ele><time>2026-03-29T14:08:05.472Z</time></trkpt><trkpt lat="40.5346333" lon="16.6455767"><ele>69.0</ele><time>2026-03-29T14:08:06.47Z</time></trkpt><trkpt lat="40.5348383" lon="16.64574"><ele>69.0</ele><time>2026-03-29T14:08:07.472Z</time></trkpt><trkpt lat="40.5350483" lon="16.6458967"><ele>69.0</ele><time>2026-03-29T14:08:08.472Z</time></trkpt><trkpt lat="40.5352567" lon="16.6460433"><ele>73.5</ele><time>2026-03-29T14:08:09.47Z</time></trkpt><trkpt lat="40.535465" lon="16.6461783"><ele>78.0</ele><time>2026-03-29T14:08:10.468Z</time></trkpt><trkpt lat="40.5356733" lon="16.64631"><ele>78.0</ele><time>2026-03-29T14:08:11.469Z</time></trkpt><trkpt lat="40.5358817" lon="16.6464383"><ele>78.0</ele><time>2026-03-29T14:08:12.469Z</time></trkpt><trkpt lat="40.5360917" lon="16.6465667"><ele>81.66666666666667</ele><time>2026-03-29T14:08:13.471Z</time></trkpt><trkpt lat="40.536295" lon="16.646695"><ele>85.33333333333334</ele><time>2026-03-29T14:08:14.469Z</time></trkpt><trkpt lat="40.5364967" lon="16.6468233"><ele>89.0</ele><time>2026-03-29T14:08:15.465Z</time></trkpt><trkpt lat="40.5366917" lon="16.64696"><ele>87.66666666666667</ele><time>2026-03-29T14:08:16.469Z</time></trkpt><trkpt lat="40.5368833" lon="16.6471017"><ele>86.33333333333333</ele><time>2026-03-29T14:08:17.469Z</time></trkpt><trkpt lat="40.537075" lon="16.6472533"><ele>85.0</ele><time>2026-03-29T14:08:18.466Z</time></trkpt><trkpt lat="40.5372667" lon="16.64741"><ele>91.0</ele><time>2026-03-29T14:08:19.468Z</time></trkpt><trkpt lat="40.537455" lon="16.6475767"><ele>97.0</ele><time>2026-03-29T14:08:20.472Z</time></trkpt><trkpt lat="40.53764" lon="16.6477467"><ele>94.0</ele><time>2026-03-29T14:08:21.469Z</time></trkpt><trkpt lat="40.5378217" lon="16.6479183"><ele>91.0</ele><time>2026-03-29T14:08:22.459Z</time></trkpt><trkpt lat="40.538005" lon="16.6480883"><ele>88.0</ele><time>2026-03-29T14:08:23.468Z</time></trkpt><trkpt lat="40.5381867" lon="16.6482583"><ele>99.5</ele><time>2026-03-29T14:08:24.468Z</time></trkpt><trkpt lat="40.53837" lon="16.64843"><ele>111.0</ele><time>2026-03-29T14:08:25.47Z</time></trkpt><trkpt lat="40.538555" lon="16.6486017"><ele>117.0</ele><time>2026-03-29T14:08:26.471Z</time></trkpt><trkpt lat="40.5387417" lon="16.6487717"><ele>123.0</ele><time>2026-03-29T14:08:27.469Z</time></trkpt><trkpt lat="40.5389283" lon="16.6489367"><ele>123.0</ele><time>2026-03-29T14:08:28.467Z</time></trkpt><trkpt lat="40.539115" lon="16.6491017"><ele>123.0</ele><time>2026-03-29T14:08:29.471Z</time></trkpt><trkpt lat="40.5393033" lon="16.6492617"><ele>123.0</ele><time>2026-03-29T14:08:30.472Z</time></trkpt><trkpt lat="40.53949" lon="16.64942"><ele>127.33333333333334</ele><time>2026-03-29T14:08:31.471Z</time></trkpt><trkpt lat="40.5396817" lon="16.649575"><ele>131.66666666666669</ele><time>2026-03-29T14:08:32.47Z</time></trkpt><trkpt lat="40.5398733" lon="16.6497283"><ele>136.0</ele><time>2026-03-29T14:08:33.469Z</time></trkpt><trkpt lat="40.540065" lon="16.6498817"><ele>136.0</ele><time>2026-03-29T14:08:34.47Z</time></trkpt><trkpt lat="40.5402533" lon="16.6500367"><ele>136.0</ele><time>2026-03-29T14:08:35.471Z</time></trkpt><trkpt lat="40.5404417" lon="16.6501967"><ele>136.0</ele><time>2026-03-29T14:08:36.471Z</time></trkpt><trkpt lat="40.5406283" lon="16.6503583"><ele>140.5</ele><time>2026-03-29T14:08:37.47Z</time></trkpt><trkpt lat="40.5408167" lon="16.6505233"><ele>145.0</ele><time>2026-03-29T14:08:38.473Z</time></trkpt><trkpt lat="40.5410017" lon="16.65069"><ele>145.0</ele><time>2026-03-29T14:08:39.474Z</time></trkpt><trkpt lat="40.5411817" lon="16.6508617"><ele>145.0</ele><time>2026-03-29T14:08:40.469Z</time></trkpt><trkpt lat="40.5413617" lon="16.6510367"><ele>145.0</ele><time>2026-03-29T14:08:41.468Z</time></trkpt><trkpt lat="40.5415433" lon="16.651205"><ele>147.66666666666669</ele><time>2026-03-29T14:08:42.469Z</time></trkpt><trkpt lat="40.5417283" lon="16.6513683"><ele>150.33333333333334</ele><time>2026-03-29T14:08:43.458Z</time></trkpt><trkpt lat="40.5419183" lon="16.6515233"><ele>153.0</ele><time>2026-03-29T14:08:44.459Z</time></trkpt><trkpt lat="40.54211" lon="16.6516783"><ele>156.33333333333334</ele><time>2026-03-29T14:08:45.471Z</time></trkpt><trkpt lat="40.5423033" lon="16.65183"><ele>159.66666666666669</ele><time>2026-03-29T14:08:46.47Z</time></trkpt><trkpt lat="40.5424967" lon="16.651975"><ele>163.0</ele><time>2026-03-29T14:08:47.469Z</time></trkpt><trkpt lat="40.5426917" lon="16.6521133"><ele>165.66666666666669</ele><time>2026-03-29T14:08:48.469Z</time></trkpt><trkpt lat="40.5428917" lon="16.6522483"><ele>168.33333333333334</ele><time>2026-03-29T14:08:49.471Z</time></trkpt><trkpt lat="40.5430933" lon="16.652375"><ele>171.0</ele><time>2026-03-29T14:08:50.472Z</time></trkpt><trkpt lat="40.5432867" lon="16.6524933"><ele>171.0</ele><time>2026-03-29T14:08:51.469Z</time></trkpt><trkpt lat="40.543465" lon="16.6526"><ele>171.0</ele><time>2026-03-29T14:08:52.468Z</time></trkpt><trkpt lat="40.543625" lon="16.6526967"><ele>171.0</ele><time>2026-03-29T14:08:53.466Z</time></trkpt><trkpt lat="40.543765" lon="16.65279"><ele>175.33333333333334</ele><time>2026-03-29T14:08:54.471Z</time></trkpt><trkpt lat="40.5438917" lon="16.6528833"><ele>179.66666666666669</ele><time>2026-03-29T14:08:55.471Z</time></trkpt><trkpt lat="40.5440267" lon="16.6529883"><ele>184.0</ele><time>2026-03-29T14:08:56.471Z</time></trkpt><trkpt lat="40.5441783" lon="16.653095"><ele>184.0</ele><time>2026-03-29T14:08:57.473Z</time></trkpt><trkpt lat="40.5443383" lon="16.653165"><ele>184.0</ele><time>2026-03-29T14:08:58.469Z</time></trkpt><trkpt lat="40.544495" lon="16.6532367"><ele>184.0</ele><time>2026-03-29T14:08:59.47Z</time></trkpt><trkpt lat="40.5446567" lon="16.6533367"><ele>186.66666666666669</ele><time>2026-03-29T14:09:00.471Z</time></trkpt><trkpt lat="40.5448283" lon="16.6534517"><ele>189.33333333333334</ele><time>2026-03-29T14:09:01.471Z</time></trkpt><trkpt lat="40.5450017" lon="16.653575"><ele>192.0</ele><time>2026-03-29T14:09:02.473Z</time></trkpt><trkpt lat="40.54518" lon="16.6537067"><ele>193.0</ele><time>2026-03-29T14:09:03.473Z</time></trkpt><trkpt lat="40.5453683" lon="16.65384"><ele>194.0</ele><time>2026-03-29T14:09:04.47Z</time></trkpt><trkpt lat="40.545565" lon="16.6539617"><ele>195.0</ele><time>2026-03-29T14:09:05.459Z</time></trkpt><trkpt lat="40.54577" lon="16.6540583"><ele>197.66666666666669</ele><time>2026-03-29T14:09:06.459Z</time></trkpt><trkpt lat="40.54598" lon="16.6541317"><ele>200.33333333333334</ele><time>2026-03-29T14:09:07.471Z</time></trkpt><trkpt lat="40.5461967" lon="16.6541933"><ele>203.0</ele><time>2026-03-29T14:09:08.473Z</time></trkpt><trkpt lat="40.5464133" lon="16.6542517"><ele>206.0</ele><time>2026-03-29T14:09:09.47Z</time></trkpt><trkpt lat="40.5466333" lon="16.6543083"><ele>209.0</ele><time>2026-03-29T14:09:10.468Z</time></trkpt><trkpt lat="40.546855" lon="16.6543667"><ele>213.5</ele><time>2026-03-29T14:09:11.469Z</time></trkpt><trkpt lat="40.5470767" lon="16.654425"><ele>218.0</ele><time>2026-03-29T14:09:12.471Z</time></trkpt><trkpt lat="40.5472967" lon="16.6544917"><ele>220.33333333333334</ele><time>2026-03-29T14:09:13.471Z</time></trkpt><trkpt lat="40.5475133" lon="16.65457"><ele>222.66666666666669</ele><time>2026-03-29T14:09:14.471Z</time></trkpt><trkpt lat="40.54772" lon="16.6546717"><ele>225.0</ele><time>2026-03-29T14:09:15.465Z</time></trkpt><trkpt lat="40.54792" lon="16.6548"><ele>228.66666666666669</ele><time>2026-03-29T14:09:16.465Z</time></trkpt><trkpt lat="40.54811" lon="16.654955"><ele>232.33333333333334</ele><time>2026-03-29T14:09:17.47Z</time></trkpt><trkpt lat="40.5482917" lon="16.6551283"><ele>236.0</ele><time>2026-03-29T14:09:18.469Z</time></trkpt><trkpt lat="40.548465" lon="16.6553067"><ele>237.5</ele><time>2026-03-29T14:09:19.467Z</time></trkpt><trkpt lat="40.548645" lon="16.6554917"><ele>239.0</ele><time>2026-03-29T14:09:20.47Z</time></trkpt><trkpt lat="40.5488233" lon="16.6556733"><ele>246.0</ele><time>2026-03-29T14:09:21.467Z</time></trkpt><trkpt lat="40.5490033" lon="16.6558617"><ele>253.0</ele><time>2026-03-29T14:09:22.468Z</time></trkpt><trkpt lat="40.5491817" lon="16.6560517"><ele>254.0</ele><time>2026-03-29T14:09:23.469Z</time></trkpt><trkpt lat="40.5493567" lon="16.6562367"><ele>255.0</ele><time>2026-03-29T14:09:24.469Z</time></trkpt><trkpt lat="40.54953" lon="16.6564233"><ele>256.0</ele><time>2026-03-29T14:09:25.465Z</time></trkpt><trkpt lat="40.5496983" lon="16.6566067"><ele>257.3333333333333</ele><time>2026-03-29T14:09:26.471Z</time></trkpt><trkpt lat="40.54986" lon="16.656785"><ele>258.6666666666667</ele><time>2026-03-29T14:09:27.457Z</time></trkpt><trkpt lat="40.550005" lon="16.6569517"><ele>260.0</ele><time>2026-03-29T14:09:28.458Z</time></trkpt><trkpt lat="40.5501367" lon="16.6571033"><ele>260.0</ele><time>2026-03-29T14:09:29.471Z</time></trkpt><trkpt lat="40.55024" lon="16.6572417"><ele>260.0</ele><time>2026-03-29T14:09:30.469Z</time></trkpt><trkpt lat="40.5503217" lon="16.6573833"><ele>260.0</ele><time>2026-03-29T14:09:31.47Z</time></trkpt><trkpt lat="40.5503967" lon="16.6575467"><ele>260.0</ele><time>2026-03-29T14:09:32.472Z</time></trkpt><trkpt lat="40.5504783" lon="16.6577367"><ele>261.33333333333337</ele><time>2026-03-29T14:09:33.47Z</time></trkpt><trkpt lat="40.550565" lon="16.6579517"><ele>262.6666666666667</ele><time>2026-03-29T14:09:34.468Z</time></trkpt><trkpt lat="40.550655" lon="16.6581767"><ele>264.0</ele><time>2026-03-29T14:09:35.469Z</time></trkpt><trkpt lat="40.5507417" lon="16.658405"><ele>265.0</ele><time>2026-03-29T14:09:36.47Z</time></trkpt><trkpt lat="40.550825" lon="16.6586367"><ele>266.0</ele><time>2026-03-29T14:09:37.469Z</time></trkpt><trkpt lat="40.5509" lon="16.658865"><ele>267.0</ele><time>2026-03-29T14:09:38.471Z</time></trkpt><trkpt lat="40.5509633" lon="16.659085"><ele>267.0</ele><time>2026-03-29T14:09:39.47Z</time></trkpt><trkpt lat="40.5510367" lon="16.6592917"><ele>267.0</ele><time>2026-03-29T14:09:40.469Z</time></trkpt><trkpt lat="40.5511183" lon="16.65948"><ele>267.0</ele><time>2026-03-29T14:09:41.469Z</time></trkpt><trkpt lat="40.5512233" lon="16.6596483"><ele>269.6666666666667</ele><time>2026-03-29T14:09:42.471Z</time></trkpt><trkpt lat="40.5513533" lon="16.659795"><ele>272.33333333333337</ele><time>2026-03-29T14:09:43.47Z</time></trkpt><trkpt lat="40.5514967" lon="16.659915"><ele>275.0</ele><time>2026-03-29T14:09:44.471Z</time></trkpt><trkpt lat="40.5516383" lon="16.660015"><ele>275.0</ele><time>2026-03-29T14:09:45.471Z</time></trkpt><trkpt lat="40.551775" lon="16.6601017"><ele>275.0</ele><time>2026-03-29T14:09:46.464Z</time></trkpt><trkpt lat="40.5519" lon="16.660175"><ele>275.0</ele><time>2026-03-29T14:09:47.469Z</time></trkpt><trkpt lat="40.5520017" lon="16.6602433"><ele>275.0</ele><time>2026-03-29T14:09:48.467Z</time></trkpt><trkpt lat="40.5520767" lon="16.66032"><ele>275.6666666666667</ele><time>2026-03-29T14:09:49.458Z</time></trkpt><trkpt lat="40.5521283" lon="16.6603983"><ele>276.33333333333337</ele><time>2026-03-29T14:09:50.459Z</time></trkpt><trkpt lat="40.552145" lon="16.6604867"><ele>277.0</ele><time>2026-03-29T14:09:51.467Z</time></trkpt><trkpt lat="40.552135" lon="16.660585"><ele>277.6666666666667</ele><time>2026-03-29T14:09:52.465Z</time></trkpt><trkpt lat="40.5520833" lon="16.6606933"><ele>278.3333333333333</ele><time>2026-03-29T14:09:53.47Z</time></trkpt><trkpt lat="40.5520017" lon="16.6608017"><ele>279.0</ele><time>2026-03-29T14:09:54.47Z</time></trkpt><trkpt lat="40.55191" lon="16.6609217"><ele>279.0</ele><time>2026-03-29T14:09:55.468Z</time></trkpt><trkpt lat="40.5518067" lon="16.6610617"><ele>279.0</ele><time>2026-03-29T14:09:56.472Z</time></trkpt><trkpt lat="40.55171" lon="16.6612233"><ele>279.0</ele><time>2026-03-29T14:09:57.47Z</time></trkpt><trkpt lat="40.5516333" lon="16.6614133"><ele>282.3333333333333</ele><time>2026-03-29T14:09:58.468Z</time></trkpt><trkpt lat="40.55156" lon="16.661625"><ele>285.66666666666663</ele><time>2026-03-29T14:09:59.471Z</time></trkpt><trkpt lat="40.5514867" lon="16.6618433"><ele>289.0</ele><time>2026-03-29T14:10:00.47Z</time></trkpt><trkpt lat="40.5514267" lon="16.6620617"><ele>291.3333333333333</ele><time>2026-03-29T14:10:01.469Z</time></trkpt><trkpt lat="40.55136" lon="16.6622717"><ele>293.6666666666667</ele><time>2026-03-29T14:10:02.471Z</time></trkpt><trkpt lat="40.5512917" lon="16.6624817"><ele>296.0</ele><time>2026-03-29T14:10:03.47Z</time></trkpt><trkpt lat="40.5512167" lon="16.66268"><ele>294.6666666666667</ele><time>2026-03-29T14:10:04.47Z</time></trkpt><trkpt lat="40.5511467" lon="16.6628833"><ele>293.3333333333333</ele><time>2026-03-29T14:10:05.469Z</time></trkpt><trkpt lat="40.5510767" lon="16.663085"><ele>292.0</ele><time>2026-03-29T14:10:06.467Z</time></trkpt><trkpt lat="40.5510217" lon="16.6632933"><ele>292.0</ele><time>2026-03-29T14:10:07.468Z</time></trkpt><trkpt lat="40.5509783" lon="16.6635017"><ele>292.0</ele><time>2026-03-29T14:10:08.469Z</time></trkpt><trkpt lat="40.5509333" lon="16.6637133"><ele>292.0</ele><time>2026-03-29T14:10:09.47Z</time></trkpt><trkpt lat="40.5509" lon="16.66392"><ele>293.0</ele><time>2026-03-29T14:10:10.469Z</time></trkpt><trkpt lat="40.5508733" lon="16.6641217"><ele>294.0</ele><time>2026-03-29T14:10:11.46Z</time></trkpt><trkpt lat="40.5508567" lon="16.6643017"><ele>295.0</ele><time>2026-03-29T14:10:12.459Z</time></trkpt><trkpt lat="40.55086" lon="16.66447"><ele>296.0</ele><time>2026-03-29T14:10:13.466Z</time></trkpt><trkpt lat="40.5508667" lon="16.6646067"><ele>297.0</ele><time>2026-03-29T14:10:14.471Z</time></trkpt><trkpt lat="40.5508783" lon="16.6647183"><ele>298.0</ele><time>2026-03-29T14:10:15.469Z</time></trkpt><trkpt lat="40.5509117" lon="16.66479"><ele>299.0</ele><time>2026-03-29T14:10:16.468Z</time></trkpt><trkpt lat="40.5509767" lon="16.6648"><ele>300.0</ele><time>2026-03-29T14:10:17.469Z</time></trkpt><trkpt lat="40.551055" lon="16.6647683"><ele>301.0</ele><time>2026-03-29T14:10:18.469Z</time></trkpt><trkpt lat="40.5511417" lon="16.664695"><ele>302.0</ele><time>2026-03-29T14:10:19.468Z</time></trkpt><trkpt lat="40.5512367" lon="16.6645933"><ele>303.75</ele><time>2026-03-29T14:10:20.47Z</time></trkpt><trkpt lat="40.551335" lon="16.664495"><ele>305.5</ele><time>2026-03-29T14:10:21.468Z</time></trkpt><trkpt lat="40.551435" lon="16.6644133"><ele>307.25</ele><time>2026-03-29T14:10:22.465Z</time></trkpt><trkpt lat="40.5515317" lon="16.6643433"><ele>309.0</ele><time>2026-03-29T14:10:23.47Z</time></trkpt><trkpt lat="40.5516233" lon="16.6642783"><ele>309.0</ele><time>2026-03-29T14:10:24.471Z</time></trkpt><trkpt lat="40.5517117" lon="16.6642283"><ele>309.0</ele><time>2026-03-29T14:10:25.471Z</time></trkpt><trkpt lat="40.5518033" lon="16.664195"><ele>309.0</ele><time>2026-03-29T14:10:26.471Z</time></trkpt><trkpt lat="40.551905" lon="16.6641633"><ele>309.0</ele><time>2026-03-29T14:10:27.47Z</time></trkpt><trkpt lat="40.552005" lon="16.6641417"><ele>309.0</ele><time>2026-03-29T14:10:28.467Z</time></trkpt><trkpt lat="40.5521017" lon="16.6641433"><ele>311.0</ele><time>2026-03-29T14:10:29.469Z</time></trkpt><trkpt lat="40.552205" lon="16.6641967"><ele>313.0</ele><time>2026-03-29T14:10:30.472Z</time></trkpt><trkpt lat="40.5522933" lon="16.6642583"><ele>315.0</ele><time>2026-03-29T14:10:31.469Z</time></trkpt><trkpt lat="40.5523683" lon="16.664315"><ele>317.0</ele><time>2026-03-29T14:10:32.471Z</time></trkpt><trkpt lat="40.55243" lon="16.66435"><ele>319.0</ele><time>2026-03-29T14:10:33.458Z</time></trkpt><trkpt lat="40.5525083" lon="16.6644017"><ele>319.0</ele><time>2026-03-29T14:10:36.469Z</time></trkpt><trkpt lat="40.552595" lon="16.6644417"><ele>319.0</ele><time>2026-03-29T14:10:38.469Z</time></trkpt><trkpt lat="40.552685" lon="16.6644917"><ele>319.0</ele><time>2026-03-29T14:10:39.469Z</time></trkpt><trkpt lat="40.5527717" lon="16.6645533"><ele>319.0</ele><time>2026-03-29T14:10:40.468Z</time></trkpt><trkpt lat="40.5528583" lon="16.664625"><ele>319.0</ele><time>2026-03-29T14:10:41.471Z</time></trkpt><trkpt lat="40.5529767" lon="16.6647067"><ele>321.6</ele><time>2026-03-29T14:10:42.47Z</time></trkpt><trkpt lat="40.5531017" lon="16.66478"><ele>324.2</ele><time>2026-03-29T14:10:43.471Z</time></trkpt><trkpt lat="40.5532067" lon="16.6648483"><ele>326.8</ele><time>2026-03-29T14:10:44.469Z</time></trkpt><trkpt lat="40.5532917" lon="16.664915"><ele>329.40000000000003</ele><time>2026-03-29T14:10:45.47Z</time></trkpt><trkpt lat="40.5533533" lon="16.6649717"><ele>332.0</ele><time>2026-03-29T14:10:46.469Z</time></trkpt><trkpt lat="40.55346" lon="16.6650533"><ele>332.0</ele><time>2026-03-29T14:10:48.469Z</time></trkpt><trkpt lat="40.5535417" lon="16.6650883"><ele>332.0</ele><time>2026-03-29T14:10:49.469Z</time></trkpt><trkpt lat="40.5536433" lon="16.665135"><ele>332.0</ele><time>2026-03-29T14:10:50.467Z</time></trkpt><trkpt lat="40.55376" lon="16.6652017"><ele>332.0</ele><time>2026-03-29T14:10:51.469Z</time></trkpt><trkpt lat="40.5538817" lon="16.6652683"><ele>333.8</ele><time>2026-03-29T14:10:52.469Z</time></trkpt><trkpt lat="40.5539933" lon="16.6653183"><ele>335.6</ele><time>2026-03-29T14:10:53.47Z</time></trkpt><trkpt lat="40.5540933" lon="16.6653467"><ele>337.40000000000003</ele><time>2026-03-29T14:10:54.47Z</time></trkpt><trkpt lat="40.5542" lon="16.6653483"><ele>339.20000000000005</ele><time>2026-03-29T14:10:55.457Z</time></trkpt><trkpt lat="40.5542933" lon="16.66534"><ele>341.0</ele><time>2026-03-29T14:10:56.461Z</time></trkpt><trkpt lat="40.5543783" lon="16.6653317"><ele>341.0</ele><time>2026-03-29T14:10:57.469Z</time></trkpt><trkpt lat="40.5544583" lon="16.665325"><ele>341.0</ele><time>2026-03-29T14:10:58.466Z</time></trkpt><trkpt lat="40.5545367" lon="16.665325"><ele>341.0</ele><time>2026-03-29T14:10:59.471Z</time></trkpt><trkpt lat="40.554615" lon="16.6653617"><ele>341.0</ele><time>2026-03-29T14:11:00.469Z</time></trkpt><trkpt lat="40.5546883" lon="16.66544"><ele>341.0</ele><time>2026-03-29T14:11:01.47Z</time></trkpt><trkpt lat="40.5547317" lon="16.665585"><ele>341.6666666666667</ele><time>2026-03-29T14:11:02.47Z</time></trkpt><trkpt lat="40.5547817" lon="16.6656983"><ele>342.33333333333337</ele><time>2026-03-29T14:11:03.47Z</time></trkpt><trkpt lat="40.5548233" lon="16.6658"><ele>343.0</ele><time>2026-03-29T14:11:04.467Z</time></trkpt><trkpt lat="40.5548617" lon="16.6658833"><ele>343.6666666666667</ele><time>2026-03-29T14:11:05.469Z</time></trkpt><trkpt lat="40.5548883" lon="16.6659667"><ele>344.3333333333333</ele><time>2026-03-29T14:11:06.469Z</time></trkpt><trkpt lat="40.5549033" lon="16.6661083"><ele>345.0</ele><time>2026-03-29T14:11:08.471Z</time></trkpt><trkpt lat="40.55483" lon="16.6662417"><ele>345.0</ele><time>2026-03-29T14:11:10.466Z</time></trkpt><trkpt lat="40.5547783" lon="16.6663217"><ele>345.0</ele><time>2026-03-29T14:11:11.467Z</time></trkpt><trkpt lat="40.5547167" lon="16.66641"><ele>345.0</ele><time>2026-03-29T14:11:12.471Z</time></trkpt><trkpt lat="40.5546517" lon="16.6664967"><ele>345.0</ele><time>2026-03-29T14:11:13.465Z</time></trkpt><trkpt lat="40.5545817" lon="16.6665733"><ele>345.0</ele><time>2026-03-29T14:11:14.47Z</time></trkpt><trkpt lat="40.5545183" lon="16.6666517"><ele>345.0</ele><time>2026-03-29T14:11:15.467Z</time></trkpt><trkpt lat="40.5544533" lon="16.66672"><ele>344.1666666666667</ele><time>2026-03-29T14:11:16.468Z</time></trkpt><trkpt lat="40.5543883" lon="16.6667717"><ele>343.3333333333333</ele><time>2026-03-29T14:11:17.457Z</time></trkpt><trkpt lat="40.5543217" lon="16.6668167"><ele>342.5</ele><time>2026-03-29T14:11:18.459Z</time></trkpt><trkpt lat="40.5542517" lon="16.66686"><ele>341.66666666666663</ele><time>2026-03-29T14:11:19.471Z</time></trkpt><trkpt lat="40.554185" lon="16.6669017"><ele>340.8333333333333</ele><time>2026-03-29T14:11:20.469Z</time></trkpt><trkpt lat="40.5541283" lon="16.6669383"><ele>340.0</ele><time>2026-03-29T14:11:21.47Z</time></trkpt><trkpt lat="40.5540333" lon="16.666915"><ele>340.0</ele><time>2026-03-29T14:11:23.467Z</time></trkpt><trkpt lat="40.5540083" lon="16.666805"><ele>340.0</ele><time>2026-03-29T14:11:24.468Z</time></trkpt><trkpt lat="40.553985" lon="16.6666983"><ele>340.0</ele><time>2026-03-29T14:11:25.465Z</time></trkpt><trkpt lat="40.5539467" lon="16.6665883"><ele>340.0</ele><time>2026-03-29T14:11:26.471Z</time></trkpt><trkpt lat="40.5539083" lon="16.6664383"><ele>340.0</ele><time>2026-03-29T14:11:27.47Z</time></trkpt><trkpt lat="40.5538617" lon="16.666265"><ele>340.25</ele><time>2026-03-29T14:11:28.468Z</time></trkpt><trkpt lat="40.5538167" lon="16.666095"><ele>340.5</ele><time>2026-03-29T14:11:29.47Z</time></trkpt><trkpt lat="40.553775" lon="16.6659383"><ele>340.75</ele><time>2026-03-29T14:11:30.471Z</time></trkpt><trkpt lat="40.5537483" lon="16.66581"><ele>341.0</ele><time>2026-03-29T14:11:31.469Z</time></trkpt><trkpt lat="40.5537183" lon="16.6657033"><ele>341.33333333333337</ele><time>2026-03-29T14:11:32.47Z</time></trkpt><trkpt lat="40.55369" lon="16.6656183"><ele>341.6666666666667</ele><time>2026-03-29T14:11:33.471Z</time></trkpt><trkpt lat="40.5536567" lon="16.6655433"><ele>342.0</ele><time>2026-03-29T14:11:34.468Z</time></trkpt><trkpt lat="40.55359" lon="16.6654683"><ele>342.3333333333333</ele><time>2026-03-29T14:11:36.469Z</time></trkpt><trkpt lat="40.5535033" lon="16.6655317"><ele>342.66666666666663</ele><time>2026-03-29T14:11:38.47Z</time></trkpt><trkpt lat="40.55344" lon="16.6656517"><ele>343.0</ele><time>2026-03-29T14:11:40.458Z</time></trkpt><trkpt lat="40.55343" lon="16.665795"><ele>343.0</ele><time>2026-03-29T14:11:42.469Z</time></trkpt><trkpt lat="40.55343" lon="16.6658817"><ele>343.0</ele><time>2026-03-29T14:11:44.47Z</time></trkpt><trkpt lat="40.5534817" lon="16.665935"><ele>343.0</ele><time>2026-03-29T14:12:06.469Z</time></trkpt><trkpt lat="40.5535467" lon="16.66597"><ele>343.0</ele><time>2026-03-29T14:12:41.465Z</time></trkpt><trkpt lat="40.5536996" lon="16.6659718"><ele>343.0</ele><time>2026-03-29T14:13:45.933Z</time></trkpt><trkpt lat="40.553615" lon="16.6659617"><ele>343.0</ele><time>2026-03-29T14:13:57.468Z</time></trkpt><trkpt lat="40.55379" lon="16.6660183"><ele>342.5</ele><time>2026-03-29T14:14:11.456Z</time></trkpt><trkpt lat="40.5538317" lon="16.6660817"><ele>342.0</ele><time>2026-03-29T14:14:14.456Z</time></trkpt><trkpt lat="40.5539033" lon="16.6660783"><ele>341.5</ele><time>2026-03-29T14:14:21.456Z</time></trkpt><trkpt lat="40.5539783" lon="16.666085"><ele>341.0</ele><time>2026-03-29T14:14:23.456Z</time></trkpt><trkpt lat="40.5537133" lon="16.66597"><ele>341.33333333333337</ele><time>2026-03-29T14:14:26.456Z</time></trkpt><trkpt lat="40.553635" lon="16.66594"><ele>341.6666666666667</ele><time>2026-03-29T14:15:14.456Z</time></trkpt><trkpt lat="40.5535567" lon="16.6659483"><ele>342.0</ele><time>2026-03-29T14:15:29.455Z</time></trkpt><trkpt lat="40.55343" lon="16.665955"><ele>342.3333333333333</ele><time>2026-03-29T14:17:16.468Z</time></trkpt><trkpt lat="40.5534983" lon="16.666025"><ele>342.66666666666663</ele><time>2026-03-29T14:17:22.465Z</time></trkpt><trkpt lat="40.5535683" lon="16.6660067"><ele>343.0</ele><time>2026-03-29T14:17:40.455Z</time></trkpt><trkpt lat="40.553403" lon="16.6660147"><ele>343.0</ele><time>2026-03-29T14:18:13.695Z</time></trkpt><trkpt lat="40.5533683" lon="16.6658983"><ele>343.0</ele><time>2026-03-29T14:18:34.466Z</time></trkpt><trkpt lat="40.5532867" lon="16.6659083"><ele>343.0</ele><time>2026-03-29T14:19:32.457Z</time></trkpt><trkpt lat="40.5533393" lon="16.6657287"><ele>343.0</ele><time>2026-03-29T14:19:51.063Z</time></trkpt><trkpt lat="40.5533022" lon="16.6658088"><ele>343.0</ele><time>2026-03-29T14:20:06.31Z</time></trkpt><trkpt lat="40.5533369" lon="16.665733"><ele>343.0</ele><time>2026-03-29T14:20:29.508Z</time></trkpt><trkpt lat="40.5533169" lon="16.665644"><ele>343.0</ele><time>2026-03-29T14:20:37.544Z</time></trkpt><trkpt lat="40.5522409" lon="16.665501"><ele>343.0</ele><time>2026-03-29T14:22:15.935Z</time></trkpt><trkpt lat="40.5531295" lon="16.665483"><ele>343.0</ele><time>2026-03-29T14:22:18.47Z</time></trkpt><trkpt lat="40.5531987" lon="16.6655108"><ele>343.0</ele><time>2026-03-29T14:22:24.55Z</time></trkpt><trkpt lat="40.5531339" lon="16.6655394"><ele>343.0</ele><time>2026-03-29T14:22:34.539Z</time></trkpt><trkpt lat="40.5530344" lon="16.6656083"><ele>343.0</ele><time>2026-03-29T14:22:38.941Z</time></trkpt><trkpt lat="40.5529838" lon="16.6656598"><ele>343.0</ele><time>2026-03-29T14:22:47.513Z</time></trkpt><trkpt lat="40.5530329" lon="16.6657368"><ele>343.0</ele><time>2026-03-29T14:22:50.498Z</time></trkpt><trkpt lat="40.5531026" lon="16.6657183"><ele>343.0</ele><time>2026-03-29T14:22:54.517Z</time></trkpt><trkpt lat="40.553136" lon="16.6656479"><ele>343.0</ele><time>2026-03-29T14:22:59.456Z</time></trkpt><trkpt lat="40.5530967" lon="16.6655689"><ele>343.0</ele><time>2026-03-29T14:23:12.543Z</time></trkpt><trkpt lat="40.5531557" lon="16.6656064"><ele>343.0</ele><time>2026-03-29T14:23:42.509Z</time></trkpt><trkpt lat="40.5531149" lon="16.6656785"><ele>343.0</ele><time>2026-03-29T14:23:56.517Z</time></trkpt><trkpt lat="40.5531376" lon="16.6657673"><ele>343.0</ele><time>2026-03-29T14:24:12.476Z</time></trkpt><trkpt lat="40.5532173" lon="16.6657621"><ele>343.0</ele><time>2026-03-29T14:24:25.909Z</time></trkpt><trkpt lat="40.5524652" lon="16.6650678"><ele>343.0</ele><time>2026-03-29T14:25:03.915Z</time></trkpt><trkpt lat="40.5523773" lon="16.6652198"><ele>343.0</ele><time>2026-03-29T14:25:11.546Z</time></trkpt><trkpt lat="40.5531706" lon="16.6657074"><ele>343.0</ele><time>2026-03-29T14:25:12.525Z</time></trkpt><trkpt lat="40.5531906" lon="16.6657935"><ele>343.0</ele><time>2026-03-29T14:25:23.547Z</time></trkpt><trkpt lat="40.553308" lon="16.6657345"><ele>343.0</ele><time>2026-03-29T14:25:34.454Z</time></trkpt><trkpt lat="40.5532072" lon="16.665638"><ele>343.0</ele><time>2026-03-29T14:25:41.992Z</time></trkpt><trkpt lat="40.5531194" lon="16.6657752"><ele>328.0</ele><time>2026-03-29T14:25:49.565Z</time></trkpt><trkpt lat="40.5525285" lon="16.66542"><ele>328.0</ele><time>2026-03-29T14:26:04.777Z</time></trkpt><trkpt lat="40.5526515" lon="16.6655032"><ele>328.0</ele><time>2026-03-29T14:26:27.476Z</time></trkpt><trkpt lat="40.5532333" lon="16.6656857"><ele>343.0</ele><time>2026-03-29T14:26:35.072Z</time></trkpt><trkpt lat="40.5530719" lon="16.6656903"><ele>343.0</ele><time>2026-03-29T14:28:45.455Z</time></trkpt><trkpt lat="40.553111" lon="16.6656213"><ele>343.0</ele><time>2026-03-29T14:30:36.455Z</time></trkpt></trkseg><trkseg><trkpt lat="40.5534122" lon="16.6660609"><ele>343.0</ele><time>2026-04-12T12:35:50.523Z</time></trkpt><trkpt lat="40.5534048" lon="16.6659375"><ele>343.0</ele><time>2026-04-12T12:35:56.479Z</time></trkpt><trkpt lat="40.553448" lon="16.6658239"><ele>343.0</ele><time>2026-04-12T12:36:05.509Z</time></trkpt><trkpt lat="40.5536367" lon="16.6655667"><ele>343.0</ele><time>2026-04-12T12:36:06.438Z</time></trkpt><trkpt lat="40.5536883" lon="16.665645"><ele>343.0</ele><time>2026-04-12T12:36:09.44Z</time></trkpt><trkpt lat="40.5537233" lon="16.6657383"><ele>343.0</ele><time>2026-04-12T12:36:11.439Z</time></trkpt><trkpt lat="40.553765" lon="16.6658483"><ele>343.0</ele><time>2026-04-12T12:36:13.443Z</time></trkpt><trkpt lat="40.5537967" lon="16.66598"><ele>343.0</ele><time>2026-04-12T12:36:15.443Z</time></trkpt><trkpt lat="40.5538183" lon="16.6660617"><ele>343.0</ele><time>2026-04-12T12:36:16.439Z</time></trkpt><trkpt lat="40.5538433" lon="16.666145"><ele>342.5</ele><time>2026-04-12T12:36:17.441Z</time></trkpt><trkpt lat="40.55387" lon="16.6662333"><ele>342.0</ele><time>2026-04-12T12:36:18.439Z</time></trkpt><trkpt lat="40.5539067" lon="16.66633"><ele>341.5</ele><time>2026-04-12T12:36:19.44Z</time></trkpt><trkpt lat="40.5539383" lon="16.6664283"><ele>341.0</ele><time>2026-04-12T12:36:20.439Z</time></trkpt><trkpt lat="40.5539667" lon="16.66652"><ele>340.5</ele><time>2026-04-12T12:36:21.439Z</time></trkpt><trkpt lat="40.5539933" lon="16.66661"><ele>340.0</ele><time>2026-04-12T12:36:22.44Z</time></trkpt><trkpt lat="40.5540167" lon="16.6666933"><ele>340.0</ele><time>2026-04-12T12:36:23.44Z</time></trkpt><trkpt lat="40.5540417" lon="16.6667733"><ele>340.0</ele><time>2026-04-12T12:36:24.44Z</time></trkpt><trkpt lat="40.5540717" lon="16.6668483"><ele>340.0</ele><time>2026-04-12T12:36:25.439Z</time></trkpt><trkpt lat="40.5541317" lon="16.667"><ele>340.0</ele><time>2026-04-12T12:36:27.438Z</time></trkpt><trkpt lat="40.5541617" lon="16.6670733"><ele>340.0</ele><time>2026-04-12T12:36:28.44Z</time></trkpt><trkpt lat="40.5542167" lon="16.6671633"><ele>340.0</ele><time>2026-04-12T12:36:30.439Z</time></trkpt><trkpt lat="40.5542" lon="16.6672483"><ele>340.0</ele><time>2026-04-12T12:36:34.44Z</time></trkpt><trkpt lat="40.5541567" lon="16.6673133"><ele>340.0</ele><time>2026-04-12T12:36:36.439Z</time></trkpt><trkpt lat="40.5541117" lon="16.6673717"><ele>340.0</ele><time>2026-04-12T12:36:38.44Z</time></trkpt><trkpt lat="40.554035" lon="16.66736"><ele>340.0</ele><time>2026-04-12T12:36:40.439Z</time></trkpt><trkpt lat="40.5539533" lon="16.6673567"><ele>340.0</ele><time>2026-04-12T12:36:42.44Z</time></trkpt><trkpt lat="40.553855" lon="16.6673433"><ele>340.0</ele><time>2026-04-12T12:36:44.44Z</time></trkpt><trkpt lat="40.553755" lon="16.66733"><ele>339.0</ele><time>2026-04-12T12:36:46.44Z</time></trkpt><trkpt lat="40.5536617" lon="16.667315"><ele>338.0</ele><time>2026-04-12T12:36:48.441Z</time></trkpt><trkpt lat="40.553555" lon="16.6673083"><ele>337.0</ele><time>2026-04-12T12:36:50.441Z</time></trkpt><trkpt lat="40.55347" lon="16.6672917"><ele>336.0</ele><time>2026-04-12T12:36:52.44Z</time></trkpt><trkpt lat="40.553375" lon="16.66727"><ele>335.0</ele><time>2026-04-12T12:36:54.439Z</time></trkpt><trkpt lat="40.553275" lon="16.6672483"><ele>335.0</ele><time>2026-04-12T12:36:56.44Z</time></trkpt><trkpt lat="40.5531767" lon="16.66722"><ele>335.0</ele><time>2026-04-12T12:36:58.44Z</time></trkpt><trkpt lat="40.553085" lon="16.6671817"><ele>335.0</ele><time>2026-04-12T12:37:00.44Z</time></trkpt><trkpt lat="40.5529983" lon="16.66714"><ele>335.0</ele><time>2026-04-12T12:37:02.441Z</time></trkpt><trkpt lat="40.552915" lon="16.6670967"><ele>335.0</ele><time>2026-04-12T12:37:04.439Z</time></trkpt><trkpt lat="40.5528117" lon="16.6670483"><ele>334.83333333333337</ele><time>2026-04-12T12:37:06.44Z</time></trkpt><trkpt lat="40.5527133" lon="16.6669883"><ele>334.6666666666667</ele><time>2026-04-12T12:37:08.44Z</time></trkpt><trkpt lat="40.5526167" lon="16.6668883"><ele>334.5</ele><time>2026-04-12T12:37:10.439Z</time></trkpt><trkpt lat="40.5525717" lon="16.6668233"><ele>334.3333333333333</ele><time>2026-04-12T12:37:11.441Z</time></trkpt><trkpt lat="40.552525" lon="16.666755"><ele>334.16666666666663</ele><time>2026-04-12T12:37:12.439Z</time></trkpt><trkpt lat="40.55248" lon="16.6666867"><ele>334.0</ele><time>2026-04-12T12:37:13.44Z</time></trkpt><trkpt lat="40.5524333" lon="16.6666233"><ele>334.0</ele><time>2026-04-12T12:37:14.441Z</time></trkpt><trkpt lat="40.5523883" lon="16.666555"><ele>334.0</ele><time>2026-04-12T12:37:15.439Z</time></trkpt><trkpt lat="40.552345" lon="16.6664867"><ele>334.0</ele><time>2026-04-12T12:37:16.44Z</time></trkpt><trkpt lat="40.5523033" lon="16.6664167"><ele>334.0</ele><time>2026-04-12T12:37:17.44Z</time></trkpt><trkpt lat="40.5522467" lon="16.6662767"><ele>334.0</ele><time>2026-04-12T12:37:19.44Z</time></trkpt><trkpt lat="40.5522017" lon="16.6661417"><ele>334.0</ele><time>2026-04-12T12:37:21.439Z</time></trkpt><trkpt lat="40.55213" lon="16.6660833"><ele>333.2</ele><time>2026-04-12T12:37:23.441Z</time></trkpt><trkpt lat="40.5520533" lon="16.666095"><ele>332.4</ele><time>2026-04-12T12:37:25.438Z</time></trkpt><trkpt lat="40.5519667" lon="16.6661067"><ele>331.6</ele><time>2026-04-12T12:37:27.439Z</time></trkpt><trkpt lat="40.5518667" lon="16.6661233"><ele>330.8</ele><time>2026-04-12T12:37:29.44Z</time></trkpt><trkpt lat="40.551745" lon="16.66614"><ele>330.0</ele><time>2026-04-12T12:37:31.44Z</time></trkpt><trkpt lat="40.5516783" lon="16.6661483"><ele>330.0</ele><time>2026-04-12T12:37:32.44Z</time></trkpt><trkpt lat="40.5515533" lon="16.6661583"><ele>330.0</ele><time>2026-04-12T12:37:34.44Z</time></trkpt><trkpt lat="40.55149" lon="16.66617"><ele>330.0</ele><time>2026-04-12T12:37:35.44Z</time></trkpt><trkpt lat="40.551425" lon="16.6661833"><ele>330.0</ele><time>2026-04-12T12:37:36.439Z</time></trkpt><trkpt lat="40.551355" lon="16.6661933"><ele>330.0</ele><time>2026-04-12T12:37:37.439Z</time></trkpt><trkpt lat="40.5512867" lon="16.6662017"><ele>330.0</ele><time>2026-04-12T12:37:38.443Z</time></trkpt><trkpt lat="40.551215" lon="16.6662067"><ele>329.7142857142857</ele><time>2026-04-12T12:37:39.44Z</time></trkpt><trkpt lat="40.55115" lon="16.6662117"><ele>329.42857142857144</ele><time>2026-04-12T12:37:40.443Z</time></trkpt><trkpt lat="40.551085" lon="16.6662217"><ele>329.1428571428571</ele><time>2026-04-12T12:37:41.441Z</time></trkpt><trkpt lat="40.551015" lon="16.6662317"><ele>328.8571428571429</ele><time>2026-04-12T12:37:42.44Z</time></trkpt><trkpt lat="40.550945" lon="16.66624"><ele>328.57142857142856</ele><time>2026-04-12T12:37:43.44Z</time></trkpt><trkpt lat="40.5508767" lon="16.6662467"><ele>328.2857142857143</ele><time>2026-04-12T12:37:44.44Z</time></trkpt><trkpt lat="40.55081" lon="16.6662533"><ele>328.0</ele><time>2026-04-12T12:37:45.439Z</time></trkpt><trkpt lat="40.5507433" lon="16.6662633"><ele>327.99999999999994</ele><time>2026-04-12T12:37:46.439Z</time></trkpt><trkpt lat="40.5506783" lon="16.6662717"><ele>328.0</ele><time>2026-04-12T12:37:47.441Z</time></trkpt><trkpt lat="40.5506133" lon="16.666285"><ele>328.0</ele><time>2026-04-12T12:37:48.439Z</time></trkpt><trkpt lat="40.550545" lon="16.666295"><ele>328.0</ele><time>2026-04-12T12:37:49.44Z</time></trkpt><trkpt lat="40.55048" lon="16.6663033"><ele>328.0</ele><time>2026-04-12T12:37:50.446Z</time></trkpt><trkpt lat="40.550415" lon="16.66631"><ele>327.99999999999994</ele><time>2026-04-12T12:37:51.439Z</time></trkpt><trkpt lat="40.5503483" lon="16.6663133"><ele>328.0</ele><time>2026-04-12T12:37:52.442Z</time></trkpt><trkpt lat="40.550285" lon="16.666315"><ele>328.0</ele><time>2026-04-12T12:37:53.441Z</time></trkpt><trkpt lat="40.5502167" lon="16.6663167"><ele>328.0</ele><time>2026-04-12T12:37:54.442Z</time></trkpt><trkpt lat="40.5501533" lon="16.6663167"><ele>328.0</ele><time>2026-04-12T12:37:55.439Z</time></trkpt><trkpt lat="40.5500317" lon="16.6663183"><ele>328.0</ele><time>2026-04-12T12:37:57.439Z</time></trkpt><trkpt lat="40.5499667" lon="16.6663183"><ele>328.0</ele><time>2026-04-12T12:37:58.44Z</time></trkpt><trkpt lat="40.5498417" lon="16.6663317"><ele>328.0</ele><time>2026-04-12T12:38:00.44Z</time></trkpt><trkpt lat="40.549725" lon="16.6663317"><ele>328.0</ele><time>2026-04-12T12:38:02.441Z</time></trkpt><trkpt lat="40.5496117" lon="16.6663367"><ele>328.0</ele><time>2026-04-12T12:38:04.443Z</time></trkpt><trkpt lat="40.5495017" lon="16.66636"><ele>328.0</ele><time>2026-04-12T12:38:06.44Z</time></trkpt><trkpt lat="40.5494033" lon="16.666405"><ele>328.0</ele><time>2026-04-12T12:38:08.441Z</time></trkpt><trkpt lat="40.5493067" lon="16.6664283"><ele>328.0</ele><time>2026-04-12T12:38:10.441Z</time></trkpt><trkpt lat="40.54922" lon="16.66646"><ele>326.66666666666663</ele><time>2026-04-12T12:38:12.439Z</time></trkpt><trkpt lat="40.54914" lon="16.6664883"><ele>325.3333333333333</ele><time>2026-04-12T12:38:14.44Z</time></trkpt><trkpt lat="40.5490633" lon="16.6665133"><ele>324.0</ele><time>2026-04-12T12:38:16.44Z</time></trkpt><trkpt lat="40.5489883" lon="16.6665383"><ele>322.6666666666667</ele><time>2026-04-12T12:38:18.44Z</time></trkpt><trkpt lat="40.5489033" lon="16.6665733"><ele>321.33333333333337</ele><time>2026-04-12T12:38:20.44Z</time></trkpt><trkpt lat="40.5488033" lon="16.6666067"><ele>320.0</ele><time>2026-04-12T12:38:22.44Z</time></trkpt><trkpt lat="40.54869" lon="16.6666417"><ele>318.25</ele><time>2026-04-12T12:38:24.439Z</time></trkpt><trkpt lat="40.54858" lon="16.6666833"><ele>316.5</ele><time>2026-04-12T12:38:26.438Z</time></trkpt><trkpt lat="40.5484633" lon="16.66672"><ele>314.75</ele><time>2026-04-12T12:38:28.439Z</time></trkpt><trkpt lat="40.5483483" lon="16.6667467"><ele>313.0</ele><time>2026-04-12T12:38:30.439Z</time></trkpt><trkpt lat="40.548235" lon="16.6667867"><ele>313.0</ele><time>2026-04-12T12:38:32.441Z</time></trkpt><trkpt lat="40.5481333" lon="16.666825"><ele>313.0</ele><time>2026-04-12T12:38:34.44Z</time></trkpt><trkpt lat="40.54802" lon="16.6668533"><ele>313.0</ele><time>2026-04-12T12:38:36.438Z</time></trkpt><trkpt lat="40.5479" lon="16.6668933"><ele>313.0</ele><time>2026-04-12T12:38:38.442Z</time></trkpt><trkpt lat="40.547835" lon="16.6669133"><ele>313.0</ele><time>2026-04-12T12:38:39.437Z</time></trkpt><trkpt lat="40.5477733" lon="16.6669317"><ele>313.5</ele><time>2026-04-12T12:38:40.438Z</time></trkpt><trkpt lat="40.5477117" lon="16.6669517"><ele>314.0</ele><time>2026-04-12T12:38:41.438Z</time></trkpt><trkpt lat="40.54765" lon="16.6669683"><ele>314.5</ele><time>2026-04-12T12:38:42.438Z</time></trkpt><trkpt lat="40.547525" lon="16.667"><ele>315.0</ele><time>2026-04-12T12:38:44.439Z</time></trkpt><trkpt lat="40.5474633" lon="16.6670217"><ele>315.5</ele><time>2026-04-12T12:38:45.439Z</time></trkpt><trkpt lat="40.5474017" lon="16.667045"><ele>316.0</ele><time>2026-04-12T12:38:46.438Z</time></trkpt><trkpt lat="40.5472783" lon="16.6670767"><ele>316.0</ele><time>2026-04-12T12:38:48.438Z</time></trkpt><trkpt lat="40.5471617" lon="16.66709"><ele>316.0</ele><time>2026-04-12T12:38:50.439Z</time></trkpt><trkpt lat="40.5470483" lon="16.667105"><ele>316.0</ele><time>2026-04-12T12:38:52.44Z</time></trkpt><trkpt lat="40.5469317" lon="16.6671167"><ele>316.0</ele><time>2026-04-12T12:38:54.439Z</time></trkpt><trkpt lat="40.5468167" lon="16.6671083"><ele>314.0</ele><time>2026-04-12T12:38:56.439Z</time></trkpt><trkpt lat="40.5467" lon="16.6670917"><ele>312.0</ele><time>2026-04-12T12:38:58.442Z</time></trkpt><trkpt lat="40.546585" lon="16.66708"><ele>310.0</ele><time>2026-04-12T12:39:00.443Z</time></trkpt><trkpt lat="40.5464717" lon="16.6670533"><ele>308.0</ele><time>2026-04-12T12:39:02.44Z</time></trkpt><trkpt lat="40.5463567" lon="16.6670267"><ele>308.0</ele><time>2026-04-12T12:39:04.439Z</time></trkpt><trkpt lat="40.5462383" lon="16.6669967"><ele>308.0</ele><time>2026-04-12T12:39:06.438Z</time></trkpt><trkpt lat="40.546175" lon="16.6669917"><ele>308.0</ele><time>2026-04-12T12:39:07.438Z</time></trkpt><trkpt lat="40.5461083" lon="16.6669967"><ele>308.0</ele><time>2026-04-12T12:39:08.439Z</time></trkpt><trkpt lat="40.5460433" lon="16.66699"><ele>308.0</ele><time>2026-04-12T12:39:09.439Z</time></trkpt><trkpt lat="40.5459233" lon="16.6669817"><ele>308.0</ele><time>2026-04-12T12:39:11.439Z</time></trkpt><trkpt lat="40.5458033" lon="16.6670067"><ele>307.83333333333337</ele><time>2026-04-12T12:39:13.44Z</time></trkpt><trkpt lat="40.5456867" lon="16.66706"><ele>307.6666666666667</ele><time>2026-04-12T12:39:15.439Z</time></trkpt><trkpt lat="40.54563" lon="16.6670967"><ele>307.5</ele><time>2026-04-12T12:39:16.438Z</time></trkpt><trkpt lat="40.54557" lon="16.6671283"><ele>307.3333333333333</ele><time>2026-04-12T12:39:17.441Z</time></trkpt><trkpt lat="40.5455117" lon="16.66716"><ele>307.16666666666663</ele><time>2026-04-12T12:39:18.439Z</time></trkpt><trkpt lat="40.5453983" lon="16.6672233"><ele>307.0</ele><time>2026-04-12T12:39:20.446Z</time></trkpt><trkpt lat="40.54534" lon="16.6672567"><ele>306.8</ele><time>2026-04-12T12:39:21.438Z</time></trkpt><trkpt lat="40.5452333" lon="16.6673317"><ele>306.6</ele><time>2026-04-12T12:39:23.439Z</time></trkpt><trkpt lat="40.5451283" lon="16.6674033"><ele>306.40000000000003</ele><time>2026-04-12T12:39:25.439Z</time></trkpt><trkpt lat="40.545025" lon="16.6674883"><ele>306.2</ele><time>2026-04-12T12:39:27.438Z</time></trkpt><trkpt lat="40.54497" lon="16.6675417"><ele>306.0</ele><time>2026-04-12T12:39:28.437Z</time></trkpt><trkpt lat="40.544925" lon="16.6676"><ele>306.0</ele><time>2026-04-12T12:39:29.439Z</time></trkpt><trkpt lat="40.5448517" lon="16.6677333"><ele>306.0</ele><time>2026-04-12T12:39:31.439Z</time></trkpt><trkpt lat="40.54479" lon="16.667875"><ele>306.0</ele><time>2026-04-12T12:39:33.439Z</time></trkpt><trkpt lat="40.5447367" lon="16.66803"><ele>306.0</ele><time>2026-04-12T12:39:35.44Z</time></trkpt><trkpt lat="40.5447083" lon="16.6681117"><ele>306.0</ele><time>2026-04-12T12:39:36.439Z</time></trkpt><trkpt lat="40.5446771" lon="16.6681914"><ele>306.8</ele><time>2026-04-12T12:39:37.439Z</time></trkpt><trkpt lat="40.5446446" lon="16.6682686"><ele>307.6</ele><time>2026-04-12T12:39:38.44Z</time></trkpt><trkpt lat="40.5446133" lon="16.6683408"><ele>308.4</ele><time>2026-04-12T12:39:39.439Z</time></trkpt><trkpt lat="40.5445465" lon="16.6684747"><ele>309.2</ele><time>2026-04-12T12:39:41.438Z</time></trkpt><trkpt lat="40.5444771" lon="16.6686036"><ele>310.0</ele><time>2026-04-12T12:39:43.438Z</time></trkpt><trkpt lat="40.5444234" lon="16.6687514"><ele>308.66666666666663</ele><time>2026-04-12T12:39:45.439Z</time></trkpt><trkpt lat="40.5443858" lon="16.6688255"><ele>307.3333333333333</ele><time>2026-04-12T12:39:46.438Z</time></trkpt><trkpt lat="40.5443427" lon="16.6688927"><ele>306.0</ele><time>2026-04-12T12:39:47.438Z</time></trkpt><trkpt lat="40.544301" lon="16.668955"><ele>304.6666666666667</ele><time>2026-04-12T12:39:48.438Z</time></trkpt><trkpt lat="40.5442283" lon="16.6690802"><ele>303.33333333333337</ele><time>2026-04-12T12:39:50.439Z</time></trkpt><trkpt lat="40.5441556" lon="16.6692144"><ele>302.0</ele><time>2026-04-12T12:39:52.441Z</time></trkpt><trkpt lat="40.5440756" lon="16.6693477"><ele>302.00000000000006</ele><time>2026-04-12T12:39:54.438Z</time></trkpt><trkpt lat="40.5440306" lon="16.6694215"><ele>302.0</ele><time>2026-04-12T12:39:55.44Z</time></trkpt><trkpt lat="40.5439854" lon="16.6694954"><ele>302.0</ele><time>2026-04-12T12:39:56.439Z</time></trkpt><trkpt lat="40.5439405" lon="16.6695683"><ele>302.0</ele><time>2026-04-12T12:39:57.439Z</time></trkpt><trkpt lat="40.5438924" lon="16.6696429"><ele>302.0</ele><time>2026-04-12T12:39:58.439Z</time></trkpt><trkpt lat="40.5438432" lon="16.6697198"><ele>302.00000000000006</ele><time>2026-04-12T12:39:59.441Z</time></trkpt><trkpt lat="40.5437929" lon="16.6698024"><ele>302.0</ele><time>2026-04-12T12:40:00.439Z</time></trkpt><trkpt lat="40.5437403" lon="16.6698887"><ele>300.2</ele><time>2026-04-12T12:40:01.439Z</time></trkpt><trkpt lat="40.5436851" lon="16.6699793"><ele>298.4</ele><time>2026-04-12T12:40:02.44Z</time></trkpt><trkpt lat="40.5436306" lon="16.670073"><ele>296.6</ele><time>2026-04-12T12:40:03.439Z</time></trkpt><trkpt lat="40.5435767" lon="16.6701646"><ele>294.8</ele><time>2026-04-12T12:40:04.438Z</time></trkpt><trkpt lat="40.5435155" lon="16.6702659"><ele>293.0</ele><time>2026-04-12T12:40:05.438Z</time></trkpt><trkpt lat="40.5434548" lon="16.6703681"><ele>292.2</ele><time>2026-04-12T12:40:06.438Z</time></trkpt><trkpt lat="40.5433945" lon="16.6704698"><ele>291.4</ele><time>2026-04-12T12:40:07.439Z</time></trkpt><trkpt lat="40.5433371" lon="16.6705728"><ele>290.59999999999997</ele><time>2026-04-12T12:40:08.44Z</time></trkpt><trkpt lat="40.5432793" lon="16.6706723"><ele>289.8</ele><time>2026-04-12T12:40:09.437Z</time></trkpt><trkpt lat="40.5432235" lon="16.6707691"><ele>289.0</ele><time>2026-04-12T12:40:10.438Z</time></trkpt><trkpt lat="40.5431667" lon="16.6708669"><ele>289.0</ele><time>2026-04-12T12:40:11.439Z</time></trkpt><trkpt lat="40.5431057" lon="16.6709652"><ele>289.0</ele><time>2026-04-12T12:40:12.439Z</time></trkpt><trkpt lat="40.5430455" lon="16.6710632"><ele>289.0</ele><time>2026-04-12T12:40:13.438Z</time></trkpt><trkpt lat="40.5429867" lon="16.67116"><ele>289.0</ele><time>2026-04-12T12:40:14.44Z</time></trkpt><trkpt lat="40.5429298" lon="16.6712553"><ele>289.0</ele><time>2026-04-12T12:40:15.439Z</time></trkpt><trkpt lat="40.5428719" lon="16.6713547"><ele>288.4</ele><time>2026-04-12T12:40:16.439Z</time></trkpt><trkpt lat="40.5428121" lon="16.6714593"><ele>287.79999999999995</ele><time>2026-04-12T12:40:17.439Z</time></trkpt><trkpt lat="40.5427506" lon="16.6715719"><ele>287.20000000000005</ele><time>2026-04-12T12:40:18.439Z</time></trkpt><trkpt lat="40.5426845" lon="16.6716916"><ele>286.6</ele><time>2026-04-12T12:40:19.439Z</time></trkpt><trkpt lat="40.5426145" lon="16.6718123"><ele>286.0</ele><time>2026-04-12T12:40:20.439Z</time></trkpt><trkpt lat="40.5425439" lon="16.6719269"><ele>286.8</ele><time>2026-04-12T12:40:21.438Z</time></trkpt><trkpt lat="40.5424722" lon="16.6720362"><ele>287.6</ele><time>2026-04-12T12:40:22.44Z</time></trkpt><trkpt lat="40.5424034" lon="16.6721469"><ele>288.4</ele><time>2026-04-12T12:40:23.439Z</time></trkpt><trkpt lat="40.5423381" lon="16.6722599"><ele>289.2</ele><time>2026-04-12T12:40:24.44Z</time></trkpt><trkpt lat="40.5422737" lon="16.6723704"><ele>290.0</ele><time>2026-04-12T12:40:25.438Z</time></trkpt><trkpt lat="40.5422104" lon="16.6724748"><ele>290.0</ele><time>2026-04-12T12:40:26.439Z</time></trkpt><trkpt lat="40.5421485" lon="16.6725789"><ele>290.0</ele><time>2026-04-12T12:40:27.438Z</time></trkpt><trkpt lat="40.5420855" lon="16.6726785"><ele>290.0</ele><time>2026-04-12T12:40:28.439Z</time></trkpt><trkpt lat="40.5420237" lon="16.6727798"><ele>290.0</ele><time>2026-04-12T12:40:29.439Z</time></trkpt><trkpt lat="40.5419631" lon="16.6728854"><ele>290.0</ele><time>2026-04-12T12:40:30.44Z</time></trkpt><trkpt lat="40.5418985" lon="16.6729976"><ele>287.25</ele><time>2026-04-12T12:40:31.439Z</time></trkpt><trkpt lat="40.5418307" lon="16.6731162"><ele>284.5</ele><time>2026-04-12T12:40:32.439Z</time></trkpt><trkpt lat="40.5417667" lon="16.6732425"><ele>281.75</ele><time>2026-04-12T12:40:33.438Z</time></trkpt><trkpt lat="40.5417139" lon="16.6733799"><ele>279.0</ele><time>2026-04-12T12:40:34.439Z</time></trkpt><trkpt lat="40.5416775" lon="16.6735235"><ele>279.4</ele><time>2026-04-12T12:40:35.438Z</time></trkpt><trkpt lat="40.5416568" lon="16.673668"><ele>279.79999999999995</ele><time>2026-04-12T12:40:36.438Z</time></trkpt><trkpt lat="40.5416487" lon="16.6738144"><ele>280.20000000000005</ele><time>2026-04-12T12:40:37.44Z</time></trkpt><trkpt lat="40.5416496" lon="16.6739572"><ele>280.6</ele><time>2026-04-12T12:40:38.439Z</time></trkpt><trkpt lat="40.5416569" lon="16.6741026"><ele>281.0</ele><time>2026-04-12T12:40:39.439Z</time></trkpt><trkpt lat="40.5416648" lon="16.6742489"><ele>281.0</ele><time>2026-04-12T12:40:40.44Z</time></trkpt><trkpt lat="40.5416705" lon="16.674394"><ele>281.0</ele><time>2026-04-12T12:40:41.439Z</time></trkpt><trkpt lat="40.5416741" lon="16.6745378"><ele>281.0</ele><time>2026-04-12T12:40:42.44Z</time></trkpt><trkpt lat="40.5416762" lon="16.6746856"><ele>281.0</ele><time>2026-04-12T12:40:43.439Z</time></trkpt><trkpt lat="40.5416817" lon="16.6748383"><ele>281.0</ele><time>2026-04-12T12:40:44.439Z</time></trkpt><trkpt lat="40.5416883" lon="16.67499"><ele>281.0</ele><time>2026-04-12T12:40:45.443Z</time></trkpt><trkpt lat="40.54169" lon="16.6751383"><ele>281.0</ele><time>2026-04-12T12:40:46.438Z</time></trkpt><trkpt lat="40.54169" lon="16.6752883"><ele>281.0</ele><time>2026-04-12T12:40:47.438Z</time></trkpt><trkpt lat="40.54169" lon="16.6754367"><ele>281.0</ele><time>2026-04-12T12:40:48.44Z</time></trkpt><trkpt lat="40.5416817" lon="16.6755883"><ele>280.25</ele><time>2026-04-12T12:40:49.44Z</time></trkpt><trkpt lat="40.5416567" lon="16.67574"><ele>279.5</ele><time>2026-04-12T12:40:50.439Z</time></trkpt><trkpt lat="40.541615" lon="16.6758783"><ele>278.75</ele><time>2026-04-12T12:40:51.439Z</time></trkpt><trkpt lat="40.5415583" lon="16.6760083"><ele>278.0</ele><time>2026-04-12T12:40:52.439Z</time></trkpt><trkpt lat="40.5414867" lon="16.676125"><ele>279.4</ele><time>2026-04-12T12:40:53.439Z</time></trkpt><trkpt lat="40.5414083" lon="16.6762333"><ele>280.8</ele><time>2026-04-12T12:40:54.439Z</time></trkpt><trkpt lat="40.54133" lon="16.6763383"><ele>282.2</ele><time>2026-04-12T12:40:55.439Z</time></trkpt><trkpt lat="40.5412533" lon="16.6764433"><ele>283.6</ele><time>2026-04-12T12:40:56.44Z</time></trkpt><trkpt lat="40.5411783" lon="16.6765533"><ele>285.0</ele><time>2026-04-12T12:40:57.439Z</time></trkpt><trkpt lat="40.54111" lon="16.6766683"><ele>285.0</ele><time>2026-04-12T12:40:58.439Z</time></trkpt><trkpt lat="40.5410433" lon="16.6767933"><ele>285.0</ele><time>2026-04-12T12:40:59.439Z</time></trkpt><trkpt lat="40.5409867" lon="16.6769233"><ele>285.0</ele><time>2026-04-12T12:41:00.439Z</time></trkpt><trkpt lat="40.5409317" lon="16.67706"><ele>285.0</ele><time>2026-04-12T12:41:01.44Z</time></trkpt><trkpt lat="40.5408817" lon="16.6771983"><ele>284.0</ele><time>2026-04-12T12:41:02.439Z</time></trkpt><trkpt lat="40.5408367" lon="16.6773433"><ele>283.0</ele><time>2026-04-12T12:41:03.439Z</time></trkpt><trkpt lat="40.5407917" lon="16.677485"><ele>282.0</ele><time>2026-04-12T12:41:04.44Z</time></trkpt><trkpt lat="40.5407433" lon="16.67762"><ele>281.0</ele><time>2026-04-12T12:41:05.438Z</time></trkpt><trkpt lat="40.5406967" lon="16.6777567"><ele>278.8</ele><time>2026-04-12T12:41:06.438Z</time></trkpt><trkpt lat="40.540665" lon="16.67789"><ele>276.6</ele><time>2026-04-12T12:41:07.439Z</time></trkpt><trkpt lat="40.5406333" lon="16.6780317"><ele>274.4</ele><time>2026-04-12T12:41:08.44Z</time></trkpt><trkpt lat="40.5406133" lon="16.6781767"><ele>272.2</ele><time>2026-04-12T12:41:09.439Z</time></trkpt><trkpt lat="40.5406017" lon="16.6783267"><ele>270.0</ele><time>2026-04-12T12:41:10.439Z</time></trkpt><trkpt lat="40.5405967" lon="16.6784767"><ele>268.25</ele><time>2026-04-12T12:41:11.44Z</time></trkpt><trkpt lat="40.54059" lon="16.6786283"><ele>266.5</ele><time>2026-04-12T12:41:12.439Z</time></trkpt><trkpt lat="40.5405783" lon="16.6787817"><ele>264.75</ele><time>2026-04-12T12:41:13.439Z</time></trkpt><trkpt lat="40.540565" lon="16.6789333"><ele>263.0</ele><time>2026-04-12T12:41:14.44Z</time></trkpt><trkpt lat="40.5405517" lon="16.6790883"><ele>263.0</ele><time>2026-04-12T12:41:15.439Z</time></trkpt><trkpt lat="40.54054" lon="16.67924"><ele>263.0</ele><time>2026-04-12T12:41:16.439Z</time></trkpt><trkpt lat="40.5405317" lon="16.6793867"><ele>263.0</ele><time>2026-04-12T12:41:17.439Z</time></trkpt><trkpt lat="40.5405267" lon="16.6795317"><ele>263.0</ele><time>2026-04-12T12:41:18.438Z</time></trkpt><trkpt lat="40.54052" lon="16.6796783"><ele>263.4</ele><time>2026-04-12T12:41:19.439Z</time></trkpt><trkpt lat="40.5405133" lon="16.6798217"><ele>263.8</ele><time>2026-04-12T12:41:20.44Z</time></trkpt><trkpt lat="40.5405017" lon="16.6799583"><ele>264.2</ele><time>2026-04-12T12:41:21.439Z</time></trkpt><trkpt lat="40.54049" lon="16.68009"><ele>264.6</ele><time>2026-04-12T12:41:22.439Z</time></trkpt><trkpt lat="40.5404783" lon="16.68022"><ele>265.0</ele><time>2026-04-12T12:41:23.439Z</time></trkpt><trkpt lat="40.5404583" lon="16.6803517"><ele>264.6</ele><time>2026-04-12T12:41:24.439Z</time></trkpt><trkpt lat="40.5404283" lon="16.6804767"><ele>264.2</ele><time>2026-04-12T12:41:25.439Z</time></trkpt><trkpt lat="40.5403917" lon="16.6805933"><ele>263.8</ele><time>2026-04-12T12:41:26.438Z</time></trkpt><trkpt lat="40.540345" lon="16.680705"><ele>263.4</ele><time>2026-04-12T12:41:27.439Z</time></trkpt><trkpt lat="40.54029" lon="16.6808167"><ele>263.0</ele><time>2026-04-12T12:41:28.439Z</time></trkpt><trkpt lat="40.5402333" lon="16.6809167"><ele>263.0</ele><time>2026-04-12T12:41:29.44Z</time></trkpt><trkpt lat="40.540175" lon="16.6810017"><ele>263.0</ele><time>2026-04-12T12:41:30.439Z</time></trkpt><trkpt lat="40.54012" lon="16.68107"><ele>263.0</ele><time>2026-04-12T12:41:31.439Z</time></trkpt><trkpt lat="40.5400717" lon="16.6811283"><ele>263.0</ele><time>2026-04-12T12:41:32.439Z</time></trkpt><trkpt lat="40.5400033" lon="16.6812217"><ele>263.0</ele><time>2026-04-12T12:41:34.439Z</time></trkpt><trkpt lat="40.539955" lon="16.6812917"><ele>263.0</ele><time>2026-04-12T12:41:37.44Z</time></trkpt><trkpt lat="40.5399067" lon="16.681425"><ele>264.0</ele><time>2026-04-12T12:43:25.439Z</time></trkpt><trkpt lat="40.539865" lon="16.6815"><ele>265.0</ele><time>2026-04-12T12:43:26.44Z</time></trkpt><trkpt lat="40.539815" lon="16.6815883"><ele>266.0</ele><time>2026-04-12T12:43:27.44Z</time></trkpt><trkpt lat="40.5397533" lon="16.68169"><ele>267.0</ele><time>2026-04-12T12:43:28.439Z</time></trkpt><trkpt lat="40.5396917" lon="16.6817917"><ele>268.0</ele><time>2026-04-12T12:43:29.439Z</time></trkpt><trkpt lat="40.5396367" lon="16.6818917"><ele>269.0</ele><time>2026-04-12T12:43:30.439Z</time></trkpt><trkpt lat="40.5395817" lon="16.6819883"><ele>268.8</ele><time>2026-04-12T12:43:31.439Z</time></trkpt><trkpt lat="40.5395267" lon="16.6820867"><ele>268.59999999999997</ele><time>2026-04-12T12:43:32.441Z</time></trkpt><trkpt lat="40.5394667" lon="16.682185"><ele>268.4</ele><time>2026-04-12T12:43:33.44Z</time></trkpt><trkpt lat="40.539405" lon="16.68228"><ele>268.2</ele><time>2026-04-12T12:43:34.44Z</time></trkpt><trkpt lat="40.5393433" lon="16.68237"><ele>268.0</ele><time>2026-04-12T12:43:35.439Z</time></trkpt><trkpt lat="40.5392783" lon="16.68246"><ele>268.0</ele><time>2026-04-12T12:43:36.44Z</time></trkpt><trkpt lat="40.5392117" lon="16.6825483"><ele>268.0</ele><time>2026-04-12T12:43:37.439Z</time></trkpt><trkpt lat="40.5391433" lon="16.6826317"><ele>268.0</ele><time>2026-04-12T12:43:38.44Z</time></trkpt><trkpt lat="40.5390683" lon="16.682705"><ele>268.0</ele><time>2026-04-12T12:43:39.44Z</time></trkpt><trkpt lat="40.53899" lon="16.682775"><ele>268.0</ele><time>2026-04-12T12:43:40.439Z</time></trkpt><trkpt lat="40.5389033" lon="16.6828467"><ele>268.0</ele><time>2026-04-12T12:43:41.439Z</time></trkpt><trkpt lat="40.53882" lon="16.6829233"><ele>268.0</ele><time>2026-04-12T12:43:42.44Z</time></trkpt><trkpt lat="40.53874" lon="16.6830083"><ele>268.0</ele><time>2026-04-12T12:43:43.441Z</time></trkpt><trkpt lat="40.538665" lon="16.6831117"><ele>268.0</ele><time>2026-04-12T12:43:44.44Z</time></trkpt><trkpt lat="40.5386083" lon="16.6832383"><ele>268.0</ele><time>2026-04-12T12:43:45.439Z</time></trkpt><trkpt lat="40.5385683" lon="16.68338"><ele>268.0</ele><time>2026-04-12T12:43:46.438Z</time></trkpt><trkpt lat="40.5385433" lon="16.6835433"><ele>268.0</ele><time>2026-04-12T12:43:47.439Z</time></trkpt><trkpt lat="40.538525" lon="16.683715"><ele>268.0</ele><time>2026-04-12T12:43:48.44Z</time></trkpt><trkpt lat="40.5385017" lon="16.683875"><ele>268.0</ele><time>2026-04-12T12:43:49.439Z</time></trkpt><trkpt lat="40.5384583" lon="16.6840217"><ele>271.0</ele><time>2026-04-12T12:43:50.442Z</time></trkpt><trkpt lat="40.5383833" lon="16.684155"><ele>274.0</ele><time>2026-04-12T12:43:51.439Z</time></trkpt><trkpt lat="40.5382817" lon="16.6842683"><ele>277.0</ele><time>2026-04-12T12:43:52.439Z</time></trkpt><trkpt lat="40.53817" lon="16.6843717"><ele>280.0</ele><time>2026-04-12T12:43:53.439Z</time></trkpt><trkpt lat="40.538055" lon="16.6844717"><ele>280.5</ele><time>2026-04-12T12:43:54.439Z</time></trkpt><trkpt lat="40.5379417" lon="16.6845783"><ele>281.0</ele><time>2026-04-12T12:43:55.44Z</time></trkpt><trkpt lat="40.5378283" lon="16.68469"><ele>281.5</ele><time>2026-04-12T12:43:56.441Z</time></trkpt><trkpt lat="40.5377167" lon="16.684805"><ele>282.0</ele><time>2026-04-12T12:43:57.44Z</time></trkpt><trkpt lat="40.53761" lon="16.6849233"><ele>280.75</ele><time>2026-04-12T12:43:58.439Z</time></trkpt><trkpt lat="40.5375083" lon="16.6850417"><ele>279.5</ele><time>2026-04-12T12:43:59.439Z</time></trkpt><trkpt lat="40.537405" lon="16.68516"><ele>278.25</ele><time>2026-04-12T12:44:00.439Z</time></trkpt><trkpt lat="40.5373033" lon="16.685285"><ele>277.0</ele><time>2026-04-12T12:44:01.44Z</time></trkpt><trkpt lat="40.5372067" lon="16.6854117"><ele>277.0</ele><time>2026-04-12T12:44:02.443Z</time></trkpt><trkpt lat="40.5371133" lon="16.6855433"><ele>277.0</ele><time>2026-04-12T12:44:03.439Z</time></trkpt><trkpt lat="40.5370283" lon="16.68568"><ele>277.0</ele><time>2026-04-12T12:44:04.439Z</time></trkpt><trkpt lat="40.5369533" lon="16.6858317"><ele>277.0</ele><time>2026-04-12T12:44:05.439Z</time></trkpt><trkpt lat="40.5368867" lon="16.6859883"><ele>276.0</ele><time>2026-04-12T12:44:06.439Z</time></trkpt><trkpt lat="40.5368217" lon="16.6861483"><ele>275.0</ele><time>2026-04-12T12:44:07.439Z</time></trkpt><trkpt lat="40.536755" lon="16.6863067"><ele>274.0</ele><time>2026-04-12T12:44:08.44Z</time></trkpt><trkpt lat="40.5366883" lon="16.6864633"><ele>273.0</ele><time>2026-04-12T12:44:09.439Z</time></trkpt><trkpt lat="40.5366217" lon="16.6866217"><ele>273.0</ele><time>2026-04-12T12:44:10.44Z</time></trkpt><trkpt lat="40.536555" lon="16.6867817"><ele>273.0</ele><time>2026-04-12T12:44:11.44Z</time></trkpt><trkpt lat="40.53649" lon="16.6869433"><ele>273.0</ele><time>2026-04-12T12:44:12.44Z</time></trkpt><trkpt lat="40.5364217" lon="16.6871033"><ele>273.0</ele><time>2026-04-12T12:44:13.44Z</time></trkpt><trkpt lat="40.53635" lon="16.68726"><ele>272.25</ele><time>2026-04-12T12:44:14.44Z</time></trkpt><trkpt lat="40.5362667" lon="16.68741"><ele>271.5</ele><time>2026-04-12T12:44:15.439Z</time></trkpt><trkpt lat="40.5361683" lon="16.68754"><ele>270.75</ele><time>2026-04-12T12:44:16.439Z</time></trkpt><trkpt lat="40.5360567" lon="16.68765"><ele>270.0</ele><time>2026-04-12T12:44:17.439Z</time></trkpt><trkpt lat="40.53594" lon="16.68775"><ele>269.75</ele><time>2026-04-12T12:44:18.441Z</time></trkpt><trkpt lat="40.5358217" lon="16.6878433"><ele>269.5</ele><time>2026-04-12T12:44:19.44Z</time></trkpt><trkpt lat="40.5357017" lon="16.6879317"><ele>269.25</ele><time>2026-04-12T12:44:20.441Z</time></trkpt><trkpt lat="40.5355817" lon="16.6880183"><ele>269.0</ele><time>2026-04-12T12:44:21.44Z</time></trkpt><trkpt lat="40.5354617" lon="16.6881067"><ele>268.5</ele><time>2026-04-12T12:44:22.439Z</time></trkpt><trkpt lat="40.53534" lon="16.6881983"><ele>268.0</ele><time>2026-04-12T12:44:23.439Z</time></trkpt><trkpt lat="40.53522" lon="16.68829"><ele>267.5</ele><time>2026-04-12T12:44:24.439Z</time></trkpt><trkpt lat="40.5350983" lon="16.6883817"><ele>267.0</ele><time>2026-04-12T12:44:25.438Z</time></trkpt><trkpt lat="40.534975" lon="16.6884733"><ele>267.0</ele><time>2026-04-12T12:44:26.439Z</time></trkpt><trkpt lat="40.53485" lon="16.688565"><ele>267.0</ele><time>2026-04-12T12:44:27.44Z</time></trkpt><trkpt lat="40.534725" lon="16.6886567"><ele>267.0</ele><time>2026-04-12T12:44:28.439Z</time></trkpt><trkpt lat="40.5345983" lon="16.6887483"><ele>267.0</ele><time>2026-04-12T12:44:29.44Z</time></trkpt><trkpt lat="40.53447" lon="16.688845"><ele>265.3333333333333</ele><time>2026-04-12T12:44:30.439Z</time></trkpt><trkpt lat="40.5343417" lon="16.6889417"><ele>263.66666666666663</ele><time>2026-04-12T12:44:31.439Z</time></trkpt><trkpt lat="40.53421" lon="16.6890383"><ele>262.0</ele><time>2026-04-12T12:44:32.44Z</time></trkpt><trkpt lat="40.5340783" lon="16.6891367"><ele>262.0</ele><time>2026-04-12T12:44:33.439Z</time></trkpt><trkpt lat="40.533945" lon="16.6892383"><ele>262.0</ele><time>2026-04-12T12:44:34.44Z</time></trkpt><trkpt lat="40.5338133" lon="16.6893417"><ele>262.0</ele><time>2026-04-12T12:44:35.439Z</time></trkpt><trkpt lat="40.53368" lon="16.6894467"><ele>260.66666666666663</ele><time>2026-04-12T12:44:36.44Z</time></trkpt><trkpt lat="40.5335483" lon="16.6895467"><ele>259.3333333333333</ele><time>2026-04-12T12:44:37.44Z</time></trkpt><trkpt lat="40.533415" lon="16.689645"><ele>258.0</ele><time>2026-04-12T12:44:38.44Z</time></trkpt><trkpt lat="40.533285" lon="16.68974"><ele>258.0</ele><time>2026-04-12T12:44:39.44Z</time></trkpt><trkpt lat="40.5331567" lon="16.6898317"><ele>258.0</ele><time>2026-04-12T12:44:40.44Z</time></trkpt><trkpt lat="40.5330267" lon="16.68992"><ele>258.0</ele><time>2026-04-12T12:44:41.44Z</time></trkpt><trkpt lat="40.5328967" lon="16.6900067"><ele>258.0</ele><time>2026-04-12T12:44:42.44Z</time></trkpt><trkpt lat="40.5327667" lon="16.6900833"><ele>256.75</ele><time>2026-04-12T12:44:43.44Z</time></trkpt><trkpt lat="40.5326367" lon="16.69015"><ele>255.5</ele><time>2026-04-12T12:44:44.44Z</time></trkpt><trkpt lat="40.5325067" lon="16.6902117"><ele>254.25</ele><time>2026-04-12T12:44:45.439Z</time></trkpt><trkpt lat="40.53238" lon="16.69027"><ele>253.0</ele><time>2026-04-12T12:44:46.438Z</time></trkpt><trkpt lat="40.5322567" lon="16.6903283"><ele>253.0</ele><time>2026-04-12T12:44:47.44Z</time></trkpt><trkpt lat="40.5321367" lon="16.6903967"><ele>253.0</ele><time>2026-04-12T12:44:48.439Z</time></trkpt><trkpt lat="40.5320267" lon="16.69048"><ele>253.0</ele><time>2026-04-12T12:44:49.44Z</time></trkpt><trkpt lat="40.5319267" lon="16.690595"><ele>253.0</ele><time>2026-04-12T12:44:50.44Z</time></trkpt><trkpt lat="40.531845" lon="16.6907483"><ele>249.0</ele><time>2026-04-12T12:44:51.44Z</time></trkpt><trkpt lat="40.5317833" lon="16.6909283"><ele>245.0</ele><time>2026-04-12T12:44:52.44Z</time></trkpt><trkpt lat="40.5317367" lon="16.6911283"><ele>241.0</ele><time>2026-04-12T12:44:53.439Z</time></trkpt><trkpt lat="40.5316933" lon="16.6913333"><ele>240.66666666666666</ele><time>2026-04-12T12:44:54.44Z</time></trkpt><trkpt lat="40.5316467" lon="16.6915317"><ele>240.33333333333331</ele><time>2026-04-12T12:44:55.44Z</time></trkpt><trkpt lat="40.531595" lon="16.6917267"><ele>240.0</ele><time>2026-04-12T12:44:56.44Z</time></trkpt><trkpt lat="40.5315433" lon="16.6919167"><ele>238.66666666666669</ele><time>2026-04-12T12:44:57.439Z</time></trkpt><trkpt lat="40.53149" lon="16.692105"><ele>237.33333333333334</ele><time>2026-04-12T12:44:58.44Z</time></trkpt><trkpt lat="40.531435" lon="16.6922883"><ele>236.0</ele><time>2026-04-12T12:44:59.44Z</time></trkpt><trkpt lat="40.5313717" lon="16.6924667"><ele>236.0</ele><time>2026-04-12T12:45:00.439Z</time></trkpt><trkpt lat="40.5313" lon="16.69264"><ele>236.0</ele><time>2026-04-12T12:45:01.439Z</time></trkpt><trkpt lat="40.531215" lon="16.6928033"><ele>236.0</ele><time>2026-04-12T12:45:02.441Z</time></trkpt><trkpt lat="40.53112" lon="16.6929583"><ele>233.0</ele><time>2026-04-12T12:45:03.441Z</time></trkpt><trkpt lat="40.5310167" lon="16.6931067"><ele>230.0</ele><time>2026-04-12T12:45:04.442Z</time></trkpt><trkpt lat="40.5309067" lon="16.6932533"><ele>227.0</ele><time>2026-04-12T12:45:05.44Z</time></trkpt><trkpt lat="40.5307917" lon="16.6934"><ele>227.0</ele><time>2026-04-12T12:45:06.439Z</time></trkpt><trkpt lat="40.530675" lon="16.6935183"><ele>227.0</ele><time>2026-04-12T12:45:07.443Z</time></trkpt><trkpt lat="40.53055" lon="16.6936183"><ele>227.0</ele><time>2026-04-12T12:45:08.44Z</time></trkpt><trkpt lat="40.5304183" lon="16.6937033"><ele>227.0</ele><time>2026-04-12T12:45:09.439Z</time></trkpt><trkpt lat="40.5302883" lon="16.6937783"><ele>227.25</ele><time>2026-04-12T12:45:10.439Z</time></trkpt><trkpt lat="40.5301617" lon="16.6938583"><ele>227.5</ele><time>2026-04-12T12:45:11.444Z</time></trkpt><trkpt lat="40.530035" lon="16.6939383"><ele>227.75</ele><time>2026-04-12T12:45:12.439Z</time></trkpt><trkpt lat="40.5299117" lon="16.6940183"><ele>228.0</ele><time>2026-04-12T12:45:13.438Z</time></trkpt><trkpt lat="40.52979" lon="16.69409"><ele>228.0</ele><time>2026-04-12T12:45:14.441Z</time></trkpt><trkpt lat="40.5296683" lon="16.6941667"><ele>228.0</ele><time>2026-04-12T12:45:15.455Z</time></trkpt><trkpt lat="40.5295517" lon="16.69425"><ele>228.0</ele><time>2026-04-12T12:45:16.441Z</time></trkpt><trkpt lat="40.529445" lon="16.6943483"><ele>228.0</ele><time>2026-04-12T12:45:17.441Z</time></trkpt><trkpt lat="40.529345" lon="16.6944617"><ele>227.25</ele><time>2026-04-12T12:45:18.449Z</time></trkpt><trkpt lat="40.529255" lon="16.6945883"><ele>226.5</ele><time>2026-04-12T12:45:19.449Z</time></trkpt><trkpt lat="40.5291683" lon="16.6947267"><ele>225.75</ele><time>2026-04-12T12:45:20.452Z</time></trkpt><trkpt lat="40.52909" lon="16.6948767"><ele>225.0</ele><time>2026-04-12T12:45:21.449Z</time></trkpt><trkpt lat="40.5290333" lon="16.6950383"><ele>225.0</ele><time>2026-04-12T12:45:22.448Z</time></trkpt><trkpt lat="40.528985" lon="16.6952133"><ele>225.0</ele><time>2026-04-12T12:45:23.45Z</time></trkpt><trkpt lat="40.5289367" lon="16.6953967"><ele>225.0</ele><time>2026-04-12T12:45:24.45Z</time></trkpt><trkpt lat="40.5288933" lon="16.6955767"><ele>225.0</ele><time>2026-04-12T12:45:25.442Z</time></trkpt><trkpt lat="40.5288517" lon="16.6957517"><ele>223.25</ele><time>2026-04-12T12:45:26.442Z</time></trkpt><trkpt lat="40.528795" lon="16.69592"><ele>221.5</ele><time>2026-04-12T12:45:27.439Z</time></trkpt><trkpt lat="40.5287333" lon="16.6960883"><ele>219.75</ele><time>2026-04-12T12:45:28.443Z</time></trkpt><trkpt lat="40.528655" lon="16.6962267"><ele>218.0</ele><time>2026-04-12T12:45:29.442Z</time></trkpt><trkpt lat="40.52858" lon="16.6963617"><ele>218.0</ele><time>2026-04-12T12:45:30.446Z</time></trkpt><trkpt lat="40.5285067" lon="16.6964983"><ele>218.0</ele><time>2026-04-12T12:45:31.439Z</time></trkpt><trkpt lat="40.528435" lon="16.696635"><ele>218.0</ele><time>2026-04-12T12:45:32.438Z</time></trkpt><trkpt lat="40.528365" lon="16.6967667"><ele>218.0</ele><time>2026-04-12T12:45:33.439Z</time></trkpt><trkpt lat="40.528295" lon="16.6968883"><ele>217.75</ele><time>2026-04-12T12:45:34.439Z</time></trkpt><trkpt lat="40.5282183" lon="16.6970017"><ele>217.5</ele><time>2026-04-12T12:45:35.438Z</time></trkpt><trkpt lat="40.5281267" lon="16.6970867"><ele>217.25</ele><time>2026-04-12T12:45:36.439Z</time></trkpt><trkpt lat="40.5280117" lon="16.6971367"><ele>217.0</ele><time>2026-04-12T12:45:37.44Z</time></trkpt><trkpt lat="40.5278917" lon="16.6971733"><ele>215.75</ele><time>2026-04-12T12:45:38.439Z</time></trkpt><trkpt lat="40.5277633" lon="16.69717"><ele>214.5</ele><time>2026-04-12T12:45:39.439Z</time></trkpt><trkpt lat="40.5276367" lon="16.6971417"><ele>213.25</ele><time>2026-04-12T12:45:40.439Z</time></trkpt><trkpt lat="40.5275067" lon="16.6971"><ele>212.0</ele><time>2026-04-12T12:45:41.44Z</time></trkpt><trkpt lat="40.5273717" lon="16.6970517"><ele>212.0</ele><time>2026-04-12T12:45:42.439Z</time></trkpt><trkpt lat="40.52724" lon="16.6970167"><ele>212.0</ele><time>2026-04-12T12:45:43.442Z</time></trkpt><trkpt lat="40.5271117" lon="16.6969817"><ele>212.0</ele><time>2026-04-12T12:45:44.439Z</time></trkpt><trkpt lat="40.5269867" lon="16.6969483"><ele>212.0</ele><time>2026-04-12T12:45:45.438Z</time></trkpt><trkpt lat="40.52686" lon="16.6969083"><ele>211.25</ele><time>2026-04-12T12:45:46.438Z</time></trkpt><trkpt lat="40.5267333" lon="16.6968833"><ele>210.5</ele><time>2026-04-12T12:45:47.439Z</time></trkpt><trkpt lat="40.5266083" lon="16.6968683"><ele>209.75</ele><time>2026-04-12T12:45:48.439Z</time></trkpt><trkpt lat="40.5264833" lon="16.696855"><ele>209.0</ele><time>2026-04-12T12:45:49.438Z</time></trkpt><trkpt lat="40.5263583" lon="16.6968367"><ele>209.0</ele><time>2026-04-12T12:45:50.44Z</time></trkpt><trkpt lat="40.5262433" lon="16.6968267"><ele>209.0</ele><time>2026-04-12T12:45:51.439Z</time></trkpt><trkpt lat="40.526125" lon="16.6968167"><ele>209.0</ele><time>2026-04-12T12:45:52.44Z</time></trkpt><trkpt lat="40.52601" lon="16.6968083"><ele>209.0</ele><time>2026-04-12T12:45:53.439Z</time></trkpt><trkpt lat="40.5258967" lon="16.6968017"><ele>208.0</ele><time>2026-04-12T12:45:54.438Z</time></trkpt><trkpt lat="40.5257883" lon="16.6967933"><ele>207.0</ele><time>2026-04-12T12:45:55.439Z</time></trkpt><trkpt lat="40.5256833" lon="16.696785"><ele>206.0</ele><time>2026-04-12T12:45:56.439Z</time></trkpt><trkpt lat="40.5255817" lon="16.69678"><ele>205.0</ele><time>2026-04-12T12:45:57.439Z</time></trkpt><trkpt lat="40.5254817" lon="16.6967767"><ele>204.0</ele><time>2026-04-12T12:45:58.522Z</time></trkpt><trkpt lat="40.52538" lon="16.69678"><ele>202.66666666666669</ele><time>2026-04-12T12:45:59.439Z</time></trkpt><trkpt lat="40.5252733" lon="16.6967867"><ele>201.33333333333334</ele><time>2026-04-12T12:46:00.439Z</time></trkpt><trkpt lat="40.525165" lon="16.6968033"><ele>200.0</ele><time>2026-04-12T12:46:01.444Z</time></trkpt><trkpt lat="40.5249267" lon="16.6968683"><ele>200.0</ele><time>2026-04-12T12:46:03.439Z</time></trkpt><trkpt lat="40.5247917" lon="16.6969017"><ele>200.0</ele><time>2026-04-12T12:46:04.439Z</time></trkpt><trkpt lat="40.52465" lon="16.6969183"><ele>200.0</ele><time>2026-04-12T12:46:05.439Z</time></trkpt><trkpt lat="40.5245033" lon="16.6969183"><ele>200.0</ele><time>2026-04-12T12:46:06.441Z</time></trkpt><trkpt lat="40.5243583" lon="16.6969017"><ele>198.0</ele><time>2026-04-12T12:46:07.438Z</time></trkpt><trkpt lat="40.5242133" lon="16.6968817"><ele>196.0</ele><time>2026-04-12T12:46:08.439Z</time></trkpt><trkpt lat="40.5240733" lon="16.6968667"><ele>194.0</ele><time>2026-04-12T12:46:09.439Z</time></trkpt><trkpt lat="40.5239367" lon="16.6968617"><ele>192.0</ele><time>2026-04-12T12:46:10.439Z</time></trkpt><trkpt lat="40.5238083" lon="16.6968733"><ele>192.5</ele><time>2026-04-12T12:46:11.439Z</time></trkpt><trkpt lat="40.523685" lon="16.6969033"><ele>193.0</ele><time>2026-04-12T12:46:12.439Z</time></trkpt><trkpt lat="40.5235617" lon="16.6969417"><ele>193.5</ele><time>2026-04-12T12:46:13.44Z</time></trkpt><trkpt lat="40.52344" lon="16.696985"><ele>194.0</ele><time>2026-04-12T12:46:14.44Z</time></trkpt><trkpt lat="40.52332" lon="16.6970333"><ele>194.5</ele><time>2026-04-12T12:46:15.439Z</time></trkpt><trkpt lat="40.5232" lon="16.6970883"><ele>195.0</ele><time>2026-04-12T12:46:16.438Z</time></trkpt><trkpt lat="40.5230767" lon="16.6971467"><ele>195.5</ele><time>2026-04-12T12:46:17.439Z</time></trkpt><trkpt lat="40.5229467" lon="16.6971983"><ele>196.0</ele><time>2026-04-12T12:46:18.439Z</time></trkpt><trkpt lat="40.5228167" lon="16.6972483"><ele>196.0</ele><time>2026-04-12T12:46:19.439Z</time></trkpt><trkpt lat="40.5226883" lon="16.6973033"><ele>196.0</ele><time>2026-04-12T12:46:20.439Z</time></trkpt><trkpt lat="40.52256" lon="16.6973583"><ele>196.0</ele><time>2026-04-12T12:46:21.439Z</time></trkpt><trkpt lat="40.5224333" lon="16.6974083"><ele>196.0</ele><time>2026-04-12T12:46:22.439Z</time></trkpt><trkpt lat="40.522305" lon="16.6974567"><ele>196.0</ele><time>2026-04-12T12:46:23.439Z</time></trkpt><trkpt lat="40.52218" lon="16.6975067"><ele>196.0</ele><time>2026-04-12T12:46:24.438Z</time></trkpt><trkpt lat="40.5220533" lon="16.6975567"><ele>196.0</ele><time>2026-04-12T12:46:25.439Z</time></trkpt><trkpt lat="40.52193" lon="16.69761"><ele>196.0</ele><time>2026-04-12T12:46:26.44Z</time></trkpt><trkpt lat="40.521805" lon="16.697665"><ele>196.0</ele><time>2026-04-12T12:46:27.438Z</time></trkpt><trkpt lat="40.521685" lon="16.6977283"><ele>196.0</ele><time>2026-04-12T12:46:28.439Z</time></trkpt><trkpt lat="40.52157" lon="16.6978117"><ele>196.0</ele><time>2026-04-12T12:46:29.439Z</time></trkpt><trkpt lat="40.521475" lon="16.69793"><ele>196.0</ele><time>2026-04-12T12:46:30.439Z</time></trkpt><trkpt lat="40.521405" lon="16.69808"><ele>195.75</ele><time>2026-04-12T12:46:31.439Z</time></trkpt><trkpt lat="40.52135" lon="16.698245"><ele>195.5</ele><time>2026-04-12T12:46:32.44Z</time></trkpt><trkpt lat="40.5213" lon="16.698415"><ele>195.25</ele><time>2026-04-12T12:46:33.439Z</time></trkpt><trkpt lat="40.521255" lon="16.698585"><ele>195.0</ele><time>2026-04-12T12:46:34.439Z</time></trkpt><trkpt lat="40.5212167" lon="16.6987567"><ele>193.25</ele><time>2026-04-12T12:46:35.439Z</time></trkpt><trkpt lat="40.5211767" lon="16.6989267"><ele>191.5</ele><time>2026-04-12T12:46:36.439Z</time></trkpt><trkpt lat="40.5211317" lon="16.6991033"><ele>189.75</ele><time>2026-04-12T12:46:37.439Z</time></trkpt><trkpt lat="40.52108" lon="16.6992833"><ele>188.0</ele><time>2026-04-12T12:46:38.441Z</time></trkpt><trkpt lat="40.5210217" lon="16.6994617"><ele>188.0</ele><time>2026-04-12T12:46:39.439Z</time></trkpt><trkpt lat="40.5209533" lon="16.69964"><ele>188.0</ele><time>2026-04-12T12:46:40.438Z</time></trkpt><trkpt lat="40.5208767" lon="16.6998167"><ele>188.0</ele><time>2026-04-12T12:46:41.444Z</time></trkpt><trkpt lat="40.5207917" lon="16.6999917"><ele>188.0</ele><time>2026-04-12T12:46:42.439Z</time></trkpt><trkpt lat="40.520705" lon="16.700165"><ele>188.0</ele><time>2026-04-12T12:46:43.439Z</time></trkpt><trkpt lat="40.5206167" lon="16.700335"><ele>188.0</ele><time>2026-04-12T12:46:44.44Z</time></trkpt><trkpt lat="40.5205317" lon="16.7005033"><ele>187.0</ele><time>2026-04-12T12:46:45.44Z</time></trkpt><trkpt lat="40.5204433" lon="16.7006733"><ele>186.0</ele><time>2026-04-12T12:46:46.439Z</time></trkpt><trkpt lat="40.52035" lon="16.70084"><ele>185.0</ele><time>2026-04-12T12:46:47.439Z</time></trkpt><trkpt lat="40.5202517" lon="16.700995"><ele>185.0</ele><time>2026-04-12T12:46:48.439Z</time></trkpt><trkpt lat="40.52015" lon="16.7011467"><ele>185.0</ele><time>2026-04-12T12:46:49.439Z</time></trkpt><trkpt lat="40.5200433" lon="16.701295"><ele>185.0</ele><time>2026-04-12T12:46:50.439Z</time></trkpt><trkpt lat="40.51994" lon="16.7014467"><ele>185.0</ele><time>2026-04-12T12:46:51.439Z</time></trkpt><trkpt lat="40.5198367" lon="16.7016017"><ele>185.0</ele><time>2026-04-12T12:46:52.439Z</time></trkpt><trkpt lat="40.5197333" lon="16.7017583"><ele>185.0</ele><time>2026-04-12T12:46:53.439Z</time></trkpt><trkpt lat="40.5196283" lon="16.701915"><ele>184.66666666666666</ele><time>2026-04-12T12:46:54.439Z</time></trkpt><trkpt lat="40.51952" lon="16.7020717"><ele>184.33333333333334</ele><time>2026-04-12T12:46:55.439Z</time></trkpt><trkpt lat="40.5194117" lon="16.7022283"><ele>184.0</ele><time>2026-04-12T12:46:56.44Z</time></trkpt><trkpt lat="40.519305" lon="16.7023867"><ele>184.0</ele><time>2026-04-12T12:46:57.439Z</time></trkpt><trkpt lat="40.5191967" lon="16.7025467"><ele>184.0</ele><time>2026-04-12T12:46:58.439Z</time></trkpt><trkpt lat="40.5190867" lon="16.7027067"><ele>184.0</ele><time>2026-04-12T12:46:59.439Z</time></trkpt><trkpt lat="40.5189767" lon="16.7028683"><ele>182.33333333333334</ele><time>2026-04-12T12:47:00.439Z</time></trkpt><trkpt lat="40.5188667" lon="16.7030283"><ele>180.66666666666666</ele><time>2026-04-12T12:47:01.439Z</time></trkpt><trkpt lat="40.518755" lon="16.7031867"><ele>179.0</ele><time>2026-04-12T12:47:02.439Z</time></trkpt><trkpt lat="40.518645" lon="16.703345"><ele>178.66666666666666</ele><time>2026-04-12T12:47:03.44Z</time></trkpt><trkpt lat="40.5185367" lon="16.703505"><ele>178.33333333333334</ele><time>2026-04-12T12:47:04.439Z</time></trkpt><trkpt lat="40.5184317" lon="16.7036617"><ele>178.0</ele><time>2026-04-12T12:47:05.44Z</time></trkpt><trkpt lat="40.5183267" lon="16.70382"><ele>177.33333333333334</ele><time>2026-04-12T12:47:06.438Z</time></trkpt><trkpt lat="40.51822" lon="16.7039783"><ele>176.66666666666666</ele><time>2026-04-12T12:47:07.439Z</time></trkpt><trkpt lat="40.51811" lon="16.70413"><ele>176.0</ele><time>2026-04-12T12:47:08.44Z</time></trkpt><trkpt lat="40.5179983" lon="16.7042867"><ele>174.66666666666666</ele><time>2026-04-12T12:47:09.439Z</time></trkpt><trkpt lat="40.51788" lon="16.7044417"><ele>173.33333333333334</ele><time>2026-04-12T12:47:10.439Z</time></trkpt><trkpt lat="40.5177617" lon="16.7045817"><ele>172.0</ele><time>2026-04-12T12:47:11.439Z</time></trkpt><trkpt lat="40.5176417" lon="16.7047083"><ele>172.0</ele><time>2026-04-12T12:47:12.439Z</time></trkpt><trkpt lat="40.5175183" lon="16.704825"><ele>172.0</ele><time>2026-04-12T12:47:13.439Z</time></trkpt><trkpt lat="40.5173933" lon="16.7049333"><ele>172.0</ele><time>2026-04-12T12:47:14.44Z</time></trkpt><trkpt lat="40.5172617" lon="16.7050333"><ele>172.0</ele><time>2026-04-12T12:47:15.439Z</time></trkpt><trkpt lat="40.5171267" lon="16.7051233"><ele>172.0</ele><time>2026-04-12T12:47:16.439Z</time></trkpt><trkpt lat="40.5169867" lon="16.7052067"><ele>172.0</ele><time>2026-04-12T12:47:17.44Z</time></trkpt><trkpt lat="40.5168467" lon="16.7052867"><ele>171.33333333333334</ele><time>2026-04-12T12:47:18.44Z</time></trkpt><trkpt lat="40.5167033" lon="16.705365"><ele>170.66666666666666</ele><time>2026-04-12T12:47:19.439Z</time></trkpt><trkpt lat="40.5165617" lon="16.7054417"><ele>170.0</ele><time>2026-04-12T12:47:20.44Z</time></trkpt><trkpt lat="40.5164317" lon="16.7055167"><ele>170.0</ele><time>2026-04-12T12:47:21.439Z</time></trkpt><trkpt lat="40.51631" lon="16.7056067"><ele>170.0</ele><time>2026-04-12T12:47:22.438Z</time></trkpt><trkpt lat="40.5162033" lon="16.7057217"><ele>170.0</ele><time>2026-04-12T12:47:23.439Z</time></trkpt><trkpt lat="40.51612" lon="16.7058683"><ele>170.0</ele><time>2026-04-12T12:47:24.439Z</time></trkpt><trkpt lat="40.5160567" lon="16.7060367"><ele>168.75</ele><time>2026-04-12T12:47:25.439Z</time></trkpt><trkpt lat="40.5160033" lon="16.7062083"><ele>167.5</ele><time>2026-04-12T12:47:26.44Z</time></trkpt><trkpt lat="40.5159533" lon="16.7063733"><ele>166.25</ele><time>2026-04-12T12:47:27.438Z</time></trkpt><trkpt lat="40.5159" lon="16.7065317"><ele>165.0</ele><time>2026-04-12T12:47:28.439Z</time></trkpt><trkpt lat="40.51585" lon="16.706685"><ele>165.0</ele><time>2026-04-12T12:47:29.438Z</time></trkpt><trkpt lat="40.5157967" lon="16.7068333"><ele>165.0</ele><time>2026-04-12T12:47:30.439Z</time></trkpt><trkpt lat="40.5157317" lon="16.7069583"><ele>165.0</ele><time>2026-04-12T12:47:31.44Z</time></trkpt><trkpt lat="40.5156467" lon="16.70704"><ele>165.0</ele><time>2026-04-12T12:47:32.44Z</time></trkpt><trkpt lat="40.515545" lon="16.707075"><ele>164.4</ele><time>2026-04-12T12:47:33.44Z</time></trkpt><trkpt lat="40.51544" lon="16.70706"><ele>163.8</ele><time>2026-04-12T12:47:34.439Z</time></trkpt><trkpt lat="40.5153333" lon="16.7070067"><ele>163.2</ele><time>2026-04-12T12:47:35.439Z</time></trkpt><trkpt lat="40.5152267" lon="16.70694"><ele>162.6</ele><time>2026-04-12T12:47:36.441Z</time></trkpt><trkpt lat="40.5151233" lon="16.7068867"><ele>162.0</ele><time>2026-04-12T12:47:37.439Z</time></trkpt><trkpt lat="40.5150233" lon="16.706845"><ele>160.6</ele><time>2026-04-12T12:47:38.439Z</time></trkpt><trkpt lat="40.51493" lon="16.7068033"><ele>159.2</ele><time>2026-04-12T12:47:39.44Z</time></trkpt><trkpt lat="40.5148417" lon="16.706755"><ele>157.8</ele><time>2026-04-12T12:47:40.439Z</time></trkpt><trkpt lat="40.5147533" lon="16.7067167"><ele>156.4</ele><time>2026-04-12T12:47:41.441Z</time></trkpt><trkpt lat="40.5146617" lon="16.7066967"><ele>155.0</ele><time>2026-04-12T12:47:42.439Z</time></trkpt><trkpt lat="40.5145667" lon="16.7066917"><ele>153.33333333333331</ele><time>2026-04-12T12:47:43.439Z</time></trkpt><trkpt lat="40.5144733" lon="16.7066967"><ele>151.66666666666666</ele><time>2026-04-12T12:47:44.44Z</time></trkpt><trkpt lat="40.5143833" lon="16.7066983"><ele>150.0</ele><time>2026-04-12T12:47:45.439Z</time></trkpt><trkpt lat="40.5143" lon="16.7066883"><ele>148.33333333333334</ele><time>2026-04-12T12:47:46.438Z</time></trkpt><trkpt lat="40.5142183" lon="16.706685"><ele>146.66666666666669</ele><time>2026-04-12T12:47:47.438Z</time></trkpt><trkpt lat="40.5141483" lon="16.7067117"><ele>145.0</ele><time>2026-04-12T12:47:48.44Z</time></trkpt><trkpt lat="40.5140833" lon="16.706765"><ele>145.0</ele><time>2026-04-12T12:47:49.439Z</time></trkpt><trkpt lat="40.5140367" lon="16.706835"><ele>145.0</ele><time>2026-04-12T12:47:50.439Z</time></trkpt><trkpt lat="40.514015" lon="16.706925"><ele>145.0</ele><time>2026-04-12T12:47:51.44Z</time></trkpt><trkpt lat="40.5140083" lon="16.7070233"><ele>145.0</ele><time>2026-04-12T12:47:52.439Z</time></trkpt><trkpt lat="40.513985" lon="16.7071117"><ele>145.0</ele><time>2026-04-12T12:47:53.439Z</time></trkpt><trkpt lat="40.513925" lon="16.7071783"><ele>145.0</ele><time>2026-04-12T12:47:54.444Z</time></trkpt><trkpt lat="40.5138483" lon="16.7072133"><ele>145.0</ele><time>2026-04-12T12:47:55.441Z</time></trkpt><trkpt lat="40.5137517" lon="16.7071983"><ele>141.8</ele><time>2026-04-12T12:47:56.44Z</time></trkpt><trkpt lat="40.51366" lon="16.7071833"><ele>138.6</ele><time>2026-04-12T12:47:57.439Z</time></trkpt><trkpt lat="40.513565" lon="16.7071983"><ele>135.4</ele><time>2026-04-12T12:47:58.439Z</time></trkpt><trkpt lat="40.5134733" lon="16.7072417"><ele>132.2</ele><time>2026-04-12T12:47:59.439Z</time></trkpt><trkpt lat="40.5133883" lon="16.7072983"><ele>129.0</ele><time>2026-04-12T12:48:00.44Z</time></trkpt><trkpt lat="40.51331" lon="16.7073667"><ele>129.0</ele><time>2026-04-12T12:48:01.439Z</time></trkpt><trkpt lat="40.5132333" lon="16.7074367"><ele>129.0</ele><time>2026-04-12T12:48:02.44Z</time></trkpt><trkpt lat="40.513155" lon="16.70751"><ele>129.0</ele><time>2026-04-12T12:48:03.439Z</time></trkpt><trkpt lat="40.5130717" lon="16.7075733"><ele>129.0</ele><time>2026-04-12T12:48:04.439Z</time></trkpt><trkpt lat="40.512985" lon="16.7076317"><ele>129.0</ele><time>2026-04-12T12:48:05.44Z</time></trkpt><trkpt lat="40.5129033" lon="16.7076933"><ele>127.0</ele><time>2026-04-12T12:48:06.438Z</time></trkpt><trkpt lat="40.512835" lon="16.7077667"><ele>125.0</ele><time>2026-04-12T12:48:07.438Z</time></trkpt><trkpt lat="40.5127767" lon="16.7078467"><ele>123.0</ele><time>2026-04-12T12:48:08.439Z</time></trkpt><trkpt lat="40.5127267" lon="16.7079167"><ele>121.0</ele><time>2026-04-12T12:48:09.44Z</time></trkpt><trkpt lat="40.51268" lon="16.70798"><ele>119.0</ele><time>2026-04-12T12:48:10.439Z</time></trkpt><trkpt lat="40.5125917" lon="16.7080567"><ele>117.0</ele><time>2026-04-12T12:48:12.441Z</time></trkpt><trkpt lat="40.5125033" lon="16.707985"><ele>117.0</ele><time>2026-04-12T12:48:14.44Z</time></trkpt><trkpt lat="40.5124717" lon="16.7078983"><ele>117.0</ele><time>2026-04-12T12:48:15.439Z</time></trkpt><trkpt lat="40.512435" lon="16.707805"><ele>117.0</ele><time>2026-04-12T12:48:16.442Z</time></trkpt><trkpt lat="40.512405" lon="16.70771"><ele>117.0</ele><time>2026-04-12T12:48:17.439Z</time></trkpt><trkpt lat="40.5123783" lon="16.70761"><ele>117.0</ele><time>2026-04-12T12:48:18.439Z</time></trkpt><trkpt lat="40.51233" lon="16.7075117"><ele>117.0</ele><time>2026-04-12T12:48:19.44Z</time></trkpt><trkpt lat="40.5122667" lon="16.7074217"><ele>115.71428571428572</ele><time>2026-04-12T12:48:20.439Z</time></trkpt><trkpt lat="40.5122033" lon="16.7073383"><ele>114.42857142857144</ele><time>2026-04-12T12:48:21.44Z</time></trkpt><trkpt lat="40.5121433" lon="16.7072617"><ele>113.14285714285714</ele><time>2026-04-12T12:48:22.44Z</time></trkpt><trkpt lat="40.51209" lon="16.7071967"><ele>111.85714285714286</ele><time>2026-04-12T12:48:23.439Z</time></trkpt><trkpt lat="40.5120383" lon="16.7071467"><ele>110.57142857142857</ele><time>2026-04-12T12:48:24.439Z</time></trkpt><trkpt lat="40.5119783" lon="16.70711"><ele>109.28571428571428</ele><time>2026-04-12T12:48:25.439Z</time></trkpt><trkpt lat="40.511915" lon="16.70709"><ele>108.0</ele><time>2026-04-12T12:48:26.439Z</time></trkpt><trkpt lat="40.5118467" lon="16.7070833"><ele>105.5</ele><time>2026-04-12T12:48:27.439Z</time></trkpt><trkpt lat="40.511775" lon="16.7070917"><ele>103.0</ele><time>2026-04-12T12:48:28.439Z</time></trkpt><trkpt lat="40.5116967" lon="16.7071"><ele>100.5</ele><time>2026-04-12T12:48:29.44Z</time></trkpt><trkpt lat="40.5116117" lon="16.70709"><ele>98.0</ele><time>2026-04-12T12:48:30.439Z</time></trkpt><trkpt lat="40.51153" lon="16.7070717"><ele>95.5</ele><time>2026-04-12T12:48:31.439Z</time></trkpt><trkpt lat="40.5114533" lon="16.707065"><ele>93.0</ele><time>2026-04-12T12:48:32.441Z</time></trkpt><trkpt lat="40.5113767" lon="16.7070767"><ele>93.0</ele><time>2026-04-12T12:48:33.439Z</time></trkpt><trkpt lat="40.51129" lon="16.7071017"><ele>93.0</ele><time>2026-04-12T12:48:34.439Z</time></trkpt><trkpt lat="40.51119" lon="16.70714"><ele>93.0</ele><time>2026-04-12T12:48:35.44Z</time></trkpt><trkpt lat="40.5110783" lon="16.7071833"><ele>93.0</ele><time>2026-04-12T12:48:36.441Z</time></trkpt><trkpt lat="40.510965" lon="16.7072183"><ele>93.0</ele><time>2026-04-12T12:48:37.44Z</time></trkpt><trkpt lat="40.51086" lon="16.707245"><ele>91.16666666666667</ele><time>2026-04-12T12:48:38.44Z</time></trkpt><trkpt lat="40.5107667" lon="16.7072717"><ele>89.33333333333333</ele><time>2026-04-12T12:48:39.439Z</time></trkpt><trkpt lat="40.5106883" lon="16.7073017"><ele>87.5</ele><time>2026-04-12T12:48:40.439Z</time></trkpt><trkpt lat="40.510615" lon="16.7073233"><ele>85.66666666666666</ele><time>2026-04-12T12:48:41.439Z</time></trkpt><trkpt lat="40.5105433" lon="16.7073433"><ele>83.83333333333333</ele><time>2026-04-12T12:48:42.44Z</time></trkpt><trkpt lat="40.5104683" lon="16.70736"><ele>82.0</ele><time>2026-04-12T12:48:43.439Z</time></trkpt><trkpt lat="40.5103917" lon="16.7073733"><ele>80.0</ele><time>2026-04-12T12:48:44.44Z</time></trkpt><trkpt lat="40.510315" lon="16.7073817"><ele>78.0</ele><time>2026-04-12T12:48:45.439Z</time></trkpt><trkpt lat="40.510235" lon="16.7073917"><ele>76.0</ele><time>2026-04-12T12:48:46.439Z</time></trkpt><trkpt lat="40.51015" lon="16.7074067"><ele>74.0</ele><time>2026-04-12T12:48:47.44Z</time></trkpt><trkpt lat="40.5100583" lon="16.7074267"><ele>72.0</ele><time>2026-04-12T12:48:48.44Z</time></trkpt><trkpt lat="40.509965" lon="16.7074483"><ele>70.0</ele><time>2026-04-12T12:48:49.442Z</time></trkpt><trkpt lat="40.50987" lon="16.7074717"><ele>70.0</ele><time>2026-04-12T12:48:50.44Z</time></trkpt><trkpt lat="40.5097783" lon="16.7074983"><ele>70.0</ele><time>2026-04-12T12:48:51.439Z</time></trkpt><trkpt lat="40.5096883" lon="16.7075217"><ele>70.0</ele><time>2026-04-12T12:48:52.439Z</time></trkpt><trkpt lat="40.5096033" lon="16.7075567"><ele>70.0</ele><time>2026-04-12T12:48:53.439Z</time></trkpt><trkpt lat="40.5095267" lon="16.7075917"><ele>70.0</ele><time>2026-04-12T12:48:54.439Z</time></trkpt><trkpt lat="40.509455" lon="16.7076233"><ele>70.0</ele><time>2026-04-12T12:48:55.438Z</time></trkpt><trkpt lat="40.5093817" lon="16.7076617"><ele>69.83333333333333</ele><time>2026-04-12T12:48:56.439Z</time></trkpt><trkpt lat="40.5093033" lon="16.7077033"><ele>69.66666666666666</ele><time>2026-04-12T12:48:57.439Z</time></trkpt><trkpt lat="40.5092183" lon="16.70774"><ele>69.5</ele><time>2026-04-12T12:48:58.44Z</time></trkpt><trkpt lat="40.5091317" lon="16.7077633"><ele>69.33333333333333</ele><time>2026-04-12T12:48:59.439Z</time></trkpt><trkpt lat="40.5090467" lon="16.7077817"><ele>69.16666666666667</ele><time>2026-04-12T12:49:00.44Z</time></trkpt><trkpt lat="40.5089633" lon="16.7077933"><ele>69.0</ele><time>2026-04-12T12:49:01.44Z</time></trkpt><trkpt lat="40.5088867" lon="16.7077983"><ele>69.0</ele><time>2026-04-12T12:49:02.44Z</time></trkpt><trkpt lat="40.5088133" lon="16.7078"><ele>69.0</ele><time>2026-04-12T12:49:03.439Z</time></trkpt><trkpt lat="40.50875" lon="16.7078033"><ele>69.0</ele><time>2026-04-12T12:49:04.439Z</time></trkpt><trkpt lat="40.508645" lon="16.70782"><ele>69.0</ele><time>2026-04-12T12:49:06.438Z</time></trkpt><trkpt lat="40.5085433" lon="16.70786"><ele>69.0</ele><time>2026-04-12T12:49:08.44Z</time></trkpt><trkpt lat="40.50846" lon="16.7079183"><ele>69.0</ele><time>2026-04-12T12:49:10.439Z</time></trkpt><trkpt lat="40.50838" lon="16.7079817"><ele>68.16666666666667</ele><time>2026-04-12T12:49:12.439Z</time></trkpt><trkpt lat="40.5083183" lon="16.7080567"><ele>67.33333333333333</ele><time>2026-04-12T12:49:14.439Z</time></trkpt><trkpt lat="40.5082517" lon="16.708105"><ele>66.5</ele><time>2026-04-12T12:49:16.439Z</time></trkpt><trkpt lat="40.508165" lon="16.7081267"><ele>65.66666666666666</ele><time>2026-04-12T12:49:18.44Z</time></trkpt><trkpt lat="40.5080767" lon="16.7081433"><ele>64.83333333333333</ele><time>2026-04-12T12:49:20.44Z</time></trkpt><trkpt lat="40.508005" lon="16.708145"><ele>64.0</ele><time>2026-04-12T12:49:29.44Z</time></trkpt><trkpt lat="40.50793" lon="16.7081333"><ele>63.83333333333333</ele><time>2026-04-12T12:49:33.439Z</time></trkpt><trkpt lat="40.50786" lon="16.7081333"><ele>63.666666666666664</ele><time>2026-04-12T12:49:36.44Z</time></trkpt><trkpt lat="40.5077783" lon="16.7081483"><ele>63.5</ele><time>2026-04-12T12:49:39.44Z</time></trkpt><trkpt lat="40.5077" lon="16.7081783"><ele>63.33333333333333</ele><time>2026-04-12T12:49:42.44Z</time></trkpt><trkpt lat="40.5076417" lon="16.7082117"><ele>63.166666666666664</ele><time>2026-04-12T12:49:44.44Z</time></trkpt><trkpt lat="40.5075667" lon="16.7082533"><ele>63.0</ele><time>2026-04-12T12:49:47.438Z</time></trkpt><trkpt lat="40.50749" lon="16.70828"><ele>63.0</ele><time>2026-04-12T12:49:50.441Z</time></trkpt><trkpt lat="40.507425" lon="16.7083333"><ele>63.0</ele><time>2026-04-12T12:49:53.439Z</time></trkpt><trkpt lat="40.5073683" lon="16.7083933"><ele>63.0</ele><time>2026-04-12T12:49:57.44Z</time></trkpt><trkpt lat="40.50731" lon="16.708435"><ele>63.0</ele><time>2026-04-12T12:50:00.44Z</time></trkpt><trkpt lat="40.5072333" lon="16.7084867"><ele>63.0</ele><time>2026-04-12T12:50:03.439Z</time></trkpt><trkpt lat="40.50717" lon="16.7085383"><ele>63.0</ele><time>2026-04-12T12:50:05.441Z</time></trkpt><trkpt lat="40.5071117" lon="16.7085983"><ele>62.333333333333336</ele><time>2026-04-12T12:50:07.439Z</time></trkpt><trkpt lat="40.507055" lon="16.70867"><ele>61.66666666666667</ele><time>2026-04-12T12:50:09.439Z</time></trkpt><trkpt lat="40.5070033" lon="16.7087267"><ele>61.0</ele><time>2026-04-12T12:50:11.44Z</time></trkpt><trkpt lat="40.5069383" lon="16.7088067"><ele>60.333333333333336</ele><time>2026-04-12T12:50:14.44Z</time></trkpt><trkpt lat="40.5068867" lon="16.708865"><ele>59.66666666666667</ele><time>2026-04-12T12:50:16.44Z</time></trkpt><trkpt lat="40.5068283" lon="16.7089067"><ele>59.0</ele><time>2026-04-12T12:50:18.439Z</time></trkpt><trkpt lat="40.50675" lon="16.70894"><ele>59.00000000000001</ele><time>2026-04-12T12:50:21.44Z</time></trkpt><trkpt lat="40.5066733" lon="16.7089467"><ele>59.0</ele><time>2026-04-12T12:50:24.44Z</time></trkpt><trkpt lat="40.5065833" lon="16.7089617"><ele>59.0</ele><time>2026-04-12T12:50:27.439Z</time></trkpt><trkpt lat="40.506505" lon="16.7089933"><ele>59.0</ele><time>2026-04-12T12:50:29.44Z</time></trkpt><trkpt lat="40.5064417" lon="16.7090333"><ele>59.00000000000001</ele><time>2026-04-12T12:50:31.44Z</time></trkpt><trkpt lat="40.506365" lon="16.7090883"><ele>59.0</ele><time>2026-04-12T12:50:34.44Z</time></trkpt><trkpt lat="40.5063033" lon="16.7091233"><ele>58.57142857142857</ele><time>2026-04-12T12:50:36.439Z</time></trkpt><trkpt lat="40.50623" lon="16.709165"><ele>58.142857142857146</ele><time>2026-04-12T12:50:39.44Z</time></trkpt><trkpt lat="40.5061683" lon="16.7091967"><ele>57.714285714285715</ele><time>2026-04-12T12:50:41.44Z</time></trkpt><trkpt lat="40.5060983" lon="16.7092283"><ele>57.285714285714285</ele><time>2026-04-12T12:50:43.441Z</time></trkpt><trkpt lat="40.5060317" lon="16.7092567"><ele>56.85714285714286</ele><time>2026-04-12T12:50:45.44Z</time></trkpt><trkpt lat="40.5059733" lon="16.7092933"><ele>56.42857142857143</ele><time>2026-04-12T12:50:47.439Z</time></trkpt><trkpt lat="40.505885" lon="16.7093383"><ele>56.0</ele><time>2026-04-12T12:50:50.441Z</time></trkpt><trkpt lat="40.5058183" lon="16.709375"><ele>56.833333333333336</ele><time>2026-04-12T12:50:52.439Z</time></trkpt><trkpt lat="40.5057583" lon="16.7094183"><ele>57.66666666666667</ele><time>2026-04-12T12:50:54.44Z</time></trkpt><trkpt lat="40.5056883" lon="16.709455"><ele>58.5</ele><time>2026-04-12T12:50:56.44Z</time></trkpt><trkpt lat="40.5056133" lon="16.7094867"><ele>59.33333333333333</ele><time>2026-04-12T12:50:58.442Z</time></trkpt><trkpt lat="40.5055283" lon="16.7095133"><ele>60.166666666666664</ele><time>2026-04-12T12:51:00.443Z</time></trkpt><trkpt lat="40.5054433" lon="16.7095233"><ele>61.0</ele><time>2026-04-12T12:51:02.441Z</time></trkpt><trkpt lat="40.50537" lon="16.7095267"><ele>60.99999999999999</ele><time>2026-04-12T12:51:04.44Z</time></trkpt><trkpt lat="40.50529" lon="16.70953"><ele>61.0</ele><time>2026-04-12T12:51:06.439Z</time></trkpt><trkpt lat="40.50522" lon="16.7095317"><ele>60.99999999999999</ele><time>2026-04-12T12:51:08.44Z</time></trkpt><trkpt lat="40.50515" lon="16.7095283"><ele>60.99999999999999</ele><time>2026-04-12T12:51:10.44Z</time></trkpt><trkpt lat="40.5050867" lon="16.709525"><ele>61.0</ele><time>2026-04-12T12:51:12.44Z</time></trkpt><trkpt lat="40.50502" lon="16.709525"><ele>60.99999999999999</ele><time>2026-04-12T12:51:14.44Z</time></trkpt><trkpt lat="40.504955" lon="16.7095317"><ele>60.99999999999999</ele><time>2026-04-12T12:51:16.439Z</time></trkpt><trkpt lat="40.5048617" lon="16.70954"><ele>60.99999999999999</ele><time>2026-04-12T12:51:19.438Z</time></trkpt><trkpt lat="40.5047933" lon="16.7095517"><ele>61.0</ele><time>2026-04-12T12:51:21.439Z</time></trkpt><trkpt lat="40.5047233" lon="16.7095583"><ele>60.99999999999999</ele><time>2026-04-12T12:51:23.438Z</time></trkpt><trkpt lat="40.5046583" lon="16.7095717"><ele>60.99999999999999</ele><time>2026-04-12T12:51:25.439Z</time></trkpt><trkpt lat="40.504595" lon="16.709585"><ele>61.0</ele><time>2026-04-12T12:51:27.438Z</time></trkpt><trkpt lat="40.5045233" lon="16.70958"><ele>60.99999999999999</ele><time>2026-04-12T12:51:29.439Z</time></trkpt><trkpt lat="40.5044283" lon="16.709585"><ele>60.99999999999999</ele><time>2026-04-12T12:51:32.44Z</time></trkpt><trkpt lat="40.5043617" lon="16.709585"><ele>60.99999999999999</ele><time>2026-04-12T12:51:34.439Z</time></trkpt><trkpt lat="40.5042667" lon="16.709575"><ele>61.0</ele><time>2026-04-12T12:51:37.439Z</time></trkpt><trkpt lat="40.5041983" lon="16.7095633"><ele>61.0</ele><time>2026-04-12T12:51:39.439Z</time></trkpt><trkpt lat="40.504135" lon="16.7095483"><ele>61.0</ele><time>2026-04-12T12:51:41.439Z</time></trkpt><trkpt lat="40.5040683" lon="16.7095367"><ele>60.99999999999999</ele><time>2026-04-12T12:51:43.439Z</time></trkpt><trkpt lat="40.5039717" lon="16.7095133"><ele>61.0</ele><time>2026-04-12T12:51:52.439Z</time></trkpt><trkpt lat="40.5038917" lon="16.7095083"><ele>60.99999999999999</ele><time>2026-04-12T12:51:55.439Z</time></trkpt><trkpt lat="40.503805" lon="16.7095033"><ele>61.0</ele><time>2026-04-12T12:51:58.439Z</time></trkpt><trkpt lat="40.5037383" lon="16.7095"><ele>61.0</ele><time>2026-04-12T12:52:00.44Z</time></trkpt><trkpt lat="40.5036733" lon="16.7095"><ele>61.0</ele><time>2026-04-12T12:52:02.439Z</time></trkpt><trkpt lat="40.5035867" lon="16.7095033"><ele>60.99999999999999</ele><time>2026-04-12T12:52:05.439Z</time></trkpt><trkpt lat="40.5035083" lon="16.7094967"><ele>61.0</ele><time>2026-04-12T12:52:08.438Z</time></trkpt><trkpt lat="40.50342" lon="16.7094933"><ele>59.99999999999999</ele><time>2026-04-12T12:52:11.439Z</time></trkpt><trkpt lat="40.503355" lon="16.7095067"><ele>59.0</ele><time>2026-04-12T12:52:13.439Z</time></trkpt><trkpt lat="40.503285" lon="16.7095217"><ele>58.0</ele><time>2026-04-12T12:52:15.439Z</time></trkpt><trkpt lat="40.5031917" lon="16.7095333"><ele>57.0</ele><time>2026-04-12T12:52:18.439Z</time></trkpt><trkpt lat="40.5031017" lon="16.7095533"><ele>55.99999999999999</ele><time>2026-04-12T12:52:21.439Z</time></trkpt><trkpt lat="40.5030283" lon="16.7095683"><ele>55.0</ele><time>2026-04-12T12:52:23.439Z</time></trkpt><trkpt lat="40.5029433" lon="16.7096033"><ele>53.99999999999999</ele><time>2026-04-12T12:52:26.439Z</time></trkpt><trkpt lat="40.502855" lon="16.709625"><ele>53.0</ele><time>2026-04-12T12:52:29.438Z</time></trkpt><trkpt lat="40.5027833" lon="16.70964"><ele>52.0</ele><time>2026-04-12T12:52:32.439Z</time></trkpt><trkpt lat="40.5026967" lon="16.7096583"><ele>51.0</ele><time>2026-04-12T12:52:36.439Z</time></trkpt><trkpt lat="40.502605" lon="16.7096467"><ele>49.99999999999999</ele><time>2026-04-12T12:52:39.44Z</time></trkpt><trkpt lat="40.5025267" lon="16.709645"><ele>49.0</ele><time>2026-04-12T12:52:42.439Z</time></trkpt><trkpt lat="40.5024583" lon="16.70967"><ele>48.99999999999999</ele><time>2026-04-12T12:52:45.443Z</time></trkpt><trkpt lat="40.5023867" lon="16.7096633"><ele>49.0</ele><time>2026-04-12T12:52:48.438Z</time></trkpt><trkpt lat="40.5023117" lon="16.70967"><ele>49.0</ele><time>2026-04-12T12:52:51.44Z</time></trkpt><trkpt lat="40.5022217" lon="16.709695"><ele>49.0</ele><time>2026-04-12T12:52:54.439Z</time></trkpt><trkpt lat="40.5021517" lon="16.7097183"><ele>48.99999999999999</ele><time>2026-04-12T12:52:56.441Z</time></trkpt><trkpt lat="40.5020867" lon="16.7097367"><ele>49.0</ele><time>2026-04-12T12:52:58.439Z</time></trkpt><trkpt lat="40.5020033" lon="16.7097567"><ele>48.666666666666664</ele><time>2026-04-12T12:53:01.439Z</time></trkpt><trkpt lat="40.501915" lon="16.70977"><ele>48.33333333333333</ele><time>2026-04-12T12:53:04.439Z</time></trkpt><trkpt lat="40.5018517" lon="16.7097783"><ele>48.0</ele><time>2026-04-12T12:53:06.438Z</time></trkpt><trkpt lat="40.5017883" lon="16.70978"><ele>47.666666666666664</ele><time>2026-04-12T12:53:08.438Z</time></trkpt><trkpt lat="40.501725" lon="16.70977"><ele>47.33333333333333</ele><time>2026-04-12T12:53:10.439Z</time></trkpt><trkpt lat="40.5016283" lon="16.7097583"><ele>47.0</ele><time>2026-04-12T12:53:19.439Z</time></trkpt><trkpt lat="40.5015467" lon="16.709745"><ele>47.0</ele><time>2026-04-12T12:53:22.44Z</time></trkpt><trkpt lat="40.5014783" lon="16.709745"><ele>47.0</ele><time>2026-04-12T12:53:24.439Z</time></trkpt><trkpt lat="40.5014033" lon="16.7097533"><ele>47.0</ele><time>2026-04-12T12:53:26.439Z</time></trkpt><trkpt lat="40.5013283" lon="16.70976"><ele>47.0</ele><time>2026-04-12T12:53:28.438Z</time></trkpt><trkpt lat="40.50124" lon="16.7097917"><ele>47.0</ele><time>2026-04-12T12:53:31.438Z</time></trkpt><trkpt lat="40.5011717" lon="16.7098083"><ele>47.0</ele><time>2026-04-12T12:53:33.439Z</time></trkpt><trkpt lat="40.5010833" lon="16.7098283"><ele>46.33333333333333</ele><time>2026-04-12T12:53:36.439Z</time></trkpt><trkpt lat="40.5010167" lon="16.7098283"><ele>45.666666666666664</ele><time>2026-04-12T12:53:39.439Z</time></trkpt><trkpt lat="40.500935" lon="16.70985"><ele>45.0</ele><time>2026-04-12T12:53:43.439Z</time></trkpt><trkpt lat="40.50087" lon="16.70986"><ele>44.333333333333336</ele><time>2026-04-12T12:53:45.439Z</time></trkpt><trkpt lat="40.5007917" lon="16.7098733"><ele>43.66666666666667</ele><time>2026-04-12T12:53:48.438Z</time></trkpt><trkpt lat="40.50071" lon="16.709885"><ele>43.0</ele><time>2026-04-12T12:53:51.439Z</time></trkpt><trkpt lat="40.5006217" lon="16.7099083"><ele>43.0</ele><time>2026-04-12T12:53:54.439Z</time></trkpt><trkpt lat="40.5005367" lon="16.709935"><ele>43.0</ele><time>2026-04-12T12:53:57.439Z</time></trkpt><trkpt lat="40.5004683" lon="16.7099517"><ele>43.0</ele><time>2026-04-12T12:53:59.44Z</time></trkpt><trkpt lat="40.5003867" lon="16.7099833"><ele>43.0</ele><time>2026-04-12T12:54:02.44Z</time></trkpt><trkpt lat="40.5003083" lon="16.71003"><ele>43.0</ele><time>2026-04-12T12:54:06.438Z</time></trkpt><trkpt lat="40.50024" lon="16.7100367"><ele>43.0</ele><time>2026-04-12T12:54:08.439Z</time></trkpt><trkpt lat="40.5001633" lon="16.71003"><ele>42.833333333333336</ele><time>2026-04-12T12:54:10.44Z</time></trkpt><trkpt lat="40.50008" lon="16.7100267"><ele>42.66666666666667</ele><time>2026-04-12T12:54:12.439Z</time></trkpt><trkpt lat="40.500015" lon="16.7100267"><ele>42.5</ele><time>2026-04-12T12:54:14.44Z</time></trkpt><trkpt lat="40.49995" lon="16.7100283"><ele>42.333333333333336</ele><time>2026-04-12T12:54:16.439Z</time></trkpt><trkpt lat="40.49988" lon="16.7100183"><ele>42.166666666666664</ele><time>2026-04-12T12:54:19.439Z</time></trkpt><trkpt lat="40.4997867" lon="16.7100067"><ele>42.0</ele><time>2026-04-12T12:54:22.44Z</time></trkpt><trkpt lat="40.4997133" lon="16.70999"><ele>42.0</ele><time>2026-04-12T12:54:24.439Z</time></trkpt><trkpt lat="40.49965" lon="16.7099817"><ele>42.0</ele><time>2026-04-12T12:54:26.439Z</time></trkpt><trkpt lat="40.499585" lon="16.7099867"><ele>42.0</ele><time>2026-04-12T12:54:28.438Z</time></trkpt><trkpt lat="40.4995067" lon="16.7100233"><ele>42.0</ele><time>2026-04-12T12:54:31.44Z</time></trkpt><trkpt lat="40.4994333" lon="16.7100633"><ele>42.0</ele><time>2026-04-12T12:54:34.442Z</time></trkpt><trkpt lat="40.499355" lon="16.7101167"><ele>42.0</ele><time>2026-04-12T12:54:37.439Z</time></trkpt><trkpt lat="40.4992917" lon="16.7101383"><ele>42.0</ele><time>2026-04-12T12:54:39.439Z</time></trkpt><trkpt lat="40.4992283" lon="16.7101467"><ele>41.666666666666664</ele><time>2026-04-12T12:54:41.441Z</time></trkpt><trkpt lat="40.49916" lon="16.7101633"><ele>41.333333333333336</ele><time>2026-04-12T12:54:43.439Z</time></trkpt><trkpt lat="40.4990967" lon="16.7102017"><ele>41.0</ele><time>2026-04-12T12:54:46.439Z</time></trkpt><trkpt lat="40.4990717" lon="16.7102783"><ele>40.66666666666667</ele><time>2026-04-12T12:54:49.439Z</time></trkpt><trkpt lat="40.4990233" lon="16.7103767"><ele>40.333333333333336</ele><time>2026-04-12T12:54:51.439Z</time></trkpt><trkpt lat="40.4989383" lon="16.710455"><ele>40.0</ele><time>2026-04-12T12:54:53.44Z</time></trkpt><trkpt lat="40.49885" lon="16.7105283"><ele>40.0</ele><time>2026-04-12T12:54:55.441Z</time></trkpt><trkpt lat="40.49877" lon="16.7105967"><ele>40.0</ele><time>2026-04-12T12:54:57.439Z</time></trkpt><trkpt lat="40.4986867" lon="16.7106933"><ele>40.0</ele><time>2026-04-12T12:54:59.439Z</time></trkpt><trkpt lat="40.4986417" lon="16.710765"><ele>40.0</ele><time>2026-04-12T12:55:00.439Z</time></trkpt><trkpt lat="40.4986" lon="16.7108333"><ele>40.0</ele><time>2026-04-12T12:55:01.439Z</time></trkpt><trkpt lat="40.498535" lon="16.7109"><ele>40.0</ele><time>2026-04-12T12:55:03.44Z</time></trkpt><trkpt lat="40.49847" lon="16.7108417"><ele>39.8</ele><time>2026-04-12T12:55:06.442Z</time></trkpt><trkpt lat="40.4984783" lon="16.7107083"><ele>39.6</ele><time>2026-04-12T12:55:08.439Z</time></trkpt><trkpt lat="40.49849" lon="16.710575"><ele>39.4</ele><time>2026-04-12T12:55:10.44Z</time></trkpt><trkpt lat="40.49847" lon="16.71045"><ele>39.2</ele><time>2026-04-12T12:55:12.439Z</time></trkpt><trkpt lat="40.4983767" lon="16.7103617"><ele>39.0</ele><time>2026-04-12T12:55:14.439Z</time></trkpt><trkpt lat="40.4983083" lon="16.7103333"><ele>39.0</ele><time>2026-04-12T12:55:15.44Z</time></trkpt><trkpt lat="40.4982483" lon="16.7103017"><ele>39.0</ele><time>2026-04-12T12:55:16.439Z</time></trkpt><trkpt lat="40.4981883" lon="16.7102683"><ele>39.0</ele><time>2026-04-12T12:55:17.441Z</time></trkpt><trkpt lat="40.49813" lon="16.71023"><ele>39.0</ele><time>2026-04-12T12:55:18.441Z</time></trkpt><trkpt lat="40.498065" lon="16.710195"><ele>39.0</ele><time>2026-04-12T12:55:19.439Z</time></trkpt><trkpt lat="40.4979983" lon="16.7101717"><ele>39.0</ele><time>2026-04-12T12:55:20.44Z</time></trkpt><trkpt lat="40.4979317" lon="16.7101483"><ele>39.0</ele><time>2026-04-12T12:55:21.439Z</time></trkpt><trkpt lat="40.4978667" lon="16.7101267"><ele>38.6</ele><time>2026-04-12T12:55:22.439Z</time></trkpt><trkpt lat="40.4978017" lon="16.7101"><ele>38.2</ele><time>2026-04-12T12:55:23.439Z</time></trkpt><trkpt lat="40.4977383" lon="16.7100717"><ele>37.800000000000004</ele><time>2026-04-12T12:55:24.439Z</time></trkpt><trkpt lat="40.4976267" lon="16.71002"><ele>37.4</ele><time>2026-04-12T12:55:26.44Z</time></trkpt><trkpt lat="40.4975317" lon="16.7099683"><ele>37.0</ele><time>2026-04-12T12:55:28.45Z</time></trkpt><trkpt lat="40.497445" lon="16.70992"><ele>37.0</ele><time>2026-04-12T12:55:30.439Z</time></trkpt><trkpt lat="40.49734" lon="16.7098833"><ele>37.0</ele><time>2026-04-12T12:55:32.44Z</time></trkpt><trkpt lat="40.4972783" lon="16.7098617"><ele>37.0</ele><time>2026-04-12T12:55:33.439Z</time></trkpt><trkpt lat="40.497215" lon="16.7098333"><ele>37.0</ele><time>2026-04-12T12:55:34.439Z</time></trkpt><trkpt lat="40.4971467" lon="16.7098"><ele>37.0</ele><time>2026-04-12T12:55:35.439Z</time></trkpt><trkpt lat="40.497075" lon="16.7097583"><ele>37.0</ele><time>2026-04-12T12:55:36.439Z</time></trkpt><trkpt lat="40.4970033" lon="16.70971"><ele>36.5</ele><time>2026-04-12T12:55:37.44Z</time></trkpt><trkpt lat="40.4969333" lon="16.709665"><ele>36.0</ele><time>2026-04-12T12:55:38.44Z</time></trkpt><trkpt lat="40.4968683" lon="16.7096233"><ele>35.5</ele><time>2026-04-12T12:55:39.439Z</time></trkpt><trkpt lat="40.4968033" lon="16.709585"><ele>35.0</ele><time>2026-04-12T12:55:40.44Z</time></trkpt><trkpt lat="40.49674" lon="16.7095517"><ele>34.5</ele><time>2026-04-12T12:55:41.439Z</time></trkpt><trkpt lat="40.49663" lon="16.70949"><ele>34.0</ele><time>2026-04-12T12:55:43.441Z</time></trkpt><trkpt lat="40.4965317" lon="16.7094267"><ele>33.8</ele><time>2026-04-12T12:55:45.439Z</time></trkpt><trkpt lat="40.4964283" lon="16.70936"><ele>33.599999999999994</ele><time>2026-04-12T12:55:47.438Z</time></trkpt><trkpt lat="40.4963283" lon="16.7093167"><ele>33.4</ele><time>2026-04-12T12:55:49.442Z</time></trkpt><trkpt lat="40.4962267" lon="16.7092983"><ele>33.199999999999996</ele><time>2026-04-12T12:55:51.441Z</time></trkpt><trkpt lat="40.4961167" lon="16.709275"><ele>33.0</ele><time>2026-04-12T12:55:53.44Z</time></trkpt><trkpt lat="40.4960217" lon="16.7092417"><ele>32.166666666666664</ele><time>2026-04-12T12:55:55.439Z</time></trkpt><trkpt lat="40.4959417" lon="16.70919"><ele>31.333333333333336</ele><time>2026-04-12T12:55:57.44Z</time></trkpt><trkpt lat="40.49588" lon="16.7091"><ele>30.5</ele><time>2026-04-12T12:55:59.439Z</time></trkpt><trkpt lat="40.4958367" lon="16.709005"><ele>29.666666666666668</ele><time>2026-04-12T12:56:01.441Z</time></trkpt><trkpt lat="40.495815" lon="16.7089217"><ele>28.833333333333336</ele><time>2026-04-12T12:56:03.444Z</time></trkpt><trkpt lat="40.4958233" lon="16.7088333"><ele>28.0</ele><time>2026-04-12T12:56:07.439Z</time></trkpt><trkpt lat="40.4958467" lon="16.7089567"><ele>28.000000000000004</ele><time>2026-04-12T12:56:30.439Z</time></trkpt><trkpt lat="40.4959067" lon="16.7091"><ele>28.0</ele><time>2026-04-12T12:56:32.442Z</time></trkpt><trkpt lat="40.4959517" lon="16.70917"><ele>28.0</ele><time>2026-04-12T12:56:33.439Z</time></trkpt><trkpt lat="40.4960083" lon="16.7092167"><ele>28.0</ele><time>2026-04-12T12:56:34.44Z</time></trkpt><trkpt lat="40.4960883" lon="16.7092417"><ele>28.000000000000004</ele><time>2026-04-12T12:56:35.44Z</time></trkpt><trkpt lat="40.49618" lon="16.7092667"><ele>28.0</ele><time>2026-04-12T12:56:36.44Z</time></trkpt><trkpt lat="40.4962667" lon="16.70929"><ele>29.0</ele><time>2026-04-12T12:56:37.44Z</time></trkpt><trkpt lat="40.4963567" lon="16.7093233"><ele>29.999999999999996</ele><time>2026-04-12T12:56:38.442Z</time></trkpt><trkpt lat="40.4964533" lon="16.709365"><ele>30.999999999999996</ele><time>2026-04-12T12:56:39.44Z</time></trkpt><trkpt lat="40.4965483" lon="16.7094167"><ele>32.0</ele><time>2026-04-12T12:56:40.44Z</time></trkpt><trkpt lat="40.4966333" lon="16.709475"><ele>33.0</ele><time>2026-04-12T12:56:41.441Z</time></trkpt><trkpt lat="40.49671" lon="16.7095283"><ele>33.199999999999996</ele><time>2026-04-12T12:56:42.439Z</time></trkpt><trkpt lat="40.4967883" lon="16.7095767"><ele>33.4</ele><time>2026-04-12T12:56:43.441Z</time></trkpt><trkpt lat="40.4968717" lon="16.7096267"><ele>33.599999999999994</ele><time>2026-04-12T12:56:44.439Z</time></trkpt><trkpt lat="40.4969567" lon="16.7096783"><ele>33.8</ele><time>2026-04-12T12:56:45.437Z</time></trkpt><trkpt lat="40.4970433" lon="16.7097383"><ele>34.0</ele><time>2026-04-12T12:56:46.438Z</time></trkpt><trkpt lat="40.4971317" lon="16.7097917"><ele>34.6</ele><time>2026-04-12T12:56:47.438Z</time></trkpt><trkpt lat="40.49722" lon="16.7098367"><ele>35.2</ele><time>2026-04-12T12:56:48.438Z</time></trkpt><trkpt lat="40.49731" lon="16.7098783"><ele>35.800000000000004</ele><time>2026-04-12T12:56:49.438Z</time></trkpt><trkpt lat="40.4974033" lon="16.7099217"><ele>36.4</ele><time>2026-04-12T12:56:50.439Z</time></trkpt><trkpt lat="40.4975067" lon="16.709965"><ele>37.0</ele><time>2026-04-12T12:56:51.439Z</time></trkpt><trkpt lat="40.497605" lon="16.7100083"><ele>37.0</ele><time>2026-04-12T12:56:52.438Z</time></trkpt><trkpt lat="40.497695" lon="16.7100517"><ele>37.0</ele><time>2026-04-12T12:56:53.439Z</time></trkpt><trkpt lat="40.4977733" lon="16.7100883"><ele>37.0</ele><time>2026-04-12T12:56:54.438Z</time></trkpt><trkpt lat="40.49785" lon="16.7101133"><ele>37.0</ele><time>2026-04-12T12:56:55.438Z</time></trkpt><trkpt lat="40.4979267" lon="16.7101367"><ele>37.0</ele><time>2026-04-12T12:56:56.439Z</time></trkpt><trkpt lat="40.4980033" lon="16.7101633"><ele>37.0</ele><time>2026-04-12T12:56:57.438Z</time></trkpt><trkpt lat="40.49809" lon="16.7102"><ele>37.333333333333336</ele><time>2026-04-12T12:56:58.44Z</time></trkpt><trkpt lat="40.4981833" lon="16.71025"><ele>37.66666666666667</ele><time>2026-04-12T12:56:59.44Z</time></trkpt><trkpt lat="40.49827" lon="16.710305"><ele>38.0</ele><time>2026-04-12T12:57:00.439Z</time></trkpt><trkpt lat="40.498345" lon="16.710355"><ele>38.333333333333336</ele><time>2026-04-12T12:57:01.44Z</time></trkpt><trkpt lat="40.4984083" lon="16.7103967"><ele>38.666666666666664</ele><time>2026-04-12T12:57:02.439Z</time></trkpt><trkpt lat="40.4984667" lon="16.7104283"><ele>39.0</ele><time>2026-04-12T12:57:03.439Z</time></trkpt><trkpt lat="40.498555" lon="16.71046"><ele>39.0</ele><time>2026-04-12T12:57:05.439Z</time></trkpt><trkpt lat="40.4986267" lon="16.7104433"><ele>39.0</ele><time>2026-04-12T12:57:07.439Z</time></trkpt><trkpt lat="40.498705" lon="16.710315"><ele>39.0</ele><time>2026-04-12T12:57:09.439Z</time></trkpt><trkpt lat="40.4987417" lon="16.7102083"><ele>39.0</ele><time>2026-04-12T12:57:10.439Z</time></trkpt><trkpt lat="40.4987883" lon="16.7100683"><ele>39.0</ele><time>2026-04-12T12:57:11.439Z</time></trkpt><trkpt lat="40.4988483" lon="16.7099133"><ele>39.0</ele><time>2026-04-12T12:57:12.439Z</time></trkpt><trkpt lat="40.4989067" lon="16.7097567"><ele>39.0</ele><time>2026-04-12T12:57:13.438Z</time></trkpt><trkpt lat="40.49896" lon="16.7096033"><ele>39.0</ele><time>2026-04-12T12:57:14.439Z</time></trkpt><trkpt lat="40.4990117" lon="16.7094567"><ele>39.0</ele><time>2026-04-12T12:57:15.439Z</time></trkpt><trkpt lat="40.4990717" lon="16.7093283"><ele>39.4</ele><time>2026-04-12T12:57:16.439Z</time></trkpt><trkpt lat="40.4991433" lon="16.7092167"><ele>39.8</ele><time>2026-04-12T12:57:17.44Z</time></trkpt><trkpt lat="40.4992183" lon="16.70911"><ele>40.199999999999996</ele><time>2026-04-12T12:57:18.439Z</time></trkpt><trkpt lat="40.4992917" lon="16.7090033"><ele>40.599999999999994</ele><time>2026-04-12T12:57:19.438Z</time></trkpt><trkpt lat="40.4993667" lon="16.7088917"><ele>41.0</ele><time>2026-04-12T12:57:20.439Z</time></trkpt><trkpt lat="40.4994367" lon="16.7087733"><ele>41.0</ele><time>2026-04-12T12:57:21.438Z</time></trkpt><trkpt lat="40.499495" lon="16.7086483"><ele>41.0</ele><time>2026-04-12T12:57:22.443Z</time></trkpt><trkpt lat="40.4995483" lon="16.708515"><ele>41.0</ele><time>2026-04-12T12:57:23.438Z</time></trkpt><trkpt lat="40.499595" lon="16.70838"><ele>41.0</ele><time>2026-04-12T12:57:24.439Z</time></trkpt><trkpt lat="40.49964" lon="16.7082467"><ele>41.0</ele><time>2026-04-12T12:57:25.439Z</time></trkpt><trkpt lat="40.4996833" lon="16.7081083"><ele>41.0</ele><time>2026-04-12T12:57:26.44Z</time></trkpt><trkpt lat="40.4997267" lon="16.707965"><ele>41.0</ele><time>2026-04-12T12:57:27.439Z</time></trkpt><trkpt lat="40.499765" lon="16.70782"><ele>41.0</ele><time>2026-04-12T12:57:28.438Z</time></trkpt><trkpt lat="40.4998033" lon="16.7076767"><ele>40.5</ele><time>2026-04-12T12:57:29.439Z</time></trkpt><trkpt lat="40.4998417" lon="16.7075333"><ele>40.0</ele><time>2026-04-12T12:57:30.441Z</time></trkpt><trkpt lat="40.4998783" lon="16.70739"><ele>39.5</ele><time>2026-04-12T12:57:31.439Z</time></trkpt><trkpt lat="40.4999183" lon="16.7072467"><ele>39.0</ele><time>2026-04-12T12:57:32.439Z</time></trkpt><trkpt lat="40.499955" lon="16.7071067"><ele>39.0</ele><time>2026-04-12T12:57:33.439Z</time></trkpt><trkpt lat="40.499995" lon="16.7069667"><ele>39.0</ele><time>2026-04-12T12:57:34.443Z</time></trkpt><trkpt lat="40.500035" lon="16.7068267"><ele>39.0</ele><time>2026-04-12T12:57:35.439Z</time></trkpt><trkpt lat="40.5000733" lon="16.7066867"><ele>39.0</ele><time>2026-04-12T12:57:36.439Z</time></trkpt><trkpt lat="40.50011" lon="16.706545"><ele>39.0</ele><time>2026-04-12T12:57:37.439Z</time></trkpt><trkpt lat="40.5001467" lon="16.7064033"><ele>39.0</ele><time>2026-04-12T12:57:38.439Z</time></trkpt><trkpt lat="40.5001833" lon="16.7062583"><ele>39.0</ele><time>2026-04-12T12:57:39.439Z</time></trkpt><trkpt lat="40.5002217" lon="16.7061133"><ele>39.0</ele><time>2026-04-12T12:57:40.438Z</time></trkpt><trkpt lat="40.50026" lon="16.70597"><ele>39.0</ele><time>2026-04-12T12:57:41.439Z</time></trkpt><trkpt lat="40.5002967" lon="16.70583"><ele>39.0</ele><time>2026-04-12T12:57:42.439Z</time></trkpt><trkpt lat="40.500335" lon="16.70569"><ele>39.0</ele><time>2026-04-12T12:57:43.439Z</time></trkpt><trkpt lat="40.500375" lon="16.7055483"><ele>39.0</ele><time>2026-04-12T12:57:44.439Z</time></trkpt><trkpt lat="40.5004133" lon="16.7054033"><ele>40.5</ele><time>2026-04-12T12:57:45.438Z</time></trkpt><trkpt lat="40.5004517" lon="16.7052567"><ele>42.0</ele><time>2026-04-12T12:57:46.438Z</time></trkpt><trkpt lat="40.50049" lon="16.7051117"><ele>43.5</ele><time>2026-04-12T12:57:47.438Z</time></trkpt><trkpt lat="40.50053" lon="16.7049633"><ele>45.0</ele><time>2026-04-12T12:57:48.438Z</time></trkpt><trkpt lat="40.5005717" lon="16.7048183"><ele>45.25</ele><time>2026-04-12T12:57:49.44Z</time></trkpt><trkpt lat="40.5006133" lon="16.704675"><ele>45.5</ele><time>2026-04-12T12:57:50.439Z</time></trkpt><trkpt lat="40.500655" lon="16.70453"><ele>45.75</ele><time>2026-04-12T12:57:51.439Z</time></trkpt><trkpt lat="40.500695" lon="16.70439"><ele>46.0</ele><time>2026-04-12T12:57:52.439Z</time></trkpt><trkpt lat="40.5007333" lon="16.7042467"><ele>45.5</ele><time>2026-04-12T12:57:53.439Z</time></trkpt><trkpt lat="40.5007717" lon="16.7041033"><ele>45.0</ele><time>2026-04-12T12:57:54.438Z</time></trkpt><trkpt lat="40.5008133" lon="16.7039633"><ele>44.5</ele><time>2026-04-12T12:57:55.439Z</time></trkpt><trkpt lat="40.5008517" lon="16.703825"><ele>44.0</ele><time>2026-04-12T12:57:56.439Z</time></trkpt><trkpt lat="40.5008917" lon="16.7036817"><ele>43.25</ele><time>2026-04-12T12:57:57.439Z</time></trkpt><trkpt lat="40.5009267" lon="16.7035367"><ele>42.5</ele><time>2026-04-12T12:57:58.439Z</time></trkpt><trkpt lat="40.5009583" lon="16.70339"><ele>41.75</ele><time>2026-04-12T12:57:59.439Z</time></trkpt><trkpt lat="40.50099" lon="16.703245"><ele>41.0</ele><time>2026-04-12T12:58:00.439Z</time></trkpt><trkpt lat="40.50102" lon="16.7031"><ele>41.0</ele><time>2026-04-12T12:58:01.44Z</time></trkpt><trkpt lat="40.5010517" lon="16.7029517"><ele>41.0</ele><time>2026-04-12T12:58:02.439Z</time></trkpt><trkpt lat="40.5010833" lon="16.702805"><ele>41.0</ele><time>2026-04-12T12:58:03.439Z</time></trkpt><trkpt lat="40.5011167" lon="16.7026583"><ele>41.0</ele><time>2026-04-12T12:58:04.439Z</time></trkpt><trkpt lat="40.50115" lon="16.70251"><ele>40.75</ele><time>2026-04-12T12:58:05.439Z</time></trkpt><trkpt lat="40.501185" lon="16.7023667"><ele>40.5</ele><time>2026-04-12T12:58:06.44Z</time></trkpt><trkpt lat="40.5012233" lon="16.70222"><ele>40.25</ele><time>2026-04-12T12:58:07.439Z</time></trkpt><trkpt lat="40.501265" lon="16.7020717"><ele>40.0</ele><time>2026-04-12T12:58:08.439Z</time></trkpt><trkpt lat="40.5013033" lon="16.7019267"><ele>41.0</ele><time>2026-04-12T12:58:09.439Z</time></trkpt><trkpt lat="40.5013383" lon="16.70178"><ele>42.0</ele><time>2026-04-12T12:58:10.439Z</time></trkpt><trkpt lat="40.501375" lon="16.7016317"><ele>43.0</ele><time>2026-04-12T12:58:11.438Z</time></trkpt><trkpt lat="40.50141" lon="16.7014817"><ele>44.0</ele><time>2026-04-12T12:58:12.438Z</time></trkpt><trkpt lat="40.5014467" lon="16.7013233"><ele>44.0</ele><time>2026-04-12T12:58:13.438Z</time></trkpt><trkpt lat="40.5014867" lon="16.7011633"><ele>44.0</ele><time>2026-04-12T12:58:14.438Z</time></trkpt><trkpt lat="40.50153" lon="16.7010083"><ele>44.0</ele><time>2026-04-12T12:58:15.442Z</time></trkpt><trkpt lat="40.5015767" lon="16.7008533"><ele>44.0</ele><time>2026-04-12T12:58:16.439Z</time></trkpt><trkpt lat="40.5016183" lon="16.700695"><ele>43.75</ele><time>2026-04-12T12:58:17.439Z</time></trkpt><trkpt lat="40.50165" lon="16.7005367"><ele>43.5</ele><time>2026-04-12T12:58:18.438Z</time></trkpt><trkpt lat="40.50167" lon="16.7003717"><ele>43.25</ele><time>2026-04-12T12:58:19.438Z</time></trkpt><trkpt lat="40.50167" lon="16.7002067"><ele>43.0</ele><time>2026-04-12T12:58:20.439Z</time></trkpt><trkpt lat="40.5016583" lon="16.7000417"><ele>42.8</ele><time>2026-04-12T12:58:21.438Z</time></trkpt><trkpt lat="40.501645" lon="16.6998817"><ele>42.599999999999994</ele><time>2026-04-12T12:58:22.439Z</time></trkpt><trkpt lat="40.5016333" lon="16.699735"><ele>42.400000000000006</ele><time>2026-04-12T12:58:23.445Z</time></trkpt><trkpt lat="40.50162" lon="16.6995933"><ele>42.2</ele><time>2026-04-12T12:58:24.439Z</time></trkpt><trkpt lat="40.5016017" lon="16.6994583"><ele>42.0</ele><time>2026-04-12T12:58:25.439Z</time></trkpt><trkpt lat="40.5015833" lon="16.6993217"><ele>41.75</ele><time>2026-04-12T12:58:26.438Z</time></trkpt><trkpt lat="40.5015667" lon="16.6991783"><ele>41.5</ele><time>2026-04-12T12:58:27.439Z</time></trkpt><trkpt lat="40.5015483" lon="16.6990317"><ele>41.25</ele><time>2026-04-12T12:58:28.44Z</time></trkpt><trkpt lat="40.5015267" lon="16.6988733"><ele>41.0</ele><time>2026-04-12T12:58:29.439Z</time></trkpt><trkpt lat="40.5015067" lon="16.698705"><ele>40.0</ele><time>2026-04-12T12:58:30.439Z</time></trkpt><trkpt lat="40.5014883" lon="16.6985333"><ele>39.0</ele><time>2026-04-12T12:58:31.439Z</time></trkpt><trkpt lat="40.50147" lon="16.6983583"><ele>38.0</ele><time>2026-04-12T12:58:32.44Z</time></trkpt><trkpt lat="40.5014517" lon="16.698185"><ele>37.0</ele><time>2026-04-12T12:58:33.438Z</time></trkpt><trkpt lat="40.501435" lon="16.698015"><ele>37.0</ele><time>2026-04-12T12:58:34.44Z</time></trkpt><trkpt lat="40.5014183" lon="16.6978433"><ele>37.0</ele><time>2026-04-12T12:58:35.44Z</time></trkpt><trkpt lat="40.5014033" lon="16.6976717"><ele>37.0</ele><time>2026-04-12T12:58:36.439Z</time></trkpt><trkpt lat="40.5013883" lon="16.69751"><ele>37.0</ele><time>2026-04-12T12:58:37.439Z</time></trkpt><trkpt lat="40.50137" lon="16.6973567"><ele>37.5</ele><time>2026-04-12T12:58:38.439Z</time></trkpt><trkpt lat="40.50135" lon="16.6972067"><ele>38.0</ele><time>2026-04-12T12:58:39.439Z</time></trkpt><trkpt lat="40.5013317" lon="16.6970533"><ele>38.5</ele><time>2026-04-12T12:58:40.439Z</time></trkpt><trkpt lat="40.501315" lon="16.6968967"><ele>39.0</ele><time>2026-04-12T12:58:41.439Z</time></trkpt><trkpt lat="40.5013" lon="16.6967433"><ele>40.0</ele><time>2026-04-12T12:58:42.439Z</time></trkpt><trkpt lat="40.501285" lon="16.696605"><ele>41.0</ele><time>2026-04-12T12:58:43.44Z</time></trkpt><trkpt lat="40.5012733" lon="16.6964917"><ele>42.0</ele><time>2026-04-12T12:58:44.44Z</time></trkpt><trkpt lat="40.5012683" lon="16.696405"><ele>43.0</ele><time>2026-04-12T12:58:45.439Z</time></trkpt><trkpt lat="40.5012917" lon="16.6962983"><ele>44.0</ele><time>2026-04-12T12:58:47.438Z</time></trkpt><trkpt lat="40.5013517" lon="16.69627"><ele>45.0</ele><time>2026-04-12T12:58:49.439Z</time></trkpt><trkpt lat="40.5014217" lon="16.6963367"><ele>45.0</ele><time>2026-04-12T12:58:51.44Z</time></trkpt><trkpt lat="40.501445" lon="16.696415"><ele>45.0</ele><time>2026-04-12T12:58:52.44Z</time></trkpt><trkpt lat="40.5014717" lon="16.6965183"><ele>45.0</ele><time>2026-04-12T12:58:53.44Z</time></trkpt><trkpt lat="40.5015" lon="16.696615"><ele>45.0</ele><time>2026-04-12T12:58:54.442Z</time></trkpt><trkpt lat="40.501525" lon="16.6967083"><ele>45.0</ele><time>2026-04-12T12:58:55.442Z</time></trkpt><trkpt lat="40.5015567" lon="16.6968017"><ele>45.0</ele><time>2026-04-12T12:58:56.439Z</time></trkpt><trkpt lat="40.5016017" lon="16.6968967"><ele>44.14285714285714</ele><time>2026-04-12T12:58:57.44Z</time></trkpt><trkpt lat="40.50165" lon="16.6969883"><ele>43.28571428571429</ele><time>2026-04-12T12:58:58.439Z</time></trkpt><trkpt lat="40.5016967" lon="16.697075"><ele>42.42857142857143</ele><time>2026-04-12T12:58:59.439Z</time></trkpt><trkpt lat="40.5017367" lon="16.697155"><ele>41.57142857142857</ele><time>2026-04-12T12:59:00.439Z</time></trkpt><trkpt lat="40.501775" lon="16.69723"><ele>40.71428571428571</ele><time>2026-04-12T12:59:01.439Z</time></trkpt><trkpt lat="40.50181" lon="16.697305"><ele>39.85714285714286</ele><time>2026-04-12T12:59:02.44Z</time></trkpt><trkpt lat="40.5018467" lon="16.69738"><ele>39.0</ele><time>2026-04-12T12:59:03.441Z</time></trkpt><trkpt lat="40.5019133" lon="16.6975117"><ele>39.0</ele><time>2026-04-12T12:59:05.441Z</time></trkpt><trkpt lat="40.50199" lon="16.6976017"><ele>39.0</ele><time>2026-04-12T12:59:07.438Z</time></trkpt><trkpt lat="40.502085" lon="16.6976317"><ele>39.0</ele><time>2026-04-12T12:59:09.439Z</time></trkpt><trkpt lat="40.50217" lon="16.6975517"><ele>39.0</ele><time>2026-04-12T12:59:11.44Z</time></trkpt><trkpt lat="40.5022467" lon="16.69743"><ele>39.0</ele><time>2026-04-12T12:59:13.44Z</time></trkpt><trkpt lat="40.502325" lon="16.6973133"><ele>39.8</ele><time>2026-04-12T12:59:15.439Z</time></trkpt><trkpt lat="40.5024033" lon="16.6972067"><ele>40.599999999999994</ele><time>2026-04-12T12:59:17.44Z</time></trkpt><trkpt lat="40.5024867" lon="16.6971167"><ele>41.4</ele><time>2026-04-12T12:59:19.439Z</time></trkpt><trkpt lat="40.5025583" lon="16.697065"><ele>42.199999999999996</ele><time>2026-04-12T12:59:21.438Z</time></trkpt><trkpt lat="40.502665" lon="16.6970717"><ele>43.0</ele><time>2026-04-12T12:59:23.44Z</time></trkpt><trkpt lat="40.5027867" lon="16.6971217"><ele>43.0</ele><time>2026-04-12T12:59:25.44Z</time></trkpt><trkpt lat="40.5029017" lon="16.69718"><ele>43.0</ele><time>2026-04-12T12:59:27.438Z</time></trkpt><trkpt lat="40.50296" lon="16.6972117"><ele>43.0</ele><time>2026-04-12T12:59:28.439Z</time></trkpt><trkpt lat="40.50302" lon="16.697245"><ele>43.0</ele><time>2026-04-12T12:59:29.44Z</time></trkpt><trkpt lat="40.50308" lon="16.6972783"><ele>43.0</ele><time>2026-04-12T12:59:30.439Z</time></trkpt><trkpt lat="40.50319" lon="16.6973433"><ele>43.0</ele><time>2026-04-12T12:59:32.442Z</time></trkpt><trkpt lat="40.503295" lon="16.6974017"><ele>44.0</ele><time>2026-04-12T12:59:34.44Z</time></trkpt><trkpt lat="40.503395" lon="16.6974267"><ele>45.0</ele><time>2026-04-12T12:59:36.439Z</time></trkpt><trkpt lat="40.50347" lon="16.69733"><ele>46.0</ele><time>2026-04-12T12:59:38.441Z</time></trkpt><trkpt lat="40.5034983" lon="16.6972467"><ele>47.0</ele><time>2026-04-12T12:59:39.439Z</time></trkpt><trkpt lat="40.503525" lon="16.697165"><ele>47.99999999999999</ele><time>2026-04-12T12:59:40.439Z</time></trkpt><trkpt lat="40.5035533" lon="16.69709"><ele>49.0</ele><time>2026-04-12T12:59:41.439Z</time></trkpt><trkpt lat="40.5036267" lon="16.696985"><ele>49.0</ele><time>2026-04-12T12:59:43.439Z</time></trkpt><trkpt lat="40.503725" lon="16.69693"><ele>49.0</ele><time>2026-04-12T12:59:45.439Z</time></trkpt><trkpt lat="40.50381" lon="16.6969333"><ele>49.0</ele><time>2026-04-12T12:59:47.439Z</time></trkpt><trkpt lat="40.5037167" lon="16.696955"><ele>49.0</ele><time>2026-04-12T13:00:01.439Z</time></trkpt><trkpt lat="40.5036067" lon="16.6970167"><ele>49.0</ele><time>2026-04-12T13:00:03.439Z</time></trkpt><trkpt lat="40.5035617" lon="16.6970783"><ele>48.99999999999999</ele><time>2026-04-12T13:00:04.439Z</time></trkpt><trkpt lat="40.503525" lon="16.6971533"><ele>49.0</ele><time>2026-04-12T13:00:05.44Z</time></trkpt><trkpt lat="40.5034933" lon="16.6972317"><ele>49.0</ele><time>2026-04-12T13:00:06.438Z</time></trkpt><trkpt lat="40.50344" lon="16.69737"><ele>49.0</ele><time>2026-04-12T13:00:08.439Z</time></trkpt><trkpt lat="40.5033783" lon="16.6974417"><ele>48.99999999999999</ele><time>2026-04-12T13:00:10.439Z</time></trkpt><trkpt lat="40.50328" lon="16.6974183"><ele>49.0</ele><time>2026-04-12T13:00:12.439Z</time></trkpt><trkpt lat="40.5032133" lon="16.6973767"><ele>49.0</ele><time>2026-04-12T13:00:13.44Z</time></trkpt><trkpt lat="40.50314" lon="16.69733"><ele>49.0</ele><time>2026-04-12T13:00:14.44Z</time></trkpt><trkpt lat="40.5030717" lon="16.6972867"><ele>49.0</ele><time>2026-04-12T13:00:15.439Z</time></trkpt><trkpt lat="40.5030083" lon="16.6972467"><ele>49.0</ele><time>2026-04-12T13:00:16.439Z</time></trkpt><trkpt lat="40.5029467" lon="16.69721"><ele>49.0</ele><time>2026-04-12T13:00:17.44Z</time></trkpt><trkpt lat="40.5028867" lon="16.6971733"><ele>49.0</ele><time>2026-04-12T13:00:18.439Z</time></trkpt><trkpt lat="40.5028283" lon="16.6971417"><ele>49.0</ele><time>2026-04-12T13:00:19.439Z</time></trkpt><trkpt lat="40.502715" lon="16.6970917"><ele>47.5</ele><time>2026-04-12T13:00:21.439Z</time></trkpt><trkpt lat="40.5026083" lon="16.697065"><ele>46.0</ele><time>2026-04-12T13:00:23.44Z</time></trkpt><trkpt lat="40.5024983" lon="16.697095"><ele>44.5</ele><time>2026-04-12T13:00:25.439Z</time></trkpt><trkpt lat="40.5023983" lon="16.69719"><ele>43.0</ele><time>2026-04-12T13:00:27.438Z</time></trkpt><trkpt lat="40.5023167" lon="16.6973033"><ele>43.0</ele><time>2026-04-12T13:00:29.441Z</time></trkpt><trkpt lat="40.5022717" lon="16.697365"><ele>43.0</ele><time>2026-04-12T13:00:30.439Z</time></trkpt><trkpt lat="40.50219" lon="16.6974767"><ele>43.0</ele><time>2026-04-12T13:00:32.44Z</time></trkpt><trkpt lat="40.502105" lon="16.69757"><ele>43.0</ele><time>2026-04-12T13:00:34.44Z</time></trkpt><trkpt lat="40.5020033" lon="16.6975967"><ele>43.0</ele><time>2026-04-12T13:00:36.442Z</time></trkpt><trkpt lat="40.5019133" lon="16.697535"><ele>42.333333333333336</ele><time>2026-04-12T13:00:38.442Z</time></trkpt><trkpt lat="40.5018433" lon="16.6974067"><ele>41.66666666666667</ele><time>2026-04-12T13:00:40.439Z</time></trkpt><trkpt lat="40.5018083" lon="16.6973333"><ele>41.0</ele><time>2026-04-12T13:00:41.439Z</time></trkpt><trkpt lat="40.5017783" lon="16.6972583"><ele>40.333333333333336</ele><time>2026-04-12T13:00:42.439Z</time></trkpt><trkpt lat="40.5017483" lon="16.697185"><ele>39.666666666666664</ele><time>2026-04-12T13:00:43.439Z</time></trkpt><trkpt lat="40.501685" lon="16.6970567"><ele>39.0</ele><time>2026-04-12T13:00:45.439Z</time></trkpt><trkpt lat="40.50161" lon="16.6969267"><ele>40.0</ele><time>2026-04-12T13:00:47.439Z</time></trkpt><trkpt lat="40.5015483" lon="16.69679"><ele>41.0</ele><time>2026-04-12T13:00:49.44Z</time></trkpt><trkpt lat="40.5015183" lon="16.696715"><ele>42.0</ele><time>2026-04-12T13:00:50.44Z</time></trkpt><trkpt lat="40.5014933" lon="16.6966383"><ele>43.0</ele><time>2026-04-12T13:00:51.44Z</time></trkpt><trkpt lat="40.5014717" lon="16.6965583"><ele>44.0</ele><time>2026-04-12T13:00:52.439Z</time></trkpt><trkpt lat="40.5014367" lon="16.6964167"><ele>45.0</ele><time>2026-04-12T13:00:54.439Z</time></trkpt><trkpt lat="40.501395" lon="16.696335"><ele>45.0</ele><time>2026-04-12T13:00:56.439Z</time></trkpt><trkpt lat="40.50133" lon="16.6963"><ele>45.0</ele><time>2026-04-12T13:00:58.44Z</time></trkpt><trkpt lat="40.5012683" lon="16.69632"><ele>45.0</ele><time>2026-04-12T13:01:01.441Z</time></trkpt><trkpt lat="40.501245" lon="16.6964233"><ele>45.0</ele><time>2026-04-12T13:01:03.44Z</time></trkpt><trkpt lat="40.5012567" lon="16.6965217"><ele>45.0</ele><time>2026-04-12T13:01:04.44Z</time></trkpt><trkpt lat="40.5012733" lon="16.6966467"><ele>45.0</ele><time>2026-04-12T13:01:05.442Z</time></trkpt><trkpt lat="40.5012867" lon="16.696785"><ele>43.5</ele><time>2026-04-12T13:01:06.439Z</time></trkpt><trkpt lat="40.5012983" lon="16.6969317"><ele>42.0</ele><time>2026-04-12T13:01:07.439Z</time></trkpt><trkpt lat="40.5013117" lon="16.697085"><ele>40.5</ele><time>2026-04-12T13:01:08.44Z</time></trkpt><trkpt lat="40.5013267" lon="16.697235"><ele>39.0</ele><time>2026-04-12T13:01:09.44Z</time></trkpt><trkpt lat="40.501345" lon="16.6973917"><ele>39.0</ele><time>2026-04-12T13:01:10.44Z</time></trkpt><trkpt lat="40.5013683" lon="16.697555"><ele>39.0</ele><time>2026-04-12T13:01:11.44Z</time></trkpt><trkpt lat="40.5013867" lon="16.6977233"><ele>39.0</ele><time>2026-04-12T13:01:12.44Z</time></trkpt><trkpt lat="40.5014033" lon="16.6978983"><ele>39.0</ele><time>2026-04-12T13:01:13.44Z</time></trkpt><trkpt lat="40.5014217" lon="16.6980783"><ele>38.5</ele><time>2026-04-12T13:01:14.44Z</time></trkpt><trkpt lat="40.5014417" lon="16.6982533"><ele>38.0</ele><time>2026-04-12T13:01:15.439Z</time></trkpt><trkpt lat="40.50146" lon="16.6984233"><ele>37.5</ele><time>2026-04-12T13:01:16.439Z</time></trkpt><trkpt lat="40.5014767" lon="16.6985867"><ele>37.0</ele><time>2026-04-12T13:01:17.439Z</time></trkpt><trkpt lat="40.5014933" lon="16.6987483"><ele>38.0</ele><time>2026-04-12T13:01:18.441Z</time></trkpt><trkpt lat="40.5015083" lon="16.69891"><ele>39.0</ele><time>2026-04-12T13:01:19.439Z</time></trkpt><trkpt lat="40.5015233" lon="16.69907"><ele>40.0</ele><time>2026-04-12T13:01:20.439Z</time></trkpt><trkpt lat="40.5015383" lon="16.699225"><ele>41.0</ele><time>2026-04-12T13:01:21.439Z</time></trkpt><trkpt lat="40.5015567" lon="16.69938"><ele>41.25</ele><time>2026-04-12T13:01:22.439Z</time></trkpt><trkpt lat="40.501575" lon="16.6995367"><ele>41.5</ele><time>2026-04-12T13:01:23.442Z</time></trkpt><trkpt lat="40.5015967" lon="16.6996983"><ele>41.75</ele><time>2026-04-12T13:01:24.439Z</time></trkpt><trkpt lat="40.5016167" lon="16.6998683"><ele>42.0</ele><time>2026-04-12T13:01:25.439Z</time></trkpt><trkpt lat="40.5016317" lon="16.7000367"><ele>42.0</ele><time>2026-04-12T13:01:26.439Z</time></trkpt><trkpt lat="40.5016417" lon="16.700195"><ele>42.0</ele><time>2026-04-12T13:01:27.439Z</time></trkpt><trkpt lat="40.50164" lon="16.700345"><ele>42.0</ele><time>2026-04-12T13:01:28.439Z</time></trkpt><trkpt lat="40.5016233" lon="16.700485"><ele>42.0</ele><time>2026-04-12T13:01:29.441Z</time></trkpt><trkpt lat="40.501595" lon="16.70062"><ele>42.0</ele><time>2026-04-12T13:01:30.439Z</time></trkpt><trkpt lat="40.5015633" lon="16.70075"><ele>42.166666666666664</ele><time>2026-04-12T13:01:31.44Z</time></trkpt><trkpt lat="40.5015283" lon="16.7008717"><ele>42.333333333333336</ele><time>2026-04-12T13:01:32.441Z</time></trkpt><trkpt lat="40.5015017" lon="16.7009817"><ele>42.5</ele><time>2026-04-12T13:01:33.439Z</time></trkpt><trkpt lat="40.50149" lon="16.7010717"><ele>42.66666666666667</ele><time>2026-04-12T13:01:34.44Z</time></trkpt><trkpt lat="40.5015217" lon="16.701175"><ele>42.833333333333336</ele><time>2026-04-12T13:01:36.44Z</time></trkpt><trkpt lat="40.5016133" lon="16.7011433"><ele>43.0</ele><time>2026-04-12T13:01:38.441Z</time></trkpt><trkpt lat="40.5017017" lon="16.701025"><ele>43.0</ele><time>2026-04-12T13:01:40.439Z</time></trkpt><trkpt lat="40.5017683" lon="16.7009717"><ele>43.0</ele><time>2026-04-12T13:01:41.44Z</time></trkpt><trkpt lat="40.5018433" lon="16.7009133"><ele>43.0</ele><time>2026-04-12T13:01:42.44Z</time></trkpt><trkpt lat="40.5019317" lon="16.70085"><ele>43.0</ele><time>2026-04-12T13:01:43.44Z</time></trkpt><trkpt lat="40.502035" lon="16.7007767"><ele>43.0</ele><time>2026-04-12T13:01:44.44Z</time></trkpt><trkpt lat="40.50214" lon="16.700705"><ele>44.0</ele><time>2026-04-12T13:01:45.439Z</time></trkpt><trkpt lat="40.502235" lon="16.7006433"><ele>45.0</ele><time>2026-04-12T13:01:46.439Z</time></trkpt><trkpt lat="40.5023267" lon="16.7005883"><ele>46.0</ele><time>2026-04-12T13:01:47.439Z</time></trkpt><trkpt lat="40.5024133" lon="16.70053"><ele>47.0</ele><time>2026-04-12T13:01:48.438Z</time></trkpt><trkpt lat="40.5025" lon="16.7004767"><ele>48.0</ele><time>2026-04-12T13:01:49.439Z</time></trkpt><trkpt lat="40.5025817" lon="16.700425"><ele>48.0</ele><time>2026-04-12T13:01:50.44Z</time></trkpt><trkpt lat="40.5026633" lon="16.70037"><ele>48.0</ele><time>2026-04-12T13:01:51.439Z</time></trkpt><trkpt lat="40.5027417" lon="16.70031"><ele>48.0</ele><time>2026-04-12T13:01:52.439Z</time></trkpt><trkpt lat="40.5028117" lon="16.7002533"><ele>48.0</ele><time>2026-04-12T13:01:53.439Z</time></trkpt><trkpt lat="40.5028783" lon="16.7001983"><ele>48.0</ele><time>2026-04-12T13:01:54.439Z</time></trkpt><trkpt lat="40.5029517" lon="16.7001483"><ele>48.0</ele><time>2026-04-12T13:01:55.44Z</time></trkpt><trkpt lat="40.5030317" lon="16.7000917"><ele>47.599999999999994</ele><time>2026-04-12T13:01:56.44Z</time></trkpt><trkpt lat="40.5031133" lon="16.7000217"><ele>47.199999999999996</ele><time>2026-04-12T13:01:57.439Z</time></trkpt><trkpt lat="40.503195" lon="16.69995"><ele>46.8</ele><time>2026-04-12T13:01:58.44Z</time></trkpt><trkpt lat="40.5032733" lon="16.6998767"><ele>46.4</ele><time>2026-04-12T13:01:59.44Z</time></trkpt><trkpt lat="40.50335" lon="16.6998033"><ele>46.0</ele><time>2026-04-12T13:02:00.44Z</time></trkpt><trkpt lat="40.5034233" lon="16.6997383"><ele>46.0</ele><time>2026-04-12T13:02:01.44Z</time></trkpt><trkpt lat="40.5034983" lon="16.6996933"><ele>46.0</ele><time>2026-04-12T13:02:02.44Z</time></trkpt><trkpt lat="40.5035733" lon="16.6996517"><ele>46.0</ele><time>2026-04-12T13:02:03.44Z</time></trkpt><trkpt lat="40.5036517" lon="16.6996167"><ele>46.0</ele><time>2026-04-12T13:02:04.44Z</time></trkpt><trkpt lat="40.50374" lon="16.6995733"><ele>46.0</ele><time>2026-04-12T13:02:05.443Z</time></trkpt><trkpt lat="40.5038367" lon="16.6995183"><ele>46.0</ele><time>2026-04-12T13:02:06.439Z</time></trkpt><trkpt lat="40.5039333" lon="16.69945"><ele>46.4</ele><time>2026-04-12T13:02:07.439Z</time></trkpt><trkpt lat="40.5040233" lon="16.6993817"><ele>46.8</ele><time>2026-04-12T13:02:08.439Z</time></trkpt><trkpt lat="40.50411" lon="16.6993183"><ele>47.199999999999996</ele><time>2026-04-12T13:02:09.44Z</time></trkpt><trkpt lat="40.5041967" lon="16.6992667"><ele>47.599999999999994</ele><time>2026-04-12T13:02:10.44Z</time></trkpt><trkpt lat="40.50428" lon="16.6992167"><ele>48.0</ele><time>2026-04-12T13:02:11.44Z</time></trkpt><trkpt lat="40.5043633" lon="16.69915"><ele>48.0</ele><time>2026-04-12T13:02:12.44Z</time></trkpt><trkpt lat="40.504465" lon="16.6990817"><ele>48.0</ele><time>2026-04-12T13:02:13.444Z</time></trkpt><trkpt lat="40.50456" lon="16.6990217"><ele>48.0</ele><time>2026-04-12T13:02:14.44Z</time></trkpt><trkpt lat="40.5046467" lon="16.6989683"><ele>48.0</ele><time>2026-04-12T13:02:15.441Z</time></trkpt><trkpt lat="40.504725" lon="16.6989183"><ele>48.0</ele><time>2026-04-12T13:02:16.441Z</time></trkpt><trkpt lat="40.5048" lon="16.698875"><ele>48.333333333333336</ele><time>2026-04-12T13:02:17.44Z</time></trkpt><trkpt lat="40.5048683" lon="16.6988133"><ele>48.66666666666667</ele><time>2026-04-12T13:02:18.439Z</time></trkpt><trkpt lat="40.5049383" lon="16.6987533"><ele>49.0</ele><time>2026-04-12T13:02:19.439Z</time></trkpt><trkpt lat="40.5050133" lon="16.69869"><ele>49.333333333333336</ele><time>2026-04-12T13:02:20.44Z</time></trkpt><trkpt lat="40.5050833" lon="16.6986367"><ele>49.66666666666667</ele><time>2026-04-12T13:02:21.438Z</time></trkpt><trkpt lat="40.5051483" lon="16.6985867"><ele>50.0</ele><time>2026-04-12T13:02:22.439Z</time></trkpt><trkpt lat="40.5052167" lon="16.6985233"><ele>50.2</ele><time>2026-04-12T13:02:23.439Z</time></trkpt><trkpt lat="40.5052933" lon="16.6984633"><ele>50.4</ele><time>2026-04-12T13:02:24.438Z</time></trkpt><trkpt lat="40.5053883" lon="16.698405"><ele>50.599999999999994</ele><time>2026-04-12T13:02:25.439Z</time></trkpt><trkpt lat="40.5054883" lon="16.6983467"><ele>50.8</ele><time>2026-04-12T13:02:26.438Z</time></trkpt><trkpt lat="40.5055783" lon="16.6983"><ele>51.0</ele><time>2026-04-12T13:02:27.438Z</time></trkpt><trkpt lat="40.505665" lon="16.69825"><ele>51.599999999999994</ele><time>2026-04-12T13:02:28.438Z</time></trkpt><trkpt lat="40.5057483" lon="16.6982"><ele>52.2</ele><time>2026-04-12T13:02:29.439Z</time></trkpt><trkpt lat="40.5058283" lon="16.6981417"><ele>52.800000000000004</ele><time>2026-04-12T13:02:30.439Z</time></trkpt><trkpt lat="40.5059117" lon="16.6980817"><ele>53.400000000000006</ele><time>2026-04-12T13:02:31.44Z</time></trkpt><trkpt lat="40.5059967" lon="16.69802"><ele>54.0</ele><time>2026-04-12T13:02:32.439Z</time></trkpt><trkpt lat="40.506085" lon="16.6979567"><ele>54.0</ele><time>2026-04-12T13:02:33.439Z</time></trkpt><trkpt lat="40.5061717" lon="16.697895"><ele>54.00000000000001</ele><time>2026-04-12T13:02:34.439Z</time></trkpt><trkpt lat="40.506255" lon="16.6978367"><ele>54.00000000000001</ele><time>2026-04-12T13:02:35.44Z</time></trkpt><trkpt lat="40.5063383" lon="16.6977783"><ele>54.0</ele><time>2026-04-12T13:02:36.439Z</time></trkpt><trkpt lat="40.5064217" lon="16.697725"><ele>54.0</ele><time>2026-04-12T13:02:37.439Z</time></trkpt><trkpt lat="40.5065" lon="16.69767"><ele>55.400000000000006</ele><time>2026-04-12T13:02:38.44Z</time></trkpt><trkpt lat="40.5065833" lon="16.697615"><ele>56.800000000000004</ele><time>2026-04-12T13:02:39.439Z</time></trkpt><trkpt lat="40.5066667" lon="16.6975567"><ele>58.199999999999996</ele><time>2026-04-12T13:02:40.439Z</time></trkpt><trkpt lat="40.5067483" lon="16.6975"><ele>59.599999999999994</ele><time>2026-04-12T13:02:41.44Z</time></trkpt><trkpt lat="40.5068267" lon="16.69744"><ele>61.0</ele><time>2026-04-12T13:02:42.438Z</time></trkpt><trkpt lat="40.5069033" lon="16.697375"><ele>60.99999999999999</ele><time>2026-04-12T13:02:43.438Z</time></trkpt><trkpt lat="40.5069783" lon="16.6973183"><ele>61.0</ele><time>2026-04-12T13:02:44.439Z</time></trkpt><trkpt lat="40.5070467" lon="16.6972683"><ele>61.0</ele><time>2026-04-12T13:02:45.438Z</time></trkpt><trkpt lat="40.5071083" lon="16.69722"><ele>61.0</ele><time>2026-04-12T13:02:46.438Z</time></trkpt><trkpt lat="40.50719" lon="16.6971733"><ele>60.99999999999999</ele><time>2026-04-12T13:02:48.438Z</time></trkpt><trkpt lat="40.5072667" lon="16.697175"><ele>61.0</ele><time>2026-04-12T13:02:51.439Z</time></trkpt><trkpt lat="40.5073467" lon="16.697165"><ele>60.199999999999996</ele><time>2026-04-12T13:02:53.438Z</time></trkpt><trkpt lat="40.507435" lon="16.6971217"><ele>59.39999999999999</ele><time>2026-04-12T13:02:55.439Z</time></trkpt><trkpt lat="40.50753" lon="16.69713"><ele>58.6</ele><time>2026-04-12T13:02:57.439Z</time></trkpt><trkpt lat="40.5076283" lon="16.6971533"><ele>57.8</ele><time>2026-04-12T13:02:59.439Z</time></trkpt><trkpt lat="40.5077283" lon="16.697175"><ele>57.0</ele><time>2026-04-12T13:03:01.439Z</time></trkpt><trkpt lat="40.5078433" lon="16.6971933"><ele>57.0</ele><time>2026-04-12T13:03:03.439Z</time></trkpt><trkpt lat="40.5079067" lon="16.6972033"><ele>57.0</ele><time>2026-04-12T13:03:04.439Z</time></trkpt><trkpt lat="40.5079733" lon="16.6972167"><ele>57.0</ele><time>2026-04-12T13:03:05.439Z</time></trkpt><trkpt lat="40.5080417" lon="16.6972317"><ele>57.0</ele><time>2026-04-12T13:03:06.439Z</time></trkpt><trkpt lat="40.50811" lon="16.6972433"><ele>57.0</ele><time>2026-04-12T13:03:07.439Z</time></trkpt><trkpt lat="40.508225" lon="16.69723"><ele>57.0</ele><time>2026-04-12T13:03:09.439Z</time></trkpt><trkpt lat="40.5083517" lon="16.6971833"><ele>57.42857142857142</ele><time>2026-04-12T13:03:11.438Z</time></trkpt><trkpt lat="40.5084117" lon="16.6971467"><ele>57.85714285714285</ele><time>2026-04-12T13:03:12.439Z</time></trkpt><trkpt lat="40.508465" lon="16.6971"><ele>58.285714285714285</ele><time>2026-04-12T13:03:13.438Z</time></trkpt><trkpt lat="40.5085133" lon="16.6970467"><ele>58.71428571428571</ele><time>2026-04-12T13:03:14.439Z</time></trkpt><trkpt lat="40.5086117" lon="16.6969533"><ele>59.14285714285714</ele><time>2026-04-12T13:03:16.439Z</time></trkpt><trkpt lat="40.5086717" lon="16.6969267"><ele>59.57142857142857</ele><time>2026-04-12T13:03:17.439Z</time></trkpt><trkpt lat="40.5087383" lon="16.696915"><ele>60.0</ele><time>2026-04-12T13:03:18.442Z</time></trkpt><trkpt lat="40.5088033" lon="16.6969167"><ele>61.166666666666664</ele><time>2026-04-12T13:03:19.438Z</time></trkpt><trkpt lat="40.5088683" lon="16.6969217"><ele>62.33333333333333</ele><time>2026-04-12T13:03:20.44Z</time></trkpt><trkpt lat="40.50899" lon="16.696935"><ele>63.5</ele><time>2026-04-12T13:03:22.442Z</time></trkpt><trkpt lat="40.509055" lon="16.6969467"><ele>64.66666666666666</ele><time>2026-04-12T13:03:23.439Z</time></trkpt><trkpt lat="40.5091183" lon="16.6969617"><ele>65.83333333333333</ele><time>2026-04-12T13:03:24.438Z</time></trkpt><trkpt lat="40.509185" lon="16.6969767"><ele>67.0</ele><time>2026-04-12T13:03:25.439Z</time></trkpt><trkpt lat="40.509255" lon="16.6969917"><ele>67.0</ele><time>2026-04-12T13:03:26.438Z</time></trkpt><trkpt lat="40.509325" lon="16.6970067"><ele>67.0</ele><time>2026-04-12T13:03:27.438Z</time></trkpt><trkpt lat="40.5093933" lon="16.6970233"><ele>67.0</ele><time>2026-04-12T13:03:28.438Z</time></trkpt><trkpt lat="40.5094583" lon="16.6970417"><ele>67.0</ele><time>2026-04-12T13:03:29.44Z</time></trkpt><trkpt lat="40.5095217" lon="16.6970667"><ele>67.0</ele><time>2026-04-12T13:03:30.439Z</time></trkpt><trkpt lat="40.5095833" lon="16.69709"><ele>67.0</ele><time>2026-04-12T13:03:31.44Z</time></trkpt><trkpt lat="40.509705" lon="16.6971367"><ele>68.0</ele><time>2026-04-12T13:03:33.439Z</time></trkpt><trkpt lat="40.509765" lon="16.6971667"><ele>69.0</ele><time>2026-04-12T13:03:34.439Z</time></trkpt><trkpt lat="40.5098283" lon="16.6971983"><ele>70.0</ele><time>2026-04-12T13:03:35.439Z</time></trkpt><trkpt lat="40.509895" lon="16.6972183"><ele>71.0</ele><time>2026-04-12T13:03:36.439Z</time></trkpt><trkpt lat="40.5099617" lon="16.697245"><ele>72.0</ele><time>2026-04-12T13:03:37.44Z</time></trkpt><trkpt lat="40.5100317" lon="16.6972683"><ele>73.0</ele><time>2026-04-12T13:03:38.44Z</time></trkpt><trkpt lat="40.5101" lon="16.6973"><ele>74.0</ele><time>2026-04-12T13:03:39.439Z</time></trkpt><trkpt lat="40.5101617" lon="16.69734"><ele>74.0</ele><time>2026-04-12T13:03:40.439Z</time></trkpt><trkpt lat="40.5102183" lon="16.6973833"><ele>74.0</ele><time>2026-04-12T13:03:41.442Z</time></trkpt><trkpt lat="40.5102717" lon="16.6974333"><ele>74.0</ele><time>2026-04-12T13:03:42.439Z</time></trkpt><trkpt lat="40.5103233" lon="16.6974817"><ele>74.0</ele><time>2026-04-12T13:03:43.439Z</time></trkpt><trkpt lat="40.51043" lon="16.69756"><ele>74.0</ele><time>2026-04-12T13:03:45.439Z</time></trkpt><trkpt lat="40.510525" lon="16.697675"><ele>74.0</ele><time>2026-04-12T13:03:47.438Z</time></trkpt><trkpt lat="40.5105717" lon="16.6977483"><ele>77.6</ele><time>2026-04-12T13:03:48.438Z</time></trkpt><trkpt lat="40.51062" lon="16.6978233"><ele>81.2</ele><time>2026-04-12T13:03:49.439Z</time></trkpt><trkpt lat="40.510665" lon="16.6978883"><ele>84.8</ele><time>2026-04-12T13:03:50.439Z</time></trkpt><trkpt lat="40.5107533" lon="16.6979483"><ele>88.39999999999999</ele><time>2026-04-12T13:03:52.439Z</time></trkpt><trkpt lat="40.5108683" lon="16.6980033"><ele>92.0</ele><time>2026-04-12T13:03:54.439Z</time></trkpt><trkpt lat="40.5109583" lon="16.6980867"><ele>92.0</ele><time>2026-04-12T13:03:56.44Z</time></trkpt><trkpt lat="40.511045" lon="16.698175"><ele>92.0</ele><time>2026-04-12T13:03:58.445Z</time></trkpt><trkpt lat="40.511115" lon="16.69828"><ele>92.0</ele><time>2026-04-12T13:04:00.439Z</time></trkpt><trkpt lat="40.511215" lon="16.6983767"><ele>92.0</ele><time>2026-04-12T13:04:02.439Z</time></trkpt><trkpt lat="40.511275" lon="16.6984217"><ele>92.0</ele><time>2026-04-12T13:04:03.439Z</time></trkpt><trkpt lat="40.51134" lon="16.69846"><ele>92.0</ele><time>2026-04-12T13:04:04.439Z</time></trkpt><trkpt lat="40.5114" lon="16.6984967"><ele>92.0</ele><time>2026-04-12T13:04:05.439Z</time></trkpt><trkpt lat="40.511465" lon="16.6984933"><ele>92.0</ele><time>2026-04-12T13:04:08.438Z</time></trkpt><trkpt lat="40.51139" lon="16.6984533"><ele>92.0</ele><time>2026-04-12T13:04:16.438Z</time></trkpt><trkpt lat="40.5113117" lon="16.6984133"><ele>92.0</ele><time>2026-04-12T13:04:18.439Z</time></trkpt><trkpt lat="40.5112233" lon="16.6983667"><ele>92.0</ele><time>2026-04-12T13:04:20.439Z</time></trkpt><trkpt lat="40.5111467" lon="16.6983233"><ele>92.0</ele><time>2026-04-12T13:04:22.439Z</time></trkpt><trkpt lat="40.511075" lon="16.6982683"><ele>92.0</ele><time>2026-04-12T13:04:24.439Z</time></trkpt><trkpt lat="40.5110133" lon="16.6982"><ele>92.0</ele><time>2026-04-12T13:04:26.438Z</time></trkpt><trkpt lat="40.5109617" lon="16.69812"><ele>92.0</ele><time>2026-04-12T13:04:28.438Z</time></trkpt><trkpt lat="40.5109" lon="16.698045"><ele>92.0</ele><time>2026-04-12T13:04:30.437Z</time></trkpt><trkpt lat="40.5108333" lon="16.697965"><ele>92.0</ele><time>2026-04-12T13:04:32.441Z</time></trkpt><trkpt lat="40.510755" lon="16.6979183"><ele>92.0</ele><time>2026-04-12T13:04:34.439Z</time></trkpt><trkpt lat="40.510675" lon="16.697875"><ele>92.0</ele><time>2026-04-12T13:04:36.439Z</time></trkpt><trkpt lat="40.5106133" lon="16.6978"><ele>92.0</ele><time>2026-04-12T13:04:38.439Z</time></trkpt><trkpt lat="40.5105583" lon="16.6977083"><ele>92.0</ele><time>2026-04-12T13:04:40.44Z</time></trkpt><trkpt lat="40.510505" lon="16.6976367"><ele>92.0</ele><time>2026-04-12T13:04:42.439Z</time></trkpt><trkpt lat="40.51045" lon="16.6975783"><ele>92.0</ele><time>2026-04-12T13:04:44.439Z</time></trkpt><trkpt lat="40.5103867" lon="16.6975033"><ele>88.39999999999999</ele><time>2026-04-12T13:04:46.439Z</time></trkpt><trkpt lat="40.51031" lon="16.6974417"><ele>84.8</ele><time>2026-04-12T13:04:48.438Z</time></trkpt><trkpt lat="40.51024" lon="16.6973783"><ele>81.2</ele><time>2026-04-12T13:04:50.438Z</time></trkpt><trkpt lat="40.510155" lon="16.6973317"><ele>77.6</ele><time>2026-04-12T13:04:52.442Z</time></trkpt><trkpt lat="40.5100683" lon="16.6972733"><ele>74.0</ele><time>2026-04-12T13:04:54.439Z</time></trkpt><trkpt lat="40.5099683" lon="16.6972467"><ele>74.0</ele><time>2026-04-12T13:04:56.439Z</time></trkpt><trkpt lat="40.5098483" lon="16.69721"><ele>74.0</ele><time>2026-04-12T13:04:58.439Z</time></trkpt><trkpt lat="40.5097233" lon="16.6971667"><ele>74.0</ele><time>2026-04-12T13:05:00.44Z</time></trkpt><trkpt lat="40.5096633" lon="16.697135"><ele>74.0</ele><time>2026-04-12T13:05:01.439Z</time></trkpt><trkpt lat="40.5096017" lon="16.6970983"><ele>74.0</ele><time>2026-04-12T13:05:02.44Z</time></trkpt><trkpt lat="40.509535" lon="16.6970767"><ele>72.83333333333334</ele><time>2026-04-12T13:05:03.439Z</time></trkpt><trkpt lat="40.5094667" lon="16.6970583"><ele>71.66666666666667</ele><time>2026-04-12T13:05:04.44Z</time></trkpt><trkpt lat="40.5093983" lon="16.6970417"><ele>70.5</ele><time>2026-04-12T13:05:05.44Z</time></trkpt><trkpt lat="40.50933" lon="16.6970267"><ele>69.33333333333333</ele><time>2026-04-12T13:05:06.438Z</time></trkpt><trkpt lat="40.5092117" lon="16.6969783"><ele>68.16666666666666</ele><time>2026-04-12T13:05:08.438Z</time></trkpt><trkpt lat="40.5091517" lon="16.69695"><ele>67.0</ele><time>2026-04-12T13:05:09.439Z</time></trkpt><trkpt lat="40.50909" lon="16.6969317"><ele>67.0</ele><time>2026-04-12T13:05:10.438Z</time></trkpt><trkpt lat="40.5090233" lon="16.69692"><ele>67.0</ele><time>2026-04-12T13:05:11.44Z</time></trkpt><trkpt lat="40.508955" lon="16.6969083"><ele>67.0</ele><time>2026-04-12T13:05:12.439Z</time></trkpt><trkpt lat="40.5088883" lon="16.6969033"><ele>67.0</ele><time>2026-04-12T13:05:13.439Z</time></trkpt><trkpt lat="40.5088183" lon="16.69691"><ele>67.0</ele><time>2026-04-12T13:05:14.44Z</time></trkpt><trkpt lat="40.508755" lon="16.6969217"><ele>67.0</ele><time>2026-04-12T13:05:15.44Z</time></trkpt><trkpt lat="40.50869" lon="16.69693"><ele>67.0</ele><time>2026-04-12T13:05:16.439Z</time></trkpt><trkpt lat="40.5086233" lon="16.6969517"><ele>66.14285714285714</ele><time>2026-04-12T13:05:17.439Z</time></trkpt><trkpt lat="40.50856" lon="16.6969817"><ele>65.28571428571428</ele><time>2026-04-12T13:05:18.439Z</time></trkpt><trkpt lat="40.5084983" lon="16.697015"><ele>64.42857142857142</ele><time>2026-04-12T13:05:19.44Z</time></trkpt><trkpt lat="40.5084433" lon="16.6970667"><ele>63.57142857142857</ele><time>2026-04-12T13:05:20.44Z</time></trkpt><trkpt lat="40.5083867" lon="16.6971217"><ele>62.71428571428571</ele><time>2026-04-12T13:05:21.439Z</time></trkpt><trkpt lat="40.508335" lon="16.69717"><ele>61.85714285714285</ele><time>2026-04-12T13:05:22.44Z</time></trkpt><trkpt lat="40.50824" lon="16.6972317"><ele>60.99999999999999</ele><time>2026-04-12T13:05:24.439Z</time></trkpt><trkpt lat="40.50812" lon="16.6972567"><ele>60.99999999999999</ele><time>2026-04-12T13:05:26.44Z</time></trkpt><trkpt lat="40.508055" lon="16.6972617"><ele>61.0</ele><time>2026-04-12T13:05:27.438Z</time></trkpt><trkpt lat="40.507985" lon="16.6972517"><ele>60.99999999999999</ele><time>2026-04-12T13:05:28.438Z</time></trkpt><trkpt lat="40.50792" lon="16.6972383"><ele>60.99999999999999</ele><time>2026-04-12T13:05:29.439Z</time></trkpt><trkpt lat="40.5078567" lon="16.6972317"><ele>61.0</ele><time>2026-04-12T13:05:30.439Z</time></trkpt><trkpt lat="40.5077933" lon="16.6972267"><ele>60.99999999999999</ele><time>2026-04-12T13:05:31.522Z</time></trkpt><trkpt lat="40.5076783" lon="16.6972117"><ele>60.99999999999999</ele><time>2026-04-12T13:05:33.439Z</time></trkpt><trkpt lat="40.50756" lon="16.6972017"><ele>60.99999999999999</ele><time>2026-04-12T13:05:35.441Z</time></trkpt><trkpt lat="40.5074917" lon="16.6971933"><ele>61.0</ele><time>2026-04-12T13:05:36.44Z</time></trkpt><trkpt lat="40.5074267" lon="16.6971883"><ele>60.99999999999999</ele><time>2026-04-12T13:05:37.439Z</time></trkpt><trkpt lat="40.50736" lon="16.6971833"><ele>60.99999999999999</ele><time>2026-04-12T13:05:38.44Z</time></trkpt><trkpt lat="40.5072967" lon="16.6971783"><ele>61.0</ele><time>2026-04-12T13:05:39.439Z</time></trkpt><trkpt lat="40.5071933" lon="16.6971883"><ele>60.99999999999999</ele><time>2026-04-12T13:05:41.439Z</time></trkpt><trkpt lat="40.5071333" lon="16.6972167"><ele>60.99999999999999</ele><time>2026-04-12T13:05:42.439Z</time></trkpt><trkpt lat="40.5070683" lon="16.6972567"><ele>60.99999999999999</ele><time>2026-04-12T13:05:43.439Z</time></trkpt><trkpt lat="40.507005" lon="16.6973"><ele>61.0</ele><time>2026-04-12T13:05:44.439Z</time></trkpt><trkpt lat="40.5069433" lon="16.69734"><ele>60.99999999999999</ele><time>2026-04-12T13:05:45.44Z</time></trkpt><trkpt lat="40.506885" lon="16.6973767"><ele>60.99999999999999</ele><time>2026-04-12T13:05:46.44Z</time></trkpt><trkpt lat="40.506825" lon="16.6974183"><ele>61.0</ele><time>2026-04-12T13:05:47.439Z</time></trkpt><trkpt lat="40.5067617" lon="16.6974667"><ele>60.99999999999999</ele><time>2026-04-12T13:05:48.439Z</time></trkpt><trkpt lat="40.5066967" lon="16.6975167"><ele>60.99999999999999</ele><time>2026-04-12T13:05:49.439Z</time></trkpt><trkpt lat="40.5066317" lon="16.6975667"><ele>60.99999999999999</ele><time>2026-04-12T13:05:50.439Z</time></trkpt><trkpt lat="40.506565" lon="16.6976217"><ele>61.0</ele><time>2026-04-12T13:05:51.439Z</time></trkpt><trkpt lat="40.5065" lon="16.6976617"><ele>61.0</ele><time>2026-04-12T13:05:52.439Z</time></trkpt><trkpt lat="40.5064333" lon="16.6977083"><ele>61.0</ele><time>2026-04-12T13:05:53.439Z</time></trkpt><trkpt lat="40.506365" lon="16.6977533"><ele>60.99999999999999</ele><time>2026-04-12T13:05:54.441Z</time></trkpt><trkpt lat="40.5062833" lon="16.69781"><ele>61.0</ele><time>2026-04-12T13:05:55.439Z</time></trkpt><trkpt lat="40.5061883" lon="16.6978767"><ele>59.599999999999994</ele><time>2026-04-12T13:05:56.44Z</time></trkpt><trkpt lat="40.5060967" lon="16.697945"><ele>58.199999999999996</ele><time>2026-04-12T13:05:57.439Z</time></trkpt><trkpt lat="40.5060117" lon="16.6980083"><ele>56.800000000000004</ele><time>2026-04-12T13:05:58.439Z</time></trkpt><trkpt lat="40.5059317" lon="16.6980683"><ele>55.400000000000006</ele><time>2026-04-12T13:05:59.439Z</time></trkpt><trkpt lat="40.5058533" lon="16.6981233"><ele>54.0</ele><time>2026-04-12T13:06:00.439Z</time></trkpt><trkpt lat="40.5057783" lon="16.69818"><ele>54.0</ele><time>2026-04-12T13:06:01.44Z</time></trkpt><trkpt lat="40.5057" lon="16.69824"><ele>54.00000000000001</ele><time>2026-04-12T13:06:02.439Z</time></trkpt><trkpt lat="40.5056183" lon="16.698295"><ele>54.00000000000001</ele><time>2026-04-12T13:06:03.445Z</time></trkpt><trkpt lat="40.5055283" lon="16.6983433"><ele>54.0</ele><time>2026-04-12T13:06:04.439Z</time></trkpt><trkpt lat="40.5054417" lon="16.6983867"><ele>54.0</ele><time>2026-04-12T13:06:05.439Z</time></trkpt><trkpt lat="40.5053633" lon="16.6984333"><ele>53.5</ele><time>2026-04-12T13:06:06.442Z</time></trkpt><trkpt lat="40.5052833" lon="16.6984783"><ele>53.0</ele><time>2026-04-12T13:06:07.441Z</time></trkpt><trkpt lat="40.5052017" lon="16.69852"><ele>52.5</ele><time>2026-04-12T13:06:08.439Z</time></trkpt><trkpt lat="40.5051283" lon="16.698595"><ele>52.0</ele><time>2026-04-12T13:06:09.439Z</time></trkpt><trkpt lat="40.5050567" lon="16.6986633"><ele>51.5</ele><time>2026-04-12T13:06:10.439Z</time></trkpt><trkpt lat="40.50498" lon="16.69872"><ele>51.0</ele><time>2026-04-12T13:06:11.439Z</time></trkpt><trkpt lat="40.5049033" lon="16.6987833"><ele>50.8</ele><time>2026-04-12T13:06:12.439Z</time></trkpt><trkpt lat="40.5048267" lon="16.6988467"><ele>50.599999999999994</ele><time>2026-04-12T13:06:13.439Z</time></trkpt><trkpt lat="40.504745" lon="16.69891"><ele>50.4</ele><time>2026-04-12T13:06:14.439Z</time></trkpt><trkpt lat="40.50466" lon="16.6989683"><ele>50.2</ele><time>2026-04-12T13:06:15.439Z</time></trkpt><trkpt lat="40.5045767" lon="16.6990283"><ele>50.0</ele><time>2026-04-12T13:06:16.439Z</time></trkpt><trkpt lat="40.5044917" lon="16.6990817"><ele>49.66666666666667</ele><time>2026-04-12T13:06:17.439Z</time></trkpt><trkpt lat="40.504415" lon="16.6991283"><ele>49.333333333333336</ele><time>2026-04-12T13:06:18.439Z</time></trkpt><trkpt lat="40.5043367" lon="16.6991733"><ele>49.0</ele><time>2026-04-12T13:06:19.439Z</time></trkpt><trkpt lat="40.5042533" lon="16.6992183"><ele>48.66666666666667</ele><time>2026-04-12T13:06:20.44Z</time></trkpt><trkpt lat="40.5041783" lon="16.6992683"><ele>48.333333333333336</ele><time>2026-04-12T13:06:21.439Z</time></trkpt><trkpt lat="40.5041" lon="16.6993083"><ele>48.0</ele><time>2026-04-12T13:06:22.44Z</time></trkpt><trkpt lat="40.5040233" lon="16.6993567"><ele>48.0</ele><time>2026-04-12T13:06:23.439Z</time></trkpt><trkpt lat="40.5039467" lon="16.6994083"><ele>48.0</ele><time>2026-04-12T13:06:24.439Z</time></trkpt><trkpt lat="40.503865" lon="16.69946"><ele>48.0</ele><time>2026-04-12T13:06:25.44Z</time></trkpt><trkpt lat="40.503785" lon="16.6995083"><ele>48.0</ele><time>2026-04-12T13:06:26.439Z</time></trkpt><trkpt lat="40.50371" lon="16.69957"><ele>48.0</ele><time>2026-04-12T13:06:27.438Z</time></trkpt><trkpt lat="40.5036233" lon="16.699625"><ele>48.0</ele><time>2026-04-12T13:06:28.439Z</time></trkpt><trkpt lat="40.503535" lon="16.6996767"><ele>47.599999999999994</ele><time>2026-04-12T13:06:29.439Z</time></trkpt><trkpt lat="40.503445" lon="16.6997417"><ele>47.199999999999996</ele><time>2026-04-12T13:06:30.439Z</time></trkpt><trkpt lat="40.503345" lon="16.6998117"><ele>46.8</ele><time>2026-04-12T13:06:31.44Z</time></trkpt><trkpt lat="40.5032467" lon="16.69989"><ele>46.4</ele><time>2026-04-12T13:06:32.44Z</time></trkpt><trkpt lat="40.5031533" lon="16.6999717"><ele>46.0</ele><time>2026-04-12T13:06:33.439Z</time></trkpt><trkpt lat="40.5030667" lon="16.7000517"><ele>46.0</ele><time>2026-04-12T13:06:34.439Z</time></trkpt><trkpt lat="40.50298" lon="16.7001183"><ele>46.0</ele><time>2026-04-12T13:06:35.439Z</time></trkpt><trkpt lat="40.5028917" lon="16.70018"><ele>46.0</ele><time>2026-04-12T13:06:36.439Z</time></trkpt><trkpt lat="40.5027983" lon="16.7002417"><ele>46.0</ele><time>2026-04-12T13:06:37.44Z</time></trkpt><trkpt lat="40.5027" lon="16.70031"><ele>46.0</ele><time>2026-04-12T13:06:38.439Z</time></trkpt><trkpt lat="40.502605" lon="16.7003783"><ele>46.4</ele><time>2026-04-12T13:06:39.439Z</time></trkpt><trkpt lat="40.5025117" lon="16.700445"><ele>46.8</ele><time>2026-04-12T13:06:40.439Z</time></trkpt><trkpt lat="40.5024167" lon="16.70051"><ele>47.199999999999996</ele><time>2026-04-12T13:06:41.44Z</time></trkpt><trkpt lat="40.5023233" lon="16.7005733"><ele>47.599999999999994</ele><time>2026-04-12T13:06:42.439Z</time></trkpt><trkpt lat="40.5022367" lon="16.7006283"><ele>48.0</ele><time>2026-04-12T13:06:43.44Z</time></trkpt><trkpt lat="40.5021567" lon="16.7006767"><ele>48.0</ele><time>2026-04-12T13:06:44.44Z</time></trkpt><trkpt lat="40.5020817" lon="16.7007233"><ele>48.0</ele><time>2026-04-12T13:06:45.44Z</time></trkpt><trkpt lat="40.50201" lon="16.7007717"><ele>48.0</ele><time>2026-04-12T13:06:46.441Z</time></trkpt><trkpt lat="40.5019417" lon="16.7008217"><ele>48.0</ele><time>2026-04-12T13:06:47.438Z</time></trkpt><trkpt lat="40.501875" lon="16.70087"><ele>48.0</ele><time>2026-04-12T13:06:48.439Z</time></trkpt><trkpt lat="40.50181" lon="16.7009167"><ele>48.0</ele><time>2026-04-12T13:06:49.439Z</time></trkpt><trkpt lat="40.50175" lon="16.7009633"><ele>47.333333333333336</ele><time>2026-04-12T13:06:50.44Z</time></trkpt><trkpt lat="40.5016917" lon="16.7010067"><ele>46.666666666666664</ele><time>2026-04-12T13:06:51.439Z</time></trkpt><trkpt lat="40.501635" lon="16.7010567"><ele>46.0</ele><time>2026-04-12T13:06:52.439Z</time></trkpt><trkpt lat="40.5015433" lon="16.7011333"><ele>45.33333333333333</ele><time>2026-04-12T13:06:54.439Z</time></trkpt><trkpt lat="40.50151" lon="16.70103"><ele>44.666666666666664</ele><time>2026-04-12T13:06:58.44Z</time></trkpt><trkpt lat="40.5015333" lon="16.7009417"><ele>44.0</ele><time>2026-04-12T13:06:59.44Z</time></trkpt><trkpt lat="40.5015667" lon="16.7008217"><ele>43.75</ele><time>2026-04-12T13:07:00.439Z</time></trkpt><trkpt lat="40.5016117" lon="16.700675"><ele>43.5</ele><time>2026-04-12T13:07:01.439Z</time></trkpt><trkpt lat="40.5016483" lon="16.700505"><ele>43.25</ele><time>2026-04-12T13:07:02.44Z</time></trkpt><trkpt lat="40.5016667" lon="16.70031"><ele>43.0</ele><time>2026-04-12T13:07:03.439Z</time></trkpt><trkpt lat="40.5016667" lon="16.7000967"><ele>42.66666666666667</ele><time>2026-04-12T13:07:04.44Z</time></trkpt><trkpt lat="40.5016517" lon="16.6998767"><ele>42.333333333333336</ele><time>2026-04-12T13:07:05.44Z</time></trkpt><trkpt lat="40.501625" lon="16.6996417"><ele>42.0</ele><time>2026-04-12T13:07:06.44Z</time></trkpt><trkpt lat="40.5016" lon="16.6994033"><ele>41.666666666666664</ele><time>2026-04-12T13:07:07.438Z</time></trkpt><trkpt lat="40.501575" lon="16.699175"><ele>41.33333333333333</ele><time>2026-04-12T13:07:08.441Z</time></trkpt><trkpt lat="40.5015517" lon="16.6989567"><ele>41.0</ele><time>2026-04-12T13:07:09.44Z</time></trkpt><trkpt lat="40.5015283" lon="16.6987467"><ele>39.666666666666664</ele><time>2026-04-12T13:07:10.439Z</time></trkpt><trkpt lat="40.5015067" lon="16.69854"><ele>38.333333333333336</ele><time>2026-04-12T13:07:11.44Z</time></trkpt><trkpt lat="40.501485" lon="16.69833"><ele>37.0</ele><time>2026-04-12T13:07:12.439Z</time></trkpt><trkpt lat="40.5014633" lon="16.69812"><ele>37.0</ele><time>2026-04-12T13:07:13.44Z</time></trkpt><trkpt lat="40.50144" lon="16.6979117"><ele>37.0</ele><time>2026-04-12T13:07:14.44Z</time></trkpt><trkpt lat="40.5014183" lon="16.6977067"><ele>37.0</ele><time>2026-04-12T13:07:15.44Z</time></trkpt><trkpt lat="40.5013967" lon="16.697505"><ele>37.66666666666667</ele><time>2026-04-12T13:07:16.44Z</time></trkpt><trkpt lat="40.501375" lon="16.6973033"><ele>38.333333333333336</ele><time>2026-04-12T13:07:17.439Z</time></trkpt><trkpt lat="40.501355" lon="16.6971033"><ele>39.0</ele><time>2026-04-12T13:07:18.44Z</time></trkpt><trkpt lat="40.5013367" lon="16.6969"><ele>41.0</ele><time>2026-04-12T13:07:19.44Z</time></trkpt><trkpt lat="40.5013167" lon="16.6967"><ele>43.0</ele><time>2026-04-12T13:07:20.441Z</time></trkpt><trkpt lat="40.5013" lon="16.6964983"><ele>45.0</ele><time>2026-04-12T13:07:21.439Z</time></trkpt><trkpt lat="40.5012783" lon="16.6962967"><ele>45.0</ele><time>2026-04-12T13:07:22.438Z</time></trkpt><trkpt lat="40.5012533" lon="16.69609"><ele>45.0</ele><time>2026-04-12T13:07:23.438Z</time></trkpt><trkpt lat="40.5012267" lon="16.695885"><ele>45.0</ele><time>2026-04-12T13:07:24.438Z</time></trkpt><trkpt lat="40.5011967" lon="16.69568"><ele>43.666666666666664</ele><time>2026-04-12T13:07:25.438Z</time></trkpt><trkpt lat="40.5011633" lon="16.695475"><ele>42.33333333333333</ele><time>2026-04-12T13:07:26.439Z</time></trkpt><trkpt lat="40.50113" lon="16.6952683"><ele>41.0</ele><time>2026-04-12T13:07:27.438Z</time></trkpt><trkpt lat="40.5010917" lon="16.6950633"><ele>41.0</ele><time>2026-04-12T13:07:28.438Z</time></trkpt><trkpt lat="40.50104" lon="16.6948583"><ele>41.0</ele><time>2026-04-12T13:07:29.44Z</time></trkpt><trkpt lat="40.5009767" lon="16.6946583"><ele>41.0</ele><time>2026-04-12T13:07:30.444Z</time></trkpt><trkpt lat="40.50091" lon="16.6944567"><ele>41.33333333333333</ele><time>2026-04-12T13:07:31.438Z</time></trkpt><trkpt lat="40.50084" lon="16.694255"><ele>41.666666666666664</ele><time>2026-04-12T13:07:32.439Z</time></trkpt><trkpt lat="40.50077" lon="16.6940517"><ele>42.0</ele><time>2026-04-12T13:07:33.439Z</time></trkpt><trkpt lat="40.5007017" lon="16.6938483"><ele>42.0</ele><time>2026-04-12T13:07:34.438Z</time></trkpt><trkpt lat="40.5006333" lon="16.6936467"><ele>42.0</ele><time>2026-04-12T13:07:35.439Z</time></trkpt><trkpt lat="40.5005683" lon="16.6934417"><ele>42.0</ele><time>2026-04-12T13:07:36.439Z</time></trkpt><trkpt lat="40.5005017" lon="16.6932417"><ele>42.333333333333336</ele><time>2026-04-12T13:07:37.438Z</time></trkpt><trkpt lat="40.5004333" lon="16.6930467"><ele>42.66666666666667</ele><time>2026-04-12T13:07:38.438Z</time></trkpt><trkpt lat="40.5003667" lon="16.6928517"><ele>43.0</ele><time>2026-04-12T13:07:39.439Z</time></trkpt><trkpt lat="40.5003017" lon="16.692655"><ele>42.0</ele><time>2026-04-12T13:07:40.438Z</time></trkpt><trkpt lat="40.50024" lon="16.69246"><ele>41.0</ele><time>2026-04-12T13:07:41.439Z</time></trkpt><trkpt lat="40.5001867" lon="16.6922567"><ele>40.0</ele><time>2026-04-12T13:07:42.439Z</time></trkpt><trkpt lat="40.5001417" lon="16.69205"><ele>40.66666666666667</ele><time>2026-04-12T13:07:43.438Z</time></trkpt><trkpt lat="40.5001033" lon="16.6918417"><ele>41.333333333333336</ele><time>2026-04-12T13:07:44.44Z</time></trkpt><trkpt lat="40.5000667" lon="16.69163"><ele>42.0</ele><time>2026-04-12T13:07:45.439Z</time></trkpt><trkpt lat="40.5000317" lon="16.6914167"><ele>42.0</ele><time>2026-04-12T13:07:46.439Z</time></trkpt><trkpt lat="40.49999" lon="16.6912067"><ele>42.0</ele><time>2026-04-12T13:07:47.438Z</time></trkpt><trkpt lat="40.4999483" lon="16.690995"><ele>42.0</ele><time>2026-04-12T13:07:48.438Z</time></trkpt><trkpt lat="40.4999067" lon="16.69078"><ele>42.0</ele><time>2026-04-12T13:07:49.439Z</time></trkpt><trkpt lat="40.4998717" lon="16.6905683"><ele>42.0</ele><time>2026-04-12T13:07:50.439Z</time></trkpt><trkpt lat="40.49984" lon="16.690355"><ele>42.0</ele><time>2026-04-12T13:07:51.439Z</time></trkpt><trkpt lat="40.4998117" lon="16.690135"><ele>42.0</ele><time>2026-04-12T13:07:52.439Z</time></trkpt><trkpt lat="40.49979" lon="16.6899133"><ele>42.0</ele><time>2026-04-12T13:07:53.438Z</time></trkpt><trkpt lat="40.4997767" lon="16.6896967"><ele>42.0</ele><time>2026-04-12T13:07:54.439Z</time></trkpt><trkpt lat="40.499765" lon="16.689475"><ele>43.0</ele><time>2026-04-12T13:07:55.439Z</time></trkpt><trkpt lat="40.4997567" lon="16.68925"><ele>44.0</ele><time>2026-04-12T13:07:56.439Z</time></trkpt><trkpt lat="40.4997483" lon="16.6890233"><ele>45.0</ele><time>2026-04-12T13:07:57.438Z</time></trkpt><trkpt lat="40.49974" lon="16.6887917"><ele>46.0</ele><time>2026-04-12T13:07:58.439Z</time></trkpt><trkpt lat="40.4997317" lon="16.68856"><ele>47.0</ele><time>2026-04-12T13:07:59.438Z</time></trkpt><trkpt lat="40.4997217" lon="16.6883233"><ele>48.0</ele><time>2026-04-12T13:08:00.438Z</time></trkpt><trkpt lat="40.4997133" lon="16.6880867"><ele>48.0</ele><time>2026-04-12T13:08:01.438Z</time></trkpt><trkpt lat="40.4997033" lon="16.6878467"><ele>48.0</ele><time>2026-04-12T13:08:02.439Z</time></trkpt><trkpt lat="40.4996933" lon="16.6876033"><ele>48.0</ele><time>2026-04-12T13:08:03.439Z</time></trkpt><trkpt lat="40.4996833" lon="16.68736"><ele>47.666666666666664</ele><time>2026-04-12T13:08:04.439Z</time></trkpt><trkpt lat="40.499675" lon="16.6871233"><ele>47.33333333333333</ele><time>2026-04-12T13:08:05.439Z</time></trkpt><trkpt lat="40.4996683" lon="16.6868933"><ele>47.0</ele><time>2026-04-12T13:08:06.438Z</time></trkpt><trkpt lat="40.49966" lon="16.68667"><ele>47.0</ele><time>2026-04-12T13:08:07.438Z</time></trkpt><trkpt lat="40.49965" lon="16.6864483"><ele>47.0</ele><time>2026-04-12T13:08:08.439Z</time></trkpt><trkpt lat="40.4996367" lon="16.6862383"><ele>47.0</ele><time>2026-04-12T13:08:09.438Z</time></trkpt><trkpt lat="40.499625" lon="16.6860267"><ele>47.0</ele><time>2026-04-12T13:08:10.438Z</time></trkpt><trkpt lat="40.499615" lon="16.6858117"><ele>47.0</ele><time>2026-04-12T13:08:11.439Z</time></trkpt><trkpt lat="40.49961" lon="16.6855917"><ele>47.0</ele><time>2026-04-12T13:08:12.439Z</time></trkpt><trkpt lat="40.4996133" lon="16.6853667"><ele>46.666666666666664</ele><time>2026-04-12T13:08:13.439Z</time></trkpt><trkpt lat="40.49963" lon="16.6851367"><ele>46.333333333333336</ele><time>2026-04-12T13:08:14.439Z</time></trkpt><trkpt lat="40.4996583" lon="16.6849033"><ele>46.0</ele><time>2026-04-12T13:08:15.439Z</time></trkpt><trkpt lat="40.4996883" lon="16.6846667"><ele>46.0</ele><time>2026-04-12T13:08:16.439Z</time></trkpt><trkpt lat="40.499715" lon="16.68443"><ele>46.0</ele><time>2026-04-12T13:08:17.439Z</time></trkpt><trkpt lat="40.4997433" lon="16.6841917"><ele>46.0</ele><time>2026-04-12T13:08:18.439Z</time></trkpt><trkpt lat="40.4997683" lon="16.683955"><ele>45.66666666666667</ele><time>2026-04-12T13:08:19.439Z</time></trkpt><trkpt lat="40.4997933" lon="16.683715"><ele>45.333333333333336</ele><time>2026-04-12T13:08:20.439Z</time></trkpt><trkpt lat="40.499815" lon="16.6834733"><ele>45.0</ele><time>2026-04-12T13:08:21.438Z</time></trkpt><trkpt lat="40.499835" lon="16.6832317"><ele>44.333333333333336</ele><time>2026-04-12T13:08:22.439Z</time></trkpt><trkpt lat="40.4998483" lon="16.68299"><ele>43.66666666666667</ele><time>2026-04-12T13:08:23.444Z</time></trkpt><trkpt lat="40.49986" lon="16.6827517"><ele>43.0</ele><time>2026-04-12T13:08:24.44Z</time></trkpt><trkpt lat="40.4998717" lon="16.6825067"><ele>43.0</ele><time>2026-04-12T13:08:25.441Z</time></trkpt><trkpt lat="40.4998833" lon="16.682265"><ele>43.0</ele><time>2026-04-12T13:08:26.439Z</time></trkpt><trkpt lat="40.4998917" lon="16.6820267"><ele>43.0</ele><time>2026-04-12T13:08:27.438Z</time></trkpt><trkpt lat="40.4999017" lon="16.68179"><ele>42.66666666666667</ele><time>2026-04-12T13:08:28.438Z</time></trkpt><trkpt lat="40.4999117" lon="16.6815533"><ele>42.333333333333336</ele><time>2026-04-12T13:08:29.439Z</time></trkpt><trkpt lat="40.49992" lon="16.68132"><ele>42.0</ele><time>2026-04-12T13:08:30.439Z</time></trkpt><trkpt lat="40.4999267" lon="16.68109"><ele>42.0</ele><time>2026-04-12T13:08:31.438Z</time></trkpt><trkpt lat="40.4999367" lon="16.6808617"><ele>42.0</ele><time>2026-04-12T13:08:32.438Z</time></trkpt><trkpt lat="40.49995" lon="16.680645"><ele>42.0</ele><time>2026-04-12T13:08:33.438Z</time></trkpt><trkpt lat="40.4999602" lon="16.6804622"><ele>42.0</ele><time>2026-04-12T13:08:34.439Z</time></trkpt><trkpt lat="40.4999683" lon="16.6803175"><ele>42.0</ele><time>2026-04-12T13:08:35.439Z</time></trkpt><trkpt lat="40.4999658" lon="16.6802118"><ele>42.0</ele><time>2026-04-12T13:08:36.439Z</time></trkpt><trkpt lat="40.4999059" lon="16.6800787"><ele>42.0</ele><time>2026-04-12T13:08:38.439Z</time></trkpt><trkpt lat="40.4997743" lon="16.6800922"><ele>42.0</ele><time>2026-04-12T13:08:40.439Z</time></trkpt><trkpt lat="40.4997018" lon="16.6801148"><ele>41.75</ele><time>2026-04-12T13:08:41.438Z</time></trkpt><trkpt lat="40.4996235" lon="16.6801784"><ele>41.5</ele><time>2026-04-12T13:08:42.439Z</time></trkpt><trkpt lat="40.4995205" lon="16.6802705"><ele>41.25</ele><time>2026-04-12T13:08:43.439Z</time></trkpt><trkpt lat="40.4994116" lon="16.6803565"><ele>41.0</ele><time>2026-04-12T13:08:44.439Z</time></trkpt><trkpt lat="40.4993024" lon="16.6804329"><ele>41.0</ele><time>2026-04-12T13:08:45.439Z</time></trkpt><trkpt lat="40.4991961" lon="16.6805125"><ele>41.0</ele><time>2026-04-12T13:08:46.438Z</time></trkpt><trkpt lat="40.499095" lon="16.6805997"><ele>41.0</ele><time>2026-04-12T13:08:47.438Z</time></trkpt><trkpt lat="40.4989953" lon="16.6806849"><ele>41.0</ele><time>2026-04-12T13:08:48.438Z</time></trkpt><trkpt lat="40.4988965" lon="16.6807568"><ele>41.0</ele><time>2026-04-12T13:08:49.438Z</time></trkpt><trkpt lat="40.4987998" lon="16.6808243"><ele>41.0</ele><time>2026-04-12T13:08:50.439Z</time></trkpt><trkpt lat="40.4987081" lon="16.6808949"><ele>41.0</ele><time>2026-04-12T13:08:51.439Z</time></trkpt><trkpt lat="40.4986186" lon="16.6809678"><ele>41.0</ele><time>2026-04-12T13:08:52.438Z</time></trkpt><trkpt lat="40.4985249" lon="16.6810368"><ele>41.0</ele><time>2026-04-12T13:08:53.438Z</time></trkpt><trkpt lat="40.4984269" lon="16.6810993"><ele>41.25</ele><time>2026-04-12T13:08:54.438Z</time></trkpt><trkpt lat="40.4983277" lon="16.6811621"><ele>41.5</ele><time>2026-04-12T13:08:55.439Z</time></trkpt><trkpt lat="40.4982278" lon="16.6812289"><ele>41.75</ele><time>2026-04-12T13:08:56.44Z</time></trkpt><trkpt lat="40.4981291" lon="16.6812944"><ele>42.0</ele><time>2026-04-12T13:08:57.439Z</time></trkpt><trkpt lat="40.4972398" lon="16.6819236"><ele>42.0</ele><time>2026-04-12T13:09:06.439Z</time></trkpt><trkpt lat="40.4971483" lon="16.681985"><ele>42.0</ele><time>2026-04-12T13:09:07.438Z</time></trkpt><trkpt lat="40.49698" lon="16.6821"><ele>42.0</ele><time>2026-04-12T13:09:09.439Z</time></trkpt><trkpt lat="40.496895" lon="16.6821633"><ele>42.0</ele><time>2026-04-12T13:09:10.439Z</time></trkpt><trkpt lat="40.4968067" lon="16.682235"><ele>42.0</ele><time>2026-04-12T13:09:11.439Z</time></trkpt><trkpt lat="40.4967167" lon="16.68231"><ele>42.0</ele><time>2026-04-12T13:09:12.439Z</time></trkpt><trkpt lat="40.4966267" lon="16.6823917"><ele>42.0</ele><time>2026-04-12T13:09:13.439Z</time></trkpt><trkpt lat="40.4965417" lon="16.6824817"><ele>42.0</ele><time>2026-04-12T13:09:14.439Z</time></trkpt><trkpt lat="40.4964567" lon="16.68258"><ele>42.0</ele><time>2026-04-12T13:09:15.439Z</time></trkpt><trkpt lat="40.4963733" lon="16.68268"><ele>41.0</ele><time>2026-04-12T13:09:16.439Z</time></trkpt><trkpt lat="40.4962883" lon="16.68278"><ele>40.0</ele><time>2026-04-12T13:09:17.439Z</time></trkpt><trkpt lat="40.4961983" lon="16.6828717"><ele>39.0</ele><time>2026-04-12T13:09:18.439Z</time></trkpt><trkpt lat="40.496105" lon="16.68296"><ele>38.0</ele><time>2026-04-12T13:09:19.439Z</time></trkpt><trkpt lat="40.4960083" lon="16.683045"><ele>36.25</ele><time>2026-04-12T13:09:20.439Z</time></trkpt><trkpt lat="40.49591" lon="16.6831333"><ele>34.5</ele><time>2026-04-12T13:09:21.439Z</time></trkpt><trkpt lat="40.495815" lon="16.683225"><ele>32.75</ele><time>2026-04-12T13:09:22.439Z</time></trkpt><trkpt lat="40.4957183" lon="16.683315"><ele>31.0</ele><time>2026-04-12T13:09:23.438Z</time></trkpt><trkpt lat="40.4956183" lon="16.6834083"><ele>31.0</ele><time>2026-04-12T13:09:24.438Z</time></trkpt><trkpt lat="40.4955167" lon="16.6835017"><ele>31.0</ele><time>2026-04-12T13:09:25.439Z</time></trkpt><trkpt lat="40.49542" lon="16.6835983"><ele>31.0</ele><time>2026-04-12T13:09:26.44Z</time></trkpt><trkpt lat="40.49532" lon="16.6836967"><ele>31.0</ele><time>2026-04-12T13:09:27.438Z</time></trkpt><trkpt lat="40.4952183" lon="16.6837983"><ele>33.0</ele><time>2026-04-12T13:09:28.439Z</time></trkpt><trkpt lat="40.4951133" lon="16.68389"><ele>35.0</ele><time>2026-04-12T13:09:29.442Z</time></trkpt><trkpt lat="40.4949983" lon="16.68396"><ele>37.0</ele><time>2026-04-12T13:09:30.439Z</time></trkpt><trkpt lat="40.4948783" lon="16.6840233"><ele>39.0</ele><time>2026-04-12T13:09:31.439Z</time></trkpt><trkpt lat="40.494765" lon="16.684095"><ele>39.0</ele><time>2026-04-12T13:09:32.439Z</time></trkpt><trkpt lat="40.4946583" lon="16.684175"><ele>39.0</ele><time>2026-04-12T13:09:33.439Z</time></trkpt><trkpt lat="40.4945533" lon="16.6842633"><ele>39.0</ele><time>2026-04-12T13:09:34.44Z</time></trkpt><trkpt lat="40.4944517" lon="16.6843617"><ele>39.0</ele><time>2026-04-12T13:09:35.444Z</time></trkpt><trkpt lat="40.4943483" lon="16.68447"><ele>39.25</ele><time>2026-04-12T13:09:36.439Z</time></trkpt><trkpt lat="40.494245" lon="16.6845783"><ele>39.5</ele><time>2026-04-12T13:09:37.439Z</time></trkpt><trkpt lat="40.4941383" lon="16.6846883"><ele>39.75</ele><time>2026-04-12T13:09:38.44Z</time></trkpt><trkpt lat="40.49403" lon="16.684795"><ele>40.0</ele><time>2026-04-12T13:09:39.438Z</time></trkpt><trkpt lat="40.49392" lon="16.6849017"><ele>40.0</ele><time>2026-04-12T13:09:40.439Z</time></trkpt><trkpt lat="40.49381" lon="16.6850067"><ele>40.0</ele><time>2026-04-12T13:09:41.439Z</time></trkpt><trkpt lat="40.4936967" lon="16.68511"><ele>40.0</ele><time>2026-04-12T13:09:42.439Z</time></trkpt><trkpt lat="40.49358" lon="16.6852117"><ele>40.0</ele><time>2026-04-12T13:09:43.439Z</time></trkpt><trkpt lat="40.4934667" lon="16.6853167"><ele>39.75</ele><time>2026-04-12T13:09:44.44Z</time></trkpt><trkpt lat="40.493355" lon="16.6854283"><ele>39.5</ele><time>2026-04-12T13:09:45.438Z</time></trkpt><trkpt lat="40.4932433" lon="16.6855383"><ele>39.25</ele><time>2026-04-12T13:09:46.439Z</time></trkpt><trkpt lat="40.49313" lon="16.6856483"><ele>39.0</ele><time>2026-04-12T13:09:47.438Z</time></trkpt><trkpt lat="40.4930167" lon="16.685755"><ele>39.0</ele><time>2026-04-12T13:09:48.438Z</time></trkpt><trkpt lat="40.4929067" lon="16.685855"><ele>39.0</ele><time>2026-04-12T13:09:49.439Z</time></trkpt><trkpt lat="40.49279" lon="16.6859583"><ele>39.0</ele><time>2026-04-12T13:09:50.441Z</time></trkpt><trkpt lat="40.4926767" lon="16.6860683"><ele>39.0</ele><time>2026-04-12T13:09:51.439Z</time></trkpt><trkpt lat="40.49257" lon="16.6861867"><ele>39.0</ele><time>2026-04-12T13:09:52.441Z</time></trkpt><trkpt lat="40.4924617" lon="16.6863"><ele>39.0</ele><time>2026-04-12T13:09:53.44Z</time></trkpt><trkpt lat="40.49235" lon="16.6864067"><ele>39.0</ele><time>2026-04-12T13:09:54.439Z</time></trkpt><trkpt lat="40.492235" lon="16.6865133"><ele>39.0</ele><time>2026-04-12T13:09:55.439Z</time></trkpt><trkpt lat="40.4921217" lon="16.6866167"><ele>38.75</ele><time>2026-04-12T13:09:56.439Z</time></trkpt><trkpt lat="40.4920133" lon="16.6867167"><ele>38.5</ele><time>2026-04-12T13:09:57.439Z</time></trkpt><trkpt lat="40.4919067" lon="16.6868167"><ele>38.25</ele><time>2026-04-12T13:09:58.439Z</time></trkpt><trkpt lat="40.4917983" lon="16.68692"><ele>38.0</ele><time>2026-04-12T13:09:59.438Z</time></trkpt><trkpt lat="40.4916933" lon="16.6870167"><ele>38.0</ele><time>2026-04-12T13:10:00.439Z</time></trkpt><trkpt lat="40.4915883" lon="16.687115"><ele>38.0</ele><time>2026-04-12T13:10:01.439Z</time></trkpt><trkpt lat="40.4914833" lon="16.6872133"><ele>38.0</ele><time>2026-04-12T13:10:02.439Z</time></trkpt><trkpt lat="40.4913783" lon="16.6873117"><ele>38.0</ele><time>2026-04-12T13:10:03.439Z</time></trkpt><trkpt lat="40.4912733" lon="16.6874133"><ele>38.0</ele><time>2026-04-12T13:10:04.439Z</time></trkpt><trkpt lat="40.491165" lon="16.6875183"><ele>38.0</ele><time>2026-04-12T13:10:05.439Z</time></trkpt><trkpt lat="40.4910583" lon="16.687625"><ele>38.0</ele><time>2026-04-12T13:10:06.44Z</time></trkpt><trkpt lat="40.490955" lon="16.68773"><ele>38.0</ele><time>2026-04-12T13:10:07.439Z</time></trkpt><trkpt lat="40.49085" lon="16.68783"><ele>38.0</ele><time>2026-04-12T13:10:08.439Z</time></trkpt><trkpt lat="40.4907483" lon="16.6879283"><ele>38.0</ele><time>2026-04-12T13:10:09.439Z</time></trkpt><trkpt lat="40.4906467" lon="16.6880183"><ele>38.0</ele><time>2026-04-12T13:10:10.439Z</time></trkpt><trkpt lat="40.49055" lon="16.68811"><ele>38.0</ele><time>2026-04-12T13:10:11.439Z</time></trkpt><trkpt lat="40.490455" lon="16.6882033"><ele>38.166666666666664</ele><time>2026-04-12T13:10:12.442Z</time></trkpt><trkpt lat="40.4903617" lon="16.68829"><ele>38.33333333333333</ele><time>2026-04-12T13:10:13.439Z</time></trkpt><trkpt lat="40.4902783" lon="16.68837"><ele>38.5</ele><time>2026-04-12T13:10:14.439Z</time></trkpt><trkpt lat="40.4902083" lon="16.6884433"><ele>38.666666666666664</ele><time>2026-04-12T13:10:15.439Z</time></trkpt><trkpt lat="40.4901517" lon="16.688505"><ele>38.833333333333336</ele><time>2026-04-12T13:10:16.439Z</time></trkpt><trkpt lat="40.4900983" lon="16.68855"><ele>39.0</ele><time>2026-04-12T13:10:17.439Z</time></trkpt><trkpt lat="40.4900317" lon="16.68853"><ele>39.0</ele><time>2026-04-12T13:10:19.439Z</time></trkpt><trkpt lat="40.490035" lon="16.6884083"><ele>39.0</ele><time>2026-04-12T13:10:21.439Z</time></trkpt><trkpt lat="40.4900617" lon="16.68824"><ele>39.0</ele><time>2026-04-12T13:10:23.439Z</time></trkpt><trkpt lat="40.490075" lon="16.6881067"><ele>39.0</ele><time>2026-04-12T13:10:24.439Z</time></trkpt><trkpt lat="40.4900917" lon="16.6879717"><ele>39.0</ele><time>2026-04-12T13:10:25.441Z</time></trkpt><trkpt lat="40.4901117" lon="16.6878383"><ele>39.0</ele><time>2026-04-12T13:10:26.439Z</time></trkpt><trkpt lat="40.4901317" lon="16.6877033"><ele>39.0</ele><time>2026-04-12T13:10:27.439Z</time></trkpt><trkpt lat="40.4901467" lon="16.6875717"><ele>39.0</ele><time>2026-04-12T13:10:28.44Z</time></trkpt><trkpt lat="40.490155" lon="16.6874367"><ele>39.0</ele><time>2026-04-12T13:10:29.441Z</time></trkpt><trkpt lat="40.4901667" lon="16.6873017"><ele>39.0</ele><time>2026-04-12T13:10:30.442Z</time></trkpt><trkpt lat="40.49018" lon="16.6871683"><ele>39.0</ele><time>2026-04-12T13:10:31.439Z</time></trkpt><trkpt lat="40.490195" lon="16.6870367"><ele>39.0</ele><time>2026-04-12T13:10:32.44Z</time></trkpt><trkpt lat="40.49021" lon="16.6869033"><ele>39.0</ele><time>2026-04-12T13:10:33.439Z</time></trkpt><trkpt lat="40.4902267" lon="16.6867717"><ele>39.0</ele><time>2026-04-12T13:10:34.439Z</time></trkpt><trkpt lat="40.49024" lon="16.68664"><ele>39.0</ele><time>2026-04-12T13:10:35.439Z</time></trkpt><trkpt lat="40.4902483" lon="16.6865117"><ele>39.0</ele><time>2026-04-12T13:10:36.439Z</time></trkpt><trkpt lat="40.490255" lon="16.6863883"><ele>39.0</ele><time>2026-04-12T13:10:37.44Z</time></trkpt><trkpt lat="40.4902617" lon="16.6862617"><ele>39.0</ele><time>2026-04-12T13:10:38.44Z</time></trkpt><trkpt lat="40.4902717" lon="16.6861317"><ele>39.0</ele><time>2026-04-12T13:10:39.44Z</time></trkpt><trkpt lat="40.4902867" lon="16.6859983"><ele>39.0</ele><time>2026-04-12T13:10:40.439Z</time></trkpt><trkpt lat="40.490305" lon="16.6858617"><ele>39.0</ele><time>2026-04-12T13:10:41.439Z</time></trkpt><trkpt lat="40.4903217" lon="16.685725"><ele>39.0</ele><time>2026-04-12T13:10:42.44Z</time></trkpt><trkpt lat="40.49034" lon="16.6855883"><ele>39.0</ele><time>2026-04-12T13:10:43.439Z</time></trkpt><trkpt lat="40.4903567" lon="16.6854517"><ele>39.0</ele><time>2026-04-12T13:10:44.44Z</time></trkpt><trkpt lat="40.4903717" lon="16.685315"><ele>39.0</ele><time>2026-04-12T13:10:45.439Z</time></trkpt><trkpt lat="40.4903867" lon="16.6851867"><ele>39.0</ele><time>2026-04-12T13:10:46.439Z</time></trkpt><trkpt lat="40.4904033" lon="16.6850617"><ele>39.0</ele><time>2026-04-12T13:10:47.438Z</time></trkpt><trkpt lat="40.490415" lon="16.6849317"><ele>39.0</ele><time>2026-04-12T13:10:48.44Z</time></trkpt><trkpt lat="40.4904233" lon="16.6848033"><ele>39.0</ele><time>2026-04-12T13:10:49.439Z</time></trkpt><trkpt lat="40.4904367" lon="16.6846683"><ele>39.0</ele><time>2026-04-12T13:10:50.44Z</time></trkpt><trkpt lat="40.4904567" lon="16.684535"><ele>39.0</ele><time>2026-04-12T13:10:51.439Z</time></trkpt><trkpt lat="40.490475" lon="16.6844"><ele>39.0</ele><time>2026-04-12T13:10:52.439Z</time></trkpt><trkpt lat="40.490495" lon="16.6842667"><ele>39.0</ele><time>2026-04-12T13:10:53.439Z</time></trkpt><trkpt lat="40.49051" lon="16.68413"><ele>39.0</ele><time>2026-04-12T13:10:54.439Z</time></trkpt><trkpt lat="40.4905233" lon="16.6839917"><ele>39.0</ele><time>2026-04-12T13:10:55.439Z</time></trkpt><trkpt lat="40.4905333" lon="16.6838483"><ele>39.0</ele><time>2026-04-12T13:10:56.439Z</time></trkpt><trkpt lat="40.4905483" lon="16.68371"><ele>39.0</ele><time>2026-04-12T13:10:57.444Z</time></trkpt><trkpt lat="40.490565" lon="16.6835667"><ele>39.0</ele><time>2026-04-12T13:10:58.439Z</time></trkpt><trkpt lat="40.4905817" lon="16.683425"><ele>39.0</ele><time>2026-04-12T13:10:59.439Z</time></trkpt><trkpt lat="40.4905983" lon="16.6832833"><ele>39.0</ele><time>2026-04-12T13:11:00.439Z</time></trkpt><trkpt lat="40.4906117" lon="16.6831433"><ele>39.0</ele><time>2026-04-12T13:11:01.439Z</time></trkpt><trkpt lat="40.490625" lon="16.6830067"><ele>39.0</ele><time>2026-04-12T13:11:02.44Z</time></trkpt><trkpt lat="40.4906383" lon="16.6828717"><ele>39.0</ele><time>2026-04-12T13:11:03.44Z</time></trkpt><trkpt lat="40.4906533" lon="16.6827383"><ele>39.0</ele><time>2026-04-12T13:11:04.439Z</time></trkpt><trkpt lat="40.4906683" lon="16.6826033"><ele>39.0</ele><time>2026-04-12T13:11:05.44Z</time></trkpt><trkpt lat="40.490685" lon="16.68247"><ele>39.0</ele><time>2026-04-12T13:11:06.439Z</time></trkpt><trkpt lat="40.4906983" lon="16.6823367"><ele>39.0</ele><time>2026-04-12T13:11:07.44Z</time></trkpt><trkpt lat="40.4907133" lon="16.6822017"><ele>39.0</ele><time>2026-04-12T13:11:08.444Z</time></trkpt><trkpt lat="40.4907217" lon="16.6820667"><ele>39.0</ele><time>2026-04-12T13:11:09.44Z</time></trkpt><trkpt lat="40.4907317" lon="16.6819367"><ele>39.0</ele><time>2026-04-12T13:11:10.44Z</time></trkpt><trkpt lat="40.4907417" lon="16.6818083"><ele>39.6</ele><time>2026-04-12T13:11:11.439Z</time></trkpt><trkpt lat="40.4907567" lon="16.6816817"><ele>40.2</ele><time>2026-04-12T13:11:12.44Z</time></trkpt><trkpt lat="40.490775" lon="16.6815533"><ele>40.800000000000004</ele><time>2026-04-12T13:11:13.439Z</time></trkpt><trkpt lat="40.49079" lon="16.6814267"><ele>41.4</ele><time>2026-04-12T13:11:14.44Z</time></trkpt><trkpt lat="40.490805" lon="16.681295"><ele>42.0</ele><time>2026-04-12T13:11:15.44Z</time></trkpt><trkpt lat="40.49082" lon="16.6811583"><ele>42.0</ele><time>2026-04-12T13:11:16.439Z</time></trkpt><trkpt lat="40.4908317" lon="16.6810233"><ele>42.0</ele><time>2026-04-12T13:11:17.439Z</time></trkpt><trkpt lat="40.49084" lon="16.6808917"><ele>42.0</ele><time>2026-04-12T13:11:18.439Z</time></trkpt><trkpt lat="40.4908533" lon="16.6807667"><ele>42.0</ele><time>2026-04-12T13:11:19.439Z</time></trkpt><trkpt lat="40.4908717" lon="16.680655"><ele>42.0</ele><time>2026-04-12T13:11:20.439Z</time></trkpt><trkpt lat="40.4908983" lon="16.6805533"><ele>42.0</ele><time>2026-04-12T13:11:21.438Z</time></trkpt><trkpt lat="40.4909367" lon="16.68046"><ele>42.0</ele><time>2026-04-12T13:11:22.44Z</time></trkpt><trkpt lat="40.4909867" lon="16.680375"><ele>42.0</ele><time>2026-04-12T13:11:23.439Z</time></trkpt><trkpt lat="40.49105" lon="16.6803117"><ele>42.0</ele><time>2026-04-12T13:11:24.439Z</time></trkpt><trkpt lat="40.491115" lon="16.6802683"><ele>42.0</ele><time>2026-04-12T13:11:25.439Z</time></trkpt><trkpt lat="40.491185" lon="16.680245"><ele>42.0</ele><time>2026-04-12T13:11:26.44Z</time></trkpt><trkpt lat="40.4912583" lon="16.6802467"><ele>41.833333333333336</ele><time>2026-04-12T13:11:27.438Z</time></trkpt><trkpt lat="40.491335" lon="16.680265"><ele>41.666666666666664</ele><time>2026-04-12T13:11:28.438Z</time></trkpt><trkpt lat="40.4914167" lon="16.6802883"><ele>41.5</ele><time>2026-04-12T13:11:29.439Z</time></trkpt><trkpt lat="40.4915017" lon="16.68031"><ele>41.33333333333333</ele><time>2026-04-12T13:11:30.442Z</time></trkpt><trkpt lat="40.491585" lon="16.6803267"><ele>41.166666666666664</ele><time>2026-04-12T13:11:31.44Z</time></trkpt><trkpt lat="40.4916683" lon="16.68034"><ele>41.0</ele><time>2026-04-12T13:11:32.442Z</time></trkpt><trkpt lat="40.4917567" lon="16.6803567"><ele>41.0</ele><time>2026-04-12T13:11:33.439Z</time></trkpt><trkpt lat="40.491845" lon="16.680375"><ele>41.0</ele><time>2026-04-12T13:11:34.439Z</time></trkpt><trkpt lat="40.491935" lon="16.68039"><ele>41.0</ele><time>2026-04-12T13:11:35.439Z</time></trkpt><trkpt lat="40.4920267" lon="16.6804083"><ele>41.0</ele><time>2026-04-12T13:11:36.443Z</time></trkpt><trkpt lat="40.4921133" lon="16.6804267"><ele>41.0</ele><time>2026-04-12T13:11:37.443Z</time></trkpt><trkpt lat="40.4921983" lon="16.6804467"><ele>41.0</ele><time>2026-04-12T13:11:38.44Z</time></trkpt><trkpt lat="40.4922833" lon="16.680465"><ele>41.166666666666664</ele><time>2026-04-12T13:11:39.44Z</time></trkpt><trkpt lat="40.4923667" lon="16.6804833"><ele>41.33333333333333</ele><time>2026-04-12T13:11:40.44Z</time></trkpt><trkpt lat="40.4924417" lon="16.6805"><ele>41.5</ele><time>2026-04-12T13:11:41.439Z</time></trkpt><trkpt lat="40.4925067" lon="16.6805167"><ele>41.666666666666664</ele><time>2026-04-12T13:11:42.439Z</time></trkpt><trkpt lat="40.4925933" lon="16.680505"><ele>41.833333333333336</ele><time>2026-04-12T13:11:44.442Z</time></trkpt><trkpt lat="40.49263" lon="16.68042"><ele>42.0</ele><time>2026-04-12T13:11:46.442Z</time></trkpt><trkpt lat="40.4926467" lon="16.6802783"><ele>41.833333333333336</ele><time>2026-04-12T13:11:48.438Z</time></trkpt><trkpt lat="40.49266" lon="16.6801883"><ele>41.666666666666664</ele><time>2026-04-12T13:11:49.439Z</time></trkpt><trkpt lat="40.49267" lon="16.68008"><ele>41.5</ele><time>2026-04-12T13:11:50.44Z</time></trkpt><trkpt lat="40.49268" lon="16.6799667"><ele>41.33333333333333</ele><time>2026-04-12T13:11:51.439Z</time></trkpt><trkpt lat="40.492695" lon="16.6798467"><ele>41.166666666666664</ele><time>2026-04-12T13:11:52.44Z</time></trkpt><trkpt lat="40.4927067" lon="16.6797217"><ele>41.0</ele><time>2026-04-12T13:11:53.439Z</time></trkpt><trkpt lat="40.4927167" lon="16.6796017"><ele>41.0</ele><time>2026-04-12T13:11:54.439Z</time></trkpt><trkpt lat="40.492725" lon="16.6794867"><ele>41.0</ele><time>2026-04-12T13:11:55.439Z</time></trkpt><trkpt lat="40.4927367" lon="16.6793717"><ele>41.0</ele><time>2026-04-12T13:11:56.439Z</time></trkpt><trkpt lat="40.4927517" lon="16.679255"><ele>41.0</ele><time>2026-04-12T13:11:57.439Z</time></trkpt><trkpt lat="40.4927667" lon="16.6791383"><ele>41.0</ele><time>2026-04-12T13:11:58.439Z</time></trkpt><trkpt lat="40.4927783" lon="16.67902"><ele>41.0</ele><time>2026-04-12T13:11:59.441Z</time></trkpt><trkpt lat="40.49279" lon="16.6789017"><ele>41.0</ele><time>2026-04-12T13:12:00.444Z</time></trkpt><trkpt lat="40.4928" lon="16.6787867"><ele>41.0</ele><time>2026-04-12T13:12:01.439Z</time></trkpt><trkpt lat="40.49281" lon="16.6786717"><ele>41.0</ele><time>2026-04-12T13:12:02.439Z</time></trkpt><trkpt lat="40.4928217" lon="16.6785567"><ele>41.0</ele><time>2026-04-12T13:12:03.439Z</time></trkpt><trkpt lat="40.49283" lon="16.67844"><ele>41.0</ele><time>2026-04-12T13:12:04.439Z</time></trkpt><trkpt lat="40.4928433" lon="16.6783233"><ele>41.0</ele><time>2026-04-12T13:12:05.441Z</time></trkpt><trkpt lat="40.492855" lon="16.6782083"><ele>41.0</ele><time>2026-04-12T13:12:06.439Z</time></trkpt><trkpt lat="40.492865" lon="16.6780967"><ele>41.0</ele><time>2026-04-12T13:12:07.438Z</time></trkpt><trkpt lat="40.4928717" lon="16.6779967"><ele>41.0</ele><time>2026-04-12T13:12:08.441Z</time></trkpt><trkpt lat="40.4928867" lon="16.677895"><ele>41.0</ele><time>2026-04-12T13:12:09.44Z</time></trkpt><trkpt lat="40.4929083" lon="16.677795"><ele>41.0</ele><time>2026-04-12T13:12:10.442Z</time></trkpt><trkpt lat="40.49294" lon="16.6777067"><ele>41.0</ele><time>2026-04-12T13:12:11.439Z</time></trkpt><trkpt lat="40.49303" lon="16.67761"><ele>41.0</ele><time>2026-04-12T13:12:13.439Z</time></trkpt><trkpt lat="40.4931" lon="16.6776"><ele>41.0</ele><time>2026-04-12T13:12:14.442Z</time></trkpt><trkpt lat="40.4931767" lon="16.6775867"><ele>41.0</ele><time>2026-04-12T13:12:15.439Z</time></trkpt><trkpt lat="40.49325" lon="16.6775383"><ele>41.0</ele><time>2026-04-12T13:12:16.44Z</time></trkpt><trkpt lat="40.4933233" lon="16.6774733"><ele>41.0</ele><time>2026-04-12T13:12:17.439Z</time></trkpt><trkpt lat="40.4933883" lon="16.6773767"><ele>41.0</ele><time>2026-04-12T13:12:18.439Z</time></trkpt><trkpt lat="40.4934467" lon="16.677275"><ele>41.0</ele><time>2026-04-12T13:12:19.439Z</time></trkpt><trkpt lat="40.49351" lon="16.677175"><ele>41.0</ele><time>2026-04-12T13:12:20.441Z</time></trkpt><trkpt lat="40.4935733" lon="16.6770833"><ele>41.0</ele><time>2026-04-12T13:12:21.439Z</time></trkpt><trkpt lat="40.493635" lon="16.67699"><ele>41.0</ele><time>2026-04-12T13:12:22.439Z</time></trkpt><trkpt lat="40.4936933" lon="16.6768867"><ele>41.0</ele><time>2026-04-12T13:12:23.44Z</time></trkpt><trkpt lat="40.4937533" lon="16.676785"><ele>41.166666666666664</ele><time>2026-04-12T13:12:24.438Z</time></trkpt><trkpt lat="40.49381" lon="16.6766917"><ele>41.33333333333333</ele><time>2026-04-12T13:12:25.439Z</time></trkpt><trkpt lat="40.493865" lon="16.6766017"><ele>41.5</ele><time>2026-04-12T13:12:26.44Z</time></trkpt><trkpt lat="40.4939183" lon="16.6765133"><ele>41.666666666666664</ele><time>2026-04-12T13:12:27.438Z</time></trkpt><trkpt lat="40.4939733" lon="16.6764267"><ele>41.833333333333336</ele><time>2026-04-12T13:12:28.438Z</time></trkpt><trkpt lat="40.4940333" lon="16.6763417"><ele>42.0</ele><time>2026-04-12T13:12:29.44Z</time></trkpt><trkpt lat="40.4940933" lon="16.6762583"><ele>42.0</ele><time>2026-04-12T13:12:30.442Z</time></trkpt><trkpt lat="40.4941467" lon="16.676175"><ele>42.0</ele><time>2026-04-12T13:12:31.44Z</time></trkpt><trkpt lat="40.4941983" lon="16.6760817"><ele>42.0</ele><time>2026-04-12T13:12:32.44Z</time></trkpt><trkpt lat="40.4942533" lon="16.6759917"><ele>42.0</ele><time>2026-04-12T13:12:33.439Z</time></trkpt><trkpt lat="40.4943117" lon="16.675905"><ele>42.0</ele><time>2026-04-12T13:12:34.44Z</time></trkpt><trkpt lat="40.4943683" lon="16.675815"><ele>42.0</ele><time>2026-04-12T13:12:35.441Z</time></trkpt><trkpt lat="40.4944233" lon="16.6757233"><ele>42.0</ele><time>2026-04-12T13:12:36.44Z</time></trkpt><trkpt lat="40.4944767" lon="16.6756333"><ele>42.0</ele><time>2026-04-12T13:12:37.44Z</time></trkpt><trkpt lat="40.4945317" lon="16.6755417"><ele>42.0</ele><time>2026-04-12T13:12:38.44Z</time></trkpt><trkpt lat="40.494585" lon="16.6754533"><ele>42.0</ele><time>2026-04-12T13:12:39.439Z</time></trkpt><trkpt lat="40.4946333" lon="16.675375"><ele>42.0</ele><time>2026-04-12T13:12:40.439Z</time></trkpt><trkpt lat="40.4946833" lon="16.67529"><ele>42.0</ele><time>2026-04-12T13:12:41.441Z</time></trkpt><trkpt lat="40.4947317" lon="16.6752067"><ele>42.400000000000006</ele><time>2026-04-12T13:12:42.441Z</time></trkpt><trkpt lat="40.4947817" lon="16.6751133"><ele>42.800000000000004</ele><time>2026-04-12T13:12:43.439Z</time></trkpt><trkpt lat="40.49484" lon="16.67502"><ele>43.2</ele><time>2026-04-12T13:12:44.44Z</time></trkpt><trkpt lat="40.4949017" lon="16.6749333"><ele>43.6</ele><time>2026-04-12T13:12:45.44Z</time></trkpt><trkpt lat="40.49496" lon="16.6748433"><ele>44.0</ele><time>2026-04-12T13:12:46.439Z</time></trkpt><trkpt lat="40.4950183" lon="16.67475"><ele>44.0</ele><time>2026-04-12T13:12:47.442Z</time></trkpt><trkpt lat="40.49508" lon="16.6746583"><ele>44.0</ele><time>2026-04-12T13:12:48.438Z</time></trkpt><trkpt lat="40.495145" lon="16.6745633"><ele>44.0</ele><time>2026-04-12T13:12:49.439Z</time></trkpt><trkpt lat="40.4952083" lon="16.6744683"><ele>44.0</ele><time>2026-04-12T13:12:50.44Z</time></trkpt><trkpt lat="40.4952733" lon="16.6743717"><ele>44.0</ele><time>2026-04-12T13:12:51.44Z</time></trkpt><trkpt lat="40.4953317" lon="16.6742783"><ele>43.83333333333333</ele><time>2026-04-12T13:12:52.44Z</time></trkpt><trkpt lat="40.4953883" lon="16.6741833"><ele>43.666666666666664</ele><time>2026-04-12T13:12:53.44Z</time></trkpt><trkpt lat="40.4954467" lon="16.6740917"><ele>43.5</ele><time>2026-04-12T13:12:54.439Z</time></trkpt><trkpt lat="40.495505" lon="16.674005"><ele>43.333333333333336</ele><time>2026-04-12T13:12:55.439Z</time></trkpt><trkpt lat="40.49556" lon="16.6739233"><ele>43.16666666666667</ele><time>2026-04-12T13:12:56.443Z</time></trkpt><trkpt lat="40.49561" lon="16.6738433"><ele>43.0</ele><time>2026-04-12T13:12:57.44Z</time></trkpt><trkpt lat="40.49566" lon="16.6737583"><ele>43.0</ele><time>2026-04-12T13:12:58.441Z</time></trkpt><trkpt lat="40.4957133" lon="16.6736767"><ele>43.0</ele><time>2026-04-12T13:12:59.439Z</time></trkpt><trkpt lat="40.4957683" lon="16.67359"><ele>43.0</ele><time>2026-04-12T13:13:00.439Z</time></trkpt><trkpt lat="40.4958217" lon="16.6735033"><ele>43.0</ele><time>2026-04-12T13:13:01.44Z</time></trkpt><trkpt lat="40.4958783" lon="16.6734167"><ele>43.0</ele><time>2026-04-12T13:13:02.44Z</time></trkpt><trkpt lat="40.4959333" lon="16.6733333"><ele>43.0</ele><time>2026-04-12T13:13:03.439Z</time></trkpt><trkpt lat="40.4959867" lon="16.6732517"><ele>43.0</ele><time>2026-04-12T13:13:04.44Z</time></trkpt><trkpt lat="40.4960367" lon="16.6731783"><ele>43.0</ele><time>2026-04-12T13:13:05.44Z</time></trkpt><trkpt lat="40.4960817" lon="16.6731017"><ele>43.0</ele><time>2026-04-12T13:13:06.439Z</time></trkpt><trkpt lat="40.4961283" lon="16.673025"><ele>43.0</ele><time>2026-04-12T13:13:07.439Z</time></trkpt><trkpt lat="40.4961733" lon="16.672945"><ele>43.0</ele><time>2026-04-12T13:13:08.439Z</time></trkpt><trkpt lat="40.49622" lon="16.6728717"><ele>43.0</ele><time>2026-04-12T13:13:09.439Z</time></trkpt><trkpt lat="40.4963033" lon="16.6728067"><ele>43.2</ele><time>2026-04-12T13:13:11.439Z</time></trkpt><trkpt lat="40.4964017" lon="16.6728483"><ele>43.4</ele><time>2026-04-12T13:13:13.44Z</time></trkpt><trkpt lat="40.4964583" lon="16.6729117"><ele>43.6</ele><time>2026-04-12T13:13:14.44Z</time></trkpt><trkpt lat="40.4965183" lon="16.672965"><ele>43.800000000000004</ele><time>2026-04-12T13:13:15.44Z</time></trkpt><trkpt lat="40.4966317" lon="16.6729783"><ele>44.0</ele><time>2026-04-12T13:13:17.439Z</time></trkpt><trkpt lat="40.4967417" lon="16.6728633"><ele>44.2</ele><time>2026-04-12T13:13:19.44Z</time></trkpt><trkpt lat="40.496795" lon="16.6727683"><ele>44.400000000000006</ele><time>2026-04-12T13:13:20.44Z</time></trkpt><trkpt lat="40.49685" lon="16.6726667"><ele>44.6</ele><time>2026-04-12T13:13:21.441Z</time></trkpt><trkpt lat="40.4969083" lon="16.6725667"><ele>44.8</ele><time>2026-04-12T13:13:22.439Z</time></trkpt><trkpt lat="40.49697" lon="16.67247"><ele>45.0</ele><time>2026-04-12T13:13:23.439Z</time></trkpt><trkpt lat="40.4970317" lon="16.6723733"><ele>44.833333333333336</ele><time>2026-04-12T13:13:24.439Z</time></trkpt><trkpt lat="40.4970883" lon="16.6722733"><ele>44.666666666666664</ele><time>2026-04-12T13:13:25.44Z</time></trkpt><trkpt lat="40.4971433" lon="16.672175"><ele>44.5</ele><time>2026-04-12T13:13:26.44Z</time></trkpt><trkpt lat="40.4972033" lon="16.67208"><ele>44.33333333333333</ele><time>2026-04-12T13:13:27.439Z</time></trkpt><trkpt lat="40.4972533" lon="16.671995"><ele>44.166666666666664</ele><time>2026-04-12T13:13:28.439Z</time></trkpt><trkpt lat="40.4973033" lon="16.6719117"><ele>44.0</ele><time>2026-04-12T13:13:29.44Z</time></trkpt><trkpt lat="40.4973467" lon="16.671825"><ele>43.42857142857143</ele><time>2026-04-12T13:13:30.439Z</time></trkpt><trkpt lat="40.497385" lon="16.6717367"><ele>42.857142857142854</ele><time>2026-04-12T13:13:31.44Z</time></trkpt><trkpt lat="40.49742" lon="16.6716433"><ele>42.285714285714285</ele><time>2026-04-12T13:13:32.439Z</time></trkpt><trkpt lat="40.4974533" lon="16.6715533"><ele>41.714285714285715</ele><time>2026-04-12T13:13:33.439Z</time></trkpt><trkpt lat="40.4974833" lon="16.67147"><ele>41.142857142857146</ele><time>2026-04-12T13:13:34.44Z</time></trkpt><trkpt lat="40.4975233" lon="16.67139"><ele>40.57142857142857</ele><time>2026-04-12T13:13:35.44Z</time></trkpt><trkpt lat="40.497565" lon="16.671315"><ele>40.0</ele><time>2026-04-12T13:13:36.439Z</time></trkpt><trkpt lat="40.4975967" lon="16.67124"><ele>40.0</ele><time>2026-04-12T13:13:37.439Z</time></trkpt><trkpt lat="40.4976217" lon="16.6711567"><ele>40.0</ele><time>2026-04-12T13:13:38.44Z</time></trkpt><trkpt lat="40.497645" lon="16.671065"><ele>40.0</ele><time>2026-04-12T13:13:39.441Z</time></trkpt><trkpt lat="40.4976667" lon="16.6709817"><ele>40.0</ele><time>2026-04-12T13:13:40.439Z</time></trkpt><trkpt lat="40.497685" lon="16.6708983"><ele>40.0</ele><time>2026-04-12T13:13:41.44Z</time></trkpt><trkpt lat="40.4977133" lon="16.6707433"><ele>40.0</ele><time>2026-04-12T13:13:43.44Z</time></trkpt><trkpt lat="40.4977383" lon="16.6706617"><ele>40.42857142857143</ele><time>2026-04-12T13:13:44.44Z</time></trkpt><trkpt lat="40.49777" lon="16.670585"><ele>40.85714285714286</ele><time>2026-04-12T13:13:45.441Z</time></trkpt><trkpt lat="40.4978067" lon="16.670515"><ele>41.28571428571429</ele><time>2026-04-12T13:13:46.439Z</time></trkpt><trkpt lat="40.497845" lon="16.6704467"><ele>41.714285714285715</ele><time>2026-04-12T13:13:47.439Z</time></trkpt><trkpt lat="40.497885" lon="16.670375"><ele>42.142857142857146</ele><time>2026-04-12T13:13:48.439Z</time></trkpt><trkpt lat="40.4979183" lon="16.6703017"><ele>42.57142857142858</ele><time>2026-04-12T13:13:49.44Z</time></trkpt><trkpt lat="40.4979467" lon="16.6702183"><ele>43.0</ele><time>2026-04-12T13:13:50.441Z</time></trkpt><trkpt lat="40.49797" lon="16.6701383"><ele>41.4</ele><time>2026-04-12T13:13:51.439Z</time></trkpt><trkpt lat="40.4979933" lon="16.669975"><ele>39.8</ele><time>2026-04-12T13:13:53.441Z</time></trkpt><trkpt lat="40.4980083" lon="16.6698867"><ele>38.2</ele><time>2026-04-12T13:13:54.443Z</time></trkpt><trkpt lat="40.49804" lon="16.6697383"><ele>36.6</ele><time>2026-04-12T13:13:56.441Z</time></trkpt><trkpt lat="40.49799" lon="16.6696017"><ele>35.0</ele><time>2026-04-12T13:13:58.439Z</time></trkpt><trkpt lat="40.4979433" lon="16.6695383"><ele>36.285714285714285</ele><time>2026-04-12T13:13:59.439Z</time></trkpt><trkpt lat="40.4978917" lon="16.6694783"><ele>37.57142857142857</ele><time>2026-04-12T13:14:00.439Z</time></trkpt><trkpt lat="40.4978383" lon="16.6694233"><ele>38.85714285714286</ele><time>2026-04-12T13:14:01.44Z</time></trkpt><trkpt lat="40.497785" lon="16.66937"><ele>40.14285714285714</ele><time>2026-04-12T13:14:02.441Z</time></trkpt><trkpt lat="40.4977333" lon="16.6693133"><ele>41.42857142857143</ele><time>2026-04-12T13:14:03.443Z</time></trkpt><trkpt lat="40.4976767" lon="16.6692517"><ele>42.714285714285715</ele><time>2026-04-12T13:14:04.44Z</time></trkpt><trkpt lat="40.4976217" lon="16.6691883"><ele>44.0</ele><time>2026-04-12T13:14:05.44Z</time></trkpt><trkpt lat="40.497565" lon="16.6691267"><ele>44.0</ele><time>2026-04-12T13:14:06.44Z</time></trkpt><trkpt lat="40.49751" lon="16.6690667"><ele>44.0</ele><time>2026-04-12T13:14:07.439Z</time></trkpt><trkpt lat="40.4974517" lon="16.6690033"><ele>44.0</ele><time>2026-04-12T13:14:08.439Z</time></trkpt><trkpt lat="40.4973867" lon="16.668935"><ele>44.0</ele><time>2026-04-12T13:14:09.439Z</time></trkpt><trkpt lat="40.4973183" lon="16.668865"><ele>44.0</ele><time>2026-04-12T13:14:10.439Z</time></trkpt><trkpt lat="40.4972533" lon="16.6687917"><ele>44.0</ele><time>2026-04-12T13:14:11.439Z</time></trkpt><trkpt lat="40.4971883" lon="16.6687167"><ele>44.0</ele><time>2026-04-12T13:14:12.44Z</time></trkpt><trkpt lat="40.49712" lon="16.6686433"><ele>44.0</ele><time>2026-04-12T13:14:13.439Z</time></trkpt><trkpt lat="40.4970567" lon="16.66858"><ele>44.0</ele><time>2026-04-12T13:14:14.44Z</time></trkpt><trkpt lat="40.4970017" lon="16.6685167"><ele>44.0</ele><time>2026-04-12T13:14:15.441Z</time></trkpt><trkpt lat="40.4969467" lon="16.6684583"><ele>44.0</ele><time>2026-04-12T13:14:16.439Z</time></trkpt><trkpt lat="40.4968633" lon="16.6683767"><ele>44.0</ele><time>2026-04-12T13:14:18.44Z</time></trkpt><trkpt lat="40.49687" lon="16.6682467"><ele>44.0</ele><time>2026-04-12T13:14:21.44Z</time></trkpt><trkpt lat="40.496955" lon="16.6681167"><ele>44.0</ele><time>2026-04-12T13:14:23.439Z</time></trkpt><trkpt lat="40.4970067" lon="16.6680417"><ele>44.0</ele><time>2026-04-12T13:14:24.44Z</time></trkpt><trkpt lat="40.4970467" lon="16.66797"><ele>44.0</ele><time>2026-04-12T13:14:25.44Z</time></trkpt><trkpt lat="40.497115" lon="16.66786"><ele>44.0</ele><time>2026-04-12T13:14:27.439Z</time></trkpt><trkpt lat="40.4971867" lon="16.6677817"><ele>44.0</ele><time>2026-04-12T13:14:29.443Z</time></trkpt><trkpt lat="40.49727" lon="16.6676733"><ele>44.0</ele><time>2026-04-12T13:14:31.439Z</time></trkpt><trkpt lat="40.49731" lon="16.6676067"><ele>44.0</ele><time>2026-04-12T13:14:32.44Z</time></trkpt><trkpt lat="40.4973567" lon="16.66753"><ele>44.0</ele><time>2026-04-12T13:14:33.439Z</time></trkpt><trkpt lat="40.4974067" lon="16.6674467"><ele>44.0</ele><time>2026-04-12T13:14:34.44Z</time></trkpt><trkpt lat="40.49746" lon="16.6673617"><ele>44.0</ele><time>2026-04-12T13:14:35.44Z</time></trkpt><trkpt lat="40.4975117" lon="16.6672783"><ele>44.0</ele><time>2026-04-12T13:14:36.44Z</time></trkpt><trkpt lat="40.497565" lon="16.6671983"><ele>44.0</ele><time>2026-04-12T13:14:37.439Z</time></trkpt><trkpt lat="40.49762" lon="16.66712"><ele>44.0</ele><time>2026-04-12T13:14:38.44Z</time></trkpt><trkpt lat="40.497675" lon="16.6670333"><ele>44.0</ele><time>2026-04-12T13:14:39.439Z</time></trkpt><trkpt lat="40.49773" lon="16.66694"><ele>44.0</ele><time>2026-04-12T13:14:40.44Z</time></trkpt><trkpt lat="40.4977833" lon="16.66685"><ele>44.0</ele><time>2026-04-12T13:14:41.439Z</time></trkpt><trkpt lat="40.4978367" lon="16.666765"><ele>44.0</ele><time>2026-04-12T13:14:42.44Z</time></trkpt><trkpt lat="40.49789" lon="16.666675"><ele>44.0</ele><time>2026-04-12T13:14:43.44Z</time></trkpt><trkpt lat="40.497945" lon="16.6665833"><ele>44.0</ele><time>2026-04-12T13:14:44.44Z</time></trkpt><trkpt lat="40.4980033" lon="16.6664933"><ele>44.0</ele><time>2026-04-12T13:14:45.439Z</time></trkpt><trkpt lat="40.4980633" lon="16.666405"><ele>44.0</ele><time>2026-04-12T13:14:46.439Z</time></trkpt><trkpt lat="40.49812" lon="16.666315"><ele>44.0</ele><time>2026-04-12T13:14:47.438Z</time></trkpt><trkpt lat="40.4981733" lon="16.666225"><ele>44.0</ele><time>2026-04-12T13:14:48.439Z</time></trkpt><trkpt lat="40.498225" lon="16.6661383"><ele>44.0</ele><time>2026-04-12T13:14:49.44Z</time></trkpt><trkpt lat="40.4982767" lon="16.6660617"><ele>44.0</ele><time>2026-04-12T13:14:50.444Z</time></trkpt><trkpt lat="40.4983283" lon="16.6659867"><ele>44.0</ele><time>2026-04-12T13:14:51.44Z</time></trkpt><trkpt lat="40.4983767" lon="16.6659167"><ele>44.0</ele><time>2026-04-12T13:14:52.44Z</time></trkpt><trkpt lat="40.498425" lon="16.6658433"><ele>44.0</ele><time>2026-04-12T13:14:53.439Z</time></trkpt><trkpt lat="40.4984733" lon="16.665765"><ele>43.83333333333333</ele><time>2026-04-12T13:14:54.439Z</time></trkpt><trkpt lat="40.49852" lon="16.665685"><ele>43.666666666666664</ele><time>2026-04-12T13:14:55.44Z</time></trkpt><trkpt lat="40.4985717" lon="16.6656"><ele>43.5</ele><time>2026-04-12T13:14:56.44Z</time></trkpt><trkpt lat="40.4986283" lon="16.6655133"><ele>43.333333333333336</ele><time>2026-04-12T13:14:57.44Z</time></trkpt><trkpt lat="40.498685" lon="16.6654267"><ele>43.16666666666667</ele><time>2026-04-12T13:14:58.438Z</time></trkpt><trkpt lat="40.49874" lon="16.6653367"><ele>43.0</ele><time>2026-04-12T13:14:59.438Z</time></trkpt><trkpt lat="40.4987933" lon="16.6652533"><ele>43.0</ele><time>2026-04-12T13:15:00.438Z</time></trkpt><trkpt lat="40.4988467" lon="16.6651717"><ele>43.0</ele><time>2026-04-12T13:15:01.44Z</time></trkpt><trkpt lat="40.4989017" lon="16.665085"><ele>43.0</ele><time>2026-04-12T13:15:02.439Z</time></trkpt><trkpt lat="40.4989617" lon="16.6649967"><ele>43.0</ele><time>2026-04-12T13:15:03.438Z</time></trkpt><trkpt lat="40.4990217" lon="16.664905"><ele>43.0</ele><time>2026-04-12T13:15:04.439Z</time></trkpt><trkpt lat="40.4990817" lon="16.6648167"><ele>43.0</ele><time>2026-04-12T13:15:05.44Z</time></trkpt><trkpt lat="40.4991367" lon="16.6647283"><ele>43.0</ele><time>2026-04-12T13:15:06.44Z</time></trkpt><trkpt lat="40.49919" lon="16.6646417"><ele>43.0</ele><time>2026-04-12T13:15:07.439Z</time></trkpt><trkpt lat="40.4992433" lon="16.6645533"><ele>43.0</ele><time>2026-04-12T13:15:08.439Z</time></trkpt><trkpt lat="40.499295" lon="16.6644667"><ele>43.0</ele><time>2026-04-12T13:15:09.439Z</time></trkpt><trkpt lat="40.4993483" lon="16.6643817"><ele>43.0</ele><time>2026-04-12T13:15:10.439Z</time></trkpt><trkpt lat="40.4994033" lon="16.6643033"><ele>43.0</ele><time>2026-04-12T13:15:11.44Z</time></trkpt><trkpt lat="40.4994567" lon="16.6642283"><ele>43.2</ele><time>2026-04-12T13:15:12.439Z</time></trkpt><trkpt lat="40.49951" lon="16.6641483"><ele>43.4</ele><time>2026-04-12T13:15:13.443Z</time></trkpt><trkpt lat="40.4995617" lon="16.66406"><ele>43.6</ele><time>2026-04-12T13:15:14.439Z</time></trkpt><trkpt lat="40.4996117" lon="16.6639767"><ele>43.800000000000004</ele><time>2026-04-12T13:15:15.439Z</time></trkpt><trkpt lat="40.4996617" lon="16.6638983"><ele>44.0</ele><time>2026-04-12T13:15:16.439Z</time></trkpt><trkpt lat="40.499745" lon="16.6637583"><ele>44.0</ele><time>2026-04-12T13:15:18.439Z</time></trkpt><trkpt lat="40.4997717" lon="16.6636567"><ele>44.0</ele><time>2026-04-12T13:15:20.439Z</time></trkpt><trkpt lat="40.4997317" lon="16.66356"><ele>44.0</ele><time>2026-04-12T13:15:22.439Z</time></trkpt><trkpt lat="40.4996367" lon="16.6634433"><ele>44.0</ele><time>2026-04-12T13:15:24.439Z</time></trkpt><trkpt lat="40.4995817" lon="16.6633767"><ele>44.0</ele><time>2026-04-12T13:15:25.438Z</time></trkpt><trkpt lat="40.4995317" lon="16.6633033"><ele>44.0</ele><time>2026-04-12T13:15:26.439Z</time></trkpt><trkpt lat="40.4994783" lon="16.6632133"><ele>44.2</ele><time>2026-04-12T13:15:27.437Z</time></trkpt><trkpt lat="40.4994183" lon="16.66312"><ele>44.400000000000006</ele><time>2026-04-12T13:15:28.439Z</time></trkpt><trkpt lat="40.49935" lon="16.6630217"><ele>44.6</ele><time>2026-04-12T13:15:29.439Z</time></trkpt><trkpt lat="40.4992867" lon="16.6629283"><ele>44.8</ele><time>2026-04-12T13:15:30.439Z</time></trkpt><trkpt lat="40.4992283" lon="16.662835"><ele>45.0</ele><time>2026-04-12T13:15:31.439Z</time></trkpt><trkpt lat="40.4991733" lon="16.6627433"><ele>45.166666666666664</ele><time>2026-04-12T13:15:32.439Z</time></trkpt><trkpt lat="40.4991167" lon="16.6626567"><ele>45.333333333333336</ele><time>2026-04-12T13:15:33.438Z</time></trkpt><trkpt lat="40.4990583" lon="16.66257"><ele>45.5</ele><time>2026-04-12T13:15:34.438Z</time></trkpt><trkpt lat="40.4989983" lon="16.6624867"><ele>45.66666666666667</ele><time>2026-04-12T13:15:35.438Z</time></trkpt><trkpt lat="40.4989433" lon="16.6624033"><ele>45.833333333333336</ele><time>2026-04-12T13:15:36.439Z</time></trkpt><trkpt lat="40.498895" lon="16.6623317"><ele>46.0</ele><time>2026-04-12T13:15:37.439Z</time></trkpt><trkpt lat="40.498835" lon="16.6622367"><ele>46.0</ele><time>2026-04-12T13:15:39.439Z</time></trkpt><trkpt lat="40.4987817" lon="16.662165"><ele>46.0</ele><time>2026-04-12T13:15:43.438Z</time></trkpt><trkpt lat="40.4987217" lon="16.662075"><ele>46.0</ele><time>2026-04-12T13:15:48.438Z</time></trkpt><trkpt lat="40.498655" lon="16.661965"><ele>46.0</ele><time>2026-04-12T13:15:50.439Z</time></trkpt><trkpt lat="40.4985767" lon="16.6618567"><ele>46.0</ele><time>2026-04-12T13:15:52.44Z</time></trkpt><trkpt lat="40.49853" lon="16.6617917"><ele>45.833333333333336</ele><time>2026-04-12T13:15:53.439Z</time></trkpt><trkpt lat="40.4984783" lon="16.6617183"><ele>45.66666666666667</ele><time>2026-04-12T13:15:54.438Z</time></trkpt><trkpt lat="40.498425" lon="16.661645"><ele>45.5</ele><time>2026-04-12T13:15:55.438Z</time></trkpt><trkpt lat="40.4983683" lon="16.661565"><ele>45.333333333333336</ele><time>2026-04-12T13:15:56.439Z</time></trkpt><trkpt lat="40.498315" lon="16.661485"><ele>45.166666666666664</ele><time>2026-04-12T13:15:57.439Z</time></trkpt><trkpt lat="40.49827" lon="16.66141"><ele>45.0</ele><time>2026-04-12T13:15:58.439Z</time></trkpt><trkpt lat="40.4981967" lon="16.661285"><ele>45.0</ele><time>2026-04-12T13:16:00.441Z</time></trkpt><trkpt lat="40.4981517" lon="16.6612183"><ele>45.0</ele><time>2026-04-12T13:16:01.438Z</time></trkpt><trkpt lat="40.4981017" lon="16.661145"><ele>45.0</ele><time>2026-04-12T13:16:02.442Z</time></trkpt><trkpt lat="40.4980417" lon="16.6610633"><ele>45.0</ele><time>2026-04-12T13:16:03.439Z</time></trkpt><trkpt lat="40.49798" lon="16.6609733"><ele>45.0</ele><time>2026-04-12T13:16:04.44Z</time></trkpt><trkpt lat="40.4979217" lon="16.6608833"><ele>45.0</ele><time>2026-04-12T13:16:05.44Z</time></trkpt><trkpt lat="40.49786" lon="16.6608017"><ele>45.333333333333336</ele><time>2026-04-12T13:16:06.439Z</time></trkpt><trkpt lat="40.4977983" lon="16.6607233"><ele>45.666666666666664</ele><time>2026-04-12T13:16:07.438Z</time></trkpt><trkpt lat="40.497745" lon="16.6606383"><ele>46.0</ele><time>2026-04-12T13:16:08.439Z</time></trkpt><trkpt lat="40.4976933" lon="16.66055"><ele>46.33333333333333</ele><time>2026-04-12T13:16:09.439Z</time></trkpt><trkpt lat="40.4976283" lon="16.6604683"><ele>46.666666666666664</ele><time>2026-04-12T13:16:10.438Z</time></trkpt><trkpt lat="40.4975683" lon="16.6603933"><ele>47.0</ele><time>2026-04-12T13:16:11.439Z</time></trkpt><trkpt lat="40.49751" lon="16.6603167"><ele>47.33333333333333</ele><time>2026-04-12T13:16:12.438Z</time></trkpt><trkpt lat="40.4974567" lon="16.6602433"><ele>47.666666666666664</ele><time>2026-04-12T13:16:13.439Z</time></trkpt><trkpt lat="40.4974133" lon="16.660175"><ele>48.0</ele><time>2026-04-12T13:16:14.44Z</time></trkpt><trkpt lat="40.4973617" lon="16.6600517"><ele>48.33333333333333</ele><time>2026-04-12T13:16:16.439Z</time></trkpt><trkpt lat="40.4974033" lon="16.659965"><ele>48.666666666666664</ele><time>2026-04-12T13:16:18.439Z</time></trkpt><trkpt lat="40.4975083" lon="16.659895"><ele>49.0</ele><time>2026-04-12T13:16:20.439Z</time></trkpt><trkpt lat="40.497585" lon="16.6598433"><ele>49.0</ele><time>2026-04-12T13:16:21.438Z</time></trkpt><trkpt lat="40.49767" lon="16.6597767"><ele>49.0</ele><time>2026-04-12T13:16:22.441Z</time></trkpt><trkpt lat="40.4977667" lon="16.6596967"><ele>49.0</ele><time>2026-04-12T13:16:23.44Z</time></trkpt><trkpt lat="40.4978733" lon="16.6596133"><ele>49.0</ele><time>2026-04-12T13:16:24.439Z</time></trkpt><trkpt lat="40.49799" lon="16.6595283"><ele>48.5</ele><time>2026-04-12T13:16:25.439Z</time></trkpt><trkpt lat="40.49811" lon="16.6594383"><ele>48.0</ele><time>2026-04-12T13:16:26.439Z</time></trkpt><trkpt lat="40.498235" lon="16.659345"><ele>47.5</ele><time>2026-04-12T13:16:27.439Z</time></trkpt><trkpt lat="40.4983633" lon="16.65925"><ele>47.0</ele><time>2026-04-12T13:16:28.438Z</time></trkpt><trkpt lat="40.498495" lon="16.6591533"><ele>47.0</ele><time>2026-04-12T13:16:29.438Z</time></trkpt><trkpt lat="40.4986267" lon="16.6590517"><ele>47.0</ele><time>2026-04-12T13:16:30.438Z</time></trkpt><trkpt lat="40.4987633" lon="16.6589517"><ele>47.0</ele><time>2026-04-12T13:16:31.438Z</time></trkpt><trkpt lat="40.4988967" lon="16.65885"><ele>47.0</ele><time>2026-04-12T13:16:32.439Z</time></trkpt><trkpt lat="40.4990317" lon="16.658745"><ele>47.0</ele><time>2026-04-12T13:16:33.439Z</time></trkpt><trkpt lat="40.4991667" lon="16.6586383"><ele>47.0</ele><time>2026-04-12T13:16:34.439Z</time></trkpt><trkpt lat="40.4993017" lon="16.6585317"><ele>46.666666666666664</ele><time>2026-04-12T13:16:35.439Z</time></trkpt><trkpt lat="40.499435" lon="16.6584233"><ele>46.333333333333336</ele><time>2026-04-12T13:16:36.439Z</time></trkpt><trkpt lat="40.4995683" lon="16.6583133"><ele>46.0</ele><time>2026-04-12T13:16:37.439Z</time></trkpt><trkpt lat="40.4997017" lon="16.6581983"><ele>46.66666666666667</ele><time>2026-04-12T13:16:38.439Z</time></trkpt><trkpt lat="40.4998317" lon="16.6580783"><ele>47.333333333333336</ele><time>2026-04-12T13:16:39.439Z</time></trkpt><trkpt lat="40.4999633" lon="16.6579583"><ele>48.0</ele><time>2026-04-12T13:16:40.439Z</time></trkpt><trkpt lat="40.5000967" lon="16.6578317"><ele>48.0</ele><time>2026-04-12T13:16:41.439Z</time></trkpt><trkpt lat="40.5002267" lon="16.6576983"><ele>48.0</ele><time>2026-04-12T13:16:42.439Z</time></trkpt><trkpt lat="40.5003567" lon="16.65756"><ele>48.0</ele><time>2026-04-12T13:16:43.438Z</time></trkpt><trkpt lat="40.5004867" lon="16.6574183"><ele>48.0</ele><time>2026-04-12T13:16:44.439Z</time></trkpt><trkpt lat="40.5006167" lon="16.6572733"><ele>48.0</ele><time>2026-04-12T13:16:45.438Z</time></trkpt><trkpt lat="40.5007483" lon="16.6571267"><ele>48.0</ele><time>2026-04-12T13:16:46.438Z</time></trkpt><trkpt lat="40.5008783" lon="16.6569717"><ele>49.33333333333333</ele><time>2026-04-12T13:16:47.438Z</time></trkpt><trkpt lat="40.5010017" lon="16.6568067"><ele>50.666666666666664</ele><time>2026-04-12T13:16:48.438Z</time></trkpt><trkpt lat="40.50112" lon="16.65664"><ele>52.0</ele><time>2026-04-12T13:16:49.439Z</time></trkpt><trkpt lat="40.50124" lon="16.6564667"><ele>50.666666666666664</ele><time>2026-04-12T13:16:50.44Z</time></trkpt><trkpt lat="40.50136" lon="16.65629"><ele>49.33333333333333</ele><time>2026-04-12T13:16:51.439Z</time></trkpt><trkpt lat="40.5014767" lon="16.65611"><ele>48.0</ele><time>2026-04-12T13:16:52.439Z</time></trkpt><trkpt lat="40.50159" lon="16.65593"><ele>48.0</ele><time>2026-04-12T13:16:53.442Z</time></trkpt><trkpt lat="40.5016983" lon="16.655745"><ele>48.0</ele><time>2026-04-12T13:16:54.439Z</time></trkpt><trkpt lat="40.5018033" lon="16.6555567"><ele>48.0</ele><time>2026-04-12T13:16:55.439Z</time></trkpt><trkpt lat="40.501905" lon="16.655365"><ele>48.0</ele><time>2026-04-12T13:16:56.44Z</time></trkpt><trkpt lat="40.502005" lon="16.6551717"><ele>48.0</ele><time>2026-04-12T13:16:57.438Z</time></trkpt><trkpt lat="40.5021017" lon="16.654975"><ele>48.0</ele><time>2026-04-12T13:16:58.438Z</time></trkpt><trkpt lat="40.5021983" lon="16.6547767"><ele>48.0</ele><time>2026-04-12T13:16:59.44Z</time></trkpt><trkpt lat="40.5022917" lon="16.65458"><ele>48.0</ele><time>2026-04-12T13:17:00.438Z</time></trkpt><trkpt lat="40.5023867" lon="16.6543817"><ele>48.0</ele><time>2026-04-12T13:17:01.438Z</time></trkpt><trkpt lat="40.502485" lon="16.6541833"><ele>48.66666666666667</ele><time>2026-04-12T13:17:02.439Z</time></trkpt><trkpt lat="40.5025783" lon="16.6539833"><ele>49.333333333333336</ele><time>2026-04-12T13:17:03.439Z</time></trkpt><trkpt lat="40.5026735" lon="16.653783"><ele>50.0</ele><time>2026-04-12T13:17:04.439Z</time></trkpt><trkpt lat="40.5027684" lon="16.6535833"><ele>50.0</ele><time>2026-04-12T13:17:05.439Z</time></trkpt><trkpt lat="40.502864" lon="16.6533877"><ele>50.0</ele><time>2026-04-12T13:17:06.438Z</time></trkpt><trkpt lat="40.5029604" lon="16.6531943"><ele>50.0</ele><time>2026-04-12T13:17:07.438Z</time></trkpt><trkpt lat="40.5030576" lon="16.6529997"><ele>50.0</ele><time>2026-04-12T13:17:08.439Z</time></trkpt><trkpt lat="40.5031537" lon="16.6528041"><ele>50.0</ele><time>2026-04-12T13:17:09.438Z</time></trkpt><trkpt lat="40.5032488" lon="16.6526099"><ele>50.0</ele><time>2026-04-12T13:17:10.44Z</time></trkpt><trkpt lat="40.5033436" lon="16.6524179"><ele>50.0</ele><time>2026-04-12T13:17:11.439Z</time></trkpt><trkpt lat="40.5034387" lon="16.6522233"><ele>50.0</ele><time>2026-04-12T13:17:12.438Z</time></trkpt><trkpt lat="40.5035333" lon="16.6520267"><ele>50.0</ele><time>2026-04-12T13:17:13.438Z</time></trkpt><trkpt lat="40.5036277" lon="16.6518325"><ele>50.333333333333336</ele><time>2026-04-12T13:17:14.44Z</time></trkpt><trkpt lat="40.5037237" lon="16.6516391"><ele>50.66666666666667</ele><time>2026-04-12T13:17:15.438Z</time></trkpt><trkpt lat="40.5038198" lon="16.6514437"><ele>51.0</ele><time>2026-04-12T13:17:16.44Z</time></trkpt><trkpt lat="40.5039164" lon="16.6512485"><ele>50.33333333333333</ele><time>2026-04-12T13:17:17.439Z</time></trkpt><trkpt lat="40.5040124" lon="16.6510539"><ele>49.666666666666664</ele><time>2026-04-12T13:17:18.438Z</time></trkpt><trkpt lat="40.5041094" lon="16.6508633"><ele>49.0</ele><time>2026-04-12T13:17:19.439Z</time></trkpt><trkpt lat="40.5042061" lon="16.6506734"><ele>49.0</ele><time>2026-04-12T13:17:20.439Z</time></trkpt><trkpt lat="40.5043025" lon="16.6504853"><ele>49.0</ele><time>2026-04-12T13:17:21.439Z</time></trkpt><trkpt lat="40.5043985" lon="16.6502992"><ele>49.0</ele><time>2026-04-12T13:17:22.439Z</time></trkpt><trkpt lat="40.504497" lon="16.650113"><ele>48.666666666666664</ele><time>2026-04-12T13:17:23.438Z</time></trkpt><trkpt lat="40.5045956" lon="16.6499274"><ele>48.33333333333333</ele><time>2026-04-12T13:17:24.439Z</time></trkpt><trkpt lat="40.5046956" lon="16.6497446"><ele>48.0</ele><time>2026-04-12T13:17:25.442Z</time></trkpt><trkpt lat="40.5047954" lon="16.6495618"><ele>48.0</ele><time>2026-04-12T13:17:26.439Z</time></trkpt><trkpt lat="40.5048956" lon="16.6493758"><ele>48.0</ele><time>2026-04-12T13:17:27.437Z</time></trkpt><trkpt lat="40.5049952" lon="16.6491909"><ele>48.0</ele><time>2026-04-12T13:17:28.443Z</time></trkpt><trkpt lat="40.5050987" lon="16.6490071"><ele>48.0</ele><time>2026-04-12T13:17:29.439Z</time></trkpt><trkpt lat="40.5052016" lon="16.6488241"><ele>48.0</ele><time>2026-04-12T13:17:30.438Z</time></trkpt><trkpt lat="40.5053021" lon="16.6486414"><ele>48.0</ele><time>2026-04-12T13:17:31.439Z</time></trkpt><trkpt lat="40.5054048" lon="16.6484593"><ele>48.0</ele><time>2026-04-12T13:17:32.439Z</time></trkpt><trkpt lat="40.5055104" lon="16.648282"><ele>48.0</ele><time>2026-04-12T13:17:33.44Z</time></trkpt><trkpt lat="40.5056145" lon="16.6481068"><ele>48.0</ele><time>2026-04-12T13:17:34.439Z</time></trkpt><trkpt lat="40.5057217" lon="16.6479364"><ele>48.33333333333333</ele><time>2026-04-12T13:17:35.44Z</time></trkpt><trkpt lat="40.5058304" lon="16.6477647"><ele>48.666666666666664</ele><time>2026-04-12T13:17:36.438Z</time></trkpt><trkpt lat="40.5059379" lon="16.6475928"><ele>49.0</ele><time>2026-04-12T13:17:37.439Z</time></trkpt><trkpt lat="40.5060457" lon="16.6474228"><ele>49.0</ele><time>2026-04-12T13:17:38.439Z</time></trkpt><trkpt lat="40.5061532" lon="16.6472547"><ele>49.0</ele><time>2026-04-12T13:17:39.44Z</time></trkpt><trkpt lat="40.5062613" lon="16.6470877"><ele>49.0</ele><time>2026-04-12T13:17:40.439Z</time></trkpt><trkpt lat="40.5063706" lon="16.6469237"><ele>49.666666666666664</ele><time>2026-04-12T13:17:41.44Z</time></trkpt><trkpt lat="40.5064797" lon="16.6467596"><ele>50.33333333333333</ele><time>2026-04-12T13:17:42.438Z</time></trkpt><trkpt lat="40.5065892" lon="16.646593"><ele>51.0</ele><time>2026-04-12T13:17:43.438Z</time></trkpt><trkpt lat="40.5067017" lon="16.646427"><ele>51.0</ele><time>2026-04-12T13:17:44.439Z</time></trkpt><trkpt lat="40.5068152" lon="16.6462602"><ele>51.0</ele><time>2026-04-12T13:17:45.438Z</time></trkpt><trkpt lat="40.5069303" lon="16.6460978"><ele>51.0</ele><time>2026-04-12T13:17:46.439Z</time></trkpt><trkpt lat="40.5070458" lon="16.645938"><ele>51.33333333333333</ele><time>2026-04-12T13:17:47.438Z</time></trkpt><trkpt lat="40.5071624" lon="16.6457746"><ele>51.666666666666664</ele><time>2026-04-12T13:17:48.438Z</time></trkpt><trkpt lat="40.5072842" lon="16.6456021"><ele>52.0</ele><time>2026-04-12T13:17:49.438Z</time></trkpt><trkpt lat="40.5074072" lon="16.6454276"><ele>52.33333333333333</ele><time>2026-04-12T13:17:50.439Z</time></trkpt><trkpt lat="40.5075302" lon="16.645257"><ele>52.66666666666667</ele><time>2026-04-12T13:17:51.439Z</time></trkpt><trkpt lat="40.5076527" lon="16.6450853"><ele>53.0</ele><time>2026-04-12T13:17:52.438Z</time></trkpt><trkpt lat="40.5077761" lon="16.6449133"><ele>53.0</ele><time>2026-04-12T13:17:53.439Z</time></trkpt><trkpt lat="40.5078996" lon="16.6447426"><ele>53.0</ele><time>2026-04-12T13:17:54.439Z</time></trkpt><trkpt lat="40.5080272" lon="16.6445752"><ele>53.0</ele><time>2026-04-12T13:17:55.439Z</time></trkpt><trkpt lat="40.5081576" lon="16.64441"><ele>53.0</ele><time>2026-04-12T13:17:56.443Z</time></trkpt><trkpt lat="40.5082893" lon="16.6442495"><ele>53.0</ele><time>2026-04-12T13:17:57.439Z</time></trkpt><trkpt lat="40.5084229" lon="16.6440866"><ele>53.0</ele><time>2026-04-12T13:17:58.439Z</time></trkpt><trkpt lat="40.5085577" lon="16.6439255"><ele>53.0</ele><time>2026-04-12T13:17:59.439Z</time></trkpt><trkpt lat="40.5086939" lon="16.6437639"><ele>53.0</ele><time>2026-04-12T13:18:00.439Z</time></trkpt><trkpt lat="40.5088286" lon="16.6436067"><ele>53.0</ele><time>2026-04-12T13:18:01.441Z</time></trkpt><trkpt lat="40.5089643" lon="16.6434494"><ele>52.66666666666667</ele><time>2026-04-12T13:18:02.44Z</time></trkpt><trkpt lat="40.5091013" lon="16.6432945"><ele>52.33333333333333</ele><time>2026-04-12T13:18:03.439Z</time></trkpt><trkpt lat="40.5092392" lon="16.6431396"><ele>52.0</ele><time>2026-04-12T13:18:04.439Z</time></trkpt><trkpt lat="40.5093787" lon="16.6429844"><ele>52.0</ele><time>2026-04-12T13:18:05.439Z</time></trkpt><trkpt lat="40.5095175" lon="16.6428305"><ele>52.0</ele><time>2026-04-12T13:18:06.439Z</time></trkpt><trkpt lat="40.5096564" lon="16.6426781"><ele>52.0</ele><time>2026-04-12T13:18:07.438Z</time></trkpt><trkpt lat="40.5097961" lon="16.6425264"><ele>52.33333333333333</ele><time>2026-04-12T13:18:08.439Z</time></trkpt><trkpt lat="40.5099365" lon="16.6423779"><ele>52.66666666666667</ele><time>2026-04-12T13:18:09.438Z</time></trkpt><trkpt lat="40.510078" lon="16.6422281"><ele>53.0</ele><time>2026-04-12T13:18:10.443Z</time></trkpt><trkpt lat="40.5102182" lon="16.6420808"><ele>53.333333333333336</ele><time>2026-04-12T13:18:11.439Z</time></trkpt><trkpt lat="40.5103593" lon="16.6419305"><ele>53.66666666666667</ele><time>2026-04-12T13:18:12.439Z</time></trkpt><trkpt lat="40.5105023" lon="16.6417834"><ele>54.0</ele><time>2026-04-12T13:18:13.44Z</time></trkpt><trkpt lat="40.5106469" lon="16.6416356"><ele>52.66666666666667</ele><time>2026-04-12T13:18:14.44Z</time></trkpt><trkpt lat="40.5107937" lon="16.6414904"><ele>51.333333333333336</ele><time>2026-04-12T13:18:15.439Z</time></trkpt><trkpt lat="40.5109411" lon="16.6413472"><ele>50.0</ele><time>2026-04-12T13:18:16.439Z</time></trkpt><trkpt lat="40.5110874" lon="16.6412021"><ele>49.66666666666667</ele><time>2026-04-12T13:18:17.439Z</time></trkpt><trkpt lat="40.5112335" lon="16.6410567"><ele>49.33333333333333</ele><time>2026-04-12T13:18:18.439Z</time></trkpt><trkpt lat="40.51138" lon="16.6409104"><ele>49.0</ele><time>2026-04-12T13:18:19.439Z</time></trkpt><trkpt lat="40.5115248" lon="16.6407643"><ele>48.33333333333333</ele><time>2026-04-12T13:18:20.44Z</time></trkpt><trkpt lat="40.5116697" lon="16.6406215"><ele>47.666666666666664</ele><time>2026-04-12T13:18:21.439Z</time></trkpt><trkpt lat="40.5118133" lon="16.6404809"><ele>47.0</ele><time>2026-04-12T13:18:22.439Z</time></trkpt><trkpt lat="40.5119577" lon="16.6403398"><ele>47.666666666666664</ele><time>2026-04-12T13:18:23.44Z</time></trkpt><trkpt lat="40.5121014" lon="16.6401982"><ele>48.33333333333333</ele><time>2026-04-12T13:18:24.44Z</time></trkpt><trkpt lat="40.512242" lon="16.6400582"><ele>49.0</ele><time>2026-04-12T13:18:25.439Z</time></trkpt><trkpt lat="40.5123815" lon="16.6399188"><ele>49.0</ele><time>2026-04-12T13:18:26.439Z</time></trkpt><trkpt lat="40.5125185" lon="16.6397829"><ele>49.0</ele><time>2026-04-12T13:18:27.438Z</time></trkpt><trkpt lat="40.5126545" lon="16.6396473"><ele>49.0</ele><time>2026-04-12T13:18:28.438Z</time></trkpt><trkpt lat="40.5127927" lon="16.6395128"><ele>49.0</ele><time>2026-04-12T13:18:29.438Z</time></trkpt><trkpt lat="40.5129302" lon="16.6393801"><ele>49.0</ele><time>2026-04-12T13:18:30.439Z</time></trkpt><trkpt lat="40.5130676" lon="16.6392417"><ele>49.0</ele><time>2026-04-12T13:18:31.439Z</time></trkpt><trkpt lat="40.5132046" lon="16.6390994"><ele>49.0</ele><time>2026-04-12T13:18:32.439Z</time></trkpt><trkpt lat="40.5133424" lon="16.6389609"><ele>49.0</ele><time>2026-04-12T13:18:33.439Z</time></trkpt><trkpt lat="40.5134823" lon="16.6388212"><ele>49.0</ele><time>2026-04-12T13:18:34.439Z</time></trkpt><trkpt lat="40.5134823" lon="16.6388212"><ele>49.0</ele><time>2026-04-12T13:18:34.439Z</time></trkpt><trkpt lat="40.514198" lon="16.638125"><ele>48.5</ele><time>2026-04-12T13:18:39.44Z</time></trkpt><trkpt lat="40.5143368" lon="16.6379831"><ele>48.0</ele><time>2026-04-12T13:18:40.439Z</time></trkpt><trkpt lat="40.514616" lon="16.6376998"><ele>49.0</ele><time>2026-04-12T13:18:42.439Z</time></trkpt><trkpt lat="40.5147556" lon="16.6375584"><ele>50.0</ele><time>2026-04-12T13:18:43.439Z</time></trkpt><trkpt lat="40.5148978" lon="16.6374184"><ele>51.0</ele><time>2026-04-12T13:18:44.44Z</time></trkpt><trkpt lat="40.5150402" lon="16.6372832"><ele>51.0</ele><time>2026-04-12T13:18:45.439Z</time></trkpt><trkpt lat="40.5151798" lon="16.6371499"><ele>51.0</ele><time>2026-04-12T13:18:46.439Z</time></trkpt><trkpt lat="40.5153208" lon="16.6370201"><ele>51.0</ele><time>2026-04-12T13:18:47.438Z</time></trkpt><trkpt lat="40.515461" lon="16.6368915"><ele>51.0</ele><time>2026-04-12T13:18:48.438Z</time></trkpt><trkpt lat="40.5156014" lon="16.6367641"><ele>51.0</ele><time>2026-04-12T13:18:49.438Z</time></trkpt><trkpt lat="40.5157429" lon="16.6366348"><ele>51.0</ele><time>2026-04-12T13:18:50.44Z</time></trkpt><trkpt lat="40.5158835" lon="16.6365049"><ele>51.0</ele><time>2026-04-12T13:18:51.44Z</time></trkpt><trkpt lat="40.5160258" lon="16.6363703"><ele>51.0</ele><time>2026-04-12T13:18:52.439Z</time></trkpt><trkpt lat="40.5161711" lon="16.6362357"><ele>51.0</ele><time>2026-04-12T13:18:53.44Z</time></trkpt><trkpt lat="40.516918" lon="16.6355838"><ele>51.0</ele><time>2026-04-12T13:18:58.439Z</time></trkpt><trkpt lat="40.5170694" lon="16.6354513"><ele>51.0</ele><time>2026-04-12T13:18:59.439Z</time></trkpt><trkpt lat="40.5175194" lon="16.635065"><ele>51.0</ele><time>2026-04-12T13:19:02.439Z</time></trkpt><trkpt lat="40.5176686" lon="16.6349401"><ele>51.0</ele><time>2026-04-12T13:19:03.439Z</time></trkpt><trkpt lat="40.5178179" lon="16.6348152"><ele>51.0</ele><time>2026-04-12T13:19:04.439Z</time></trkpt><trkpt lat="40.5179673" lon="16.634691"><ele>51.0</ele><time>2026-04-12T13:19:05.44Z</time></trkpt><trkpt lat="40.5181156" lon="16.6345694"><ele>51.0</ele><time>2026-04-12T13:19:06.439Z</time></trkpt><trkpt lat="40.518262" lon="16.6344454"><ele>51.0</ele><time>2026-04-12T13:19:07.438Z</time></trkpt><trkpt lat="40.5184087" lon="16.6343208"><ele>51.0</ele><time>2026-04-12T13:19:08.439Z</time></trkpt><trkpt lat="40.5185566" lon="16.6341954"><ele>51.0</ele><time>2026-04-12T13:19:09.437Z</time></trkpt><trkpt lat="40.518703" lon="16.6340701"><ele>51.0</ele><time>2026-04-12T13:19:10.439Z</time></trkpt><trkpt lat="40.5188501" lon="16.6339408"><ele>51.0</ele><time>2026-04-12T13:19:11.44Z</time></trkpt><trkpt lat="40.5189953" lon="16.6338089"><ele>51.0</ele><time>2026-04-12T13:19:12.439Z</time></trkpt><trkpt lat="40.5191355" lon="16.633681"><ele>51.0</ele><time>2026-04-12T13:19:13.439Z</time></trkpt><trkpt lat="40.5192753" lon="16.6335553"><ele>52.0</ele><time>2026-04-12T13:19:14.44Z</time></trkpt><trkpt lat="40.5194123" lon="16.6334282"><ele>53.0</ele><time>2026-04-12T13:19:15.44Z</time></trkpt><trkpt lat="40.5195504" lon="16.6333013"><ele>54.0</ele><time>2026-04-12T13:19:16.44Z</time></trkpt><trkpt lat="40.5196886" lon="16.6331744"><ele>54.0</ele><time>2026-04-12T13:19:17.441Z</time></trkpt><trkpt lat="40.5198281" lon="16.6330476"><ele>54.0</ele><time>2026-04-12T13:19:18.439Z</time></trkpt><trkpt lat="40.5199669" lon="16.6329161"><ele>54.0</ele><time>2026-04-12T13:19:19.439Z</time></trkpt><trkpt lat="40.5201063" lon="16.6327834"><ele>54.33333333333333</ele><time>2026-04-12T13:19:20.44Z</time></trkpt><trkpt lat="40.5202448" lon="16.6326489"><ele>54.666666666666664</ele><time>2026-04-12T13:19:21.439Z</time></trkpt><trkpt lat="40.5203845" lon="16.6325127"><ele>55.0</ele><time>2026-04-12T13:19:22.439Z</time></trkpt><trkpt lat="40.520524" lon="16.6323764"><ele>54.666666666666664</ele><time>2026-04-12T13:19:23.44Z</time></trkpt><trkpt lat="40.5206643" lon="16.6322406"><ele>54.33333333333333</ele><time>2026-04-12T13:19:24.44Z</time></trkpt><trkpt lat="40.5208046" lon="16.632103"><ele>54.0</ele><time>2026-04-12T13:19:25.439Z</time></trkpt><trkpt lat="40.520946" lon="16.631966"><ele>54.0</ele><time>2026-04-12T13:19:26.44Z</time></trkpt><trkpt lat="40.5210879" lon="16.6318288"><ele>54.0</ele><time>2026-04-12T13:19:27.439Z</time></trkpt><trkpt lat="40.5212308" lon="16.6316897"><ele>54.0</ele><time>2026-04-12T13:19:28.438Z</time></trkpt><trkpt lat="40.5213722" lon="16.6315494"><ele>54.0</ele><time>2026-04-12T13:19:29.439Z</time></trkpt><trkpt lat="40.5215124" lon="16.6314072"><ele>54.0</ele><time>2026-04-12T13:19:30.439Z</time></trkpt><trkpt lat="40.5216518" lon="16.6312621"><ele>54.0</ele><time>2026-04-12T13:19:31.439Z</time></trkpt><trkpt lat="40.52179" lon="16.6311127"><ele>54.0</ele><time>2026-04-12T13:19:32.441Z</time></trkpt><trkpt lat="40.521928" lon="16.6309627"><ele>54.0</ele><time>2026-04-12T13:19:33.439Z</time></trkpt><trkpt lat="40.5220652" lon="16.6308114"><ele>54.0</ele><time>2026-04-12T13:19:34.44Z</time></trkpt><trkpt lat="40.522203" lon="16.6306599"><ele>54.0</ele><time>2026-04-12T13:19:35.439Z</time></trkpt><trkpt lat="40.5223414" lon="16.6305059"><ele>54.0</ele><time>2026-04-12T13:19:36.439Z</time></trkpt><trkpt lat="40.5224827" lon="16.630355"><ele>54.0</ele><time>2026-04-12T13:19:37.439Z</time></trkpt><trkpt lat="40.5226262" lon="16.6302043"><ele>54.0</ele><time>2026-04-12T13:19:38.439Z</time></trkpt><trkpt lat="40.5227684" lon="16.6300519"><ele>54.0</ele><time>2026-04-12T13:19:39.439Z</time></trkpt><trkpt lat="40.522911" lon="16.6298966"><ele>54.0</ele><time>2026-04-12T13:19:40.439Z</time></trkpt><trkpt lat="40.5230517" lon="16.6297415"><ele>53.66666666666667</ele><time>2026-04-12T13:19:41.439Z</time></trkpt><trkpt lat="40.5231914" lon="16.6295843"><ele>53.333333333333336</ele><time>2026-04-12T13:19:42.439Z</time></trkpt><trkpt lat="40.5233312" lon="16.6294273"><ele>53.0</ele><time>2026-04-12T13:19:43.439Z</time></trkpt><trkpt lat="40.5234694" lon="16.6292686"><ele>53.0</ele><time>2026-04-12T13:19:44.439Z</time></trkpt><trkpt lat="40.5236081" lon="16.6291136"><ele>53.0</ele><time>2026-04-12T13:19:45.441Z</time></trkpt><trkpt lat="40.5237479" lon="16.6289599"><ele>53.0</ele><time>2026-04-12T13:19:46.44Z</time></trkpt><trkpt lat="40.5238861" lon="16.6288046"><ele>53.0</ele><time>2026-04-12T13:19:47.438Z</time></trkpt><trkpt lat="40.5240248" lon="16.6286528"><ele>53.0</ele><time>2026-04-12T13:19:48.438Z</time></trkpt><trkpt lat="40.5241606" lon="16.6285003"><ele>53.0</ele><time>2026-04-12T13:19:49.439Z</time></trkpt><trkpt lat="40.5242953" lon="16.6283439"><ele>53.0</ele><time>2026-04-12T13:19:50.44Z</time></trkpt><trkpt lat="40.5244311" lon="16.6281875"><ele>53.0</ele><time>2026-04-12T13:19:51.438Z</time></trkpt><trkpt lat="40.5245679" lon="16.628034"><ele>53.0</ele><time>2026-04-12T13:19:52.44Z</time></trkpt><trkpt lat="40.5247032" lon="16.6278832"><ele>53.66666666666667</ele><time>2026-04-12T13:19:53.439Z</time></trkpt><trkpt lat="40.5248392" lon="16.6277333"><ele>54.33333333333333</ele><time>2026-04-12T13:19:54.439Z</time></trkpt><trkpt lat="40.5249757" lon="16.6275836"><ele>55.0</ele><time>2026-04-12T13:19:55.439Z</time></trkpt><trkpt lat="40.5251116" lon="16.6274355"><ele>55.0</ele><time>2026-04-12T13:19:56.44Z</time></trkpt><trkpt lat="40.5252451" lon="16.6272842"><ele>55.0</ele><time>2026-04-12T13:19:57.44Z</time></trkpt><trkpt lat="40.5253767" lon="16.6271334"><ele>55.0</ele><time>2026-04-12T13:19:58.441Z</time></trkpt><trkpt lat="40.5255055" lon="16.6269896"><ele>54.75</ele><time>2026-04-12T13:19:59.444Z</time></trkpt><trkpt lat="40.5256249" lon="16.6268588"><ele>54.5</ele><time>2026-04-12T13:20:00.439Z</time></trkpt><trkpt lat="40.5257305" lon="16.6267364"><ele>54.25</ele><time>2026-04-12T13:20:01.439Z</time></trkpt><trkpt lat="40.5258292" lon="16.6266234"><ele>54.0</ele><time>2026-04-12T13:20:02.44Z</time></trkpt><trkpt lat="40.5259361" lon="16.6265319"><ele>54.0</ele><time>2026-04-12T13:20:03.439Z</time></trkpt><trkpt lat="40.5260558" lon="16.626477"><ele>54.0</ele><time>2026-04-12T13:20:04.439Z</time></trkpt><trkpt lat="40.5261804" lon="16.6264703"><ele>54.0</ele><time>2026-04-12T13:20:05.447Z</time></trkpt><trkpt lat="40.5263012" lon="16.6265165"><ele>54.0</ele><time>2026-04-12T13:20:06.44Z</time></trkpt><trkpt lat="40.5264158" lon="16.6266153"><ele>54.0</ele><time>2026-04-12T13:20:07.438Z</time></trkpt><trkpt lat="40.5265159" lon="16.6267634"><ele>54.0</ele><time>2026-04-12T13:20:08.439Z</time></trkpt><trkpt lat="40.5266057" lon="16.6269364"><ele>54.0</ele><time>2026-04-12T13:20:09.438Z</time></trkpt><trkpt lat="40.5266903" lon="16.6271093"><ele>54.0</ele><time>2026-04-12T13:20:10.441Z</time></trkpt><trkpt lat="40.5267785" lon="16.6272754"><ele>54.0</ele><time>2026-04-12T13:20:11.439Z</time></trkpt><trkpt lat="40.5268819" lon="16.6274417"><ele>54.0</ele><time>2026-04-12T13:20:12.44Z</time></trkpt><trkpt lat="40.5269865" lon="16.6276163"><ele>54.33333333333333</ele><time>2026-04-12T13:20:13.439Z</time></trkpt><trkpt lat="40.5270889" lon="16.627796"><ele>54.666666666666664</ele><time>2026-04-12T13:20:14.44Z</time></trkpt><trkpt lat="40.5271921" lon="16.6279816"><ele>55.0</ele><time>2026-04-12T13:20:15.439Z</time></trkpt><trkpt lat="40.527293" lon="16.6281709"><ele>55.0</ele><time>2026-04-12T13:20:16.439Z</time></trkpt><trkpt lat="40.5273911" lon="16.6283622"><ele>55.0</ele><time>2026-04-12T13:20:17.44Z</time></trkpt><trkpt lat="40.5274877" lon="16.6285546"><ele>55.0</ele><time>2026-04-12T13:20:18.441Z</time></trkpt><trkpt lat="40.5275839" lon="16.6287464"><ele>54.0</ele><time>2026-04-12T13:20:19.439Z</time></trkpt><trkpt lat="40.5276786" lon="16.628942"><ele>53.0</ele><time>2026-04-12T13:20:20.44Z</time></trkpt><trkpt lat="40.5277751" lon="16.6291405"><ele>52.0</ele><time>2026-04-12T13:20:21.439Z</time></trkpt><trkpt lat="40.527872" lon="16.6293406"><ele>52.33333333333333</ele><time>2026-04-12T13:20:22.44Z</time></trkpt><trkpt lat="40.5279688" lon="16.6295407"><ele>52.66666666666667</ele><time>2026-04-12T13:20:23.439Z</time></trkpt><trkpt lat="40.5280654" lon="16.6297419"><ele>53.0</ele><time>2026-04-12T13:20:24.44Z</time></trkpt><trkpt lat="40.5281636" lon="16.6299453"><ele>53.0</ele><time>2026-04-12T13:20:25.439Z</time></trkpt><trkpt lat="40.5282635" lon="16.6301507"><ele>53.0</ele><time>2026-04-12T13:20:26.44Z</time></trkpt><trkpt lat="40.5283609" lon="16.6303562"><ele>53.0</ele><time>2026-04-12T13:20:27.438Z</time></trkpt><trkpt lat="40.5284572" lon="16.6305587"><ele>53.333333333333336</ele><time>2026-04-12T13:20:28.438Z</time></trkpt><trkpt lat="40.5285522" lon="16.6307589"><ele>53.66666666666667</ele><time>2026-04-12T13:20:29.439Z</time></trkpt><trkpt lat="40.5286459" lon="16.6309585"><ele>54.0</ele><time>2026-04-12T13:20:30.443Z</time></trkpt><trkpt lat="40.528739" lon="16.6311532"><ele>54.0</ele><time>2026-04-12T13:20:31.439Z</time></trkpt><trkpt lat="40.5288349" lon="16.6313483"><ele>54.0</ele><time>2026-04-12T13:20:32.441Z</time></trkpt><trkpt lat="40.5289305" lon="16.6315437"><ele>54.0</ele><time>2026-04-12T13:20:33.44Z</time></trkpt><trkpt lat="40.5290257" lon="16.6317413"><ele>54.0</ele><time>2026-04-12T13:20:34.439Z</time></trkpt><trkpt lat="40.5291208" lon="16.6319371"><ele>54.0</ele><time>2026-04-12T13:20:35.44Z</time></trkpt><trkpt lat="40.5292158" lon="16.6321335"><ele>54.0</ele><time>2026-04-12T13:20:36.439Z</time></trkpt><trkpt lat="40.5293121" lon="16.6323315"><ele>53.66666666666667</ele><time>2026-04-12T13:20:37.44Z</time></trkpt><trkpt lat="40.5294075" lon="16.6325273"><ele>53.333333333333336</ele><time>2026-04-12T13:20:38.442Z</time></trkpt><trkpt lat="40.5295024" lon="16.632725"><ele>53.0</ele><time>2026-04-12T13:20:39.439Z</time></trkpt><trkpt lat="40.529597" lon="16.6329247"><ele>52.66666666666667</ele><time>2026-04-12T13:20:40.439Z</time></trkpt><trkpt lat="40.529692" lon="16.6331264"><ele>52.33333333333333</ele><time>2026-04-12T13:20:41.439Z</time></trkpt><trkpt lat="40.5297897" lon="16.6333313"><ele>52.0</ele><time>2026-04-12T13:20:42.44Z</time></trkpt><trkpt lat="40.5298882" lon="16.6335352"><ele>52.33333333333333</ele><time>2026-04-12T13:20:43.438Z</time></trkpt><trkpt lat="40.5299898" lon="16.63374"><ele>52.66666666666667</ele><time>2026-04-12T13:20:44.439Z</time></trkpt><trkpt lat="40.5300933" lon="16.6339466"><ele>53.0</ele><time>2026-04-12T13:20:45.44Z</time></trkpt><trkpt lat="40.5301979" lon="16.6341562"><ele>53.0</ele><time>2026-04-12T13:20:46.439Z</time></trkpt><trkpt lat="40.5303018" lon="16.6343694"><ele>53.0</ele><time>2026-04-12T13:20:47.443Z</time></trkpt><trkpt lat="40.5304021" lon="16.6345838"><ele>53.0</ele><time>2026-04-12T13:20:48.438Z</time></trkpt><trkpt lat="40.5305017" lon="16.6347978"><ele>51.0</ele><time>2026-04-12T13:20:49.438Z</time></trkpt><trkpt lat="40.5306031" lon="16.6350139"><ele>49.0</ele><time>2026-04-12T13:20:50.44Z</time></trkpt><trkpt lat="40.5307092" lon="16.6352265"><ele>47.0</ele><time>2026-04-12T13:20:51.439Z</time></trkpt><trkpt lat="40.5308177" lon="16.6354398"><ele>46.666666666666664</ele><time>2026-04-12T13:20:52.439Z</time></trkpt><trkpt lat="40.5309254" lon="16.6356547"><ele>46.333333333333336</ele><time>2026-04-12T13:20:53.439Z</time></trkpt><trkpt lat="40.5310308" lon="16.635868"><ele>46.0</ele><time>2026-04-12T13:20:54.44Z</time></trkpt><trkpt lat="40.5311312" lon="16.6360784"><ele>47.66666666666667</ele><time>2026-04-12T13:20:55.44Z</time></trkpt><trkpt lat="40.5312297" lon="16.6362871"><ele>49.333333333333336</ele><time>2026-04-12T13:20:56.44Z</time></trkpt><trkpt lat="40.5313267" lon="16.6364953"><ele>51.0</ele><time>2026-04-12T13:20:57.44Z</time></trkpt><trkpt lat="40.5314188" lon="16.6367064"><ele>51.0</ele><time>2026-04-12T13:20:58.44Z</time></trkpt><trkpt lat="40.5315001" lon="16.6369229"><ele>51.0</ele><time>2026-04-12T13:20:59.442Z</time></trkpt><trkpt lat="40.531574" lon="16.6371473"><ele>51.0</ele><time>2026-04-12T13:21:00.44Z</time></trkpt><trkpt lat="40.531641" lon="16.6373766"><ele>51.33333333333333</ele><time>2026-04-12T13:21:01.439Z</time></trkpt><trkpt lat="40.5317101" lon="16.6376032"><ele>51.666666666666664</ele><time>2026-04-12T13:21:02.44Z</time></trkpt><trkpt lat="40.5317798" lon="16.6378298"><ele>52.0</ele><time>2026-04-12T13:21:03.44Z</time></trkpt><trkpt lat="40.5318498" lon="16.6380567"><ele>53.0</ele><time>2026-04-12T13:21:04.439Z</time></trkpt><trkpt lat="40.5319171" lon="16.6382803"><ele>54.0</ele><time>2026-04-12T13:21:05.44Z</time></trkpt><trkpt lat="40.5319834" lon="16.638505"><ele>55.0</ele><time>2026-04-12T13:21:06.44Z</time></trkpt><trkpt lat="40.5320504" lon="16.6387284"><ele>55.33333333333333</ele><time>2026-04-12T13:21:07.439Z</time></trkpt><trkpt lat="40.5321176" lon="16.6389506"><ele>55.66666666666667</ele><time>2026-04-12T13:21:08.44Z</time></trkpt><trkpt lat="40.5321885" lon="16.6391718"><ele>56.0</ele><time>2026-04-12T13:21:09.439Z</time></trkpt><trkpt lat="40.5322599" lon="16.6393916"><ele>56.0</ele><time>2026-04-12T13:21:10.44Z</time></trkpt><trkpt lat="40.5323347" lon="16.6396116"><ele>56.0</ele><time>2026-04-12T13:21:11.44Z</time></trkpt><trkpt lat="40.5324072" lon="16.6398357"><ele>56.0</ele><time>2026-04-12T13:21:12.439Z</time></trkpt><trkpt lat="40.5324782" lon="16.6400656"><ele>56.0</ele><time>2026-04-12T13:21:13.439Z</time></trkpt><trkpt lat="40.5325484" lon="16.6402934"><ele>56.0</ele><time>2026-04-12T13:21:14.44Z</time></trkpt><trkpt lat="40.5326168" lon="16.6405184"><ele>56.0</ele><time>2026-04-12T13:21:15.44Z</time></trkpt><trkpt lat="40.5326817" lon="16.6407404"><ele>56.333333333333336</ele><time>2026-04-12T13:21:16.439Z</time></trkpt><trkpt lat="40.5327451" lon="16.6409579"><ele>56.66666666666667</ele><time>2026-04-12T13:21:17.441Z</time></trkpt><trkpt lat="40.5328075" lon="16.6411697"><ele>57.0</ele><time>2026-04-12T13:21:18.44Z</time></trkpt><trkpt lat="40.5328699" lon="16.6413695"><ele>57.75</ele><time>2026-04-12T13:21:19.439Z</time></trkpt><trkpt lat="40.5329271" lon="16.6415536"><ele>58.5</ele><time>2026-04-12T13:21:20.441Z</time></trkpt><trkpt lat="40.53298" lon="16.6417218"><ele>59.25</ele><time>2026-04-12T13:21:21.44Z</time></trkpt><trkpt lat="40.5330273" lon="16.6418743"><ele>60.0</ele><time>2026-04-12T13:21:22.439Z</time></trkpt><trkpt lat="40.5330699" lon="16.6420066"><ele>60.0</ele><time>2026-04-12T13:21:23.439Z</time></trkpt><trkpt lat="40.533112" lon="16.6421129"><ele>60.0</ele><time>2026-04-12T13:21:24.44Z</time></trkpt><trkpt lat="40.5331618" lon="16.6421921"><ele>60.0</ele><time>2026-04-12T13:21:25.439Z</time></trkpt><trkpt lat="40.5332243" lon="16.64222"><ele>60.0</ele><time>2026-04-12T13:21:26.44Z</time></trkpt><trkpt lat="40.5332935" lon="16.6422011"><ele>60.0</ele><time>2026-04-12T13:21:27.439Z</time></trkpt><trkpt lat="40.5333647" lon="16.6421436"><ele>60.0</ele><time>2026-04-12T13:21:28.438Z</time></trkpt><trkpt lat="40.5334412" lon="16.6420408"><ele>60.0</ele><time>2026-04-12T13:21:29.438Z</time></trkpt><trkpt lat="40.5335283" lon="16.6419203"><ele>60.0</ele><time>2026-04-12T13:21:30.439Z</time></trkpt><trkpt lat="40.5336323" lon="16.6417902"><ele>60.0</ele><time>2026-04-12T13:21:31.439Z</time></trkpt><trkpt lat="40.5337433" lon="16.6416663"><ele>60.0</ele><time>2026-04-12T13:21:32.44Z</time></trkpt><trkpt lat="40.5338552" lon="16.6415465"><ele>59.66666666666667</ele><time>2026-04-12T13:21:33.44Z</time></trkpt><trkpt lat="40.53397" lon="16.6414183"><ele>59.333333333333336</ele><time>2026-04-12T13:21:34.44Z</time></trkpt><trkpt lat="40.5340883" lon="16.6412933"><ele>59.0</ele><time>2026-04-12T13:21:35.441Z</time></trkpt><trkpt lat="40.5342117" lon="16.6411583"><ele>59.0</ele><time>2026-04-12T13:21:36.439Z</time></trkpt><trkpt lat="40.534335" lon="16.6410233"><ele>59.0</ele><time>2026-04-12T13:21:37.439Z</time></trkpt><trkpt lat="40.5344583" lon="16.6408833"><ele>59.0</ele><time>2026-04-12T13:21:38.44Z</time></trkpt><trkpt lat="40.5345817" lon="16.64074"><ele>59.66666666666667</ele><time>2026-04-12T13:21:39.439Z</time></trkpt><trkpt lat="40.5347033" lon="16.6405983"><ele>60.33333333333333</ele><time>2026-04-12T13:21:40.441Z</time></trkpt><trkpt lat="40.5348267" lon="16.64046"><ele>61.0</ele><time>2026-04-12T13:21:41.439Z</time></trkpt><trkpt lat="40.53495" lon="16.6403183"><ele>59.33333333333333</ele><time>2026-04-12T13:21:42.439Z</time></trkpt><trkpt lat="40.535075" lon="16.6401767"><ele>57.66666666666667</ele><time>2026-04-12T13:21:43.44Z</time></trkpt><trkpt lat="40.535205" lon="16.640035"><ele>56.0</ele><time>2026-04-12T13:21:44.44Z</time></trkpt><trkpt lat="40.535335" lon="16.639895"><ele>57.333333333333336</ele><time>2026-04-12T13:21:45.44Z</time></trkpt><trkpt lat="40.5354683" lon="16.6397517"><ele>58.66666666666667</ele><time>2026-04-12T13:21:46.439Z</time></trkpt><trkpt lat="40.5356017" lon="16.6396"><ele>60.0</ele><time>2026-04-12T13:21:47.438Z</time></trkpt><trkpt lat="40.5357317" lon="16.6394467"><ele>60.0</ele><time>2026-04-12T13:21:48.439Z</time></trkpt><trkpt lat="40.5358617" lon="16.639295"><ele>60.0</ele><time>2026-04-12T13:21:49.44Z</time></trkpt><trkpt lat="40.535995" lon="16.639145"><ele>60.0</ele><time>2026-04-12T13:21:50.442Z</time></trkpt><trkpt lat="40.5361283" lon="16.6389967"><ele>60.0</ele><time>2026-04-12T13:21:51.439Z</time></trkpt><trkpt lat="40.5362633" lon="16.638845"><ele>60.0</ele><time>2026-04-12T13:21:52.442Z</time></trkpt><trkpt lat="40.5364" lon="16.63869"><ele>60.0</ele><time>2026-04-12T13:21:53.439Z</time></trkpt><trkpt lat="40.5365367" lon="16.6385333"><ele>60.0</ele><time>2026-04-12T13:21:54.439Z</time></trkpt><trkpt lat="40.5366733" lon="16.6383783"><ele>60.0</ele><time>2026-04-12T13:21:55.44Z</time></trkpt><trkpt lat="40.5368117" lon="16.6382233"><ele>60.0</ele><time>2026-04-12T13:21:56.44Z</time></trkpt><trkpt lat="40.5369533" lon="16.6380683"><ele>60.66666666666667</ele><time>2026-04-12T13:21:57.439Z</time></trkpt><trkpt lat="40.537095" lon="16.6379133"><ele>61.333333333333336</ele><time>2026-04-12T13:21:58.439Z</time></trkpt><trkpt lat="40.5372383" lon="16.6377567"><ele>62.0</ele><time>2026-04-12T13:21:59.439Z</time></trkpt><trkpt lat="40.5373817" lon="16.6375967"><ele>62.0</ele><time>2026-04-12T13:22:00.44Z</time></trkpt><trkpt lat="40.5375267" lon="16.6374333"><ele>62.0</ele><time>2026-04-12T13:22:01.44Z</time></trkpt><trkpt lat="40.537675" lon="16.6372667"><ele>62.0</ele><time>2026-04-12T13:22:02.439Z</time></trkpt><trkpt lat="40.5378233" lon="16.6371"><ele>62.333333333333336</ele><time>2026-04-12T13:22:03.44Z</time></trkpt><trkpt lat="40.5379733" lon="16.6369283"><ele>62.66666666666667</ele><time>2026-04-12T13:22:04.439Z</time></trkpt><trkpt lat="40.538125" lon="16.6367567"><ele>63.0</ele><time>2026-04-12T13:22:05.44Z</time></trkpt><trkpt lat="40.5382783" lon="16.636585"><ele>63.0</ele><time>2026-04-12T13:22:06.439Z</time></trkpt><trkpt lat="40.5384317" lon="16.6364133"><ele>63.0</ele><time>2026-04-12T13:22:07.44Z</time></trkpt><trkpt lat="40.538585" lon="16.6362417"><ele>63.0</ele><time>2026-04-12T13:22:08.439Z</time></trkpt><trkpt lat="40.53874" lon="16.63607"><ele>62.0</ele><time>2026-04-12T13:22:09.439Z</time></trkpt><trkpt lat="40.538895" lon="16.635895"><ele>61.0</ele><time>2026-04-12T13:22:10.439Z</time></trkpt><trkpt lat="40.5390467" lon="16.6357217"><ele>60.0</ele><time>2026-04-12T13:22:11.439Z</time></trkpt><trkpt lat="40.5391933" lon="16.63555"><ele>60.0</ele><time>2026-04-12T13:22:12.439Z</time></trkpt><trkpt lat="40.5393283" lon="16.6353733"><ele>60.0</ele><time>2026-04-12T13:22:13.439Z</time></trkpt><trkpt lat="40.5394467" lon="16.63518"><ele>60.0</ele><time>2026-04-12T13:22:14.44Z</time></trkpt><trkpt lat="40.5395483" lon="16.6349683"><ele>60.66666666666667</ele><time>2026-04-12T13:22:15.44Z</time></trkpt><trkpt lat="40.539635" lon="16.63474"><ele>61.333333333333336</ele><time>2026-04-12T13:22:16.439Z</time></trkpt><trkpt lat="40.5397133" lon="16.6345067"><ele>62.0</ele><time>2026-04-12T13:22:17.439Z</time></trkpt><trkpt lat="40.5397917" lon="16.634275"><ele>62.0</ele><time>2026-04-12T13:22:18.44Z</time></trkpt><trkpt lat="40.5398683" lon="16.6340467"><ele>62.0</ele><time>2026-04-12T13:22:19.439Z</time></trkpt><trkpt lat="40.53995" lon="16.63383"><ele>62.0</ele><time>2026-04-12T13:22:20.44Z</time></trkpt><trkpt lat="40.5400483" lon="16.6336367"><ele>62.0</ele><time>2026-04-12T13:22:21.439Z</time></trkpt><trkpt lat="40.5401717" lon="16.6334633"><ele>62.0</ele><time>2026-04-12T13:22:22.44Z</time></trkpt><trkpt lat="40.5403167" lon="16.6333167"><ele>62.0</ele><time>2026-04-12T13:22:23.44Z</time></trkpt><trkpt lat="40.5404833" lon="16.633205"><ele>62.0</ele><time>2026-04-12T13:22:24.44Z</time></trkpt><trkpt lat="40.5406667" lon="16.6331217"><ele>62.0</ele><time>2026-04-12T13:22:25.44Z</time></trkpt><trkpt lat="40.5408533" lon="16.633055"><ele>62.0</ele><time>2026-04-12T13:22:26.441Z</time></trkpt><trkpt lat="40.5410383" lon="16.63299"><ele>61.66666666666667</ele><time>2026-04-12T13:22:27.439Z</time></trkpt><trkpt lat="40.5412217" lon="16.632925"><ele>61.33333333333333</ele><time>2026-04-12T13:22:28.439Z</time></trkpt><trkpt lat="40.541405" lon="16.6328633"><ele>61.0</ele><time>2026-04-12T13:22:29.439Z</time></trkpt><trkpt lat="40.54159" lon="16.6328017"><ele>60.33333333333333</ele><time>2026-04-12T13:22:30.442Z</time></trkpt><trkpt lat="40.54177" lon="16.63274"><ele>59.66666666666667</ele><time>2026-04-12T13:22:31.439Z</time></trkpt><trkpt lat="40.54195" lon="16.63268"><ele>59.0</ele><time>2026-04-12T13:22:32.44Z</time></trkpt><trkpt lat="40.5421267" lon="16.63262"><ele>59.0</ele><time>2026-04-12T13:22:33.441Z</time></trkpt><trkpt lat="40.542305" lon="16.6325567"><ele>59.0</ele><time>2026-04-12T13:22:34.44Z</time></trkpt><trkpt lat="40.5424833" lon="16.63249"><ele>59.0</ele><time>2026-04-12T13:22:35.44Z</time></trkpt><trkpt lat="40.5426633" lon="16.63242"><ele>59.0</ele><time>2026-04-12T13:22:36.44Z</time></trkpt><trkpt lat="40.5428433" lon="16.6323533"><ele>59.0</ele><time>2026-04-12T13:22:37.44Z</time></trkpt><trkpt lat="40.543025" lon="16.6322867"><ele>59.0</ele><time>2026-04-12T13:22:38.44Z</time></trkpt><trkpt lat="40.5432083" lon="16.6322217"><ele>59.0</ele><time>2026-04-12T13:22:39.439Z</time></trkpt><trkpt lat="40.5433883" lon="16.63216"><ele>59.0</ele><time>2026-04-12T13:22:40.44Z</time></trkpt><trkpt lat="40.5435567" lon="16.6321017"><ele>59.0</ele><time>2026-04-12T13:22:41.44Z</time></trkpt><trkpt lat="40.5437067" lon="16.6320483"><ele>58.800000000000004</ele><time>2026-04-12T13:22:42.441Z</time></trkpt><trkpt lat="40.5438383" lon="16.6320017"><ele>58.60000000000001</ele><time>2026-04-12T13:22:43.441Z</time></trkpt><trkpt lat="40.5439567" lon="16.63196"><ele>58.4</ele><time>2026-04-12T13:22:44.44Z</time></trkpt><trkpt lat="40.5440517" lon="16.6319217"><ele>58.2</ele><time>2026-04-12T13:22:45.439Z</time></trkpt><trkpt lat="40.54412" lon="16.6318867"><ele>58.0</ele><time>2026-04-12T13:22:46.439Z</time></trkpt><trkpt lat="40.5441567" lon="16.631775"><ele>58.0</ele><time>2026-04-12T13:22:48.438Z</time></trkpt><trkpt lat="40.5441117" lon="16.6316383"><ele>58.0</ele><time>2026-04-12T13:22:50.44Z</time></trkpt><trkpt lat="40.54408" lon="16.6315517"><ele>58.0</ele><time>2026-04-12T13:22:51.441Z</time></trkpt><trkpt lat="40.5440483" lon="16.63144"><ele>58.0</ele><time>2026-04-12T13:22:52.443Z</time></trkpt><trkpt lat="40.5440283" lon="16.631315"><ele>58.0</ele><time>2026-04-12T13:22:53.439Z</time></trkpt><trkpt lat="40.5440033" lon="16.631195"><ele>57.49999999999999</ele><time>2026-04-12T13:22:54.443Z</time></trkpt><trkpt lat="40.5439633" lon="16.63109"><ele>57.0</ele><time>2026-04-12T13:22:55.44Z</time></trkpt><trkpt lat="40.543915" lon="16.6309933"><ele>56.5</ele><time>2026-04-12T13:22:56.44Z</time></trkpt><trkpt lat="40.5438733" lon="16.6308983"><ele>56.0</ele><time>2026-04-12T13:22:57.44Z</time></trkpt><trkpt lat="40.5438367" lon="16.6307967"><ele>55.49999999999999</ele><time>2026-04-12T13:22:58.439Z</time></trkpt><trkpt lat="40.5438033" lon="16.6306917"><ele>55.0</ele><time>2026-04-12T13:22:59.439Z</time></trkpt><trkpt lat="40.543775" lon="16.630585"><ele>55.0</ele><time>2026-04-12T13:23:00.439Z</time></trkpt><trkpt lat="40.54376" lon="16.6304767"><ele>55.0</ele><time>2026-04-12T13:23:01.44Z</time></trkpt><trkpt lat="40.543755" lon="16.63036"><ele>55.0</ele><time>2026-04-12T13:23:02.44Z</time></trkpt><trkpt lat="40.54376" lon="16.63022"><ele>55.0</ele><time>2026-04-12T13:23:03.439Z</time></trkpt><trkpt lat="40.5437717" lon="16.6300667"><ele>55.0</ele><time>2026-04-12T13:23:04.44Z</time></trkpt><trkpt lat="40.5437817" lon="16.62991"><ele>55.0</ele><time>2026-04-12T13:23:05.439Z</time></trkpt><trkpt lat="40.5437867" lon="16.6297517"><ele>55.0</ele><time>2026-04-12T13:23:06.439Z</time></trkpt><trkpt lat="40.5437917" lon="16.6295867"><ele>55.0</ele><time>2026-04-12T13:23:07.439Z</time></trkpt><trkpt lat="40.543795" lon="16.6294217"><ele>55.0</ele><time>2026-04-12T13:23:08.439Z</time></trkpt><trkpt lat="40.5437883" lon="16.629255"><ele>55.0</ele><time>2026-04-12T13:23:09.439Z</time></trkpt><trkpt lat="40.5437733" lon="16.629085"><ele>55.0</ele><time>2026-04-12T13:23:10.439Z</time></trkpt><trkpt lat="40.543755" lon="16.62891"><ele>55.0</ele><time>2026-04-12T13:23:11.441Z</time></trkpt><trkpt lat="40.5437333" lon="16.628735"><ele>55.0</ele><time>2026-04-12T13:23:12.441Z</time></trkpt><trkpt lat="40.5437133" lon="16.6285633"><ele>55.5</ele><time>2026-04-12T13:23:13.44Z</time></trkpt><trkpt lat="40.5436917" lon="16.6283933"><ele>56.0</ele><time>2026-04-12T13:23:14.444Z</time></trkpt><trkpt lat="40.543675" lon="16.6282233"><ele>56.5</ele><time>2026-04-12T13:23:15.44Z</time></trkpt><trkpt lat="40.5436583" lon="16.6280533"><ele>57.0</ele><time>2026-04-12T13:23:16.439Z</time></trkpt><trkpt lat="40.5436417" lon="16.627885"><ele>56.5</ele><time>2026-04-12T13:23:17.439Z</time></trkpt><trkpt lat="40.5436267" lon="16.6277167"><ele>56.0</ele><time>2026-04-12T13:23:18.44Z</time></trkpt><trkpt lat="40.5436117" lon="16.6275483"><ele>55.5</ele><time>2026-04-12T13:23:19.439Z</time></trkpt><trkpt lat="40.5435967" lon="16.62738"><ele>55.0</ele><time>2026-04-12T13:23:20.441Z</time></trkpt><trkpt lat="40.5435783" lon="16.627215"><ele>55.0</ele><time>2026-04-12T13:23:21.44Z</time></trkpt><trkpt lat="40.5435617" lon="16.6270533"><ele>55.0</ele><time>2026-04-12T13:23:22.44Z</time></trkpt><trkpt lat="40.5435483" lon="16.6268967"><ele>55.0</ele><time>2026-04-12T13:23:23.44Z</time></trkpt><trkpt lat="40.5435367" lon="16.6267433"><ele>55.0</ele><time>2026-04-12T13:23:24.439Z</time></trkpt><trkpt lat="40.54352" lon="16.6265917"><ele>55.0</ele><time>2026-04-12T13:23:25.44Z</time></trkpt><trkpt lat="40.5435033" lon="16.6264383"><ele>55.0</ele><time>2026-04-12T13:23:26.439Z</time></trkpt><trkpt lat="40.5434883" lon="16.6262833"><ele>55.0</ele><time>2026-04-12T13:23:27.438Z</time></trkpt><trkpt lat="40.5434767" lon="16.62613"><ele>55.0</ele><time>2026-04-12T13:23:28.438Z</time></trkpt><trkpt lat="40.543465" lon="16.6259767"><ele>54.2</ele><time>2026-04-12T13:23:29.438Z</time></trkpt><trkpt lat="40.5434517" lon="16.6258283"><ele>53.4</ele><time>2026-04-12T13:23:30.439Z</time></trkpt><trkpt lat="40.5434433" lon="16.6256917"><ele>52.599999999999994</ele><time>2026-04-12T13:23:31.438Z</time></trkpt><trkpt lat="40.5434417" lon="16.6255567"><ele>51.8</ele><time>2026-04-12T13:23:32.44Z</time></trkpt><trkpt lat="40.5434483" lon="16.625425"><ele>51.0</ele><time>2026-04-12T13:23:33.439Z</time></trkpt><trkpt lat="40.54346" lon="16.6252933"><ele>49.599999999999994</ele><time>2026-04-12T13:23:34.438Z</time></trkpt><trkpt lat="40.54348" lon="16.6251617"><ele>48.2</ele><time>2026-04-12T13:23:35.439Z</time></trkpt><trkpt lat="40.5435017" lon="16.625035"><ele>46.8</ele><time>2026-04-12T13:23:36.438Z</time></trkpt><trkpt lat="40.54352" lon="16.624905"><ele>45.400000000000006</ele><time>2026-04-12T13:23:37.439Z</time></trkpt><trkpt lat="40.5435383" lon="16.6247717"><ele>44.0</ele><time>2026-04-12T13:23:38.439Z</time></trkpt><trkpt lat="40.5435567" lon="16.6246417"><ele>44.0</ele><time>2026-04-12T13:23:39.438Z</time></trkpt><trkpt lat="40.5435783" lon="16.6245117"><ele>44.0</ele><time>2026-04-12T13:23:40.439Z</time></trkpt><trkpt lat="40.543595" lon="16.6243833"><ele>44.0</ele><time>2026-04-12T13:23:41.443Z</time></trkpt><trkpt lat="40.543615" lon="16.6242567"><ele>44.0</ele><time>2026-04-12T13:23:42.439Z</time></trkpt><trkpt lat="40.543635" lon="16.62413"><ele>44.0</ele><time>2026-04-12T13:23:43.438Z</time></trkpt><trkpt lat="40.5436533" lon="16.6240067"><ele>43.5</ele><time>2026-04-12T13:23:44.439Z</time></trkpt><trkpt lat="40.54367" lon="16.6238933"><ele>43.0</ele><time>2026-04-12T13:23:45.439Z</time></trkpt><trkpt lat="40.543685" lon="16.6237917"><ele>42.5</ele><time>2026-04-12T13:23:46.438Z</time></trkpt><trkpt lat="40.5436983" lon="16.6237033"><ele>42.0</ele><time>2026-04-12T13:23:47.438Z</time></trkpt><trkpt lat="40.543705" lon="16.6235417"><ele>41.5</ele><time>2026-04-12T13:23:49.438Z</time></trkpt><trkpt lat="40.5437183" lon="16.6234517"><ele>41.0</ele><time>2026-04-12T13:23:50.439Z</time></trkpt><trkpt lat="40.5437367" lon="16.62335"><ele>40.83333333333333</ele><time>2026-04-12T13:23:51.438Z</time></trkpt><trkpt lat="40.5437517" lon="16.6232383"><ele>40.666666666666664</ele><time>2026-04-12T13:23:52.439Z</time></trkpt><trkpt lat="40.54377" lon="16.62312"><ele>40.5</ele><time>2026-04-12T13:23:53.439Z</time></trkpt><trkpt lat="40.5437933" lon="16.6230083"><ele>40.333333333333336</ele><time>2026-04-12T13:23:54.438Z</time></trkpt><trkpt lat="40.5438133" lon="16.622905"><ele>40.16666666666667</ele><time>2026-04-12T13:23:55.438Z</time></trkpt><trkpt lat="40.5438317" lon="16.6228"><ele>40.0</ele><time>2026-04-12T13:23:56.439Z</time></trkpt><trkpt lat="40.5438483" lon="16.622695"><ele>40.66666666666667</ele><time>2026-04-12T13:23:57.438Z</time></trkpt><trkpt lat="40.543865" lon="16.622585"><ele>41.333333333333336</ele><time>2026-04-12T13:23:58.439Z</time></trkpt><trkpt lat="40.5438817" lon="16.6224733"><ele>42.0</ele><time>2026-04-12T13:23:59.438Z</time></trkpt><trkpt lat="40.5438967" lon="16.622365"><ele>42.666666666666664</ele><time>2026-04-12T13:24:00.438Z</time></trkpt><trkpt lat="40.5439133" lon="16.6222633"><ele>43.33333333333333</ele><time>2026-04-12T13:24:01.439Z</time></trkpt><trkpt lat="40.5439267" lon="16.62216"><ele>44.0</ele><time>2026-04-12T13:24:02.44Z</time></trkpt><trkpt lat="40.5439367" lon="16.6220533"><ele>45.33333333333333</ele><time>2026-04-12T13:24:03.439Z</time></trkpt><trkpt lat="40.5439417" lon="16.6219517"><ele>46.666666666666664</ele><time>2026-04-12T13:24:04.439Z</time></trkpt><trkpt lat="40.5439367" lon="16.6218533"><ele>48.0</ele><time>2026-04-12T13:24:05.439Z</time></trkpt><trkpt lat="40.54392" lon="16.621755"><ele>49.33333333333333</ele><time>2026-04-12T13:24:06.438Z</time></trkpt><trkpt lat="40.5438883" lon="16.621655"><ele>50.666666666666664</ele><time>2026-04-12T13:24:07.439Z</time></trkpt><trkpt lat="40.5438517" lon="16.6215417"><ele>52.0</ele><time>2026-04-12T13:24:08.439Z</time></trkpt><trkpt lat="40.5438083" lon="16.6214267"><ele>52.0</ele><time>2026-04-12T13:24:09.438Z</time></trkpt><trkpt lat="40.5437717" lon="16.6213233"><ele>52.0</ele><time>2026-04-12T13:24:10.438Z</time></trkpt><trkpt lat="40.5437383" lon="16.621235"><ele>52.0</ele><time>2026-04-12T13:24:11.439Z</time></trkpt><trkpt lat="40.5437" lon="16.6210917"><ele>52.0</ele><time>2026-04-12T13:24:13.44Z</time></trkpt><trkpt lat="40.5437133" lon="16.62092"><ele>52.0</ele><time>2026-04-12T13:24:15.439Z</time></trkpt><trkpt lat="40.5437567" lon="16.62079"><ele>53.0</ele><time>2026-04-12T13:24:16.437Z</time></trkpt><trkpt lat="40.5437983" lon="16.6206417"><ele>54.0</ele><time>2026-04-12T13:24:17.438Z</time></trkpt><trkpt lat="40.5438333" lon="16.6204867"><ele>55.0</ele><time>2026-04-12T13:24:18.439Z</time></trkpt><trkpt lat="40.5438667" lon="16.6203183"><ele>56.0</ele><time>2026-04-12T13:24:19.439Z</time></trkpt><trkpt lat="40.5439017" lon="16.62014"><ele>56.0</ele><time>2026-04-12T13:24:20.439Z</time></trkpt><trkpt lat="40.5439383" lon="16.6199633"><ele>56.0</ele><time>2026-04-12T13:24:21.438Z</time></trkpt><trkpt lat="40.543975" lon="16.6197867"><ele>56.0</ele><time>2026-04-12T13:24:22.438Z</time></trkpt><trkpt lat="40.5440133" lon="16.6196033"><ele>56.0</ele><time>2026-04-12T13:24:23.438Z</time></trkpt><trkpt lat="40.5440517" lon="16.6194217"><ele>55.5</ele><time>2026-04-12T13:24:24.441Z</time></trkpt><trkpt lat="40.54409" lon="16.61924"><ele>55.0</ele><time>2026-04-12T13:24:25.439Z</time></trkpt><trkpt lat="40.5441267" lon="16.6190617"><ele>54.5</ele><time>2026-04-12T13:24:26.439Z</time></trkpt><trkpt lat="40.544165" lon="16.6188817"><ele>54.0</ele><time>2026-04-12T13:24:27.438Z</time></trkpt><trkpt lat="40.544205" lon="16.618705"><ele>54.5</ele><time>2026-04-12T13:24:28.438Z</time></trkpt><trkpt lat="40.5442417" lon="16.6185383"><ele>55.0</ele><time>2026-04-12T13:24:29.438Z</time></trkpt><trkpt lat="40.5442717" lon="16.618385"><ele>55.5</ele><time>2026-04-12T13:24:30.439Z</time></trkpt><trkpt lat="40.5443033" lon="16.618235"><ele>56.0</ele><time>2026-04-12T13:24:31.441Z</time></trkpt><trkpt lat="40.5443367" lon="16.6180833"><ele>56.0</ele><time>2026-04-12T13:24:32.44Z</time></trkpt><trkpt lat="40.5443617" lon="16.617935"><ele>56.0</ele><time>2026-04-12T13:24:33.439Z</time></trkpt><trkpt lat="40.54439" lon="16.61779"><ele>56.0</ele><time>2026-04-12T13:24:34.439Z</time></trkpt><trkpt lat="40.5444217" lon="16.6176467"><ele>56.0</ele><time>2026-04-12T13:24:35.438Z</time></trkpt><trkpt lat="40.5444533" lon="16.6175"><ele>56.25</ele><time>2026-04-12T13:24:36.438Z</time></trkpt><trkpt lat="40.5444883" lon="16.6173533"><ele>56.5</ele><time>2026-04-12T13:24:37.439Z</time></trkpt><trkpt lat="40.54452" lon="16.6172"><ele>56.75</ele><time>2026-04-12T13:24:38.439Z</time></trkpt><trkpt lat="40.5445533" lon="16.6170467"><ele>57.0</ele><time>2026-04-12T13:24:39.439Z</time></trkpt><trkpt lat="40.5445883" lon="16.6168883"><ele>55.75</ele><time>2026-04-12T13:24:40.439Z</time></trkpt><trkpt lat="40.5446217" lon="16.61673"><ele>54.5</ele><time>2026-04-12T13:24:41.44Z</time></trkpt><trkpt lat="40.544655" lon="16.616575"><ele>53.25</ele><time>2026-04-12T13:24:42.439Z</time></trkpt><trkpt lat="40.54469" lon="16.6164167"><ele>52.0</ele><time>2026-04-12T13:24:43.438Z</time></trkpt><trkpt lat="40.544725" lon="16.61626"><ele>53.0</ele><time>2026-04-12T13:24:44.439Z</time></trkpt><trkpt lat="40.54476" lon="16.6160983"><ele>54.0</ele><time>2026-04-12T13:24:45.438Z</time></trkpt><trkpt lat="40.5447967" lon="16.6159367"><ele>55.0</ele><time>2026-04-12T13:24:46.439Z</time></trkpt><trkpt lat="40.5448317" lon="16.6157767"><ele>56.0</ele><time>2026-04-12T13:24:47.438Z</time></trkpt><trkpt lat="40.5448667" lon="16.6156217"><ele>56.0</ele><time>2026-04-12T13:24:48.438Z</time></trkpt><trkpt lat="40.5449017" lon="16.61547"><ele>56.0</ele><time>2026-04-12T13:24:49.439Z</time></trkpt><trkpt lat="40.544935" lon="16.6153183"><ele>56.0</ele><time>2026-04-12T13:24:50.439Z</time></trkpt><trkpt lat="40.5449667" lon="16.61516"><ele>56.0</ele><time>2026-04-12T13:24:51.438Z</time></trkpt><trkpt lat="40.545" lon="16.615"><ele>56.25</ele><time>2026-04-12T13:24:52.44Z</time></trkpt><trkpt lat="40.5450383" lon="16.6148417"><ele>56.5</ele><time>2026-04-12T13:24:53.438Z</time></trkpt><trkpt lat="40.545075" lon="16.6146817"><ele>56.75</ele><time>2026-04-12T13:24:54.438Z</time></trkpt><trkpt lat="40.54511" lon="16.6145183"><ele>57.0</ele><time>2026-04-12T13:24:55.438Z</time></trkpt><trkpt lat="40.5451433" lon="16.61435"><ele>57.0</ele><time>2026-04-12T13:24:56.439Z</time></trkpt><trkpt lat="40.545175" lon="16.6141867"><ele>57.0</ele><time>2026-04-12T13:24:57.438Z</time></trkpt><trkpt lat="40.545205" lon="16.6140283"><ele>57.0</ele><time>2026-04-12T13:24:58.438Z</time></trkpt><trkpt lat="40.5452383" lon="16.6138717"><ele>57.0</ele><time>2026-04-12T13:24:59.439Z</time></trkpt><trkpt lat="40.545265" lon="16.613725"><ele>57.2</ele><time>2026-04-12T13:25:00.438Z</time></trkpt><trkpt lat="40.5452917" lon="16.6135817"><ele>57.400000000000006</ele><time>2026-04-12T13:25:01.439Z</time></trkpt><trkpt lat="40.5453167" lon="16.6134483"><ele>57.599999999999994</ele><time>2026-04-12T13:25:02.439Z</time></trkpt><trkpt lat="40.5453417" lon="16.6133217"><ele>57.8</ele><time>2026-04-12T13:25:03.438Z</time></trkpt><trkpt lat="40.5453683" lon="16.6132067"><ele>58.0</ele><time>2026-04-12T13:25:04.439Z</time></trkpt><trkpt lat="40.54539" lon="16.6131083"><ele>58.0</ele><time>2026-04-12T13:25:05.44Z</time></trkpt><trkpt lat="40.5454117" lon="16.6130133"><ele>58.0</ele><time>2026-04-12T13:25:06.439Z</time></trkpt><trkpt lat="40.5454283" lon="16.6129283"><ele>58.0</ele><time>2026-04-12T13:25:07.439Z</time></trkpt><trkpt lat="40.545465" lon="16.6127783"><ele>58.0</ele><time>2026-04-12T13:25:09.438Z</time></trkpt><trkpt lat="40.5454983" lon="16.6126433"><ele>58.0</ele><time>2026-04-12T13:25:11.439Z</time></trkpt><trkpt lat="40.5455167" lon="16.6125183"><ele>57.99999999999999</ele><time>2026-04-12T13:25:13.438Z</time></trkpt><trkpt lat="40.5455317" lon="16.61241"><ele>58.0</ele><time>2026-04-12T13:25:15.438Z</time></trkpt><trkpt lat="40.54555" lon="16.61233"><ele>58.0</ele><time>2026-04-12T13:25:17.439Z</time></trkpt><trkpt lat="40.5456" lon="16.6121983"><ele>58.0</ele><time>2026-04-12T13:26:21.439Z</time></trkpt><trkpt lat="40.5456217" lon="16.6120817"><ele>57.99999999999999</ele><time>2026-04-12T13:26:24.439Z</time></trkpt><trkpt lat="40.5455783" lon="16.612195"><ele>58.0</ele><time>2026-04-12T13:26:29.439Z</time></trkpt><trkpt lat="40.545545" lon="16.61236"><ele>58.0</ele><time>2026-04-12T13:26:31.44Z</time></trkpt><trkpt lat="40.5455233" lon="16.6124767"><ele>58.0</ele><time>2026-04-12T13:26:32.44Z</time></trkpt><trkpt lat="40.5455033" lon="16.6125933"><ele>58.0</ele><time>2026-04-12T13:26:33.44Z</time></trkpt><trkpt lat="40.5454833" lon="16.6127117"><ele>58.0</ele><time>2026-04-12T13:26:34.44Z</time></trkpt><trkpt lat="40.5454583" lon="16.6128283"><ele>58.0</ele><time>2026-04-12T13:26:35.44Z</time></trkpt><trkpt lat="40.5454333" lon="16.6129467"><ele>58.0</ele><time>2026-04-12T13:26:36.439Z</time></trkpt><trkpt lat="40.5454083" lon="16.613065"><ele>58.0</ele><time>2026-04-12T13:26:37.44Z</time></trkpt><trkpt lat="40.5453867" lon="16.6131817"><ele>58.0</ele><time>2026-04-12T13:26:38.439Z</time></trkpt><trkpt lat="40.5453617" lon="16.6132983"><ele>58.0</ele><time>2026-04-12T13:26:39.44Z</time></trkpt><trkpt lat="40.545335" lon="16.6134183"><ele>58.0</ele><time>2026-04-12T13:26:40.44Z</time></trkpt><trkpt lat="40.5453083" lon="16.6135367"><ele>58.0</ele><time>2026-04-12T13:26:41.44Z</time></trkpt><trkpt lat="40.5452833" lon="16.6136533"><ele>58.0</ele><time>2026-04-12T13:26:42.441Z</time></trkpt><trkpt lat="40.5452567" lon="16.6137733"><ele>58.0</ele><time>2026-04-12T13:26:43.44Z</time></trkpt><trkpt lat="40.5452333" lon="16.613895"><ele>58.0</ele><time>2026-04-12T13:26:44.441Z</time></trkpt><trkpt lat="40.54521" lon="16.614015"><ele>58.0</ele><time>2026-04-12T13:26:45.44Z</time></trkpt><trkpt lat="40.5451833" lon="16.6141317"><ele>57.8</ele><time>2026-04-12T13:26:46.44Z</time></trkpt><trkpt lat="40.5451583" lon="16.6142483"><ele>57.599999999999994</ele><time>2026-04-12T13:26:47.439Z</time></trkpt><trkpt lat="40.5451367" lon="16.6143683"><ele>57.400000000000006</ele><time>2026-04-12T13:26:48.439Z</time></trkpt><trkpt lat="40.5451133" lon="16.6144883"><ele>57.2</ele><time>2026-04-12T13:26:49.439Z</time></trkpt><trkpt lat="40.5450867" lon="16.6146067"><ele>57.0</ele><time>2026-04-12T13:26:50.44Z</time></trkpt><trkpt lat="40.54506" lon="16.6147267"><ele>57.0</ele><time>2026-04-12T13:26:51.44Z</time></trkpt><trkpt lat="40.545035" lon="16.61485"><ele>57.0</ele><time>2026-04-12T13:26:52.44Z</time></trkpt><trkpt lat="40.545005" lon="16.6149717"><ele>57.0</ele><time>2026-04-12T13:26:53.44Z</time></trkpt><trkpt lat="40.544975" lon="16.6151"><ele>57.0</ele><time>2026-04-12T13:26:54.44Z</time></trkpt><trkpt lat="40.5449467" lon="16.6152333"><ele>57.0</ele><time>2026-04-12T13:26:55.441Z</time></trkpt><trkpt lat="40.5449167" lon="16.6153717"><ele>56.75</ele><time>2026-04-12T13:26:56.44Z</time></trkpt><trkpt lat="40.544885" lon="16.6155133"><ele>56.5</ele><time>2026-04-12T13:26:57.44Z</time></trkpt><trkpt lat="40.5448533" lon="16.615655"><ele>56.25</ele><time>2026-04-12T13:26:58.442Z</time></trkpt><trkpt lat="40.5448233" lon="16.6157967"><ele>56.0</ele><time>2026-04-12T13:26:59.439Z</time></trkpt><trkpt lat="40.5447967" lon="16.6159433"><ele>56.0</ele><time>2026-04-12T13:27:00.453Z</time></trkpt><trkpt lat="40.5447667" lon="16.61609"><ele>56.0</ele><time>2026-04-12T13:27:01.441Z</time></trkpt><trkpt lat="40.5447367" lon="16.6162333"><ele>56.0</ele><time>2026-04-12T13:27:02.439Z</time></trkpt><trkpt lat="40.5447033" lon="16.6163717"><ele>56.0</ele><time>2026-04-12T13:27:03.44Z</time></trkpt><trkpt lat="40.5446667" lon="16.61653"><ele>56.25</ele><time>2026-04-12T13:27:04.439Z</time></trkpt><trkpt lat="40.5446333" lon="16.6166967"><ele>56.5</ele><time>2026-04-12T13:27:05.439Z</time></trkpt><trkpt lat="40.5445967" lon="16.6168667"><ele>56.75</ele><time>2026-04-12T13:27:06.439Z</time></trkpt><trkpt lat="40.5445633" lon="16.6170367"><ele>57.0</ele><time>2026-04-12T13:27:07.439Z</time></trkpt><trkpt lat="40.5445267" lon="16.6172017"><ele>57.0</ele><time>2026-04-12T13:27:08.439Z</time></trkpt><trkpt lat="40.5444933" lon="16.61736"><ele>57.0</ele><time>2026-04-12T13:27:09.44Z</time></trkpt><trkpt lat="40.54446" lon="16.6175133"><ele>57.0</ele><time>2026-04-12T13:27:10.439Z</time></trkpt><trkpt lat="40.544425" lon="16.61767"><ele>57.0</ele><time>2026-04-12T13:27:11.44Z</time></trkpt><trkpt lat="40.5443883" lon="16.61783"><ele>56.75</ele><time>2026-04-12T13:27:12.44Z</time></trkpt><trkpt lat="40.5443533" lon="16.6179933"><ele>56.5</ele><time>2026-04-12T13:27:13.439Z</time></trkpt><trkpt lat="40.544315" lon="16.6181583"><ele>56.25</ele><time>2026-04-12T13:27:14.455Z</time></trkpt><trkpt lat="40.5442783" lon="16.618325"><ele>56.0</ele><time>2026-04-12T13:27:15.44Z</time></trkpt><trkpt lat="40.54424" lon="16.6184933"><ele>55.5</ele><time>2026-04-12T13:27:16.44Z</time></trkpt><trkpt lat="40.5442017" lon="16.6186633"><ele>55.0</ele><time>2026-04-12T13:27:17.45Z</time></trkpt><trkpt lat="40.5441617" lon="16.6188367"><ele>54.5</ele><time>2026-04-12T13:27:18.449Z</time></trkpt><trkpt lat="40.544125" lon="16.6190067"><ele>54.0</ele><time>2026-04-12T13:27:19.45Z</time></trkpt><trkpt lat="40.5440883" lon="16.6191717"><ele>54.0</ele><time>2026-04-12T13:27:20.44Z</time></trkpt><trkpt lat="40.5440517" lon="16.6193367"><ele>54.0</ele><time>2026-04-12T13:27:21.439Z</time></trkpt><trkpt lat="40.5440167" lon="16.6195117"><ele>54.0</ele><time>2026-04-12T13:27:22.439Z</time></trkpt><trkpt lat="40.5439833" lon="16.6196717"><ele>54.0</ele><time>2026-04-12T13:27:23.439Z</time></trkpt><trkpt lat="40.5439517" lon="16.6198267"><ele>54.5</ele><time>2026-04-12T13:27:24.439Z</time></trkpt><trkpt lat="40.5439267" lon="16.6199717"><ele>55.0</ele><time>2026-04-12T13:27:25.439Z</time></trkpt><trkpt lat="40.5438983" lon="16.6201133"><ele>55.5</ele><time>2026-04-12T13:27:26.439Z</time></trkpt><trkpt lat="40.5438683" lon="16.62026"><ele>56.0</ele><time>2026-04-12T13:27:27.44Z</time></trkpt><trkpt lat="40.5438367" lon="16.6204133"><ele>56.0</ele><time>2026-04-12T13:27:28.438Z</time></trkpt><trkpt lat="40.543805" lon="16.620555"><ele>55.99999999999999</ele><time>2026-04-12T13:27:29.439Z</time></trkpt><trkpt lat="40.5437783" lon="16.6206833"><ele>55.99999999999999</ele><time>2026-04-12T13:27:30.44Z</time></trkpt><trkpt lat="40.5437533" lon="16.6207967"><ele>56.0</ele><time>2026-04-12T13:27:31.441Z</time></trkpt><trkpt lat="40.5437283" lon="16.6208983"><ele>56.0</ele><time>2026-04-12T13:27:32.441Z</time></trkpt><trkpt lat="40.54371" lon="16.6209933"><ele>56.0</ele><time>2026-04-12T13:27:33.44Z</time></trkpt><trkpt lat="40.5437083" lon="16.6210933"><ele>55.99999999999999</ele><time>2026-04-12T13:27:34.44Z</time></trkpt><trkpt lat="40.54373" lon="16.62121"><ele>55.99999999999999</ele><time>2026-04-12T13:27:35.441Z</time></trkpt><trkpt lat="40.5437733" lon="16.621345"><ele>56.0</ele><time>2026-04-12T13:27:36.44Z</time></trkpt><trkpt lat="40.5438217" lon="16.6214883"><ele>56.0</ele><time>2026-04-12T13:27:37.44Z</time></trkpt><trkpt lat="40.5438633" lon="16.6216267"><ele>55.333333333333336</ele><time>2026-04-12T13:27:38.441Z</time></trkpt><trkpt lat="40.5439" lon="16.621755"><ele>54.66666666666667</ele><time>2026-04-12T13:27:39.44Z</time></trkpt><trkpt lat="40.5439233" lon="16.62187"><ele>54.0</ele><time>2026-04-12T13:27:40.44Z</time></trkpt><trkpt lat="40.5439317" lon="16.6219783"><ele>53.33333333333333</ele><time>2026-04-12T13:27:41.44Z</time></trkpt><trkpt lat="40.543935" lon="16.6220833"><ele>52.666666666666664</ele><time>2026-04-12T13:27:42.44Z</time></trkpt><trkpt lat="40.543935" lon="16.622195"><ele>52.0</ele><time>2026-04-12T13:27:43.44Z</time></trkpt><trkpt lat="40.5439267" lon="16.6223117"><ele>50.400000000000006</ele><time>2026-04-12T13:27:44.44Z</time></trkpt><trkpt lat="40.5439083" lon="16.6224317"><ele>48.800000000000004</ele><time>2026-04-12T13:27:45.44Z</time></trkpt><trkpt lat="40.54389" lon="16.62255"><ele>47.2</ele><time>2026-04-12T13:27:46.44Z</time></trkpt><trkpt lat="40.5438733" lon="16.622665"><ele>45.6</ele><time>2026-04-12T13:27:47.44Z</time></trkpt><trkpt lat="40.5438533" lon="16.6227783"><ele>44.0</ele><time>2026-04-12T13:27:48.439Z</time></trkpt><trkpt lat="40.5438333" lon="16.622895"><ele>43.33333333333333</ele><time>2026-04-12T13:27:49.44Z</time></trkpt><trkpt lat="40.543815" lon="16.623015"><ele>42.666666666666664</ele><time>2026-04-12T13:27:50.439Z</time></trkpt><trkpt lat="40.5438" lon="16.6231367"><ele>42.0</ele><time>2026-04-12T13:27:51.44Z</time></trkpt><trkpt lat="40.5437867" lon="16.6232533"><ele>41.333333333333336</ele><time>2026-04-12T13:27:52.439Z</time></trkpt><trkpt lat="40.5437667" lon="16.623365"><ele>40.66666666666667</ele><time>2026-04-12T13:27:53.441Z</time></trkpt><trkpt lat="40.543745" lon="16.6234683"><ele>40.0</ele><time>2026-04-12T13:27:54.441Z</time></trkpt><trkpt lat="40.5437317" lon="16.623565"><ele>40.16666666666667</ele><time>2026-04-12T13:27:55.44Z</time></trkpt><trkpt lat="40.543725" lon="16.623665"><ele>40.333333333333336</ele><time>2026-04-12T13:27:56.44Z</time></trkpt><trkpt lat="40.5437133" lon="16.6237683"><ele>40.5</ele><time>2026-04-12T13:27:57.44Z</time></trkpt><trkpt lat="40.5436967" lon="16.623875"><ele>40.666666666666664</ele><time>2026-04-12T13:27:58.44Z</time></trkpt><trkpt lat="40.543675" lon="16.62398"><ele>40.83333333333333</ele><time>2026-04-12T13:27:59.44Z</time></trkpt><trkpt lat="40.5436567" lon="16.6240867"><ele>41.0</ele><time>2026-04-12T13:28:00.439Z</time></trkpt><trkpt lat="40.5436417" lon="16.624195"><ele>41.0</ele><time>2026-04-12T13:28:01.44Z</time></trkpt><trkpt lat="40.5436283" lon="16.6243067"><ele>41.0</ele><time>2026-04-12T13:28:02.44Z</time></trkpt><trkpt lat="40.5436117" lon="16.6244217"><ele>41.0</ele><time>2026-04-12T13:28:03.44Z</time></trkpt><trkpt lat="40.543595" lon="16.6245367"><ele>41.0</ele><time>2026-04-12T13:28:04.44Z</time></trkpt><trkpt lat="40.5435767" lon="16.6246533"><ele>41.0</ele><time>2026-04-12T13:28:05.439Z</time></trkpt><trkpt lat="40.5435583" lon="16.6247733"><ele>41.0</ele><time>2026-04-12T13:28:06.44Z</time></trkpt><trkpt lat="40.5435383" lon="16.6248933"><ele>41.599999999999994</ele><time>2026-04-12T13:28:07.44Z</time></trkpt><trkpt lat="40.54352" lon="16.625015"><ele>42.2</ele><time>2026-04-12T13:28:08.44Z</time></trkpt><trkpt lat="40.5435017" lon="16.6251383"><ele>42.8</ele><time>2026-04-12T13:28:09.442Z</time></trkpt><trkpt lat="40.54348" lon="16.6252617"><ele>43.400000000000006</ele><time>2026-04-12T13:28:10.44Z</time></trkpt><trkpt lat="40.5434583" lon="16.6253883"><ele>44.0</ele><time>2026-04-12T13:28:11.44Z</time></trkpt><trkpt lat="40.5434417" lon="16.625525"><ele>45.75</ele><time>2026-04-12T13:28:12.441Z</time></trkpt><trkpt lat="40.543435" lon="16.6256783"><ele>47.5</ele><time>2026-04-12T13:28:13.441Z</time></trkpt><trkpt lat="40.5434467" lon="16.625845"><ele>49.25</ele><time>2026-04-12T13:28:14.441Z</time></trkpt><trkpt lat="40.543465" lon="16.6260233"><ele>51.0</ele><time>2026-04-12T13:28:15.44Z</time></trkpt><trkpt lat="40.543485" lon="16.6262117"><ele>52.0</ele><time>2026-04-12T13:28:16.44Z</time></trkpt><trkpt lat="40.5435033" lon="16.6264"><ele>53.0</ele><time>2026-04-12T13:28:17.439Z</time></trkpt><trkpt lat="40.54352" lon="16.6265717"><ele>54.0</ele><time>2026-04-12T13:28:18.44Z</time></trkpt><trkpt lat="40.543535" lon="16.626735"><ele>55.0</ele><time>2026-04-12T13:28:19.44Z</time></trkpt><trkpt lat="40.5435517" lon="16.6269067"><ele>55.0</ele><time>2026-04-12T13:28:20.442Z</time></trkpt><trkpt lat="40.54357" lon="16.627085"><ele>55.0</ele><time>2026-04-12T13:28:21.44Z</time></trkpt><trkpt lat="40.5435883" lon="16.6272667"><ele>55.0</ele><time>2026-04-12T13:28:22.448Z</time></trkpt><trkpt lat="40.5436067" lon="16.62745"><ele>55.0</ele><time>2026-04-12T13:28:23.441Z</time></trkpt><trkpt lat="40.5436267" lon="16.627635"><ele>55.5</ele><time>2026-04-12T13:28:24.439Z</time></trkpt><trkpt lat="40.5436433" lon="16.6278217"><ele>56.0</ele><time>2026-04-12T13:28:25.438Z</time></trkpt><trkpt lat="40.543665" lon="16.628"><ele>56.5</ele><time>2026-04-12T13:28:26.44Z</time></trkpt><trkpt lat="40.5436883" lon="16.6281733"><ele>57.0</ele><time>2026-04-12T13:28:27.439Z</time></trkpt><trkpt lat="40.5437083" lon="16.6283583"><ele>57.0</ele><time>2026-04-12T13:28:28.439Z</time></trkpt><trkpt lat="40.5437267" lon="16.6285433"><ele>57.0</ele><time>2026-04-12T13:28:29.439Z</time></trkpt><trkpt lat="40.5437467" lon="16.628735"><ele>57.0</ele><time>2026-04-12T13:28:30.439Z</time></trkpt><trkpt lat="40.5437633" lon="16.6289267"><ele>57.0</ele><time>2026-04-12T13:28:31.439Z</time></trkpt><trkpt lat="40.54378" lon="16.6291167"><ele>56.5</ele><time>2026-04-12T13:28:32.439Z</time></trkpt><trkpt lat="40.5437917" lon="16.6293067"><ele>56.0</ele><time>2026-04-12T13:28:33.439Z</time></trkpt><trkpt lat="40.543795" lon="16.6295"><ele>55.5</ele><time>2026-04-12T13:28:34.44Z</time></trkpt><trkpt lat="40.5437917" lon="16.6296917"><ele>55.0</ele><time>2026-04-12T13:28:35.45Z</time></trkpt><trkpt lat="40.5437817" lon="16.6298767"><ele>55.0</ele><time>2026-04-12T13:28:36.441Z</time></trkpt><trkpt lat="40.543775" lon="16.6300483"><ele>55.0</ele><time>2026-04-12T13:28:37.441Z</time></trkpt><trkpt lat="40.5437717" lon="16.6302017"><ele>55.0</ele><time>2026-04-12T13:28:38.452Z</time></trkpt><trkpt lat="40.5437717" lon="16.630335"><ele>55.0</ele><time>2026-04-12T13:28:39.449Z</time></trkpt><trkpt lat="40.5437733" lon="16.63045"><ele>55.0</ele><time>2026-04-12T13:28:40.45Z</time></trkpt><trkpt lat="40.5437833" lon="16.6305583"><ele>55.0</ele><time>2026-04-12T13:28:41.45Z</time></trkpt><trkpt lat="40.5438067" lon="16.63067"><ele>55.0</ele><time>2026-04-12T13:28:42.45Z</time></trkpt><trkpt lat="40.543845" lon="16.6307933"><ele>55.0</ele><time>2026-04-12T13:28:43.448Z</time></trkpt><trkpt lat="40.5438867" lon="16.63092"><ele>55.0</ele><time>2026-04-12T13:28:44.451Z</time></trkpt><trkpt lat="40.5439317" lon="16.6310367"><ele>55.0</ele><time>2026-04-12T13:28:45.449Z</time></trkpt><trkpt lat="40.5439717" lon="16.6311583"><ele>55.49999999999999</ele><time>2026-04-12T13:28:46.44Z</time></trkpt><trkpt lat="40.5440033" lon="16.6312617"><ele>56.0</ele><time>2026-04-12T13:28:47.438Z</time></trkpt><trkpt lat="40.5440283" lon="16.6313617"><ele>56.5</ele><time>2026-04-12T13:28:48.439Z</time></trkpt><trkpt lat="40.5440483" lon="16.6314517"><ele>57.0</ele><time>2026-04-12T13:28:49.438Z</time></trkpt><trkpt lat="40.5440667" lon="16.6315367"><ele>57.49999999999999</ele><time>2026-04-12T13:28:50.439Z</time></trkpt><trkpt lat="40.5441017" lon="16.631685"><ele>58.0</ele><time>2026-04-12T13:28:52.44Z</time></trkpt><trkpt lat="40.544115" lon="16.631805"><ele>57.99999999999999</ele><time>2026-04-12T13:28:54.44Z</time></trkpt><trkpt lat="40.544075" lon="16.6318817"><ele>58.0</ele><time>2026-04-12T13:29:25.44Z</time></trkpt><trkpt lat="40.543965" lon="16.6319267"><ele>58.0</ele><time>2026-04-12T13:29:27.44Z</time></trkpt><trkpt lat="40.5438967" lon="16.631945"><ele>58.0</ele><time>2026-04-12T13:29:28.44Z</time></trkpt><trkpt lat="40.5438183" lon="16.6319767"><ele>57.99999999999999</ele><time>2026-04-12T13:29:29.44Z</time></trkpt><trkpt lat="40.5437267" lon="16.63202"><ele>58.0</ele><time>2026-04-12T13:29:30.441Z</time></trkpt><trkpt lat="40.5436317" lon="16.63206"><ele>58.2</ele><time>2026-04-12T13:29:31.439Z</time></trkpt><trkpt lat="40.5435367" lon="16.6320933"><ele>58.4</ele><time>2026-04-12T13:29:32.44Z</time></trkpt><trkpt lat="40.5434383" lon="16.632125"><ele>58.60000000000001</ele><time>2026-04-12T13:29:33.442Z</time></trkpt><trkpt lat="40.54334" lon="16.6321567"><ele>58.800000000000004</ele><time>2026-04-12T13:29:34.441Z</time></trkpt><trkpt lat="40.5432433" lon="16.63219"><ele>59.0</ele><time>2026-04-12T13:29:35.44Z</time></trkpt><trkpt lat="40.54315" lon="16.6322233"><ele>59.0</ele><time>2026-04-12T13:29:36.44Z</time></trkpt><trkpt lat="40.5430583" lon="16.6322583"><ele>59.00000000000001</ele><time>2026-04-12T13:29:37.44Z</time></trkpt><trkpt lat="40.5429683" lon="16.6322883"><ele>59.00000000000001</ele><time>2026-04-12T13:29:38.441Z</time></trkpt><trkpt lat="40.5428783" lon="16.6323183"><ele>59.0</ele><time>2026-04-12T13:29:39.44Z</time></trkpt><trkpt lat="40.5427917" lon="16.6323433"><ele>59.0</ele><time>2026-04-12T13:29:40.44Z</time></trkpt><trkpt lat="40.5427067" lon="16.6323717"><ele>59.0</ele><time>2026-04-12T13:29:41.443Z</time></trkpt><trkpt lat="40.5426217" lon="16.6324017"><ele>59.00000000000001</ele><time>2026-04-12T13:29:42.44Z</time></trkpt><trkpt lat="40.5425367" lon="16.6324317"><ele>59.00000000000001</ele><time>2026-04-12T13:29:43.44Z</time></trkpt><trkpt lat="40.5424483" lon="16.6324633"><ele>59.0</ele><time>2026-04-12T13:29:44.442Z</time></trkpt><trkpt lat="40.5423567" lon="16.6325"><ele>59.0</ele><time>2026-04-12T13:29:45.44Z</time></trkpt><trkpt lat="40.5422617" lon="16.6325367"><ele>59.0</ele><time>2026-04-12T13:29:46.44Z</time></trkpt><trkpt lat="40.542165" lon="16.6325733"><ele>59.00000000000001</ele><time>2026-04-12T13:29:47.439Z</time></trkpt><trkpt lat="40.5420667" lon="16.6326083"><ele>59.00000000000001</ele><time>2026-04-12T13:29:48.439Z</time></trkpt><trkpt lat="40.541965" lon="16.632645"><ele>59.0</ele><time>2026-04-12T13:29:49.441Z</time></trkpt><trkpt lat="40.5418617" lon="16.63268"><ele>59.0</ele><time>2026-04-12T13:29:50.44Z</time></trkpt><trkpt lat="40.5417583" lon="16.6327167"><ele>59.0</ele><time>2026-04-12T13:29:51.44Z</time></trkpt><trkpt lat="40.5416517" lon="16.6327567"><ele>59.0</ele><time>2026-04-12T13:29:52.44Z</time></trkpt><trkpt lat="40.5415433" lon="16.6328"><ele>59.0</ele><time>2026-04-12T13:29:53.44Z</time></trkpt><trkpt lat="40.54143" lon="16.63284"><ele>59.0</ele><time>2026-04-12T13:29:54.441Z</time></trkpt><trkpt lat="40.54131" lon="16.63288"><ele>59.75</ele><time>2026-04-12T13:29:55.44Z</time></trkpt><trkpt lat="40.5411917" lon="16.6329217"><ele>60.5</ele><time>2026-04-12T13:29:56.441Z</time></trkpt><trkpt lat="40.54107" lon="16.6329633"><ele>61.25</ele><time>2026-04-12T13:29:57.439Z</time></trkpt><trkpt lat="40.5409433" lon="16.633005"><ele>62.0</ele><time>2026-04-12T13:29:58.442Z</time></trkpt><trkpt lat="40.5408167" lon="16.63305"><ele>62.0</ele><time>2026-04-12T13:29:59.441Z</time></trkpt><trkpt lat="40.54069" lon="16.633095"><ele>62.0</ele><time>2026-04-12T13:30:00.441Z</time></trkpt><trkpt lat="40.540565" lon="16.633145"><ele>62.0</ele><time>2026-04-12T13:30:01.442Z</time></trkpt><trkpt lat="40.5404433" lon="16.633205"><ele>62.0</ele><time>2026-04-12T13:30:02.442Z</time></trkpt><trkpt lat="40.5403233" lon="16.6332783"><ele>62.0</ele><time>2026-04-12T13:30:03.44Z</time></trkpt><trkpt lat="40.5402067" lon="16.63337"><ele>62.0</ele><time>2026-04-12T13:30:04.44Z</time></trkpt><trkpt lat="40.5400983" lon="16.63349"><ele>62.0</ele><time>2026-04-12T13:30:05.441Z</time></trkpt><trkpt lat="40.5399983" lon="16.6336417"><ele>62.0</ele><time>2026-04-12T13:30:06.441Z</time></trkpt><trkpt lat="40.539915" lon="16.6338167"><ele>62.0</ele><time>2026-04-12T13:30:07.441Z</time></trkpt><trkpt lat="40.5398417" lon="16.634005"><ele>62.0</ele><time>2026-04-12T13:30:08.441Z</time></trkpt><trkpt lat="40.5397767" lon="16.634195"><ele>62.0</ele><time>2026-04-12T13:30:09.44Z</time></trkpt><trkpt lat="40.5397167" lon="16.63438"><ele>63.0</ele><time>2026-04-12T13:30:10.442Z</time></trkpt><trkpt lat="40.5396533" lon="16.6345683"><ele>64.0</ele><time>2026-04-12T13:30:11.441Z</time></trkpt><trkpt lat="40.5395867" lon="16.634755"><ele>65.0</ele><time>2026-04-12T13:30:12.44Z</time></trkpt><trkpt lat="40.5395167" lon="16.6349333"><ele>63.333333333333336</ele><time>2026-04-12T13:30:13.44Z</time></trkpt><trkpt lat="40.5394383" lon="16.6351083"><ele>61.66666666666667</ele><time>2026-04-12T13:30:14.451Z</time></trkpt><trkpt lat="40.5393467" lon="16.6352767"><ele>60.0</ele><time>2026-04-12T13:30:15.443Z</time></trkpt><trkpt lat="40.5392383" lon="16.6354417"><ele>60.0</ele><time>2026-04-12T13:30:16.442Z</time></trkpt><trkpt lat="40.5391133" lon="16.6355983"><ele>60.0</ele><time>2026-04-12T13:30:17.45Z</time></trkpt><trkpt lat="40.53898" lon="16.6357517"><ele>60.0</ele><time>2026-04-12T13:30:18.45Z</time></trkpt><trkpt lat="40.53885" lon="16.6358967"><ele>60.0</ele><time>2026-04-12T13:30:19.45Z</time></trkpt><trkpt lat="40.5387217" lon="16.6360383"><ele>60.0</ele><time>2026-04-12T13:30:20.453Z</time></trkpt><trkpt lat="40.5385933" lon="16.6361783"><ele>60.0</ele><time>2026-04-12T13:30:21.45Z</time></trkpt><trkpt lat="40.538465" lon="16.6363217"><ele>61.0</ele><time>2026-04-12T13:30:22.451Z</time></trkpt><trkpt lat="40.5383367" lon="16.6364683"><ele>62.0</ele><time>2026-04-12T13:30:23.45Z</time></trkpt><trkpt lat="40.5382083" lon="16.6366167"><ele>63.0</ele><time>2026-04-12T13:30:24.441Z</time></trkpt><trkpt lat="40.5380783" lon="16.6367633"><ele>63.0</ele><time>2026-04-12T13:30:25.439Z</time></trkpt><trkpt lat="40.5379483" lon="16.6369117"><ele>63.0</ele><time>2026-04-12T13:30:26.441Z</time></trkpt><trkpt lat="40.53782" lon="16.6370617"><ele>63.0</ele><time>2026-04-12T13:30:27.438Z</time></trkpt><trkpt lat="40.5376933" lon="16.6372083"><ele>62.66666666666667</ele><time>2026-04-12T13:30:28.45Z</time></trkpt><trkpt lat="40.537565" lon="16.637355"><ele>62.333333333333336</ele><time>2026-04-12T13:30:29.44Z</time></trkpt><trkpt lat="40.5374383" lon="16.6375017"><ele>62.0</ele><time>2026-04-12T13:30:30.439Z</time></trkpt><trkpt lat="40.5373133" lon="16.637645"><ele>62.0</ele><time>2026-04-12T13:30:31.44Z</time></trkpt><trkpt lat="40.53719" lon="16.6377833"><ele>62.0</ele><time>2026-04-12T13:30:32.441Z</time></trkpt><trkpt lat="40.53707" lon="16.6379183"><ele>62.0</ele><time>2026-04-12T13:30:33.44Z</time></trkpt><trkpt lat="40.5369467" lon="16.6380517"><ele>61.333333333333336</ele><time>2026-04-12T13:30:34.44Z</time></trkpt><trkpt lat="40.536825" lon="16.6381917"><ele>60.66666666666667</ele><time>2026-04-12T13:30:35.441Z</time></trkpt><trkpt lat="40.5367033" lon="16.63833"><ele>60.0</ele><time>2026-04-12T13:30:36.441Z</time></trkpt><trkpt lat="40.5365817" lon="16.6384717"><ele>60.0</ele><time>2026-04-12T13:30:37.441Z</time></trkpt><trkpt lat="40.53646" lon="16.63861"><ele>60.0</ele><time>2026-04-12T13:30:38.44Z</time></trkpt><trkpt lat="40.536335" lon="16.6387517"><ele>60.0</ele><time>2026-04-12T13:30:39.439Z</time></trkpt><trkpt lat="40.5360833" lon="16.639035"><ele>60.0</ele><time>2026-04-12T13:30:41.442Z</time></trkpt><trkpt lat="40.5358367" lon="16.639315"><ele>60.0</ele><time>2026-04-12T13:30:43.439Z</time></trkpt><trkpt lat="40.5357167" lon="16.63945"><ele>61.0</ele><time>2026-04-12T13:30:44.444Z</time></trkpt><trkpt lat="40.5355933" lon="16.6395817"><ele>62.0</ele><time>2026-04-12T13:30:45.441Z</time></trkpt><trkpt lat="40.5354717" lon="16.63972"><ele>63.0</ele><time>2026-04-12T13:30:46.44Z</time></trkpt><trkpt lat="40.5353483" lon="16.639855"><ele>62.33333333333333</ele><time>2026-04-12T13:30:47.439Z</time></trkpt><trkpt lat="40.5352317" lon="16.6399867"><ele>61.666666666666664</ele><time>2026-04-12T13:30:48.442Z</time></trkpt><trkpt lat="40.5351133" lon="16.6401167"><ele>61.0</ele><time>2026-04-12T13:30:49.438Z</time></trkpt><trkpt lat="40.53466" lon="16.6406326"><ele>59.0</ele><time>2026-04-12T13:30:53.439Z</time></trkpt><trkpt lat="40.5342177" lon="16.6411375"><ele>59.0</ele><time>2026-04-12T13:30:57.445Z</time></trkpt><trkpt lat="40.5338955" lon="16.6414892"><ele>59.0</ele><time>2026-04-12T13:31:00.439Z</time></trkpt><trkpt lat="40.5337879" lon="16.641605"><ele>59.25</ele><time>2026-04-12T13:31:01.44Z</time></trkpt><trkpt lat="40.5336832" lon="16.6417184"><ele>59.5</ele><time>2026-04-12T13:31:02.441Z</time></trkpt><trkpt lat="40.5335862" lon="16.6418281"><ele>59.75</ele><time>2026-04-12T13:31:03.44Z</time></trkpt><trkpt lat="40.5334975" lon="16.64193"><ele>60.0</ele><time>2026-04-12T13:31:04.44Z</time></trkpt><trkpt lat="40.5334155" lon="16.6420114"><ele>60.0</ele><time>2026-04-12T13:31:05.44Z</time></trkpt><trkpt lat="40.5333355" lon="16.6420633"><ele>60.0</ele><time>2026-04-12T13:31:06.439Z</time></trkpt><trkpt lat="40.5332623" lon="16.6420904"><ele>60.0</ele><time>2026-04-12T13:31:07.44Z</time></trkpt><trkpt lat="40.5332004" lon="16.6421086"><ele>60.0</ele><time>2026-04-12T13:31:08.439Z</time></trkpt><trkpt lat="40.5331425" lon="16.6421465"><ele>60.0</ele><time>2026-04-12T13:31:10.443Z</time></trkpt><trkpt lat="40.5331372" lon="16.6422321"><ele>60.0</ele><time>2026-04-12T13:31:12.438Z</time></trkpt><trkpt lat="40.5331933" lon="16.6423978"><ele>60.0</ele><time>2026-04-12T13:31:14.443Z</time></trkpt><trkpt lat="40.5332424" lon="16.6425116"><ele>60.0</ele><time>2026-04-12T13:31:15.439Z</time></trkpt><trkpt lat="40.5332903" lon="16.6426336"><ele>60.0</ele><time>2026-04-12T13:31:16.439Z</time></trkpt><trkpt lat="40.5333324" lon="16.6427576"><ele>60.0</ele><time>2026-04-12T13:31:17.439Z</time></trkpt><trkpt lat="40.5333614" lon="16.6428753"><ele>60.0</ele><time>2026-04-12T13:31:18.439Z</time></trkpt><trkpt lat="40.5333721" lon="16.6429814"><ele>60.333333333333336</ele><time>2026-04-12T13:31:19.439Z</time></trkpt><trkpt lat="40.5333686" lon="16.6430759"><ele>60.66666666666667</ele><time>2026-04-12T13:31:20.44Z</time></trkpt><trkpt lat="40.5333632" lon="16.6431646"><ele>61.0</ele><time>2026-04-12T13:31:21.439Z</time></trkpt><trkpt lat="40.5333953" lon="16.6432764"><ele>61.333333333333336</ele><time>2026-04-12T13:31:23.44Z</time></trkpt><trkpt lat="40.5334967" lon="16.6432533"><ele>61.66666666666667</ele><time>2026-04-12T13:33:14.44Z</time></trkpt><trkpt lat="40.5335183" lon="16.6431267"><ele>62.0</ele><time>2026-04-12T13:38:22.439Z</time></trkpt><trkpt lat="40.5334567" lon="16.642965"><ele>62.0</ele><time>2026-04-12T13:38:24.438Z</time></trkpt><trkpt lat="40.5334083" lon="16.6428583"><ele>62.0</ele><time>2026-04-12T13:38:25.438Z</time></trkpt><trkpt lat="40.5333567" lon="16.6427267"><ele>62.0</ele><time>2026-04-12T13:38:26.439Z</time></trkpt><trkpt lat="40.533305" lon="16.64258"><ele>62.0</ele><time>2026-04-12T13:38:27.439Z</time></trkpt><trkpt lat="40.5332533" lon="16.64242"><ele>61.333333333333336</ele><time>2026-04-12T13:38:28.438Z</time></trkpt><trkpt lat="40.5331983" lon="16.6422467"><ele>60.66666666666667</ele><time>2026-04-12T13:38:29.438Z</time></trkpt><trkpt lat="40.5331417" lon="16.6420633"><ele>60.0</ele><time>2026-04-12T13:38:30.439Z</time></trkpt><trkpt lat="40.53308" lon="16.6418733"><ele>60.0</ele><time>2026-04-12T13:38:31.439Z</time></trkpt><trkpt lat="40.533015" lon="16.6416783"><ele>60.0</ele><time>2026-04-12T13:38:32.439Z</time></trkpt><trkpt lat="40.5329483" lon="16.6414783"><ele>60.0</ele><time>2026-04-12T13:38:33.441Z</time></trkpt><trkpt lat="40.5328833" lon="16.6412717"><ele>59.0</ele><time>2026-04-12T13:38:34.439Z</time></trkpt><trkpt lat="40.532815" lon="16.641055"><ele>58.0</ele><time>2026-04-12T13:38:35.438Z</time></trkpt><trkpt lat="40.5327483" lon="16.64083"><ele>57.0</ele><time>2026-04-12T13:38:36.44Z</time></trkpt><trkpt lat="40.53268" lon="16.6406"><ele>57.0</ele><time>2026-04-12T13:38:37.439Z</time></trkpt><trkpt lat="40.5326083" lon="16.6403633"><ele>57.0</ele><time>2026-04-12T13:38:38.44Z</time></trkpt><trkpt lat="40.5325333" lon="16.6401233"><ele>57.0</ele><time>2026-04-12T13:38:39.439Z</time></trkpt><trkpt lat="40.5324583" lon="16.63988"><ele>56.66666666666667</ele><time>2026-04-12T13:38:40.439Z</time></trkpt><trkpt lat="40.53238" lon="16.6396333"><ele>56.333333333333336</ele><time>2026-04-12T13:38:41.438Z</time></trkpt><trkpt lat="40.532305" lon="16.6393883"><ele>56.0</ele><time>2026-04-12T13:38:42.438Z</time></trkpt><trkpt lat="40.5322267" lon="16.6391367"><ele>56.0</ele><time>2026-04-12T13:38:43.439Z</time></trkpt><trkpt lat="40.53215" lon="16.6388833"><ele>56.0</ele><time>2026-04-12T13:38:44.439Z</time></trkpt><trkpt lat="40.5320717" lon="16.6386317"><ele>56.0</ele><time>2026-04-12T13:38:45.439Z</time></trkpt><trkpt lat="40.5319933" lon="16.638375"><ele>55.66666666666667</ele><time>2026-04-12T13:38:46.439Z</time></trkpt><trkpt lat="40.531915" lon="16.6381217"><ele>55.33333333333333</ele><time>2026-04-12T13:38:47.438Z</time></trkpt><trkpt lat="40.5318383" lon="16.6378717"><ele>55.0</ele><time>2026-04-12T13:38:48.438Z</time></trkpt><trkpt lat="40.53176" lon="16.6376217"><ele>54.0</ele><time>2026-04-12T13:38:49.438Z</time></trkpt><trkpt lat="40.5316833" lon="16.6373667"><ele>53.0</ele><time>2026-04-12T13:38:50.439Z</time></trkpt><trkpt lat="40.531605" lon="16.637115"><ele>52.0</ele><time>2026-04-12T13:38:51.439Z</time></trkpt><trkpt lat="40.5315183" lon="16.6368633"><ele>51.666666666666664</ele><time>2026-04-12T13:38:52.438Z</time></trkpt><trkpt lat="40.5314233" lon="16.6366133"><ele>51.33333333333333</ele><time>2026-04-12T13:38:53.438Z</time></trkpt><trkpt lat="40.5313133" lon="16.6363667"><ele>51.0</ele><time>2026-04-12T13:38:54.439Z</time></trkpt><trkpt lat="40.5311917" lon="16.6361167"><ele>48.5</ele><time>2026-04-12T13:38:55.44Z</time></trkpt><trkpt lat="40.531065" lon="16.6358633"><ele>46.0</ele><time>2026-04-12T13:38:56.439Z</time></trkpt><trkpt lat="40.53094" lon="16.6356083"><ele>46.0</ele><time>2026-04-12T13:38:57.441Z</time></trkpt><trkpt lat="40.5308117" lon="16.6353533"><ele>46.0</ele><time>2026-04-12T13:38:58.439Z</time></trkpt><trkpt lat="40.5306867" lon="16.6351"><ele>46.5</ele><time>2026-04-12T13:38:59.44Z</time></trkpt><trkpt lat="40.530565" lon="16.6348517"><ele>47.0</ele><time>2026-04-12T13:39:00.439Z</time></trkpt><trkpt lat="40.530445" lon="16.6345983"><ele>50.0</ele><time>2026-04-12T13:39:01.442Z</time></trkpt><trkpt lat="40.530325" lon="16.6343483"><ele>53.0</ele><time>2026-04-12T13:39:02.439Z</time></trkpt><trkpt lat="40.5302033" lon="16.6340933"><ele>53.0</ele><time>2026-04-12T13:39:03.438Z</time></trkpt><trkpt lat="40.53008" lon="16.6338467"><ele>53.0</ele><time>2026-04-12T13:39:04.438Z</time></trkpt><trkpt lat="40.529955" lon="16.6335967"><ele>52.66666666666667</ele><time>2026-04-12T13:39:05.438Z</time></trkpt><trkpt lat="40.5298333" lon="16.6333483"><ele>52.33333333333333</ele><time>2026-04-12T13:39:06.439Z</time></trkpt><trkpt lat="40.5297133" lon="16.6331"><ele>52.0</ele><time>2026-04-12T13:39:07.44Z</time></trkpt><trkpt lat="40.5295933" lon="16.6328483"><ele>52.5</ele><time>2026-04-12T13:39:08.439Z</time></trkpt><trkpt lat="40.5294717" lon="16.6325967"><ele>53.0</ele><time>2026-04-12T13:39:09.439Z</time></trkpt><trkpt lat="40.52935" lon="16.6323433"><ele>53.0</ele><time>2026-04-12T13:39:10.439Z</time></trkpt><trkpt lat="40.52923" lon="16.63209"><ele>53.0</ele><time>2026-04-12T13:39:11.44Z</time></trkpt><trkpt lat="40.52911" lon="16.6318367"><ele>53.5</ele><time>2026-04-12T13:39:12.438Z</time></trkpt><trkpt lat="40.52899" lon="16.6315817"><ele>54.0</ele><time>2026-04-12T13:39:13.438Z</time></trkpt><trkpt lat="40.52887" lon="16.631325"><ele>53.66666666666667</ele><time>2026-04-12T13:39:14.44Z</time></trkpt><trkpt lat="40.5287517" lon="16.6310717"><ele>53.333333333333336</ele><time>2026-04-12T13:39:15.439Z</time></trkpt><trkpt lat="40.528635" lon="16.6308217"><ele>53.0</ele><time>2026-04-12T13:39:16.439Z</time></trkpt><trkpt lat="40.5285133" lon="16.6305717"><ele>53.0</ele><time>2026-04-12T13:39:17.439Z</time></trkpt><trkpt lat="40.5283933" lon="16.6303217"><ele>53.0</ele><time>2026-04-12T13:39:18.439Z</time></trkpt><trkpt lat="40.52827" lon="16.630075"><ele>53.0</ele><time>2026-04-12T13:39:19.443Z</time></trkpt><trkpt lat="40.5281517" lon="16.6298317"><ele>53.0</ele><time>2026-04-12T13:39:20.44Z</time></trkpt><trkpt lat="40.5280317" lon="16.629585"><ele>53.0</ele><time>2026-04-12T13:39:21.438Z</time></trkpt><trkpt lat="40.5279117" lon="16.6293367"><ele>53.0</ele><time>2026-04-12T13:39:22.439Z</time></trkpt><trkpt lat="40.527795" lon="16.629095"><ele>52.66666666666667</ele><time>2026-04-12T13:39:23.439Z</time></trkpt><trkpt lat="40.5276767" lon="16.6288533"><ele>52.33333333333333</ele><time>2026-04-12T13:39:24.439Z</time></trkpt><trkpt lat="40.5275583" lon="16.628605"><ele>52.0</ele><time>2026-04-12T13:39:25.438Z</time></trkpt><trkpt lat="40.5274433" lon="16.6283517"><ele>53.0</ele><time>2026-04-12T13:39:26.439Z</time></trkpt><trkpt lat="40.527335" lon="16.6280933"><ele>54.0</ele><time>2026-04-12T13:39:27.439Z</time></trkpt><trkpt lat="40.5272317" lon="16.6278333"><ele>55.0</ele><time>2026-04-12T13:39:28.439Z</time></trkpt><trkpt lat="40.5271267" lon="16.6275733"><ele>54.666666666666664</ele><time>2026-04-12T13:39:29.438Z</time></trkpt><trkpt lat="40.527025" lon="16.6273233"><ele>54.33333333333333</ele><time>2026-04-12T13:39:30.44Z</time></trkpt><trkpt lat="40.5269283" lon="16.6270867"><ele>54.0</ele><time>2026-04-12T13:39:31.439Z</time></trkpt><trkpt lat="40.52684" lon="16.6268717"><ele>54.0</ele><time>2026-04-12T13:39:32.44Z</time></trkpt><trkpt lat="40.5267567" lon="16.6266783"><ele>54.0</ele><time>2026-04-12T13:39:33.439Z</time></trkpt><trkpt lat="40.526685" lon="16.6264967"><ele>54.0</ele><time>2026-04-12T13:39:34.439Z</time></trkpt><trkpt lat="40.5266317" lon="16.6263083"><ele>54.33333333333333</ele><time>2026-04-12T13:39:35.44Z</time></trkpt><trkpt lat="40.526605" lon="16.6261117"><ele>54.666666666666664</ele><time>2026-04-12T13:39:36.439Z</time></trkpt><trkpt lat="40.526615" lon="16.625905"><ele>55.0</ele><time>2026-04-12T13:39:37.439Z</time></trkpt><trkpt lat="40.526655" lon="16.6257"><ele>55.0</ele><time>2026-04-12T13:39:38.439Z</time></trkpt><trkpt lat="40.52673" lon="16.6255067"><ele>55.0</ele><time>2026-04-12T13:39:39.439Z</time></trkpt><trkpt lat="40.5268533" lon="16.6253383"><ele>55.0</ele><time>2026-04-12T13:39:40.439Z</time></trkpt><trkpt lat="40.5269867" lon="16.6251717"><ele>55.0</ele><time>2026-04-12T13:39:41.44Z</time></trkpt><trkpt lat="40.5271283" lon="16.62499"><ele>55.0</ele><time>2026-04-12T13:39:42.439Z</time></trkpt><trkpt lat="40.527275" lon="16.624795"><ele>55.0</ele><time>2026-04-12T13:39:43.439Z</time></trkpt><trkpt lat="40.527435" lon="16.6245883"><ele>55.5</ele><time>2026-04-12T13:39:44.439Z</time></trkpt><trkpt lat="40.527605" lon="16.6243717"><ele>56.0</ele><time>2026-04-12T13:39:45.438Z</time></trkpt><trkpt lat="40.52778" lon="16.6241567"><ele>55.0</ele><time>2026-04-12T13:39:46.439Z</time></trkpt><trkpt lat="40.527955" lon="16.6239383"><ele>54.0</ele><time>2026-04-12T13:39:47.438Z</time></trkpt><trkpt lat="40.5281283" lon="16.62372"><ele>55.0</ele><time>2026-04-12T13:39:48.44Z</time></trkpt><trkpt lat="40.5283033" lon="16.6235033"><ele>56.0</ele><time>2026-04-12T13:39:49.438Z</time></trkpt><trkpt lat="40.5284783" lon="16.6232833"><ele>56.0</ele><time>2026-04-12T13:39:50.44Z</time></trkpt><trkpt lat="40.5286533" lon="16.623065"><ele>56.0</ele><time>2026-04-12T13:39:51.439Z</time></trkpt><trkpt lat="40.5288283" lon="16.6228467"><ele>55.5</ele><time>2026-04-12T13:39:52.438Z</time></trkpt><trkpt lat="40.529005" lon="16.6226267"><ele>55.0</ele><time>2026-04-12T13:39:53.439Z</time></trkpt><trkpt lat="40.52918" lon="16.6224083"><ele>55.0</ele><time>2026-04-12T13:39:54.439Z</time></trkpt><trkpt lat="40.5293533" lon="16.6221883"><ele>55.0</ele><time>2026-04-12T13:39:55.439Z</time></trkpt><trkpt lat="40.5295183" lon="16.6219633"><ele>56.0</ele><time>2026-04-12T13:39:56.439Z</time></trkpt><trkpt lat="40.5296767" lon="16.6217267"><ele>57.0</ele><time>2026-04-12T13:39:57.439Z</time></trkpt><trkpt lat="40.529825" lon="16.6214783"><ele>57.0</ele><time>2026-04-12T13:39:58.439Z</time></trkpt><trkpt lat="40.5299633" lon="16.6212167"><ele>57.0</ele><time>2026-04-12T13:39:59.439Z</time></trkpt><trkpt lat="40.5300933" lon="16.6209433"><ele>58.0</ele><time>2026-04-12T13:40:00.44Z</time></trkpt><trkpt lat="40.5302183" lon="16.620655"><ele>59.0</ele><time>2026-04-12T13:40:01.439Z</time></trkpt><trkpt lat="40.53033" lon="16.620355"><ele>58.0</ele><time>2026-04-12T13:40:02.439Z</time></trkpt><trkpt lat="40.5304317" lon="16.620045"><ele>57.0</ele><time>2026-04-12T13:40:03.439Z</time></trkpt><trkpt lat="40.5305183" lon="16.6197267"><ele>57.5</ele><time>2026-04-12T13:40:04.439Z</time></trkpt><trkpt lat="40.5305933" lon="16.619405"><ele>58.0</ele><time>2026-04-12T13:40:05.44Z</time></trkpt><trkpt lat="40.5306617" lon="16.619085"><ele>58.0</ele><time>2026-04-12T13:40:06.438Z</time></trkpt><trkpt lat="40.5307283" lon="16.6187667"><ele>58.0</ele><time>2026-04-12T13:40:07.44Z</time></trkpt><trkpt lat="40.5307983" lon="16.6184467"><ele>58.5</ele><time>2026-04-12T13:40:08.438Z</time></trkpt><trkpt lat="40.5308683" lon="16.6181283"><ele>59.0</ele><time>2026-04-12T13:40:09.438Z</time></trkpt><trkpt lat="40.530935" lon="16.6178133"><ele>59.0</ele><time>2026-04-12T13:40:10.441Z</time></trkpt><trkpt lat="40.5310017" lon="16.6175"><ele>59.0</ele><time>2026-04-12T13:40:11.438Z</time></trkpt><trkpt lat="40.531065" lon="16.6171917"><ele>59.5</ele><time>2026-04-12T13:40:12.439Z</time></trkpt><trkpt lat="40.5311283" lon="16.6168867"><ele>60.0</ele><time>2026-04-12T13:40:13.439Z</time></trkpt><trkpt lat="40.53119" lon="16.616585"><ele>59.0</ele><time>2026-04-12T13:40:14.439Z</time></trkpt><trkpt lat="40.5312533" lon="16.6162867"><ele>58.0</ele><time>2026-04-12T13:40:15.44Z</time></trkpt><trkpt lat="40.5313167" lon="16.615985"><ele>57.5</ele><time>2026-04-12T13:40:16.439Z</time></trkpt><trkpt lat="40.53138" lon="16.615685"><ele>57.0</ele><time>2026-04-12T13:40:17.44Z</time></trkpt><trkpt lat="40.5314433" lon="16.615385"><ele>57.0</ele><time>2026-04-12T13:40:18.439Z</time></trkpt><trkpt lat="40.5315067" lon="16.6150867"><ele>57.0</ele><time>2026-04-12T13:40:19.439Z</time></trkpt><trkpt lat="40.53157" lon="16.6147883"><ele>58.5</ele><time>2026-04-12T13:40:20.44Z</time></trkpt><trkpt lat="40.5316333" lon="16.6144867"><ele>60.0</ele><time>2026-04-12T13:40:21.439Z</time></trkpt><trkpt lat="40.5316933" lon="16.614185"><ele>60.0</ele><time>2026-04-12T13:40:22.439Z</time></trkpt><trkpt lat="40.5317567" lon="16.6138817"><ele>60.0</ele><time>2026-04-12T13:40:23.439Z</time></trkpt><trkpt lat="40.5318167" lon="16.6135783"><ele>61.0</ele><time>2026-04-12T13:40:24.439Z</time></trkpt><trkpt lat="40.5318783" lon="16.6132767"><ele>62.0</ele><time>2026-04-12T13:40:25.439Z</time></trkpt><trkpt lat="40.5319383" lon="16.6129783"><ele>63.0</ele><time>2026-04-12T13:40:26.44Z</time></trkpt><trkpt lat="40.5319967" lon="16.612685"><ele>64.0</ele><time>2026-04-12T13:40:27.439Z</time></trkpt><trkpt lat="40.5320517" lon="16.6124033"><ele>63.0</ele><time>2026-04-12T13:40:28.439Z</time></trkpt><trkpt lat="40.5321083" lon="16.6121383"><ele>62.0</ele><time>2026-04-12T13:40:29.438Z</time></trkpt><trkpt lat="40.532165" lon="16.6118933"><ele>61.0</ele><time>2026-04-12T13:40:30.439Z</time></trkpt><trkpt lat="40.5322267" lon="16.6116733"><ele>60.75</ele><time>2026-04-12T13:40:31.439Z</time></trkpt><trkpt lat="40.5322917" lon="16.611485"><ele>60.5</ele><time>2026-04-12T13:40:32.44Z</time></trkpt><trkpt lat="40.5323633" lon="16.6113217"><ele>60.25</ele><time>2026-04-12T13:40:33.439Z</time></trkpt><trkpt lat="40.532435" lon="16.6111767"><ele>60.0</ele><time>2026-04-12T13:40:34.439Z</time></trkpt><trkpt lat="40.5324917" lon="16.6110467"><ele>60.6</ele><time>2026-04-12T13:40:35.44Z</time></trkpt><trkpt lat="40.5325333" lon="16.6109267"><ele>61.2</ele><time>2026-04-12T13:40:36.438Z</time></trkpt><trkpt lat="40.5325783" lon="16.6108283"><ele>61.8</ele><time>2026-04-12T13:40:37.439Z</time></trkpt><trkpt lat="40.5326267" lon="16.61075"><ele>62.4</ele><time>2026-04-12T13:40:38.439Z</time></trkpt><trkpt lat="40.53269" lon="16.6106583"><ele>63.0</ele><time>2026-04-12T13:40:40.441Z</time></trkpt><trkpt lat="40.53265" lon="16.6105183"><ele>63.0</ele><time>2026-04-12T13:45:23.439Z</time></trkpt><trkpt lat="40.5325517" lon="16.610325"><ele>63.0</ele><time>2026-04-12T13:45:28.438Z</time></trkpt><trkpt lat="40.5325283" lon="16.6102083"><ele>63.0</ele><time>2026-04-12T13:45:36.44Z</time></trkpt><trkpt lat="40.532565" lon="16.6100783"><ele>63.0</ele><time>2026-04-12T13:45:38.44Z</time></trkpt><trkpt lat="40.532585" lon="16.609985"><ele>63.0</ele><time>2026-04-12T13:45:39.439Z</time></trkpt><trkpt lat="40.5325967" lon="16.609875"><ele>63.75</ele><time>2026-04-12T13:45:40.44Z</time></trkpt><trkpt lat="40.5326083" lon="16.6097167"><ele>64.5</ele><time>2026-04-12T13:45:41.44Z</time></trkpt><trkpt lat="40.532635" lon="16.60952"><ele>65.25</ele><time>2026-04-12T13:45:42.44Z</time></trkpt><trkpt lat="40.5326783" lon="16.609295"><ele>66.0</ele><time>2026-04-12T13:45:43.44Z</time></trkpt><trkpt lat="40.5327433" lon="16.6090367"><ele>66.66666666666667</ele><time>2026-04-12T13:45:44.441Z</time></trkpt><trkpt lat="40.53282" lon="16.6087717"><ele>67.33333333333334</ele><time>2026-04-12T13:45:45.439Z</time></trkpt><trkpt lat="40.5329067" lon="16.60851"><ele>68.0</ele><time>2026-04-12T13:45:46.44Z</time></trkpt><trkpt lat="40.533005" lon="16.6082517"><ele>67.5</ele><time>2026-04-12T13:45:47.441Z</time></trkpt><trkpt lat="40.5331167" lon="16.6079883"><ele>67.0</ele><time>2026-04-12T13:45:48.439Z</time></trkpt><trkpt lat="40.533235" lon="16.607715"><ele>67.0</ele><time>2026-04-12T13:45:49.439Z</time></trkpt><trkpt lat="40.53335" lon="16.6074583"><ele>67.0</ele><time>2026-04-12T13:45:50.44Z</time></trkpt><trkpt lat="40.5334633" lon="16.60721"><ele>67.0</ele><time>2026-04-12T13:45:51.444Z</time></trkpt><trkpt lat="40.53358" lon="16.6069667"><ele>67.0</ele><time>2026-04-12T13:45:52.439Z</time></trkpt><trkpt lat="40.5336933" lon="16.6067167"><ele>67.0</ele><time>2026-04-12T13:45:53.441Z</time></trkpt><trkpt lat="40.5338083" lon="16.6064617"><ele>67.0</ele><time>2026-04-12T13:45:54.439Z</time></trkpt><trkpt lat="40.5339183" lon="16.6062033"><ele>68.0</ele><time>2026-04-12T13:45:55.44Z</time></trkpt><trkpt lat="40.5340283" lon="16.6059433"><ele>69.0</ele><time>2026-04-12T13:45:56.44Z</time></trkpt><trkpt lat="40.53414" lon="16.6056833"><ele>69.0</ele><time>2026-04-12T13:45:57.439Z</time></trkpt><trkpt lat="40.5342533" lon="16.60542"><ele>69.0</ele><time>2026-04-12T13:45:58.44Z</time></trkpt><trkpt lat="40.5343633" lon="16.6051617"><ele>69.66666666666667</ele><time>2026-04-12T13:45:59.44Z</time></trkpt><trkpt lat="40.5344717" lon="16.6049067"><ele>70.33333333333334</ele><time>2026-04-12T13:46:00.44Z</time></trkpt><trkpt lat="40.5345817" lon="16.604655"><ele>71.0</ele><time>2026-04-12T13:46:01.44Z</time></trkpt><trkpt lat="40.534695" lon="16.6043983"><ele>72.5</ele><time>2026-04-12T13:46:02.44Z</time></trkpt><trkpt lat="40.5348133" lon="16.60413"><ele>74.0</ele><time>2026-04-12T13:46:03.439Z</time></trkpt><trkpt lat="40.5349333" lon="16.60385"><ele>77.0</ele><time>2026-04-12T13:46:04.44Z</time></trkpt><trkpt lat="40.5350533" lon="16.60357"><ele>80.0</ele><time>2026-04-12T13:46:05.442Z</time></trkpt><trkpt lat="40.5351733" lon="16.603295"><ele>80.0</ele><time>2026-04-12T13:46:06.44Z</time></trkpt><trkpt lat="40.5352933" lon="16.6030217"><ele>80.0</ele><time>2026-04-12T13:46:07.441Z</time></trkpt><trkpt lat="40.5354133" lon="16.6027517"><ele>77.5</ele><time>2026-04-12T13:46:08.439Z</time></trkpt><trkpt lat="40.5355333" lon="16.6024817"><ele>75.0</ele><time>2026-04-12T13:46:09.438Z</time></trkpt><trkpt lat="40.5356533" lon="16.6022133"><ele>77.0</ele><time>2026-04-12T13:46:10.437Z</time></trkpt><trkpt lat="40.5357717" lon="16.60194"><ele>79.0</ele><time>2026-04-12T13:46:11.439Z</time></trkpt><trkpt lat="40.5358917" lon="16.60166"><ele>79.0</ele><time>2026-04-12T13:46:12.439Z</time></trkpt><trkpt lat="40.5360117" lon="16.6013767"><ele>79.0</ele><time>2026-04-12T13:46:13.44Z</time></trkpt><trkpt lat="40.5361317" lon="16.6010883"><ele>81.0</ele><time>2026-04-12T13:46:14.441Z</time></trkpt><trkpt lat="40.5362567" lon="16.600795"><ele>83.0</ele><time>2026-04-12T13:46:15.44Z</time></trkpt><trkpt lat="40.5363867" lon="16.6005017"><ele>83.0</ele><time>2026-04-12T13:46:16.439Z</time></trkpt><trkpt lat="40.5365183" lon="16.6002083"><ele>83.0</ele><time>2026-04-12T13:46:17.439Z</time></trkpt><trkpt lat="40.53665" lon="16.5999117"><ele>83.0</ele><time>2026-04-12T13:46:18.439Z</time></trkpt><trkpt lat="40.5367833" lon="16.599615"><ele>83.0</ele><time>2026-04-12T13:46:19.439Z</time></trkpt><trkpt lat="40.536915" lon="16.5993167"><ele>83.0</ele><time>2026-04-12T13:46:20.441Z</time></trkpt><trkpt lat="40.5370483" lon="16.5990133"><ele>83.0</ele><time>2026-04-12T13:46:21.446Z</time></trkpt><trkpt lat="40.5371833" lon="16.598705"><ele>83.0</ele><time>2026-04-12T13:46:22.44Z</time></trkpt><trkpt lat="40.53732" lon="16.5983917"><ele>83.0</ele><time>2026-04-12T13:46:23.439Z</time></trkpt><trkpt lat="40.53746" lon="16.598075"><ele>82.0</ele><time>2026-04-12T13:46:24.439Z</time></trkpt><trkpt lat="40.5376017" lon="16.59775"><ele>81.0</ele><time>2026-04-12T13:46:25.44Z</time></trkpt><trkpt lat="40.5377433" lon="16.5974233"><ele>81.0</ele><time>2026-04-12T13:46:26.44Z</time></trkpt><trkpt lat="40.537885" lon="16.5970967"><ele>81.0</ele><time>2026-04-12T13:46:27.443Z</time></trkpt><trkpt lat="40.5380283" lon="16.59677"><ele>79.0</ele><time>2026-04-12T13:46:28.438Z</time></trkpt><trkpt lat="40.5381667" lon="16.5964467"><ele>77.0</ele><time>2026-04-12T13:46:29.439Z</time></trkpt><trkpt lat="40.5383017" lon="16.596135"><ele>77.0</ele><time>2026-04-12T13:46:30.439Z</time></trkpt><trkpt lat="40.53843" lon="16.5958417"><ele>77.0</ele><time>2026-04-12T13:46:31.439Z</time></trkpt><trkpt lat="40.5385517" lon="16.5955667"><ele>77.0</ele><time>2026-04-12T13:46:32.443Z</time></trkpt><trkpt lat="40.5386633" lon="16.5953117"><ele>77.0</ele><time>2026-04-12T13:46:33.439Z</time></trkpt><trkpt lat="40.5387683" lon="16.59507"><ele>77.0</ele><time>2026-04-12T13:46:34.439Z</time></trkpt><trkpt lat="40.5388717" lon="16.5948383"><ele>76.66666666666667</ele><time>2026-04-12T13:46:35.439Z</time></trkpt><trkpt lat="40.538975" lon="16.594615"><ele>76.33333333333333</ele><time>2026-04-12T13:46:36.44Z</time></trkpt><trkpt lat="40.5390767" lon="16.5943967"><ele>76.0</ele><time>2026-04-12T13:46:37.439Z</time></trkpt><trkpt lat="40.53918" lon="16.5941833"><ele>76.0</ele><time>2026-04-12T13:46:38.44Z</time></trkpt><trkpt lat="40.5392817" lon="16.59398"><ele>76.0</ele><time>2026-04-12T13:46:39.438Z</time></trkpt><trkpt lat="40.5393733" lon="16.5937867"><ele>76.0</ele><time>2026-04-12T13:46:40.442Z</time></trkpt><trkpt lat="40.5394533" lon="16.593605"><ele>76.25</ele><time>2026-04-12T13:46:41.439Z</time></trkpt><trkpt lat="40.5395283" lon="16.5934317"><ele>76.5</ele><time>2026-04-12T13:46:42.44Z</time></trkpt><trkpt lat="40.539605" lon="16.5932767"><ele>76.75</ele><time>2026-04-12T13:46:43.44Z</time></trkpt><trkpt lat="40.539695" lon="16.59315"><ele>77.0</ele><time>2026-04-12T13:46:44.44Z</time></trkpt><trkpt lat="40.5397983" lon="16.5930583"><ele>77.0</ele><time>2026-04-12T13:46:45.439Z</time></trkpt><trkpt lat="40.5399133" lon="16.593005"><ele>77.0</ele><time>2026-04-12T13:46:46.441Z</time></trkpt><trkpt lat="40.540035" lon="16.5929933"><ele>77.0</ele><time>2026-04-12T13:46:47.439Z</time></trkpt><trkpt lat="40.540165" lon="16.5930283"><ele>77.0</ele><time>2026-04-12T13:46:48.439Z</time></trkpt><trkpt lat="40.5402867" lon="16.5930717"><ele>76.5</ele><time>2026-04-12T13:46:49.438Z</time></trkpt><trkpt lat="40.54041" lon="16.593095"><ele>76.0</ele><time>2026-04-12T13:46:50.44Z</time></trkpt><trkpt lat="40.5405367" lon="16.5930767"><ele>75.5</ele><time>2026-04-12T13:46:51.439Z</time></trkpt><trkpt lat="40.5406567" lon="16.5930133"><ele>75.0</ele><time>2026-04-12T13:46:52.442Z</time></trkpt><trkpt lat="40.5407667" lon="16.5929083"><ele>75.0</ele><time>2026-04-12T13:46:53.439Z</time></trkpt><trkpt lat="40.5408633" lon="16.5927717"><ele>75.0</ele><time>2026-04-12T13:46:54.44Z</time></trkpt><trkpt lat="40.540945" lon="16.5926133"><ele>75.0</ele><time>2026-04-12T13:46:55.439Z</time></trkpt><trkpt lat="40.5410267" lon="16.5924433"><ele>75.0</ele><time>2026-04-12T13:46:56.44Z</time></trkpt><trkpt lat="40.5411017" lon="16.5922783"><ele>75.0</ele><time>2026-04-12T13:46:57.44Z</time></trkpt><trkpt lat="40.5411667" lon="16.59213"><ele>75.0</ele><time>2026-04-12T13:46:58.438Z</time></trkpt><trkpt lat="40.5412267" lon="16.5919983"><ele>75.0</ele><time>2026-04-12T13:46:59.439Z</time></trkpt><trkpt lat="40.541285" lon="16.5918833"><ele>75.0</ele><time>2026-04-12T13:47:00.439Z</time></trkpt><trkpt lat="40.5413483" lon="16.5917883"><ele>75.0</ele><time>2026-04-12T13:47:01.44Z</time></trkpt><trkpt lat="40.541415" lon="16.5917183"><ele>75.5</ele><time>2026-04-12T13:47:02.44Z</time></trkpt><trkpt lat="40.5414883" lon="16.5916817"><ele>76.0</ele><time>2026-04-12T13:47:03.439Z</time></trkpt><trkpt lat="40.5415667" lon="16.59167"><ele>76.5</ele><time>2026-04-12T13:47:04.44Z</time></trkpt><trkpt lat="40.5416467" lon="16.5916783"><ele>77.0</ele><time>2026-04-12T13:47:05.44Z</time></trkpt><trkpt lat="40.5417233" lon="16.59171"><ele>77.5</ele><time>2026-04-12T13:47:06.439Z</time></trkpt><trkpt lat="40.5417883" lon="16.59177"><ele>78.0</ele><time>2026-04-12T13:47:07.439Z</time></trkpt><trkpt lat="40.5418367" lon="16.59187"><ele>78.0</ele><time>2026-04-12T13:47:08.443Z</time></trkpt><trkpt lat="40.5418767" lon="16.5919967"><ele>78.0</ele><time>2026-04-12T13:47:09.442Z</time></trkpt><trkpt lat="40.54192" lon="16.5921333"><ele>78.0</ele><time>2026-04-12T13:47:10.439Z</time></trkpt><trkpt lat="40.5419583" lon="16.59228"><ele>78.0</ele><time>2026-04-12T13:47:11.441Z</time></trkpt><trkpt lat="40.5419917" lon="16.59243"><ele>77.4</ele><time>2026-04-12T13:47:12.44Z</time></trkpt><trkpt lat="40.5420183" lon="16.5925767"><ele>76.8</ele><time>2026-04-12T13:47:13.44Z</time></trkpt><trkpt lat="40.542045" lon="16.5927183"><ele>76.2</ele><time>2026-04-12T13:47:14.44Z</time></trkpt><trkpt lat="40.5420733" lon="16.5928567"><ele>75.6</ele><time>2026-04-12T13:47:15.441Z</time></trkpt><trkpt lat="40.5421" lon="16.59299"><ele>75.0</ele><time>2026-04-12T13:47:16.44Z</time></trkpt><trkpt lat="40.542125" lon="16.5931083"><ele>75.0</ele><time>2026-04-12T13:47:17.442Z</time></trkpt><trkpt lat="40.5421517" lon="16.59322"><ele>75.0</ele><time>2026-04-12T13:47:18.44Z</time></trkpt><trkpt lat="40.542185" lon="16.59333"><ele>75.0</ele><time>2026-04-12T13:47:19.44Z</time></trkpt><trkpt lat="40.5422183" lon="16.5934433"><ele>75.0</ele><time>2026-04-12T13:47:20.44Z</time></trkpt><trkpt lat="40.5422533" lon="16.59355"><ele>75.0</ele><time>2026-04-12T13:47:21.44Z</time></trkpt><trkpt lat="40.5422933" lon="16.5936583"><ele>74.66666666666667</ele><time>2026-04-12T13:47:22.441Z</time></trkpt><trkpt lat="40.5423317" lon="16.593765"><ele>74.33333333333333</ele><time>2026-04-12T13:47:23.444Z</time></trkpt><trkpt lat="40.54237" lon="16.5938733"><ele>74.0</ele><time>2026-04-12T13:47:24.439Z</time></trkpt><trkpt lat="40.5424083" lon="16.59398"><ele>73.66666666666666</ele><time>2026-04-12T13:47:25.439Z</time></trkpt><trkpt lat="40.542445" lon="16.5940833"><ele>73.33333333333333</ele><time>2026-04-12T13:47:26.44Z</time></trkpt><trkpt lat="40.5424767" lon="16.5941917"><ele>73.0</ele><time>2026-04-12T13:47:27.44Z</time></trkpt><trkpt lat="40.5425067" lon="16.5943033"><ele>73.0</ele><time>2026-04-12T13:47:28.439Z</time></trkpt><trkpt lat="40.5425383" lon="16.5944133"><ele>73.0</ele><time>2026-04-12T13:47:29.439Z</time></trkpt><trkpt lat="40.5425667" lon="16.5945217"><ele>73.0</ele><time>2026-04-12T13:47:30.441Z</time></trkpt><trkpt lat="40.5425917" lon="16.5946333"><ele>73.0</ele><time>2026-04-12T13:47:31.439Z</time></trkpt><trkpt lat="40.5426167" lon="16.594745"><ele>73.0</ele><time>2026-04-12T13:47:32.44Z</time></trkpt><trkpt lat="40.54264" lon="16.59486"><ele>73.0</ele><time>2026-04-12T13:47:33.439Z</time></trkpt><trkpt lat="40.542665" lon="16.5949783"><ele>73.0</ele><time>2026-04-12T13:47:34.439Z</time></trkpt><trkpt lat="40.5426833" lon="16.5951033"><ele>73.0</ele><time>2026-04-12T13:47:35.439Z</time></trkpt><trkpt lat="40.5427017" lon="16.5952333"><ele>73.0</ele><time>2026-04-12T13:47:36.44Z</time></trkpt><trkpt lat="40.5427183" lon="16.5953583"><ele>73.0</ele><time>2026-04-12T13:47:37.44Z</time></trkpt><trkpt lat="40.5427333" lon="16.59548"><ele>73.0</ele><time>2026-04-12T13:47:38.44Z</time></trkpt><trkpt lat="40.5427467" lon="16.595595"><ele>73.0</ele><time>2026-04-12T13:47:39.439Z</time></trkpt><trkpt lat="40.54276" lon="16.5957"><ele>73.0</ele><time>2026-04-12T13:47:40.439Z</time></trkpt><trkpt lat="40.542775" lon="16.5958067"><ele>73.0</ele><time>2026-04-12T13:47:41.439Z</time></trkpt><trkpt lat="40.5427917" lon="16.59591"><ele>73.0</ele><time>2026-04-12T13:47:42.44Z</time></trkpt><trkpt lat="40.5428083" lon="16.5960083"><ele>73.0</ele><time>2026-04-12T13:47:43.439Z</time></trkpt><trkpt lat="40.542825" lon="16.59611"><ele>73.0</ele><time>2026-04-12T13:47:44.44Z</time></trkpt><trkpt lat="40.5428417" lon="16.596215"><ele>72.66666666666666</ele><time>2026-04-12T13:47:45.439Z</time></trkpt><trkpt lat="40.5428567" lon="16.59632"><ele>72.33333333333333</ele><time>2026-04-12T13:47:46.439Z</time></trkpt><trkpt lat="40.5428717" lon="16.59642"><ele>72.0</ele><time>2026-04-12T13:47:47.441Z</time></trkpt><trkpt lat="40.5428867" lon="16.5965183"><ele>71.66666666666667</ele><time>2026-04-12T13:47:48.439Z</time></trkpt><trkpt lat="40.5429" lon="16.5966167"><ele>71.33333333333334</ele><time>2026-04-12T13:47:49.439Z</time></trkpt><trkpt lat="40.5429117" lon="16.5967117"><ele>71.0</ele><time>2026-04-12T13:47:50.439Z</time></trkpt><trkpt lat="40.5429283" lon="16.596805"><ele>70.83333333333334</ele><time>2026-04-12T13:47:51.44Z</time></trkpt><trkpt lat="40.542945" lon="16.5969017"><ele>70.66666666666667</ele><time>2026-04-12T13:47:52.439Z</time></trkpt><trkpt lat="40.5429633" lon="16.5969983"><ele>70.5</ele><time>2026-04-12T13:47:53.439Z</time></trkpt><trkpt lat="40.5429783" lon="16.5970983"><ele>70.33333333333333</ele><time>2026-04-12T13:47:54.44Z</time></trkpt><trkpt lat="40.5429867" lon="16.5972067"><ele>70.16666666666666</ele><time>2026-04-12T13:47:55.44Z</time></trkpt><trkpt lat="40.542995" lon="16.5973167"><ele>70.0</ele><time>2026-04-12T13:47:56.44Z</time></trkpt><trkpt lat="40.5430033" lon="16.59743"><ele>70.0</ele><time>2026-04-12T13:47:57.44Z</time></trkpt><trkpt lat="40.54301" lon="16.5975417"><ele>70.0</ele><time>2026-04-12T13:47:58.439Z</time></trkpt><trkpt lat="40.5430133" lon="16.597655"><ele>70.0</ele><time>2026-04-12T13:47:59.439Z</time></trkpt><trkpt lat="40.54302" lon="16.5977717"><ele>70.0</ele><time>2026-04-12T13:48:00.439Z</time></trkpt><trkpt lat="40.54303" lon="16.5978867"><ele>70.0</ele><time>2026-04-12T13:48:01.44Z</time></trkpt><trkpt lat="40.543045" lon="16.598"><ele>70.0</ele><time>2026-04-12T13:48:02.441Z</time></trkpt><trkpt lat="40.5430633" lon="16.5981133"><ele>69.66666666666666</ele><time>2026-04-12T13:48:03.44Z</time></trkpt><trkpt lat="40.5430817" lon="16.5982283"><ele>69.33333333333333</ele><time>2026-04-12T13:48:04.44Z</time></trkpt><trkpt lat="40.5431" lon="16.5983417"><ele>69.0</ele><time>2026-04-12T13:48:05.44Z</time></trkpt><trkpt lat="40.5431117" lon="16.5984517"><ele>68.66666666666667</ele><time>2026-04-12T13:48:06.44Z</time></trkpt><trkpt lat="40.543115" lon="16.5985567"><ele>68.33333333333334</ele><time>2026-04-12T13:48:07.439Z</time></trkpt><trkpt lat="40.5431067" lon="16.5986533"><ele>68.0</ele><time>2026-04-12T13:48:08.44Z</time></trkpt><trkpt lat="40.5430633" lon="16.5987967"><ele>67.5</ele><time>2026-04-12T13:48:10.438Z</time></trkpt><trkpt lat="40.542965" lon="16.5988733"><ele>67.0</ele><time>2026-04-12T13:48:12.438Z</time></trkpt><trkpt lat="40.5429017" lon="16.598885"><ele>66.5</ele><time>2026-04-12T13:48:13.438Z</time></trkpt><trkpt lat="40.54283" lon="16.598895"><ele>66.0</ele><time>2026-04-12T13:48:14.441Z</time></trkpt><trkpt lat="40.5427567" lon="16.598915"><ele>65.5</ele><time>2026-04-12T13:48:15.439Z</time></trkpt><trkpt lat="40.5426867" lon="16.59895"><ele>65.0</ele><time>2026-04-12T13:48:16.439Z</time></trkpt><trkpt lat="40.542625" lon="16.5990017"><ele>65.83333333333334</ele><time>2026-04-12T13:48:17.442Z</time></trkpt><trkpt lat="40.5425767" lon="16.59907"><ele>66.66666666666667</ele><time>2026-04-12T13:48:18.438Z</time></trkpt><trkpt lat="40.5425517" lon="16.5991633"><ele>67.5</ele><time>2026-04-12T13:48:19.438Z</time></trkpt><trkpt lat="40.5425617" lon="16.5992617"><ele>68.33333333333333</ele><time>2026-04-12T13:48:20.439Z</time></trkpt><trkpt lat="40.5426067" lon="16.59936"><ele>69.16666666666666</ele><time>2026-04-12T13:48:21.438Z</time></trkpt><trkpt lat="40.5426833" lon="16.59946"><ele>70.0</ele><time>2026-04-12T13:48:22.438Z</time></trkpt><trkpt lat="40.5427783" lon="16.5995533"><ele>68.75</ele><time>2026-04-12T13:48:23.438Z</time></trkpt><trkpt lat="40.5428833" lon="16.5996433"><ele>67.5</ele><time>2026-04-12T13:48:24.439Z</time></trkpt><trkpt lat="40.54299" lon="16.5997367"><ele>66.25</ele><time>2026-04-12T13:48:25.439Z</time></trkpt><trkpt lat="40.5430983" lon="16.5998383"><ele>65.0</ele><time>2026-04-12T13:48:26.439Z</time></trkpt><trkpt lat="40.54321" lon="16.599945"><ele>65.0</ele><time>2026-04-12T13:48:27.438Z</time></trkpt><trkpt lat="40.54333" lon="16.6000567"><ele>65.0</ele><time>2026-04-12T13:48:28.438Z</time></trkpt><trkpt lat="40.543455" lon="16.6001633"><ele>65.0</ele><time>2026-04-12T13:48:29.438Z</time></trkpt><trkpt lat="40.5435817" lon="16.6002733"><ele>65.0</ele><time>2026-04-12T13:48:30.438Z</time></trkpt><trkpt lat="40.5437" lon="16.6003833"><ele>64.8</ele><time>2026-04-12T13:48:31.439Z</time></trkpt><trkpt lat="40.5438033" lon="16.6004833"><ele>64.6</ele><time>2026-04-12T13:48:32.439Z</time></trkpt><trkpt lat="40.5438933" lon="16.6005733"><ele>64.4</ele><time>2026-04-12T13:48:33.439Z</time></trkpt><trkpt lat="40.5439733" lon="16.6006583"><ele>64.2</ele><time>2026-04-12T13:48:34.439Z</time></trkpt><trkpt lat="40.5440467" lon="16.60075"><ele>64.0</ele><time>2026-04-12T13:48:35.439Z</time></trkpt><trkpt lat="40.544105" lon="16.600865"><ele>64.0</ele><time>2026-04-12T13:48:36.439Z</time></trkpt><trkpt lat="40.544155" lon="16.601005"><ele>64.0</ele><time>2026-04-12T13:48:37.439Z</time></trkpt><trkpt lat="40.5442" lon="16.6011583"><ele>64.0</ele><time>2026-04-12T13:48:38.439Z</time></trkpt><trkpt lat="40.5442383" lon="16.6013133"><ele>64.0</ele><time>2026-04-12T13:48:39.438Z</time></trkpt><trkpt lat="40.5442783" lon="16.6014633"><ele>64.0</ele><time>2026-04-12T13:48:40.442Z</time></trkpt><trkpt lat="40.5443167" lon="16.6016083"><ele>64.0</ele><time>2026-04-12T13:48:41.439Z</time></trkpt><trkpt lat="40.5443517" lon="16.6017467"><ele>64.0</ele><time>2026-04-12T13:48:42.439Z</time></trkpt><trkpt lat="40.5443817" lon="16.6018817"><ele>64.0</ele><time>2026-04-12T13:48:43.44Z</time></trkpt><trkpt lat="40.54441" lon="16.6020167"><ele>64.0</ele><time>2026-04-12T13:48:44.439Z</time></trkpt><trkpt lat="40.5444417" lon="16.6021683"><ele>63.5</ele><time>2026-04-12T13:48:45.439Z</time></trkpt><trkpt lat="40.544475" lon="16.6023267"><ele>63.0</ele><time>2026-04-12T13:48:46.439Z</time></trkpt><trkpt lat="40.544505" lon="16.6024883"><ele>62.5</ele><time>2026-04-12T13:48:47.438Z</time></trkpt><trkpt lat="40.54453" lon="16.60265"><ele>62.0</ele><time>2026-04-12T13:48:48.438Z</time></trkpt><trkpt lat="40.5445517" lon="16.6028033"><ele>62.0</ele><time>2026-04-12T13:48:49.438Z</time></trkpt><trkpt lat="40.544565" lon="16.6029467"><ele>62.0</ele><time>2026-04-12T13:48:50.443Z</time></trkpt><trkpt lat="40.5445617" lon="16.6030817"><ele>62.0</ele><time>2026-04-12T13:48:51.439Z</time></trkpt><trkpt lat="40.5445333" lon="16.603215"><ele>62.0</ele><time>2026-04-12T13:48:52.439Z</time></trkpt><trkpt lat="40.5444783" lon="16.60335"><ele>62.0</ele><time>2026-04-12T13:48:53.438Z</time></trkpt><trkpt lat="40.544415" lon="16.6034917"><ele>62.2</ele><time>2026-04-12T13:48:54.439Z</time></trkpt><trkpt lat="40.544345" lon="16.6036283"><ele>62.400000000000006</ele><time>2026-04-12T13:48:55.439Z</time></trkpt><trkpt lat="40.5442717" lon="16.60375"><ele>62.599999999999994</ele><time>2026-04-12T13:48:56.439Z</time></trkpt><trkpt lat="40.5442067" lon="16.6038583"><ele>62.8</ele><time>2026-04-12T13:48:57.439Z</time></trkpt><trkpt lat="40.5441567" lon="16.6039667"><ele>63.0</ele><time>2026-04-12T13:48:58.439Z</time></trkpt><trkpt lat="40.5441267" lon="16.6040733"><ele>63.0</ele><time>2026-04-12T13:48:59.439Z</time></trkpt><trkpt lat="40.5441133" lon="16.6041867"><ele>63.0</ele><time>2026-04-12T13:49:00.438Z</time></trkpt><trkpt lat="40.5441117" lon="16.604315"><ele>63.0</ele><time>2026-04-12T13:49:01.439Z</time></trkpt><trkpt lat="40.54412" lon="16.6044567"><ele>63.0</ele><time>2026-04-12T13:49:02.439Z</time></trkpt><trkpt lat="40.5441467" lon="16.6046017"><ele>63.0</ele><time>2026-04-12T13:49:03.439Z</time></trkpt><trkpt lat="40.544195" lon="16.60473"><ele>62.599999999999994</ele><time>2026-04-12T13:49:04.439Z</time></trkpt><trkpt lat="40.5442617" lon="16.60484"><ele>62.199999999999996</ele><time>2026-04-12T13:49:05.438Z</time></trkpt><trkpt lat="40.544345" lon="16.604935"><ele>61.8</ele><time>2026-04-12T13:49:06.439Z</time></trkpt><trkpt lat="40.5444367" lon="16.6050183"><ele>61.4</ele><time>2026-04-12T13:49:07.438Z</time></trkpt><trkpt lat="40.544535" lon="16.6050983"><ele>61.0</ele><time>2026-04-12T13:49:08.438Z</time></trkpt><trkpt lat="40.544635" lon="16.6051817"><ele>61.0</ele><time>2026-04-12T13:49:09.438Z</time></trkpt><trkpt lat="40.5447317" lon="16.60528"><ele>61.0</ele><time>2026-04-12T13:49:10.438Z</time></trkpt><trkpt lat="40.5448217" lon="16.6053917"><ele>61.0</ele><time>2026-04-12T13:49:11.439Z</time></trkpt><trkpt lat="40.5449" lon="16.6055083"><ele>61.0</ele><time>2026-04-12T13:49:12.444Z</time></trkpt><trkpt lat="40.5449667" lon="16.6056133"><ele>61.8</ele><time>2026-04-12T13:49:13.438Z</time></trkpt><trkpt lat="40.545025" lon="16.6057083"><ele>62.599999999999994</ele><time>2026-04-12T13:49:14.439Z</time></trkpt><trkpt lat="40.5450717" lon="16.6058083"><ele>63.4</ele><time>2026-04-12T13:49:15.439Z</time></trkpt><trkpt lat="40.5451067" lon="16.60592"><ele>64.2</ele><time>2026-04-12T13:49:16.439Z</time></trkpt><trkpt lat="40.5451333" lon="16.606045"><ele>65.0</ele><time>2026-04-12T13:49:17.438Z</time></trkpt><trkpt lat="40.5451517" lon="16.6061767"><ele>65.0</ele><time>2026-04-12T13:49:18.438Z</time></trkpt><trkpt lat="40.5451633" lon="16.6063083"><ele>65.0</ele><time>2026-04-12T13:49:19.439Z</time></trkpt><trkpt lat="40.5451683" lon="16.6064467"><ele>65.0</ele><time>2026-04-12T13:49:20.439Z</time></trkpt><trkpt lat="40.545165" lon="16.6065883"><ele>65.0</ele><time>2026-04-12T13:49:21.44Z</time></trkpt><trkpt lat="40.5451567" lon="16.6067317"><ele>65.0</ele><time>2026-04-12T13:49:22.439Z</time></trkpt><trkpt lat="40.545155" lon="16.6068733"><ele>64.75</ele><time>2026-04-12T13:49:23.438Z</time></trkpt><trkpt lat="40.5451733" lon="16.6070233"><ele>64.5</ele><time>2026-04-12T13:49:24.438Z</time></trkpt><trkpt lat="40.5452133" lon="16.6071783"><ele>64.25</ele><time>2026-04-12T13:49:25.439Z</time></trkpt><trkpt lat="40.5452733" lon="16.607335"><ele>64.0</ele><time>2026-04-12T13:49:26.439Z</time></trkpt><trkpt lat="40.5453467" lon="16.6074967"><ele>62.666666666666664</ele><time>2026-04-12T13:49:27.44Z</time></trkpt><trkpt lat="40.545425" lon="16.607665"><ele>61.33333333333333</ele><time>2026-04-12T13:49:28.438Z</time></trkpt><trkpt lat="40.5454983" lon="16.607855"><ele>60.0</ele><time>2026-04-12T13:49:29.438Z</time></trkpt><trkpt lat="40.5455633" lon="16.6080483"><ele>60.0</ele><time>2026-04-12T13:49:30.438Z</time></trkpt><trkpt lat="40.545615" lon="16.6082367"><ele>60.0</ele><time>2026-04-12T13:49:31.439Z</time></trkpt><trkpt lat="40.5456533" lon="16.6084167"><ele>60.0</ele><time>2026-04-12T13:49:32.44Z</time></trkpt><trkpt lat="40.5456767" lon="16.6085883"><ele>60.0</ele><time>2026-04-12T13:49:33.439Z</time></trkpt><trkpt lat="40.5456883" lon="16.6087483"><ele>60.0</ele><time>2026-04-12T13:49:34.438Z</time></trkpt><trkpt lat="40.5456817" lon="16.6089"><ele>60.0</ele><time>2026-04-12T13:49:35.439Z</time></trkpt><trkpt lat="40.5456667" lon="16.609055"><ele>60.0</ele><time>2026-04-12T13:49:36.441Z</time></trkpt><trkpt lat="40.545635" lon="16.609215"><ele>60.0</ele><time>2026-04-12T13:49:37.44Z</time></trkpt><trkpt lat="40.5455983" lon="16.6093683"><ele>59.5</ele><time>2026-04-12T13:49:38.439Z</time></trkpt><trkpt lat="40.54555" lon="16.609515"><ele>59.0</ele><time>2026-04-12T13:49:39.44Z</time></trkpt><trkpt lat="40.545495" lon="16.6096517"><ele>58.5</ele><time>2026-04-12T13:49:40.441Z</time></trkpt><trkpt lat="40.545435" lon="16.6097817"><ele>58.0</ele><time>2026-04-12T13:49:41.438Z</time></trkpt><trkpt lat="40.5453683" lon="16.6098983"><ele>60.4</ele><time>2026-04-12T13:49:42.439Z</time></trkpt><trkpt lat="40.5453017" lon="16.6100067"><ele>62.8</ele><time>2026-04-12T13:49:43.438Z</time></trkpt><trkpt lat="40.5452417" lon="16.6101167"><ele>65.2</ele><time>2026-04-12T13:49:44.44Z</time></trkpt><trkpt lat="40.5451883" lon="16.6102333"><ele>67.6</ele><time>2026-04-12T13:49:45.441Z</time></trkpt><trkpt lat="40.5451533" lon="16.6103533"><ele>70.0</ele><time>2026-04-12T13:49:46.439Z</time></trkpt><trkpt lat="40.5451367" lon="16.6104767"><ele>70.0</ele><time>2026-04-12T13:49:47.439Z</time></trkpt><trkpt lat="40.5451417" lon="16.6106067"><ele>70.0</ele><time>2026-04-12T13:49:48.438Z</time></trkpt><trkpt lat="40.5451683" lon="16.610735"><ele>70.0</ele><time>2026-04-12T13:49:49.44Z</time></trkpt><trkpt lat="40.54522" lon="16.6108633"><ele>70.0</ele><time>2026-04-12T13:49:50.44Z</time></trkpt><trkpt lat="40.5452867" lon="16.6109883"><ele>70.0</ele><time>2026-04-12T13:49:51.439Z</time></trkpt><trkpt lat="40.5453583" lon="16.61112"><ele>66.5</ele><time>2026-04-12T13:49:52.439Z</time></trkpt><trkpt lat="40.545425" lon="16.6112583"><ele>63.0</ele><time>2026-04-12T13:49:53.439Z</time></trkpt><trkpt lat="40.5454867" lon="16.6114083"><ele>59.5</ele><time>2026-04-12T13:49:54.439Z</time></trkpt><trkpt lat="40.5455433" lon="16.6115617"><ele>56.0</ele><time>2026-04-12T13:49:55.439Z</time></trkpt><trkpt lat="40.5455917" lon="16.61169"><ele>56.0</ele><time>2026-04-12T13:49:56.439Z</time></trkpt><trkpt lat="40.545625" lon="16.6118167"><ele>55.99999999999999</ele><time>2026-04-12T13:49:57.438Z</time></trkpt><trkpt lat="40.5456283" lon="16.6119517"><ele>55.99999999999999</ele><time>2026-04-12T13:49:58.438Z</time></trkpt><trkpt lat="40.5456067" lon="16.6120967"><ele>56.0</ele><time>2026-04-12T13:49:59.439Z</time></trkpt><trkpt lat="40.5455783" lon="16.61224"><ele>56.0</ele><time>2026-04-12T13:50:00.439Z</time></trkpt><trkpt lat="40.545545" lon="16.61239"><ele>56.5</ele><time>2026-04-12T13:50:01.439Z</time></trkpt><trkpt lat="40.5455083" lon="16.6125583"><ele>57.0</ele><time>2026-04-12T13:50:02.439Z</time></trkpt><trkpt lat="40.54547" lon="16.61274"><ele>57.5</ele><time>2026-04-12T13:50:03.439Z</time></trkpt><trkpt lat="40.5454283" lon="16.6129367"><ele>58.0</ele><time>2026-04-12T13:50:04.438Z</time></trkpt><trkpt lat="40.54539" lon="16.6131433"><ele>58.0</ele><time>2026-04-12T13:50:05.439Z</time></trkpt><trkpt lat="40.5453483" lon="16.6133467"><ele>58.0</ele><time>2026-04-12T13:50:06.439Z</time></trkpt><trkpt lat="40.5453083" lon="16.61354"><ele>58.0</ele><time>2026-04-12T13:50:07.441Z</time></trkpt><trkpt lat="40.54527" lon="16.613725"><ele>57.75</ele><time>2026-04-12T13:50:08.438Z</time></trkpt><trkpt lat="40.54523" lon="16.6138983"><ele>57.5</ele><time>2026-04-12T13:50:09.438Z</time></trkpt><trkpt lat="40.5451933" lon="16.614065"><ele>57.25</ele><time>2026-04-12T13:50:10.438Z</time></trkpt><trkpt lat="40.5451583" lon="16.61423"><ele>57.0</ele><time>2026-04-12T13:50:11.439Z</time></trkpt><trkpt lat="40.5451217" lon="16.6143967"><ele>57.0</ele><time>2026-04-12T13:50:12.44Z</time></trkpt><trkpt lat="40.5450883" lon="16.6145667"><ele>57.0</ele><time>2026-04-12T13:50:13.439Z</time></trkpt><trkpt lat="40.5450533" lon="16.6147317"><ele>57.0</ele><time>2026-04-12T13:50:14.439Z</time></trkpt><trkpt lat="40.545015" lon="16.6148933"><ele>57.0</ele><time>2026-04-12T13:50:15.439Z</time></trkpt><trkpt lat="40.544975" lon="16.6150617"><ele>57.0</ele><time>2026-04-12T13:50:16.439Z</time></trkpt><trkpt lat="40.54494" lon="16.6152433"><ele>57.0</ele><time>2026-04-12T13:50:17.439Z</time></trkpt><trkpt lat="40.5449" lon="16.6154333"><ele>57.0</ele><time>2026-04-12T13:50:18.439Z</time></trkpt><trkpt lat="40.5448617" lon="16.61562"><ele>57.0</ele><time>2026-04-12T13:50:19.438Z</time></trkpt><trkpt lat="40.5448233" lon="16.6158033"><ele>56.75</ele><time>2026-04-12T13:50:20.439Z</time></trkpt><trkpt lat="40.5447833" lon="16.6159783"><ele>56.5</ele><time>2026-04-12T13:50:21.439Z</time></trkpt><trkpt lat="40.544745" lon="16.61615"><ele>56.25</ele><time>2026-04-12T13:50:22.439Z</time></trkpt><trkpt lat="40.5447067" lon="16.6163183"><ele>56.0</ele><time>2026-04-12T13:50:23.439Z</time></trkpt><trkpt lat="40.5446733" lon="16.6164867"><ele>56.25</ele><time>2026-04-12T13:50:24.44Z</time></trkpt><trkpt lat="40.5446367" lon="16.6166567"><ele>56.5</ele><time>2026-04-12T13:50:25.439Z</time></trkpt><trkpt lat="40.5446017" lon="16.6168317"><ele>56.75</ele><time>2026-04-12T13:50:26.439Z</time></trkpt><trkpt lat="40.5445633" lon="16.6170083"><ele>57.0</ele><time>2026-04-12T13:50:27.439Z</time></trkpt><trkpt lat="40.5445267" lon="16.6171817"><ele>57.0</ele><time>2026-04-12T13:50:28.438Z</time></trkpt><trkpt lat="40.5444917" lon="16.6173567"><ele>57.0</ele><time>2026-04-12T13:50:29.439Z</time></trkpt><trkpt lat="40.544455" lon="16.61753"><ele>57.0</ele><time>2026-04-12T13:50:30.438Z</time></trkpt><trkpt lat="40.544415" lon="16.6176933"><ele>57.0</ele><time>2026-04-12T13:50:31.439Z</time></trkpt><trkpt lat="40.544375" lon="16.6178583"><ele>56.75</ele><time>2026-04-12T13:50:32.439Z</time></trkpt><trkpt lat="40.54434" lon="16.618025"><ele>56.5</ele><time>2026-04-12T13:50:33.439Z</time></trkpt><trkpt lat="40.544305" lon="16.61819"><ele>56.25</ele><time>2026-04-12T13:50:34.439Z</time></trkpt><trkpt lat="40.5442683" lon="16.6183533"><ele>56.0</ele><time>2026-04-12T13:50:35.439Z</time></trkpt><trkpt lat="40.5442283" lon="16.61852"><ele>55.5</ele><time>2026-04-12T13:50:36.439Z</time></trkpt><trkpt lat="40.54419" lon="16.6186983"><ele>55.0</ele><time>2026-04-12T13:50:37.44Z</time></trkpt><trkpt lat="40.5441533" lon="16.61888"><ele>54.5</ele><time>2026-04-12T13:50:38.439Z</time></trkpt><trkpt lat="40.5441183" lon="16.6190683"><ele>54.0</ele><time>2026-04-12T13:50:39.439Z</time></trkpt><trkpt lat="40.5440817" lon="16.6192583"><ele>54.0</ele><time>2026-04-12T13:50:40.439Z</time></trkpt><trkpt lat="40.5440433" lon="16.61945"><ele>54.0</ele><time>2026-04-12T13:50:41.439Z</time></trkpt><trkpt lat="40.5440033" lon="16.6196367"><ele>54.0</ele><time>2026-04-12T13:50:42.439Z</time></trkpt><trkpt lat="40.5439633" lon="16.6198217"><ele>54.0</ele><time>2026-04-12T13:50:43.439Z</time></trkpt><trkpt lat="40.543925" lon="16.6199967"><ele>54.5</ele><time>2026-04-12T13:50:44.439Z</time></trkpt><trkpt lat="40.5438917" lon="16.6201583"><ele>55.0</ele><time>2026-04-12T13:50:45.439Z</time></trkpt><trkpt lat="40.5438533" lon="16.6203233"><ele>55.5</ele><time>2026-04-12T13:50:46.439Z</time></trkpt><trkpt lat="40.5438167" lon="16.6204817"><ele>56.0</ele><time>2026-04-12T13:50:47.44Z</time></trkpt><trkpt lat="40.543785" lon="16.6206317"><ele>56.0</ele><time>2026-04-12T13:50:48.438Z</time></trkpt><trkpt lat="40.543755" lon="16.6207667"><ele>55.99999999999999</ele><time>2026-04-12T13:50:49.438Z</time></trkpt><trkpt lat="40.543725" lon="16.6208883"><ele>55.99999999999999</ele><time>2026-04-12T13:50:50.438Z</time></trkpt><trkpt lat="40.5437083" lon="16.6209967"><ele>56.0</ele><time>2026-04-12T13:50:51.44Z</time></trkpt><trkpt lat="40.5437083" lon="16.6211117"><ele>56.0</ele><time>2026-04-12T13:50:52.438Z</time></trkpt><trkpt lat="40.54374" lon="16.621245"><ele>55.199999999999996</ele><time>2026-04-12T13:50:53.438Z</time></trkpt><trkpt lat="40.5437833" lon="16.6213883"><ele>54.39999999999999</ele><time>2026-04-12T13:50:54.439Z</time></trkpt><trkpt lat="40.5438333" lon="16.621525"><ele>53.6</ele><time>2026-04-12T13:50:55.439Z</time></trkpt><trkpt lat="40.5438783" lon="16.6216583"><ele>52.8</ele><time>2026-04-12T13:50:56.44Z</time></trkpt><trkpt lat="40.54391" lon="16.621785"><ele>52.0</ele><time>2026-04-12T13:50:57.439Z</time></trkpt><trkpt lat="40.5439333" lon="16.6218983"><ele>50.666666666666664</ele><time>2026-04-12T13:50:58.439Z</time></trkpt><trkpt lat="40.543945" lon="16.6220017"><ele>49.33333333333333</ele><time>2026-04-12T13:50:59.439Z</time></trkpt><trkpt lat="40.5439417" lon="16.6221"><ele>48.0</ele><time>2026-04-12T13:51:00.439Z</time></trkpt><trkpt lat="40.5439267" lon="16.6221983"><ele>46.666666666666664</ele><time>2026-04-12T13:51:01.44Z</time></trkpt><trkpt lat="40.5439117" lon="16.6222967"><ele>45.33333333333333</ele><time>2026-04-12T13:51:02.439Z</time></trkpt><trkpt lat="40.5438967" lon="16.6223967"><ele>44.0</ele><time>2026-04-12T13:51:03.439Z</time></trkpt><trkpt lat="40.5438783" lon="16.6225"><ele>44.0</ele><time>2026-04-12T13:51:04.439Z</time></trkpt><trkpt lat="40.5438617" lon="16.6226033"><ele>44.0</ele><time>2026-04-12T13:51:05.439Z</time></trkpt><trkpt lat="40.5438433" lon="16.62271"><ele>44.0</ele><time>2026-04-12T13:51:06.44Z</time></trkpt><trkpt lat="40.5438233" lon="16.6228217"><ele>44.0</ele><time>2026-04-12T13:51:07.439Z</time></trkpt><trkpt lat="40.543805" lon="16.6229383"><ele>44.0</ele><time>2026-04-12T13:51:08.438Z</time></trkpt><trkpt lat="40.5437883" lon="16.62306"><ele>44.0</ele><time>2026-04-12T13:51:09.438Z</time></trkpt><trkpt lat="40.5437683" lon="16.62318"><ele>43.5</ele><time>2026-04-12T13:51:10.438Z</time></trkpt><trkpt lat="40.5437517" lon="16.6232983"><ele>43.0</ele><time>2026-04-12T13:51:11.439Z</time></trkpt><trkpt lat="40.5437367" lon="16.6233983"><ele>42.5</ele><time>2026-04-12T13:51:12.439Z</time></trkpt><trkpt lat="40.5437333" lon="16.6234817"><ele>42.0</ele><time>2026-04-12T13:51:13.439Z</time></trkpt><trkpt lat="40.543715" lon="16.623615"><ele>41.5</ele><time>2026-04-12T13:51:15.439Z</time></trkpt><trkpt lat="40.5436983" lon="16.6237417"><ele>41.0</ele><time>2026-04-12T13:51:17.439Z</time></trkpt><trkpt lat="40.5436883" lon="16.6238333"><ele>41.0</ele><time>2026-04-12T13:51:18.439Z</time></trkpt><trkpt lat="40.5436717" lon="16.6239483"><ele>41.0</ele><time>2026-04-12T13:51:19.439Z</time></trkpt><trkpt lat="40.5436517" lon="16.6240867"><ele>41.0</ele><time>2026-04-12T13:51:20.44Z</time></trkpt><trkpt lat="40.5436267" lon="16.6242417"><ele>41.0</ele><time>2026-04-12T13:51:21.439Z</time></trkpt><trkpt lat="40.543605" lon="16.6243967"><ele>41.0</ele><time>2026-04-12T13:51:22.439Z</time></trkpt><trkpt lat="40.5435833" lon="16.6245367"><ele>41.599999999999994</ele><time>2026-04-12T13:51:23.438Z</time></trkpt><trkpt lat="40.5435633" lon="16.624675"><ele>42.2</ele><time>2026-04-12T13:51:24.439Z</time></trkpt><trkpt lat="40.54354" lon="16.62481"><ele>42.8</ele><time>2026-04-12T13:51:25.444Z</time></trkpt><trkpt lat="40.5435167" lon="16.6249483"><ele>43.400000000000006</ele><time>2026-04-12T13:51:26.439Z</time></trkpt><trkpt lat="40.5434967" lon="16.625085"><ele>44.0</ele><time>2026-04-12T13:51:27.439Z</time></trkpt><trkpt lat="40.5434767" lon="16.6252167"><ele>45.400000000000006</ele><time>2026-04-12T13:51:28.441Z</time></trkpt><trkpt lat="40.5434567" lon="16.62535"><ele>46.8</ele><time>2026-04-12T13:51:29.438Z</time></trkpt><trkpt lat="40.54344" lon="16.6254783"><ele>48.2</ele><time>2026-04-12T13:51:30.438Z</time></trkpt><trkpt lat="40.5434283" lon="16.6256067"><ele>49.599999999999994</ele><time>2026-04-12T13:51:31.44Z</time></trkpt><trkpt lat="40.5434367" lon="16.6257517"><ele>51.0</ele><time>2026-04-12T13:51:32.44Z</time></trkpt><trkpt lat="40.5434467" lon="16.62591"><ele>51.0</ele><time>2026-04-12T13:51:33.438Z</time></trkpt><trkpt lat="40.5434567" lon="16.626075"><ele>51.0</ele><time>2026-04-12T13:51:34.439Z</time></trkpt><trkpt lat="40.5434683" lon="16.6262483"><ele>51.0</ele><time>2026-04-12T13:51:35.439Z</time></trkpt><trkpt lat="40.5434867" lon="16.62641"><ele>51.0</ele><time>2026-04-12T13:51:36.438Z</time></trkpt><trkpt lat="40.5435067" lon="16.6265617"><ele>52.0</ele><time>2026-04-12T13:51:37.438Z</time></trkpt><trkpt lat="40.5435283" lon="16.62671"><ele>53.0</ele><time>2026-04-12T13:51:38.439Z</time></trkpt><trkpt lat="40.5435433" lon="16.6268783"><ele>54.0</ele><time>2026-04-12T13:51:39.439Z</time></trkpt><trkpt lat="40.5435583" lon="16.627075"><ele>55.0</ele><time>2026-04-12T13:51:40.439Z</time></trkpt><trkpt lat="40.5435867" lon="16.6272917"><ele>55.0</ele><time>2026-04-12T13:51:41.439Z</time></trkpt><trkpt lat="40.5436183" lon="16.6275233"><ele>55.0</ele><time>2026-04-12T13:51:42.438Z</time></trkpt><trkpt lat="40.5436417" lon="16.627745"><ele>55.0</ele><time>2026-04-12T13:51:43.439Z</time></trkpt><trkpt lat="40.5436617" lon="16.6279567"><ele>55.0</ele><time>2026-04-12T13:51:44.44Z</time></trkpt><trkpt lat="40.5436767" lon="16.6281533"><ele>55.0</ele><time>2026-04-12T13:51:45.439Z</time></trkpt><trkpt lat="40.5436917" lon="16.62834"><ele>55.0</ele><time>2026-04-12T13:51:46.439Z</time></trkpt><trkpt lat="40.5437083" lon="16.628525"><ele>55.0</ele><time>2026-04-12T13:51:47.439Z</time></trkpt><trkpt lat="40.5437283" lon="16.6287117"><ele>55.0</ele><time>2026-04-12T13:51:48.438Z</time></trkpt><trkpt lat="40.5437467" lon="16.6288933"><ele>55.0</ele><time>2026-04-12T13:51:49.438Z</time></trkpt><trkpt lat="40.5437633" lon="16.62908"><ele>55.0</ele><time>2026-04-12T13:51:50.438Z</time></trkpt><trkpt lat="40.5437767" lon="16.6292717"><ele>55.0</ele><time>2026-04-12T13:51:51.438Z</time></trkpt><trkpt lat="40.543785" lon="16.6294617"><ele>55.0</ele><time>2026-04-12T13:51:52.439Z</time></trkpt><trkpt lat="40.543785" lon="16.6296583"><ele>55.0</ele><time>2026-04-12T13:51:53.439Z</time></trkpt><trkpt lat="40.543775" lon="16.62985"><ele>55.0</ele><time>2026-04-12T13:51:54.439Z</time></trkpt><trkpt lat="40.5437667" lon="16.630025"><ele>55.0</ele><time>2026-04-12T13:51:55.438Z</time></trkpt><trkpt lat="40.543765" lon="16.6301767"><ele>54.99999999999999</ele><time>2026-04-12T13:51:56.439Z</time></trkpt><trkpt lat="40.5437633" lon="16.6303133"><ele>55.0</ele><time>2026-04-12T13:51:57.439Z</time></trkpt><trkpt lat="40.543765" lon="16.6304333"><ele>55.0</ele><time>2026-04-12T13:51:58.439Z</time></trkpt><trkpt lat="40.5437767" lon="16.6305417"><ele>55.0</ele><time>2026-04-12T13:51:59.439Z</time></trkpt><trkpt lat="40.5437983" lon="16.6306517"><ele>54.99999999999999</ele><time>2026-04-12T13:52:00.439Z</time></trkpt><trkpt lat="40.5438267" lon="16.6307567"><ele>55.0</ele><time>2026-04-12T13:52:01.439Z</time></trkpt><trkpt lat="40.5438533" lon="16.6308433"><ele>55.0</ele><time>2026-04-12T13:52:02.439Z</time></trkpt><trkpt lat="40.5439117" lon="16.63096"><ele>55.0</ele><time>2026-04-12T13:52:04.439Z</time></trkpt><trkpt lat="40.5439783" lon="16.6310733"><ele>55.0</ele><time>2026-04-12T13:52:06.439Z</time></trkpt><trkpt lat="40.54402" lon="16.6311717"><ele>55.0</ele><time>2026-04-12T13:52:07.439Z</time></trkpt><trkpt lat="40.54405" lon="16.6313067"><ele>55.0</ele><time>2026-04-12T13:52:08.439Z</time></trkpt><trkpt lat="40.5440683" lon="16.6314383"><ele>55.49999999999999</ele><time>2026-04-12T13:52:09.438Z</time></trkpt><trkpt lat="40.544085" lon="16.63155"><ele>56.0</ele><time>2026-04-12T13:52:10.439Z</time></trkpt><trkpt lat="40.544105" lon="16.631645"><ele>56.5</ele><time>2026-04-12T13:52:11.439Z</time></trkpt><trkpt lat="40.5441267" lon="16.6317683"><ele>57.0</ele><time>2026-04-12T13:52:13.438Z</time></trkpt><trkpt lat="40.5441717" lon="16.631875"><ele>57.49999999999999</ele><time>2026-04-12T13:52:31.439Z</time></trkpt><trkpt lat="40.5442467" lon="16.6318567"><ele>58.0</ele><time>2026-04-12T13:52:33.438Z</time></trkpt><trkpt lat="40.544325" lon="16.6318217"><ele>58.0</ele><time>2026-04-12T13:52:35.44Z</time></trkpt><trkpt lat="40.5444117" lon="16.6317917"><ele>58.0</ele><time>2026-04-12T13:52:37.439Z</time></trkpt><trkpt lat="40.5445033" lon="16.6317717"><ele>58.0</ele><time>2026-04-12T13:52:39.439Z</time></trkpt><trkpt lat="40.5446" lon="16.6317367"><ele>58.0</ele><time>2026-04-12T13:52:41.439Z</time></trkpt><trkpt lat="40.5446967" lon="16.6317117"><ele>58.0</ele><time>2026-04-12T13:52:43.44Z</time></trkpt><trkpt lat="40.5447983" lon="16.6316817"><ele>58.0</ele><time>2026-04-12T13:52:45.44Z</time></trkpt><trkpt lat="40.544905" lon="16.6316783"><ele>58.0</ele><time>2026-04-12T13:52:47.44Z</time></trkpt><trkpt lat="40.5450117" lon="16.6316667"><ele>58.0</ele><time>2026-04-12T13:52:49.439Z</time></trkpt><trkpt lat="40.54512" lon="16.6316767"><ele>58.0</ele><time>2026-04-12T13:52:51.439Z</time></trkpt><trkpt lat="40.5452333" lon="16.6316967"><ele>58.0</ele><time>2026-04-12T13:52:53.44Z</time></trkpt><trkpt lat="40.5453467" lon="16.6317167"><ele>57.8</ele><time>2026-04-12T13:52:55.442Z</time></trkpt><trkpt lat="40.545465" lon="16.6317467"><ele>57.599999999999994</ele><time>2026-04-12T13:52:57.438Z</time></trkpt><trkpt lat="40.5455833" lon="16.63178"><ele>57.400000000000006</ele><time>2026-04-12T13:52:59.439Z</time></trkpt><trkpt lat="40.545705" lon="16.63182"><ele>57.2</ele><time>2026-04-12T13:53:01.439Z</time></trkpt><trkpt lat="40.5457667" lon="16.6318417"><ele>57.0</ele><time>2026-04-12T13:53:02.44Z</time></trkpt><trkpt lat="40.5458283" lon="16.631865"><ele>57.0</ele><time>2026-04-12T13:53:03.439Z</time></trkpt><trkpt lat="40.545895" lon="16.6318917"><ele>56.99999999999999</ele><time>2026-04-12T13:53:04.439Z</time></trkpt><trkpt lat="40.54596" lon="16.6319167"><ele>57.0</ele><time>2026-04-12T13:53:05.439Z</time></trkpt><trkpt lat="40.5460267" lon="16.631945"><ele>57.0</ele><time>2026-04-12T13:53:06.439Z</time></trkpt><trkpt lat="40.5460967" lon="16.63197"><ele>56.99999999999999</ele><time>2026-04-12T13:53:07.442Z</time></trkpt><trkpt lat="40.5461717" lon="16.6319983"><ele>57.0</ele><time>2026-04-12T13:53:08.439Z</time></trkpt><trkpt lat="40.5462483" lon="16.6320283"><ele>57.0</ele><time>2026-04-12T13:53:09.438Z</time></trkpt><trkpt lat="40.5463217" lon="16.6320617"><ele>57.71428571428571</ele><time>2026-04-12T13:53:10.438Z</time></trkpt><trkpt lat="40.546395" lon="16.6320933"><ele>58.42857142857142</ele><time>2026-04-12T13:53:11.439Z</time></trkpt><trkpt lat="40.546465" lon="16.632125"><ele>59.14285714285714</ele><time>2026-04-12T13:53:12.439Z</time></trkpt><trkpt lat="40.546535" lon="16.6321533"><ele>59.85714285714286</ele><time>2026-04-12T13:53:13.439Z</time></trkpt><trkpt lat="40.5466017" lon="16.6321817"><ele>60.57142857142858</ele><time>2026-04-12T13:53:14.44Z</time></trkpt><trkpt lat="40.5466667" lon="16.6322117"><ele>61.28571428571429</ele><time>2026-04-12T13:53:15.439Z</time></trkpt><trkpt lat="40.5467317" lon="16.6322433"><ele>62.0</ele><time>2026-04-12T13:53:16.439Z</time></trkpt><trkpt lat="40.546795" lon="16.6322717"><ele>62.00000000000001</ele><time>2026-04-12T13:53:17.439Z</time></trkpt><trkpt lat="40.5468583" lon="16.6322917"><ele>62.0</ele><time>2026-04-12T13:53:18.439Z</time></trkpt><trkpt lat="40.54698" lon="16.6323083"><ele>62.0</ele><time>2026-04-12T13:53:20.44Z</time></trkpt><trkpt lat="40.547045" lon="16.6323033"><ele>62.0</ele><time>2026-04-12T13:53:21.44Z</time></trkpt><trkpt lat="40.54711" lon="16.6322933"><ele>62.00000000000001</ele><time>2026-04-12T13:53:22.44Z</time></trkpt><trkpt lat="40.5471767" lon="16.6322833"><ele>62.0</ele><time>2026-04-12T13:53:23.442Z</time></trkpt><trkpt lat="40.5472433" lon="16.63227"><ele>61.50000000000001</ele><time>2026-04-12T13:53:24.439Z</time></trkpt><trkpt lat="40.547315" lon="16.6322533"><ele>61.0</ele><time>2026-04-12T13:53:25.441Z</time></trkpt><trkpt lat="40.54739" lon="16.6322367"><ele>60.5</ele><time>2026-04-12T13:53:26.439Z</time></trkpt><trkpt lat="40.5474667" lon="16.6322217"><ele>60.0</ele><time>2026-04-12T13:53:27.439Z</time></trkpt><trkpt lat="40.5475433" lon="16.6322017"><ele>59.50000000000001</ele><time>2026-04-12T13:53:28.438Z</time></trkpt><trkpt lat="40.5476233" lon="16.632185"><ele>59.0</ele><time>2026-04-12T13:53:29.44Z</time></trkpt><trkpt lat="40.5477017" lon="16.6321633"><ele>59.00000000000001</ele><time>2026-04-12T13:53:30.438Z</time></trkpt><trkpt lat="40.5477767" lon="16.6321417"><ele>59.0</ele><time>2026-04-12T13:53:31.439Z</time></trkpt><trkpt lat="40.5478533" lon="16.6321233"><ele>59.0</ele><time>2026-04-12T13:53:32.44Z</time></trkpt><trkpt lat="40.547935" lon="16.6321033"><ele>59.0</ele><time>2026-04-12T13:53:33.44Z</time></trkpt><trkpt lat="40.5480167" lon="16.63208"><ele>59.00000000000001</ele><time>2026-04-12T13:53:34.439Z</time></trkpt><trkpt lat="40.5481017" lon="16.6320583"><ele>59.0</ele><time>2026-04-12T13:53:35.439Z</time></trkpt><trkpt lat="40.54819" lon="16.6320367"><ele>59.0</ele><time>2026-04-12T13:53:36.439Z</time></trkpt><trkpt lat="40.5482833" lon="16.632015"><ele>59.00000000000001</ele><time>2026-04-12T13:53:37.439Z</time></trkpt><trkpt lat="40.5483767" lon="16.6319983"><ele>59.00000000000001</ele><time>2026-04-12T13:53:38.441Z</time></trkpt><trkpt lat="40.54847" lon="16.6319817"><ele>59.0</ele><time>2026-04-12T13:53:39.439Z</time></trkpt><trkpt lat="40.5485667" lon="16.6319633"><ele>59.0</ele><time>2026-04-12T13:53:40.439Z</time></trkpt><trkpt lat="40.5486633" lon="16.6319433"><ele>58.800000000000004</ele><time>2026-04-12T13:53:41.439Z</time></trkpt><trkpt lat="40.548765" lon="16.6319217"><ele>58.60000000000001</ele><time>2026-04-12T13:53:42.439Z</time></trkpt><trkpt lat="40.5488617" lon="16.6318983"><ele>58.4</ele><time>2026-04-12T13:53:43.439Z</time></trkpt><trkpt lat="40.5489567" lon="16.6318733"><ele>58.2</ele><time>2026-04-12T13:53:44.44Z</time></trkpt><trkpt lat="40.5490567" lon="16.63185"><ele>58.0</ele><time>2026-04-12T13:53:45.44Z</time></trkpt><trkpt lat="40.5491583" lon="16.6318317"><ele>58.0</ele><time>2026-04-12T13:53:46.439Z</time></trkpt><trkpt lat="40.5492567" lon="16.6318083"><ele>58.0</ele><time>2026-04-12T13:53:47.439Z</time></trkpt><trkpt lat="40.5493533" lon="16.6317867"><ele>58.0</ele><time>2026-04-12T13:53:48.438Z</time></trkpt><trkpt lat="40.54945" lon="16.6317667"><ele>58.0</ele><time>2026-04-12T13:53:49.439Z</time></trkpt><trkpt lat="40.549555" lon="16.6317483"><ele>58.0</ele><time>2026-04-12T13:53:50.439Z</time></trkpt><trkpt lat="40.549665" lon="16.6317233"><ele>58.75</ele><time>2026-04-12T13:53:51.44Z</time></trkpt><trkpt lat="40.549775" lon="16.63169"><ele>59.5</ele><time>2026-04-12T13:53:52.439Z</time></trkpt><trkpt lat="40.5498933" lon="16.631655"><ele>60.25</ele><time>2026-04-12T13:53:53.438Z</time></trkpt><trkpt lat="40.55002" lon="16.6316133"><ele>61.0</ele><time>2026-04-12T13:53:54.441Z</time></trkpt><trkpt lat="40.55015" lon="16.6315617"><ele>61.0</ele><time>2026-04-12T13:53:55.439Z</time></trkpt><trkpt lat="40.5502783" lon="16.6315033"><ele>61.0</ele><time>2026-04-12T13:53:56.44Z</time></trkpt><trkpt lat="40.550405" lon="16.6314417"><ele>61.0</ele><time>2026-04-12T13:53:57.439Z</time></trkpt><trkpt lat="40.5505333" lon="16.63138"><ele>61.0</ele><time>2026-04-12T13:53:58.439Z</time></trkpt><trkpt lat="40.550665" lon="16.6313183"><ele>60.5</ele><time>2026-04-12T13:53:59.441Z</time></trkpt><trkpt lat="40.5507983" lon="16.6312533"><ele>60.0</ele><time>2026-04-12T13:54:00.441Z</time></trkpt><trkpt lat="40.5509333" lon="16.6311833"><ele>59.5</ele><time>2026-04-12T13:54:01.439Z</time></trkpt><trkpt lat="40.5510717" lon="16.6311133"><ele>59.0</ele><time>2026-04-12T13:54:02.439Z</time></trkpt><trkpt lat="40.5512067" lon="16.6310417"><ele>59.75</ele><time>2026-04-12T13:54:03.441Z</time></trkpt><trkpt lat="40.5513467" lon="16.6309717"><ele>60.5</ele><time>2026-04-12T13:54:04.442Z</time></trkpt><trkpt lat="40.551485" lon="16.6309017"><ele>61.25</ele><time>2026-04-12T13:54:05.439Z</time></trkpt><trkpt lat="40.5516267" lon="16.6308317"><ele>62.0</ele><time>2026-04-12T13:54:06.439Z</time></trkpt><trkpt lat="40.5517683" lon="16.630755"><ele>62.0</ele><time>2026-04-12T13:54:07.44Z</time></trkpt><trkpt lat="40.55191" lon="16.63068"><ele>62.0</ele><time>2026-04-12T13:54:08.439Z</time></trkpt><trkpt lat="40.5520483" lon="16.6306067"><ele>62.0</ele><time>2026-04-12T13:54:09.439Z</time></trkpt><trkpt lat="40.55219" lon="16.6305333"><ele>63.66666666666667</ele><time>2026-04-12T13:54:10.438Z</time></trkpt><trkpt lat="40.5523333" lon="16.6304667"><ele>65.33333333333333</ele><time>2026-04-12T13:54:11.439Z</time></trkpt><trkpt lat="40.5524817" lon="16.6304083"><ele>67.0</ele><time>2026-04-12T13:54:12.439Z</time></trkpt><trkpt lat="40.5526383" lon="16.630365"><ele>67.0</ele><time>2026-04-12T13:54:13.441Z</time></trkpt><trkpt lat="40.552805" lon="16.6303417"><ele>67.0</ele><time>2026-04-12T13:54:14.44Z</time></trkpt><trkpt lat="40.5529783" lon="16.6303367"><ele>67.0</ele><time>2026-04-12T13:54:15.439Z</time></trkpt><trkpt lat="40.5531533" lon="16.6303383"><ele>66.33333333333333</ele><time>2026-04-12T13:54:16.44Z</time></trkpt><trkpt lat="40.5533317" lon="16.630345"><ele>65.66666666666667</ele><time>2026-04-12T13:54:17.439Z</time></trkpt><trkpt lat="40.5535183" lon="16.6303517"><ele>65.0</ele><time>2026-04-12T13:54:18.439Z</time></trkpt><trkpt lat="40.553715" lon="16.630355"><ele>65.0</ele><time>2026-04-12T13:54:19.44Z</time></trkpt><trkpt lat="40.55392" lon="16.630355"><ele>65.0</ele><time>2026-04-12T13:54:20.44Z</time></trkpt><trkpt lat="40.554125" lon="16.6303567"><ele>65.0</ele><time>2026-04-12T13:54:21.439Z</time></trkpt><trkpt lat="40.5543217" lon="16.6303617"><ele>65.0</ele><time>2026-04-12T13:54:22.439Z</time></trkpt><trkpt lat="40.55451" lon="16.6303683"><ele>65.0</ele><time>2026-04-12T13:54:23.439Z</time></trkpt><trkpt lat="40.5546833" lon="16.6303767"><ele>65.0</ele><time>2026-04-12T13:54:24.439Z</time></trkpt><trkpt lat="40.5548467" lon="16.6303733"><ele>64.66666666666667</ele><time>2026-04-12T13:54:25.44Z</time></trkpt><trkpt lat="40.5550083" lon="16.630345"><ele>64.33333333333333</ele><time>2026-04-12T13:54:26.44Z</time></trkpt><trkpt lat="40.5551717" lon="16.630285"><ele>64.0</ele><time>2026-04-12T13:54:27.439Z</time></trkpt><trkpt lat="40.5553383" lon="16.6302067"><ele>63.666666666666664</ele><time>2026-04-12T13:54:28.438Z</time></trkpt><trkpt lat="40.5555017" lon="16.6301167"><ele>63.33333333333333</ele><time>2026-04-12T13:54:29.438Z</time></trkpt><trkpt lat="40.5556633" lon="16.6300217"><ele>63.0</ele><time>2026-04-12T13:54:30.44Z</time></trkpt><trkpt lat="40.555825" lon="16.62993"><ele>63.0</ele><time>2026-04-12T13:54:31.439Z</time></trkpt><trkpt lat="40.555985" lon="16.6298367"><ele>63.0</ele><time>2026-04-12T13:54:32.44Z</time></trkpt><trkpt lat="40.5561433" lon="16.629745"><ele>63.0</ele><time>2026-04-12T13:54:33.439Z</time></trkpt><trkpt lat="40.5563017" lon="16.6296533"><ele>62.66666666666667</ele><time>2026-04-12T13:54:34.439Z</time></trkpt><trkpt lat="40.5564583" lon="16.62956"><ele>62.333333333333336</ele><time>2026-04-12T13:54:35.439Z</time></trkpt><trkpt lat="40.556615" lon="16.6294683"><ele>62.0</ele><time>2026-04-12T13:54:36.439Z</time></trkpt><trkpt lat="40.55677" lon="16.629375"><ele>62.0</ele><time>2026-04-12T13:54:37.439Z</time></trkpt><trkpt lat="40.5569283" lon="16.6292883"><ele>62.0</ele><time>2026-04-12T13:54:38.44Z</time></trkpt><trkpt lat="40.5570867" lon="16.6291983"><ele>62.0</ele><time>2026-04-12T13:54:39.44Z</time></trkpt><trkpt lat="40.55725" lon="16.6291067"><ele>62.333333333333336</ele><time>2026-04-12T13:54:40.44Z</time></trkpt><trkpt lat="40.5574167" lon="16.62901"><ele>62.66666666666667</ele><time>2026-04-12T13:54:41.44Z</time></trkpt><trkpt lat="40.5575883" lon="16.6289083"><ele>63.0</ele><time>2026-04-12T13:54:42.439Z</time></trkpt><trkpt lat="40.5577633" lon="16.6288083"><ele>63.33333333333333</ele><time>2026-04-12T13:54:43.439Z</time></trkpt><trkpt lat="40.5579367" lon="16.6287167"><ele>63.666666666666664</ele><time>2026-04-12T13:54:44.44Z</time></trkpt><trkpt lat="40.5581183" lon="16.6286467"><ele>64.0</ele><time>2026-04-12T13:54:45.439Z</time></trkpt><trkpt lat="40.5583117" lon="16.6286133"><ele>63.0</ele><time>2026-04-12T13:54:46.439Z</time></trkpt><trkpt lat="40.558515" lon="16.628605"><ele>62.0</ele><time>2026-04-12T13:54:47.44Z</time></trkpt><trkpt lat="40.5587217" lon="16.62861"><ele>61.0</ele><time>2026-04-12T13:54:48.438Z</time></trkpt><trkpt lat="40.5589283" lon="16.6286183"><ele>61.0</ele><time>2026-04-12T13:54:49.444Z</time></trkpt><trkpt lat="40.5591333" lon="16.62863"><ele>61.0</ele><time>2026-04-12T13:54:50.444Z</time></trkpt><trkpt lat="40.5593367" lon="16.628645"><ele>61.0</ele><time>2026-04-12T13:54:51.44Z</time></trkpt><trkpt lat="40.55954" lon="16.6286567"><ele>63.0</ele><time>2026-04-12T13:54:52.439Z</time></trkpt><trkpt lat="40.5597383" lon="16.6286667"><ele>65.0</ele><time>2026-04-12T13:54:53.439Z</time></trkpt><trkpt lat="40.559925" lon="16.6286733"><ele>67.0</ele><time>2026-04-12T13:54:54.439Z</time></trkpt><trkpt lat="40.5601067" lon="16.62868"><ele>67.0</ele><time>2026-04-12T13:54:55.44Z</time></trkpt><trkpt lat="40.5602867" lon="16.628685"><ele>67.0</ele><time>2026-04-12T13:54:56.441Z</time></trkpt><trkpt lat="40.5604617" lon="16.6286867"><ele>67.0</ele><time>2026-04-12T13:54:57.44Z</time></trkpt><trkpt lat="40.56063" lon="16.6286883"><ele>65.66666666666666</ele><time>2026-04-12T13:54:58.44Z</time></trkpt><trkpt lat="40.560795" lon="16.6286917"><ele>64.33333333333333</ele><time>2026-04-12T13:54:59.44Z</time></trkpt><trkpt lat="40.5609567" lon="16.6286983"><ele>63.0</ele><time>2026-04-12T13:55:00.44Z</time></trkpt><trkpt lat="40.56112" lon="16.6287067"><ele>62.66666666666667</ele><time>2026-04-12T13:55:01.44Z</time></trkpt><trkpt lat="40.5612867" lon="16.6287133"><ele>62.333333333333336</ele><time>2026-04-12T13:55:02.44Z</time></trkpt><trkpt lat="40.561455" lon="16.6287183"><ele>62.0</ele><time>2026-04-12T13:55:03.441Z</time></trkpt><trkpt lat="40.5616217" lon="16.62873"><ele>62.0</ele><time>2026-04-12T13:55:04.439Z</time></trkpt><trkpt lat="40.5617933" lon="16.6287533"><ele>62.0</ele><time>2026-04-12T13:55:05.44Z</time></trkpt><trkpt lat="40.5619633" lon="16.6287867"><ele>62.0</ele><time>2026-04-12T13:55:06.439Z</time></trkpt><trkpt lat="40.5621233" lon="16.628825"><ele>62.25</ele><time>2026-04-12T13:55:07.444Z</time></trkpt><trkpt lat="40.5622683" lon="16.6288583"><ele>62.5</ele><time>2026-04-12T13:55:08.439Z</time></trkpt><trkpt lat="40.5624017" lon="16.6288867"><ele>62.75</ele><time>2026-04-12T13:55:09.439Z</time></trkpt><trkpt lat="40.5625317" lon="16.6289117"><ele>63.0</ele><time>2026-04-12T13:55:10.439Z</time></trkpt><trkpt lat="40.5626467" lon="16.6289317"><ele>63.0</ele><time>2026-04-12T13:55:11.442Z</time></trkpt><trkpt lat="40.5627367" lon="16.6289483"><ele>63.0</ele><time>2026-04-12T13:55:12.439Z</time></trkpt><trkpt lat="40.5628017" lon="16.62896"><ele>63.0</ele><time>2026-04-12T13:55:13.44Z</time></trkpt><trkpt lat="40.5628917" lon="16.6289967"><ele>63.0</ele><time>2026-04-12T13:55:15.44Z</time></trkpt><trkpt lat="40.5629167" lon="16.6290817"><ele>63.0</ele><time>2026-04-12T13:55:17.439Z</time></trkpt><trkpt lat="40.5629217" lon="16.62918"><ele>63.0</ele><time>2026-04-12T13:55:20.439Z</time></trkpt><trkpt lat="40.5629417" lon="16.62928"><ele>63.0</ele><time>2026-04-12T13:55:24.44Z</time></trkpt><trkpt lat="40.56297" lon="16.6293717"><ele>63.0</ele><time>2026-04-12T13:55:28.438Z</time></trkpt><trkpt lat="40.5630067" lon="16.6294783"><ele>63.0</ele><time>2026-04-12T13:55:32.44Z</time></trkpt><trkpt lat="40.5630483" lon="16.629575"><ele>63.0</ele><time>2026-04-12T13:55:34.441Z</time></trkpt><trkpt lat="40.5630767" lon="16.6296533"><ele>63.0</ele><time>2026-04-12T13:55:35.439Z</time></trkpt><trkpt lat="40.56311" lon="16.6297517"><ele>63.0</ele><time>2026-04-12T13:55:36.439Z</time></trkpt><trkpt lat="40.56315" lon="16.6298667"><ele>63.0</ele><time>2026-04-12T13:55:37.439Z</time></trkpt><trkpt lat="40.5631967" lon="16.6299917"><ele>63.0</ele><time>2026-04-12T13:55:38.44Z</time></trkpt><trkpt lat="40.56325" lon="16.63012"><ele>63.0</ele><time>2026-04-12T13:55:39.44Z</time></trkpt><trkpt lat="40.5633017" lon="16.6302567"><ele>63.0</ele><time>2026-04-12T13:55:40.439Z</time></trkpt><trkpt lat="40.563345" lon="16.630405"><ele>62.75</ele><time>2026-04-12T13:55:41.439Z</time></trkpt><trkpt lat="40.5633767" lon="16.6305633"><ele>62.5</ele><time>2026-04-12T13:55:42.439Z</time></trkpt><trkpt lat="40.5634033" lon="16.6307317"><ele>62.25</ele><time>2026-04-12T13:55:43.44Z</time></trkpt><trkpt lat="40.563425" lon="16.6309017"><ele>62.0</ele><time>2026-04-12T13:55:44.44Z</time></trkpt><trkpt lat="40.5634417" lon="16.6310783"><ele>62.25</ele><time>2026-04-12T13:55:45.44Z</time></trkpt><trkpt lat="40.56346" lon="16.6312633"><ele>62.5</ele><time>2026-04-12T13:55:46.439Z</time></trkpt><trkpt lat="40.5634767" lon="16.63145"><ele>62.75</ele><time>2026-04-12T13:55:47.442Z</time></trkpt><trkpt lat="40.563495" lon="16.6316383"><ele>63.0</ele><time>2026-04-12T13:55:48.439Z</time></trkpt><trkpt lat="40.5635117" lon="16.6318283"><ele>62.75</ele><time>2026-04-12T13:55:49.439Z</time></trkpt><trkpt lat="40.5635283" lon="16.63202"><ele>62.5</ele><time>2026-04-12T13:55:50.439Z</time></trkpt><trkpt lat="40.5635417" lon="16.6322133"><ele>62.25</ele><time>2026-04-12T13:55:51.439Z</time></trkpt><trkpt lat="40.56356" lon="16.6324067"><ele>62.0</ele><time>2026-04-12T13:55:52.44Z</time></trkpt><trkpt lat="40.5635783" lon="16.6326017"><ele>62.0</ele><time>2026-04-12T13:55:53.439Z</time></trkpt><trkpt lat="40.5635983" lon="16.6327967"><ele>62.0</ele><time>2026-04-12T13:55:54.44Z</time></trkpt><trkpt lat="40.5636183" lon="16.6329933"><ele>62.0</ele><time>2026-04-12T13:55:55.44Z</time></trkpt><trkpt lat="40.56364" lon="16.6331967"><ele>62.333333333333336</ele><time>2026-04-12T13:55:56.44Z</time></trkpt><trkpt lat="40.5636617" lon="16.6334083"><ele>62.66666666666667</ele><time>2026-04-12T13:55:57.44Z</time></trkpt><trkpt lat="40.5636817" lon="16.6336233"><ele>63.0</ele><time>2026-04-12T13:55:58.439Z</time></trkpt><trkpt lat="40.5637033" lon="16.63384"><ele>63.75</ele><time>2026-04-12T13:55:59.44Z</time></trkpt><trkpt lat="40.563725" lon="16.6340417"><ele>64.5</ele><time>2026-04-12T13:56:00.439Z</time></trkpt><trkpt lat="40.5637467" lon="16.63423"><ele>65.25</ele><time>2026-04-12T13:56:01.439Z</time></trkpt><trkpt lat="40.5637617" lon="16.6344183"><ele>66.0</ele><time>2026-04-12T13:56:02.44Z</time></trkpt><trkpt lat="40.563765" lon="16.6346267"><ele>66.66666666666667</ele><time>2026-04-12T13:56:03.44Z</time></trkpt><trkpt lat="40.563755" lon="16.63485"><ele>67.33333333333334</ele><time>2026-04-12T13:56:04.441Z</time></trkpt><trkpt lat="40.563745" lon="16.6350767"><ele>68.0</ele><time>2026-04-12T13:56:05.439Z</time></trkpt><trkpt lat="40.563735" lon="16.635295"><ele>67.66666666666667</ele><time>2026-04-12T13:56:06.44Z</time></trkpt><trkpt lat="40.56373" lon="16.635505"><ele>67.33333333333333</ele><time>2026-04-12T13:56:07.439Z</time></trkpt><trkpt lat="40.56373" lon="16.6357067"><ele>67.0</ele><time>2026-04-12T13:56:08.439Z</time></trkpt><trkpt lat="40.5637283" lon="16.6359067"><ele>67.0</ele><time>2026-04-12T13:56:09.441Z</time></trkpt><trkpt lat="40.5637233" lon="16.636105"><ele>67.0</ele><time>2026-04-12T13:56:10.439Z</time></trkpt><trkpt lat="40.5637117" lon="16.63631"><ele>67.0</ele><time>2026-04-12T13:56:11.439Z</time></trkpt><trkpt lat="40.5637017" lon="16.6365217"><ele>67.5</ele><time>2026-04-12T13:56:12.439Z</time></trkpt><trkpt lat="40.5636933" lon="16.6367317"><ele>68.0</ele><time>2026-04-12T13:56:13.442Z</time></trkpt><trkpt lat="40.5636867" lon="16.6369283"><ele>68.5</ele><time>2026-04-12T13:56:14.44Z</time></trkpt><trkpt lat="40.5636833" lon="16.6371083"><ele>69.0</ele><time>2026-04-12T13:56:15.441Z</time></trkpt><trkpt lat="40.5636817" lon="16.63729"><ele>69.5</ele><time>2026-04-12T13:56:16.439Z</time></trkpt><trkpt lat="40.5636783" lon="16.6374783"><ele>70.0</ele><time>2026-04-12T13:56:17.439Z</time></trkpt><trkpt lat="40.563675" lon="16.6376683"><ele>70.5</ele><time>2026-04-12T13:56:18.441Z</time></trkpt><trkpt lat="40.5636733" lon="16.6378667"><ele>71.0</ele><time>2026-04-12T13:56:19.441Z</time></trkpt><trkpt lat="40.5636717" lon="16.638065"><ele>71.0</ele><time>2026-04-12T13:56:20.441Z</time></trkpt><trkpt lat="40.5636683" lon="16.6382517"><ele>71.0</ele><time>2026-04-12T13:56:21.44Z</time></trkpt><trkpt lat="40.5636617" lon="16.63843"><ele>71.0</ele><time>2026-04-12T13:56:22.439Z</time></trkpt><trkpt lat="40.56366" lon="16.6386033"><ele>71.0</ele><time>2026-04-12T13:56:23.44Z</time></trkpt><trkpt lat="40.56366" lon="16.6387833"><ele>71.75</ele><time>2026-04-12T13:56:24.439Z</time></trkpt><trkpt lat="40.5636617" lon="16.63896"><ele>72.5</ele><time>2026-04-12T13:56:25.439Z</time></trkpt><trkpt lat="40.5636617" lon="16.63913"><ele>73.25</ele><time>2026-04-12T13:56:26.44Z</time></trkpt><trkpt lat="40.563665" lon="16.6392717"><ele>74.0</ele><time>2026-04-12T13:56:27.439Z</time></trkpt><trkpt lat="40.5636717" lon="16.639395"><ele>74.16666666666667</ele><time>2026-04-12T13:56:28.439Z</time></trkpt><trkpt lat="40.5636767" lon="16.6394967"><ele>74.33333333333334</ele><time>2026-04-12T13:56:29.439Z</time></trkpt><trkpt lat="40.56368" lon="16.6396367"><ele>74.5</ele><time>2026-04-12T13:56:31.44Z</time></trkpt><trkpt lat="40.5636817" lon="16.6397433"><ele>74.66666666666667</ele><time>2026-04-12T13:56:34.441Z</time></trkpt><trkpt lat="40.5636883" lon="16.6398767"><ele>74.83333333333333</ele><time>2026-04-12T13:56:37.44Z</time></trkpt><trkpt lat="40.5636867" lon="16.639965"><ele>75.0</ele><time>2026-04-12T13:56:38.441Z</time></trkpt><trkpt lat="40.5636833" lon="16.6400617"><ele>75.0</ele><time>2026-04-12T13:56:39.44Z</time></trkpt><trkpt lat="40.5636833" lon="16.6401617"><ele>75.0</ele><time>2026-04-12T13:56:40.44Z</time></trkpt><trkpt lat="40.563685" lon="16.6402667"><ele>75.0</ele><time>2026-04-12T13:56:41.439Z</time></trkpt><trkpt lat="40.563685" lon="16.64037"><ele>75.0</ele><time>2026-04-12T13:56:42.44Z</time></trkpt><trkpt lat="40.5636867" lon="16.6404783"><ele>75.0</ele><time>2026-04-12T13:56:43.439Z</time></trkpt><trkpt lat="40.5636883" lon="16.64059"><ele>75.0</ele><time>2026-04-12T13:56:44.44Z</time></trkpt><trkpt lat="40.5636883" lon="16.6407017"><ele>75.33333333333333</ele><time>2026-04-12T13:56:45.44Z</time></trkpt><trkpt lat="40.56369" lon="16.6408167"><ele>75.66666666666667</ele><time>2026-04-12T13:56:46.44Z</time></trkpt><trkpt lat="40.5636933" lon="16.64093"><ele>76.0</ele><time>2026-04-12T13:56:47.439Z</time></trkpt><trkpt lat="40.563695" lon="16.641045"><ele>76.33333333333334</ele><time>2026-04-12T13:56:48.439Z</time></trkpt><trkpt lat="40.563695" lon="16.6411583"><ele>76.66666666666667</ele><time>2026-04-12T13:56:49.439Z</time></trkpt><trkpt lat="40.563695" lon="16.6412683"><ele>77.0</ele><time>2026-04-12T13:56:50.439Z</time></trkpt><trkpt lat="40.563695" lon="16.64138"><ele>77.5</ele><time>2026-04-12T13:56:51.44Z</time></trkpt><trkpt lat="40.5636983" lon="16.6414917"><ele>78.0</ele><time>2026-04-12T13:56:52.439Z</time></trkpt><trkpt lat="40.5637" lon="16.64161"><ele>78.5</ele><time>2026-04-12T13:56:53.44Z</time></trkpt><trkpt lat="40.5637033" lon="16.6417283"><ele>79.0</ele><time>2026-04-12T13:56:54.439Z</time></trkpt><trkpt lat="40.563705" lon="16.641845"><ele>79.5</ele><time>2026-04-12T13:56:55.44Z</time></trkpt><trkpt lat="40.563705" lon="16.6419567"><ele>80.0</ele><time>2026-04-12T13:56:56.44Z</time></trkpt><trkpt lat="40.5637033" lon="16.6420617"><ele>80.5</ele><time>2026-04-12T13:56:57.439Z</time></trkpt><trkpt lat="40.563705" lon="16.642165"><ele>81.0</ele><time>2026-04-12T13:56:58.439Z</time></trkpt><trkpt lat="40.5637017" lon="16.6422633"><ele>81.5</ele><time>2026-04-12T13:56:59.439Z</time></trkpt><trkpt lat="40.5637017" lon="16.6423683"><ele>82.0</ele><time>2026-04-12T13:57:00.439Z</time></trkpt><trkpt lat="40.5637033" lon="16.6424767"><ele>82.5</ele><time>2026-04-12T13:57:01.439Z</time></trkpt><trkpt lat="40.563705" lon="16.64259"><ele>83.0</ele><time>2026-04-12T13:57:02.44Z</time></trkpt><trkpt lat="40.5637067" lon="16.6427017"><ele>83.0</ele><time>2026-04-12T13:57:03.44Z</time></trkpt><trkpt lat="40.5637067" lon="16.6428117"><ele>83.0</ele><time>2026-04-12T13:57:04.44Z</time></trkpt><trkpt lat="40.5637033" lon="16.6429217"><ele>83.0</ele><time>2026-04-12T13:57:05.44Z</time></trkpt><trkpt lat="40.5637017" lon="16.643035"><ele>83.0</ele><time>2026-04-12T13:57:06.439Z</time></trkpt><trkpt lat="40.5636967" lon="16.643145"><ele>83.0</ele><time>2026-04-12T13:57:07.44Z</time></trkpt><trkpt lat="40.5637" lon="16.643255"><ele>83.0</ele><time>2026-04-12T13:57:08.441Z</time></trkpt><trkpt lat="40.5637033" lon="16.6433683"><ele>83.60000000000001</ele><time>2026-04-12T13:57:09.439Z</time></trkpt><trkpt lat="40.56371" lon="16.6434917"><ele>84.2</ele><time>2026-04-12T13:57:10.439Z</time></trkpt><trkpt lat="40.5637183" lon="16.64364"><ele>84.8</ele><time>2026-04-12T13:57:11.439Z</time></trkpt><trkpt lat="40.5637267" lon="16.6437933"><ele>85.4</ele><time>2026-04-12T13:57:12.44Z</time></trkpt><trkpt lat="40.5637367" lon="16.6439367"><ele>86.0</ele><time>2026-04-12T13:57:13.439Z</time></trkpt><trkpt lat="40.5637433" lon="16.6440767"><ele>86.25</ele><time>2026-04-12T13:57:14.44Z</time></trkpt><trkpt lat="40.56375" lon="16.6442217"><ele>86.5</ele><time>2026-04-12T13:57:15.439Z</time></trkpt><trkpt lat="40.5637533" lon="16.6443767"><ele>86.75</ele><time>2026-04-12T13:57:16.439Z</time></trkpt><trkpt lat="40.5637567" lon="16.6445317"><ele>87.0</ele><time>2026-04-12T13:57:17.439Z</time></trkpt><trkpt lat="40.56376" lon="16.6446867"><ele>87.0</ele><time>2026-04-12T13:57:18.441Z</time></trkpt><trkpt lat="40.5637633" lon="16.6448433"><ele>87.0</ele><time>2026-04-12T13:57:19.439Z</time></trkpt><trkpt lat="40.5637667" lon="16.645"><ele>87.0</ele><time>2026-04-12T13:57:20.441Z</time></trkpt><trkpt lat="40.56377" lon="16.6451567"><ele>87.0</ele><time>2026-04-12T13:57:21.44Z</time></trkpt><trkpt lat="40.5637733" lon="16.6453167"><ele>87.5</ele><time>2026-04-12T13:57:22.439Z</time></trkpt><trkpt lat="40.5637767" lon="16.645475"><ele>88.0</ele><time>2026-04-12T13:57:23.439Z</time></trkpt><trkpt lat="40.5637767" lon="16.6456367"><ele>88.5</ele><time>2026-04-12T13:57:24.44Z</time></trkpt><trkpt lat="40.5637767" lon="16.6457967"><ele>89.0</ele><time>2026-04-12T13:57:25.44Z</time></trkpt><trkpt lat="40.5637767" lon="16.645955"><ele>89.0</ele><time>2026-04-12T13:57:26.442Z</time></trkpt><trkpt lat="40.5637767" lon="16.6461133"><ele>89.0</ele><time>2026-04-12T13:57:27.439Z</time></trkpt><trkpt lat="40.5637767" lon="16.6462683"><ele>89.0</ele><time>2026-04-12T13:57:28.441Z</time></trkpt><trkpt lat="40.5637733" lon="16.6464183"><ele>89.0</ele><time>2026-04-12T13:57:29.439Z</time></trkpt><trkpt lat="40.56377" lon="16.6465667"><ele>90.6</ele><time>2026-04-12T13:57:30.438Z</time></trkpt><trkpt lat="40.5637633" lon="16.64671"><ele>92.2</ele><time>2026-04-12T13:57:31.439Z</time></trkpt><trkpt lat="40.563755" lon="16.6468433"><ele>93.8</ele><time>2026-04-12T13:57:32.44Z</time></trkpt><trkpt lat="40.5637467" lon="16.64697"><ele>95.39999999999999</ele><time>2026-04-12T13:57:33.44Z</time></trkpt><trkpt lat="40.5637433" lon="16.6471017"><ele>97.0</ele><time>2026-04-12T13:57:34.44Z</time></trkpt><trkpt lat="40.5637467" lon="16.6472467"><ele>98.5</ele><time>2026-04-12T13:57:35.439Z</time></trkpt><trkpt lat="40.5637533" lon="16.6473967"><ele>100.0</ele><time>2026-04-12T13:57:36.439Z</time></trkpt><trkpt lat="40.563765" lon="16.647545"><ele>101.5</ele><time>2026-04-12T13:57:37.44Z</time></trkpt><trkpt lat="40.5637833" lon="16.6476967"><ele>103.0</ele><time>2026-04-12T13:57:38.44Z</time></trkpt><trkpt lat="40.563805" lon="16.6478433"><ele>103.0</ele><time>2026-04-12T13:57:39.439Z</time></trkpt><trkpt lat="40.5638267" lon="16.6479833"><ele>103.0</ele><time>2026-04-12T13:57:40.44Z</time></trkpt><trkpt lat="40.563845" lon="16.648115"><ele>103.0</ele><time>2026-04-12T13:57:41.44Z</time></trkpt><trkpt lat="40.5638633" lon="16.6482383"><ele>103.0</ele><time>2026-04-12T13:57:42.441Z</time></trkpt><trkpt lat="40.5638817" lon="16.6483517"><ele>103.0</ele><time>2026-04-12T13:57:43.439Z</time></trkpt><trkpt lat="40.5638967" lon="16.6484533"><ele>103.00000000000001</ele><time>2026-04-12T13:57:44.44Z</time></trkpt><trkpt lat="40.5639133" lon="16.6485483"><ele>103.0</ele><time>2026-04-12T13:57:45.44Z</time></trkpt><trkpt lat="40.5639367" lon="16.648635"><ele>103.0</ele><time>2026-04-12T13:57:46.439Z</time></trkpt><trkpt lat="40.563965" lon="16.64873"><ele>103.0</ele><time>2026-04-12T13:57:47.439Z</time></trkpt><trkpt lat="40.56399" lon="16.6488317"><ele>103.00000000000001</ele><time>2026-04-12T13:57:48.439Z</time></trkpt><trkpt lat="40.5640117" lon="16.6489233"><ele>103.0</ele><time>2026-04-12T13:57:49.439Z</time></trkpt><trkpt lat="40.5640517" lon="16.649055"><ele>103.00000000000001</ele><time>2026-04-12T13:57:51.44Z</time></trkpt><trkpt lat="40.5641233" lon="16.6491067"><ele>103.0</ele><time>2026-04-12T13:57:53.44Z</time></trkpt><trkpt lat="40.5641867" lon="16.6491267"><ele>103.0</ele><time>2026-04-12T13:57:54.442Z</time></trkpt><trkpt lat="40.56425" lon="16.6491567"><ele>103.0</ele><time>2026-04-12T13:57:55.441Z</time></trkpt><trkpt lat="40.5643067" lon="16.6492033"><ele>103.00000000000001</ele><time>2026-04-12T13:57:56.44Z</time></trkpt><trkpt lat="40.5643733" lon="16.649275"><ele>103.0</ele><time>2026-04-12T13:57:57.438Z</time></trkpt><trkpt lat="40.56445" lon="16.6493783"><ele>103.80000000000001</ele><time>2026-04-12T13:57:58.44Z</time></trkpt><trkpt lat="40.5645217" lon="16.64948"><ele>104.6</ele><time>2026-04-12T13:57:59.44Z</time></trkpt><trkpt lat="40.56459" lon="16.6495683"><ele>105.39999999999999</ele><time>2026-04-12T13:58:00.441Z</time></trkpt><trkpt lat="40.56466" lon="16.6496533"><ele>106.19999999999999</ele><time>2026-04-12T13:58:01.439Z</time></trkpt><trkpt lat="40.5647333" lon="16.6497433"><ele>107.0</ele><time>2026-04-12T13:58:02.44Z</time></trkpt><trkpt lat="40.5648067" lon="16.6498367"><ele>107.99999999999999</ele><time>2026-04-12T13:58:03.442Z</time></trkpt><trkpt lat="40.5648783" lon="16.649925"><ele>109.0</ele><time>2026-04-12T13:58:04.44Z</time></trkpt><trkpt lat="40.5649433" lon="16.650015"><ele>110.0</ele><time>2026-04-12T13:58:05.441Z</time></trkpt><trkpt lat="40.5650017" lon="16.6501083"><ele>111.0</ele><time>2026-04-12T13:58:06.439Z</time></trkpt><trkpt lat="40.56505" lon="16.6502"><ele>111.99999999999999</ele><time>2026-04-12T13:58:07.439Z</time></trkpt><trkpt lat="40.5650917" lon="16.6502883"><ele>113.0</ele><time>2026-04-12T13:58:08.44Z</time></trkpt><trkpt lat="40.5651367" lon="16.6503683"><ele>112.99999999999999</ele><time>2026-04-12T13:58:09.439Z</time></trkpt><trkpt lat="40.5651867" lon="16.6504467"><ele>113.0</ele><time>2026-04-12T13:58:10.439Z</time></trkpt><trkpt lat="40.5652283" lon="16.6505167"><ele>113.0</ele><time>2026-04-12T13:58:11.439Z</time></trkpt><trkpt lat="40.565275" lon="16.6506433"><ele>113.0</ele><time>2026-04-12T13:58:13.44Z</time></trkpt><trkpt lat="40.5652467" lon="16.6507767"><ele>112.99999999999999</ele><time>2026-04-12T13:58:15.444Z</time></trkpt><trkpt lat="40.5652133" lon="16.6508533"><ele>113.0</ele><time>2026-04-12T13:58:16.44Z</time></trkpt><trkpt lat="40.5651833" lon="16.65094"><ele>113.0</ele><time>2026-04-12T13:58:17.439Z</time></trkpt><trkpt lat="40.5651633" lon="16.6510233"><ele>113.0</ele><time>2026-04-12T13:58:18.441Z</time></trkpt><trkpt lat="40.5651417" lon="16.651105"><ele>113.0</ele><time>2026-04-12T13:58:19.439Z</time></trkpt><trkpt lat="40.565125" lon="16.6511867"><ele>113.0</ele><time>2026-04-12T13:58:20.44Z</time></trkpt><trkpt lat="40.56511" lon="16.651275"><ele>113.0</ele><time>2026-04-12T13:58:21.44Z</time></trkpt><trkpt lat="40.5650917" lon="16.6513633"><ele>113.0</ele><time>2026-04-12T13:58:22.439Z</time></trkpt><trkpt lat="40.565075" lon="16.65145"><ele>113.0</ele><time>2026-04-12T13:58:23.439Z</time></trkpt><trkpt lat="40.5650617" lon="16.6515317"><ele>113.66666666666666</ele><time>2026-04-12T13:58:24.439Z</time></trkpt><trkpt lat="40.56505" lon="16.65162"><ele>114.33333333333333</ele><time>2026-04-12T13:58:25.44Z</time></trkpt><trkpt lat="40.5650417" lon="16.6517117"><ele>115.0</ele><time>2026-04-12T13:58:26.44Z</time></trkpt><trkpt lat="40.5650417" lon="16.6518067"><ele>115.66666666666666</ele><time>2026-04-12T13:58:27.44Z</time></trkpt><trkpt lat="40.5650483" lon="16.651915"><ele>116.33333333333333</ele><time>2026-04-12T13:58:28.44Z</time></trkpt><trkpt lat="40.5650567" lon="16.6520317"><ele>117.0</ele><time>2026-04-12T13:58:29.439Z</time></trkpt><trkpt lat="40.56506" lon="16.65215"><ele>117.5</ele><time>2026-04-12T13:58:30.439Z</time></trkpt><trkpt lat="40.5650667" lon="16.65226"><ele>118.0</ele><time>2026-04-12T13:58:31.44Z</time></trkpt><trkpt lat="40.5650533" lon="16.65236"><ele>118.5</ele><time>2026-04-12T13:58:32.44Z</time></trkpt><trkpt lat="40.5650283" lon="16.6524517"><ele>119.0</ele><time>2026-04-12T13:58:33.44Z</time></trkpt><trkpt lat="40.5650083" lon="16.6525533"><ele>119.5</ele><time>2026-04-12T13:58:34.44Z</time></trkpt><trkpt lat="40.5649883" lon="16.6526617"><ele>120.0</ele><time>2026-04-12T13:58:35.44Z</time></trkpt><trkpt lat="40.5649633" lon="16.6527683"><ele>121.4</ele><time>2026-04-12T13:58:36.439Z</time></trkpt><trkpt lat="40.564935" lon="16.652875"><ele>122.8</ele><time>2026-04-12T13:58:37.44Z</time></trkpt><trkpt lat="40.5649033" lon="16.6529817"><ele>124.19999999999999</ele><time>2026-04-12T13:58:38.44Z</time></trkpt><trkpt lat="40.564875" lon="16.6530967"><ele>125.6</ele><time>2026-04-12T13:58:39.439Z</time></trkpt><trkpt lat="40.564845" lon="16.6532217"><ele>127.0</ele><time>2026-04-12T13:58:40.438Z</time></trkpt><trkpt lat="40.56482" lon="16.6533483"><ele>127.0</ele><time>2026-04-12T13:58:41.439Z</time></trkpt><trkpt lat="40.564795" lon="16.6534733"><ele>126.99999999999999</ele><time>2026-04-12T13:58:42.438Z</time></trkpt><trkpt lat="40.56477" lon="16.6535967"><ele>126.99999999999999</ele><time>2026-04-12T13:58:43.44Z</time></trkpt><trkpt lat="40.564745" lon="16.6537167"><ele>127.0</ele><time>2026-04-12T13:58:44.439Z</time></trkpt><trkpt lat="40.5647217" lon="16.6538283"><ele>127.0</ele><time>2026-04-12T13:58:45.437Z</time></trkpt><trkpt lat="40.5647017" lon="16.6539283"><ele>126.39999999999999</ele><time>2026-04-12T13:58:46.439Z</time></trkpt><trkpt lat="40.5646833" lon="16.6540183"><ele>125.79999999999998</ele><time>2026-04-12T13:58:47.439Z</time></trkpt><trkpt lat="40.5646683" lon="16.6541067"><ele>125.2</ele><time>2026-04-12T13:58:48.439Z</time></trkpt><trkpt lat="40.5646367" lon="16.6542567"><ele>124.6</ele><time>2026-04-12T13:58:50.441Z</time></trkpt><trkpt lat="40.5645667" lon="16.6543283"><ele>124.0</ele><time>2026-04-12T13:58:52.44Z</time></trkpt><trkpt lat="40.56446" lon="16.6542783"><ele>124.0</ele><time>2026-04-12T13:58:54.439Z</time></trkpt><trkpt lat="40.5643667" lon="16.6542167"><ele>124.0</ele><time>2026-04-12T13:58:56.44Z</time></trkpt><trkpt lat="40.5642717" lon="16.65417"><ele>124.0</ele><time>2026-04-12T13:58:58.439Z</time></trkpt><trkpt lat="40.56419" lon="16.6541683"><ele>124.0</ele><time>2026-04-12T13:59:00.438Z</time></trkpt><trkpt lat="40.564135" lon="16.654225"><ele>124.0</ele><time>2026-04-12T13:59:02.44Z</time></trkpt><trkpt lat="40.56407" lon="16.6543383"><ele>124.0</ele><time>2026-04-12T13:59:04.439Z</time></trkpt><trkpt lat="40.5640017" lon="16.6544517"><ele>124.0</ele><time>2026-04-12T13:59:06.439Z</time></trkpt><trkpt lat="40.5639483" lon="16.6545333"><ele>124.0</ele><time>2026-04-12T13:59:08.439Z</time></trkpt><trkpt lat="40.5638967" lon="16.6546017"><ele>124.0</ele><time>2026-04-12T13:59:10.438Z</time></trkpt><trkpt lat="40.5638083" lon="16.654665"><ele>124.0</ele><time>2026-04-12T13:59:12.439Z</time></trkpt><trkpt lat="40.56371" lon="16.6547183"><ele>125.33333333333334</ele><time>2026-04-12T13:59:14.439Z</time></trkpt><trkpt lat="40.5636317" lon="16.6548033"><ele>126.66666666666667</ele><time>2026-04-12T13:59:16.441Z</time></trkpt><trkpt lat="40.5635617" lon="16.6548883"><ele>128.0</ele><time>2026-04-12T13:59:18.438Z</time></trkpt><trkpt lat="40.56349" lon="16.6549517"><ele>129.33333333333334</ele><time>2026-04-12T13:59:21.44Z</time></trkpt><trkpt lat="40.5634367" lon="16.6550033"><ele>130.66666666666666</ele><time>2026-04-12T13:59:23.439Z</time></trkpt><trkpt lat="40.5633783" lon="16.6550567"><ele>132.0</ele><time>2026-04-12T13:59:25.437Z</time></trkpt><trkpt lat="40.5633183" lon="16.6551333"><ele>132.0</ele><time>2026-04-12T13:59:28.439Z</time></trkpt><trkpt lat="40.5632667" lon="16.6551867"><ele>132.0</ele><time>2026-04-12T13:59:30.439Z</time></trkpt><trkpt lat="40.56322" lon="16.655255"><ele>132.0</ele><time>2026-04-12T13:59:32.439Z</time></trkpt><trkpt lat="40.56316" lon="16.6553167"><ele>132.0</ele><time>2026-04-12T13:59:34.438Z</time></trkpt><trkpt lat="40.5630933" lon="16.6553883"><ele>132.0</ele><time>2026-04-12T13:59:36.439Z</time></trkpt><trkpt lat="40.56303" lon="16.6554717"><ele>132.0</ele><time>2026-04-12T13:59:38.44Z</time></trkpt><trkpt lat="40.5629633" lon="16.6555617"><ele>133.83333333333334</ele><time>2026-04-12T13:59:40.443Z</time></trkpt><trkpt lat="40.562905" lon="16.6556517"><ele>135.66666666666666</ele><time>2026-04-12T13:59:42.439Z</time></trkpt><trkpt lat="40.56285" lon="16.65573"><ele>137.5</ele><time>2026-04-12T13:59:44.439Z</time></trkpt><trkpt lat="40.5627967" lon="16.6558017"><ele>139.33333333333331</ele><time>2026-04-12T13:59:46.438Z</time></trkpt><trkpt lat="40.56274" lon="16.6558617"><ele>141.16666666666666</ele><time>2026-04-12T13:59:48.439Z</time></trkpt><trkpt lat="40.56268" lon="16.6559183"><ele>143.0</ele><time>2026-04-12T13:59:50.44Z</time></trkpt><trkpt lat="40.5626217" lon="16.6559983"><ele>143.66666666666666</ele><time>2026-04-12T13:59:52.438Z</time></trkpt><trkpt lat="40.5625733" lon="16.6560883"><ele>144.33333333333331</ele><time>2026-04-12T13:59:54.439Z</time></trkpt><trkpt lat="40.5625467" lon="16.6561883"><ele>145.0</ele><time>2026-04-12T13:59:56.439Z</time></trkpt><trkpt lat="40.5625367" lon="16.656295"><ele>145.66666666666666</ele><time>2026-04-12T13:59:58.439Z</time></trkpt><trkpt lat="40.562535" lon="16.656405"><ele>146.33333333333334</ele><time>2026-04-12T14:00:00.439Z</time></trkpt><trkpt lat="40.56253" lon="16.6565083"><ele>147.0</ele><time>2026-04-12T14:00:02.44Z</time></trkpt><trkpt lat="40.56251" lon="16.656605"><ele>149.0</ele><time>2026-04-12T14:00:04.439Z</time></trkpt><trkpt lat="40.562505" lon="16.656715"><ele>151.0</ele><time>2026-04-12T14:00:06.439Z</time></trkpt><trkpt lat="40.5625183" lon="16.65683"><ele>153.0</ele><time>2026-04-12T14:00:08.44Z</time></trkpt><trkpt lat="40.5625167" lon="16.6569383"><ele>155.0</ele><time>2026-04-12T14:00:10.438Z</time></trkpt><trkpt lat="40.562505" lon="16.65704"><ele>157.0</ele><time>2026-04-12T14:00:12.438Z</time></trkpt><trkpt lat="40.5624733" lon="16.6571433"><ele>159.0</ele><time>2026-04-12T14:00:14.439Z</time></trkpt><trkpt lat="40.5624367" lon="16.6572483"><ele>159.8</ele><time>2026-04-12T14:00:16.439Z</time></trkpt><trkpt lat="40.5623817" lon="16.6573583"><ele>160.60000000000002</ele><time>2026-04-12T14:00:18.438Z</time></trkpt><trkpt lat="40.56232" lon="16.6574683"><ele>161.4</ele><time>2026-04-12T14:00:20.44Z</time></trkpt><trkpt lat="40.5622617" lon="16.6575483"><ele>162.20000000000002</ele><time>2026-04-12T14:00:22.438Z</time></trkpt><trkpt lat="40.56217" lon="16.6576367"><ele>163.0</ele><time>2026-04-12T14:00:24.438Z</time></trkpt><trkpt lat="40.56207" lon="16.657725"><ele>167.0</ele><time>2026-04-12T14:00:26.441Z</time></trkpt><trkpt lat="40.56198" lon="16.6578317"><ele>171.0</ele><time>2026-04-12T14:00:28.439Z</time></trkpt><trkpt lat="40.5618967" lon="16.6579267"><ele>175.0</ele><time>2026-04-12T14:00:30.44Z</time></trkpt><trkpt lat="40.561815" lon="16.65803"><ele>179.0</ele><time>2026-04-12T14:00:32.439Z</time></trkpt><trkpt lat="40.5617467" lon="16.65813"><ele>183.0</ele><time>2026-04-12T14:00:34.439Z</time></trkpt><trkpt lat="40.5616933" lon="16.658235"><ele>183.0</ele><time>2026-04-12T14:00:36.439Z</time></trkpt><trkpt lat="40.5616483" lon="16.6583567"><ele>183.0</ele><time>2026-04-12T14:00:38.439Z</time></trkpt><trkpt lat="40.5616117" lon="16.6584817"><ele>183.0</ele><time>2026-04-12T14:00:40.438Z</time></trkpt><trkpt lat="40.5615867" lon="16.6586"><ele>183.0</ele><time>2026-04-12T14:00:42.441Z</time></trkpt><trkpt lat="40.5615617" lon="16.65872"><ele>183.0</ele><time>2026-04-12T14:00:44.439Z</time></trkpt><trkpt lat="40.561565" lon="16.6588117"><ele>185.5</ele><time>2026-04-12T14:00:46.439Z</time></trkpt><trkpt lat="40.5615133" lon="16.658875"><ele>188.0</ele><time>2026-04-12T14:00:49.438Z</time></trkpt><trkpt lat="40.56145" lon="16.6588833"><ele>190.5</ele><time>2026-04-12T14:01:21.438Z</time></trkpt><trkpt lat="40.56135" lon="16.65887"><ele>193.0</ele><time>2026-04-12T14:01:24.439Z</time></trkpt><trkpt lat="40.56127" lon="16.6588433"><ele>195.5</ele><time>2026-04-12T14:01:26.44Z</time></trkpt><trkpt lat="40.5611983" lon="16.65881"><ele>198.0</ele><time>2026-04-12T14:01:28.439Z</time></trkpt><trkpt lat="40.56113" lon="16.65878"><ele>198.0</ele><time>2026-04-12T14:01:30.438Z</time></trkpt><trkpt lat="40.5610667" lon="16.65878"><ele>198.0</ele><time>2026-04-12T14:01:32.439Z</time></trkpt><trkpt lat="40.561005" lon="16.6588133"><ele>198.0</ele><time>2026-04-12T14:01:35.439Z</time></trkpt><trkpt lat="40.5610317" lon="16.658895"><ele>198.0</ele><time>2026-04-12T14:02:08.439Z</time></trkpt><trkpt lat="40.561085" lon="16.6589767"><ele>198.0</ele><time>2026-04-12T14:02:10.438Z</time></trkpt><trkpt lat="40.5611367" lon="16.6590617"><ele>198.0</ele><time>2026-04-12T14:02:12.439Z</time></trkpt><trkpt lat="40.5611933" lon="16.659145"><ele>198.0</ele><time>2026-04-12T14:02:14.44Z</time></trkpt><trkpt lat="40.5612333" lon="16.659235"><ele>198.0</ele><time>2026-04-12T14:02:16.439Z</time></trkpt><trkpt lat="40.5612767" lon="16.6593233"><ele>198.0</ele><time>2026-04-12T14:02:18.439Z</time></trkpt><trkpt lat="40.5612917" lon="16.6594183"><ele>198.0</ele><time>2026-04-12T14:02:20.44Z</time></trkpt><trkpt lat="40.5613" lon="16.6595067"><ele>198.0</ele><time>2026-04-12T14:02:22.441Z</time></trkpt><trkpt lat="40.5613017" lon="16.6595917"><ele>198.0</ele><time>2026-04-12T14:02:24.439Z</time></trkpt><trkpt lat="40.5612517" lon="16.6596433"><ele>198.0</ele><time>2026-04-12T14:02:30.439Z</time></trkpt><trkpt lat="40.5611817" lon="16.65956"><ele>198.0</ele><time>2026-04-12T14:02:33.439Z</time></trkpt><trkpt lat="40.5611033" lon="16.659505"><ele>205.0</ele><time>2026-04-12T14:02:35.439Z</time></trkpt><trkpt lat="40.56102" lon="16.65947"><ele>212.0</ele><time>2026-04-12T14:02:37.444Z</time></trkpt><trkpt lat="40.56093" lon="16.6594667"><ele>219.0</ele><time>2026-04-12T14:02:39.44Z</time></trkpt><trkpt lat="40.5608467" lon="16.6594983"><ele>226.0</ele><time>2026-04-12T14:02:41.44Z</time></trkpt><trkpt lat="40.5607883" lon="16.659565"><ele>233.0</ele><time>2026-04-12T14:02:43.439Z</time></trkpt><trkpt lat="40.56072" lon="16.6596317"><ele>240.0</ele><time>2026-04-12T14:02:45.439Z</time></trkpt><trkpt lat="40.5606283" lon="16.6597217"><ele>240.0</ele><time>2026-04-12T14:02:47.441Z</time></trkpt><trkpt lat="40.560585" lon="16.659785"><ele>240.0</ele><time>2026-04-12T14:02:48.439Z</time></trkpt><trkpt lat="40.560545" lon="16.6598617"><ele>240.0</ele><time>2026-04-12T14:02:49.439Z</time></trkpt><trkpt lat="40.5605217" lon="16.65995"><ele>240.0</ele><time>2026-04-12T14:02:50.438Z</time></trkpt><trkpt lat="40.5605017" lon="16.6600717"><ele>240.0</ele><time>2026-04-12T14:02:52.44Z</time></trkpt><trkpt lat="40.5605217" lon="16.6601833"><ele>240.0</ele><time>2026-04-12T14:02:55.44Z</time></trkpt><trkpt lat="40.5605967" lon="16.6602483"><ele>242.5</ele><time>2026-04-12T14:02:57.444Z</time></trkpt><trkpt lat="40.56064" lon="16.6603117"><ele>245.0</ele><time>2026-04-12T14:02:59.44Z</time></trkpt><trkpt lat="40.560575" lon="16.6603567"><ele>247.5</ele><time>2026-04-12T14:03:13.438Z</time></trkpt><trkpt lat="40.5604983" lon="16.6603233"><ele>250.0</ele><time>2026-04-12T14:03:14.44Z</time></trkpt><trkpt lat="40.56042" lon="16.6602833"><ele>252.5</ele><time>2026-04-12T14:03:15.44Z</time></trkpt><trkpt lat="40.560345" lon="16.6602283"><ele>255.0</ele><time>2026-04-12T14:03:16.439Z</time></trkpt><trkpt lat="40.5602767" lon="16.66014"><ele>256.1666666666667</ele><time>2026-04-12T14:03:17.439Z</time></trkpt><trkpt lat="40.5602133" lon="16.6600333"><ele>257.3333333333333</ele><time>2026-04-12T14:03:18.439Z</time></trkpt><trkpt lat="40.5601683" lon="16.65993"><ele>258.5</ele><time>2026-04-12T14:03:19.44Z</time></trkpt><trkpt lat="40.5601333" lon="16.6598383"><ele>259.66666666666663</ele><time>2026-04-12T14:03:20.441Z</time></trkpt><trkpt lat="40.5600967" lon="16.6597583"><ele>260.8333333333333</ele><time>2026-04-12T14:03:21.439Z</time></trkpt><trkpt lat="40.56006" lon="16.659685"><ele>262.0</ele><time>2026-04-12T14:03:22.439Z</time></trkpt><trkpt lat="40.5600217" lon="16.659615"><ele>262.0</ele><time>2026-04-12T14:03:23.44Z</time></trkpt><trkpt lat="40.5599383" lon="16.659485"><ele>262.0</ele><time>2026-04-12T14:03:25.44Z</time></trkpt><trkpt lat="40.5598967" lon="16.65942"><ele>262.0</ele><time>2026-04-12T14:03:26.44Z</time></trkpt><trkpt lat="40.5598517" lon="16.6593583"><ele>262.0</ele><time>2026-04-12T14:03:27.439Z</time></trkpt><trkpt lat="40.5598067" lon="16.6592983"><ele>262.0</ele><time>2026-04-12T14:03:28.44Z</time></trkpt><trkpt lat="40.5597117" lon="16.6591833"><ele>260.8571428571429</ele><time>2026-04-12T14:03:30.438Z</time></trkpt><trkpt lat="40.5596633" lon="16.659125"><ele>259.7142857142857</ele><time>2026-04-12T14:03:31.44Z</time></trkpt><trkpt lat="40.5596133" lon="16.6590667"><ele>258.57142857142856</ele><time>2026-04-12T14:03:32.441Z</time></trkpt><trkpt lat="40.55956" lon="16.6590117"><ele>257.42857142857144</ele><time>2026-04-12T14:03:33.439Z</time></trkpt><trkpt lat="40.559505" lon="16.6589533"><ele>256.2857142857143</ele><time>2026-04-12T14:03:34.44Z</time></trkpt><trkpt lat="40.5594517" lon="16.6588967"><ele>255.14285714285717</ele><time>2026-04-12T14:03:35.439Z</time></trkpt><trkpt lat="40.5593933" lon="16.6588383"><ele>254.0</ele><time>2026-04-12T14:03:36.44Z</time></trkpt><trkpt lat="40.559335" lon="16.6587767"><ele>256.1666666666667</ele><time>2026-04-12T14:03:37.44Z</time></trkpt><trkpt lat="40.55928" lon="16.6587167"><ele>258.33333333333337</ele><time>2026-04-12T14:03:38.439Z</time></trkpt><trkpt lat="40.5592233" lon="16.6586583"><ele>260.5</ele><time>2026-04-12T14:03:39.439Z</time></trkpt><trkpt lat="40.5591617" lon="16.6585933"><ele>262.6666666666667</ele><time>2026-04-12T14:03:40.44Z</time></trkpt><trkpt lat="40.5591017" lon="16.6585283"><ele>264.8333333333333</ele><time>2026-04-12T14:03:41.44Z</time></trkpt><trkpt lat="40.5590417" lon="16.6584567"><ele>267.0</ele><time>2026-04-12T14:03:42.44Z</time></trkpt><trkpt lat="40.5589833" lon="16.658385"><ele>267.0</ele><time>2026-04-12T14:03:43.44Z</time></trkpt><trkpt lat="40.5589267" lon="16.658305"><ele>267.0</ele><time>2026-04-12T14:03:44.44Z</time></trkpt><trkpt lat="40.5588717" lon="16.6582117"><ele>267.0</ele><time>2026-04-12T14:03:45.44Z</time></trkpt><trkpt lat="40.55882" lon="16.6581083"><ele>267.0</ele><time>2026-04-12T14:03:46.44Z</time></trkpt><trkpt lat="40.5587567" lon="16.6579867"><ele>267.0</ele><time>2026-04-12T14:03:47.441Z</time></trkpt><trkpt lat="40.5586983" lon="16.6578467"><ele>273.25</ele><time>2026-04-12T14:03:48.44Z</time></trkpt><trkpt lat="40.558645" lon="16.65769"><ele>279.5</ele><time>2026-04-12T14:03:49.439Z</time></trkpt><trkpt lat="40.5586017" lon="16.6575083"><ele>285.75</ele><time>2026-04-12T14:03:50.439Z</time></trkpt><trkpt lat="40.5585717" lon="16.6573117"><ele>292.0</ele><time>2026-04-12T14:03:51.44Z</time></trkpt><trkpt lat="40.5585483" lon="16.6571083"><ele>291.5</ele><time>2026-04-12T14:03:52.439Z</time></trkpt><trkpt lat="40.5585283" lon="16.6569133"><ele>291.0</ele><time>2026-04-12T14:03:53.44Z</time></trkpt><trkpt lat="40.5585117" lon="16.6567333"><ele>290.5</ele><time>2026-04-12T14:03:54.44Z</time></trkpt><trkpt lat="40.5584917" lon="16.656565"><ele>290.0</ele><time>2026-04-12T14:03:55.44Z</time></trkpt><trkpt lat="40.5584783" lon="16.6564167"><ele>290.0</ele><time>2026-04-12T14:03:56.44Z</time></trkpt><trkpt lat="40.5584667" lon="16.656295"><ele>290.0</ele><time>2026-04-12T14:03:57.44Z</time></trkpt><trkpt lat="40.558455" lon="16.65619"><ele>290.0</ele><time>2026-04-12T14:03:58.439Z</time></trkpt><trkpt lat="40.5584467" lon="16.6561067"><ele>290.0</ele><time>2026-04-12T14:03:59.439Z</time></trkpt><trkpt lat="40.5583983" lon="16.6559983"><ele>290.0</ele><time>2026-04-12T14:04:01.441Z</time></trkpt><trkpt lat="40.5583133" lon="16.65601"><ele>290.0</ele><time>2026-04-12T14:04:03.439Z</time></trkpt><trkpt lat="40.5582783" lon="16.6561367"><ele>290.0</ele><time>2026-04-12T14:04:05.44Z</time></trkpt><trkpt lat="40.558295" lon="16.656235"><ele>290.0</ele><time>2026-04-12T14:04:06.44Z</time></trkpt><trkpt lat="40.5583167" lon="16.656355"><ele>290.0</ele><time>2026-04-12T14:04:07.44Z</time></trkpt><trkpt lat="40.5583383" lon="16.65649"><ele>290.0</ele><time>2026-04-12T14:04:08.443Z</time></trkpt><trkpt lat="40.55835" lon="16.6566383"><ele>290.0</ele><time>2026-04-12T14:04:09.439Z</time></trkpt><trkpt lat="40.5583617" lon="16.656805"><ele>290.5</ele><time>2026-04-12T14:04:10.44Z</time></trkpt><trkpt lat="40.558365" lon="16.656995"><ele>291.0</ele><time>2026-04-12T14:04:11.44Z</time></trkpt><trkpt lat="40.5583617" lon="16.6571933"><ele>291.5</ele><time>2026-04-12T14:04:12.439Z</time></trkpt><trkpt lat="40.55835" lon="16.6573917"><ele>292.0</ele><time>2026-04-12T14:04:13.44Z</time></trkpt><trkpt lat="40.5583367" lon="16.65757"><ele>292.0</ele><time>2026-04-12T14:04:14.439Z</time></trkpt><trkpt lat="40.558325" lon="16.65773"><ele>292.0</ele><time>2026-04-12T14:04:15.44Z</time></trkpt><trkpt lat="40.5583033" lon="16.6578817"><ele>292.0</ele><time>2026-04-12T14:04:16.44Z</time></trkpt><trkpt lat="40.558265" lon="16.6580217"><ele>292.0</ele><time>2026-04-12T14:04:17.44Z</time></trkpt><trkpt lat="40.558205" lon="16.6581467"><ele>291.6</ele><time>2026-04-12T14:04:18.44Z</time></trkpt><trkpt lat="40.55813" lon="16.6582583"><ele>291.2</ele><time>2026-04-12T14:04:19.438Z</time></trkpt><trkpt lat="40.5580483" lon="16.6583483"><ele>290.8</ele><time>2026-04-12T14:04:20.44Z</time></trkpt><trkpt lat="40.5579667" lon="16.65842"><ele>290.4</ele><time>2026-04-12T14:04:21.439Z</time></trkpt><trkpt lat="40.557885" lon="16.6584783"><ele>290.0</ele><time>2026-04-12T14:04:22.439Z</time></trkpt><trkpt lat="40.5577983" lon="16.6585333"><ele>290.0</ele><time>2026-04-12T14:04:23.439Z</time></trkpt><trkpt lat="40.5577133" lon="16.6585933"><ele>290.0</ele><time>2026-04-12T14:04:24.441Z</time></trkpt><trkpt lat="40.557635" lon="16.6586733"><ele>290.0</ele><time>2026-04-12T14:04:25.439Z</time></trkpt><trkpt lat="40.5575733" lon="16.6587617"><ele>290.0</ele><time>2026-04-12T14:04:26.44Z</time></trkpt><trkpt lat="40.5575333" lon="16.6588617"><ele>290.0</ele><time>2026-04-12T14:04:27.44Z</time></trkpt><trkpt lat="40.5575117" lon="16.6589783"><ele>290.2</ele><time>2026-04-12T14:04:28.44Z</time></trkpt><trkpt lat="40.5575033" lon="16.6591033"><ele>290.4</ele><time>2026-04-12T14:04:29.439Z</time></trkpt><trkpt lat="40.5574967" lon="16.6592333"><ele>290.6</ele><time>2026-04-12T14:04:30.441Z</time></trkpt><trkpt lat="40.5574883" lon="16.65938"><ele>290.8</ele><time>2026-04-12T14:04:31.441Z</time></trkpt><trkpt lat="40.5574683" lon="16.659545"><ele>291.0</ele><time>2026-04-12T14:04:32.443Z</time></trkpt><trkpt lat="40.5574367" lon="16.6597167"><ele>293.5</ele><time>2026-04-12T14:04:33.439Z</time></trkpt><trkpt lat="40.5573917" lon="16.6598933"><ele>296.0</ele><time>2026-04-12T14:04:34.44Z</time></trkpt><trkpt lat="40.557335" lon="16.6600733"><ele>298.5</ele><time>2026-04-12T14:04:35.44Z</time></trkpt><trkpt lat="40.55729" lon="16.6602483"><ele>301.0</ele><time>2026-04-12T14:04:36.44Z</time></trkpt><trkpt lat="40.557255" lon="16.6604083"><ele>298.25</ele><time>2026-04-12T14:04:37.442Z</time></trkpt><trkpt lat="40.5572133" lon="16.6605617"><ele>295.5</ele><time>2026-04-12T14:04:38.441Z</time></trkpt><trkpt lat="40.557155" lon="16.6607033"><ele>292.75</ele><time>2026-04-12T14:04:39.44Z</time></trkpt><trkpt lat="40.557075" lon="16.660835"><ele>290.0</ele><time>2026-04-12T14:04:40.442Z</time></trkpt><trkpt lat="40.5569867" lon="16.6609517"><ele>290.0</ele><time>2026-04-12T14:04:41.44Z</time></trkpt><trkpt lat="40.5568867" lon="16.6610717"><ele>290.0</ele><time>2026-04-12T14:04:42.439Z</time></trkpt><trkpt lat="40.5567833" lon="16.661195"><ele>290.0</ele><time>2026-04-12T14:04:43.439Z</time></trkpt><trkpt lat="40.556685" lon="16.6613267"><ele>290.0</ele><time>2026-04-12T14:04:44.442Z</time></trkpt><trkpt lat="40.5566" lon="16.6614717"><ele>292.75</ele><time>2026-04-12T14:04:45.439Z</time></trkpt><trkpt lat="40.5565267" lon="16.661625"><ele>295.5</ele><time>2026-04-12T14:04:46.44Z</time></trkpt><trkpt lat="40.55645" lon="16.661785"><ele>298.25</ele><time>2026-04-12T14:04:47.441Z</time></trkpt><trkpt lat="40.5563783" lon="16.66195"><ele>301.0</ele><time>2026-04-12T14:04:48.439Z</time></trkpt><trkpt lat="40.5562883" lon="16.6621083"><ele>301.25</ele><time>2026-04-12T14:04:49.44Z</time></trkpt><trkpt lat="40.556185" lon="16.66224"><ele>301.5</ele><time>2026-04-12T14:04:50.439Z</time></trkpt><trkpt lat="40.5560617" lon="16.6623483"><ele>301.75</ele><time>2026-04-12T14:04:51.439Z</time></trkpt><trkpt lat="40.5559267" lon="16.662445"><ele>302.0</ele><time>2026-04-12T14:04:52.44Z</time></trkpt><trkpt lat="40.5557833" lon="16.6625333"><ele>302.0</ele><time>2026-04-12T14:04:53.44Z</time></trkpt><trkpt lat="40.5556433" lon="16.6626183"><ele>302.0</ele><time>2026-04-12T14:04:54.439Z</time></trkpt><trkpt lat="40.55551" lon="16.6627033"><ele>302.0</ele><time>2026-04-12T14:04:55.44Z</time></trkpt><trkpt lat="40.5553783" lon="16.6627867"><ele>302.0</ele><time>2026-04-12T14:04:56.44Z</time></trkpt><trkpt lat="40.5552483" lon="16.662865"><ele>305.25</ele><time>2026-04-12T14:04:57.439Z</time></trkpt><trkpt lat="40.5551067" lon="16.662935"><ele>308.5</ele><time>2026-04-12T14:04:58.44Z</time></trkpt><trkpt lat="40.5549633" lon="16.6629883"><ele>311.75</ele><time>2026-04-12T14:04:59.439Z</time></trkpt><trkpt lat="40.5548167" lon="16.6630167"><ele>315.0</ele><time>2026-04-12T14:05:00.44Z</time></trkpt><trkpt lat="40.554675" lon="16.66302"><ele>316.5</ele><time>2026-04-12T14:05:01.44Z</time></trkpt><trkpt lat="40.55453" lon="16.663"><ele>318.0</ele><time>2026-04-12T14:05:02.439Z</time></trkpt><trkpt lat="40.5543883" lon="16.662965"><ele>319.5</ele><time>2026-04-12T14:05:03.442Z</time></trkpt><trkpt lat="40.55425" lon="16.6629117"><ele>321.0</ele><time>2026-04-12T14:05:04.442Z</time></trkpt><trkpt lat="40.55412" lon="16.66284"><ele>318.0</ele><time>2026-04-12T14:05:05.44Z</time></trkpt><trkpt lat="40.553995" lon="16.6627583"><ele>315.0</ele><time>2026-04-12T14:05:06.44Z</time></trkpt><trkpt lat="40.553875" lon="16.662675"><ele>312.0</ele><time>2026-04-12T14:05:07.44Z</time></trkpt><trkpt lat="40.55376" lon="16.6626"><ele>309.0</ele><time>2026-04-12T14:05:08.439Z</time></trkpt><trkpt lat="40.5536533" lon="16.6625233"><ele>309.0</ele><time>2026-04-12T14:05:09.443Z</time></trkpt><trkpt lat="40.55355" lon="16.66245"><ele>309.0</ele><time>2026-04-12T14:05:10.44Z</time></trkpt><trkpt lat="40.553465" lon="16.6623883"><ele>309.0</ele><time>2026-04-12T14:05:11.439Z</time></trkpt><trkpt lat="40.5533867" lon="16.66234"><ele>309.0</ele><time>2026-04-12T14:05:12.439Z</time></trkpt><trkpt lat="40.55331" lon="16.662325"><ele>309.0</ele><time>2026-04-12T14:05:13.439Z</time></trkpt><trkpt lat="40.5532383" lon="16.6623433"><ele>309.0</ele><time>2026-04-12T14:05:14.44Z</time></trkpt><trkpt lat="40.5531833" lon="16.6624183"><ele>309.0</ele><time>2026-04-12T14:05:15.44Z</time></trkpt><trkpt lat="40.55315" lon="16.6625183"><ele>309.0</ele><time>2026-04-12T14:05:16.439Z</time></trkpt><trkpt lat="40.5531233" lon="16.6626317"><ele>309.0</ele><time>2026-04-12T14:05:17.439Z</time></trkpt><trkpt lat="40.5530983" lon="16.6627483"><ele>309.0</ele><time>2026-04-12T14:05:18.439Z</time></trkpt><trkpt lat="40.553075" lon="16.66287"><ele>309.0</ele><time>2026-04-12T14:05:19.44Z</time></trkpt><trkpt lat="40.5530433" lon="16.6630017"><ele>309.75</ele><time>2026-04-12T14:05:20.44Z</time></trkpt><trkpt lat="40.5529983" lon="16.6631367"><ele>310.5</ele><time>2026-04-12T14:05:21.442Z</time></trkpt><trkpt lat="40.5529433" lon="16.66327"><ele>311.25</ele><time>2026-04-12T14:05:22.439Z</time></trkpt><trkpt lat="40.55289" lon="16.6634033"><ele>312.0</ele><time>2026-04-12T14:05:23.44Z</time></trkpt><trkpt lat="40.552845" lon="16.6635333"><ele>313.4</ele><time>2026-04-12T14:05:24.44Z</time></trkpt><trkpt lat="40.5528" lon="16.6636583"><ele>314.79999999999995</ele><time>2026-04-12T14:05:25.439Z</time></trkpt><trkpt lat="40.552755" lon="16.6637717"><ele>316.2</ele><time>2026-04-12T14:05:26.441Z</time></trkpt><trkpt lat="40.55271" lon="16.6638883"><ele>317.59999999999997</ele><time>2026-04-12T14:05:27.439Z</time></trkpt><trkpt lat="40.552665" lon="16.6639917"><ele>319.0</ele><time>2026-04-12T14:05:28.44Z</time></trkpt><trkpt lat="40.552625" lon="16.66409"><ele>319.0</ele><time>2026-04-12T14:05:29.439Z</time></trkpt><trkpt lat="40.5525883" lon="16.6641833"><ele>319.0</ele><time>2026-04-12T14:05:30.438Z</time></trkpt><trkpt lat="40.5525567" lon="16.66428"><ele>319.0</ele><time>2026-04-12T14:05:31.44Z</time></trkpt><trkpt lat="40.55253" lon="16.6643817"><ele>319.0</ele><time>2026-04-12T14:05:32.441Z</time></trkpt><trkpt lat="40.5525033" lon="16.6644883"><ele>319.0</ele><time>2026-04-12T14:05:33.44Z</time></trkpt><trkpt lat="40.5524783" lon="16.6645967"><ele>319.0</ele><time>2026-04-12T14:05:34.44Z</time></trkpt><trkpt lat="40.552455" lon="16.6647033"><ele>319.66666666666663</ele><time>2026-04-12T14:05:35.439Z</time></trkpt><trkpt lat="40.5524317" lon="16.6648117"><ele>320.3333333333333</ele><time>2026-04-12T14:05:36.44Z</time></trkpt><trkpt lat="40.5524067" lon="16.6649233"><ele>321.0</ele><time>2026-04-12T14:05:37.442Z</time></trkpt><trkpt lat="40.5523833" lon="16.665035"><ele>321.6666666666667</ele><time>2026-04-12T14:05:38.441Z</time></trkpt><trkpt lat="40.5523617" lon="16.6651433"><ele>322.33333333333337</ele><time>2026-04-12T14:05:39.439Z</time></trkpt><trkpt lat="40.5523417" lon="16.6652483"><ele>323.0</ele><time>2026-04-12T14:05:40.44Z</time></trkpt><trkpt lat="40.5523183" lon="16.6653517"><ele>323.83333333333337</ele><time>2026-04-12T14:05:41.44Z</time></trkpt><trkpt lat="40.5523" lon="16.6654533"><ele>324.6666666666667</ele><time>2026-04-12T14:05:42.44Z</time></trkpt><trkpt lat="40.55228" lon="16.6655517"><ele>325.5</ele><time>2026-04-12T14:05:43.441Z</time></trkpt><trkpt lat="40.5522617" lon="16.6656433"><ele>326.3333333333333</ele><time>2026-04-12T14:05:44.44Z</time></trkpt><trkpt lat="40.55223" lon="16.66579"><ele>327.16666666666663</ele><time>2026-04-12T14:05:46.439Z</time></trkpt><trkpt lat="40.552205" lon="16.6658983"><ele>328.0</ele><time>2026-04-12T14:05:48.44Z</time></trkpt><trkpt lat="40.552155" lon="16.666005"><ele>328.0</ele><time>2026-04-12T14:05:51.439Z</time></trkpt><trkpt lat="40.55206" lon="16.6660567"><ele>328.0</ele><time>2026-04-12T14:05:53.439Z</time></trkpt><trkpt lat="40.551945" lon="16.6660967"><ele>328.0</ele><time>2026-04-12T14:05:55.44Z</time></trkpt><trkpt lat="40.5518167" lon="16.6661217"><ele>328.0</ele><time>2026-04-12T14:05:57.44Z</time></trkpt><trkpt lat="40.5517317" lon="16.66613"><ele>328.0</ele><time>2026-04-12T14:05:58.439Z</time></trkpt><trkpt lat="40.5516317" lon="16.6661433"><ele>328.0</ele><time>2026-04-12T14:05:59.442Z</time></trkpt><trkpt lat="40.55153" lon="16.66615"><ele>328.0</ele><time>2026-04-12T14:06:00.44Z</time></trkpt><trkpt lat="40.5514233" lon="16.6661667"><ele>328.0</ele><time>2026-04-12T14:06:01.44Z</time></trkpt><trkpt lat="40.5513067" lon="16.6661867"><ele>328.0</ele><time>2026-04-12T14:06:02.44Z</time></trkpt><trkpt lat="40.5511983" lon="16.6662067"><ele>328.0</ele><time>2026-04-12T14:06:03.439Z</time></trkpt><trkpt lat="40.5510933" lon="16.6662167"><ele>328.0</ele><time>2026-04-12T14:06:04.44Z</time></trkpt><trkpt lat="40.5509817" lon="16.66623"><ele>328.0</ele><time>2026-04-12T14:06:05.44Z</time></trkpt><trkpt lat="40.55087" lon="16.66623"><ele>328.0</ele><time>2026-04-12T14:06:06.44Z</time></trkpt><trkpt lat="40.550745" lon="16.66624"><ele>328.0</ele><time>2026-04-12T14:06:07.443Z</time></trkpt><trkpt lat="40.5506283" lon="16.6662617"><ele>328.0</ele><time>2026-04-12T14:06:08.44Z</time></trkpt><trkpt lat="40.5505117" lon="16.66628"><ele>328.0</ele><time>2026-04-12T14:06:09.439Z</time></trkpt><trkpt lat="40.5504" lon="16.6662883"><ele>328.0</ele><time>2026-04-12T14:06:10.439Z</time></trkpt><trkpt lat="40.5502867" lon="16.6662867"><ele>328.0</ele><time>2026-04-12T14:06:11.439Z</time></trkpt><trkpt lat="40.550175" lon="16.666275"><ele>328.0</ele><time>2026-04-12T14:06:12.439Z</time></trkpt><trkpt lat="40.550065" lon="16.66627"><ele>328.0</ele><time>2026-04-12T14:06:13.44Z</time></trkpt><trkpt lat="40.549965" lon="16.6662683"><ele>328.0</ele><time>2026-04-12T14:06:14.44Z</time></trkpt><trkpt lat="40.5498617" lon="16.66627"><ele>328.0</ele><time>2026-04-12T14:06:15.439Z</time></trkpt><trkpt lat="40.5497617" lon="16.6662683"><ele>328.0</ele><time>2026-04-12T14:06:16.438Z</time></trkpt><trkpt lat="40.5496517" lon="16.6662717"><ele>328.0</ele><time>2026-04-12T14:06:17.439Z</time></trkpt><trkpt lat="40.5495433" lon="16.66629"><ele>328.0</ele><time>2026-04-12T14:06:18.439Z</time></trkpt><trkpt lat="40.549435" lon="16.6663133"><ele>328.0</ele><time>2026-04-12T14:06:19.441Z</time></trkpt><trkpt lat="40.5493317" lon="16.6663467"><ele>328.0</ele><time>2026-04-12T14:06:20.439Z</time></trkpt><trkpt lat="40.5492317" lon="16.6663783"><ele>328.0</ele><time>2026-04-12T14:06:21.438Z</time></trkpt><trkpt lat="40.5491317" lon="16.66641"><ele>326.4</ele><time>2026-04-12T14:06:22.438Z</time></trkpt><trkpt lat="40.5490333" lon="16.6664433"><ele>324.79999999999995</ele><time>2026-04-12T14:06:23.439Z</time></trkpt><trkpt lat="40.548935" lon="16.6664733"><ele>323.2</ele><time>2026-04-12T14:06:24.438Z</time></trkpt><trkpt lat="40.548835" lon="16.6665"><ele>321.6</ele><time>2026-04-12T14:06:25.441Z</time></trkpt><trkpt lat="40.54874" lon="16.666545"><ele>320.0</ele><time>2026-04-12T14:06:26.439Z</time></trkpt><trkpt lat="40.5486483" lon="16.6665683"><ele>318.83333333333337</ele><time>2026-04-12T14:06:27.438Z</time></trkpt><trkpt lat="40.5485667" lon="16.6666033"><ele>317.6666666666667</ele><time>2026-04-12T14:06:28.439Z</time></trkpt><trkpt lat="40.5484883" lon="16.6666333"><ele>316.5</ele><time>2026-04-12T14:06:29.439Z</time></trkpt><trkpt lat="40.5484117" lon="16.666665"><ele>315.3333333333333</ele><time>2026-04-12T14:06:30.438Z</time></trkpt><trkpt lat="40.5483367" lon="16.666695"><ele>314.16666666666663</ele><time>2026-04-12T14:06:31.438Z</time></trkpt><trkpt lat="40.54826" lon="16.66671"><ele>313.0</ele><time>2026-04-12T14:06:32.439Z</time></trkpt><trkpt lat="40.54818" lon="16.6667233"><ele>313.0</ele><time>2026-04-12T14:06:33.439Z</time></trkpt><trkpt lat="40.5481067" lon="16.6667383"><ele>313.0</ele><time>2026-04-12T14:06:34.438Z</time></trkpt><trkpt lat="40.5480267" lon="16.6667583"><ele>313.0</ele><time>2026-04-12T14:06:35.439Z</time></trkpt><trkpt lat="40.54795" lon="16.6667817"><ele>313.0</ele><time>2026-04-12T14:06:36.438Z</time></trkpt><trkpt lat="40.5478717" lon="16.666805"><ele>313.0</ele><time>2026-04-12T14:06:37.439Z</time></trkpt><trkpt lat="40.5477917" lon="16.66683"><ele>313.0</ele><time>2026-04-12T14:06:38.44Z</time></trkpt><trkpt lat="40.5477133" lon="16.666855"><ele>313.5</ele><time>2026-04-12T14:06:39.439Z</time></trkpt><trkpt lat="40.547635" lon="16.6668833"><ele>314.0</ele><time>2026-04-12T14:06:40.439Z</time></trkpt><trkpt lat="40.5475583" lon="16.66691"><ele>314.5</ele><time>2026-04-12T14:06:41.439Z</time></trkpt><trkpt lat="40.5474833" lon="16.666935"><ele>315.0</ele><time>2026-04-12T14:06:42.438Z</time></trkpt><trkpt lat="40.54741" lon="16.66696"><ele>315.5</ele><time>2026-04-12T14:06:43.44Z</time></trkpt><trkpt lat="40.5473317" lon="16.666985"><ele>316.0</ele><time>2026-04-12T14:06:44.439Z</time></trkpt><trkpt lat="40.5472533" lon="16.6670083"><ele>316.0</ele><time>2026-04-12T14:06:45.439Z</time></trkpt><trkpt lat="40.547175" lon="16.6670317"><ele>316.0</ele><time>2026-04-12T14:06:46.439Z</time></trkpt><trkpt lat="40.547095" lon="16.6670517"><ele>316.0</ele><time>2026-04-12T14:06:47.439Z</time></trkpt><trkpt lat="40.5470183" lon="16.6670667"><ele>316.0</ele><time>2026-04-12T14:06:48.438Z</time></trkpt><trkpt lat="40.5469383" lon="16.66708"><ele>316.0</ele><time>2026-04-12T14:06:49.439Z</time></trkpt><trkpt lat="40.546855" lon="16.6670833"><ele>316.0</ele><time>2026-04-12T14:06:50.438Z</time></trkpt><trkpt lat="40.5467717" lon="16.667085"><ele>314.66666666666663</ele><time>2026-04-12T14:06:51.438Z</time></trkpt><trkpt lat="40.54669" lon="16.66708"><ele>313.3333333333333</ele><time>2026-04-12T14:06:52.439Z</time></trkpt><trkpt lat="40.5466083" lon="16.6670717"><ele>312.0</ele><time>2026-04-12T14:06:53.44Z</time></trkpt><trkpt lat="40.5465317" lon="16.667055"><ele>310.6666666666667</ele><time>2026-04-12T14:06:54.439Z</time></trkpt><trkpt lat="40.5464567" lon="16.66703"><ele>309.33333333333337</ele><time>2026-04-12T14:06:55.438Z</time></trkpt><trkpt lat="40.546375" lon="16.66701"><ele>308.0</ele><time>2026-04-12T14:06:56.439Z</time></trkpt><trkpt lat="40.54629" lon="16.6669933"><ele>307.83333333333337</ele><time>2026-04-12T14:06:57.439Z</time></trkpt><trkpt lat="40.5462033" lon="16.666975"><ele>307.6666666666667</ele><time>2026-04-12T14:06:58.441Z</time></trkpt><trkpt lat="40.546115" lon="16.66696"><ele>307.5</ele><time>2026-04-12T14:06:59.441Z</time></trkpt><trkpt lat="40.5460267" lon="16.6669483"><ele>307.3333333333333</ele><time>2026-04-12T14:07:00.438Z</time></trkpt><trkpt lat="40.54594" lon="16.6669433"><ele>307.16666666666663</ele><time>2026-04-12T14:07:01.439Z</time></trkpt><trkpt lat="40.545855" lon="16.666955"><ele>307.0</ele><time>2026-04-12T14:07:02.439Z</time></trkpt><trkpt lat="40.54577" lon="16.66698"><ele>307.0</ele><time>2026-04-12T14:07:03.439Z</time></trkpt><trkpt lat="40.5456867" lon="16.6670183"><ele>307.0</ele><time>2026-04-12T14:07:04.439Z</time></trkpt><trkpt lat="40.545605" lon="16.667065"><ele>307.0</ele><time>2026-04-12T14:07:05.44Z</time></trkpt><trkpt lat="40.5455267" lon="16.66712"><ele>307.0</ele><time>2026-04-12T14:07:06.438Z</time></trkpt><trkpt lat="40.54545" lon="16.6671733"><ele>307.0</ele><time>2026-04-12T14:07:07.442Z</time></trkpt><trkpt lat="40.5453733" lon="16.6672217"><ele>307.0</ele><time>2026-04-12T14:07:08.44Z</time></trkpt><trkpt lat="40.5452967" lon="16.6672667"><ele>306.8333333333333</ele><time>2026-04-12T14:07:09.438Z</time></trkpt><trkpt lat="40.54522" lon="16.6673117"><ele>306.66666666666663</ele><time>2026-04-12T14:07:10.438Z</time></trkpt><trkpt lat="40.545145" lon="16.6673583"><ele>306.5</ele><time>2026-04-12T14:07:11.438Z</time></trkpt><trkpt lat="40.5450783" lon="16.667415"><ele>306.3333333333333</ele><time>2026-04-12T14:07:12.438Z</time></trkpt><trkpt lat="40.5450167" lon="16.6674833"><ele>306.1666666666667</ele><time>2026-04-12T14:07:13.438Z</time></trkpt><trkpt lat="40.5449567" lon="16.6675533"><ele>306.0</ele><time>2026-04-12T14:07:14.439Z</time></trkpt><trkpt lat="40.544895" lon="16.667615"><ele>306.0</ele><time>2026-04-12T14:07:15.438Z</time></trkpt><trkpt lat="40.5448283" lon="16.6676583"><ele>306.0</ele><time>2026-04-12T14:07:16.438Z</time></trkpt><trkpt lat="40.5447617" lon="16.6676783"><ele>306.0</ele><time>2026-04-12T14:07:17.438Z</time></trkpt><trkpt lat="40.5446867" lon="16.6676783"><ele>306.0</ele><time>2026-04-12T14:07:18.438Z</time></trkpt><trkpt lat="40.5446133" lon="16.6676867"><ele>306.0</ele><time>2026-04-12T14:07:19.438Z</time></trkpt><trkpt lat="40.54455" lon="16.6677817"><ele>306.0</ele><time>2026-04-12T14:07:21.439Z</time></trkpt><trkpt lat="40.5446183" lon="16.6678333"><ele>306.0</ele><time>2026-04-12T14:07:23.438Z</time></trkpt><trkpt lat="40.5447133" lon="16.6678067"><ele>306.0</ele><time>2026-04-12T14:07:25.437Z</time></trkpt><trkpt lat="40.544795" lon="16.6677583"><ele>306.0</ele><time>2026-04-12T14:07:27.438Z</time></trkpt><trkpt lat="40.5448867" lon="16.6677133"><ele>306.0</ele><time>2026-04-12T14:07:29.438Z</time></trkpt><trkpt lat="40.5449633" lon="16.6676383"><ele>306.0</ele><time>2026-04-12T14:07:31.439Z</time></trkpt><trkpt lat="40.5450467" lon="16.667535"><ele>306.0</ele><time>2026-04-12T14:07:33.439Z</time></trkpt><trkpt lat="40.545145" lon="16.6674517"><ele>306.0</ele><time>2026-04-12T14:07:35.44Z</time></trkpt><trkpt lat="40.5452483" lon="16.66738"><ele>306.0</ele><time>2026-04-12T14:07:37.438Z</time></trkpt><trkpt lat="40.5453467" lon="16.667315"><ele>306.0</ele><time>2026-04-12T14:07:39.439Z</time></trkpt><trkpt lat="40.5454383" lon="16.667265"><ele>306.0</ele><time>2026-04-12T14:07:41.439Z</time></trkpt><trkpt lat="40.5455333" lon="16.667215"><ele>306.2</ele><time>2026-04-12T14:07:43.44Z</time></trkpt><trkpt lat="40.5456167" lon="16.667145"><ele>306.40000000000003</ele><time>2026-04-12T14:07:45.438Z</time></trkpt><trkpt lat="40.5457" lon="16.66709"><ele>306.6</ele><time>2026-04-12T14:07:47.439Z</time></trkpt><trkpt lat="40.5457933" lon="16.667045"><ele>306.8</ele><time>2026-04-12T14:07:49.441Z</time></trkpt><trkpt lat="40.5458917" lon="16.66702"><ele>307.0</ele><time>2026-04-12T14:07:51.44Z</time></trkpt><trkpt lat="40.5459967" lon="16.667025"><ele>307.0</ele><time>2026-04-12T14:07:53.438Z</time></trkpt><trkpt lat="40.546095" lon="16.6670433"><ele>307.0</ele><time>2026-04-12T14:07:55.44Z</time></trkpt><trkpt lat="40.5461917" lon="16.667065"><ele>307.0</ele><time>2026-04-12T14:07:57.439Z</time></trkpt><trkpt lat="40.5462967" lon="16.6670783"><ele>307.0</ele><time>2026-04-12T14:07:59.442Z</time></trkpt><trkpt lat="40.5464" lon="16.6670983"><ele>307.0</ele><time>2026-04-12T14:08:01.439Z</time></trkpt><trkpt lat="40.5465167" lon="16.667115"><ele>307.16666666666663</ele><time>2026-04-12T14:08:03.439Z</time></trkpt><trkpt lat="40.5466383" lon="16.66714"><ele>307.3333333333333</ele><time>2026-04-12T14:08:05.439Z</time></trkpt><trkpt lat="40.5467033" lon="16.66715"><ele>307.5</ele><time>2026-04-12T14:08:06.439Z</time></trkpt><trkpt lat="40.5467683" lon="16.6671583"><ele>307.6666666666667</ele><time>2026-04-12T14:08:07.439Z</time></trkpt><trkpt lat="40.5468317" lon="16.6671617"><ele>307.83333333333337</ele><time>2026-04-12T14:08:08.439Z</time></trkpt><trkpt lat="40.54695" lon="16.6671683"><ele>308.0</ele><time>2026-04-12T14:08:10.442Z</time></trkpt><trkpt lat="40.547015" lon="16.6671667"><ele>309.14285714285717</ele><time>2026-04-12T14:08:11.438Z</time></trkpt><trkpt lat="40.5470833" lon="16.6671583"><ele>310.2857142857143</ele><time>2026-04-12T14:08:12.438Z</time></trkpt><trkpt lat="40.5471567" lon="16.6671467"><ele>311.42857142857144</ele><time>2026-04-12T14:08:13.439Z</time></trkpt><trkpt lat="40.5472283" lon="16.6671333"><ele>312.57142857142856</ele><time>2026-04-12T14:08:14.439Z</time></trkpt><trkpt lat="40.5472983" lon="16.6671133"><ele>313.7142857142857</ele><time>2026-04-12T14:08:15.438Z</time></trkpt><trkpt lat="40.5473683" lon="16.667095"><ele>314.8571428571429</ele><time>2026-04-12T14:08:16.438Z</time></trkpt><trkpt lat="40.54744" lon="16.667075"><ele>316.0</ele><time>2026-04-12T14:08:17.439Z</time></trkpt><trkpt lat="40.5475117" lon="16.6670533"><ele>316.00000000000006</ele><time>2026-04-12T14:08:18.44Z</time></trkpt><trkpt lat="40.5475817" lon="16.6670317"><ele>316.0</ele><time>2026-04-12T14:08:19.439Z</time></trkpt><trkpt lat="40.5476517" lon="16.6670083"><ele>316.0</ele><time>2026-04-12T14:08:20.439Z</time></trkpt><trkpt lat="40.5477217" lon="16.6669867"><ele>316.0</ele><time>2026-04-12T14:08:21.439Z</time></trkpt><trkpt lat="40.5477917" lon="16.6669617"><ele>316.0</ele><time>2026-04-12T14:08:22.439Z</time></trkpt><trkpt lat="40.5478667" lon="16.666935"><ele>316.00000000000006</ele><time>2026-04-12T14:08:23.44Z</time></trkpt><trkpt lat="40.54794" lon="16.66691"><ele>316.0</ele><time>2026-04-12T14:08:24.438Z</time></trkpt><trkpt lat="40.5480133" lon="16.666885"><ele>315.5714285714286</ele><time>2026-04-12T14:08:25.439Z</time></trkpt><trkpt lat="40.548085" lon="16.66686"><ele>315.14285714285717</ele><time>2026-04-12T14:08:26.441Z</time></trkpt><trkpt lat="40.5481533" lon="16.6668383"><ele>314.7142857142857</ele><time>2026-04-12T14:08:27.439Z</time></trkpt><trkpt lat="40.5482217" lon="16.6668167"><ele>314.28571428571433</ele><time>2026-04-12T14:08:28.44Z</time></trkpt><trkpt lat="40.54829" lon="16.666795"><ele>313.8571428571429</ele><time>2026-04-12T14:08:29.438Z</time></trkpt><trkpt lat="40.5483583" lon="16.6667717"><ele>313.42857142857144</ele><time>2026-04-12T14:08:30.438Z</time></trkpt><trkpt lat="40.5484283" lon="16.66675"><ele>313.0</ele><time>2026-04-12T14:08:31.439Z</time></trkpt><trkpt lat="40.5485" lon="16.66673"><ele>313.0</ele><time>2026-04-12T14:08:32.439Z</time></trkpt><trkpt lat="40.548575" lon="16.6667067"><ele>313.0</ele><time>2026-04-12T14:08:33.439Z</time></trkpt><trkpt lat="40.54865" lon="16.66668"><ele>313.0</ele><time>2026-04-12T14:08:34.438Z</time></trkpt><trkpt lat="40.5487283" lon="16.6666533"><ele>313.0</ele><time>2026-04-12T14:08:35.44Z</time></trkpt><trkpt lat="40.5488067" lon="16.6666233"><ele>313.0</ele><time>2026-04-12T14:08:36.438Z</time></trkpt><trkpt lat="40.5488833" lon="16.6665883"><ele>313.0</ele><time>2026-04-12T14:08:37.439Z</time></trkpt><trkpt lat="40.54896" lon="16.6665583"><ele>314.16666666666663</ele><time>2026-04-12T14:08:38.439Z</time></trkpt><trkpt lat="40.549035" lon="16.666525"><ele>315.3333333333333</ele><time>2026-04-12T14:08:39.438Z</time></trkpt><trkpt lat="40.5491083" lon="16.6664983"><ele>316.5</ele><time>2026-04-12T14:08:40.438Z</time></trkpt><trkpt lat="40.5491817" lon="16.666475"><ele>317.6666666666667</ele><time>2026-04-12T14:08:41.439Z</time></trkpt><trkpt lat="40.5492533" lon="16.6664533"><ele>318.83333333333337</ele><time>2026-04-12T14:08:42.438Z</time></trkpt><trkpt lat="40.549325" lon="16.6664317"><ele>320.0</ele><time>2026-04-12T14:08:43.439Z</time></trkpt><trkpt lat="40.5493983" lon="16.6664067"><ele>320.0</ele><time>2026-04-12T14:08:44.441Z</time></trkpt><trkpt lat="40.5494717" lon="16.66638"><ele>320.0</ele><time>2026-04-12T14:08:45.438Z</time></trkpt><trkpt lat="40.5495433" lon="16.666355"><ele>320.0</ele><time>2026-04-12T14:08:46.439Z</time></trkpt><trkpt lat="40.5496167" lon="16.66634"><ele>320.0</ele><time>2026-04-12T14:08:47.439Z</time></trkpt><trkpt lat="40.5496883" lon="16.6663217"><ele>320.0</ele><time>2026-04-12T14:08:48.44Z</time></trkpt><trkpt lat="40.5497633" lon="16.6663167"><ele>320.0</ele><time>2026-04-12T14:08:49.438Z</time></trkpt><trkpt lat="40.5498383" lon="16.66631"><ele>320.0</ele><time>2026-04-12T14:08:50.438Z</time></trkpt><trkpt lat="40.5499133" lon="16.6663033"><ele>321.33333333333337</ele><time>2026-04-12T14:08:51.438Z</time></trkpt><trkpt lat="40.5499917" lon="16.6662967"><ele>322.6666666666667</ele><time>2026-04-12T14:08:52.439Z</time></trkpt><trkpt lat="40.5500667" lon="16.6662933"><ele>324.0</ele><time>2026-04-12T14:08:53.439Z</time></trkpt><trkpt lat="40.550145" lon="16.6662917"><ele>325.3333333333333</ele><time>2026-04-12T14:08:54.439Z</time></trkpt><trkpt lat="40.5502217" lon="16.6662867"><ele>326.66666666666663</ele><time>2026-04-12T14:08:55.439Z</time></trkpt><trkpt lat="40.5503" lon="16.6662817"><ele>328.0</ele><time>2026-04-12T14:08:56.439Z</time></trkpt><trkpt lat="40.5503733" lon="16.6662767"><ele>328.0</ele><time>2026-04-12T14:08:57.438Z</time></trkpt><trkpt lat="40.550445" lon="16.666275"><ele>328.0</ele><time>2026-04-12T14:08:58.438Z</time></trkpt><trkpt lat="40.5505133" lon="16.66628"><ele>328.0</ele><time>2026-04-12T14:08:59.438Z</time></trkpt><trkpt lat="40.5505783" lon="16.6662783"><ele>328.0</ele><time>2026-04-12T14:09:00.438Z</time></trkpt><trkpt lat="40.5506417" lon="16.666275"><ele>328.0</ele><time>2026-04-12T14:09:01.438Z</time></trkpt><trkpt lat="40.55076" lon="16.6662567"><ele>328.0</ele><time>2026-04-12T14:09:03.439Z</time></trkpt><trkpt lat="40.5508767" lon="16.6662367"><ele>327.99999999999994</ele><time>2026-04-12T14:09:05.439Z</time></trkpt><trkpt lat="40.55094" lon="16.6662333"><ele>328.0</ele><time>2026-04-12T14:09:06.438Z</time></trkpt><trkpt lat="40.5510033" lon="16.6662267"><ele>328.0</ele><time>2026-04-12T14:09:07.438Z</time></trkpt><trkpt lat="40.5510667" lon="16.6662217"><ele>328.0</ele><time>2026-04-12T14:09:08.438Z</time></trkpt><trkpt lat="40.5511883" lon="16.6662067"><ele>328.0</ele><time>2026-04-12T14:09:10.439Z</time></trkpt><trkpt lat="40.5512517" lon="16.6662"><ele>327.99999999999994</ele><time>2026-04-12T14:09:11.438Z</time></trkpt><trkpt lat="40.5513167" lon="16.6661933"><ele>328.0</ele><time>2026-04-12T14:09:12.439Z</time></trkpt><trkpt lat="40.5513817" lon="16.66619"><ele>328.2857142857143</ele><time>2026-04-12T14:09:13.439Z</time></trkpt><trkpt lat="40.5514483" lon="16.6661833"><ele>328.57142857142856</ele><time>2026-04-12T14:09:14.439Z</time></trkpt><trkpt lat="40.551515" lon="16.66618"><ele>328.8571428571429</ele><time>2026-04-12T14:09:15.438Z</time></trkpt><trkpt lat="40.551585" lon="16.6661717"><ele>329.1428571428571</ele><time>2026-04-12T14:09:16.439Z</time></trkpt><trkpt lat="40.5516533" lon="16.6661617"><ele>329.42857142857144</ele><time>2026-04-12T14:09:17.439Z</time></trkpt><trkpt lat="40.55172" lon="16.666155"><ele>329.7142857142857</ele><time>2026-04-12T14:09:18.439Z</time></trkpt><trkpt lat="40.551785" lon="16.666145"><ele>330.0</ele><time>2026-04-12T14:09:19.439Z</time></trkpt><trkpt lat="40.5519017" lon="16.6661217"><ele>329.6</ele><time>2026-04-12T14:09:21.438Z</time></trkpt><trkpt lat="40.552015" lon="16.66608"><ele>329.2</ele><time>2026-04-12T14:09:23.439Z</time></trkpt><trkpt lat="40.55213" lon="16.6660933"><ele>328.79999999999995</ele><time>2026-04-12T14:09:25.439Z</time></trkpt><trkpt lat="40.5521733" lon="16.6661783"><ele>328.4</ele><time>2026-04-12T14:09:26.439Z</time></trkpt><trkpt lat="40.552215" lon="16.6662683"><ele>328.0</ele><time>2026-04-12T14:09:27.438Z</time></trkpt><trkpt lat="40.5522617" lon="16.666355"><ele>329.0</ele><time>2026-04-12T14:09:28.438Z</time></trkpt><trkpt lat="40.5522983" lon="16.666445"><ele>330.0</ele><time>2026-04-12T14:09:29.442Z</time></trkpt><trkpt lat="40.55235" lon="16.6665333"><ele>331.0</ele><time>2026-04-12T14:09:30.439Z</time></trkpt><trkpt lat="40.5524067" lon="16.66662"><ele>332.0</ele><time>2026-04-12T14:09:31.439Z</time></trkpt><trkpt lat="40.5524583" lon="16.6667033"><ele>333.0</ele><time>2026-04-12T14:09:32.441Z</time></trkpt><trkpt lat="40.552505" lon="16.6667817"><ele>334.0</ele><time>2026-04-12T14:09:33.438Z</time></trkpt><trkpt lat="40.5525533" lon="16.6668533"><ele>334.0</ele><time>2026-04-12T14:09:34.439Z</time></trkpt><trkpt lat="40.5526017" lon="16.6669167"><ele>334.0</ele><time>2026-04-12T14:09:35.44Z</time></trkpt><trkpt lat="40.552655" lon="16.666975"><ele>334.0</ele><time>2026-04-12T14:09:36.438Z</time></trkpt><trkpt lat="40.5527083" lon="16.6670317"><ele>334.0</ele><time>2026-04-12T14:09:37.443Z</time></trkpt><trkpt lat="40.5527667" lon="16.6670733"><ele>334.0</ele><time>2026-04-12T14:09:38.44Z</time></trkpt><trkpt lat="40.552825" lon="16.6671083"><ele>334.0</ele><time>2026-04-12T14:09:39.438Z</time></trkpt><trkpt lat="40.5528867" lon="16.6671417"><ele>334.0</ele><time>2026-04-12T14:09:40.439Z</time></trkpt><trkpt lat="40.5529467" lon="16.6671717"><ele>334.16666666666663</ele><time>2026-04-12T14:09:41.439Z</time></trkpt><trkpt lat="40.55301" lon="16.6672017"><ele>334.3333333333333</ele><time>2026-04-12T14:09:42.44Z</time></trkpt><trkpt lat="40.553075" lon="16.6672283"><ele>334.5</ele><time>2026-04-12T14:09:43.441Z</time></trkpt><trkpt lat="40.5531367" lon="16.6672533"><ele>334.6666666666667</ele><time>2026-04-12T14:09:44.439Z</time></trkpt><trkpt lat="40.553255" lon="16.6672933"><ele>334.83333333333337</ele><time>2026-04-12T14:09:46.44Z</time></trkpt><trkpt lat="40.5533183" lon="16.6673083"><ele>335.0</ele><time>2026-04-12T14:09:47.438Z</time></trkpt><trkpt lat="40.5534333" lon="16.6673383"><ele>335.0</ele><time>2026-04-12T14:09:49.438Z</time></trkpt><trkpt lat="40.5535467" lon="16.6673633"><ele>335.0</ele><time>2026-04-12T14:09:51.439Z</time></trkpt><trkpt lat="40.553655" lon="16.667365"><ele>335.0</ele><time>2026-04-12T14:09:53.439Z</time></trkpt><trkpt lat="40.5537467" lon="16.6673"><ele>335.0</ele><time>2026-04-12T14:09:55.439Z</time></trkpt><trkpt lat="40.5538583" lon="16.667195"><ele>335.83333333333337</ele><time>2026-04-12T14:09:57.438Z</time></trkpt><trkpt lat="40.5539317" lon="16.6671317"><ele>336.6666666666667</ele><time>2026-04-12T14:09:58.439Z</time></trkpt><trkpt lat="40.5540033" lon="16.6670733"><ele>337.5</ele><time>2026-04-12T14:09:59.439Z</time></trkpt><trkpt lat="40.554065" lon="16.6670267"><ele>338.3333333333333</ele><time>2026-04-12T14:10:00.438Z</time></trkpt><trkpt lat="40.554125" lon="16.6669133"><ele>339.16666666666663</ele><time>2026-04-12T14:10:02.438Z</time></trkpt><trkpt lat="40.5541" lon="16.6668233"><ele>340.0</ele><time>2026-04-12T14:10:03.44Z</time></trkpt><trkpt lat="40.554035" lon="16.6666917"><ele>340.0</ele><time>2026-04-12T14:10:04.438Z</time></trkpt><trkpt lat="40.5539733" lon="16.66653"><ele>340.0</ele><time>2026-04-12T14:10:05.441Z</time></trkpt><trkpt lat="40.553915" lon="16.6663317"><ele>340.0</ele><time>2026-04-12T14:10:06.439Z</time></trkpt><trkpt lat="40.553855" lon="16.6661167"><ele>340.25</ele><time>2026-04-12T14:10:07.439Z</time></trkpt><trkpt lat="40.5537983" lon="16.6659217"><ele>340.5</ele><time>2026-04-12T14:10:08.439Z</time></trkpt><trkpt lat="40.5537483" lon="16.66576"><ele>340.75</ele><time>2026-04-12T14:10:09.438Z</time></trkpt><trkpt lat="40.55371" lon="16.66564"><ele>341.0</ele><time>2026-04-12T14:10:10.438Z</time></trkpt><trkpt lat="40.5536817" lon="16.6655617"><ele>341.33333333333337</ele><time>2026-04-12T14:10:11.439Z</time></trkpt><trkpt lat="40.5536083" lon="16.6654967"><ele>341.6666666666667</ele><time>2026-04-12T14:10:13.439Z</time></trkpt><trkpt lat="40.553545" lon="16.66553"><ele>342.0</ele><time>2026-04-12T14:10:14.442Z</time></trkpt><trkpt lat="40.5534783" lon="16.665565"><ele>342.3333333333333</ele><time>2026-04-12T14:10:15.439Z</time></trkpt><trkpt lat="40.5534017" lon="16.66561"><ele>342.66666666666663</ele><time>2026-04-12T14:10:16.439Z</time></trkpt><trkpt lat="40.5533167" lon="16.66567"><ele>343.0</ele><time>2026-04-12T14:10:17.439Z</time></trkpt><trkpt lat="40.5532283" lon="16.6657367"><ele>343.0</ele><time>2026-04-12T14:10:18.439Z</time></trkpt><trkpt lat="40.553145" lon="16.6657967"><ele>343.0</ele><time>2026-04-12T14:10:19.439Z</time></trkpt><trkpt lat="40.5530783" lon="16.6658533"><ele>343.0</ele><time>2026-04-12T14:10:20.44Z</time></trkpt><trkpt lat="40.5530267" lon="16.6659133"><ele>343.0</ele><time>2026-04-12T14:10:21.438Z</time></trkpt><trkpt lat="40.553015" lon="16.666"><ele>343.0</ele><time>2026-04-12T14:10:22.438Z</time></trkpt><trkpt lat="40.55303" lon="16.6661083"><ele>343.0</ele><time>2026-04-12T14:10:23.439Z</time></trkpt><trkpt lat="40.55305" lon="16.6662183"><ele>342.8333333333333</ele><time>2026-04-12T14:10:24.438Z</time></trkpt><trkpt lat="40.55307" lon="16.6663117"><ele>342.66666666666663</ele><time>2026-04-12T14:10:25.439Z</time></trkpt><trkpt lat="40.55308" lon="16.6664033"><ele>342.5</ele><time>2026-04-12T14:10:26.439Z</time></trkpt><trkpt lat="40.5531083" lon="16.66651"><ele>342.3333333333333</ele><time>2026-04-12T14:10:28.438Z</time></trkpt><trkpt lat="40.5531583" lon="16.66662"><ele>342.1666666666667</ele><time>2026-04-12T14:10:37.438Z</time></trkpt><trkpt lat="40.5532167" lon="16.66667"><ele>342.0</ele><time>2026-04-12T14:10:41.439Z</time></trkpt><trkpt lat="40.5533033" lon="16.6666583"><ele>342.0</ele><time>2026-04-12T14:10:43.438Z</time></trkpt><trkpt lat="40.5533983" lon="16.6666417"><ele>342.0</ele><time>2026-04-12T14:10:45.439Z</time></trkpt><trkpt lat="40.5534583" lon="16.6665717"><ele>342.0</ele><time>2026-04-12T14:10:48.438Z</time></trkpt><trkpt lat="40.553455" lon="16.666465"><ele>342.0</ele><time>2026-04-12T14:10:55.44Z</time></trkpt><trkpt lat="40.5534467" lon="16.6662933"><ele>342.0</ele><time>2026-04-12T14:10:57.443Z</time></trkpt><trkpt lat="40.5534433" lon="16.6661933"><ele>342.20000000000005</ele><time>2026-04-12T14:10:58.44Z</time></trkpt><trkpt lat="40.5534433" lon="16.6661033"><ele>342.4</ele><time>2026-04-12T14:10:59.44Z</time></trkpt><trkpt lat="40.553435" lon="16.6659683"><ele>342.6</ele><time>2026-04-12T14:11:01.44Z</time></trkpt><trkpt lat="40.55343" lon="16.665885"><ele>342.79999999999995</ele><time>2026-04-12T14:11:03.439Z</time></trkpt><trkpt lat="40.5535817" lon="16.6659683"><ele>343.0</ele><time>2026-04-12T14:11:28.439Z</time></trkpt><trkpt lat="40.5534585" lon="16.6660596"><ele>343.0</ele><time>2026-04-12T14:12:30.52Z</time></trkpt><trkpt lat="40.5534244" lon="16.666133"><ele>343.0</ele><time>2026-04-12T14:12:46.529Z</time></trkpt><trkpt lat="40.5533955" lon="16.6659783"><ele>343.0</ele><time>2026-04-12T14:12:49.392Z</time></trkpt><trkpt lat="40.5533889" lon="16.6658872"><ele>343.0</ele><time>2026-04-12T14:12:52.515Z</time></trkpt><trkpt lat="40.5533309" lon="16.6658492"><ele>343.0</ele><time>2026-04-12T14:12:57.483Z</time></trkpt><trkpt lat="40.553273" lon="16.6657995"><ele>343.0</ele><time>2026-04-12T14:13:02.453Z</time></trkpt><trkpt lat="40.5533142" lon="16.665719"><ele>343.0</ele><time>2026-04-12T14:13:30.911Z</time></trkpt><trkpt lat="40.5533458" lon="16.665792"><ele>343.0</ele><time>2026-04-12T14:15:04.525Z</time></trkpt><trkpt lat="40.55334" lon="16.6659116"><ele>343.0</ele><time>2026-04-12T14:15:39.467Z</time></trkpt><trkpt lat="40.5533335" lon="16.6657848"><ele>343.0</ele><time>2026-04-12T14:15:43.491Z</time></trkpt><trkpt lat="40.5533337" lon="16.6656623"><ele>343.0</ele><time>2026-04-12T14:15:45.443Z</time></trkpt><trkpt lat="40.5533345" lon="16.6655732"><ele>343.0</ele><time>2026-04-12T14:15:49.462Z</time></trkpt><trkpt lat="40.5527493" lon="16.6655763"><ele>343.0</ele><time>2026-04-12T14:16:20.525Z</time></trkpt><trkpt lat="40.5523967" lon="16.6656407"><ele>343.0</ele><time>2026-04-12T14:16:28.045Z</time></trkpt><trkpt lat="40.5530444" lon="16.6656891"><ele>343.0</ele><time>2026-04-12T14:17:46.524Z</time></trkpt><trkpt lat="40.5530753" lon="16.6658434"><ele>343.0</ele><time>2026-04-12T14:17:51.526Z</time></trkpt><trkpt lat="40.5525993" lon="16.6655171"><ele>343.0</ele><time>2026-04-12T14:18:18.512Z</time></trkpt><trkpt lat="40.5527106" lon="16.6656301"><ele>343.0</ele><time>2026-04-12T14:18:19.441Z</time></trkpt><trkpt lat="40.5530018" lon="16.6656451"><ele>343.0</ele><time>2026-04-12T14:18:36.54Z</time></trkpt><trkpt lat="40.5523735" lon="16.6651796"><ele>335.5</ele><time>2026-04-12T14:19:15.353Z</time></trkpt><trkpt lat="40.5527491" lon="16.6652835"><ele>328.0</ele><time>2026-04-12T14:21:17.188Z</time></trkpt><trkpt lat="40.5528316" lon="16.6655895"><ele>330.5</ele><time>2026-04-12T14:21:20.519Z</time></trkpt><trkpt lat="40.5528989" lon="16.6656762"><ele>333.0</ele><time>2026-04-12T14:21:22.471Z</time></trkpt><trkpt lat="40.5529594" lon="16.6657257"><ele>335.5</ele><time>2026-04-12T14:21:24.538Z</time></trkpt><trkpt lat="40.5530122" lon="16.6657913"><ele>338.0</ele><time>2026-04-12T14:21:27.523Z</time></trkpt><trkpt lat="40.5529472" lon="16.6658111"><ele>340.5</ele><time>2026-04-12T14:21:32.461Z</time></trkpt><trkpt lat="40.5529723" lon="16.6656932"><ele>343.0</ele><time>2026-04-12T14:21:34.528Z</time></trkpt><trkpt lat="40.5530039" lon="16.6655874"><ele>343.0</ele><time>2026-04-12T14:21:36.48Z</time></trkpt><trkpt lat="40.5530314" lon="16.6654837"><ele>343.0</ele><time>2026-04-12T14:21:38.547Z</time></trkpt><trkpt lat="40.5530613" lon="16.6653838"><ele>343.0</ele><time>2026-04-12T14:21:40.499Z</time></trkpt><trkpt lat="40.5530871" lon="16.6653004"><ele>343.0</ele><time>2026-04-12T14:21:43.485Z</time></trkpt><trkpt lat="40.5531051" lon="16.6652099"><ele>343.0</ele><time>2026-04-12T14:21:47.504Z</time></trkpt><trkpt lat="40.5532681" lon="16.6655527"><ele>343.0</ele><time>2026-04-12T14:23:47.439Z</time></trkpt></trkseg><trkseg><trkpt lat="40.5534196" lon="16.6657219"><ele>342.0</ele><time>2026-04-17T16:58:20.524Z</time></trkpt><trkpt lat="40.5537975" lon="16.6660043"><ele>341.0</ele><time>2026-04-17T16:58:35.464Z</time></trkpt><trkpt lat="40.5538421" lon="16.6660973"><ele>340.85714285714283</ele><time>2026-04-17T16:58:36.461Z</time></trkpt><trkpt lat="40.5538709" lon="16.6661887"><ele>340.7142857142857</ele><time>2026-04-17T16:58:37.464Z</time></trkpt><trkpt lat="40.5538974" lon="16.6662795"><ele>340.57142857142856</ele><time>2026-04-17T16:58:38.461Z</time></trkpt><trkpt lat="40.5539269" lon="16.6663721"><ele>340.42857142857144</ele><time>2026-04-17T16:58:39.461Z</time></trkpt><trkpt lat="40.5539558" lon="16.6664592"><ele>340.2857142857143</ele><time>2026-04-17T16:58:40.461Z</time></trkpt><trkpt lat="40.5539832" lon="16.6665426"><ele>340.14285714285717</ele><time>2026-04-17T16:58:41.462Z</time></trkpt><trkpt lat="40.5540116" lon="16.6666259"><ele>340.0</ele><time>2026-04-17T16:58:42.461Z</time></trkpt><trkpt lat="40.5540389" lon="16.6667089"><ele>340.0</ele><time>2026-04-17T16:58:43.461Z</time></trkpt><trkpt lat="40.5540629" lon="16.6667864"><ele>340.0</ele><time>2026-04-17T16:58:44.461Z</time></trkpt><trkpt lat="40.5541106" lon="16.6669216"><ele>340.0</ele><time>2026-04-17T16:58:46.461Z</time></trkpt><trkpt lat="40.554153" lon="16.6670407"><ele>340.0</ele><time>2026-04-17T16:58:48.461Z</time></trkpt><trkpt lat="40.5541928" lon="16.6671287"><ele>340.0</ele><time>2026-04-17T16:58:50.463Z</time></trkpt><trkpt lat="40.5542177" lon="16.6672139"><ele>340.0</ele><time>2026-04-17T16:58:56.463Z</time></trkpt><trkpt lat="40.5542174" lon="16.6673712"><ele>340.0</ele><time>2026-04-17T16:59:09.514Z</time></trkpt><trkpt lat="40.5543543" lon="16.6674141"><ele>340.0</ele><time>2026-04-17T16:59:10.46Z</time></trkpt><trkpt lat="40.554383" lon="16.6674934"><ele>340.0</ele><time>2026-04-17T16:59:22.487Z</time></trkpt><trkpt lat="40.554821" lon="16.6675495"><ele>341.0</ele><time>2026-04-17T16:59:25.474Z</time></trkpt><trkpt lat="40.5549044" lon="16.6675576"><ele>342.0</ele><time>2026-04-17T16:59:27.541Z</time></trkpt><trkpt lat="40.5549741" lon="16.667574"><ele>343.0</ele><time>2026-04-17T16:59:30.513Z</time></trkpt><trkpt lat="40.5550523" lon="16.6676133"><ele>344.0</ele><time>2026-04-17T16:59:36.461Z</time></trkpt><trkpt lat="40.5551229" lon="16.6676229"><ele>345.0</ele><time>2026-04-17T16:59:38.529Z</time></trkpt><trkpt lat="40.5551369" lon="16.6677108"><ele>346.0</ele><time>2026-04-17T16:59:40.486Z</time></trkpt><trkpt lat="40.5551062" lon="16.6678203"><ele>347.0</ele><time>2026-04-17T16:59:42.525Z</time></trkpt><trkpt lat="40.5550705" lon="16.6679451"><ele>348.0</ele><time>2026-04-17T16:59:44.549Z</time></trkpt><trkpt lat="40.5549778" lon="16.6682152"><ele>349.0</ele><time>2026-04-17T16:59:47.46Z</time></trkpt><trkpt lat="40.5549373" lon="16.6683474"><ele>350.0</ele><time>2026-04-17T16:59:48.46Z</time></trkpt><trkpt lat="40.5549059" lon="16.6684541"><ele>350.0</ele><time>2026-04-17T16:59:49.461Z</time></trkpt><trkpt lat="40.5548772" lon="16.6685527"><ele>350.0</ele><time>2026-04-17T16:59:50.46Z</time></trkpt><trkpt lat="40.5548457" lon="16.6686448"><ele>350.0</ele><time>2026-04-17T16:59:51.46Z</time></trkpt><trkpt lat="40.5548136" lon="16.6687434"><ele>350.0</ele><time>2026-04-17T16:59:52.46Z</time></trkpt><trkpt lat="40.5547813" lon="16.6688435"><ele>350.0</ele><time>2026-04-17T16:59:53.46Z</time></trkpt><trkpt lat="40.5547505" lon="16.6689435"><ele>350.0</ele><time>2026-04-17T16:59:54.46Z</time></trkpt><trkpt lat="40.5547244" lon="16.6690454"><ele>349.33333333333337</ele><time>2026-04-17T16:59:55.46Z</time></trkpt><trkpt lat="40.5546994" lon="16.6691451"><ele>348.6666666666667</ele><time>2026-04-17T16:59:56.462Z</time></trkpt><trkpt lat="40.5546743" lon="16.6692408"><ele>348.0</ele><time>2026-04-17T16:59:57.46Z</time></trkpt><trkpt lat="40.5546518" lon="16.6693262"><ele>347.3333333333333</ele><time>2026-04-17T16:59:58.463Z</time></trkpt><trkpt lat="40.5546135" lon="16.6694639"><ele>346.66666666666663</ele><time>2026-04-17T17:00:00.46Z</time></trkpt><trkpt lat="40.5546096" lon="16.6695781"><ele>346.0</ele><time>2026-04-17T17:00:02.462Z</time></trkpt><trkpt lat="40.5546442" lon="16.6696829"><ele>345.6</ele><time>2026-04-17T17:00:04.46Z</time></trkpt><trkpt lat="40.5546588" lon="16.6697853"><ele>345.20000000000005</ele><time>2026-04-17T17:00:06.46Z</time></trkpt><trkpt lat="40.5545809" lon="16.6700307"><ele>344.79999999999995</ele><time>2026-04-17T17:00:10.461Z</time></trkpt><trkpt lat="40.5545509" lon="16.6701102"><ele>344.4</ele><time>2026-04-17T17:00:11.46Z</time></trkpt><trkpt lat="40.5545145" lon="16.6701952"><ele>344.0</ele><time>2026-04-17T17:00:12.46Z</time></trkpt><trkpt lat="40.5544788" lon="16.6702831"><ele>345.00000000000006</ele><time>2026-04-17T17:00:13.46Z</time></trkpt><trkpt lat="40.5544436" lon="16.6703625"><ele>346.0</ele><time>2026-04-17T17:00:14.462Z</time></trkpt><trkpt lat="40.5544096" lon="16.6704371"><ele>347.0</ele><time>2026-04-17T17:00:15.46Z</time></trkpt><trkpt lat="40.5543757" lon="16.6705149"><ele>348.0</ele><time>2026-04-17T17:00:16.461Z</time></trkpt><trkpt lat="40.5543424" lon="16.6705985"><ele>349.0</ele><time>2026-04-17T17:00:17.46Z</time></trkpt><trkpt lat="40.5543092" lon="16.6706835"><ele>350.00000000000006</ele><time>2026-04-17T17:00:18.46Z</time></trkpt><trkpt lat="40.5542811" lon="16.6707676"><ele>351.0</ele><time>2026-04-17T17:00:19.46Z</time></trkpt><trkpt lat="40.5542636" lon="16.670857"><ele>351.00000000000006</ele><time>2026-04-17T17:00:20.461Z</time></trkpt><trkpt lat="40.5542552" lon="16.6709505"><ele>351.0</ele><time>2026-04-17T17:00:21.46Z</time></trkpt><trkpt lat="40.5542492" lon="16.6710481"><ele>351.0</ele><time>2026-04-17T17:00:22.46Z</time></trkpt><trkpt lat="40.5542397" lon="16.6711441"><ele>351.0</ele><time>2026-04-17T17:00:23.46Z</time></trkpt><trkpt lat="40.5542251" lon="16.671238"><ele>351.0</ele><time>2026-04-17T17:00:24.46Z</time></trkpt><trkpt lat="40.5542192" lon="16.6713252"><ele>351.00000000000006</ele><time>2026-04-17T17:00:25.46Z</time></trkpt><trkpt lat="40.554212" lon="16.6714172"><ele>351.0</ele><time>2026-04-17T17:00:26.461Z</time></trkpt><trkpt lat="40.5542093" lon="16.6715098"><ele>351.1666666666667</ele><time>2026-04-17T17:00:27.464Z</time></trkpt><trkpt lat="40.5542197" lon="16.67168"><ele>351.3333333333333</ele><time>2026-04-17T17:00:29.46Z</time></trkpt><trkpt lat="40.554237" lon="16.6717628"><ele>351.5</ele><time>2026-04-17T17:00:30.46Z</time></trkpt><trkpt lat="40.5542588" lon="16.6718482"><ele>351.66666666666663</ele><time>2026-04-17T17:00:31.46Z</time></trkpt><trkpt lat="40.5542833" lon="16.6719303"><ele>351.8333333333333</ele><time>2026-04-17T17:00:32.46Z</time></trkpt><trkpt lat="40.5543111" lon="16.6720095"><ele>352.0</ele><time>2026-04-17T17:00:33.46Z</time></trkpt><trkpt lat="40.5543546" lon="16.6721361"><ele>351.3333333333333</ele><time>2026-04-17T17:00:35.462Z</time></trkpt><trkpt lat="40.5543921" lon="16.6722641"><ele>350.66666666666663</ele><time>2026-04-17T17:00:37.459Z</time></trkpt><trkpt lat="40.5544315" lon="16.6723899"><ele>350.0</ele><time>2026-04-17T17:00:39.46Z</time></trkpt><trkpt lat="40.5544667" lon="16.6724611"><ele>349.3333333333333</ele><time>2026-04-17T17:00:41.461Z</time></trkpt><trkpt lat="40.5545342" lon="16.6724117"><ele>348.6666666666667</ele><time>2026-04-17T17:00:43.46Z</time></trkpt><trkpt lat="40.5545833" lon="16.672348"><ele>348.0</ele><time>2026-04-17T17:00:44.46Z</time></trkpt><trkpt lat="40.5546381" lon="16.6722886"><ele>345.0</ele><time>2026-04-17T17:00:45.461Z</time></trkpt><trkpt lat="40.5546911" lon="16.672238"><ele>345.0</ele><time>2026-04-17T17:00:46.46Z</time></trkpt><trkpt lat="40.5547793" lon="16.6721505"><ele>345.0</ele><time>2026-04-17T17:00:48.46Z</time></trkpt></trkseg><trkseg><trkpt lat="40.5534435" lon="16.6660665"><ele>343.0</ele><time>2026-04-26T12:39:08.615Z</time></trkpt><trkpt lat="40.5534162" lon="16.6661609"><ele>343.0</ele><time>2026-04-26T12:39:16.477Z</time></trkpt><trkpt lat="40.5534145" lon="16.666069"><ele>343.0</ele><time>2026-04-26T12:40:01.534Z</time></trkpt><trkpt lat="40.5537817" lon="16.66587"><ele>342.59999999999997</ele><time>2026-04-26T12:40:03.484Z</time></trkpt><trkpt lat="40.5538583" lon="16.666085"><ele>342.2</ele><time>2026-04-26T12:40:06.485Z</time></trkpt><trkpt lat="40.5538833" lon="16.6661633"><ele>341.8</ele><time>2026-04-26T12:40:07.486Z</time></trkpt><trkpt lat="40.5539033" lon="16.666245"><ele>341.4</ele><time>2026-04-26T12:40:08.486Z</time></trkpt><trkpt lat="40.5539233" lon="16.66633"><ele>341.0</ele><time>2026-04-26T12:40:09.485Z</time></trkpt><trkpt lat="40.5539483" lon="16.66642"><ele>340.83333333333337</ele><time>2026-04-26T12:40:10.486Z</time></trkpt><trkpt lat="40.5539783" lon="16.66651"><ele>340.6666666666667</ele><time>2026-04-26T12:40:11.485Z</time></trkpt><trkpt lat="40.5540083" lon="16.6665983"><ele>340.5</ele><time>2026-04-26T12:40:12.485Z</time></trkpt><trkpt lat="40.554035" lon="16.6666767"><ele>340.3333333333333</ele><time>2026-04-26T12:40:13.487Z</time></trkpt><trkpt lat="40.554065" lon="16.666755"><ele>340.16666666666663</ele><time>2026-04-26T12:40:14.485Z</time></trkpt><trkpt lat="40.554085" lon="16.666835"><ele>340.0</ele><time>2026-04-26T12:40:15.485Z</time></trkpt><trkpt lat="40.55414" lon="16.666975"><ele>340.0</ele><time>2026-04-26T12:40:17.486Z</time></trkpt><trkpt lat="40.5541967" lon="16.6670917"><ele>340.0</ele><time>2026-04-26T12:40:19.485Z</time></trkpt><trkpt lat="40.5542317" lon="16.667175"><ele>340.0</ele><time>2026-04-26T12:40:21.485Z</time></trkpt><trkpt lat="40.554205" lon="16.6672733"><ele>340.0</ele><time>2026-04-26T12:40:25.485Z</time></trkpt><trkpt lat="40.5541533" lon="16.667325"><ele>340.0</ele><time>2026-04-26T12:40:28.486Z</time></trkpt><trkpt lat="40.5540767" lon="16.667385"><ele>340.0</ele><time>2026-04-26T12:40:31.485Z</time></trkpt><trkpt lat="40.553975" lon="16.6674"><ele>340.0</ele><time>2026-04-26T12:40:34.486Z</time></trkpt><trkpt lat="40.5538733" lon="16.6673883"><ele>340.0</ele><time>2026-04-26T12:40:36.485Z</time></trkpt><trkpt lat="40.55375" lon="16.6673783"><ele>340.0</ele><time>2026-04-26T12:40:38.488Z</time></trkpt><trkpt lat="40.55363" lon="16.667355"><ele>340.0</ele><time>2026-04-26T12:40:40.486Z</time></trkpt><trkpt lat="40.5535267" lon="16.667365"><ele>339.16666666666663</ele><time>2026-04-26T12:40:42.485Z</time></trkpt><trkpt lat="40.5534317" lon="16.6673483"><ele>338.3333333333333</ele><time>2026-04-26T12:40:44.485Z</time></trkpt><trkpt lat="40.5533483" lon="16.6673267"><ele>337.5</ele><time>2026-04-26T12:40:46.485Z</time></trkpt><trkpt lat="40.553265" lon="16.66731"><ele>336.6666666666667</ele><time>2026-04-26T12:40:48.485Z</time></trkpt><trkpt lat="40.5531883" lon="16.66729"><ele>335.83333333333337</ele><time>2026-04-26T12:40:50.486Z</time></trkpt><trkpt lat="40.5531117" lon="16.6672567"><ele>335.0</ele><time>2026-04-26T12:40:52.489Z</time></trkpt><trkpt lat="40.5530333" lon="16.6672167"><ele>335.0</ele><time>2026-04-26T12:40:54.486Z</time></trkpt><trkpt lat="40.5529517" lon="16.6671767"><ele>335.0</ele><time>2026-04-26T12:40:56.486Z</time></trkpt><trkpt lat="40.5528683" lon="16.6671333"><ele>335.0</ele><time>2026-04-26T12:40:58.485Z</time></trkpt><trkpt lat="40.55278" lon="16.6670883"><ele>335.0</ele><time>2026-04-26T12:41:00.485Z</time></trkpt><trkpt lat="40.5526867" lon="16.66702"><ele>335.0</ele><time>2026-04-26T12:41:02.488Z</time></trkpt><trkpt lat="40.5525983" lon="16.6669167"><ele>334.83333333333337</ele><time>2026-04-26T12:41:04.485Z</time></trkpt><trkpt lat="40.5525117" lon="16.6668067"><ele>334.6666666666667</ele><time>2026-04-26T12:41:06.485Z</time></trkpt><trkpt lat="40.5524283" lon="16.66669"><ele>334.5</ele><time>2026-04-26T12:41:08.486Z</time></trkpt><trkpt lat="40.552385" lon="16.6666217"><ele>334.3333333333333</ele><time>2026-04-26T12:41:09.485Z</time></trkpt><trkpt lat="40.552345" lon="16.666555"><ele>334.16666666666663</ele><time>2026-04-26T12:41:10.486Z</time></trkpt><trkpt lat="40.5523067" lon="16.6664867"><ele>334.0</ele><time>2026-04-26T12:41:11.486Z</time></trkpt><trkpt lat="40.5522433" lon="16.6663417"><ele>334.0</ele><time>2026-04-26T12:41:13.488Z</time></trkpt><trkpt lat="40.5522317" lon="16.6662517"><ele>334.0</ele><time>2026-04-26T12:41:14.486Z</time></trkpt><trkpt lat="40.552225" lon="16.6661567"><ele>334.0</ele><time>2026-04-26T12:41:15.485Z</time></trkpt><trkpt lat="40.5522417" lon="16.66605"><ele>334.0</ele><time>2026-04-26T12:41:16.485Z</time></trkpt><trkpt lat="40.552265" lon="16.6659517"><ele>334.0</ele><time>2026-04-26T12:41:17.485Z</time></trkpt><trkpt lat="40.5522833" lon="16.66586"><ele>334.0</ele><time>2026-04-26T12:41:18.486Z</time></trkpt><trkpt lat="40.5523" lon="16.6657683"><ele>334.0</ele><time>2026-04-26T12:41:19.489Z</time></trkpt><trkpt lat="40.5523167" lon="16.6656833"><ele>332.79999999999995</ele><time>2026-04-26T12:41:20.486Z</time></trkpt><trkpt lat="40.5523317" lon="16.6656017"><ele>331.59999999999997</ele><time>2026-04-26T12:41:21.485Z</time></trkpt><trkpt lat="40.55236" lon="16.665445"><ele>330.4</ele><time>2026-04-26T12:41:23.485Z</time></trkpt><trkpt lat="40.5523983" lon="16.6652933"><ele>329.2</ele><time>2026-04-26T12:41:25.486Z</time></trkpt><trkpt lat="40.5524317" lon="16.6651533"><ele>328.0</ele><time>2026-04-26T12:41:27.485Z</time></trkpt><trkpt lat="40.5524667" lon="16.6650167"><ele>327.0</ele><time>2026-04-26T12:41:29.485Z</time></trkpt><trkpt lat="40.5525" lon="16.66489"><ele>326.0</ele><time>2026-04-26T12:41:31.485Z</time></trkpt><trkpt lat="40.55253" lon="16.6647667"><ele>325.0</ele><time>2026-04-26T12:41:33.485Z</time></trkpt><trkpt lat="40.5525583" lon="16.6646483"><ele>324.0</ele><time>2026-04-26T12:41:35.486Z</time></trkpt><trkpt lat="40.5525883" lon="16.66453"><ele>323.0</ele><time>2026-04-26T12:41:37.486Z</time></trkpt><trkpt lat="40.5526117" lon="16.66442"><ele>322.33333333333337</ele><time>2026-04-26T12:41:39.486Z</time></trkpt><trkpt lat="40.5526417" lon="16.6643133"><ele>321.6666666666667</ele><time>2026-04-26T12:41:41.485Z</time></trkpt><trkpt lat="40.55268" lon="16.66421"><ele>321.0</ele><time>2026-04-26T12:41:43.485Z</time></trkpt><trkpt lat="40.5527167" lon="16.664105"><ele>320.3333333333333</ele><time>2026-04-26T12:41:45.485Z</time></trkpt><trkpt lat="40.5527517" lon="16.66402"><ele>319.66666666666663</ele><time>2026-04-26T12:41:47.486Z</time></trkpt><trkpt lat="40.5527867" lon="16.6639267"><ele>319.0</ele><time>2026-04-26T12:41:49.486Z</time></trkpt><trkpt lat="40.5528267" lon="16.6638"><ele>319.0</ele><time>2026-04-26T12:41:51.486Z</time></trkpt><trkpt lat="40.55287" lon="16.6636683"><ele>319.0</ele><time>2026-04-26T12:41:53.486Z</time></trkpt><trkpt lat="40.5529183" lon="16.6635367"><ele>319.0</ele><time>2026-04-26T12:41:55.486Z</time></trkpt><trkpt lat="40.5529667" lon="16.6634117"><ele>319.0</ele><time>2026-04-26T12:41:57.486Z</time></trkpt><trkpt lat="40.5530217" lon="16.6632967"><ele>319.0</ele><time>2026-04-26T12:41:59.487Z</time></trkpt><trkpt lat="40.5530717" lon="16.6631717"><ele>319.0</ele><time>2026-04-26T12:42:01.486Z</time></trkpt><trkpt lat="40.5531083" lon="16.6630367"><ele>319.0</ele><time>2026-04-26T12:42:03.485Z</time></trkpt><trkpt lat="40.5531267" lon="16.6629233"><ele>319.0</ele><time>2026-04-26T12:42:05.486Z</time></trkpt><trkpt lat="40.55311" lon="16.6628217"><ele>319.0</ele><time>2026-04-26T12:42:07.485Z</time></trkpt><trkpt lat="40.5530483" lon="16.6627283"><ele>319.0</ele><time>2026-04-26T12:42:09.486Z</time></trkpt><trkpt lat="40.5529533" lon="16.6626167"><ele>317.5714285714286</ele><time>2026-04-26T12:42:11.486Z</time></trkpt><trkpt lat="40.552905" lon="16.66256"><ele>316.1428571428571</ele><time>2026-04-26T12:42:12.485Z</time></trkpt><trkpt lat="40.5528567" lon="16.6624967"><ele>314.7142857142857</ele><time>2026-04-26T12:42:13.489Z</time></trkpt><trkpt lat="40.5528067" lon="16.6624283"><ele>313.28571428571433</ele><time>2026-04-26T12:42:14.486Z</time></trkpt><trkpt lat="40.5527567" lon="16.6623567"><ele>311.8571428571429</ele><time>2026-04-26T12:42:15.485Z</time></trkpt><trkpt lat="40.5527017" lon="16.66228"><ele>310.42857142857144</ele><time>2026-04-26T12:42:16.486Z</time></trkpt><trkpt lat="40.552645" lon="16.66221"><ele>309.0</ele><time>2026-04-26T12:42:17.486Z</time></trkpt><trkpt lat="40.5525883" lon="16.662135"><ele>307.8333333333333</ele><time>2026-04-26T12:42:18.487Z</time></trkpt><trkpt lat="40.5525317" lon="16.6620617"><ele>306.6666666666667</ele><time>2026-04-26T12:42:19.485Z</time></trkpt><trkpt lat="40.552475" lon="16.6619883"><ele>305.5</ele><time>2026-04-26T12:42:20.486Z</time></trkpt><trkpt lat="40.5524217" lon="16.6619167"><ele>304.33333333333337</ele><time>2026-04-26T12:42:21.485Z</time></trkpt><trkpt lat="40.5523667" lon="16.661845"><ele>303.1666666666667</ele><time>2026-04-26T12:42:22.485Z</time></trkpt><trkpt lat="40.5523083" lon="16.66177"><ele>302.0</ele><time>2026-04-26T12:42:23.485Z</time></trkpt><trkpt lat="40.5522517" lon="16.6616917"><ele>300.33333333333337</ele><time>2026-04-26T12:42:24.485Z</time></trkpt><trkpt lat="40.5522017" lon="16.6616033"><ele>298.6666666666667</ele><time>2026-04-26T12:42:25.486Z</time></trkpt><trkpt lat="40.55216" lon="16.6615"><ele>297.0</ele><time>2026-04-26T12:42:26.487Z</time></trkpt><trkpt lat="40.552135" lon="16.6613933"><ele>295.3333333333333</ele><time>2026-04-26T12:42:27.487Z</time></trkpt><trkpt lat="40.5521333" lon="16.66128"><ele>293.66666666666663</ele><time>2026-04-26T12:42:28.487Z</time></trkpt><trkpt lat="40.55215" lon="16.6611683"><ele>292.0</ele><time>2026-04-26T12:42:29.486Z</time></trkpt><trkpt lat="40.5521733" lon="16.6610567"><ele>290.0</ele><time>2026-04-26T12:42:30.486Z</time></trkpt><trkpt lat="40.5522017" lon="16.6609467"><ele>288.0</ele><time>2026-04-26T12:42:31.485Z</time></trkpt><trkpt lat="40.55223" lon="16.6608367"><ele>286.0</ele><time>2026-04-26T12:42:32.486Z</time></trkpt><trkpt lat="40.5522517" lon="16.66073"><ele>284.0</ele><time>2026-04-26T12:42:33.486Z</time></trkpt><trkpt lat="40.5522633" lon="16.6606233"><ele>282.0</ele><time>2026-04-26T12:42:34.486Z</time></trkpt><trkpt lat="40.5522483" lon="16.6605133"><ele>280.0</ele><time>2026-04-26T12:42:35.485Z</time></trkpt><trkpt lat="40.55221" lon="16.6604117"><ele>280.0</ele><time>2026-04-26T12:42:36.485Z</time></trkpt><trkpt lat="40.5521533" lon="16.6603233"><ele>280.0</ele><time>2026-04-26T12:42:37.485Z</time></trkpt><trkpt lat="40.5520833" lon="16.6602517"><ele>280.0</ele><time>2026-04-26T12:42:38.486Z</time></trkpt><trkpt lat="40.55201" lon="16.6601883"><ele>280.0</ele><time>2026-04-26T12:42:39.489Z</time></trkpt><trkpt lat="40.551935" lon="16.6601333"><ele>280.0</ele><time>2026-04-26T12:42:40.485Z</time></trkpt><trkpt lat="40.55186" lon="16.66008"><ele>280.0</ele><time>2026-04-26T12:42:41.487Z</time></trkpt><trkpt lat="40.5517867" lon="16.660025"><ele>279.16666666666663</ele><time>2026-04-26T12:42:42.487Z</time></trkpt><trkpt lat="40.5517167" lon="16.6599733"><ele>278.3333333333333</ele><time>2026-04-26T12:42:43.486Z</time></trkpt><trkpt lat="40.5516467" lon="16.6599217"><ele>277.5</ele><time>2026-04-26T12:42:44.486Z</time></trkpt><trkpt lat="40.5515783" lon="16.6598717"><ele>276.6666666666667</ele><time>2026-04-26T12:42:45.485Z</time></trkpt><trkpt lat="40.5515117" lon="16.65982"><ele>275.83333333333337</ele><time>2026-04-26T12:42:46.485Z</time></trkpt><trkpt lat="40.5514467" lon="16.659765"><ele>275.0</ele><time>2026-04-26T12:42:47.485Z</time></trkpt><trkpt lat="40.5513817" lon="16.6597083"><ele>275.0</ele><time>2026-04-26T12:42:48.485Z</time></trkpt><trkpt lat="40.5513183" lon="16.65965"><ele>275.0</ele><time>2026-04-26T12:42:49.485Z</time></trkpt><trkpt lat="40.5512583" lon="16.6595833"><ele>275.0</ele><time>2026-04-26T12:42:50.487Z</time></trkpt><trkpt lat="40.5512" lon="16.659505"><ele>275.0</ele><time>2026-04-26T12:42:51.486Z</time></trkpt><trkpt lat="40.55115" lon="16.6594183"><ele>275.0</ele><time>2026-04-26T12:42:52.486Z</time></trkpt><trkpt lat="40.551105" lon="16.65933"><ele>275.0</ele><time>2026-04-26T12:42:53.485Z</time></trkpt><trkpt lat="40.5510667" lon="16.6592367"><ele>273.6666666666667</ele><time>2026-04-26T12:42:54.485Z</time></trkpt><trkpt lat="40.5510317" lon="16.65914"><ele>272.33333333333337</ele><time>2026-04-26T12:42:55.485Z</time></trkpt><trkpt lat="40.5510017" lon="16.6590417"><ele>271.0</ele><time>2026-04-26T12:42:56.488Z</time></trkpt><trkpt lat="40.5509767" lon="16.658945"><ele>269.6666666666667</ele><time>2026-04-26T12:42:57.488Z</time></trkpt><trkpt lat="40.5509517" lon="16.6588517"><ele>268.3333333333333</ele><time>2026-04-26T12:42:58.486Z</time></trkpt><trkpt lat="40.550925" lon="16.6587617"><ele>267.0</ele><time>2026-04-26T12:42:59.486Z</time></trkpt><trkpt lat="40.5509" lon="16.6586767"><ele>266.4</ele><time>2026-04-26T12:43:00.485Z</time></trkpt><trkpt lat="40.55087" lon="16.6585967"><ele>265.79999999999995</ele><time>2026-04-26T12:43:01.485Z</time></trkpt><trkpt lat="40.550835" lon="16.658525"><ele>265.2</ele><time>2026-04-26T12:43:02.491Z</time></trkpt><trkpt lat="40.5507533" lon="16.658405"><ele>264.59999999999997</ele><time>2026-04-26T12:43:04.485Z</time></trkpt><trkpt lat="40.5506667" lon="16.6583"><ele>264.0</ele><time>2026-04-26T12:43:06.485Z</time></trkpt><trkpt lat="40.550635" lon="16.6581817"><ele>264.0</ele><time>2026-04-26T12:43:08.49Z</time></trkpt><trkpt lat="40.5505967" lon="16.6580917"><ele>264.0</ele><time>2026-04-26T12:43:10.486Z</time></trkpt><trkpt lat="40.550535" lon="16.6581267"><ele>264.0</ele><time>2026-04-26T12:43:12.485Z</time></trkpt><trkpt lat="40.55056" lon="16.658305"><ele>264.0</ele><time>2026-04-26T12:45:59.485Z</time></trkpt><trkpt lat="40.5506383" lon="16.6583983"><ele>264.0</ele><time>2026-04-26T12:46:01.485Z</time></trkpt><trkpt lat="40.5506917" lon="16.6584433"><ele>264.0</ele><time>2026-04-26T12:46:02.485Z</time></trkpt><trkpt lat="40.5507467" lon="16.6584983"><ele>264.0</ele><time>2026-04-26T12:46:03.485Z</time></trkpt><trkpt lat="40.55079" lon="16.6585717"><ele>264.0</ele><time>2026-04-26T12:46:04.485Z</time></trkpt><trkpt lat="40.55083" lon="16.6586733"><ele>264.0</ele><time>2026-04-26T12:46:05.487Z</time></trkpt><trkpt lat="40.5508617" lon="16.6587817"><ele>264.0</ele><time>2026-04-26T12:46:06.485Z</time></trkpt><trkpt lat="40.5508917" lon="16.6588917"><ele>264.0</ele><time>2026-04-26T12:46:07.486Z</time></trkpt><trkpt lat="40.55092" lon="16.6590017"><ele>264.59999999999997</ele><time>2026-04-26T12:46:08.485Z</time></trkpt><trkpt lat="40.5509517" lon="16.6591167"><ele>265.2</ele><time>2026-04-26T12:46:09.485Z</time></trkpt><trkpt lat="40.5509867" lon="16.6592383"><ele>265.79999999999995</ele><time>2026-04-26T12:46:10.485Z</time></trkpt><trkpt lat="40.5510317" lon="16.659355"><ele>266.4</ele><time>2026-04-26T12:46:11.486Z</time></trkpt><trkpt lat="40.5510867" lon="16.659465"><ele>267.0</ele><time>2026-04-26T12:46:12.485Z</time></trkpt><trkpt lat="40.551155" lon="16.6595767"><ele>268.6</ele><time>2026-04-26T12:46:13.486Z</time></trkpt><trkpt lat="40.5512317" lon="16.65967"><ele>270.2</ele><time>2026-04-26T12:46:14.486Z</time></trkpt><trkpt lat="40.5513083" lon="16.659745"><ele>271.8</ele><time>2026-04-26T12:46:15.486Z</time></trkpt><trkpt lat="40.5513917" lon="16.6598167"><ele>273.4</ele><time>2026-04-26T12:46:16.485Z</time></trkpt><trkpt lat="40.5514783" lon="16.6598817"><ele>275.0</ele><time>2026-04-26T12:46:17.486Z</time></trkpt><trkpt lat="40.5515667" lon="16.65994"><ele>275.0</ele><time>2026-04-26T12:46:18.485Z</time></trkpt><trkpt lat="40.551655" lon="16.6599983"><ele>275.0</ele><time>2026-04-26T12:46:19.485Z</time></trkpt><trkpt lat="40.5517433" lon="16.660055"><ele>275.0</ele><time>2026-04-26T12:46:20.486Z</time></trkpt><trkpt lat="40.5518333" lon="16.660115"><ele>275.0</ele><time>2026-04-26T12:46:21.486Z</time></trkpt><trkpt lat="40.5519217" lon="16.660175"><ele>275.0</ele><time>2026-04-26T12:46:22.486Z</time></trkpt><trkpt lat="40.5520033" lon="16.66024"><ele>275.6666666666667</ele><time>2026-04-26T12:46:23.485Z</time></trkpt><trkpt lat="40.55207" lon="16.6603033"><ele>276.33333333333337</ele><time>2026-04-26T12:46:24.485Z</time></trkpt><trkpt lat="40.5521233" lon="16.6603733"><ele>277.0</ele><time>2026-04-26T12:46:25.485Z</time></trkpt><trkpt lat="40.5521317" lon="16.6604767"><ele>277.6666666666667</ele><time>2026-04-26T12:46:26.486Z</time></trkpt><trkpt lat="40.552115" lon="16.6605833"><ele>278.3333333333333</ele><time>2026-04-26T12:46:27.485Z</time></trkpt><trkpt lat="40.5520683" lon="16.66068"><ele>279.0</ele><time>2026-04-26T12:46:28.485Z</time></trkpt><trkpt lat="40.5520083" lon="16.66077"><ele>279.0</ele><time>2026-04-26T12:46:29.486Z</time></trkpt><trkpt lat="40.5519417" lon="16.66086"><ele>279.0</ele><time>2026-04-26T12:46:30.485Z</time></trkpt><trkpt lat="40.5518683" lon="16.66095"><ele>279.0</ele><time>2026-04-26T12:46:31.485Z</time></trkpt><trkpt lat="40.5517967" lon="16.661045"><ele>279.0</ele><time>2026-04-26T12:46:32.485Z</time></trkpt><trkpt lat="40.5517317" lon="16.6611483"><ele>279.0</ele><time>2026-04-26T12:46:33.484Z</time></trkpt><trkpt lat="40.551675" lon="16.661255"><ele>281.0</ele><time>2026-04-26T12:46:34.487Z</time></trkpt><trkpt lat="40.551635" lon="16.6613683"><ele>283.0</ele><time>2026-04-26T12:46:35.485Z</time></trkpt><trkpt lat="40.5516" lon="16.66149"><ele>285.0</ele><time>2026-04-26T12:46:36.485Z</time></trkpt><trkpt lat="40.5515683" lon="16.661615"><ele>287.0</ele><time>2026-04-26T12:46:37.485Z</time></trkpt><trkpt lat="40.5515367" lon="16.66174"><ele>289.0</ele><time>2026-04-26T12:46:38.488Z</time></trkpt><trkpt lat="40.5515067" lon="16.6618633"><ele>290.4</ele><time>2026-04-26T12:46:39.485Z</time></trkpt><trkpt lat="40.5514783" lon="16.6619883"><ele>291.79999999999995</ele><time>2026-04-26T12:46:40.485Z</time></trkpt><trkpt lat="40.5514483" lon="16.662115"><ele>293.20000000000005</ele><time>2026-04-26T12:46:41.486Z</time></trkpt><trkpt lat="40.5514117" lon="16.6622417"><ele>294.6</ele><time>2026-04-26T12:46:42.487Z</time></trkpt><trkpt lat="40.5513683" lon="16.6623717"><ele>296.0</ele><time>2026-04-26T12:46:43.486Z</time></trkpt><trkpt lat="40.551325" lon="16.6625017"><ele>296.0</ele><time>2026-04-26T12:46:44.487Z</time></trkpt><trkpt lat="40.5512833" lon="16.6626267"><ele>296.0</ele><time>2026-04-26T12:46:45.485Z</time></trkpt><trkpt lat="40.5512433" lon="16.6627467"><ele>296.0</ele><time>2026-04-26T12:46:46.485Z</time></trkpt><trkpt lat="40.5512017" lon="16.662865"><ele>296.0</ele><time>2026-04-26T12:46:47.486Z</time></trkpt><trkpt lat="40.55116" lon="16.66298"><ele>296.0</ele><time>2026-04-26T12:46:48.485Z</time></trkpt><trkpt lat="40.5511183" lon="16.6630917"><ele>296.0</ele><time>2026-04-26T12:46:49.485Z</time></trkpt><trkpt lat="40.5510833" lon="16.66321"><ele>296.0</ele><time>2026-04-26T12:46:50.486Z</time></trkpt><trkpt lat="40.5510533" lon="16.6633367"><ele>296.0</ele><time>2026-04-26T12:46:51.485Z</time></trkpt><trkpt lat="40.5510317" lon="16.6634667"><ele>296.0</ele><time>2026-04-26T12:46:52.488Z</time></trkpt><trkpt lat="40.5510083" lon="16.6635967"><ele>296.0</ele><time>2026-04-26T12:46:53.485Z</time></trkpt><trkpt lat="40.5509883" lon="16.6637283"><ele>296.0</ele><time>2026-04-26T12:46:54.484Z</time></trkpt><trkpt lat="40.5509683" lon="16.66386"><ele>296.0</ele><time>2026-04-26T12:46:55.485Z</time></trkpt><trkpt lat="40.5509517" lon="16.663995"><ele>296.0</ele><time>2026-04-26T12:46:56.486Z</time></trkpt><trkpt lat="40.55094" lon="16.6641267"><ele>296.0</ele><time>2026-04-26T12:46:57.485Z</time></trkpt><trkpt lat="40.5509333" lon="16.66426"><ele>296.0</ele><time>2026-04-26T12:46:58.485Z</time></trkpt><trkpt lat="40.5509267" lon="16.6643883"><ele>297.2</ele><time>2026-04-26T12:46:59.486Z</time></trkpt><trkpt lat="40.550925" lon="16.6645233"><ele>298.40000000000003</ele><time>2026-04-26T12:47:00.485Z</time></trkpt><trkpt lat="40.55093" lon="16.6646533"><ele>299.6</ele><time>2026-04-26T12:47:01.486Z</time></trkpt><trkpt lat="40.5509383" lon="16.6647867"><ele>300.8</ele><time>2026-04-26T12:47:02.486Z</time></trkpt><trkpt lat="40.55095" lon="16.6649217"><ele>302.0</ele><time>2026-04-26T12:47:03.486Z</time></trkpt><trkpt lat="40.5509583" lon="16.6650533"><ele>302.0</ele><time>2026-04-26T12:47:04.487Z</time></trkpt><trkpt lat="40.55095" lon="16.665175"><ele>302.0</ele><time>2026-04-26T12:47:05.486Z</time></trkpt><trkpt lat="40.5509233" lon="16.6652883"><ele>302.0</ele><time>2026-04-26T12:47:06.485Z</time></trkpt><trkpt lat="40.550865" lon="16.6653867"><ele>302.0</ele><time>2026-04-26T12:47:07.486Z</time></trkpt><trkpt lat="40.5507833" lon="16.6654633"><ele>302.0</ele><time>2026-04-26T12:47:08.485Z</time></trkpt><trkpt lat="40.5506933" lon="16.665515"><ele>304.6</ele><time>2026-04-26T12:47:09.485Z</time></trkpt><trkpt lat="40.5505967" lon="16.66555"><ele>307.2</ele><time>2026-04-26T12:47:10.485Z</time></trkpt><trkpt lat="40.550495" lon="16.6655717"><ele>309.8</ele><time>2026-04-26T12:47:11.488Z</time></trkpt><trkpt lat="40.550395" lon="16.665595"><ele>312.4</ele><time>2026-04-26T12:47:12.485Z</time></trkpt><trkpt lat="40.5502967" lon="16.6656133"><ele>315.0</ele><time>2026-04-26T12:47:13.486Z</time></trkpt><trkpt lat="40.550195" lon="16.6656283"><ele>315.0</ele><time>2026-04-26T12:47:14.488Z</time></trkpt><trkpt lat="40.5500917" lon="16.6656367"><ele>315.0</ele><time>2026-04-26T12:47:15.485Z</time></trkpt><trkpt lat="40.5499917" lon="16.665645"><ele>315.0</ele><time>2026-04-26T12:47:16.485Z</time></trkpt><trkpt lat="40.549895" lon="16.6656467"><ele>315.0</ele><time>2026-04-26T12:47:17.485Z</time></trkpt><trkpt lat="40.549805" lon="16.6656383"><ele>315.0</ele><time>2026-04-26T12:47:18.486Z</time></trkpt><trkpt lat="40.5497167" lon="16.66562"><ele>315.0</ele><time>2026-04-26T12:47:19.486Z</time></trkpt><trkpt lat="40.54963" lon="16.6656067"><ele>315.0</ele><time>2026-04-26T12:47:20.488Z</time></trkpt><trkpt lat="40.54955" lon="16.6656067"><ele>315.0</ele><time>2026-04-26T12:47:21.485Z</time></trkpt><trkpt lat="40.54948" lon="16.6656333"><ele>315.0</ele><time>2026-04-26T12:47:22.488Z</time></trkpt><trkpt lat="40.54944" lon="16.6657083"><ele>315.0</ele><time>2026-04-26T12:47:23.486Z</time></trkpt><trkpt lat="40.5494233" lon="16.665825"><ele>315.0</ele><time>2026-04-26T12:47:24.485Z</time></trkpt><trkpt lat="40.5494183" lon="16.6659417"><ele>314.2</ele><time>2026-04-26T12:47:25.485Z</time></trkpt><trkpt lat="40.5494183" lon="16.6660517"><ele>313.4</ele><time>2026-04-26T12:47:26.486Z</time></trkpt><trkpt lat="40.5494217" lon="16.6661467"><ele>312.6</ele><time>2026-04-26T12:47:27.485Z</time></trkpt><trkpt lat="40.54942" lon="16.6662867"><ele>311.8</ele><time>2026-04-26T12:47:29.485Z</time></trkpt><trkpt lat="40.5493617" lon="16.6663867"><ele>311.0</ele><time>2026-04-26T12:47:31.486Z</time></trkpt><trkpt lat="40.549245" lon="16.6664483"><ele>312.5</ele><time>2026-04-26T12:47:33.485Z</time></trkpt><trkpt lat="40.549165" lon="16.66647"><ele>314.0</ele><time>2026-04-26T12:47:34.486Z</time></trkpt><trkpt lat="40.5490783" lon="16.66649"><ele>315.5</ele><time>2026-04-26T12:47:35.486Z</time></trkpt><trkpt lat="40.54899" lon="16.6665167"><ele>317.0</ele><time>2026-04-26T12:47:36.485Z</time></trkpt><trkpt lat="40.5489017" lon="16.666545"><ele>318.5</ele><time>2026-04-26T12:47:37.486Z</time></trkpt><trkpt lat="40.5488133" lon="16.6665717"><ele>320.0</ele><time>2026-04-26T12:47:38.487Z</time></trkpt><trkpt lat="40.5487217" lon="16.6666"><ele>318.6</ele><time>2026-04-26T12:47:39.485Z</time></trkpt><trkpt lat="40.54863" lon="16.6666283"><ele>317.2</ele><time>2026-04-26T12:47:40.485Z</time></trkpt><trkpt lat="40.5485417" lon="16.66665"><ele>315.8</ele><time>2026-04-26T12:47:41.485Z</time></trkpt><trkpt lat="40.5484533" lon="16.6666717"><ele>314.4</ele><time>2026-04-26T12:47:42.486Z</time></trkpt><trkpt lat="40.5483633" lon="16.6666917"><ele>313.0</ele><time>2026-04-26T12:47:43.487Z</time></trkpt><trkpt lat="40.54828" lon="16.666715"><ele>313.0</ele><time>2026-04-26T12:47:44.486Z</time></trkpt><trkpt lat="40.5481983" lon="16.666745"><ele>313.0</ele><time>2026-04-26T12:47:45.485Z</time></trkpt><trkpt lat="40.5481183" lon="16.6667733"><ele>313.0</ele><time>2026-04-26T12:47:46.49Z</time></trkpt><trkpt lat="40.548035" lon="16.6667933"><ele>313.0</ele><time>2026-04-26T12:47:47.488Z</time></trkpt><trkpt lat="40.5479467" lon="16.66682"><ele>313.0</ele><time>2026-04-26T12:47:48.485Z</time></trkpt><trkpt lat="40.5478567" lon="16.6668467"><ele>313.0</ele><time>2026-04-26T12:47:49.486Z</time></trkpt><trkpt lat="40.5477683" lon="16.666875"><ele>313.6</ele><time>2026-04-26T12:47:50.486Z</time></trkpt><trkpt lat="40.5476783" lon="16.6669083"><ele>314.20000000000005</ele><time>2026-04-26T12:47:51.485Z</time></trkpt><trkpt lat="40.54759" lon="16.6669383"><ele>314.8</ele><time>2026-04-26T12:47:52.487Z</time></trkpt><trkpt lat="40.5475017" lon="16.6669667"><ele>315.40000000000003</ele><time>2026-04-26T12:47:53.486Z</time></trkpt><trkpt lat="40.5474117" lon="16.6669967"><ele>316.0</ele><time>2026-04-26T12:47:54.485Z</time></trkpt><trkpt lat="40.5473217" lon="16.667025"><ele>316.0</ele><time>2026-04-26T12:47:55.486Z</time></trkpt><trkpt lat="40.5472333" lon="16.66705"><ele>316.0</ele><time>2026-04-26T12:47:56.486Z</time></trkpt><trkpt lat="40.5471467" lon="16.6670717"><ele>316.0</ele><time>2026-04-26T12:47:57.485Z</time></trkpt><trkpt lat="40.547065" lon="16.66709"><ele>316.0</ele><time>2026-04-26T12:47:58.486Z</time></trkpt><trkpt lat="40.5469933" lon="16.6671067"><ele>316.0</ele><time>2026-04-26T12:47:59.487Z</time></trkpt><trkpt lat="40.5468833" lon="16.667155"><ele>314.66666666666663</ele><time>2026-04-26T12:48:01.486Z</time></trkpt><trkpt lat="40.5468567" lon="16.6672317"><ele>313.3333333333333</ele><time>2026-04-26T12:48:03.485Z</time></trkpt><trkpt lat="40.5469633" lon="16.6672617"><ele>312.0</ele><time>2026-04-26T12:49:32.486Z</time></trkpt><trkpt lat="40.5469567" lon="16.6671683"><ele>310.6666666666667</ele><time>2026-04-26T12:50:07.485Z</time></trkpt><trkpt lat="40.5468533" lon="16.667165"><ele>309.33333333333337</ele><time>2026-04-26T12:50:09.485Z</time></trkpt><trkpt lat="40.5467833" lon="16.66716"><ele>308.0</ele><time>2026-04-26T12:50:10.485Z</time></trkpt><trkpt lat="40.5467" lon="16.667145"><ele>308.0</ele><time>2026-04-26T12:50:11.485Z</time></trkpt><trkpt lat="40.5466" lon="16.6671217"><ele>308.0</ele><time>2026-04-26T12:50:12.485Z</time></trkpt><trkpt lat="40.5465" lon="16.6671017"><ele>308.0</ele><time>2026-04-26T12:50:13.485Z</time></trkpt><trkpt lat="40.5463917" lon="16.6670767"><ele>308.0</ele><time>2026-04-26T12:50:14.486Z</time></trkpt><trkpt lat="40.5462833" lon="16.667055"><ele>308.0</ele><time>2026-04-26T12:50:15.485Z</time></trkpt><trkpt lat="40.546175" lon="16.6670333"><ele>307.8</ele><time>2026-04-26T12:50:16.485Z</time></trkpt><trkpt lat="40.5460683" lon="16.66701"><ele>307.6</ele><time>2026-04-26T12:50:17.485Z</time></trkpt><trkpt lat="40.5459633" lon="16.6669967"><ele>307.4</ele><time>2026-04-26T12:50:18.485Z</time></trkpt><trkpt lat="40.5458567" lon="16.667"><ele>307.2</ele><time>2026-04-26T12:50:19.485Z</time></trkpt><trkpt lat="40.54575" lon="16.6670217"><ele>307.0</ele><time>2026-04-26T12:50:20.486Z</time></trkpt><trkpt lat="40.5456467" lon="16.6670633"><ele>307.0</ele><time>2026-04-26T12:50:21.486Z</time></trkpt><trkpt lat="40.54555" lon="16.6671183"><ele>307.0</ele><time>2026-04-26T12:50:22.485Z</time></trkpt><trkpt lat="40.54545" lon="16.6671783"><ele>307.0</ele><time>2026-04-26T12:50:23.485Z</time></trkpt><trkpt lat="40.5453517" lon="16.6672383"><ele>307.0</ele><time>2026-04-26T12:50:24.485Z</time></trkpt><trkpt lat="40.5452567" lon="16.6673"><ele>307.0</ele><time>2026-04-26T12:50:25.485Z</time></trkpt><trkpt lat="40.545165" lon="16.667365"><ele>306.8</ele><time>2026-04-26T12:50:26.485Z</time></trkpt><trkpt lat="40.5450817" lon="16.667435"><ele>306.6</ele><time>2026-04-26T12:50:27.485Z</time></trkpt><trkpt lat="40.545005" lon="16.667515"><ele>306.40000000000003</ele><time>2026-04-26T12:50:28.485Z</time></trkpt><trkpt lat="40.5449317" lon="16.667605"><ele>306.2</ele><time>2026-04-26T12:50:29.485Z</time></trkpt><trkpt lat="40.54487" lon="16.6677083"><ele>306.0</ele><time>2026-04-26T12:50:30.485Z</time></trkpt><trkpt lat="40.5448167" lon="16.66782"><ele>307.0</ele><time>2026-04-26T12:50:31.486Z</time></trkpt><trkpt lat="40.54477" lon="16.667935"><ele>308.0</ele><time>2026-04-26T12:50:32.486Z</time></trkpt><trkpt lat="40.5447233" lon="16.66805"><ele>309.0</ele><time>2026-04-26T12:50:33.485Z</time></trkpt><trkpt lat="40.544675" lon="16.66817"><ele>310.0</ele><time>2026-04-26T12:50:34.485Z</time></trkpt><trkpt lat="40.5446283" lon="16.66829"><ele>311.0</ele><time>2026-04-26T12:50:35.485Z</time></trkpt><trkpt lat="40.54458" lon="16.66841"><ele>310.8</ele><time>2026-04-26T12:50:36.485Z</time></trkpt><trkpt lat="40.5445283" lon="16.66852"><ele>310.6</ele><time>2026-04-26T12:50:37.485Z</time></trkpt><trkpt lat="40.544475" lon="16.6686317"><ele>310.4</ele><time>2026-04-26T12:50:38.485Z</time></trkpt><trkpt lat="40.5444267" lon="16.6687533"><ele>310.2</ele><time>2026-04-26T12:50:39.485Z</time></trkpt><trkpt lat="40.54437" lon="16.66888"><ele>310.0</ele><time>2026-04-26T12:50:40.485Z</time></trkpt><trkpt lat="40.544305" lon="16.6690033"><ele>308.0</ele><time>2026-04-26T12:50:41.485Z</time></trkpt><trkpt lat="40.5442333" lon="16.6691217"><ele>306.0</ele><time>2026-04-26T12:50:42.485Z</time></trkpt><trkpt lat="40.544155" lon="16.6692433"><ele>304.0</ele><time>2026-04-26T12:50:43.485Z</time></trkpt><trkpt lat="40.544075" lon="16.669365"><ele>302.0</ele><time>2026-04-26T12:50:44.485Z</time></trkpt><trkpt lat="40.5440017" lon="16.66949"><ele>301.0</ele><time>2026-04-26T12:50:45.485Z</time></trkpt><trkpt lat="40.5439283" lon="16.669615"><ele>300.0</ele><time>2026-04-26T12:50:46.486Z</time></trkpt><trkpt lat="40.5438517" lon="16.669745"><ele>299.0</ele><time>2026-04-26T12:50:47.486Z</time></trkpt><trkpt lat="40.543775" lon="16.6698717"><ele>298.0</ele><time>2026-04-26T12:50:48.485Z</time></trkpt><trkpt lat="40.5436983" lon="16.6700033"><ele>296.75</ele><time>2026-04-26T12:50:49.486Z</time></trkpt><trkpt lat="40.5436217" lon="16.670135"><ele>295.5</ele><time>2026-04-26T12:50:50.485Z</time></trkpt><trkpt lat="40.5435433" lon="16.67027"><ele>294.25</ele><time>2026-04-26T12:50:51.487Z</time></trkpt><trkpt lat="40.5434617" lon="16.67041"><ele>293.0</ele><time>2026-04-26T12:50:52.486Z</time></trkpt><trkpt lat="40.54338" lon="16.6705483"><ele>292.0</ele><time>2026-04-26T12:50:53.485Z</time></trkpt><trkpt lat="40.5432983" lon="16.670685"><ele>291.0</ele><time>2026-04-26T12:50:54.485Z</time></trkpt><trkpt lat="40.5432167" lon="16.670815"><ele>290.0</ele><time>2026-04-26T12:50:55.485Z</time></trkpt><trkpt lat="40.5431383" lon="16.6709417"><ele>289.0</ele><time>2026-04-26T12:50:56.486Z</time></trkpt><trkpt lat="40.5430617" lon="16.6710683"><ele>288.25</ele><time>2026-04-26T12:50:57.486Z</time></trkpt><trkpt lat="40.542985" lon="16.6711883"><ele>287.5</ele><time>2026-04-26T12:50:58.486Z</time></trkpt><trkpt lat="40.5429117" lon="16.6713117"><ele>286.75</ele><time>2026-04-26T12:50:59.485Z</time></trkpt><trkpt lat="40.5428383" lon="16.6714367"><ele>286.0</ele><time>2026-04-26T12:51:00.485Z</time></trkpt><trkpt lat="40.5427633" lon="16.67156"><ele>286.0</ele><time>2026-04-26T12:51:01.485Z</time></trkpt><trkpt lat="40.54269" lon="16.6716883"><ele>286.0</ele><time>2026-04-26T12:51:02.486Z</time></trkpt><trkpt lat="40.542615" lon="16.6718217"><ele>286.0</ele><time>2026-04-26T12:51:03.485Z</time></trkpt><trkpt lat="40.542535" lon="16.671955"><ele>286.0</ele><time>2026-04-26T12:51:04.486Z</time></trkpt><trkpt lat="40.5424533" lon="16.672085"><ele>287.0</ele><time>2026-04-26T12:51:05.485Z</time></trkpt><trkpt lat="40.5423767" lon="16.67221"><ele>288.0</ele><time>2026-04-26T12:51:06.486Z</time></trkpt><trkpt lat="40.5423033" lon="16.6723317"><ele>289.0</ele><time>2026-04-26T12:51:07.486Z</time></trkpt><trkpt lat="40.5422317" lon="16.67245"><ele>290.0</ele><time>2026-04-26T12:51:08.485Z</time></trkpt><trkpt lat="40.5421567" lon="16.67257"><ele>290.0</ele><time>2026-04-26T12:51:09.486Z</time></trkpt><trkpt lat="40.5420817" lon="16.6726983"><ele>290.0</ele><time>2026-04-26T12:51:10.487Z</time></trkpt><trkpt lat="40.5420067" lon="16.672825"><ele>290.0</ele><time>2026-04-26T12:51:11.485Z</time></trkpt><trkpt lat="40.54193" lon="16.67295"><ele>290.0</ele><time>2026-04-26T12:51:12.485Z</time></trkpt><trkpt lat="40.541855" lon="16.6730783"><ele>287.75</ele><time>2026-04-26T12:51:13.486Z</time></trkpt><trkpt lat="40.541785" lon="16.6732083"><ele>285.5</ele><time>2026-04-26T12:51:14.485Z</time></trkpt><trkpt lat="40.541725" lon="16.6733417"><ele>283.25</ele><time>2026-04-26T12:51:15.484Z</time></trkpt><trkpt lat="40.5416783" lon="16.6734883"><ele>281.0</ele><time>2026-04-26T12:51:16.485Z</time></trkpt><trkpt lat="40.54165" lon="16.6736433"><ele>281.0</ele><time>2026-04-26T12:51:17.485Z</time></trkpt><trkpt lat="40.5416367" lon="16.6738017"><ele>281.0</ele><time>2026-04-26T12:51:18.485Z</time></trkpt><trkpt lat="40.5416317" lon="16.6739633"><ele>281.0</ele><time>2026-04-26T12:51:19.486Z</time></trkpt><trkpt lat="40.5416367" lon="16.674125"><ele>281.0</ele><time>2026-04-26T12:51:20.486Z</time></trkpt><trkpt lat="40.5416433" lon="16.6742833"><ele>281.0</ele><time>2026-04-26T12:51:21.489Z</time></trkpt><trkpt lat="40.5416517" lon="16.6744433"><ele>281.0</ele><time>2026-04-26T12:51:22.487Z</time></trkpt><trkpt lat="40.5416583" lon="16.6746017"><ele>281.0</ele><time>2026-04-26T12:51:23.486Z</time></trkpt><trkpt lat="40.5416617" lon="16.674755"><ele>281.0</ele><time>2026-04-26T12:51:24.486Z</time></trkpt><trkpt lat="40.541665" lon="16.674915"><ele>281.0</ele><time>2026-04-26T12:51:25.486Z</time></trkpt><trkpt lat="40.5416717" lon="16.6750767"><ele>281.0</ele><time>2026-04-26T12:51:26.486Z</time></trkpt><trkpt lat="40.54168" lon="16.675235"><ele>281.0</ele><time>2026-04-26T12:51:27.486Z</time></trkpt><trkpt lat="40.5416833" lon="16.6753917"><ele>281.0</ele><time>2026-04-26T12:51:28.485Z</time></trkpt><trkpt lat="40.5416783" lon="16.67555"><ele>280.25</ele><time>2026-04-26T12:51:29.486Z</time></trkpt><trkpt lat="40.5416583" lon="16.6757067"><ele>279.5</ele><time>2026-04-26T12:51:30.485Z</time></trkpt><trkpt lat="40.54162" lon="16.6758617"><ele>278.75</ele><time>2026-04-26T12:51:31.485Z</time></trkpt><trkpt lat="40.54156" lon="16.6760033"><ele>278.0</ele><time>2026-04-26T12:51:32.486Z</time></trkpt><trkpt lat="40.5414833" lon="16.6761333"><ele>279.75</ele><time>2026-04-26T12:51:33.485Z</time></trkpt><trkpt lat="40.5413967" lon="16.6762533"><ele>281.5</ele><time>2026-04-26T12:51:34.486Z</time></trkpt><trkpt lat="40.5413083" lon="16.6763717"><ele>283.25</ele><time>2026-04-26T12:51:35.485Z</time></trkpt><trkpt lat="40.5412217" lon="16.6764917"><ele>285.0</ele><time>2026-04-26T12:51:36.485Z</time></trkpt><trkpt lat="40.5411367" lon="16.676615"><ele>285.0</ele><time>2026-04-26T12:51:37.485Z</time></trkpt><trkpt lat="40.5410617" lon="16.6767517"><ele>285.0</ele><time>2026-04-26T12:51:38.486Z</time></trkpt><trkpt lat="40.5409967" lon="16.6768967"><ele>285.0</ele><time>2026-04-26T12:51:39.486Z</time></trkpt><trkpt lat="40.5409367" lon="16.6770467"><ele>285.0</ele><time>2026-04-26T12:51:40.485Z</time></trkpt><trkpt lat="40.5408817" lon="16.6772017"><ele>284.0</ele><time>2026-04-26T12:51:41.485Z</time></trkpt><trkpt lat="40.5408317" lon="16.6773583"><ele>283.0</ele><time>2026-04-26T12:51:42.486Z</time></trkpt><trkpt lat="40.5407817" lon="16.677515"><ele>282.0</ele><time>2026-04-26T12:51:43.486Z</time></trkpt><trkpt lat="40.5407317" lon="16.6776683"><ele>281.0</ele><time>2026-04-26T12:51:44.486Z</time></trkpt><trkpt lat="40.5406883" lon="16.6778217"><ele>278.25</ele><time>2026-04-26T12:51:45.486Z</time></trkpt><trkpt lat="40.54065" lon="16.677975"><ele>275.5</ele><time>2026-04-26T12:51:46.485Z</time></trkpt><trkpt lat="40.5406217" lon="16.678135"><ele>272.75</ele><time>2026-04-26T12:51:47.486Z</time></trkpt><trkpt lat="40.5406017" lon="16.6782983"><ele>270.0</ele><time>2026-04-26T12:51:48.486Z</time></trkpt><trkpt lat="40.5405867" lon="16.678465"><ele>268.25</ele><time>2026-04-26T12:51:49.486Z</time></trkpt><trkpt lat="40.540575" lon="16.6786367"><ele>266.5</ele><time>2026-04-26T12:51:50.486Z</time></trkpt><trkpt lat="40.54057" lon="16.67881"><ele>264.75</ele><time>2026-04-26T12:51:51.485Z</time></trkpt><trkpt lat="40.5405617" lon="16.6789817"><ele>263.0</ele><time>2026-04-26T12:51:52.486Z</time></trkpt><trkpt lat="40.54055" lon="16.6791567"><ele>263.0</ele><time>2026-04-26T12:51:53.487Z</time></trkpt><trkpt lat="40.5405383" lon="16.67933"><ele>263.0</ele><time>2026-04-26T12:51:54.485Z</time></trkpt><trkpt lat="40.540525" lon="16.679505"><ele>263.0</ele><time>2026-04-26T12:51:55.485Z</time></trkpt><trkpt lat="40.5405133" lon="16.6796817"><ele>263.0</ele><time>2026-04-26T12:51:56.486Z</time></trkpt><trkpt lat="40.5405017" lon="16.6798583"><ele>263.5</ele><time>2026-04-26T12:51:57.485Z</time></trkpt><trkpt lat="40.540485" lon="16.6800367"><ele>264.0</ele><time>2026-04-26T12:51:58.485Z</time></trkpt><trkpt lat="40.540465" lon="16.680215"><ele>264.5</ele><time>2026-04-26T12:51:59.485Z</time></trkpt><trkpt lat="40.54044" lon="16.68039"><ele>265.0</ele><time>2026-04-26T12:52:00.485Z</time></trkpt><trkpt lat="40.5404" lon="16.6805583"><ele>264.5</ele><time>2026-04-26T12:52:01.485Z</time></trkpt><trkpt lat="40.5403383" lon="16.6807183"><ele>264.0</ele><time>2026-04-26T12:52:02.486Z</time></trkpt><trkpt lat="40.5402667" lon="16.6808717"><ele>263.5</ele><time>2026-04-26T12:52:03.485Z</time></trkpt><trkpt lat="40.540185" lon="16.6810167"><ele>263.0</ele><time>2026-04-26T12:52:04.486Z</time></trkpt><trkpt lat="40.5400967" lon="16.681155"><ele>264.5</ele><time>2026-04-26T12:52:05.486Z</time></trkpt><trkpt lat="40.5400083" lon="16.68129"><ele>266.0</ele><time>2026-04-26T12:52:06.485Z</time></trkpt><trkpt lat="40.539925" lon="16.68143"><ele>267.5</ele><time>2026-04-26T12:52:07.486Z</time></trkpt><trkpt lat="40.5398433" lon="16.68157"><ele>269.0</ele><time>2026-04-26T12:52:08.486Z</time></trkpt><trkpt lat="40.53976" lon="16.6817117"><ele>269.0</ele><time>2026-04-26T12:52:09.486Z</time></trkpt><trkpt lat="40.5396733" lon="16.6818583"><ele>269.0</ele><time>2026-04-26T12:52:10.486Z</time></trkpt><trkpt lat="40.5395867" lon="16.6820067"><ele>269.0</ele><time>2026-04-26T12:52:11.485Z</time></trkpt><trkpt lat="40.5394983" lon="16.6821517"><ele>269.0</ele><time>2026-04-26T12:52:12.486Z</time></trkpt><trkpt lat="40.53941" lon="16.6822933"><ele>268.75</ele><time>2026-04-26T12:52:13.486Z</time></trkpt><trkpt lat="40.5393167" lon="16.6824317"><ele>268.5</ele><time>2026-04-26T12:52:14.486Z</time></trkpt><trkpt lat="40.53922" lon="16.6825617"><ele>268.25</ele><time>2026-04-26T12:52:15.485Z</time></trkpt><trkpt lat="40.539115" lon="16.6826833"><ele>268.0</ele><time>2026-04-26T12:52:16.485Z</time></trkpt><trkpt lat="40.5390033" lon="16.682785"><ele>268.0</ele><time>2026-04-26T12:52:17.489Z</time></trkpt><trkpt lat="40.5388883" lon="16.68288"><ele>268.0</ele><time>2026-04-26T12:52:18.485Z</time></trkpt><trkpt lat="40.5387767" lon="16.6829817"><ele>268.0</ele><time>2026-04-26T12:52:19.486Z</time></trkpt><trkpt lat="40.5386783" lon="16.6830967"><ele>268.0</ele><time>2026-04-26T12:52:20.487Z</time></trkpt><trkpt lat="40.5386033" lon="16.6832417"><ele>268.0</ele><time>2026-04-26T12:52:21.488Z</time></trkpt><trkpt lat="40.5385583" lon="16.683415"><ele>268.0</ele><time>2026-04-26T12:52:22.485Z</time></trkpt><trkpt lat="40.5385367" lon="16.6835983"><ele>268.0</ele><time>2026-04-26T12:52:23.486Z</time></trkpt><trkpt lat="40.5385183" lon="16.6837817"><ele>268.0</ele><time>2026-04-26T12:52:24.485Z</time></trkpt><trkpt lat="40.5384833" lon="16.6839517"><ele>271.0</ele><time>2026-04-26T12:52:25.485Z</time></trkpt><trkpt lat="40.53842" lon="16.68411"><ele>274.0</ele><time>2026-04-26T12:52:26.487Z</time></trkpt><trkpt lat="40.5383267" lon="16.6842467"><ele>277.0</ele><time>2026-04-26T12:52:27.486Z</time></trkpt><trkpt lat="40.5382083" lon="16.6843633"><ele>280.0</ele><time>2026-04-26T12:52:28.487Z</time></trkpt><trkpt lat="40.5380817" lon="16.68447"><ele>280.66666666666663</ele><time>2026-04-26T12:52:29.485Z</time></trkpt><trkpt lat="40.5379533" lon="16.684575"><ele>281.3333333333333</ele><time>2026-04-26T12:52:30.485Z</time></trkpt><trkpt lat="40.5378267" lon="16.68469"><ele>282.0</ele><time>2026-04-26T12:52:31.485Z</time></trkpt><trkpt lat="40.5377033" lon="16.6848167"><ele>279.6666666666667</ele><time>2026-04-26T12:52:32.486Z</time></trkpt><trkpt lat="40.5375833" lon="16.6849533"><ele>277.33333333333337</ele><time>2026-04-26T12:52:33.486Z</time></trkpt><trkpt lat="40.5374667" lon="16.6850917"><ele>275.0</ele><time>2026-04-26T12:52:34.487Z</time></trkpt><trkpt lat="40.5373517" lon="16.6852333"><ele>274.6666666666667</ele><time>2026-04-26T12:52:35.486Z</time></trkpt><trkpt lat="40.5372367" lon="16.685375"><ele>274.3333333333333</ele><time>2026-04-26T12:52:36.487Z</time></trkpt><trkpt lat="40.5371283" lon="16.6855233"><ele>274.0</ele><time>2026-04-26T12:52:37.486Z</time></trkpt><trkpt lat="40.53703" lon="16.68568"><ele>274.0</ele><time>2026-04-26T12:52:38.486Z</time></trkpt><trkpt lat="40.5369467" lon="16.6858483"><ele>274.0</ele><time>2026-04-26T12:52:39.486Z</time></trkpt><trkpt lat="40.5368733" lon="16.6860217"><ele>274.0</ele><time>2026-04-26T12:52:40.486Z</time></trkpt><trkpt lat="40.5368033" lon="16.686195"><ele>273.66666666666663</ele><time>2026-04-26T12:52:41.486Z</time></trkpt><trkpt lat="40.5367333" lon="16.68637"><ele>273.3333333333333</ele><time>2026-04-26T12:52:42.486Z</time></trkpt><trkpt lat="40.5366617" lon="16.6865433"><ele>273.0</ele><time>2026-04-26T12:52:43.486Z</time></trkpt><trkpt lat="40.53659" lon="16.6867167"><ele>273.0</ele><time>2026-04-26T12:52:44.489Z</time></trkpt><trkpt lat="40.53652" lon="16.6868917"><ele>273.0</ele><time>2026-04-26T12:52:45.486Z</time></trkpt><trkpt lat="40.5364483" lon="16.6870633"><ele>273.0</ele><time>2026-04-26T12:52:46.486Z</time></trkpt><trkpt lat="40.5363733" lon="16.6872283"><ele>273.0</ele><time>2026-04-26T12:52:47.486Z</time></trkpt><trkpt lat="40.53629" lon="16.687385"><ele>272.0</ele><time>2026-04-26T12:52:48.486Z</time></trkpt><trkpt lat="40.5361917" lon="16.6875283"><ele>271.0</ele><time>2026-04-26T12:52:49.486Z</time></trkpt><trkpt lat="40.5360767" lon="16.6876533"><ele>270.0</ele><time>2026-04-26T12:52:50.487Z</time></trkpt><trkpt lat="40.5359517" lon="16.6877617"><ele>269.0</ele><time>2026-04-26T12:52:51.485Z</time></trkpt><trkpt lat="40.53582" lon="16.6878583"><ele>269.0</ele><time>2026-04-26T12:52:52.485Z</time></trkpt><trkpt lat="40.5356833" lon="16.687955"><ele>269.0</ele><time>2026-04-26T12:52:53.486Z</time></trkpt><trkpt lat="40.5355467" lon="16.6880533"><ele>269.0</ele><time>2026-04-26T12:52:54.486Z</time></trkpt><trkpt lat="40.5354117" lon="16.6881533"><ele>268.33333333333337</ele><time>2026-04-26T12:52:55.487Z</time></trkpt><trkpt lat="40.535275" lon="16.688255"><ele>267.6666666666667</ele><time>2026-04-26T12:52:56.487Z</time></trkpt><trkpt lat="40.53514" lon="16.68836"><ele>267.0</ele><time>2026-04-26T12:52:57.486Z</time></trkpt><trkpt lat="40.5350033" lon="16.6884667"><ele>267.0</ele><time>2026-04-26T12:52:58.486Z</time></trkpt><trkpt lat="40.5348633" lon="16.688575"><ele>267.0</ele><time>2026-04-26T12:52:59.487Z</time></trkpt><trkpt lat="40.5347217" lon="16.6886817"><ele>267.0</ele><time>2026-04-26T12:53:00.486Z</time></trkpt><trkpt lat="40.5345817" lon="16.6887867"><ele>265.3333333333333</ele><time>2026-04-26T12:53:01.486Z</time></trkpt><trkpt lat="40.5344383" lon="16.6888933"><ele>263.66666666666663</ele><time>2026-04-26T12:53:02.487Z</time></trkpt><trkpt lat="40.5342933" lon="16.689"><ele>262.0</ele><time>2026-04-26T12:53:03.486Z</time></trkpt><trkpt lat="40.5341483" lon="16.6891067"><ele>262.0</ele><time>2026-04-26T12:53:04.487Z</time></trkpt><trkpt lat="40.5340033" lon="16.6892133"><ele>262.0</ele><time>2026-04-26T12:53:05.488Z</time></trkpt><trkpt lat="40.5338583" lon="16.6893217"><ele>262.0</ele><time>2026-04-26T12:53:06.486Z</time></trkpt><trkpt lat="40.5337133" lon="16.68943"><ele>260.66666666666663</ele><time>2026-04-26T12:53:07.486Z</time></trkpt><trkpt lat="40.5335683" lon="16.6895383"><ele>259.3333333333333</ele><time>2026-04-26T12:53:08.487Z</time></trkpt><trkpt lat="40.5334217" lon="16.6896467"><ele>258.0</ele><time>2026-04-26T12:53:09.486Z</time></trkpt><trkpt lat="40.5332733" lon="16.689755"><ele>258.0</ele><time>2026-04-26T12:53:10.486Z</time></trkpt><trkpt lat="40.5331283" lon="16.689865"><ele>258.0</ele><time>2026-04-26T12:53:11.486Z</time></trkpt><trkpt lat="40.5329833" lon="16.6899717"><ele>258.0</ele><time>2026-04-26T12:53:12.486Z</time></trkpt><trkpt lat="40.5328383" lon="16.6900667"><ele>256.3333333333333</ele><time>2026-04-26T12:53:13.486Z</time></trkpt><trkpt lat="40.5326917" lon="16.69015"><ele>254.66666666666666</ele><time>2026-04-26T12:53:14.486Z</time></trkpt><trkpt lat="40.5325467" lon="16.6902217"><ele>253.0</ele><time>2026-04-26T12:53:15.485Z</time></trkpt><trkpt lat="40.5324017" lon="16.690285"><ele>253.0</ele><time>2026-04-26T12:53:16.487Z</time></trkpt><trkpt lat="40.5322617" lon="16.6903483"><ele>253.0</ele><time>2026-04-26T12:53:17.484Z</time></trkpt><trkpt lat="40.5321317" lon="16.6904217"><ele>253.0</ele><time>2026-04-26T12:53:18.486Z</time></trkpt><trkpt lat="40.5320083" lon="16.6905167"><ele>253.0</ele><time>2026-04-26T12:53:19.485Z</time></trkpt><trkpt lat="40.531905" lon="16.69065"><ele>249.0</ele><time>2026-04-26T12:53:20.487Z</time></trkpt><trkpt lat="40.5318217" lon="16.6908183"><ele>245.0</ele><time>2026-04-26T12:53:21.487Z</time></trkpt><trkpt lat="40.53176" lon="16.6910083"><ele>241.0</ele><time>2026-04-26T12:53:22.485Z</time></trkpt><trkpt lat="40.5317083" lon="16.691205"><ele>240.66666666666666</ele><time>2026-04-26T12:53:23.486Z</time></trkpt><trkpt lat="40.53166" lon="16.6914067"><ele>240.33333333333331</ele><time>2026-04-26T12:53:24.487Z</time></trkpt><trkpt lat="40.53161" lon="16.6916083"><ele>240.0</ele><time>2026-04-26T12:53:25.486Z</time></trkpt><trkpt lat="40.5315583" lon="16.6918083"><ele>238.66666666666669</ele><time>2026-04-26T12:53:26.486Z</time></trkpt><trkpt lat="40.5315067" lon="16.6920067"><ele>237.33333333333334</ele><time>2026-04-26T12:53:27.485Z</time></trkpt><trkpt lat="40.531455" lon="16.6922"><ele>236.0</ele><time>2026-04-26T12:53:28.485Z</time></trkpt><trkpt lat="40.5313983" lon="16.692385"><ele>236.0</ele><time>2026-04-26T12:53:29.488Z</time></trkpt><trkpt lat="40.53133" lon="16.6925617"><ele>236.0</ele><time>2026-04-26T12:53:30.486Z</time></trkpt><trkpt lat="40.531255" lon="16.692735"><ele>236.0</ele><time>2026-04-26T12:53:31.485Z</time></trkpt><trkpt lat="40.5311667" lon="16.6928967"><ele>232.0</ele><time>2026-04-26T12:53:32.487Z</time></trkpt><trkpt lat="40.5310717" lon="16.6930467"><ele>228.0</ele><time>2026-04-26T12:53:33.491Z</time></trkpt><trkpt lat="40.530025" lon="16.6939783"><ele>228.0</ele><time>2026-04-26T12:53:42.492Z</time></trkpt><trkpt lat="40.5299017" lon="16.6940517"><ele>228.0</ele><time>2026-04-26T12:53:43.486Z</time></trkpt><trkpt lat="40.52978" lon="16.6941267"><ele>228.0</ele><time>2026-04-26T12:53:44.486Z</time></trkpt><trkpt lat="40.52954" lon="16.69429"><ele>227.25</ele><time>2026-04-26T12:53:46.486Z</time></trkpt><trkpt lat="40.5294233" lon="16.6943933"><ele>226.5</ele><time>2026-04-26T12:53:47.486Z</time></trkpt><trkpt lat="40.5293167" lon="16.6945167"><ele>225.75</ele><time>2026-04-26T12:53:48.489Z</time></trkpt><trkpt lat="40.5292167" lon="16.694655"><ele>225.0</ele><time>2026-04-26T12:53:49.487Z</time></trkpt><trkpt lat="40.5291317" lon="16.6948133"><ele>225.0</ele><time>2026-04-26T12:53:50.486Z</time></trkpt><trkpt lat="40.5290617" lon="16.694985"><ele>225.0</ele><time>2026-04-26T12:53:51.486Z</time></trkpt><trkpt lat="40.5290033" lon="16.69517"><ele>225.0</ele><time>2026-04-26T12:53:52.486Z</time></trkpt><trkpt lat="40.528955" lon="16.6953617"><ele>222.66666666666669</ele><time>2026-04-26T12:53:53.486Z</time></trkpt><trkpt lat="40.5289083" lon="16.6955533"><ele>220.33333333333334</ele><time>2026-04-26T12:53:54.486Z</time></trkpt><trkpt lat="40.5288567" lon="16.69574"><ele>218.0</ele><time>2026-04-26T12:53:55.486Z</time></trkpt><trkpt lat="40.5287933" lon="16.6959167"><ele>218.0</ele><time>2026-04-26T12:53:56.486Z</time></trkpt><trkpt lat="40.5287183" lon="16.696085"><ele>218.0</ele><time>2026-04-26T12:53:57.487Z</time></trkpt><trkpt lat="40.5286383" lon="16.696245"><ele>218.0</ele><time>2026-04-26T12:53:58.486Z</time></trkpt><trkpt lat="40.5285583" lon="16.6964"><ele>218.0</ele><time>2026-04-26T12:53:59.485Z</time></trkpt><trkpt lat="40.5284733" lon="16.696555"><ele>218.0</ele><time>2026-04-26T12:54:00.485Z</time></trkpt><trkpt lat="40.528395" lon="16.69671"><ele>218.0</ele><time>2026-04-26T12:54:01.485Z</time></trkpt><trkpt lat="40.5283167" lon="16.69686"><ele>218.0</ele><time>2026-04-26T12:54:02.485Z</time></trkpt><trkpt lat="40.52823" lon="16.696995"><ele>218.0</ele><time>2026-04-26T12:54:03.485Z</time></trkpt><trkpt lat="40.5281283" lon="16.6971017"><ele>217.75</ele><time>2026-04-26T12:54:04.485Z</time></trkpt><trkpt lat="40.5280067" lon="16.6971733"><ele>217.5</ele><time>2026-04-26T12:54:05.485Z</time></trkpt><trkpt lat="40.5278717" lon="16.6972067"><ele>217.25</ele><time>2026-04-26T12:54:06.485Z</time></trkpt><trkpt lat="40.52773" lon="16.6972"><ele>217.0</ele><time>2026-04-26T12:54:07.486Z</time></trkpt><trkpt lat="40.5275867" lon="16.6971583"><ele>215.75</ele><time>2026-04-26T12:54:08.486Z</time></trkpt><trkpt lat="40.5274433" lon="16.6971083"><ele>214.5</ele><time>2026-04-26T12:54:09.485Z</time></trkpt><trkpt lat="40.5273017" lon="16.6970567"><ele>213.25</ele><time>2026-04-26T12:54:10.485Z</time></trkpt><trkpt lat="40.52716" lon="16.6970133"><ele>212.0</ele><time>2026-04-26T12:54:11.485Z</time></trkpt><trkpt lat="40.5270183" lon="16.6969783"><ele>211.25</ele><time>2026-04-26T12:54:12.485Z</time></trkpt><trkpt lat="40.5268817" lon="16.696945"><ele>210.5</ele><time>2026-04-26T12:54:13.485Z</time></trkpt><trkpt lat="40.5267433" lon="16.69692"><ele>209.75</ele><time>2026-04-26T12:54:14.485Z</time></trkpt><trkpt lat="40.5265983" lon="16.6969083"><ele>209.0</ele><time>2026-04-26T12:54:15.485Z</time></trkpt><trkpt lat="40.5264567" lon="16.6968967"><ele>209.0</ele><time>2026-04-26T12:54:16.486Z</time></trkpt><trkpt lat="40.5263133" lon="16.6968867"><ele>209.0</ele><time>2026-04-26T12:54:17.485Z</time></trkpt><trkpt lat="40.52617" lon="16.696875"><ele>209.0</ele><time>2026-04-26T12:54:18.486Z</time></trkpt><trkpt lat="40.5260267" lon="16.6968517"><ele>209.0</ele><time>2026-04-26T12:54:19.486Z</time></trkpt><trkpt lat="40.5258817" lon="16.69684"><ele>207.75</ele><time>2026-04-26T12:54:20.485Z</time></trkpt><trkpt lat="40.5257333" lon="16.6968283"><ele>206.5</ele><time>2026-04-26T12:54:21.485Z</time></trkpt><trkpt lat="40.5255833" lon="16.6968183"><ele>205.25</ele><time>2026-04-26T12:54:22.485Z</time></trkpt><trkpt lat="40.5254333" lon="16.6968183"><ele>204.0</ele><time>2026-04-26T12:54:23.485Z</time></trkpt><trkpt lat="40.5252867" lon="16.6968267"><ele>203.25</ele><time>2026-04-26T12:54:24.485Z</time></trkpt><trkpt lat="40.52514" lon="16.69685"><ele>202.5</ele><time>2026-04-26T12:54:25.485Z</time></trkpt><trkpt lat="40.524995" lon="16.69689"><ele>201.75</ele><time>2026-04-26T12:54:26.487Z</time></trkpt><trkpt lat="40.5248467" lon="16.6969283"><ele>201.0</ele><time>2026-04-26T12:54:27.485Z</time></trkpt><trkpt lat="40.5246933" lon="16.6969517"><ele>200.66666666666669</ele><time>2026-04-26T12:54:28.485Z</time></trkpt><trkpt lat="40.5245417" lon="16.6969567"><ele>200.33333333333334</ele><time>2026-04-26T12:54:29.485Z</time></trkpt><trkpt lat="40.5243917" lon="16.6969467"><ele>200.0</ele><time>2026-04-26T12:54:30.485Z</time></trkpt><trkpt lat="40.52424" lon="16.6969283"><ele>199.0</ele><time>2026-04-26T12:54:31.485Z</time></trkpt><trkpt lat="40.5240933" lon="16.69691"><ele>198.0</ele><time>2026-04-26T12:54:32.486Z</time></trkpt><trkpt lat="40.5239467" lon="16.6969017"><ele>197.0</ele><time>2026-04-26T12:54:33.486Z</time></trkpt><trkpt lat="40.5238033" lon="16.6969117"><ele>196.0</ele><time>2026-04-26T12:54:34.485Z</time></trkpt><trkpt lat="40.5236633" lon="16.6969383"><ele>196.0</ele><time>2026-04-26T12:54:35.486Z</time></trkpt><trkpt lat="40.523525" lon="16.6969783"><ele>196.0</ele><time>2026-04-26T12:54:36.487Z</time></trkpt><trkpt lat="40.5233867" lon="16.6970283"><ele>196.0</ele><time>2026-04-26T12:54:37.485Z</time></trkpt><trkpt lat="40.5232467" lon="16.6970867"><ele>196.0</ele><time>2026-04-26T12:54:38.486Z</time></trkpt><trkpt lat="40.523105" lon="16.6971467"><ele>196.0</ele><time>2026-04-26T12:54:39.485Z</time></trkpt><trkpt lat="40.5229633" lon="16.69721"><ele>196.0</ele><time>2026-04-26T12:54:40.485Z</time></trkpt><trkpt lat="40.52282" lon="16.6972717"><ele>196.0</ele><time>2026-04-26T12:54:41.485Z</time></trkpt><trkpt lat="40.522675" lon="16.69733"><ele>196.0</ele><time>2026-04-26T12:54:42.485Z</time></trkpt><trkpt lat="40.5225283" lon="16.69739"><ele>196.0</ele><time>2026-04-26T12:54:43.485Z</time></trkpt><trkpt lat="40.5223833" lon="16.69745"><ele>196.0</ele><time>2026-04-26T12:54:44.487Z</time></trkpt><trkpt lat="40.52224" lon="16.6975083"><ele>196.0</ele><time>2026-04-26T12:54:45.486Z</time></trkpt><trkpt lat="40.5221" lon="16.6975667"><ele>196.0</ele><time>2026-04-26T12:54:46.485Z</time></trkpt><trkpt lat="40.52196" lon="16.69762"><ele>196.0</ele><time>2026-04-26T12:54:47.485Z</time></trkpt><trkpt lat="40.5218233" lon="16.697675"><ele>196.0</ele><time>2026-04-26T12:54:48.485Z</time></trkpt><trkpt lat="40.5216883" lon="16.6977383"><ele>195.75</ele><time>2026-04-26T12:54:49.486Z</time></trkpt><trkpt lat="40.5215617" lon="16.697825"><ele>195.5</ele><time>2026-04-26T12:54:50.486Z</time></trkpt><trkpt lat="40.5214517" lon="16.6979533"><ele>195.25</ele><time>2026-04-26T12:54:51.485Z</time></trkpt><trkpt lat="40.5213733" lon="16.6981283"><ele>195.0</ele><time>2026-04-26T12:54:52.485Z</time></trkpt><trkpt lat="40.521315" lon="16.698325"><ele>195.0</ele><time>2026-04-26T12:54:53.485Z</time></trkpt><trkpt lat="40.5212633" lon="16.69853"><ele>195.0</ele><time>2026-04-26T12:54:54.486Z</time></trkpt><trkpt lat="40.521215" lon="16.6987333"><ele>195.0</ele><time>2026-04-26T12:54:55.487Z</time></trkpt><trkpt lat="40.5211667" lon="16.6989383"><ele>192.66666666666666</ele><time>2026-04-26T12:54:56.485Z</time></trkpt><trkpt lat="40.5211167" lon="16.6991383"><ele>190.33333333333331</ele><time>2026-04-26T12:54:57.485Z</time></trkpt><trkpt lat="40.5210633" lon="16.6993383"><ele>188.0</ele><time>2026-04-26T12:54:58.485Z</time></trkpt><trkpt lat="40.521005" lon="16.699535"><ele>188.0</ele><time>2026-04-26T12:54:59.485Z</time></trkpt><trkpt lat="40.5209317" lon="16.6997217"><ele>188.0</ele><time>2026-04-26T12:55:00.485Z</time></trkpt><trkpt lat="40.5208483" lon="16.6999017"><ele>188.0</ele><time>2026-04-26T12:55:01.486Z</time></trkpt><trkpt lat="40.52076" lon="16.70008"><ele>187.0</ele><time>2026-04-26T12:55:02.487Z</time></trkpt><trkpt lat="40.5206717" lon="16.700255"><ele>186.0</ele><time>2026-04-26T12:55:03.485Z</time></trkpt><trkpt lat="40.520585" lon="16.70043"><ele>185.0</ele><time>2026-04-26T12:55:04.485Z</time></trkpt><trkpt lat="40.5204983" lon="16.7005983"><ele>185.0</ele><time>2026-04-26T12:55:05.485Z</time></trkpt><trkpt lat="40.52041" lon="16.7007633"><ele>185.0</ele><time>2026-04-26T12:55:06.485Z</time></trkpt><trkpt lat="40.520315" lon="16.7009233"><ele>185.0</ele><time>2026-04-26T12:55:07.485Z</time></trkpt><trkpt lat="40.520215" lon="16.70108"><ele>185.0</ele><time>2026-04-26T12:55:08.486Z</time></trkpt><trkpt lat="40.5201117" lon="16.7012317"><ele>185.0</ele><time>2026-04-26T12:55:09.485Z</time></trkpt><trkpt lat="40.5200083" lon="16.701385"><ele>185.0</ele><time>2026-04-26T12:55:10.486Z</time></trkpt><trkpt lat="40.5199067" lon="16.701535"><ele>185.0</ele><time>2026-04-26T12:55:11.485Z</time></trkpt><trkpt lat="40.519805" lon="16.7016833"><ele>185.0</ele><time>2026-04-26T12:55:12.485Z</time></trkpt><trkpt lat="40.5197033" lon="16.70183"><ele>185.0</ele><time>2026-04-26T12:55:13.485Z</time></trkpt><trkpt lat="40.5196017" lon="16.7019783"><ele>184.66666666666666</ele><time>2026-04-26T12:55:14.486Z</time></trkpt><trkpt lat="40.5194983" lon="16.7021317"><ele>184.33333333333334</ele><time>2026-04-26T12:55:15.485Z</time></trkpt><trkpt lat="40.5193967" lon="16.70228"><ele>184.0</ele><time>2026-04-26T12:55:16.486Z</time></trkpt><trkpt lat="40.5192933" lon="16.7024283"><ele>184.0</ele><time>2026-04-26T12:55:17.486Z</time></trkpt><trkpt lat="40.51919" lon="16.702575"><ele>184.0</ele><time>2026-04-26T12:55:18.485Z</time></trkpt><trkpt lat="40.5190867" lon="16.7027267"><ele>184.0</ele><time>2026-04-26T12:55:19.485Z</time></trkpt><trkpt lat="40.5189833" lon="16.70288"><ele>182.33333333333334</ele><time>2026-04-26T12:55:20.494Z</time></trkpt><trkpt lat="40.5188767" lon="16.7030333"><ele>180.66666666666666</ele><time>2026-04-26T12:55:21.485Z</time></trkpt><trkpt lat="40.5187717" lon="16.7031883"><ele>179.0</ele><time>2026-04-26T12:55:22.485Z</time></trkpt><trkpt lat="40.5186683" lon="16.7033433"><ele>178.66666666666666</ele><time>2026-04-26T12:55:23.485Z</time></trkpt><trkpt lat="40.5185633" lon="16.7034967"><ele>178.33333333333334</ele><time>2026-04-26T12:55:24.485Z</time></trkpt><trkpt lat="40.51846" lon="16.7036483"><ele>178.0</ele><time>2026-04-26T12:55:25.486Z</time></trkpt><trkpt lat="40.518355" lon="16.7038017"><ele>177.33333333333334</ele><time>2026-04-26T12:55:26.486Z</time></trkpt><trkpt lat="40.5182517" lon="16.703955"><ele>176.66666666666666</ele><time>2026-04-26T12:55:27.487Z</time></trkpt><trkpt lat="40.5181483" lon="16.70411"><ele>176.0</ele><time>2026-04-26T12:55:28.487Z</time></trkpt><trkpt lat="40.5180417" lon="16.7042617"><ele>176.0</ele><time>2026-04-26T12:55:29.486Z</time></trkpt><trkpt lat="40.51793" lon="16.7044117"><ele>176.0</ele><time>2026-04-26T12:55:30.486Z</time></trkpt><trkpt lat="40.517815" lon="16.704555"><ele>176.0</ele><time>2026-04-26T12:55:31.49Z</time></trkpt><trkpt lat="40.517695" lon="16.7046867"><ele>174.66666666666666</ele><time>2026-04-26T12:55:32.486Z</time></trkpt><trkpt lat="40.5175683" lon="16.7048133"><ele>173.33333333333334</ele><time>2026-04-26T12:55:33.485Z</time></trkpt><trkpt lat="40.5174367" lon="16.7049317"><ele>172.0</ele><time>2026-04-26T12:55:34.486Z</time></trkpt><trkpt lat="40.5173" lon="16.7050383"><ele>172.0</ele><time>2026-04-26T12:55:35.486Z</time></trkpt><trkpt lat="40.5171633" lon="16.7051367"><ele>172.0</ele><time>2026-04-26T12:55:36.486Z</time></trkpt><trkpt lat="40.51702" lon="16.7052233"><ele>172.0</ele><time>2026-04-26T12:55:37.485Z</time></trkpt><trkpt lat="40.5168733" lon="16.7053017"><ele>171.5</ele><time>2026-04-26T12:55:38.486Z</time></trkpt><trkpt lat="40.51673" lon="16.7053767"><ele>171.0</ele><time>2026-04-26T12:55:39.485Z</time></trkpt><trkpt lat="40.51659" lon="16.70545"><ele>170.5</ele><time>2026-04-26T12:55:40.485Z</time></trkpt><trkpt lat="40.51646" lon="16.705525"><ele>170.0</ele><time>2026-04-26T12:55:41.485Z</time></trkpt><trkpt lat="40.51634" lon="16.70561"><ele>168.75</ele><time>2026-04-26T12:55:42.486Z</time></trkpt><trkpt lat="40.51623" lon="16.7057167"><ele>167.5</ele><time>2026-04-26T12:55:43.485Z</time></trkpt><trkpt lat="40.5161383" lon="16.7058567"><ele>166.25</ele><time>2026-04-26T12:55:44.486Z</time></trkpt><trkpt lat="40.5160667" lon="16.7060267"><ele>165.0</ele><time>2026-04-26T12:55:45.485Z</time></trkpt><trkpt lat="40.5160083" lon="16.7062067"><ele>165.0</ele><time>2026-04-26T12:55:46.485Z</time></trkpt><trkpt lat="40.5159533" lon="16.7063833"><ele>165.0</ele><time>2026-04-26T12:55:47.486Z</time></trkpt><trkpt lat="40.5158983" lon="16.7065533"><ele>165.0</ele><time>2026-04-26T12:55:48.485Z</time></trkpt><trkpt lat="40.5158433" lon="16.7067117"><ele>165.0</ele><time>2026-04-26T12:55:49.487Z</time></trkpt><trkpt lat="40.51579" lon="16.7068517"><ele>164.4</ele><time>2026-04-26T12:55:50.486Z</time></trkpt><trkpt lat="40.5157283" lon="16.7069683"><ele>163.8</ele><time>2026-04-26T12:55:51.485Z</time></trkpt><trkpt lat="40.51565" lon="16.707055"><ele>163.2</ele><time>2026-04-26T12:55:52.486Z</time></trkpt><trkpt lat="40.5155567" lon="16.7071083"><ele>162.6</ele><time>2026-04-26T12:55:53.484Z</time></trkpt><trkpt lat="40.5154517" lon="16.7071"><ele>162.0</ele><time>2026-04-26T12:55:54.487Z</time></trkpt><trkpt lat="40.5153367" lon="16.7070433"><ele>160.25</ele><time>2026-04-26T12:55:55.485Z</time></trkpt><trkpt lat="40.5152217" lon="16.7069733"><ele>158.5</ele><time>2026-04-26T12:55:56.486Z</time></trkpt><trkpt lat="40.5151083" lon="16.7069133"><ele>156.75</ele><time>2026-04-26T12:55:57.485Z</time></trkpt><trkpt lat="40.514995" lon="16.7068583"><ele>155.0</ele><time>2026-04-26T12:55:58.485Z</time></trkpt><trkpt lat="40.514895" lon="16.7068183"><ele>155.0</ele><time>2026-04-26T12:55:59.486Z</time></trkpt><trkpt lat="40.5148067" lon="16.7067733"><ele>155.0</ele><time>2026-04-26T12:56:00.485Z</time></trkpt><trkpt lat="40.5147217" lon="16.7067267"><ele>155.0</ele><time>2026-04-26T12:56:01.486Z</time></trkpt><trkpt lat="40.5146317" lon="16.7067117"><ele>155.0</ele><time>2026-04-26T12:56:02.486Z</time></trkpt><trkpt lat="40.514545" lon="16.7067067"><ele>155.0</ele><time>2026-04-26T12:56:03.486Z</time></trkpt><trkpt lat="40.514455" lon="16.70671"><ele>153.33333333333331</ele><time>2026-04-26T12:56:04.486Z</time></trkpt><trkpt lat="40.51437" lon="16.7067117"><ele>151.66666666666666</ele><time>2026-04-26T12:56:05.486Z</time></trkpt><trkpt lat="40.514295" lon="16.7067033"><ele>150.0</ele><time>2026-04-26T12:56:06.485Z</time></trkpt><trkpt lat="40.5142233" lon="16.706705"><ele>148.33333333333334</ele><time>2026-04-26T12:56:07.484Z</time></trkpt><trkpt lat="40.514155" lon="16.7067283"><ele>146.66666666666669</ele><time>2026-04-26T12:56:08.486Z</time></trkpt><trkpt lat="40.514095" lon="16.7067817"><ele>145.0</ele><time>2026-04-26T12:56:09.488Z</time></trkpt><trkpt lat="40.5140517" lon="16.706865"><ele>145.83333333333334</ele><time>2026-04-26T12:56:10.485Z</time></trkpt><trkpt lat="40.51403" lon="16.7069683"><ele>146.66666666666669</ele><time>2026-04-26T12:56:11.485Z</time></trkpt><trkpt lat="40.5140167" lon="16.707075"><ele>147.5</ele><time>2026-04-26T12:56:12.485Z</time></trkpt><trkpt lat="40.5139917" lon="16.707165"><ele>148.33333333333334</ele><time>2026-04-26T12:56:13.485Z</time></trkpt><trkpt lat="40.5139467" lon="16.70723"><ele>149.16666666666666</ele><time>2026-04-26T12:56:14.488Z</time></trkpt><trkpt lat="40.5138733" lon="16.7072567"><ele>150.0</ele><time>2026-04-26T12:56:15.485Z</time></trkpt><trkpt lat="40.5137883" lon="16.7072467"><ele>145.8</ele><time>2026-04-26T12:56:16.485Z</time></trkpt><trkpt lat="40.5137" lon="16.707235"><ele>141.6</ele><time>2026-04-26T12:56:17.488Z</time></trkpt><trkpt lat="40.5136083" lon="16.70724"><ele>137.4</ele><time>2026-04-26T12:56:18.485Z</time></trkpt><trkpt lat="40.5135167" lon="16.707265"><ele>133.2</ele><time>2026-04-26T12:56:19.486Z</time></trkpt><trkpt lat="40.5134267" lon="16.7073133"><ele>129.0</ele><time>2026-04-26T12:56:20.486Z</time></trkpt><trkpt lat="40.51334" lon="16.70738"><ele>129.0</ele><time>2026-04-26T12:56:21.487Z</time></trkpt><trkpt lat="40.5132517" lon="16.7074583"><ele>129.0</ele><time>2026-04-26T12:56:22.485Z</time></trkpt><trkpt lat="40.5131567" lon="16.7075383"><ele>129.0</ele><time>2026-04-26T12:56:23.485Z</time></trkpt><trkpt lat="40.5130633" lon="16.707615"><ele>129.0</ele><time>2026-04-26T12:56:24.485Z</time></trkpt><trkpt lat="40.5129733" lon="16.7076867"><ele>129.0</ele><time>2026-04-26T12:56:25.485Z</time></trkpt><trkpt lat="40.5128867" lon="16.7077517"><ele>127.0</ele><time>2026-04-26T12:56:26.487Z</time></trkpt><trkpt lat="40.512815" lon="16.7078267"><ele>125.0</ele><time>2026-04-26T12:56:27.486Z</time></trkpt><trkpt lat="40.5127533" lon="16.7079117"><ele>123.0</ele><time>2026-04-26T12:56:28.485Z</time></trkpt><trkpt lat="40.5127017" lon="16.7079883"><ele>121.0</ele><time>2026-04-26T12:56:29.485Z</time></trkpt><trkpt lat="40.5126517" lon="16.7080417"><ele>119.0</ele><time>2026-04-26T12:56:30.485Z</time></trkpt><trkpt lat="40.5125467" lon="16.7080433"><ele>117.0</ele><time>2026-04-26T12:56:32.486Z</time></trkpt><trkpt lat="40.5124967" lon="16.707985"><ele>117.0</ele><time>2026-04-26T12:56:33.485Z</time></trkpt><trkpt lat="40.51246" lon="16.707905"><ele>117.0</ele><time>2026-04-26T12:56:34.486Z</time></trkpt><trkpt lat="40.512425" lon="16.7078133"><ele>117.0</ele><time>2026-04-26T12:56:35.485Z</time></trkpt><trkpt lat="40.5123833" lon="16.707725"><ele>117.0</ele><time>2026-04-26T12:56:36.485Z</time></trkpt><trkpt lat="40.5123383" lon="16.70764"><ele>117.0</ele><time>2026-04-26T12:56:37.485Z</time></trkpt><trkpt lat="40.5122783" lon="16.707555"><ele>117.0</ele><time>2026-04-26T12:56:38.486Z</time></trkpt><trkpt lat="40.512215" lon="16.707465"><ele>115.71428571428572</ele><time>2026-04-26T12:56:39.486Z</time></trkpt><trkpt lat="40.512155" lon="16.7073767"><ele>114.42857142857144</ele><time>2026-04-26T12:56:40.486Z</time></trkpt><trkpt lat="40.5121067" lon="16.7072967"><ele>113.14285714285714</ele><time>2026-04-26T12:56:41.485Z</time></trkpt><trkpt lat="40.512065" lon="16.7072267"><ele>111.85714285714286</ele><time>2026-04-26T12:56:42.485Z</time></trkpt><trkpt lat="40.5120133" lon="16.70717"><ele>110.57142857142857</ele><time>2026-04-26T12:56:43.487Z</time></trkpt><trkpt lat="40.5119517" lon="16.7071317"><ele>109.28571428571428</ele><time>2026-04-26T12:56:44.486Z</time></trkpt><trkpt lat="40.51188" lon="16.707115"><ele>108.0</ele><time>2026-04-26T12:56:45.484Z</time></trkpt><trkpt lat="40.5118117" lon="16.7071067"><ele>105.85714285714286</ele><time>2026-04-26T12:56:46.491Z</time></trkpt><trkpt lat="40.5117383" lon="16.70711"><ele>103.71428571428571</ele><time>2026-04-26T12:56:47.49Z</time></trkpt><trkpt lat="40.5116633" lon="16.707115"><ele>101.57142857142858</ele><time>2026-04-26T12:56:48.485Z</time></trkpt><trkpt lat="40.5115917" lon="16.7071067"><ele>99.42857142857143</ele><time>2026-04-26T12:56:49.487Z</time></trkpt><trkpt lat="40.5115217" lon="16.70709"><ele>97.28571428571429</ele><time>2026-04-26T12:56:50.487Z</time></trkpt><trkpt lat="40.51145" lon="16.7070767"><ele>95.14285714285715</ele><time>2026-04-26T12:56:51.485Z</time></trkpt><trkpt lat="40.51138" lon="16.70709"><ele>93.0</ele><time>2026-04-26T12:56:52.485Z</time></trkpt><trkpt lat="40.5113083" lon="16.7071233"><ele>90.80000000000001</ele><time>2026-04-26T12:56:53.486Z</time></trkpt><trkpt lat="40.5112317" lon="16.70716"><ele>88.6</ele><time>2026-04-26T12:56:54.485Z</time></trkpt><trkpt lat="40.5111533" lon="16.7071983"><ele>86.4</ele><time>2026-04-26T12:56:55.485Z</time></trkpt><trkpt lat="40.5110717" lon="16.7072317"><ele>84.19999999999999</ele><time>2026-04-26T12:56:56.486Z</time></trkpt><trkpt lat="40.5109717" lon="16.7072617"><ele>82.0</ele><time>2026-04-26T12:56:57.491Z</time></trkpt><trkpt lat="40.5108717" lon="16.7072917"><ele>82.0</ele><time>2026-04-26T12:56:58.485Z</time></trkpt><trkpt lat="40.5107733" lon="16.7073167"><ele>82.0</ele><time>2026-04-26T12:56:59.485Z</time></trkpt><trkpt lat="40.5106933" lon="16.70734"><ele>82.0</ele><time>2026-04-26T12:57:00.486Z</time></trkpt><trkpt lat="40.510625" lon="16.70736"><ele>82.0</ele><time>2026-04-26T12:57:01.486Z</time></trkpt><trkpt lat="40.5105583" lon="16.7073833"><ele>82.0</ele><time>2026-04-26T12:57:02.488Z</time></trkpt><trkpt lat="40.51049" lon="16.7074"><ele>82.0</ele><time>2026-04-26T12:57:03.486Z</time></trkpt><trkpt lat="40.5104217" lon="16.7074133"><ele>80.0</ele><time>2026-04-26T12:57:04.485Z</time></trkpt><trkpt lat="40.5103483" lon="16.7074167"><ele>78.0</ele><time>2026-04-26T12:57:05.486Z</time></trkpt><trkpt lat="40.5102733" lon="16.7074233"><ele>76.0</ele><time>2026-04-26T12:57:06.486Z</time></trkpt><trkpt lat="40.5101983" lon="16.70743"><ele>74.0</ele><time>2026-04-26T12:57:07.486Z</time></trkpt><trkpt lat="40.5101183" lon="16.7074483"><ele>72.0</ele><time>2026-04-26T12:57:08.486Z</time></trkpt><trkpt lat="40.5100383" lon="16.7074683"><ele>70.0</ele><time>2026-04-26T12:57:09.485Z</time></trkpt><trkpt lat="40.50996" lon="16.707485"><ele>70.0</ele><time>2026-04-26T12:57:10.485Z</time></trkpt><trkpt lat="40.5098833" lon="16.7074917"><ele>70.0</ele><time>2026-04-26T12:57:11.485Z</time></trkpt><trkpt lat="40.5098083" lon="16.7074983"><ele>70.0</ele><time>2026-04-26T12:57:12.567Z</time></trkpt><trkpt lat="40.509735" lon="16.7075233"><ele>70.0</ele><time>2026-04-26T12:57:13.486Z</time></trkpt><trkpt lat="40.5096633" lon="16.7075533"><ele>70.0</ele><time>2026-04-26T12:57:14.487Z</time></trkpt><trkpt lat="40.509595" lon="16.70758"><ele>70.0</ele><time>2026-04-26T12:57:15.486Z</time></trkpt><trkpt lat="40.5095283" lon="16.7076117"><ele>70.0</ele><time>2026-04-26T12:57:16.486Z</time></trkpt><trkpt lat="40.5094633" lon="16.7076417"><ele>69.85714285714286</ele><time>2026-04-26T12:57:17.486Z</time></trkpt><trkpt lat="40.5093983" lon="16.70767"><ele>69.71428571428572</ele><time>2026-04-26T12:57:18.486Z</time></trkpt><trkpt lat="40.509335" lon="16.707705"><ele>69.57142857142857</ele><time>2026-04-26T12:57:19.486Z</time></trkpt><trkpt lat="40.5092683" lon="16.707745"><ele>69.42857142857143</ele><time>2026-04-26T12:57:20.486Z</time></trkpt><trkpt lat="40.5091967" lon="16.7077783"><ele>69.28571428571429</ele><time>2026-04-26T12:57:21.485Z</time></trkpt><trkpt lat="40.5091217" lon="16.7078017"><ele>69.14285714285714</ele><time>2026-04-26T12:57:22.485Z</time></trkpt><trkpt lat="40.509045" lon="16.707815"><ele>69.0</ele><time>2026-04-26T12:57:23.486Z</time></trkpt><trkpt lat="40.5089667" lon="16.7078267"><ele>69.0</ele><time>2026-04-26T12:57:24.486Z</time></trkpt><trkpt lat="40.5088883" lon="16.7078333"><ele>69.0</ele><time>2026-04-26T12:57:25.485Z</time></trkpt><trkpt lat="40.5088133" lon="16.7078333"><ele>69.0</ele><time>2026-04-26T12:57:26.486Z</time></trkpt><trkpt lat="40.508745" lon="16.7078333"><ele>69.0</ele><time>2026-04-26T12:57:27.485Z</time></trkpt><trkpt lat="40.5086233" lon="16.70785"><ele>69.0</ele><time>2026-04-26T12:57:29.486Z</time></trkpt><trkpt lat="40.5085183" lon="16.7079"><ele>68.0</ele><time>2026-04-26T12:57:31.486Z</time></trkpt><trkpt lat="40.5084217" lon="16.7079767"><ele>67.0</ele><time>2026-04-26T12:57:33.485Z</time></trkpt><trkpt lat="40.50833" lon="16.7080567"><ele>66.0</ele><time>2026-04-26T12:57:35.486Z</time></trkpt><trkpt lat="40.5082333" lon="16.7081233"><ele>65.0</ele><time>2026-04-26T12:57:37.488Z</time></trkpt><trkpt lat="40.50813" lon="16.7081733"><ele>64.0</ele><time>2026-04-26T12:57:39.485Z</time></trkpt><trkpt lat="40.5080233" lon="16.7081783"><ele>64.0</ele><time>2026-04-26T12:57:41.486Z</time></trkpt><trkpt lat="40.5079117" lon="16.7081733"><ele>64.0</ele><time>2026-04-26T12:57:43.486Z</time></trkpt><trkpt lat="40.507825" lon="16.708175"><ele>64.0</ele><time>2026-04-26T12:57:45.486Z</time></trkpt><trkpt lat="40.5077533" lon="16.708185"><ele>64.0</ele><time>2026-04-26T12:57:50.486Z</time></trkpt><trkpt lat="40.5076667" lon="16.7082383"><ele>64.0</ele><time>2026-04-26T12:57:53.486Z</time></trkpt><trkpt lat="40.5075833" lon="16.708295"><ele>63.800000000000004</ele><time>2026-04-26T12:57:55.486Z</time></trkpt><trkpt lat="40.50748" lon="16.7083617"><ele>63.60000000000001</ele><time>2026-04-26T12:57:57.571Z</time></trkpt><trkpt lat="40.5073767" lon="16.7084317"><ele>63.4</ele><time>2026-04-26T12:57:59.486Z</time></trkpt><trkpt lat="40.5072783" lon="16.7084917"><ele>63.2</ele><time>2026-04-26T12:58:01.486Z</time></trkpt><trkpt lat="40.5071867" lon="16.708555"><ele>63.0</ele><time>2026-04-26T12:58:03.487Z</time></trkpt><trkpt lat="40.5070983" lon="16.7086283"><ele>62.2</ele><time>2026-04-26T12:58:05.487Z</time></trkpt><trkpt lat="40.5070233" lon="16.7087217"><ele>61.4</ele><time>2026-04-26T12:58:07.486Z</time></trkpt><trkpt lat="40.5069483" lon="16.70883"><ele>60.60000000000001</ele><time>2026-04-26T12:58:09.486Z</time></trkpt><trkpt lat="40.50688" lon="16.7089267"><ele>59.800000000000004</ele><time>2026-04-26T12:58:11.485Z</time></trkpt><trkpt lat="40.5068033" lon="16.7089883"><ele>59.0</ele><time>2026-04-26T12:58:13.487Z</time></trkpt><trkpt lat="40.5067317" lon="16.7090167"><ele>59.00000000000001</ele><time>2026-04-26T12:58:15.486Z</time></trkpt><trkpt lat="40.5066417" lon="16.7090183"><ele>59.0</ele><time>2026-04-26T12:58:18.485Z</time></trkpt><trkpt lat="40.506565" lon="16.70901"><ele>59.0</ele><time>2026-04-26T12:58:20.487Z</time></trkpt><trkpt lat="40.5064933" lon="16.70903"><ele>59.0</ele><time>2026-04-26T12:58:22.488Z</time></trkpt><trkpt lat="40.5064183" lon="16.7090817"><ele>59.00000000000001</ele><time>2026-04-26T12:58:31.489Z</time></trkpt><trkpt lat="40.50636" lon="16.7091233"><ele>59.0</ele><time>2026-04-26T12:58:33.485Z</time></trkpt><trkpt lat="40.5062883" lon="16.7091717"><ele>58.400000000000006</ele><time>2026-04-26T12:58:35.485Z</time></trkpt><trkpt lat="40.50621" lon="16.7092067"><ele>57.800000000000004</ele><time>2026-04-26T12:58:37.485Z</time></trkpt><trkpt lat="40.5061133" lon="16.7092533"><ele>57.199999999999996</ele><time>2026-04-26T12:58:39.486Z</time></trkpt><trkpt lat="40.5060183" lon="16.7092933"><ele>56.599999999999994</ele><time>2026-04-26T12:58:41.487Z</time></trkpt><trkpt lat="40.5059233" lon="16.7093367"><ele>56.0</ele><time>2026-04-26T12:58:43.485Z</time></trkpt><trkpt lat="40.50583" lon="16.7093917"><ele>57.0</ele><time>2026-04-26T12:58:45.485Z</time></trkpt><trkpt lat="40.5057317" lon="16.7094467"><ele>57.99999999999999</ele><time>2026-04-26T12:58:47.493Z</time></trkpt><trkpt lat="40.5056367" lon="16.7095017"><ele>58.99999999999999</ele><time>2026-04-26T12:58:49.486Z</time></trkpt><trkpt lat="40.5055367" lon="16.7095433"><ele>60.0</ele><time>2026-04-26T12:58:51.486Z</time></trkpt><trkpt lat="40.5054283" lon="16.7095683"><ele>61.0</ele><time>2026-04-26T12:58:53.489Z</time></trkpt><trkpt lat="40.50533" lon="16.7095917"><ele>61.0</ele><time>2026-04-26T12:58:55.485Z</time></trkpt><trkpt lat="40.5052383" lon="16.7096033"><ele>60.99999999999999</ele><time>2026-04-26T12:58:57.485Z</time></trkpt><trkpt lat="40.505135" lon="16.7096033"><ele>60.99999999999999</ele><time>2026-04-26T12:58:59.485Z</time></trkpt><trkpt lat="40.5050283" lon="16.709585"><ele>61.0</ele><time>2026-04-26T12:59:01.485Z</time></trkpt><trkpt lat="40.5049217" lon="16.7096017"><ele>61.0</ele><time>2026-04-26T12:59:03.485Z</time></trkpt><trkpt lat="40.5048083" lon="16.709615"><ele>61.0</ele><time>2026-04-26T12:59:05.485Z</time></trkpt><trkpt lat="40.5046933" lon="16.7096383"><ele>60.99999999999999</ele><time>2026-04-26T12:59:07.485Z</time></trkpt><trkpt lat="40.504585" lon="16.70965"><ele>60.99999999999999</ele><time>2026-04-26T12:59:09.486Z</time></trkpt><trkpt lat="40.5044867" lon="16.7096567"><ele>61.0</ele><time>2026-04-26T12:59:11.485Z</time></trkpt><trkpt lat="40.5043833" lon="16.7096567"><ele>61.0</ele><time>2026-04-26T12:59:13.485Z</time></trkpt><trkpt lat="40.5042583" lon="16.7096417"><ele>61.0</ele><time>2026-04-26T12:59:15.485Z</time></trkpt><trkpt lat="40.5041333" lon="16.7096167"><ele>61.0</ele><time>2026-04-26T12:59:17.485Z</time></trkpt><trkpt lat="40.5040167" lon="16.7095867"><ele>61.0</ele><time>2026-04-26T12:59:19.485Z</time></trkpt><trkpt lat="40.5039083" lon="16.70956"><ele>61.0</ele><time>2026-04-26T12:59:21.486Z</time></trkpt><trkpt lat="40.5037967" lon="16.7095467"><ele>59.8</ele><time>2026-04-26T12:59:23.485Z</time></trkpt><trkpt lat="40.50369" lon="16.709535"><ele>58.599999999999994</ele><time>2026-04-26T12:59:25.485Z</time></trkpt><trkpt lat="40.5035833" lon="16.709535"><ele>57.4</ele><time>2026-04-26T12:59:27.486Z</time></trkpt><trkpt lat="40.5035117" lon="16.709535"><ele>56.2</ele><time>2026-04-26T12:59:29.485Z</time></trkpt><trkpt lat="40.503435" lon="16.70955"><ele>55.0</ele><time>2026-04-26T12:59:31.485Z</time></trkpt><trkpt lat="40.50334" lon="16.7095567"><ele>55.0</ele><time>2026-04-26T12:59:33.485Z</time></trkpt><trkpt lat="40.5032367" lon="16.7095567"><ele>55.0</ele><time>2026-04-26T12:59:35.485Z</time></trkpt><trkpt lat="40.5031333" lon="16.7095683"><ele>55.0</ele><time>2026-04-26T12:59:37.486Z</time></trkpt><trkpt lat="40.5030267" lon="16.7095883"><ele>55.0</ele><time>2026-04-26T12:59:39.485Z</time></trkpt><trkpt lat="40.5029317" lon="16.7096217"><ele>55.0</ele><time>2026-04-26T12:59:41.486Z</time></trkpt><trkpt lat="40.5028467" lon="16.70965"><ele>53.8</ele><time>2026-04-26T12:59:43.485Z</time></trkpt><trkpt lat="40.5027383" lon="16.7096683"><ele>52.6</ele><time>2026-04-26T12:59:45.485Z</time></trkpt><trkpt lat="40.5026333" lon="16.70967"><ele>51.400000000000006</ele><time>2026-04-26T12:59:47.485Z</time></trkpt><trkpt lat="40.502545" lon="16.709665"><ele>50.2</ele><time>2026-04-26T12:59:49.484Z</time></trkpt><trkpt lat="40.5024483" lon="16.709665"><ele>49.0</ele><time>2026-04-26T12:59:51.485Z</time></trkpt><trkpt lat="40.5023633" lon="16.7096783"><ele>49.0</ele><time>2026-04-26T12:59:53.491Z</time></trkpt><trkpt lat="40.502285" lon="16.7096933"><ele>49.0</ele><time>2026-04-26T12:59:55.485Z</time></trkpt><trkpt lat="40.5021967" lon="16.7097133"><ele>49.0</ele><time>2026-04-26T12:59:57.486Z</time></trkpt><trkpt lat="40.50209" lon="16.70975"><ele>49.0</ele><time>2026-04-26T12:59:59.487Z</time></trkpt><trkpt lat="40.5019817" lon="16.7097817"><ele>49.0</ele><time>2026-04-26T13:00:01.486Z</time></trkpt><trkpt lat="40.5018783" lon="16.7097917"><ele>48.666666666666664</ele><time>2026-04-26T13:00:03.487Z</time></trkpt><trkpt lat="40.5018067" lon="16.7098017"><ele>48.33333333333333</ele><time>2026-04-26T13:00:05.486Z</time></trkpt><trkpt lat="40.5017367" lon="16.709795"><ele>48.0</ele><time>2026-04-26T13:00:07.487Z</time></trkpt><trkpt lat="40.5016517" lon="16.7097767"><ele>47.666666666666664</ele><time>2026-04-26T13:00:09.486Z</time></trkpt><trkpt lat="40.50155" lon="16.7097583"><ele>47.33333333333333</ele><time>2026-04-26T13:00:11.486Z</time></trkpt><trkpt lat="40.50145" lon="16.7097633"><ele>47.0</ele><time>2026-04-26T13:00:13.486Z</time></trkpt><trkpt lat="40.5013517" lon="16.7097833"><ele>46.2</ele><time>2026-04-26T13:00:15.486Z</time></trkpt><trkpt lat="40.5012483" lon="16.7098083"><ele>45.400000000000006</ele><time>2026-04-26T13:00:17.487Z</time></trkpt><trkpt lat="40.5011483" lon="16.7098367"><ele>44.599999999999994</ele><time>2026-04-26T13:00:19.486Z</time></trkpt><trkpt lat="40.501055" lon="16.7098667"><ele>43.8</ele><time>2026-04-26T13:00:21.485Z</time></trkpt><trkpt lat="40.5009617" lon="16.7098817"><ele>43.0</ele><time>2026-04-26T13:00:23.487Z</time></trkpt><trkpt lat="40.500855" lon="16.7098933"><ele>43.0</ele><time>2026-04-26T13:00:25.486Z</time></trkpt><trkpt lat="40.5007367" lon="16.7099067"><ele>43.0</ele><time>2026-04-26T13:00:27.485Z</time></trkpt><trkpt lat="40.50065" lon="16.7099117"><ele>43.0</ele><time>2026-04-26T13:00:29.486Z</time></trkpt><trkpt lat="40.5005867" lon="16.7099233"><ele>43.0</ele><time>2026-04-26T13:00:35.489Z</time></trkpt><trkpt lat="40.5004917" lon="16.7099417"><ele>43.0</ele><time>2026-04-26T13:00:38.486Z</time></trkpt><trkpt lat="40.50042" lon="16.7099683"><ele>43.0</ele><time>2026-04-26T13:00:40.484Z</time></trkpt><trkpt lat="40.5003483" lon="16.71"><ele>42.833333333333336</ele><time>2026-04-26T13:00:42.486Z</time></trkpt><trkpt lat="40.5002867" lon="16.71004"><ele>42.66666666666667</ele><time>2026-04-26T13:00:44.487Z</time></trkpt><trkpt lat="40.5002017" lon="16.710065"><ele>42.5</ele><time>2026-04-26T13:00:47.486Z</time></trkpt><trkpt lat="40.50013" lon="16.7100667"><ele>42.333333333333336</ele><time>2026-04-26T13:00:49.487Z</time></trkpt><trkpt lat="40.5000633" lon="16.710075"><ele>42.166666666666664</ele><time>2026-04-26T13:00:51.485Z</time></trkpt><trkpt lat="40.49998" lon="16.710075"><ele>42.0</ele><time>2026-04-26T13:00:53.486Z</time></trkpt><trkpt lat="40.499875" lon="16.7100633"><ele>42.0</ele><time>2026-04-26T13:00:55.485Z</time></trkpt><trkpt lat="40.4997683" lon="16.7100483"><ele>42.0</ele><time>2026-04-26T13:00:57.485Z</time></trkpt><trkpt lat="40.499665" lon="16.7100317"><ele>42.0</ele><time>2026-04-26T13:00:59.486Z</time></trkpt><trkpt lat="40.499575" lon="16.7100367"><ele>42.0</ele><time>2026-04-26T13:01:01.486Z</time></trkpt><trkpt lat="40.49949" lon="16.7100733"><ele>42.0</ele><time>2026-04-26T13:01:03.486Z</time></trkpt><trkpt lat="40.4994017" lon="16.7101167"><ele>41.666666666666664</ele><time>2026-04-26T13:01:05.489Z</time></trkpt><trkpt lat="40.499315" lon="16.7101383"><ele>41.333333333333336</ele><time>2026-04-26T13:01:07.486Z</time></trkpt><trkpt lat="40.4992317" lon="16.7101533"><ele>41.0</ele><time>2026-04-26T13:01:09.485Z</time></trkpt><trkpt lat="40.4991433" lon="16.7101867"><ele>40.66666666666667</ele><time>2026-04-26T13:01:11.486Z</time></trkpt><trkpt lat="40.4990733" lon="16.7102433"><ele>40.333333333333336</ele><time>2026-04-26T13:01:13.486Z</time></trkpt><trkpt lat="40.4990267" lon="16.7103333"><ele>40.0</ele><time>2026-04-26T13:01:15.486Z</time></trkpt><trkpt lat="40.498945" lon="16.7104483"><ele>40.0</ele><time>2026-04-26T13:01:17.486Z</time></trkpt><trkpt lat="40.498885" lon="16.7105067"><ele>40.0</ele><time>2026-04-26T13:01:18.485Z</time></trkpt><trkpt lat="40.4988233" lon="16.7105617"><ele>40.0</ele><time>2026-04-26T13:01:19.485Z</time></trkpt><trkpt lat="40.4987617" lon="16.71062"><ele>40.0</ele><time>2026-04-26T13:01:20.486Z</time></trkpt><trkpt lat="40.498705" lon="16.710685"><ele>40.0</ele><time>2026-04-26T13:01:21.486Z</time></trkpt><trkpt lat="40.498655" lon="16.710755"><ele>40.0</ele><time>2026-04-26T13:01:22.487Z</time></trkpt><trkpt lat="40.4986133" lon="16.7108267"><ele>40.0</ele><time>2026-04-26T13:01:23.486Z</time></trkpt><trkpt lat="40.4985383" lon="16.71092"><ele>39.8</ele><time>2026-04-26T13:01:25.486Z</time></trkpt><trkpt lat="40.4984767" lon="16.7108817"><ele>39.6</ele><time>2026-04-26T13:01:28.485Z</time></trkpt><trkpt lat="40.4985233" lon="16.710735"><ele>39.4</ele><time>2026-04-26T13:01:30.486Z</time></trkpt><trkpt lat="40.4985717" lon="16.7106233"><ele>39.2</ele><time>2026-04-26T13:01:31.487Z</time></trkpt><trkpt lat="40.4986183" lon="16.7104883"><ele>39.0</ele><time>2026-04-26T13:01:32.487Z</time></trkpt><trkpt lat="40.498665" lon="16.7103383"><ele>39.0</ele><time>2026-04-26T13:01:33.487Z</time></trkpt><trkpt lat="40.4987167" lon="16.7101867"><ele>39.0</ele><time>2026-04-26T13:01:34.486Z</time></trkpt><trkpt lat="40.49877" lon="16.71004"><ele>39.0</ele><time>2026-04-26T13:01:35.488Z</time></trkpt><trkpt lat="40.4988233" lon="16.709895"><ele>39.0</ele><time>2026-04-26T13:01:36.486Z</time></trkpt><trkpt lat="40.4988783" lon="16.70975"><ele>39.0</ele><time>2026-04-26T13:01:37.487Z</time></trkpt><trkpt lat="40.4989333" lon="16.7096083"><ele>39.0</ele><time>2026-04-26T13:01:38.49Z</time></trkpt><trkpt lat="40.4989917" lon="16.70947"><ele>39.0</ele><time>2026-04-26T13:01:39.486Z</time></trkpt><trkpt lat="40.4990567" lon="16.7093417"><ele>39.0</ele><time>2026-04-26T13:01:40.486Z</time></trkpt><trkpt lat="40.49913" lon="16.7092217"><ele>39.5</ele><time>2026-04-26T13:01:41.486Z</time></trkpt><trkpt lat="40.499205" lon="16.7091083"><ele>40.0</ele><time>2026-04-26T13:01:42.486Z</time></trkpt><trkpt lat="40.49928" lon="16.7089967"><ele>40.5</ele><time>2026-04-26T13:01:43.486Z</time></trkpt><trkpt lat="40.499355" lon="16.7088867"><ele>41.0</ele><time>2026-04-26T13:01:44.486Z</time></trkpt><trkpt lat="40.499425" lon="16.7087683"><ele>41.0</ele><time>2026-04-26T13:01:45.486Z</time></trkpt><trkpt lat="40.49949" lon="16.7086383"><ele>41.0</ele><time>2026-04-26T13:01:46.486Z</time></trkpt><trkpt lat="40.49955" lon="16.7084967"><ele>41.0</ele><time>2026-04-26T13:01:47.486Z</time></trkpt><trkpt lat="40.499605" lon="16.708345"><ele>41.0</ele><time>2026-04-26T13:01:48.49Z</time></trkpt><trkpt lat="40.4996517" lon="16.7081883"><ele>41.0</ele><time>2026-04-26T13:01:49.486Z</time></trkpt><trkpt lat="40.4996933" lon="16.7080283"><ele>41.0</ele><time>2026-04-26T13:01:50.486Z</time></trkpt><trkpt lat="40.4997367" lon="16.7078717"><ele>41.0</ele><time>2026-04-26T13:01:51.486Z</time></trkpt><trkpt lat="40.4997783" lon="16.7077167"><ele>41.0</ele><time>2026-04-26T13:01:52.486Z</time></trkpt><trkpt lat="40.4998183" lon="16.7075633"><ele>40.5</ele><time>2026-04-26T13:01:53.485Z</time></trkpt><trkpt lat="40.4998583" lon="16.7074117"><ele>40.0</ele><time>2026-04-26T13:01:54.486Z</time></trkpt><trkpt lat="40.499895" lon="16.7072617"><ele>39.5</ele><time>2026-04-26T13:01:55.487Z</time></trkpt><trkpt lat="40.4999333" lon="16.7071133"><ele>39.0</ele><time>2026-04-26T13:01:56.486Z</time></trkpt><trkpt lat="40.4999733" lon="16.7069667"><ele>39.5</ele><time>2026-04-26T13:01:57.485Z</time></trkpt><trkpt lat="40.5000167" lon="16.70682"><ele>40.0</ele><time>2026-04-26T13:01:58.486Z</time></trkpt><trkpt lat="40.5000583" lon="16.70667"><ele>40.5</ele><time>2026-04-26T13:01:59.488Z</time></trkpt><trkpt lat="40.5001017" lon="16.7065183"><ele>41.0</ele><time>2026-04-26T13:02:00.486Z</time></trkpt><trkpt lat="40.5001433" lon="16.7063633"><ele>41.0</ele><time>2026-04-26T13:02:01.486Z</time></trkpt><trkpt lat="40.5001867" lon="16.7062067"><ele>41.0</ele><time>2026-04-26T13:02:02.488Z</time></trkpt><trkpt lat="40.5002317" lon="16.70605"><ele>41.0</ele><time>2026-04-26T13:02:03.486Z</time></trkpt><trkpt lat="40.5002733" lon="16.7058933"><ele>41.0</ele><time>2026-04-26T13:02:04.486Z</time></trkpt><trkpt lat="40.5003167" lon="16.705735"><ele>40.5</ele><time>2026-04-26T13:02:05.486Z</time></trkpt><trkpt lat="40.50036" lon="16.7055767"><ele>40.0</ele><time>2026-04-26T13:02:06.486Z</time></trkpt><trkpt lat="40.5004" lon="16.7054133"><ele>39.5</ele><time>2026-04-26T13:02:07.488Z</time></trkpt><trkpt lat="40.50044" lon="16.7052483"><ele>39.0</ele><time>2026-04-26T13:02:08.487Z</time></trkpt><trkpt lat="40.500485" lon="16.7050783"><ele>41.333333333333336</ele><time>2026-04-26T13:02:09.486Z</time></trkpt><trkpt lat="40.5005333" lon="16.704895"><ele>43.66666666666667</ele><time>2026-04-26T13:02:10.486Z</time></trkpt><trkpt lat="40.5005833" lon="16.7047083"><ele>46.0</ele><time>2026-04-26T13:02:11.486Z</time></trkpt><trkpt lat="40.5006333" lon="16.70452"><ele>45.5</ele><time>2026-04-26T13:02:12.486Z</time></trkpt><trkpt lat="40.5006833" lon="16.7043383"><ele>45.0</ele><time>2026-04-26T13:02:13.486Z</time></trkpt><trkpt lat="40.500735" lon="16.7041583"><ele>44.5</ele><time>2026-04-26T13:02:14.486Z</time></trkpt><trkpt lat="40.5007883" lon="16.70398"><ele>44.0</ele><time>2026-04-26T13:02:15.486Z</time></trkpt><trkpt lat="40.50084" lon="16.7038033"><ele>44.0</ele><time>2026-04-26T13:02:16.486Z</time></trkpt><trkpt lat="40.5008917" lon="16.7036283"><ele>44.0</ele><time>2026-04-26T13:02:17.486Z</time></trkpt><trkpt lat="40.5009383" lon="16.7034383"><ele>44.0</ele><time>2026-04-26T13:02:18.485Z</time></trkpt><trkpt lat="40.50098" lon="16.7032333"><ele>43.0</ele><time>2026-04-26T13:02:19.49Z</time></trkpt><trkpt lat="40.5010217" lon="16.7030217"><ele>42.0</ele><time>2026-04-26T13:02:20.486Z</time></trkpt><trkpt lat="40.5010667" lon="16.7028133"><ele>41.0</ele><time>2026-04-26T13:02:21.486Z</time></trkpt><trkpt lat="40.5011133" lon="16.702605"><ele>40.666666666666664</ele><time>2026-04-26T13:02:22.486Z</time></trkpt><trkpt lat="40.50116" lon="16.7023983"><ele>40.333333333333336</ele><time>2026-04-26T13:02:23.486Z</time></trkpt><trkpt lat="40.5012083" lon="16.70219"><ele>40.0</ele><time>2026-04-26T13:02:24.486Z</time></trkpt><trkpt lat="40.5012617" lon="16.7019867"><ele>41.333333333333336</ele><time>2026-04-26T13:02:25.486Z</time></trkpt><trkpt lat="40.5013167" lon="16.701785"><ele>42.666666666666664</ele><time>2026-04-26T13:02:26.487Z</time></trkpt><trkpt lat="40.50137" lon="16.7015867"><ele>44.0</ele><time>2026-04-26T13:02:27.486Z</time></trkpt><trkpt lat="40.50142" lon="16.7013883"><ele>44.0</ele><time>2026-04-26T13:02:28.487Z</time></trkpt><trkpt lat="40.50147" lon="16.701195"><ele>44.0</ele><time>2026-04-26T13:02:29.485Z</time></trkpt><trkpt lat="40.5015183" lon="16.7010017"><ele>44.0</ele><time>2026-04-26T13:02:30.485Z</time></trkpt><trkpt lat="40.501565" lon="16.7008117"><ele>43.75</ele><time>2026-04-26T13:02:31.485Z</time></trkpt><trkpt lat="40.5016033" lon="16.7006217"><ele>43.5</ele><time>2026-04-26T13:02:32.485Z</time></trkpt><trkpt lat="40.5016367" lon="16.7004333"><ele>43.25</ele><time>2026-04-26T13:02:33.491Z</time></trkpt><trkpt lat="40.5016533" lon="16.7002417"><ele>43.0</ele><time>2026-04-26T13:02:34.485Z</time></trkpt><trkpt lat="40.5016483" lon="16.7000417"><ele>42.66666666666667</ele><time>2026-04-26T13:02:35.485Z</time></trkpt><trkpt lat="40.50163" lon="16.6998383"><ele>42.333333333333336</ele><time>2026-04-26T13:02:36.485Z</time></trkpt><trkpt lat="40.5016083" lon="16.6996367"><ele>42.0</ele><time>2026-04-26T13:02:37.487Z</time></trkpt><trkpt lat="40.501585" lon="16.6994333"><ele>41.666666666666664</ele><time>2026-04-26T13:02:38.485Z</time></trkpt><trkpt lat="40.5015617" lon="16.69923"><ele>41.33333333333333</ele><time>2026-04-26T13:02:39.489Z</time></trkpt><trkpt lat="40.5015383" lon="16.6990283"><ele>41.0</ele><time>2026-04-26T13:02:40.488Z</time></trkpt><trkpt lat="40.5015167" lon="16.6988217"><ele>41.0</ele><time>2026-04-26T13:02:41.487Z</time></trkpt><trkpt lat="40.5014967" lon="16.6986117"><ele>41.0</ele><time>2026-04-26T13:02:42.485Z</time></trkpt><trkpt lat="40.501475" lon="16.6984"><ele>41.0</ele><time>2026-04-26T13:02:43.485Z</time></trkpt><trkpt lat="40.5014533" lon="16.698185"><ele>40.33333333333333</ele><time>2026-04-26T13:02:44.486Z</time></trkpt><trkpt lat="40.5014317" lon="16.6979733"><ele>39.666666666666664</ele><time>2026-04-26T13:02:45.485Z</time></trkpt><trkpt lat="40.50141" lon="16.697765"><ele>39.0</ele><time>2026-04-26T13:02:46.485Z</time></trkpt><trkpt lat="40.5013883" lon="16.69756"><ele>39.0</ele><time>2026-04-26T13:02:47.486Z</time></trkpt><trkpt lat="40.5013683" lon="16.6973583"><ele>39.0</ele><time>2026-04-26T13:02:48.486Z</time></trkpt><trkpt lat="40.5013467" lon="16.6971583"><ele>39.0</ele><time>2026-04-26T13:02:49.485Z</time></trkpt><trkpt lat="40.501325" lon="16.6969567"><ele>41.0</ele><time>2026-04-26T13:02:50.485Z</time></trkpt><trkpt lat="40.5013033" lon="16.696755"><ele>43.0</ele><time>2026-04-26T13:02:51.485Z</time></trkpt><trkpt lat="40.5012833" lon="16.696555"><ele>45.0</ele><time>2026-04-26T13:02:52.485Z</time></trkpt><trkpt lat="40.5012617" lon="16.696355"><ele>43.666666666666664</ele><time>2026-04-26T13:02:53.485Z</time></trkpt><trkpt lat="40.5012383" lon="16.6961533"><ele>42.33333333333333</ele><time>2026-04-26T13:02:54.485Z</time></trkpt><trkpt lat="40.501215" lon="16.69595"><ele>41.0</ele><time>2026-04-26T13:02:55.485Z</time></trkpt><trkpt lat="40.50119" lon="16.6957467"><ele>41.0</ele><time>2026-04-26T13:02:56.485Z</time></trkpt><trkpt lat="40.50116" lon="16.69554"><ele>41.0</ele><time>2026-04-26T13:02:57.487Z</time></trkpt><trkpt lat="40.5011267" lon="16.6953333"><ele>41.0</ele><time>2026-04-26T13:02:58.485Z</time></trkpt><trkpt lat="40.501085" lon="16.6951283"><ele>41.0</ele><time>2026-04-26T13:02:59.485Z</time></trkpt><trkpt lat="40.5010317" lon="16.694925"><ele>41.0</ele><time>2026-04-26T13:03:00.485Z</time></trkpt><trkpt lat="40.5009683" lon="16.694725"><ele>41.0</ele><time>2026-04-26T13:03:01.485Z</time></trkpt><trkpt lat="40.5009033" lon="16.6945317"><ele>41.33333333333333</ele><time>2026-04-26T13:03:02.486Z</time></trkpt><trkpt lat="40.50084" lon="16.6943433"><ele>41.666666666666664</ele><time>2026-04-26T13:03:03.485Z</time></trkpt><trkpt lat="40.5007767" lon="16.6941617"><ele>42.0</ele><time>2026-04-26T13:03:04.486Z</time></trkpt><trkpt lat="40.5007133" lon="16.69398"><ele>42.0</ele><time>2026-04-26T13:03:05.485Z</time></trkpt><trkpt lat="40.5006517" lon="16.6938"><ele>42.0</ele><time>2026-04-26T13:03:06.485Z</time></trkpt><trkpt lat="40.5005933" lon="16.69362"><ele>42.0</ele><time>2026-04-26T13:03:07.485Z</time></trkpt><trkpt lat="40.5005367" lon="16.6934417"><ele>42.0</ele><time>2026-04-26T13:03:08.486Z</time></trkpt><trkpt lat="40.5004783" lon="16.6932633"><ele>42.333333333333336</ele><time>2026-04-26T13:03:09.486Z</time></trkpt><trkpt lat="40.50042" lon="16.693085"><ele>42.66666666666667</ele><time>2026-04-26T13:03:10.485Z</time></trkpt><trkpt lat="40.50036" lon="16.6929033"><ele>43.0</ele><time>2026-04-26T13:03:11.485Z</time></trkpt><trkpt lat="40.5003" lon="16.69272"><ele>42.0</ele><time>2026-04-26T13:03:12.485Z</time></trkpt><trkpt lat="40.500245" lon="16.6925367"><ele>41.0</ele><time>2026-04-26T13:03:13.485Z</time></trkpt><trkpt lat="40.5001933" lon="16.69235"><ele>40.0</ele><time>2026-04-26T13:03:14.487Z</time></trkpt><trkpt lat="40.5001483" lon="16.6921567"><ele>40.0</ele><time>2026-04-26T13:03:15.485Z</time></trkpt><trkpt lat="40.5001117" lon="16.69196"><ele>40.0</ele><time>2026-04-26T13:03:16.486Z</time></trkpt><trkpt lat="40.5000783" lon="16.6917617"><ele>40.0</ele><time>2026-04-26T13:03:17.485Z</time></trkpt><trkpt lat="40.5000467" lon="16.6915633"><ele>40.66666666666667</ele><time>2026-04-26T13:03:18.485Z</time></trkpt><trkpt lat="40.5000117" lon="16.6913667"><ele>41.333333333333336</ele><time>2026-04-26T13:03:19.485Z</time></trkpt><trkpt lat="40.4999733" lon="16.69117"><ele>42.0</ele><time>2026-04-26T13:03:20.488Z</time></trkpt><trkpt lat="40.499935" lon="16.690975"><ele>42.333333333333336</ele><time>2026-04-26T13:03:21.489Z</time></trkpt><trkpt lat="40.4998983" lon="16.6907833"><ele>42.66666666666667</ele><time>2026-04-26T13:03:22.488Z</time></trkpt><trkpt lat="40.4998617" lon="16.6905917"><ele>43.0</ele><time>2026-04-26T13:03:23.486Z</time></trkpt><trkpt lat="40.49983" lon="16.6904"><ele>42.66666666666667</ele><time>2026-04-26T13:03:24.485Z</time></trkpt><trkpt lat="40.4998017" lon="16.6902067"><ele>42.333333333333336</ele><time>2026-04-26T13:03:25.485Z</time></trkpt><trkpt lat="40.4997783" lon="16.69001"><ele>42.0</ele><time>2026-04-26T13:03:26.487Z</time></trkpt><trkpt lat="40.49976" lon="16.68981"><ele>42.0</ele><time>2026-04-26T13:03:27.485Z</time></trkpt><trkpt lat="40.4997483" lon="16.68961"><ele>42.0</ele><time>2026-04-26T13:03:28.485Z</time></trkpt><trkpt lat="40.4997383" lon="16.6894083"><ele>42.0</ele><time>2026-04-26T13:03:29.485Z</time></trkpt><trkpt lat="40.499735" lon="16.6892083"><ele>43.0</ele><time>2026-04-26T13:03:30.485Z</time></trkpt><trkpt lat="40.49973" lon="16.68901"><ele>44.0</ele><time>2026-04-26T13:03:31.485Z</time></trkpt><trkpt lat="40.499725" lon="16.68881"><ele>45.0</ele><time>2026-04-26T13:03:32.485Z</time></trkpt><trkpt lat="40.4997183" lon="16.68861"><ele>46.0</ele><time>2026-04-26T13:03:33.485Z</time></trkpt><trkpt lat="40.49971" lon="16.68841"><ele>47.0</ele><time>2026-04-26T13:03:34.485Z</time></trkpt><trkpt lat="40.4997" lon="16.68821"><ele>48.0</ele><time>2026-04-26T13:03:35.485Z</time></trkpt><trkpt lat="40.49969" lon="16.6880117"><ele>48.0</ele><time>2026-04-26T13:03:36.486Z</time></trkpt><trkpt lat="40.4996817" lon="16.68781"><ele>48.0</ele><time>2026-04-26T13:03:37.485Z</time></trkpt><trkpt lat="40.4996717" lon="16.6876067"><ele>48.0</ele><time>2026-04-26T13:03:38.487Z</time></trkpt><trkpt lat="40.4996667" lon="16.6874033"><ele>47.666666666666664</ele><time>2026-04-26T13:03:39.487Z</time></trkpt><trkpt lat="40.49966" lon="16.687195"><ele>47.33333333333333</ele><time>2026-04-26T13:03:40.485Z</time></trkpt><trkpt lat="40.4996533" lon="16.68699"><ele>47.0</ele><time>2026-04-26T13:03:41.485Z</time></trkpt><trkpt lat="40.4996467" lon="16.686785"><ele>46.666666666666664</ele><time>2026-04-26T13:03:42.485Z</time></trkpt><trkpt lat="40.49964" lon="16.6865833"><ele>46.333333333333336</ele><time>2026-04-26T13:03:43.485Z</time></trkpt><trkpt lat="40.49963" lon="16.68638"><ele>46.0</ele><time>2026-04-26T13:03:44.485Z</time></trkpt><trkpt lat="40.4996183" lon="16.68618"><ele>46.25</ele><time>2026-04-26T13:03:45.485Z</time></trkpt><trkpt lat="40.4996083" lon="16.6859817"><ele>46.5</ele><time>2026-04-26T13:03:46.486Z</time></trkpt><trkpt lat="40.4996017" lon="16.685785"><ele>46.75</ele><time>2026-04-26T13:03:47.485Z</time></trkpt><trkpt lat="40.4996" lon="16.68559"><ele>47.0</ele><time>2026-04-26T13:03:48.485Z</time></trkpt><trkpt lat="40.4996033" lon="16.685395"><ele>46.75</ele><time>2026-04-26T13:03:49.485Z</time></trkpt><trkpt lat="40.499615" lon="16.6851983"><ele>46.5</ele><time>2026-04-26T13:03:50.486Z</time></trkpt><trkpt lat="40.4996317" lon="16.6850033"><ele>46.25</ele><time>2026-04-26T13:03:51.485Z</time></trkpt><trkpt lat="40.4996533" lon="16.68481"><ele>46.0</ele><time>2026-04-26T13:03:52.485Z</time></trkpt><trkpt lat="40.4996783" lon="16.6846167"><ele>45.66666666666667</ele><time>2026-04-26T13:03:53.485Z</time></trkpt><trkpt lat="40.4997017" lon="16.6844217"><ele>45.333333333333336</ele><time>2026-04-26T13:03:54.486Z</time></trkpt><trkpt lat="40.4997267" lon="16.684225"><ele>45.0</ele><time>2026-04-26T13:03:55.485Z</time></trkpt><trkpt lat="40.49975" lon="16.684025"><ele>45.0</ele><time>2026-04-26T13:03:56.486Z</time></trkpt><trkpt lat="40.49977" lon="16.6838233"><ele>45.0</ele><time>2026-04-26T13:03:57.485Z</time></trkpt><trkpt lat="40.4997867" lon="16.68362"><ele>45.0</ele><time>2026-04-26T13:03:58.484Z</time></trkpt><trkpt lat="40.4998" lon="16.6834183"><ele>44.333333333333336</ele><time>2026-04-26T13:03:59.485Z</time></trkpt><trkpt lat="40.4998133" lon="16.683215"><ele>43.66666666666667</ele><time>2026-04-26T13:04:00.485Z</time></trkpt><trkpt lat="40.4998267" lon="16.6830133"><ele>43.0</ele><time>2026-04-26T13:04:01.486Z</time></trkpt><trkpt lat="40.4998383" lon="16.6828117"><ele>43.0</ele><time>2026-04-26T13:04:02.486Z</time></trkpt><trkpt lat="40.4998467" lon="16.6826117"><ele>43.0</ele><time>2026-04-26T13:04:03.485Z</time></trkpt><trkpt lat="40.4998567" lon="16.68241"><ele>43.0</ele><time>2026-04-26T13:04:04.485Z</time></trkpt><trkpt lat="40.4998667" lon="16.6822083"><ele>43.0</ele><time>2026-04-26T13:04:05.487Z</time></trkpt><trkpt lat="40.499875" lon="16.6820067"><ele>43.0</ele><time>2026-04-26T13:04:06.485Z</time></trkpt><trkpt lat="40.4998817" lon="16.6818067"><ele>43.0</ele><time>2026-04-26T13:04:07.485Z</time></trkpt><trkpt lat="40.4998883" lon="16.6816067"><ele>42.75</ele><time>2026-04-26T13:04:08.487Z</time></trkpt><trkpt lat="40.499895" lon="16.6814083"><ele>42.5</ele><time>2026-04-26T13:04:09.485Z</time></trkpt><trkpt lat="40.4999033" lon="16.681215"><ele>42.25</ele><time>2026-04-26T13:04:10.485Z</time></trkpt><trkpt lat="40.4999117" lon="16.6810317"><ele>42.0</ele><time>2026-04-26T13:04:11.487Z</time></trkpt><trkpt lat="40.49992" lon="16.6808633"><ele>42.0</ele><time>2026-04-26T13:04:12.485Z</time></trkpt><trkpt lat="40.49993" lon="16.6807067"><ele>42.0</ele><time>2026-04-26T13:04:13.485Z</time></trkpt><trkpt lat="40.4999367" lon="16.680565"><ele>42.0</ele><time>2026-04-26T13:04:14.486Z</time></trkpt><trkpt lat="40.4999433" lon="16.6804383"><ele>42.0</ele><time>2026-04-26T13:04:15.485Z</time></trkpt><trkpt lat="40.4999467" lon="16.68033"><ele>42.0</ele><time>2026-04-26T13:04:16.485Z</time></trkpt><trkpt lat="40.4999433" lon="16.6802367"><ele>41.75</ele><time>2026-04-26T13:04:17.486Z</time></trkpt><trkpt lat="40.4998867" lon="16.6801167"><ele>41.5</ele><time>2026-04-26T13:04:19.485Z</time></trkpt><trkpt lat="40.499745" lon="16.6801517"><ele>41.25</ele><time>2026-04-26T13:04:21.486Z</time></trkpt><trkpt lat="40.4996533" lon="16.6802217"><ele>41.0</ele><time>2026-04-26T13:04:22.485Z</time></trkpt><trkpt lat="40.4995467" lon="16.680305"><ele>41.0</ele><time>2026-04-26T13:04:23.487Z</time></trkpt><trkpt lat="40.49943" lon="16.6803933"><ele>41.0</ele><time>2026-04-26T13:04:24.485Z</time></trkpt><trkpt lat="40.499315" lon="16.6804767"><ele>41.0</ele><time>2026-04-26T13:04:25.485Z</time></trkpt><trkpt lat="40.4992017" lon="16.680555"><ele>41.0</ele><time>2026-04-26T13:04:26.487Z</time></trkpt><trkpt lat="40.4990883" lon="16.6806333"><ele>41.0</ele><time>2026-04-26T13:04:27.488Z</time></trkpt><trkpt lat="40.498975" lon="16.680715"><ele>41.0</ele><time>2026-04-26T13:04:28.487Z</time></trkpt><trkpt lat="40.4988617" lon="16.6807983"><ele>41.0</ele><time>2026-04-26T13:04:29.485Z</time></trkpt><trkpt lat="40.4987483" lon="16.6808817"><ele>41.0</ele><time>2026-04-26T13:04:30.485Z</time></trkpt><trkpt lat="40.4986383" lon="16.6809633"><ele>41.25</ele><time>2026-04-26T13:04:31.485Z</time></trkpt><trkpt lat="40.4985333" lon="16.6810467"><ele>41.5</ele><time>2026-04-26T13:04:32.486Z</time></trkpt><trkpt lat="40.498425" lon="16.6811283"><ele>41.75</ele><time>2026-04-26T13:04:33.485Z</time></trkpt><trkpt lat="40.49831" lon="16.681205"><ele>42.0</ele><time>2026-04-26T13:04:34.485Z</time></trkpt><trkpt lat="40.49819" lon="16.681285"><ele>42.0</ele><time>2026-04-26T13:04:35.485Z</time></trkpt><trkpt lat="40.4980667" lon="16.6813683"><ele>42.0</ele><time>2026-04-26T13:04:36.485Z</time></trkpt><trkpt lat="40.497945" lon="16.681455"><ele>42.0</ele><time>2026-04-26T13:04:37.486Z</time></trkpt><trkpt lat="40.4978233" lon="16.68154"><ele>42.0</ele><time>2026-04-26T13:04:38.485Z</time></trkpt><trkpt lat="40.4977017" lon="16.6816233"><ele>42.25</ele><time>2026-04-26T13:04:39.485Z</time></trkpt><trkpt lat="40.4975833" lon="16.6817083"><ele>42.5</ele><time>2026-04-26T13:04:40.485Z</time></trkpt><trkpt lat="40.497475" lon="16.6817867"><ele>42.75</ele><time>2026-04-26T13:04:41.485Z</time></trkpt><trkpt lat="40.4973733" lon="16.6818567"><ele>43.0</ele><time>2026-04-26T13:04:42.485Z</time></trkpt><trkpt lat="40.4972767" lon="16.68192"><ele>43.0</ele><time>2026-04-26T13:04:43.485Z</time></trkpt><trkpt lat="40.4971817" lon="16.681985"><ele>43.0</ele><time>2026-04-26T13:04:44.486Z</time></trkpt><trkpt lat="40.4970833" lon="16.6820533"><ele>43.0</ele><time>2026-04-26T13:04:45.485Z</time></trkpt><trkpt lat="40.4969783" lon="16.682125"><ele>43.0</ele><time>2026-04-26T13:04:46.485Z</time></trkpt><trkpt lat="40.4968717" lon="16.6822"><ele>42.75</ele><time>2026-04-26T13:04:47.486Z</time></trkpt><trkpt lat="40.4967683" lon="16.6822783"><ele>42.5</ele><time>2026-04-26T13:04:48.486Z</time></trkpt><trkpt lat="40.4966633" lon="16.6823633"><ele>42.25</ele><time>2026-04-26T13:04:49.485Z</time></trkpt><trkpt lat="40.4965583" lon="16.6824633"><ele>42.0</ele><time>2026-04-26T13:04:50.485Z</time></trkpt><trkpt lat="40.496455" lon="16.68258"><ele>42.0</ele><time>2026-04-26T13:04:51.485Z</time></trkpt><trkpt lat="40.4963533" lon="16.6827033"><ele>42.0</ele><time>2026-04-26T13:04:52.485Z</time></trkpt><trkpt lat="40.4962483" lon="16.6828233"><ele>42.0</ele><time>2026-04-26T13:04:53.485Z</time></trkpt><trkpt lat="40.4961383" lon="16.6829383"><ele>42.0</ele><time>2026-04-26T13:04:54.485Z</time></trkpt><trkpt lat="40.496025" lon="16.68305"><ele>39.25</ele><time>2026-04-26T13:04:55.49Z</time></trkpt><trkpt lat="40.49591" lon="16.6831567"><ele>36.5</ele><time>2026-04-26T13:04:56.49Z</time></trkpt><trkpt lat="40.4957933" lon="16.6832633"><ele>33.75</ele><time>2026-04-26T13:04:57.486Z</time></trkpt><trkpt lat="40.4956767" lon="16.68337"><ele>31.0</ele><time>2026-04-26T13:04:58.49Z</time></trkpt><trkpt lat="40.49556" lon="16.6834817"><ele>31.0</ele><time>2026-04-26T13:04:59.49Z</time></trkpt><trkpt lat="40.495445" lon="16.683595"><ele>31.0</ele><time>2026-04-26T13:05:00.486Z</time></trkpt><trkpt lat="40.4953333" lon="16.6837067"><ele>31.0</ele><time>2026-04-26T13:05:01.487Z</time></trkpt><trkpt lat="40.495225" lon="16.6838117"><ele>31.0</ele><time>2026-04-26T13:05:02.487Z</time></trkpt><trkpt lat="40.495115" lon="16.6839067"><ele>33.0</ele><time>2026-04-26T13:05:03.485Z</time></trkpt><trkpt lat="40.4949983" lon="16.6839833"><ele>35.0</ele><time>2026-04-26T13:05:04.485Z</time></trkpt><trkpt lat="40.494875" lon="16.68405"><ele>37.0</ele><time>2026-04-26T13:05:05.485Z</time></trkpt><trkpt lat="40.4947567" lon="16.6841167"><ele>39.0</ele><time>2026-04-26T13:05:06.485Z</time></trkpt><trkpt lat="40.4946467" lon="16.6841917"><ele>39.25</ele><time>2026-04-26T13:05:07.486Z</time></trkpt><trkpt lat="40.494545" lon="16.68428"><ele>39.5</ele><time>2026-04-26T13:05:08.486Z</time></trkpt><trkpt lat="40.49444" lon="16.6843817"><ele>39.75</ele><time>2026-04-26T13:05:09.485Z</time></trkpt><trkpt lat="40.4943317" lon="16.6844933"><ele>40.0</ele><time>2026-04-26T13:05:10.485Z</time></trkpt><trkpt lat="40.4942167" lon="16.68461"><ele>40.0</ele><time>2026-04-26T13:05:11.485Z</time></trkpt><trkpt lat="40.4941" lon="16.6847283"><ele>40.0</ele><time>2026-04-26T13:05:12.486Z</time></trkpt><trkpt lat="40.4939817" lon="16.6848483"><ele>40.0</ele><time>2026-04-26T13:05:13.489Z</time></trkpt><trkpt lat="40.4938617" lon="16.6849667"><ele>40.0</ele><time>2026-04-26T13:05:14.487Z</time></trkpt><trkpt lat="40.4936233" lon="16.685195"><ele>39.66666666666667</ele><time>2026-04-26T13:05:16.486Z</time></trkpt><trkpt lat="40.4935017" lon="16.6853083"><ele>39.333333333333336</ele><time>2026-04-26T13:05:17.485Z</time></trkpt><trkpt lat="40.4933817" lon="16.6854233"><ele>39.0</ele><time>2026-04-26T13:05:18.485Z</time></trkpt><trkpt lat="40.4931533" lon="16.68565"><ele>39.0</ele><time>2026-04-26T13:05:20.487Z</time></trkpt><trkpt lat="40.4930383" lon="16.6857583"><ele>39.0</ele><time>2026-04-26T13:05:21.485Z</time></trkpt><trkpt lat="40.492925" lon="16.6858667"><ele>39.0</ele><time>2026-04-26T13:05:22.487Z</time></trkpt><trkpt lat="40.4928117" lon="16.6859717"><ele>39.0</ele><time>2026-04-26T13:05:23.484Z</time></trkpt><trkpt lat="40.4927" lon="16.686075"><ele>39.0</ele><time>2026-04-26T13:05:24.485Z</time></trkpt><trkpt lat="40.4925867" lon="16.6861817"><ele>39.0</ele><time>2026-04-26T13:05:25.486Z</time></trkpt><trkpt lat="40.4924733" lon="16.6862867"><ele>39.0</ele><time>2026-04-26T13:05:26.486Z</time></trkpt><trkpt lat="40.4923617" lon="16.686395"><ele>39.0</ele><time>2026-04-26T13:05:27.485Z</time></trkpt><trkpt lat="40.4922483" lon="16.6865033"><ele>39.0</ele><time>2026-04-26T13:05:28.486Z</time></trkpt><trkpt lat="40.492135" lon="16.686615"><ele>39.0</ele><time>2026-04-26T13:05:29.485Z</time></trkpt><trkpt lat="40.4920183" lon="16.6867233"><ele>39.0</ele><time>2026-04-26T13:05:30.486Z</time></trkpt><trkpt lat="40.4919033" lon="16.6868317"><ele>39.0</ele><time>2026-04-26T13:05:31.486Z</time></trkpt><trkpt lat="40.4917917" lon="16.6869417"><ele>38.75</ele><time>2026-04-26T13:05:32.486Z</time></trkpt><trkpt lat="40.4916767" lon="16.6870517"><ele>38.5</ele><time>2026-04-26T13:05:33.487Z</time></trkpt><trkpt lat="40.4915583" lon="16.6871617"><ele>38.25</ele><time>2026-04-26T13:05:34.485Z</time></trkpt><trkpt lat="40.4914417" lon="16.6872717"><ele>38.0</ele><time>2026-04-26T13:05:35.487Z</time></trkpt><trkpt lat="40.491325" lon="16.6873833"><ele>38.0</ele><time>2026-04-26T13:05:36.486Z</time></trkpt><trkpt lat="40.4912083" lon="16.687495"><ele>38.0</ele><time>2026-04-26T13:05:37.487Z</time></trkpt><trkpt lat="40.4910917" lon="16.6876067"><ele>38.0</ele><time>2026-04-26T13:05:38.486Z</time></trkpt><trkpt lat="40.490975" lon="16.68772"><ele>38.0</ele><time>2026-04-26T13:05:39.486Z</time></trkpt><trkpt lat="40.49086" lon="16.6878317"><ele>38.0</ele><time>2026-04-26T13:05:40.486Z</time></trkpt><trkpt lat="40.4907467" lon="16.6879417"><ele>38.0</ele><time>2026-04-26T13:05:41.489Z</time></trkpt><trkpt lat="40.490635" lon="16.6880467"><ele>38.0</ele><time>2026-04-26T13:05:42.485Z</time></trkpt><trkpt lat="40.49053" lon="16.6881467"><ele>38.0</ele><time>2026-04-26T13:05:43.485Z</time></trkpt><trkpt lat="40.4904333" lon="16.68824"><ele>38.199999999999996</ele><time>2026-04-26T13:05:44.487Z</time></trkpt><trkpt lat="40.4903467" lon="16.688325"><ele>38.4</ele><time>2026-04-26T13:05:45.49Z</time></trkpt><trkpt lat="40.4902667" lon="16.6884017"><ele>38.599999999999994</ele><time>2026-04-26T13:05:46.485Z</time></trkpt><trkpt lat="40.4901967" lon="16.6884733"><ele>38.8</ele><time>2026-04-26T13:05:47.485Z</time></trkpt><trkpt lat="40.4901383" lon="16.6885317"><ele>39.0</ele><time>2026-04-26T13:05:48.486Z</time></trkpt><trkpt lat="40.490055" lon="16.6885517"><ele>39.0</ele><time>2026-04-26T13:05:50.486Z</time></trkpt><trkpt lat="40.4900233" lon="16.6884617"><ele>39.0</ele><time>2026-04-26T13:05:52.487Z</time></trkpt><trkpt lat="40.490045" lon="16.6882983"><ele>39.0</ele><time>2026-04-26T13:05:54.485Z</time></trkpt><trkpt lat="40.4900617" lon="16.6881967"><ele>39.0</ele><time>2026-04-26T13:05:55.487Z</time></trkpt><trkpt lat="40.4900767" lon="16.68808"><ele>39.0</ele><time>2026-04-26T13:05:56.486Z</time></trkpt><trkpt lat="40.4900933" lon="16.687955"><ele>39.0</ele><time>2026-04-26T13:05:57.486Z</time></trkpt><trkpt lat="40.4901083" lon="16.6878283"><ele>39.0</ele><time>2026-04-26T13:05:58.486Z</time></trkpt><trkpt lat="40.4901233" lon="16.6876967"><ele>39.0</ele><time>2026-04-26T13:05:59.485Z</time></trkpt><trkpt lat="40.49014" lon="16.687565"><ele>39.0</ele><time>2026-04-26T13:06:00.486Z</time></trkpt><trkpt lat="40.4901533" lon="16.687435"><ele>39.0</ele><time>2026-04-26T13:06:01.489Z</time></trkpt><trkpt lat="40.4901633" lon="16.687305"><ele>39.0</ele><time>2026-04-26T13:06:02.487Z</time></trkpt><trkpt lat="40.490175" lon="16.6871767"><ele>39.0</ele><time>2026-04-26T13:06:03.486Z</time></trkpt><trkpt lat="40.49019" lon="16.6870533"><ele>39.0</ele><time>2026-04-26T13:06:04.486Z</time></trkpt><trkpt lat="40.490205" lon="16.6869317"><ele>39.0</ele><time>2026-04-26T13:06:05.486Z</time></trkpt><trkpt lat="40.49022" lon="16.6868067"><ele>39.0</ele><time>2026-04-26T13:06:06.485Z</time></trkpt><trkpt lat="40.4902283" lon="16.6866767"><ele>39.0</ele><time>2026-04-26T13:06:07.488Z</time></trkpt><trkpt lat="40.4902383" lon="16.6865417"><ele>39.0</ele><time>2026-04-26T13:06:08.486Z</time></trkpt><trkpt lat="40.4902517" lon="16.686405"><ele>39.0</ele><time>2026-04-26T13:06:09.487Z</time></trkpt><trkpt lat="40.4902633" lon="16.6862633"><ele>39.0</ele><time>2026-04-26T13:06:10.486Z</time></trkpt><trkpt lat="40.4902733" lon="16.6861217"><ele>39.0</ele><time>2026-04-26T13:06:11.486Z</time></trkpt><trkpt lat="40.4902883" lon="16.6859833"><ele>38.6</ele><time>2026-04-26T13:06:12.487Z</time></trkpt><trkpt lat="40.490305" lon="16.685845"><ele>38.2</ele><time>2026-04-26T13:06:13.486Z</time></trkpt><trkpt lat="40.4903233" lon="16.6857033"><ele>37.800000000000004</ele><time>2026-04-26T13:06:14.487Z</time></trkpt><trkpt lat="40.49034" lon="16.6855633"><ele>37.4</ele><time>2026-04-26T13:06:15.485Z</time></trkpt><trkpt lat="40.49036" lon="16.68542"><ele>37.0</ele><time>2026-04-26T13:06:16.487Z</time></trkpt><trkpt lat="40.4903767" lon="16.685275"><ele>37.2</ele><time>2026-04-26T13:06:17.485Z</time></trkpt><trkpt lat="40.4903933" lon="16.68513"><ele>37.400000000000006</ele><time>2026-04-26T13:06:18.485Z</time></trkpt><trkpt lat="40.49041" lon="16.6849867"><ele>37.599999999999994</ele><time>2026-04-26T13:06:19.485Z</time></trkpt><trkpt lat="40.4904233" lon="16.6848433"><ele>37.8</ele><time>2026-04-26T13:06:20.486Z</time></trkpt><trkpt lat="40.4904367" lon="16.6847033"><ele>38.0</ele><time>2026-04-26T13:06:21.485Z</time></trkpt><trkpt lat="40.4904533" lon="16.6845583"><ele>38.199999999999996</ele><time>2026-04-26T13:06:22.485Z</time></trkpt><trkpt lat="40.4904733" lon="16.6844133"><ele>38.4</ele><time>2026-04-26T13:06:23.484Z</time></trkpt><trkpt lat="40.4904917" lon="16.68427"><ele>38.599999999999994</ele><time>2026-04-26T13:06:24.485Z</time></trkpt><trkpt lat="40.4905067" lon="16.684125"><ele>38.8</ele><time>2026-04-26T13:06:25.487Z</time></trkpt><trkpt lat="40.49052" lon="16.6839783"><ele>39.0</ele><time>2026-04-26T13:06:26.486Z</time></trkpt><trkpt lat="40.49053" lon="16.6838333"><ele>39.0</ele><time>2026-04-26T13:06:27.485Z</time></trkpt><trkpt lat="40.4905433" lon="16.6836917"><ele>39.0</ele><time>2026-04-26T13:06:28.486Z</time></trkpt><trkpt lat="40.4905583" lon="16.6835517"><ele>39.0</ele><time>2026-04-26T13:06:29.486Z</time></trkpt><trkpt lat="40.490575" lon="16.6834117"><ele>39.0</ele><time>2026-04-26T13:06:30.486Z</time></trkpt><trkpt lat="40.4905917" lon="16.6832733"><ele>39.0</ele><time>2026-04-26T13:06:31.486Z</time></trkpt><trkpt lat="40.4906117" lon="16.6831333"><ele>39.0</ele><time>2026-04-26T13:06:32.486Z</time></trkpt><trkpt lat="40.49063" lon="16.6829917"><ele>39.0</ele><time>2026-04-26T13:06:33.487Z</time></trkpt><trkpt lat="40.490645" lon="16.6828483"><ele>39.0</ele><time>2026-04-26T13:06:34.486Z</time></trkpt><trkpt lat="40.4906583" lon="16.6827033"><ele>39.0</ele><time>2026-04-26T13:06:35.487Z</time></trkpt><trkpt lat="40.4906717" lon="16.6825567"><ele>39.0</ele><time>2026-04-26T13:06:36.486Z</time></trkpt><trkpt lat="40.4906867" lon="16.6824133"><ele>39.0</ele><time>2026-04-26T13:06:37.486Z</time></trkpt><trkpt lat="40.4907017" lon="16.6822667"><ele>39.0</ele><time>2026-04-26T13:06:38.486Z</time></trkpt><trkpt lat="40.490715" lon="16.68212"><ele>39.0</ele><time>2026-04-26T13:06:39.486Z</time></trkpt><trkpt lat="40.4907267" lon="16.6819733"><ele>39.0</ele><time>2026-04-26T13:06:40.487Z</time></trkpt><trkpt lat="40.4907417" lon="16.6818267"><ele>39.6</ele><time>2026-04-26T13:06:41.485Z</time></trkpt><trkpt lat="40.4907583" lon="16.68168"><ele>40.2</ele><time>2026-04-26T13:06:42.485Z</time></trkpt><trkpt lat="40.490775" lon="16.681535"><ele>40.800000000000004</ele><time>2026-04-26T13:06:43.488Z</time></trkpt><trkpt lat="40.4907917" lon="16.6813883"><ele>41.4</ele><time>2026-04-26T13:06:44.486Z</time></trkpt><trkpt lat="40.49081" lon="16.6812433"><ele>42.0</ele><time>2026-04-26T13:06:45.486Z</time></trkpt><trkpt lat="40.4908267" lon="16.6811017"><ele>42.0</ele><time>2026-04-26T13:06:46.486Z</time></trkpt><trkpt lat="40.4908417" lon="16.6809583"><ele>42.0</ele><time>2026-04-26T13:06:47.486Z</time></trkpt><trkpt lat="40.4908583" lon="16.680815"><ele>42.0</ele><time>2026-04-26T13:06:48.485Z</time></trkpt><trkpt lat="40.490875" lon="16.6806717"><ele>42.0</ele><time>2026-04-26T13:06:49.486Z</time></trkpt><trkpt lat="40.490895" lon="16.6805333"><ele>42.0</ele><time>2026-04-26T13:06:50.486Z</time></trkpt><trkpt lat="40.4909117" lon="16.6803983"><ele>42.0</ele><time>2026-04-26T13:06:51.486Z</time></trkpt><trkpt lat="40.4909267" lon="16.6802617"><ele>42.0</ele><time>2026-04-26T13:06:52.485Z</time></trkpt><trkpt lat="40.4909383" lon="16.6801283"><ele>42.0</ele><time>2026-04-26T13:06:53.486Z</time></trkpt><trkpt lat="40.4909483" lon="16.679995"><ele>42.0</ele><time>2026-04-26T13:06:54.485Z</time></trkpt><trkpt lat="40.49096" lon="16.6798617"><ele>42.0</ele><time>2026-04-26T13:06:55.488Z</time></trkpt><trkpt lat="40.4909717" lon="16.6797283"><ele>42.0</ele><time>2026-04-26T13:06:56.488Z</time></trkpt><trkpt lat="40.4909883" lon="16.6796033"><ele>42.0</ele><time>2026-04-26T13:06:57.487Z</time></trkpt><trkpt lat="40.49101" lon="16.6794883"><ele>42.0</ele><time>2026-04-26T13:06:58.486Z</time></trkpt><trkpt lat="40.49104" lon="16.67939"><ele>42.0</ele><time>2026-04-26T13:06:59.485Z</time></trkpt><trkpt lat="40.4910817" lon="16.6793167"><ele>42.0</ele><time>2026-04-26T13:07:00.486Z</time></trkpt><trkpt lat="40.491125" lon="16.67925"><ele>42.0</ele><time>2026-04-26T13:07:01.486Z</time></trkpt><trkpt lat="40.49116" lon="16.6791733"><ele>42.0</ele><time>2026-04-26T13:07:02.489Z</time></trkpt><trkpt lat="40.4911817" lon="16.6790733"><ele>42.0</ele><time>2026-04-26T13:07:03.485Z</time></trkpt><trkpt lat="40.4911983" lon="16.6789567"><ele>42.0</ele><time>2026-04-26T13:07:04.485Z</time></trkpt><trkpt lat="40.4912117" lon="16.6788433"><ele>42.0</ele><time>2026-04-26T13:07:05.485Z</time></trkpt><trkpt lat="40.4912267" lon="16.678735"><ele>42.0</ele><time>2026-04-26T13:07:06.485Z</time></trkpt><trkpt lat="40.4912417" lon="16.6786383"><ele>42.0</ele><time>2026-04-26T13:07:07.485Z</time></trkpt><trkpt lat="40.4912517" lon="16.67855"><ele>42.2</ele><time>2026-04-26T13:07:08.486Z</time></trkpt><trkpt lat="40.4912483" lon="16.6783833"><ele>42.400000000000006</ele><time>2026-04-26T13:07:10.485Z</time></trkpt><trkpt lat="40.4912517" lon="16.67828"><ele>42.599999999999994</ele><time>2026-04-26T13:07:11.484Z</time></trkpt><trkpt lat="40.491275" lon="16.6781533"><ele>42.8</ele><time>2026-04-26T13:07:12.484Z</time></trkpt><trkpt lat="40.4913033" lon="16.67803"><ele>43.0</ele><time>2026-04-26T13:07:13.484Z</time></trkpt><trkpt lat="40.4913217" lon="16.6779117"><ele>42.8</ele><time>2026-04-26T13:07:14.485Z</time></trkpt><trkpt lat="40.49133" lon="16.6777933"><ele>42.599999999999994</ele><time>2026-04-26T13:07:15.485Z</time></trkpt><trkpt lat="40.491335" lon="16.6776733"><ele>42.400000000000006</ele><time>2026-04-26T13:07:16.484Z</time></trkpt><trkpt lat="40.4913433" lon="16.6775483"><ele>42.2</ele><time>2026-04-26T13:07:17.486Z</time></trkpt><trkpt lat="40.4913617" lon="16.6774133"><ele>42.0</ele><time>2026-04-26T13:07:18.485Z</time></trkpt><trkpt lat="40.4913817" lon="16.67728"><ele>42.0</ele><time>2026-04-26T13:07:19.485Z</time></trkpt><trkpt lat="40.4914017" lon="16.6771633"><ele>42.0</ele><time>2026-04-26T13:07:20.487Z</time></trkpt><trkpt lat="40.4914217" lon="16.6770583"><ele>42.0</ele><time>2026-04-26T13:07:21.488Z</time></trkpt><trkpt lat="40.4914383" lon="16.6769583"><ele>42.0</ele><time>2026-04-26T13:07:22.485Z</time></trkpt><trkpt lat="40.4914483" lon="16.6768567"><ele>42.0</ele><time>2026-04-26T13:07:23.488Z</time></trkpt><trkpt lat="40.4914567" lon="16.676765"><ele>42.0</ele><time>2026-04-26T13:07:24.484Z</time></trkpt><trkpt lat="40.49147" lon="16.6766833"><ele>42.0</ele><time>2026-04-26T13:07:25.485Z</time></trkpt><trkpt lat="40.4915" lon="16.676605"><ele>42.0</ele><time>2026-04-26T13:07:26.485Z</time></trkpt><trkpt lat="40.4915517" lon="16.6765233"><ele>42.0</ele><time>2026-04-26T13:07:27.483Z</time></trkpt><trkpt lat="40.49162" lon="16.676445"><ele>42.0</ele><time>2026-04-26T13:07:28.485Z</time></trkpt><trkpt lat="40.4916933" lon="16.6763717"><ele>42.0</ele><time>2026-04-26T13:07:29.485Z</time></trkpt><trkpt lat="40.49177" lon="16.6763017"><ele>42.0</ele><time>2026-04-26T13:07:30.486Z</time></trkpt><trkpt lat="40.4918433" lon="16.6762233"><ele>42.0</ele><time>2026-04-26T13:07:31.488Z</time></trkpt><trkpt lat="40.49192" lon="16.6761367"><ele>42.0</ele><time>2026-04-26T13:07:32.485Z</time></trkpt><trkpt lat="40.4919933" lon="16.676045"><ele>42.0</ele><time>2026-04-26T13:07:33.485Z</time></trkpt><trkpt lat="40.4920633" lon="16.675945"><ele>42.0</ele><time>2026-04-26T13:07:34.486Z</time></trkpt><trkpt lat="40.4921317" lon="16.6758383"><ele>42.0</ele><time>2026-04-26T13:07:35.484Z</time></trkpt><trkpt lat="40.4921967" lon="16.6757333"><ele>42.0</ele><time>2026-04-26T13:07:36.485Z</time></trkpt><trkpt lat="40.4922633" lon="16.6756283"><ele>42.0</ele><time>2026-04-26T13:07:37.485Z</time></trkpt><trkpt lat="40.4923267" lon="16.6755267"><ele>42.0</ele><time>2026-04-26T13:07:38.485Z</time></trkpt><trkpt lat="40.4923867" lon="16.6754233"><ele>42.0</ele><time>2026-04-26T13:07:39.485Z</time></trkpt><trkpt lat="40.4924467" lon="16.6753167"><ele>42.0</ele><time>2026-04-26T13:07:40.484Z</time></trkpt><trkpt lat="40.4925083" lon="16.6752117"><ele>42.400000000000006</ele><time>2026-04-26T13:07:41.485Z</time></trkpt><trkpt lat="40.49257" lon="16.6751083"><ele>42.800000000000004</ele><time>2026-04-26T13:07:42.485Z</time></trkpt><trkpt lat="40.4926317" lon="16.67501"><ele>43.2</ele><time>2026-04-26T13:07:43.488Z</time></trkpt><trkpt lat="40.492695" lon="16.67491"><ele>43.6</ele><time>2026-04-26T13:07:44.486Z</time></trkpt><trkpt lat="40.4927583" lon="16.6748117"><ele>44.0</ele><time>2026-04-26T13:07:45.485Z</time></trkpt><trkpt lat="40.4928217" lon="16.6747133"><ele>44.0</ele><time>2026-04-26T13:07:46.485Z</time></trkpt><trkpt lat="40.492885" lon="16.674615"><ele>44.0</ele><time>2026-04-26T13:07:47.485Z</time></trkpt><trkpt lat="40.49295" lon="16.6745133"><ele>44.0</ele><time>2026-04-26T13:07:48.485Z</time></trkpt><trkpt lat="40.4930133" lon="16.6744083"><ele>44.0</ele><time>2026-04-26T13:07:49.486Z</time></trkpt><trkpt lat="40.4930733" lon="16.6743033"><ele>44.0</ele><time>2026-04-26T13:07:50.485Z</time></trkpt><trkpt lat="40.4931333" lon="16.6742"><ele>43.6</ele><time>2026-04-26T13:07:51.484Z</time></trkpt><trkpt lat="40.4931983" lon="16.6740983"><ele>43.2</ele><time>2026-04-26T13:07:52.486Z</time></trkpt><trkpt lat="40.493265" lon="16.6739983"><ele>42.800000000000004</ele><time>2026-04-26T13:07:53.486Z</time></trkpt><trkpt lat="40.4933283" lon="16.6739"><ele>42.400000000000006</ele><time>2026-04-26T13:07:54.485Z</time></trkpt><trkpt lat="40.493395" lon="16.6738017"><ele>42.0</ele><time>2026-04-26T13:07:55.485Z</time></trkpt><trkpt lat="40.49346" lon="16.6737017"><ele>42.2</ele><time>2026-04-26T13:07:56.485Z</time></trkpt><trkpt lat="40.4935267" lon="16.6736"><ele>42.400000000000006</ele><time>2026-04-26T13:07:57.484Z</time></trkpt><trkpt lat="40.49359" lon="16.6734983"><ele>42.599999999999994</ele><time>2026-04-26T13:07:58.485Z</time></trkpt><trkpt lat="40.4936533" lon="16.6733983"><ele>42.8</ele><time>2026-04-26T13:07:59.485Z</time></trkpt><trkpt lat="40.4937183" lon="16.6732967"><ele>43.0</ele><time>2026-04-26T13:08:00.485Z</time></trkpt><trkpt lat="40.4937833" lon="16.6731967"><ele>43.0</ele><time>2026-04-26T13:08:01.486Z</time></trkpt><trkpt lat="40.4938467" lon="16.6730967"><ele>43.0</ele><time>2026-04-26T13:08:02.486Z</time></trkpt><trkpt lat="40.4939117" lon="16.672995"><ele>43.0</ele><time>2026-04-26T13:08:03.485Z</time></trkpt><trkpt lat="40.4939733" lon="16.67289"><ele>43.0</ele><time>2026-04-26T13:08:04.485Z</time></trkpt><trkpt lat="40.4940367" lon="16.6727867"><ele>43.0</ele><time>2026-04-26T13:08:05.488Z</time></trkpt><trkpt lat="40.4941" lon="16.672685"><ele>42.8</ele><time>2026-04-26T13:08:06.485Z</time></trkpt><trkpt lat="40.4941667" lon="16.6725833"><ele>42.599999999999994</ele><time>2026-04-26T13:08:07.485Z</time></trkpt><trkpt lat="40.4942317" lon="16.6724817"><ele>42.400000000000006</ele><time>2026-04-26T13:08:08.485Z</time></trkpt><trkpt lat="40.494295" lon="16.6723817"><ele>42.2</ele><time>2026-04-26T13:08:09.485Z</time></trkpt><trkpt lat="40.4943583" lon="16.6722783"><ele>42.0</ele><time>2026-04-26T13:08:10.485Z</time></trkpt><trkpt lat="40.4944217" lon="16.6721733"><ele>42.0</ele><time>2026-04-26T13:08:11.485Z</time></trkpt><trkpt lat="40.4944867" lon="16.6720717"><ele>42.0</ele><time>2026-04-26T13:08:12.485Z</time></trkpt><trkpt lat="40.4945517" lon="16.6719733"><ele>42.0</ele><time>2026-04-26T13:08:13.485Z</time></trkpt><trkpt lat="40.494615" lon="16.6718717"><ele>42.0</ele><time>2026-04-26T13:08:14.485Z</time></trkpt><trkpt lat="40.49468" lon="16.6717683"><ele>42.0</ele><time>2026-04-26T13:08:15.485Z</time></trkpt><trkpt lat="40.4947467" lon="16.6716667"><ele>42.400000000000006</ele><time>2026-04-26T13:08:16.485Z</time></trkpt><trkpt lat="40.4948133" lon="16.6715617"><ele>42.800000000000004</ele><time>2026-04-26T13:08:17.485Z</time></trkpt><trkpt lat="40.4948767" lon="16.6714567"><ele>43.2</ele><time>2026-04-26T13:08:18.485Z</time></trkpt><trkpt lat="40.49494" lon="16.6713467"><ele>43.6</ele><time>2026-04-26T13:08:19.486Z</time></trkpt><trkpt lat="40.4950033" lon="16.67124"><ele>44.0</ele><time>2026-04-26T13:08:20.485Z</time></trkpt><trkpt lat="40.49507" lon="16.67114"><ele>44.0</ele><time>2026-04-26T13:08:21.485Z</time></trkpt><trkpt lat="40.49514" lon="16.6710417"><ele>44.0</ele><time>2026-04-26T13:08:22.486Z</time></trkpt><trkpt lat="40.49521" lon="16.67094"><ele>44.0</ele><time>2026-04-26T13:08:23.485Z</time></trkpt><trkpt lat="40.4952767" lon="16.6708383"><ele>44.0</ele><time>2026-04-26T13:08:24.484Z</time></trkpt><trkpt lat="40.49534" lon="16.670735"><ele>44.0</ele><time>2026-04-26T13:08:25.485Z</time></trkpt><trkpt lat="40.4954017" lon="16.67063"><ele>44.0</ele><time>2026-04-26T13:08:26.487Z</time></trkpt><trkpt lat="40.495465" lon="16.670525"><ele>44.0</ele><time>2026-04-26T13:08:27.485Z</time></trkpt><trkpt lat="40.4955283" lon="16.6704267"><ele>44.0</ele><time>2026-04-26T13:08:28.485Z</time></trkpt><trkpt lat="40.4955883" lon="16.670335"><ele>44.0</ele><time>2026-04-26T13:08:29.485Z</time></trkpt><trkpt lat="40.495645" lon="16.67025"><ele>44.0</ele><time>2026-04-26T13:08:30.485Z</time></trkpt><trkpt lat="40.4957017" lon="16.67016"><ele>44.0</ele><time>2026-04-26T13:08:31.485Z</time></trkpt><trkpt lat="40.4957617" lon="16.67007"><ele>44.0</ele><time>2026-04-26T13:08:32.486Z</time></trkpt><trkpt lat="40.495805" lon="16.67"><ele>44.0</ele><time>2026-04-26T13:08:33.486Z</time></trkpt><trkpt lat="40.4958583" lon="16.6699083"><ele>44.0</ele><time>2026-04-26T13:08:35.485Z</time></trkpt><trkpt lat="40.4959217" lon="16.6698133"><ele>44.0</ele><time>2026-04-26T13:08:37.485Z</time></trkpt><trkpt lat="40.4959983" lon="16.6696817"><ele>44.0</ele><time>2026-04-26T13:08:39.485Z</time></trkpt><trkpt lat="40.4960467" lon="16.6696067"><ele>44.0</ele><time>2026-04-26T13:08:40.486Z</time></trkpt><trkpt lat="40.4960967" lon="16.6695233"><ele>44.0</ele><time>2026-04-26T13:08:41.49Z</time></trkpt><trkpt lat="40.496145" lon="16.6694417"><ele>44.0</ele><time>2026-04-26T13:08:42.485Z</time></trkpt><trkpt lat="40.4961933" lon="16.6693633"><ele>44.0</ele><time>2026-04-26T13:08:43.485Z</time></trkpt><trkpt lat="40.4962433" lon="16.66929"><ele>44.0</ele><time>2026-04-26T13:08:44.485Z</time></trkpt><trkpt lat="40.4962967" lon="16.6692133"><ele>44.0</ele><time>2026-04-26T13:08:45.485Z</time></trkpt><trkpt lat="40.4963467" lon="16.6691333"><ele>44.0</ele><time>2026-04-26T13:08:46.485Z</time></trkpt><trkpt lat="40.4963917" lon="16.6690567"><ele>44.0</ele><time>2026-04-26T13:08:47.485Z</time></trkpt><trkpt lat="40.49644" lon="16.6689783"><ele>44.0</ele><time>2026-04-26T13:08:48.488Z</time></trkpt><trkpt lat="40.4964917" lon="16.6689"><ele>44.0</ele><time>2026-04-26T13:08:49.485Z</time></trkpt><trkpt lat="40.4965433" lon="16.66882"><ele>44.0</ele><time>2026-04-26T13:08:50.485Z</time></trkpt><trkpt lat="40.4965933" lon="16.6687367"><ele>44.0</ele><time>2026-04-26T13:08:51.485Z</time></trkpt><trkpt lat="40.49664" lon="16.6686517"><ele>44.0</ele><time>2026-04-26T13:08:52.485Z</time></trkpt><trkpt lat="40.496685" lon="16.6685717"><ele>44.0</ele><time>2026-04-26T13:08:53.485Z</time></trkpt><trkpt lat="40.4967317" lon="16.668495"><ele>44.0</ele><time>2026-04-26T13:08:54.485Z</time></trkpt><trkpt lat="40.496775" lon="16.6684217"><ele>44.0</ele><time>2026-04-26T13:08:55.485Z</time></trkpt><trkpt lat="40.4968233" lon="16.6683467"><ele>44.0</ele><time>2026-04-26T13:08:56.486Z</time></trkpt><trkpt lat="40.4968717" lon="16.6682733"><ele>44.0</ele><time>2026-04-26T13:08:57.485Z</time></trkpt><trkpt lat="40.4969183" lon="16.6681983"><ele>44.0</ele><time>2026-04-26T13:08:58.485Z</time></trkpt><trkpt lat="40.496965" lon="16.6681233"><ele>44.0</ele><time>2026-04-26T13:08:59.487Z</time></trkpt><trkpt lat="40.49701" lon="16.6680517"><ele>44.0</ele><time>2026-04-26T13:09:00.485Z</time></trkpt><trkpt lat="40.4970533" lon="16.6679883"><ele>44.0</ele><time>2026-04-26T13:09:01.486Z</time></trkpt><trkpt lat="40.4971283" lon="16.6678733"><ele>44.0</ele><time>2026-04-26T13:09:03.486Z</time></trkpt><trkpt lat="40.4971967" lon="16.6677533"><ele>44.0</ele><time>2026-04-26T13:09:05.485Z</time></trkpt><trkpt lat="40.4972417" lon="16.6676783"><ele>44.0</ele><time>2026-04-26T13:09:06.484Z</time></trkpt><trkpt lat="40.4972967" lon="16.66759"><ele>44.0</ele><time>2026-04-26T13:09:07.485Z</time></trkpt><trkpt lat="40.497355" lon="16.6674967"><ele>44.0</ele><time>2026-04-26T13:09:08.485Z</time></trkpt><trkpt lat="40.4974117" lon="16.6674067"><ele>44.0</ele><time>2026-04-26T13:09:09.485Z</time></trkpt><trkpt lat="40.49747" lon="16.6673167"><ele>44.0</ele><time>2026-04-26T13:09:10.485Z</time></trkpt><trkpt lat="40.4975283" lon="16.6672317"><ele>44.0</ele><time>2026-04-26T13:09:11.485Z</time></trkpt><trkpt lat="40.497585" lon="16.6671483"><ele>44.0</ele><time>2026-04-26T13:09:12.485Z</time></trkpt><trkpt lat="40.4976417" lon="16.66706"><ele>44.0</ele><time>2026-04-26T13:09:13.485Z</time></trkpt><trkpt lat="40.4976983" lon="16.6669717"><ele>44.0</ele><time>2026-04-26T13:09:14.485Z</time></trkpt><trkpt lat="40.4977533" lon="16.66688"><ele>44.0</ele><time>2026-04-26T13:09:15.485Z</time></trkpt><trkpt lat="40.49781" lon="16.6667883"><ele>44.0</ele><time>2026-04-26T13:09:16.486Z</time></trkpt><trkpt lat="40.4978667" lon="16.6666983"><ele>44.0</ele><time>2026-04-26T13:09:17.485Z</time></trkpt><trkpt lat="40.497925" lon="16.66661"><ele>44.0</ele><time>2026-04-26T13:09:18.485Z</time></trkpt><trkpt lat="40.4979833" lon="16.66652"><ele>44.0</ele><time>2026-04-26T13:09:19.487Z</time></trkpt><trkpt lat="40.4980417" lon="16.6664367"><ele>44.0</ele><time>2026-04-26T13:09:20.486Z</time></trkpt><trkpt lat="40.4980983" lon="16.66635"><ele>44.0</ele><time>2026-04-26T13:09:21.485Z</time></trkpt><trkpt lat="40.4981517" lon="16.6662567"><ele>44.0</ele><time>2026-04-26T13:09:22.486Z</time></trkpt><trkpt lat="40.4982083" lon="16.6661667"><ele>44.0</ele><time>2026-04-26T13:09:23.485Z</time></trkpt><trkpt lat="40.498265" lon="16.6660783"><ele>44.400000000000006</ele><time>2026-04-26T13:09:24.486Z</time></trkpt><trkpt lat="40.498325" lon="16.66599"><ele>44.8</ele><time>2026-04-26T13:09:25.485Z</time></trkpt><trkpt lat="40.498385" lon="16.6659033"><ele>45.2</ele><time>2026-04-26T13:09:26.486Z</time></trkpt><trkpt lat="40.4984417" lon="16.6658133"><ele>45.599999999999994</ele><time>2026-04-26T13:09:27.485Z</time></trkpt><trkpt lat="40.4984983" lon="16.6657217"><ele>46.0</ele><time>2026-04-26T13:09:28.484Z</time></trkpt><trkpt lat="40.498555" lon="16.6656267"><ele>46.0</ele><time>2026-04-26T13:09:29.485Z</time></trkpt><trkpt lat="40.49861" lon="16.6655367"><ele>46.0</ele><time>2026-04-26T13:09:30.485Z</time></trkpt><trkpt lat="40.49867" lon="16.6654467"><ele>46.0</ele><time>2026-04-26T13:09:31.486Z</time></trkpt><trkpt lat="40.49873" lon="16.6653483"><ele>46.0</ele><time>2026-04-26T13:09:32.486Z</time></trkpt><trkpt lat="40.49879" lon="16.6652483"><ele>46.0</ele><time>2026-04-26T13:09:33.486Z</time></trkpt><trkpt lat="40.49885" lon="16.6651533"><ele>45.4</ele><time>2026-04-26T13:09:34.485Z</time></trkpt><trkpt lat="40.49891" lon="16.66506"><ele>44.8</ele><time>2026-04-26T13:09:35.485Z</time></trkpt><trkpt lat="40.49897" lon="16.6649667"><ele>44.199999999999996</ele><time>2026-04-26T13:09:36.485Z</time></trkpt><trkpt lat="40.4990283" lon="16.6648733"><ele>43.599999999999994</ele><time>2026-04-26T13:09:37.485Z</time></trkpt><trkpt lat="40.4990883" lon="16.66478"><ele>43.0</ele><time>2026-04-26T13:09:38.486Z</time></trkpt><trkpt lat="40.4991533" lon="16.664685"><ele>43.0</ele><time>2026-04-26T13:09:39.486Z</time></trkpt><trkpt lat="40.4992117" lon="16.66459"><ele>43.0</ele><time>2026-04-26T13:09:40.486Z</time></trkpt><trkpt lat="40.49927" lon="16.6644967"><ele>43.0</ele><time>2026-04-26T13:09:41.485Z</time></trkpt><trkpt lat="40.499325" lon="16.6644117"><ele>43.0</ele><time>2026-04-26T13:09:42.485Z</time></trkpt><trkpt lat="40.4993783" lon="16.6643317"><ele>43.0</ele><time>2026-04-26T13:09:43.485Z</time></trkpt><trkpt lat="40.499435" lon="16.6642483"><ele>43.0</ele><time>2026-04-26T13:09:44.486Z</time></trkpt><trkpt lat="40.4994917" lon="16.664165"><ele>43.16666666666667</ele><time>2026-04-26T13:09:45.486Z</time></trkpt><trkpt lat="40.4995433" lon="16.6640817"><ele>43.333333333333336</ele><time>2026-04-26T13:09:46.485Z</time></trkpt><trkpt lat="40.49959" lon="16.664005"><ele>43.5</ele><time>2026-04-26T13:09:47.485Z</time></trkpt><trkpt lat="40.4996367" lon="16.6639333"><ele>43.666666666666664</ele><time>2026-04-26T13:09:48.485Z</time></trkpt><trkpt lat="40.4996783" lon="16.6638667"><ele>43.83333333333333</ele><time>2026-04-26T13:09:49.485Z</time></trkpt><trkpt lat="40.49974" lon="16.66375"><ele>44.0</ele><time>2026-04-26T13:09:51.485Z</time></trkpt><trkpt lat="40.4997517" lon="16.663655"><ele>44.166666666666664</ele><time>2026-04-26T13:09:53.484Z</time></trkpt><trkpt lat="40.499705" lon="16.66357"><ele>44.33333333333333</ele><time>2026-04-26T13:09:55.485Z</time></trkpt><trkpt lat="40.499625" lon="16.6634717"><ele>44.5</ele><time>2026-04-26T13:09:57.486Z</time></trkpt><trkpt lat="40.4995733" lon="16.663405"><ele>44.666666666666664</ele><time>2026-04-26T13:09:58.485Z</time></trkpt><trkpt lat="40.49952" lon="16.6633183"><ele>44.833333333333336</ele><time>2026-04-26T13:09:59.485Z</time></trkpt><trkpt lat="40.4994567" lon="16.6632183"><ele>45.0</ele><time>2026-04-26T13:10:00.485Z</time></trkpt><trkpt lat="40.49938" lon="16.6631"><ele>45.0</ele><time>2026-04-26T13:10:01.485Z</time></trkpt><trkpt lat="40.4992983" lon="16.6629717"><ele>45.0</ele><time>2026-04-26T13:10:02.486Z</time></trkpt><trkpt lat="40.4992233" lon="16.6628567"><ele>45.0</ele><time>2026-04-26T13:10:03.485Z</time></trkpt><trkpt lat="40.4991533" lon="16.66275"><ele>45.0</ele><time>2026-04-26T13:10:04.485Z</time></trkpt><trkpt lat="40.4990883" lon="16.6626517"><ele>45.0</ele><time>2026-04-26T13:10:05.486Z</time></trkpt><trkpt lat="40.4990233" lon="16.6625583"><ele>45.14285714285714</ele><time>2026-04-26T13:10:06.486Z</time></trkpt><trkpt lat="40.4989633" lon="16.66247"><ele>45.28571428571429</ele><time>2026-04-26T13:10:07.486Z</time></trkpt><trkpt lat="40.49891" lon="16.6623883"><ele>45.42857142857143</ele><time>2026-04-26T13:10:08.485Z</time></trkpt><trkpt lat="40.498865" lon="16.6623167"><ele>45.57142857142857</ele><time>2026-04-26T13:10:09.485Z</time></trkpt><trkpt lat="40.4988233" lon="16.6622533"><ele>45.71428571428571</ele><time>2026-04-26T13:10:10.484Z</time></trkpt><trkpt lat="40.49878" lon="16.6621883"><ele>45.85714285714286</ele><time>2026-04-26T13:10:11.485Z</time></trkpt><trkpt lat="40.4987317" lon="16.6621133"><ele>46.0</ele><time>2026-04-26T13:10:12.485Z</time></trkpt><trkpt lat="40.4986783" lon="16.6620383"><ele>46.0</ele><time>2026-04-26T13:10:13.486Z</time></trkpt><trkpt lat="40.4986233" lon="16.6619583"><ele>46.0</ele><time>2026-04-26T13:10:14.487Z</time></trkpt><trkpt lat="40.4985667" lon="16.661875"><ele>46.0</ele><time>2026-04-26T13:10:15.485Z</time></trkpt><trkpt lat="40.49851" lon="16.66179"><ele>46.0</ele><time>2026-04-26T13:10:16.486Z</time></trkpt><trkpt lat="40.4984483" lon="16.661705"><ele>46.0</ele><time>2026-04-26T13:10:17.491Z</time></trkpt><trkpt lat="40.4983867" lon="16.6616183"><ele>46.0</ele><time>2026-04-26T13:10:18.485Z</time></trkpt><trkpt lat="40.498325" lon="16.6615333"><ele>45.833333333333336</ele><time>2026-04-26T13:10:19.489Z</time></trkpt><trkpt lat="40.498265" lon="16.66145"><ele>45.66666666666667</ele><time>2026-04-26T13:10:20.487Z</time></trkpt><trkpt lat="40.49821" lon="16.66137"><ele>45.5</ele><time>2026-04-26T13:10:21.485Z</time></trkpt><trkpt lat="40.498155" lon="16.6612833"><ele>45.333333333333336</ele><time>2026-04-26T13:10:22.486Z</time></trkpt><trkpt lat="40.4980983" lon="16.6611967"><ele>45.166666666666664</ele><time>2026-04-26T13:10:23.485Z</time></trkpt><trkpt lat="40.4980433" lon="16.66111"><ele>45.0</ele><time>2026-04-26T13:10:24.485Z</time></trkpt><trkpt lat="40.497985" lon="16.661025"><ele>45.4</ele><time>2026-04-26T13:10:25.485Z</time></trkpt><trkpt lat="40.4979267" lon="16.66094"><ele>45.8</ele><time>2026-04-26T13:10:26.486Z</time></trkpt><trkpt lat="40.497865" lon="16.6608483"><ele>46.2</ele><time>2026-04-26T13:10:27.486Z</time></trkpt><trkpt lat="40.4977983" lon="16.6607517"><ele>46.6</ele><time>2026-04-26T13:10:28.486Z</time></trkpt><trkpt lat="40.4977333" lon="16.6606633"><ele>47.0</ele><time>2026-04-26T13:10:29.486Z</time></trkpt><trkpt lat="40.4976717" lon="16.6605833"><ele>47.0</ele><time>2026-04-26T13:10:30.485Z</time></trkpt><trkpt lat="40.4976117" lon="16.660505"><ele>47.0</ele><time>2026-04-26T13:10:31.485Z</time></trkpt><trkpt lat="40.4975567" lon="16.660425"><ele>47.0</ele><time>2026-04-26T13:10:32.485Z</time></trkpt><trkpt lat="40.497505" lon="16.6603483"><ele>47.0</ele><time>2026-04-26T13:10:33.485Z</time></trkpt><trkpt lat="40.4974583" lon="16.6602817"><ele>47.0</ele><time>2026-04-26T13:10:34.485Z</time></trkpt><trkpt lat="40.4973817" lon="16.6601683"><ele>47.0</ele><time>2026-04-26T13:10:36.485Z</time></trkpt><trkpt lat="40.4973533" lon="16.6600683"><ele>47.400000000000006</ele><time>2026-04-26T13:10:38.486Z</time></trkpt><trkpt lat="40.4973867" lon="16.6599883"><ele>47.800000000000004</ele><time>2026-04-26T13:10:40.485Z</time></trkpt><trkpt lat="40.4974983" lon="16.6598967"><ele>48.2</ele><time>2026-04-26T13:10:42.485Z</time></trkpt><trkpt lat="40.4975717" lon="16.65984"><ele>48.6</ele><time>2026-04-26T13:10:43.485Z</time></trkpt><trkpt lat="40.4976483" lon="16.6597767"><ele>49.0</ele><time>2026-04-26T13:10:44.486Z</time></trkpt><trkpt lat="40.4977317" lon="16.6597133"><ele>49.0</ele><time>2026-04-26T13:10:45.485Z</time></trkpt><trkpt lat="40.4978217" lon="16.6596483"><ele>49.0</ele><time>2026-04-26T13:10:46.485Z</time></trkpt><trkpt lat="40.497915" lon="16.65958"><ele>49.0</ele><time>2026-04-26T13:10:47.485Z</time></trkpt><trkpt lat="40.4980133" lon="16.6595083"><ele>49.0</ele><time>2026-04-26T13:10:48.486Z</time></trkpt><trkpt lat="40.4981183" lon="16.6594317"><ele>49.0</ele><time>2026-04-26T13:10:49.485Z</time></trkpt><trkpt lat="40.4982233" lon="16.6593533"><ele>48.5</ele><time>2026-04-26T13:10:50.485Z</time></trkpt><trkpt lat="40.4983283" lon="16.6592733"><ele>48.0</ele><time>2026-04-26T13:10:51.486Z</time></trkpt><trkpt lat="40.498435" lon="16.6591933"><ele>47.5</ele><time>2026-04-26T13:10:52.485Z</time></trkpt><trkpt lat="40.4985417" lon="16.6591117"><ele>47.0</ele><time>2026-04-26T13:10:53.485Z</time></trkpt><trkpt lat="40.4986517" lon="16.6590283"><ele>47.0</ele><time>2026-04-26T13:10:54.485Z</time></trkpt><trkpt lat="40.49877" lon="16.6589417"><ele>47.0</ele><time>2026-04-26T13:10:55.486Z</time></trkpt><trkpt lat="40.4988917" lon="16.6588533"><ele>47.0</ele><time>2026-04-26T13:10:56.486Z</time></trkpt><trkpt lat="40.4990067" lon="16.6587683"><ele>47.0</ele><time>2026-04-26T13:10:57.485Z</time></trkpt><trkpt lat="40.499125" lon="16.6586767"><ele>46.75</ele><time>2026-04-26T13:10:58.485Z</time></trkpt><trkpt lat="40.4992483" lon="16.65858"><ele>46.5</ele><time>2026-04-26T13:10:59.485Z</time></trkpt><trkpt lat="40.499375" lon="16.6584783"><ele>46.25</ele><time>2026-04-26T13:11:00.486Z</time></trkpt><trkpt lat="40.4995067" lon="16.658375"><ele>46.0</ele><time>2026-04-26T13:11:01.486Z</time></trkpt><trkpt lat="40.499635" lon="16.6582633"><ele>46.66666666666667</ele><time>2026-04-26T13:11:02.488Z</time></trkpt><trkpt lat="40.4997617" lon="16.6581517"><ele>47.333333333333336</ele><time>2026-04-26T13:11:03.486Z</time></trkpt><trkpt lat="40.4998883" lon="16.658035"><ele>48.0</ele><time>2026-04-26T13:11:04.485Z</time></trkpt><trkpt lat="40.5000117" lon="16.6579167"><ele>48.0</ele><time>2026-04-26T13:11:05.485Z</time></trkpt><trkpt lat="40.5001317" lon="16.6577933"><ele>48.0</ele><time>2026-04-26T13:11:06.485Z</time></trkpt><trkpt lat="40.50025" lon="16.6576717"><ele>48.0</ele><time>2026-04-26T13:11:07.485Z</time></trkpt><trkpt lat="40.5003683" lon="16.6575483"><ele>48.0</ele><time>2026-04-26T13:11:08.486Z</time></trkpt><trkpt lat="40.5004817" lon="16.6574233"><ele>48.0</ele><time>2026-04-26T13:11:09.487Z</time></trkpt><trkpt lat="40.5005983" lon="16.6572983"><ele>48.0</ele><time>2026-04-26T13:11:10.485Z</time></trkpt><trkpt lat="40.5007167" lon="16.6571683"><ele>48.0</ele><time>2026-04-26T13:11:11.485Z</time></trkpt><trkpt lat="40.50083" lon="16.6570317"><ele>48.0</ele><time>2026-04-26T13:11:12.485Z</time></trkpt><trkpt lat="40.5009417" lon="16.6568867"><ele>48.0</ele><time>2026-04-26T13:11:13.485Z</time></trkpt><trkpt lat="40.50105" lon="16.656735"><ele>47.666666666666664</ele><time>2026-04-26T13:11:14.486Z</time></trkpt><trkpt lat="40.501155" lon="16.656585"><ele>47.33333333333333</ele><time>2026-04-26T13:11:15.486Z</time></trkpt><trkpt lat="40.50126" lon="16.6564333"><ele>47.0</ele><time>2026-04-26T13:11:16.486Z</time></trkpt><trkpt lat="40.5013617" lon="16.6562817"><ele>47.0</ele><time>2026-04-26T13:11:17.485Z</time></trkpt><trkpt lat="40.50146" lon="16.6561233"><ele>47.0</ele><time>2026-04-26T13:11:18.486Z</time></trkpt><trkpt lat="40.5015567" lon="16.655965"><ele>47.0</ele><time>2026-04-26T13:11:19.485Z</time></trkpt><trkpt lat="40.5016517" lon="16.655805"><ele>47.33333333333333</ele><time>2026-04-26T13:11:20.486Z</time></trkpt><trkpt lat="40.5017433" lon="16.65564"><ele>47.666666666666664</ele><time>2026-04-26T13:11:21.485Z</time></trkpt><trkpt lat="40.5018333" lon="16.6554717"><ele>48.0</ele><time>2026-04-26T13:11:22.486Z</time></trkpt><trkpt lat="40.501925" lon="16.6553"><ele>48.0</ele><time>2026-04-26T13:11:23.487Z</time></trkpt><trkpt lat="40.5020133" lon="16.655125"><ele>48.0</ele><time>2026-04-26T13:11:24.486Z</time></trkpt><trkpt lat="40.5021" lon="16.6549483"><ele>48.0</ele><time>2026-04-26T13:11:25.485Z</time></trkpt><trkpt lat="40.5021883" lon="16.65477"><ele>48.0</ele><time>2026-04-26T13:11:26.486Z</time></trkpt><trkpt lat="40.502275" lon="16.6545917"><ele>48.0</ele><time>2026-04-26T13:11:27.485Z</time></trkpt><trkpt lat="40.5023617" lon="16.65441"><ele>48.0</ele><time>2026-04-26T13:11:28.486Z</time></trkpt><trkpt lat="40.5024467" lon="16.65423"><ele>48.66666666666667</ele><time>2026-04-26T13:11:29.486Z</time></trkpt><trkpt lat="40.5025317" lon="16.65405"><ele>49.333333333333336</ele><time>2026-04-26T13:11:30.485Z</time></trkpt><trkpt lat="40.5026183" lon="16.6538683"><ele>50.0</ele><time>2026-04-26T13:11:31.485Z</time></trkpt><trkpt lat="40.502705" lon="16.6536867"><ele>50.0</ele><time>2026-04-26T13:11:32.488Z</time></trkpt><trkpt lat="40.50279" lon="16.6535067"><ele>50.0</ele><time>2026-04-26T13:11:33.488Z</time></trkpt><trkpt lat="40.5028767" lon="16.65333"><ele>50.0</ele><time>2026-04-26T13:11:34.487Z</time></trkpt><trkpt lat="40.5029633" lon="16.6531533"><ele>50.0</ele><time>2026-04-26T13:11:35.485Z</time></trkpt><trkpt lat="40.5030517" lon="16.652975"><ele>50.0</ele><time>2026-04-26T13:11:36.487Z</time></trkpt><trkpt lat="40.5031383" lon="16.6527983"><ele>50.0</ele><time>2026-04-26T13:11:37.485Z</time></trkpt><trkpt lat="40.5032267" lon="16.65262"><ele>50.0</ele><time>2026-04-26T13:11:38.486Z</time></trkpt><trkpt lat="40.5033133" lon="16.6524433"><ele>50.0</ele><time>2026-04-26T13:11:39.488Z</time></trkpt><trkpt lat="40.5034017" lon="16.652265"><ele>50.0</ele><time>2026-04-26T13:11:40.485Z</time></trkpt><trkpt lat="40.50349" lon="16.6520867"><ele>50.333333333333336</ele><time>2026-04-26T13:11:41.486Z</time></trkpt><trkpt lat="40.5035783" lon="16.6519067"><ele>50.66666666666667</ele><time>2026-04-26T13:11:42.486Z</time></trkpt><trkpt lat="40.5036667" lon="16.651725"><ele>51.0</ele><time>2026-04-26T13:11:43.485Z</time></trkpt><trkpt lat="40.503755" lon="16.6515433"><ele>50.33333333333333</ele><time>2026-04-26T13:11:44.487Z</time></trkpt><trkpt lat="40.503845" lon="16.6513633"><ele>49.666666666666664</ele><time>2026-04-26T13:11:45.486Z</time></trkpt><trkpt lat="40.503935" lon="16.6511833"><ele>49.0</ele><time>2026-04-26T13:11:46.485Z</time></trkpt><trkpt lat="40.504025" lon="16.6510017"><ele>49.0</ele><time>2026-04-26T13:11:47.484Z</time></trkpt><trkpt lat="40.504115" lon="16.6508217"><ele>49.0</ele><time>2026-04-26T13:11:48.485Z</time></trkpt><trkpt lat="40.5042067" lon="16.650645"><ele>49.0</ele><time>2026-04-26T13:11:49.485Z</time></trkpt><trkpt lat="40.5042967" lon="16.6504683"><ele>49.0</ele><time>2026-04-26T13:11:50.487Z</time></trkpt><trkpt lat="40.5043867" lon="16.6502933"><ele>49.0</ele><time>2026-04-26T13:11:51.484Z</time></trkpt><trkpt lat="40.5044733" lon="16.6501183"><ele>49.0</ele><time>2026-04-26T13:11:52.485Z</time></trkpt><trkpt lat="40.5045633" lon="16.6499433"><ele>48.666666666666664</ele><time>2026-04-26T13:11:53.485Z</time></trkpt><trkpt lat="40.5046567" lon="16.64977"><ele>48.33333333333333</ele><time>2026-04-26T13:11:54.485Z</time></trkpt><trkpt lat="40.5047517" lon="16.6495983"><ele>48.0</ele><time>2026-04-26T13:11:55.485Z</time></trkpt><trkpt lat="40.5048433" lon="16.649425"><ele>48.0</ele><time>2026-04-26T13:11:56.485Z</time></trkpt><trkpt lat="40.5049383" lon="16.6492517"><ele>48.0</ele><time>2026-04-26T13:11:57.485Z</time></trkpt><trkpt lat="40.5050333" lon="16.6490817"><ele>48.0</ele><time>2026-04-26T13:11:58.486Z</time></trkpt><trkpt lat="40.50513" lon="16.6489117"><ele>48.0</ele><time>2026-04-26T13:11:59.485Z</time></trkpt><trkpt lat="40.5052267" lon="16.6487417"><ele>48.0</ele><time>2026-04-26T13:12:00.485Z</time></trkpt><trkpt lat="40.505325" lon="16.6485733"><ele>48.0</ele><time>2026-04-26T13:12:01.484Z</time></trkpt><trkpt lat="40.5054233" lon="16.6484067"><ele>48.0</ele><time>2026-04-26T13:12:02.485Z</time></trkpt><trkpt lat="40.5055233" lon="16.6482417"><ele>48.0</ele><time>2026-04-26T13:12:03.484Z</time></trkpt><trkpt lat="40.5056267" lon="16.6480733"><ele>48.0</ele><time>2026-04-26T13:12:04.484Z</time></trkpt><trkpt lat="40.50573" lon="16.6479017"><ele>48.33333333333333</ele><time>2026-04-26T13:12:05.485Z</time></trkpt><trkpt lat="40.5058383" lon="16.6477283"><ele>48.666666666666664</ele><time>2026-04-26T13:12:06.485Z</time></trkpt><trkpt lat="40.5059483" lon="16.6475583"><ele>49.0</ele><time>2026-04-26T13:12:07.485Z</time></trkpt><trkpt lat="40.5060567" lon="16.647385"><ele>49.0</ele><time>2026-04-26T13:12:08.485Z</time></trkpt><trkpt lat="40.5061667" lon="16.647215"><ele>49.0</ele><time>2026-04-26T13:12:09.484Z</time></trkpt><trkpt lat="40.506275" lon="16.6470467"><ele>49.0</ele><time>2026-04-26T13:12:10.486Z</time></trkpt><trkpt lat="40.506385" lon="16.6468783"><ele>49.666666666666664</ele><time>2026-04-26T13:12:11.485Z</time></trkpt><trkpt lat="40.5064967" lon="16.6467117"><ele>50.33333333333333</ele><time>2026-04-26T13:12:12.486Z</time></trkpt><trkpt lat="40.50661" lon="16.646545"><ele>51.0</ele><time>2026-04-26T13:12:13.484Z</time></trkpt><trkpt lat="40.5067217" lon="16.6463783"><ele>51.0</ele><time>2026-04-26T13:12:14.486Z</time></trkpt><trkpt lat="40.5068333" lon="16.6462117"><ele>51.0</ele><time>2026-04-26T13:12:15.485Z</time></trkpt><trkpt lat="40.5069483" lon="16.6460467"><ele>51.0</ele><time>2026-04-26T13:12:16.485Z</time></trkpt><trkpt lat="40.5070617" lon="16.6458833"><ele>51.33333333333333</ele><time>2026-04-26T13:12:17.484Z</time></trkpt><trkpt lat="40.5071783" lon="16.6457183"><ele>51.666666666666664</ele><time>2026-04-26T13:12:18.485Z</time></trkpt><trkpt lat="40.5072967" lon="16.6455533"><ele>52.0</ele><time>2026-04-26T13:12:19.485Z</time></trkpt><trkpt lat="40.507415" lon="16.6453883"><ele>52.33333333333333</ele><time>2026-04-26T13:12:20.485Z</time></trkpt><trkpt lat="40.507535" lon="16.645225"><ele>52.66666666666667</ele><time>2026-04-26T13:12:21.485Z</time></trkpt><trkpt lat="40.507655" lon="16.6450617"><ele>53.0</ele><time>2026-04-26T13:12:22.484Z</time></trkpt><trkpt lat="40.5077767" lon="16.6449"><ele>53.0</ele><time>2026-04-26T13:12:23.485Z</time></trkpt><trkpt lat="40.5078983" lon="16.6447367"><ele>53.0</ele><time>2026-04-26T13:12:24.486Z</time></trkpt><trkpt lat="40.50802" lon="16.6445767"><ele>53.0</ele><time>2026-04-26T13:12:25.486Z</time></trkpt><trkpt lat="40.508145" lon="16.6444167"><ele>53.0</ele><time>2026-04-26T13:12:26.485Z</time></trkpt><trkpt lat="40.5082733" lon="16.6442567"><ele>53.0</ele><time>2026-04-26T13:12:27.485Z</time></trkpt><trkpt lat="40.508405" lon="16.6441"><ele>53.0</ele><time>2026-04-26T13:12:28.486Z</time></trkpt><trkpt lat="40.508535" lon="16.643945"><ele>53.0</ele><time>2026-04-26T13:12:29.486Z</time></trkpt><trkpt lat="40.508665" lon="16.6437917"><ele>53.0</ele><time>2026-04-26T13:12:30.485Z</time></trkpt><trkpt lat="40.5087967" lon="16.643635"><ele>53.0</ele><time>2026-04-26T13:12:31.485Z</time></trkpt><trkpt lat="40.50893" lon="16.6434783"><ele>52.66666666666667</ele><time>2026-04-26T13:12:32.485Z</time></trkpt><trkpt lat="40.5090683" lon="16.6433217"><ele>52.33333333333333</ele><time>2026-04-26T13:12:33.486Z</time></trkpt><trkpt lat="40.5092083" lon="16.6431683"><ele>52.0</ele><time>2026-04-26T13:12:34.485Z</time></trkpt><trkpt lat="40.5093467" lon="16.6430133"><ele>52.0</ele><time>2026-04-26T13:12:35.485Z</time></trkpt><trkpt lat="40.5094867" lon="16.6428567"><ele>52.0</ele><time>2026-04-26T13:12:36.485Z</time></trkpt><trkpt lat="40.50963" lon="16.6426983"><ele>52.0</ele><time>2026-04-26T13:12:37.484Z</time></trkpt><trkpt lat="40.50977" lon="16.642545"><ele>52.33333333333333</ele><time>2026-04-26T13:12:38.485Z</time></trkpt><trkpt lat="40.50991" lon="16.6423967"><ele>52.66666666666667</ele><time>2026-04-26T13:12:39.485Z</time></trkpt><trkpt lat="40.51005" lon="16.6422517"><ele>53.0</ele><time>2026-04-26T13:12:40.485Z</time></trkpt><trkpt lat="40.51019" lon="16.6421033"><ele>53.333333333333336</ele><time>2026-04-26T13:12:41.486Z</time></trkpt><trkpt lat="40.51033" lon="16.64196"><ele>53.66666666666667</ele><time>2026-04-26T13:12:42.485Z</time></trkpt><trkpt lat="40.5104683" lon="16.6418183"><ele>54.0</ele><time>2026-04-26T13:12:43.485Z</time></trkpt><trkpt lat="40.5106083" lon="16.6416783"><ele>52.66666666666667</ele><time>2026-04-26T13:12:44.485Z</time></trkpt><trkpt lat="40.5107483" lon="16.6415367"><ele>51.333333333333336</ele><time>2026-04-26T13:12:45.485Z</time></trkpt><trkpt lat="40.51089" lon="16.6413933"><ele>50.0</ele><time>2026-04-26T13:12:46.485Z</time></trkpt><trkpt lat="40.5110333" lon="16.6412483"><ele>49.66666666666667</ele><time>2026-04-26T13:12:47.484Z</time></trkpt><trkpt lat="40.5111783" lon="16.6411033"><ele>49.33333333333333</ele><time>2026-04-26T13:12:48.485Z</time></trkpt><trkpt lat="40.5113233" lon="16.6409583"><ele>49.0</ele><time>2026-04-26T13:12:49.485Z</time></trkpt><trkpt lat="40.5114717" lon="16.640815"><ele>48.33333333333333</ele><time>2026-04-26T13:12:50.485Z</time></trkpt><trkpt lat="40.51162" lon="16.64067"><ele>47.666666666666664</ele><time>2026-04-26T13:12:51.485Z</time></trkpt><trkpt lat="40.5117667" lon="16.6405233"><ele>47.0</ele><time>2026-04-26T13:12:52.486Z</time></trkpt><trkpt lat="40.511915" lon="16.6403767"><ele>47.666666666666664</ele><time>2026-04-26T13:12:53.487Z</time></trkpt><trkpt lat="40.5120617" lon="16.64023"><ele>48.33333333333333</ele><time>2026-04-26T13:12:54.485Z</time></trkpt><trkpt lat="40.5122066" lon="16.6400815"><ele>49.0</ele><time>2026-04-26T13:12:55.485Z</time></trkpt><trkpt lat="40.5123514" lon="16.6399357"><ele>49.0</ele><time>2026-04-26T13:12:56.485Z</time></trkpt><trkpt lat="40.5124974" lon="16.6397915"><ele>49.0</ele><time>2026-04-26T13:12:57.486Z</time></trkpt><trkpt lat="40.5126439" lon="16.6396493"><ele>49.0</ele><time>2026-04-26T13:12:58.485Z</time></trkpt><trkpt lat="40.5127899" lon="16.6395082"><ele>49.0</ele><time>2026-04-26T13:12:59.485Z</time></trkpt><trkpt lat="40.5129337" lon="16.6393672"><ele>49.0</ele><time>2026-04-26T13:13:00.485Z</time></trkpt><trkpt lat="40.5130768" lon="16.6392273"><ele>49.0</ele><time>2026-04-26T13:13:01.485Z</time></trkpt><trkpt lat="40.5132199" lon="16.6390875"><ele>49.0</ele><time>2026-04-26T13:13:02.486Z</time></trkpt><trkpt lat="40.513363" lon="16.6389488"><ele>49.0</ele><time>2026-04-26T13:13:03.485Z</time></trkpt><trkpt lat="40.5135063" lon="16.6388092"><ele>49.0</ele><time>2026-04-26T13:13:04.485Z</time></trkpt><trkpt lat="40.5136506" lon="16.6386731"><ele>48.666666666666664</ele><time>2026-04-26T13:13:05.485Z</time></trkpt><trkpt lat="40.5137932" lon="16.6385351"><ele>48.33333333333333</ele><time>2026-04-26T13:13:06.485Z</time></trkpt><trkpt lat="40.513933" lon="16.6383944"><ele>48.0</ele><time>2026-04-26T13:13:07.485Z</time></trkpt><trkpt lat="40.5140728" lon="16.6382552"><ele>48.0</ele><time>2026-04-26T13:13:08.485Z</time></trkpt><trkpt lat="40.5142129" lon="16.638113"><ele>48.0</ele><time>2026-04-26T13:13:09.486Z</time></trkpt><trkpt lat="40.5143542" lon="16.637971"><ele>48.0</ele><time>2026-04-26T13:13:10.485Z</time></trkpt><trkpt lat="40.514497" lon="16.6378306"><ele>49.0</ele><time>2026-04-26T13:13:11.485Z</time></trkpt><trkpt lat="40.5146408" lon="16.6376886"><ele>50.0</ele><time>2026-04-26T13:13:12.485Z</time></trkpt><trkpt lat="40.5147839" lon="16.637546"><ele>51.0</ele><time>2026-04-26T13:13:13.486Z</time></trkpt><trkpt lat="40.5149274" lon="16.6374037"><ele>51.0</ele><time>2026-04-26T13:13:14.486Z</time></trkpt><trkpt lat="40.5150726" lon="16.6372637"><ele>51.0</ele><time>2026-04-26T13:13:15.485Z</time></trkpt><trkpt lat="40.5152191" lon="16.6371249"><ele>51.0</ele><time>2026-04-26T13:13:16.486Z</time></trkpt><trkpt lat="40.5153661" lon="16.6369873"><ele>51.0</ele><time>2026-04-26T13:13:17.485Z</time></trkpt><trkpt lat="40.5155115" lon="16.6368508"><ele>51.0</ele><time>2026-04-26T13:13:18.486Z</time></trkpt><trkpt lat="40.5156576" lon="16.6367142"><ele>51.0</ele><time>2026-04-26T13:13:19.485Z</time></trkpt><trkpt lat="40.515803" lon="16.6365799"><ele>51.0</ele><time>2026-04-26T13:13:20.485Z</time></trkpt><trkpt lat="40.5159484" lon="16.6364474"><ele>51.0</ele><time>2026-04-26T13:13:21.485Z</time></trkpt><trkpt lat="40.5160935" lon="16.6363157"><ele>51.0</ele><time>2026-04-26T13:13:22.485Z</time></trkpt><trkpt lat="40.5162383" lon="16.6361854"><ele>51.66666666666667</ele><time>2026-04-26T13:13:23.487Z</time></trkpt><trkpt lat="40.5163834" lon="16.6360577"><ele>52.333333333333336</ele><time>2026-04-26T13:13:24.485Z</time></trkpt><trkpt lat="40.5165284" lon="16.6359295"><ele>53.0</ele><time>2026-04-26T13:13:25.485Z</time></trkpt><trkpt lat="40.5166729" lon="16.6357981"><ele>53.0</ele><time>2026-04-26T13:13:26.485Z</time></trkpt><trkpt lat="40.516822" lon="16.6356646"><ele>53.0</ele><time>2026-04-26T13:13:27.485Z</time></trkpt><trkpt lat="40.5169756" lon="16.6355313"><ele>53.0</ele><time>2026-04-26T13:13:28.485Z</time></trkpt><trkpt lat="40.5171324" lon="16.6353995"><ele>52.333333333333336</ele><time>2026-04-26T13:13:29.485Z</time></trkpt><trkpt lat="40.5172894" lon="16.6352667"><ele>51.66666666666667</ele><time>2026-04-26T13:13:30.486Z</time></trkpt><trkpt lat="40.5174466" lon="16.6351331"><ele>51.0</ele><time>2026-04-26T13:13:31.487Z</time></trkpt><trkpt lat="40.5176047" lon="16.6349983"><ele>51.0</ele><time>2026-04-26T13:13:32.485Z</time></trkpt><trkpt lat="40.517764" lon="16.6348648"><ele>51.0</ele><time>2026-04-26T13:13:33.49Z</time></trkpt><trkpt lat="40.5179236" lon="16.6347303"><ele>51.0</ele><time>2026-04-26T13:13:34.485Z</time></trkpt><trkpt lat="40.5180839" lon="16.6345949"><ele>51.0</ele><time>2026-04-26T13:13:35.485Z</time></trkpt><trkpt lat="40.5182451" lon="16.6344575"><ele>51.0</ele><time>2026-04-26T13:13:36.485Z</time></trkpt><trkpt lat="40.5184071" lon="16.6343224"><ele>51.0</ele><time>2026-04-26T13:13:37.485Z</time></trkpt><trkpt lat="40.5185675" lon="16.6341841"><ele>51.0</ele><time>2026-04-26T13:13:38.486Z</time></trkpt><trkpt lat="40.5187263" lon="16.6340445"><ele>51.0</ele><time>2026-04-26T13:13:39.485Z</time></trkpt><trkpt lat="40.518883" lon="16.6339027"><ele>51.0</ele><time>2026-04-26T13:13:40.485Z</time></trkpt><trkpt lat="40.5190398" lon="16.6337584"><ele>52.0</ele><time>2026-04-26T13:13:41.486Z</time></trkpt><trkpt lat="40.5191965" lon="16.6336171"><ele>53.0</ele><time>2026-04-26T13:13:42.485Z</time></trkpt><trkpt lat="40.5193519" lon="16.6334768"><ele>54.0</ele><time>2026-04-26T13:13:43.486Z</time></trkpt><trkpt lat="40.5195078" lon="16.633337"><ele>54.0</ele><time>2026-04-26T13:13:44.486Z</time></trkpt><trkpt lat="40.5196601" lon="16.6331965"><ele>54.0</ele><time>2026-04-26T13:13:45.485Z</time></trkpt><trkpt lat="40.5198116" lon="16.6330553"><ele>54.0</ele><time>2026-04-26T13:13:46.485Z</time></trkpt><trkpt lat="40.5199628" lon="16.6329152"><ele>54.33333333333333</ele><time>2026-04-26T13:13:47.484Z</time></trkpt><trkpt lat="40.520114" lon="16.6327753"><ele>54.666666666666664</ele><time>2026-04-26T13:13:48.485Z</time></trkpt><trkpt lat="40.5202641" lon="16.6326332"><ele>55.0</ele><time>2026-04-26T13:13:49.485Z</time></trkpt><trkpt lat="40.5204144" lon="16.6324923"><ele>54.0</ele><time>2026-04-26T13:13:50.486Z</time></trkpt><trkpt lat="40.5205628" lon="16.6323477"><ele>53.0</ele><time>2026-04-26T13:13:51.487Z</time></trkpt><trkpt lat="40.5207112" lon="16.6322027"><ele>52.0</ele><time>2026-04-26T13:13:52.488Z</time></trkpt><trkpt lat="40.5208591" lon="16.6320555"><ele>52.33333333333333</ele><time>2026-04-26T13:13:53.487Z</time></trkpt><trkpt lat="40.5210061" lon="16.6319087"><ele>52.66666666666667</ele><time>2026-04-26T13:13:54.485Z</time></trkpt><trkpt lat="40.5211542" lon="16.6317595"><ele>53.0</ele><time>2026-04-26T13:13:55.485Z</time></trkpt><trkpt lat="40.5213025" lon="16.6316108"><ele>53.0</ele><time>2026-04-26T13:13:56.484Z</time></trkpt><trkpt lat="40.5214496" lon="16.6314612"><ele>53.0</ele><time>2026-04-26T13:13:57.485Z</time></trkpt><trkpt lat="40.5215959" lon="16.631308"><ele>53.0</ele><time>2026-04-26T13:13:58.484Z</time></trkpt><trkpt lat="40.5217426" lon="16.6311533"><ele>53.333333333333336</ele><time>2026-04-26T13:13:59.485Z</time></trkpt><trkpt lat="40.5218894" lon="16.6309971"><ele>53.66666666666667</ele><time>2026-04-26T13:14:00.485Z</time></trkpt><trkpt lat="40.5220345" lon="16.6308395"><ele>54.0</ele><time>2026-04-26T13:14:01.485Z</time></trkpt><trkpt lat="40.5221782" lon="16.6306827"><ele>54.0</ele><time>2026-04-26T13:14:02.486Z</time></trkpt><trkpt lat="40.5223229" lon="16.6305274"><ele>54.0</ele><time>2026-04-26T13:14:03.486Z</time></trkpt><trkpt lat="40.5224694" lon="16.6303727"><ele>54.0</ele><time>2026-04-26T13:14:04.485Z</time></trkpt><trkpt lat="40.5226119" lon="16.6302176"><ele>54.0</ele><time>2026-04-26T13:14:05.486Z</time></trkpt><trkpt lat="40.5227548" lon="16.6300626"><ele>54.0</ele><time>2026-04-26T13:14:06.486Z</time></trkpt><trkpt lat="40.5228966" lon="16.6299051"><ele>54.0</ele><time>2026-04-26T13:14:07.485Z</time></trkpt><trkpt lat="40.5230369" lon="16.6297463"><ele>53.66666666666667</ele><time>2026-04-26T13:14:08.486Z</time></trkpt><trkpt lat="40.5231766" lon="16.6295891"><ele>53.333333333333336</ele><time>2026-04-26T13:14:09.485Z</time></trkpt><trkpt lat="40.5233164" lon="16.6294325"><ele>53.0</ele><time>2026-04-26T13:14:10.486Z</time></trkpt><trkpt lat="40.5234547" lon="16.6292762"><ele>53.0</ele><time>2026-04-26T13:14:11.485Z</time></trkpt><trkpt lat="40.5235917" lon="16.6291212"><ele>53.0</ele><time>2026-04-26T13:14:12.485Z</time></trkpt><trkpt lat="40.5237294" lon="16.628969"><ele>53.0</ele><time>2026-04-26T13:14:13.485Z</time></trkpt><trkpt lat="40.5238691" lon="16.6288202"><ele>53.0</ele><time>2026-04-26T13:14:14.487Z</time></trkpt><trkpt lat="40.5240067" lon="16.6286703"><ele>53.0</ele><time>2026-04-26T13:14:15.493Z</time></trkpt><trkpt lat="40.524144" lon="16.6285168"><ele>53.0</ele><time>2026-04-26T13:14:16.485Z</time></trkpt><trkpt lat="40.5242797" lon="16.6283629"><ele>53.0</ele><time>2026-04-26T13:14:17.486Z</time></trkpt><trkpt lat="40.5244144" lon="16.628209"><ele>53.0</ele><time>2026-04-26T13:14:18.486Z</time></trkpt><trkpt lat="40.5245479" lon="16.6280567"><ele>53.0</ele><time>2026-04-26T13:14:19.485Z</time></trkpt><trkpt lat="40.5246814" lon="16.6279065"><ele>53.66666666666667</ele><time>2026-04-26T13:14:20.488Z</time></trkpt><trkpt lat="40.5248163" lon="16.6277615"><ele>54.33333333333333</ele><time>2026-04-26T13:14:21.485Z</time></trkpt><trkpt lat="40.5249499" lon="16.6276158"><ele>55.0</ele><time>2026-04-26T13:14:22.485Z</time></trkpt><trkpt lat="40.5250817" lon="16.6274709"><ele>55.0</ele><time>2026-04-26T13:14:23.485Z</time></trkpt><trkpt lat="40.525209" lon="16.6273248"><ele>55.0</ele><time>2026-04-26T13:14:24.485Z</time></trkpt><trkpt lat="40.525337" lon="16.6271798"><ele>55.0</ele><time>2026-04-26T13:14:25.486Z</time></trkpt><trkpt lat="40.5254638" lon="16.6270391"><ele>54.75</ele><time>2026-04-26T13:14:26.486Z</time></trkpt><trkpt lat="40.5255815" lon="16.6269049"><ele>54.5</ele><time>2026-04-26T13:14:27.485Z</time></trkpt><trkpt lat="40.5256898" lon="16.6267806"><ele>54.25</ele><time>2026-04-26T13:14:28.485Z</time></trkpt><trkpt lat="40.5257914" lon="16.6266655"><ele>54.0</ele><time>2026-04-26T13:14:29.485Z</time></trkpt><trkpt lat="40.5258935" lon="16.6265688"><ele>54.0</ele><time>2026-04-26T13:14:30.485Z</time></trkpt><trkpt lat="40.5260062" lon="16.6265026"><ele>54.0</ele><time>2026-04-26T13:14:31.485Z</time></trkpt><trkpt lat="40.5261276" lon="16.626482"><ele>54.0</ele><time>2026-04-26T13:14:32.488Z</time></trkpt><trkpt lat="40.5262529" lon="16.6265124"><ele>54.0</ele><time>2026-04-26T13:14:33.485Z</time></trkpt><trkpt lat="40.5263742" lon="16.6265931"><ele>54.0</ele><time>2026-04-26T13:14:34.485Z</time></trkpt><trkpt lat="40.5264826" lon="16.6267182"><ele>54.0</ele><time>2026-04-26T13:14:35.485Z</time></trkpt><trkpt lat="40.5265744" lon="16.6268812"><ele>54.0</ele><time>2026-04-26T13:14:36.485Z</time></trkpt><trkpt lat="40.5266558" lon="16.627058"><ele>54.0</ele><time>2026-04-26T13:14:37.485Z</time></trkpt><trkpt lat="40.526741" lon="16.6272274"><ele>54.0</ele><time>2026-04-26T13:14:38.485Z</time></trkpt><trkpt lat="40.5268391" lon="16.6274022"><ele>54.0</ele><time>2026-04-26T13:14:39.485Z</time></trkpt><trkpt lat="40.526942" lon="16.6275826"><ele>54.0</ele><time>2026-04-26T13:14:40.485Z</time></trkpt><trkpt lat="40.5270435" lon="16.6277629"><ele>54.0</ele><time>2026-04-26T13:14:41.485Z</time></trkpt><trkpt lat="40.5271466" lon="16.6279445"><ele>54.0</ele><time>2026-04-26T13:14:42.485Z</time></trkpt><trkpt lat="40.5272472" lon="16.6281264"><ele>54.33333333333333</ele><time>2026-04-26T13:14:43.485Z</time></trkpt><trkpt lat="40.5273473" lon="16.6283094"><ele>54.666666666666664</ele><time>2026-04-26T13:14:44.486Z</time></trkpt><trkpt lat="40.5274454" lon="16.6284916"><ele>55.0</ele><time>2026-04-26T13:14:45.485Z</time></trkpt><trkpt lat="40.5275373" lon="16.6286795"><ele>54.0</ele><time>2026-04-26T13:14:46.485Z</time></trkpt><trkpt lat="40.5276305" lon="16.628868"><ele>53.0</ele><time>2026-04-26T13:14:47.485Z</time></trkpt><trkpt lat="40.5277204" lon="16.629055"><ele>52.0</ele><time>2026-04-26T13:14:48.485Z</time></trkpt><trkpt lat="40.5278103" lon="16.6292387"><ele>52.33333333333333</ele><time>2026-04-26T13:14:49.487Z</time></trkpt><trkpt lat="40.5279" lon="16.6294187"><ele>52.66666666666667</ele><time>2026-04-26T13:14:50.486Z</time></trkpt><trkpt lat="40.527987" lon="16.6295982"><ele>53.0</ele><time>2026-04-26T13:14:51.486Z</time></trkpt><trkpt lat="40.5280736" lon="16.6297796"><ele>53.0</ele><time>2026-04-26T13:14:52.486Z</time></trkpt><trkpt lat="40.5281586" lon="16.6299631"><ele>53.0</ele><time>2026-04-26T13:14:53.485Z</time></trkpt><trkpt lat="40.5282418" lon="16.6301481"><ele>53.0</ele><time>2026-04-26T13:14:54.485Z</time></trkpt><trkpt lat="40.5283267" lon="16.6303334"><ele>52.333333333333336</ele><time>2026-04-26T13:14:55.489Z</time></trkpt><trkpt lat="40.5284135" lon="16.6305226"><ele>51.66666666666667</ele><time>2026-04-26T13:14:56.486Z</time></trkpt><trkpt lat="40.5285019" lon="16.6307115"><ele>51.0</ele><time>2026-04-26T13:14:57.487Z</time></trkpt><trkpt lat="40.5285945" lon="16.6309001"><ele>51.0</ele><time>2026-04-26T13:14:58.485Z</time></trkpt><trkpt lat="40.5286896" lon="16.6310912"><ele>51.0</ele><time>2026-04-26T13:14:59.484Z</time></trkpt><trkpt lat="40.5287833" lon="16.631283"><ele>51.0</ele><time>2026-04-26T13:15:00.486Z</time></trkpt><trkpt lat="40.5288783" lon="16.6314779"><ele>51.66666666666667</ele><time>2026-04-26T13:15:01.485Z</time></trkpt><trkpt lat="40.5289735" lon="16.6316747"><ele>52.333333333333336</ele><time>2026-04-26T13:15:02.487Z</time></trkpt><trkpt lat="40.5290686" lon="16.6318728"><ele>53.0</ele><time>2026-04-26T13:15:03.486Z</time></trkpt><trkpt lat="40.5291636" lon="16.6320655"><ele>53.0</ele><time>2026-04-26T13:15:04.485Z</time></trkpt><trkpt lat="40.5292551" lon="16.6322489"><ele>53.0</ele><time>2026-04-26T13:15:05.486Z</time></trkpt><trkpt lat="40.5293455" lon="16.6324314"><ele>53.0</ele><time>2026-04-26T13:15:06.486Z</time></trkpt><trkpt lat="40.529437" lon="16.6326174"><ele>52.66666666666667</ele><time>2026-04-26T13:15:07.485Z</time></trkpt><trkpt lat="40.5295284" lon="16.6328075"><ele>52.33333333333333</ele><time>2026-04-26T13:15:08.485Z</time></trkpt><trkpt lat="40.5296202" lon="16.6330032"><ele>52.0</ele><time>2026-04-26T13:15:09.486Z</time></trkpt><trkpt lat="40.5297107" lon="16.6331952"><ele>52.0</ele><time>2026-04-26T13:15:10.485Z</time></trkpt><trkpt lat="40.5298035" lon="16.6333852"><ele>52.0</ele><time>2026-04-26T13:15:11.486Z</time></trkpt><trkpt lat="40.5298956" lon="16.6335764"><ele>52.0</ele><time>2026-04-26T13:15:12.486Z</time></trkpt><trkpt lat="40.5299888" lon="16.6337681"><ele>52.33333333333333</ele><time>2026-04-26T13:15:13.486Z</time></trkpt><trkpt lat="40.5300822" lon="16.63396"><ele>52.66666666666667</ele><time>2026-04-26T13:15:14.486Z</time></trkpt><trkpt lat="40.530178" lon="16.6341531"><ele>53.0</ele><time>2026-04-26T13:15:15.485Z</time></trkpt><trkpt lat="40.5302723" lon="16.6343468"><ele>53.0</ele><time>2026-04-26T13:15:16.485Z</time></trkpt><trkpt lat="40.5303657" lon="16.6345416"><ele>53.0</ele><time>2026-04-26T13:15:17.485Z</time></trkpt><trkpt lat="40.5304577" lon="16.6347397"><ele>53.0</ele><time>2026-04-26T13:15:18.487Z</time></trkpt><trkpt lat="40.5305494" lon="16.6349393"><ele>51.0</ele><time>2026-04-26T13:15:19.485Z</time></trkpt><trkpt lat="40.5306423" lon="16.6351383"><ele>49.0</ele><time>2026-04-26T13:15:20.486Z</time></trkpt><trkpt lat="40.530737" lon="16.6353392"><ele>47.0</ele><time>2026-04-26T13:15:21.486Z</time></trkpt><trkpt lat="40.5308349" lon="16.6355394"><ele>46.666666666666664</ele><time>2026-04-26T13:15:22.485Z</time></trkpt><trkpt lat="40.5309321" lon="16.6357384"><ele>46.333333333333336</ele><time>2026-04-26T13:15:23.489Z</time></trkpt><trkpt lat="40.5310299" lon="16.6359352"><ele>46.0</ele><time>2026-04-26T13:15:24.486Z</time></trkpt><trkpt lat="40.5311282" lon="16.6361348"><ele>47.66666666666667</ele><time>2026-04-26T13:15:25.49Z</time></trkpt><trkpt lat="40.5312265" lon="16.6363373"><ele>49.333333333333336</ele><time>2026-04-26T13:15:26.486Z</time></trkpt><trkpt lat="40.5313209" lon="16.6365425"><ele>51.0</ele><time>2026-04-26T13:15:27.486Z</time></trkpt><trkpt lat="40.5314099" lon="16.6367518"><ele>51.0</ele><time>2026-04-26T13:15:28.485Z</time></trkpt><trkpt lat="40.5314891" lon="16.6369656"><ele>51.0</ele><time>2026-04-26T13:15:29.487Z</time></trkpt><trkpt lat="40.5315593" lon="16.6371809"><ele>51.0</ele><time>2026-04-26T13:15:30.485Z</time></trkpt><trkpt lat="40.5316252" lon="16.6373978"><ele>51.33333333333333</ele><time>2026-04-26T13:15:31.485Z</time></trkpt><trkpt lat="40.5316896" lon="16.6376147"><ele>51.666666666666664</ele><time>2026-04-26T13:15:32.485Z</time></trkpt><trkpt lat="40.5317559" lon="16.6378284"><ele>52.0</ele><time>2026-04-26T13:15:33.485Z</time></trkpt><trkpt lat="40.5318199" lon="16.6380401"><ele>53.0</ele><time>2026-04-26T13:15:34.485Z</time></trkpt><trkpt lat="40.5318844" lon="16.638249"><ele>54.0</ele><time>2026-04-26T13:15:35.485Z</time></trkpt><trkpt lat="40.5319489" lon="16.6384557"><ele>55.0</ele><time>2026-04-26T13:15:36.485Z</time></trkpt><trkpt lat="40.5320151" lon="16.6386636"><ele>55.33333333333333</ele><time>2026-04-26T13:15:37.485Z</time></trkpt><trkpt lat="40.5320801" lon="16.6388733"><ele>55.66666666666667</ele><time>2026-04-26T13:15:38.486Z</time></trkpt><trkpt lat="40.5321468" lon="16.6390804"><ele>56.0</ele><time>2026-04-26T13:15:39.485Z</time></trkpt><trkpt lat="40.5322135" lon="16.6392885"><ele>56.0</ele><time>2026-04-26T13:15:40.485Z</time></trkpt><trkpt lat="40.5322816" lon="16.6394997"><ele>56.0</ele><time>2026-04-26T13:15:41.485Z</time></trkpt><trkpt lat="40.5323488" lon="16.6397146"><ele>56.0</ele><time>2026-04-26T13:15:42.485Z</time></trkpt><trkpt lat="40.5324139" lon="16.6399257"><ele>56.0</ele><time>2026-04-26T13:15:43.487Z</time></trkpt><trkpt lat="40.5324778" lon="16.6401274"><ele>56.0</ele><time>2026-04-26T13:15:44.486Z</time></trkpt><trkpt lat="40.5325405" lon="16.6403217"><ele>56.0</ele><time>2026-04-26T13:15:45.485Z</time></trkpt><trkpt lat="40.5326021" lon="16.640514"><ele>56.333333333333336</ele><time>2026-04-26T13:15:46.486Z</time></trkpt><trkpt lat="40.5326649" lon="16.6407081"><ele>56.66666666666667</ele><time>2026-04-26T13:15:47.485Z</time></trkpt><trkpt lat="40.532729" lon="16.6409033"><ele>57.0</ele><time>2026-04-26T13:15:48.489Z</time></trkpt><trkpt lat="40.5327906" lon="16.6410993"><ele>57.66666666666667</ele><time>2026-04-26T13:15:49.485Z</time></trkpt><trkpt lat="40.5328511" lon="16.6412947"><ele>58.333333333333336</ele><time>2026-04-26T13:15:50.486Z</time></trkpt><trkpt lat="40.5329086" lon="16.641483"><ele>59.0</ele><time>2026-04-26T13:15:51.485Z</time></trkpt><trkpt lat="40.5329614" lon="16.641655"><ele>59.2</ele><time>2026-04-26T13:15:52.485Z</time></trkpt><trkpt lat="40.5330062" lon="16.6418059"><ele>59.400000000000006</ele><time>2026-04-26T13:15:53.485Z</time></trkpt><trkpt lat="40.5330437" lon="16.6419419"><ele>59.6</ele><time>2026-04-26T13:15:54.491Z</time></trkpt><trkpt lat="40.5330787" lon="16.6420581"><ele>59.8</ele><time>2026-04-26T13:15:55.486Z</time></trkpt><trkpt lat="40.5331187" lon="16.642153"><ele>60.0</ele><time>2026-04-26T13:15:56.486Z</time></trkpt><trkpt lat="40.5331778" lon="16.6422065"><ele>60.0</ele><time>2026-04-26T13:15:57.485Z</time></trkpt><trkpt lat="40.5332463" lon="16.642217"><ele>60.0</ele><time>2026-04-26T13:15:58.485Z</time></trkpt><trkpt lat="40.5333266" lon="16.6421739"><ele>60.0</ele><time>2026-04-26T13:15:59.485Z</time></trkpt><trkpt lat="40.5334127" lon="16.6420904"><ele>60.0</ele><time>2026-04-26T13:16:00.484Z</time></trkpt><trkpt lat="40.5335041" lon="16.641981"><ele>60.0</ele><time>2026-04-26T13:16:01.485Z</time></trkpt><trkpt lat="40.5336044" lon="16.6418558"><ele>60.0</ele><time>2026-04-26T13:16:02.486Z</time></trkpt><trkpt lat="40.5337174" lon="16.6417192"><ele>60.0</ele><time>2026-04-26T13:16:03.485Z</time></trkpt><trkpt lat="40.533834" lon="16.6415767"><ele>60.0</ele><time>2026-04-26T13:16:04.485Z</time></trkpt><trkpt lat="40.5339513" lon="16.6414363"><ele>59.66666666666667</ele><time>2026-04-26T13:16:05.488Z</time></trkpt><trkpt lat="40.5340728" lon="16.6412971"><ele>59.333333333333336</ele><time>2026-04-26T13:16:06.486Z</time></trkpt><trkpt lat="40.5341935" lon="16.6411607"><ele>59.0</ele><time>2026-04-26T13:16:07.486Z</time></trkpt><trkpt lat="40.5343155" lon="16.6410271"><ele>59.0</ele><time>2026-04-26T13:16:08.486Z</time></trkpt><trkpt lat="40.5344364" lon="16.6408945"><ele>59.0</ele><time>2026-04-26T13:16:09.486Z</time></trkpt><trkpt lat="40.5345535" lon="16.6407624"><ele>59.0</ele><time>2026-04-26T13:16:10.485Z</time></trkpt><trkpt lat="40.5346722" lon="16.6406298"><ele>59.66666666666667</ele><time>2026-04-26T13:16:11.485Z</time></trkpt><trkpt lat="40.5347939" lon="16.6404923"><ele>60.33333333333333</ele><time>2026-04-26T13:16:12.487Z</time></trkpt><trkpt lat="40.534917" lon="16.6403565"><ele>61.0</ele><time>2026-04-26T13:16:13.486Z</time></trkpt><trkpt lat="40.5350393" lon="16.640222"><ele>61.666666666666664</ele><time>2026-04-26T13:16:14.486Z</time></trkpt><trkpt lat="40.5351614" lon="16.6400845"><ele>62.33333333333333</ele><time>2026-04-26T13:16:15.485Z</time></trkpt><trkpt lat="40.5352846" lon="16.639946"><ele>63.0</ele><time>2026-04-26T13:16:16.485Z</time></trkpt><trkpt lat="40.5354104" lon="16.6398062"><ele>63.0</ele><time>2026-04-26T13:16:17.486Z</time></trkpt><trkpt lat="40.5355346" lon="16.6396648"><ele>63.0</ele><time>2026-04-26T13:16:18.487Z</time></trkpt><trkpt lat="40.5356579" lon="16.6395202"><ele>63.0</ele><time>2026-04-26T13:16:19.486Z</time></trkpt><trkpt lat="40.5357837" lon="16.6393765"><ele>62.0</ele><time>2026-04-26T13:16:20.486Z</time></trkpt><trkpt lat="40.5359122" lon="16.6392328"><ele>61.0</ele><time>2026-04-26T13:16:21.486Z</time></trkpt><trkpt lat="40.5360411" lon="16.6390891"><ele>60.0</ele><time>2026-04-26T13:16:22.486Z</time></trkpt><trkpt lat="40.5361683" lon="16.6389446"><ele>60.0</ele><time>2026-04-26T13:16:23.486Z</time></trkpt><trkpt lat="40.5362962" lon="16.6388009"><ele>60.0</ele><time>2026-04-26T13:16:24.485Z</time></trkpt><trkpt lat="40.5364229" lon="16.6386559"><ele>60.0</ele><time>2026-04-26T13:16:25.486Z</time></trkpt><trkpt lat="40.5365497" lon="16.6385139"><ele>60.0</ele><time>2026-04-26T13:16:26.485Z</time></trkpt><trkpt lat="40.5366762" lon="16.6383725"><ele>60.0</ele><time>2026-04-26T13:16:27.485Z</time></trkpt><trkpt lat="40.5368028" lon="16.6382337"><ele>60.0</ele><time>2026-04-26T13:16:28.485Z</time></trkpt><trkpt lat="40.5369296" lon="16.6380944"><ele>60.66666666666667</ele><time>2026-04-26T13:16:29.485Z</time></trkpt><trkpt lat="40.5370562" lon="16.6379541"><ele>61.333333333333336</ele><time>2026-04-26T13:16:30.486Z</time></trkpt><trkpt lat="40.5371816" lon="16.6378127"><ele>62.0</ele><time>2026-04-26T13:16:31.485Z</time></trkpt><trkpt lat="40.5373067" lon="16.6376711"><ele>62.0</ele><time>2026-04-26T13:16:32.485Z</time></trkpt><trkpt lat="40.537433" lon="16.6375277"><ele>62.0</ele><time>2026-04-26T13:16:33.485Z</time></trkpt><trkpt lat="40.5375582" lon="16.6373838"><ele>62.0</ele><time>2026-04-26T13:16:34.484Z</time></trkpt><trkpt lat="40.5376845" lon="16.6372377"><ele>62.0</ele><time>2026-04-26T13:16:35.485Z</time></trkpt><trkpt lat="40.5378124" lon="16.6370924"><ele>62.0</ele><time>2026-04-26T13:16:36.485Z</time></trkpt><trkpt lat="40.5379397" lon="16.6369492"><ele>62.0</ele><time>2026-04-26T13:16:37.484Z</time></trkpt><trkpt lat="40.5380666" lon="16.6368073"><ele>62.333333333333336</ele><time>2026-04-26T13:16:38.485Z</time></trkpt><trkpt lat="40.5381945" lon="16.6366682"><ele>62.66666666666667</ele><time>2026-04-26T13:16:39.485Z</time></trkpt><trkpt lat="40.53832" lon="16.6365259"><ele>63.0</ele><time>2026-04-26T13:16:40.484Z</time></trkpt><trkpt lat="40.538445" lon="16.636384"><ele>63.0</ele><time>2026-04-26T13:16:41.485Z</time></trkpt><trkpt lat="40.5385724" lon="16.6362425"><ele>63.0</ele><time>2026-04-26T13:16:42.485Z</time></trkpt><trkpt lat="40.5386978" lon="16.6360995"><ele>63.0</ele><time>2026-04-26T13:16:43.485Z</time></trkpt><trkpt lat="40.5388254" lon="16.6359586"><ele>62.0</ele><time>2026-04-26T13:16:44.486Z</time></trkpt><trkpt lat="40.5389512" lon="16.6358187"><ele>61.0</ele><time>2026-04-26T13:16:45.486Z</time></trkpt><trkpt lat="40.5390749" lon="16.6356735"><ele>60.0</ele><time>2026-04-26T13:16:46.486Z</time></trkpt><trkpt lat="40.539195" lon="16.6355221"><ele>60.0</ele><time>2026-04-26T13:16:47.485Z</time></trkpt><trkpt lat="40.5393147" lon="16.6353586"><ele>60.0</ele><time>2026-04-26T13:16:48.485Z</time></trkpt><trkpt lat="40.5394258" lon="16.6351797"><ele>60.0</ele><time>2026-04-26T13:16:49.485Z</time></trkpt><trkpt lat="40.5395205" lon="16.6349821"><ele>60.66666666666667</ele><time>2026-04-26T13:16:50.486Z</time></trkpt><trkpt lat="40.539603" lon="16.6347717"><ele>61.333333333333336</ele><time>2026-04-26T13:16:51.485Z</time></trkpt><trkpt lat="40.539676" lon="16.6345494"><ele>62.0</ele><time>2026-04-26T13:16:52.487Z</time></trkpt><trkpt lat="40.5397469" lon="16.6343301"><ele>62.0</ele><time>2026-04-26T13:16:53.486Z</time></trkpt><trkpt lat="40.5398166" lon="16.6341159"><ele>62.0</ele><time>2026-04-26T13:16:54.484Z</time></trkpt><trkpt lat="40.5398875" lon="16.6339082"><ele>62.0</ele><time>2026-04-26T13:16:55.485Z</time></trkpt><trkpt lat="40.5399683" lon="16.6337143"><ele>60.0</ele><time>2026-04-26T13:16:56.485Z</time></trkpt><trkpt lat="40.5400716" lon="16.6335383"><ele>58.0</ele><time>2026-04-26T13:16:57.485Z</time></trkpt><trkpt lat="40.5402" lon="16.6333881"><ele>56.0</ele><time>2026-04-26T13:16:58.484Z</time></trkpt><trkpt lat="40.5403513" lon="16.6332667"><ele>58.0</ele><time>2026-04-26T13:16:59.485Z</time></trkpt><trkpt lat="40.5405181" lon="16.6331795"><ele>60.0</ele><time>2026-04-26T13:17:00.485Z</time></trkpt><trkpt lat="40.5406932" lon="16.633117"><ele>62.0</ele><time>2026-04-26T13:17:01.484Z</time></trkpt><trkpt lat="40.54087" lon="16.6330594"><ele>62.0</ele><time>2026-04-26T13:17:02.485Z</time></trkpt><trkpt lat="40.5410457" lon="16.6330016"><ele>62.0</ele><time>2026-04-26T13:17:03.486Z</time></trkpt><trkpt lat="40.5412195" lon="16.6329424"><ele>62.0</ele><time>2026-04-26T13:17:04.486Z</time></trkpt><trkpt lat="40.54139" lon="16.6328807"><ele>61.66666666666667</ele><time>2026-04-26T13:17:05.485Z</time></trkpt><trkpt lat="40.5415585" lon="16.6328168"><ele>61.33333333333333</ele><time>2026-04-26T13:17:06.484Z</time></trkpt><trkpt lat="40.5417236" lon="16.6327595"><ele>61.0</ele><time>2026-04-26T13:17:07.484Z</time></trkpt><trkpt lat="40.5418857" lon="16.632705"><ele>60.33333333333333</ele><time>2026-04-26T13:17:08.486Z</time></trkpt><trkpt lat="40.5420452" lon="16.6326518"><ele>59.66666666666667</ele><time>2026-04-26T13:17:09.485Z</time></trkpt><trkpt lat="40.542198" lon="16.632599"><ele>59.0</ele><time>2026-04-26T13:17:10.484Z</time></trkpt><trkpt lat="40.5423401" lon="16.6325515"><ele>59.0</ele><time>2026-04-26T13:17:11.485Z</time></trkpt><trkpt lat="40.5424702" lon="16.6325069"><ele>59.0</ele><time>2026-04-26T13:17:12.486Z</time></trkpt><trkpt lat="40.5425958" lon="16.6324621"><ele>59.0</ele><time>2026-04-26T13:17:13.485Z</time></trkpt><trkpt lat="40.5427219" lon="16.632416"><ele>59.0</ele><time>2026-04-26T13:17:14.485Z</time></trkpt><trkpt lat="40.5428483" lon="16.6323693"><ele>59.0</ele><time>2026-04-26T13:17:15.485Z</time></trkpt><trkpt lat="40.5429721" lon="16.6323211"><ele>59.0</ele><time>2026-04-26T13:17:16.485Z</time></trkpt><trkpt lat="40.5430952" lon="16.6322751"><ele>59.0</ele><time>2026-04-26T13:17:17.486Z</time></trkpt><trkpt lat="40.5432168" lon="16.6322333"><ele>59.0</ele><time>2026-04-26T13:17:18.485Z</time></trkpt><trkpt lat="40.54334" lon="16.6321915"><ele>59.0</ele><time>2026-04-26T13:17:19.485Z</time></trkpt><trkpt lat="40.5434631" lon="16.6321482"><ele>59.0</ele><time>2026-04-26T13:17:20.485Z</time></trkpt><trkpt lat="40.5435878" lon="16.6321033"><ele>59.0</ele><time>2026-04-26T13:17:21.485Z</time></trkpt><trkpt lat="40.5437133" lon="16.6320606"><ele>59.0</ele><time>2026-04-26T13:17:22.485Z</time></trkpt><trkpt lat="40.5438315" lon="16.6320172"><ele>58.800000000000004</ele><time>2026-04-26T13:17:23.485Z</time></trkpt><trkpt lat="40.543937" lon="16.6319786"><ele>58.60000000000001</ele><time>2026-04-26T13:17:24.486Z</time></trkpt><trkpt lat="40.54402" lon="16.6319467"><ele>58.4</ele><time>2026-04-26T13:17:25.485Z</time></trkpt><trkpt lat="40.54408" lon="16.631915"><ele>58.2</ele><time>2026-04-26T13:17:26.485Z</time></trkpt><trkpt lat="40.5441067" lon="16.6318033"><ele>58.0</ele><time>2026-04-26T13:17:28.485Z</time></trkpt><trkpt lat="40.5440783" lon="16.6316517"><ele>58.0</ele><time>2026-04-26T13:17:30.485Z</time></trkpt><trkpt lat="40.54405" lon="16.6315467"><ele>58.0</ele><time>2026-04-26T13:17:31.485Z</time></trkpt><trkpt lat="40.5440217" lon="16.63142"><ele>58.0</ele><time>2026-04-26T13:17:32.487Z</time></trkpt><trkpt lat="40.5439933" lon="16.6312867"><ele>58.0</ele><time>2026-04-26T13:17:33.486Z</time></trkpt><trkpt lat="40.5439617" lon="16.6311633"><ele>58.0</ele><time>2026-04-26T13:17:34.486Z</time></trkpt><trkpt lat="40.54392" lon="16.63106"><ele>57.49999999999999</ele><time>2026-04-26T13:17:35.484Z</time></trkpt><trkpt lat="40.5438767" lon="16.630965"><ele>57.0</ele><time>2026-04-26T13:17:36.484Z</time></trkpt><trkpt lat="40.5438367" lon="16.630875"><ele>56.5</ele><time>2026-04-26T13:17:37.485Z</time></trkpt><trkpt lat="40.5438033" lon="16.6307733"><ele>56.0</ele><time>2026-04-26T13:17:38.485Z</time></trkpt><trkpt lat="40.5437733" lon="16.63066"><ele>55.49999999999999</ele><time>2026-04-26T13:17:39.485Z</time></trkpt><trkpt lat="40.5437533" lon="16.6305383"><ele>55.0</ele><time>2026-04-26T13:17:40.485Z</time></trkpt><trkpt lat="40.543745" lon="16.630395"><ele>55.0</ele><time>2026-04-26T13:17:41.485Z</time></trkpt><trkpt lat="40.5437467" lon="16.6302267"><ele>55.0</ele><time>2026-04-26T13:17:42.485Z</time></trkpt><trkpt lat="40.543755" lon="16.6300433"><ele>55.0</ele><time>2026-04-26T13:17:43.485Z</time></trkpt><trkpt lat="40.5437633" lon="16.6298483"><ele>55.0</ele><time>2026-04-26T13:17:44.485Z</time></trkpt><trkpt lat="40.54377" lon="16.62965"><ele>55.0</ele><time>2026-04-26T13:17:45.485Z</time></trkpt><trkpt lat="40.5437683" lon="16.6294567"><ele>55.0</ele><time>2026-04-26T13:17:46.485Z</time></trkpt><trkpt lat="40.54376" lon="16.6292667"><ele>55.0</ele><time>2026-04-26T13:17:47.484Z</time></trkpt><trkpt lat="40.543745" lon="16.62908"><ele>55.0</ele><time>2026-04-26T13:17:48.485Z</time></trkpt><trkpt lat="40.54373" lon="16.6288967"><ele>54.75</ele><time>2026-04-26T13:17:49.485Z</time></trkpt><trkpt lat="40.5437133" lon="16.628715"><ele>54.5</ele><time>2026-04-26T13:17:50.486Z</time></trkpt><trkpt lat="40.5436967" lon="16.628535"><ele>54.25</ele><time>2026-04-26T13:17:51.485Z</time></trkpt><trkpt lat="40.5436767" lon="16.628355"><ele>54.0</ele><time>2026-04-26T13:17:52.485Z</time></trkpt><trkpt lat="40.5436567" lon="16.6281767"><ele>54.25</ele><time>2026-04-26T13:17:53.485Z</time></trkpt><trkpt lat="40.5436367" lon="16.6279983"><ele>54.5</ele><time>2026-04-26T13:17:54.486Z</time></trkpt><trkpt lat="40.54362" lon="16.62782"><ele>54.75</ele><time>2026-04-26T13:17:55.485Z</time></trkpt><trkpt lat="40.5436033" lon="16.6276433"><ele>55.0</ele><time>2026-04-26T13:17:56.488Z</time></trkpt><trkpt lat="40.5435867" lon="16.6274667"><ele>55.0</ele><time>2026-04-26T13:17:57.485Z</time></trkpt><trkpt lat="40.5435667" lon="16.6272967"><ele>55.0</ele><time>2026-04-26T13:17:58.485Z</time></trkpt><trkpt lat="40.54355" lon="16.62713"><ele>55.0</ele><time>2026-04-26T13:17:59.485Z</time></trkpt><trkpt lat="40.5435367" lon="16.6269767"><ele>55.0</ele><time>2026-04-26T13:18:00.485Z</time></trkpt><trkpt lat="40.543525" lon="16.62682"><ele>55.0</ele><time>2026-04-26T13:18:01.485Z</time></trkpt><trkpt lat="40.5435067" lon="16.6266467"><ele>55.0</ele><time>2026-04-26T13:18:02.485Z</time></trkpt><trkpt lat="40.54349" lon="16.6264733"><ele>55.0</ele><time>2026-04-26T13:18:03.486Z</time></trkpt><trkpt lat="40.543475" lon="16.626305"><ele>55.0</ele><time>2026-04-26T13:18:04.485Z</time></trkpt><trkpt lat="40.5434617" lon="16.6261417"><ele>54.2</ele><time>2026-04-26T13:18:05.485Z</time></trkpt><trkpt lat="40.5434467" lon="16.625985"><ele>53.4</ele><time>2026-04-26T13:18:06.485Z</time></trkpt><trkpt lat="40.5434317" lon="16.6258383"><ele>52.599999999999994</ele><time>2026-04-26T13:18:07.485Z</time></trkpt><trkpt lat="40.5434233" lon="16.625705"><ele>51.8</ele><time>2026-04-26T13:18:08.485Z</time></trkpt><trkpt lat="40.5434217" lon="16.62557"><ele>51.0</ele><time>2026-04-26T13:18:09.485Z</time></trkpt><trkpt lat="40.54343" lon="16.62543"><ele>49.599999999999994</ele><time>2026-04-26T13:18:10.484Z</time></trkpt><trkpt lat="40.543445" lon="16.6252917"><ele>48.2</ele><time>2026-04-26T13:18:11.485Z</time></trkpt><trkpt lat="40.543465" lon="16.625155"><ele>46.8</ele><time>2026-04-26T13:18:12.487Z</time></trkpt><trkpt lat="40.543485" lon="16.6250183"><ele>45.400000000000006</ele><time>2026-04-26T13:18:13.485Z</time></trkpt><trkpt lat="40.543505" lon="16.6248817"><ele>44.0</ele><time>2026-04-26T13:18:14.485Z</time></trkpt><trkpt lat="40.5435267" lon="16.62475"><ele>44.0</ele><time>2026-04-26T13:18:15.485Z</time></trkpt><trkpt lat="40.5435467" lon="16.624615"><ele>44.0</ele><time>2026-04-26T13:18:16.486Z</time></trkpt><trkpt lat="40.5435667" lon="16.6244783"><ele>44.0</ele><time>2026-04-26T13:18:17.49Z</time></trkpt><trkpt lat="40.5435867" lon="16.62434"><ele>44.0</ele><time>2026-04-26T13:18:18.485Z</time></trkpt><trkpt lat="40.543605" lon="16.6242017"><ele>44.0</ele><time>2026-04-26T13:18:19.485Z</time></trkpt><trkpt lat="40.5436267" lon="16.624065"><ele>43.400000000000006</ele><time>2026-04-26T13:18:20.487Z</time></trkpt><trkpt lat="40.5436467" lon="16.62393"><ele>42.8</ele><time>2026-04-26T13:18:21.485Z</time></trkpt><trkpt lat="40.5436667" lon="16.623805"><ele>42.2</ele><time>2026-04-26T13:18:22.485Z</time></trkpt><trkpt lat="40.5436817" lon="16.6236883"><ele>41.599999999999994</ele><time>2026-04-26T13:18:23.485Z</time></trkpt><trkpt lat="40.5436967" lon="16.623575"><ele>41.0</ele><time>2026-04-26T13:18:24.485Z</time></trkpt><trkpt lat="40.54371" lon="16.6234617"><ele>40.83333333333333</ele><time>2026-04-26T13:18:25.487Z</time></trkpt><trkpt lat="40.5437267" lon="16.6233467"><ele>40.666666666666664</ele><time>2026-04-26T13:18:26.486Z</time></trkpt><trkpt lat="40.5437417" lon="16.6232333"><ele>40.5</ele><time>2026-04-26T13:18:27.486Z</time></trkpt><trkpt lat="40.5437583" lon="16.6231217"><ele>40.333333333333336</ele><time>2026-04-26T13:18:28.485Z</time></trkpt><trkpt lat="40.5437717" lon="16.623015"><ele>40.16666666666667</ele><time>2026-04-26T13:18:29.485Z</time></trkpt><trkpt lat="40.543785" lon="16.622915"><ele>40.0</ele><time>2026-04-26T13:18:30.485Z</time></trkpt><trkpt lat="40.5437983" lon="16.6228217"><ele>40.66666666666667</ele><time>2026-04-26T13:18:31.486Z</time></trkpt><trkpt lat="40.543815" lon="16.6227217"><ele>41.333333333333336</ele><time>2026-04-26T13:18:32.485Z</time></trkpt><trkpt lat="40.543835" lon="16.6226167"><ele>42.0</ele><time>2026-04-26T13:18:33.489Z</time></trkpt><trkpt lat="40.5438567" lon="16.6225033"><ele>42.666666666666664</ele><time>2026-04-26T13:18:34.485Z</time></trkpt><trkpt lat="40.5438733" lon="16.62238"><ele>43.33333333333333</ele><time>2026-04-26T13:18:35.485Z</time></trkpt><trkpt lat="40.5438917" lon="16.6222567"><ele>44.0</ele><time>2026-04-26T13:18:36.485Z</time></trkpt><trkpt lat="40.5439083" lon="16.6221333"><ele>44.0</ele><time>2026-04-26T13:18:37.485Z</time></trkpt><trkpt lat="40.54392" lon="16.6220117"><ele>44.0</ele><time>2026-04-26T13:18:38.486Z</time></trkpt><trkpt lat="40.5439133" lon="16.6218833"><ele>44.0</ele><time>2026-04-26T13:18:39.485Z</time></trkpt><trkpt lat="40.5438917" lon="16.62175"><ele>44.0</ele><time>2026-04-26T13:18:40.485Z</time></trkpt><trkpt lat="40.5438517" lon="16.621605"><ele>44.0</ele><time>2026-04-26T13:18:41.485Z</time></trkpt><trkpt lat="40.543805" lon="16.6214683"><ele>45.33333333333333</ele><time>2026-04-26T13:18:42.486Z</time></trkpt><trkpt lat="40.54376" lon="16.6213517"><ele>46.666666666666664</ele><time>2026-04-26T13:18:43.485Z</time></trkpt><trkpt lat="40.5437183" lon="16.6212483"><ele>48.0</ele><time>2026-04-26T13:18:44.485Z</time></trkpt><trkpt lat="40.5436883" lon="16.6211533"><ele>49.33333333333333</ele><time>2026-04-26T13:18:45.485Z</time></trkpt><trkpt lat="40.543675" lon="16.6210617"><ele>50.666666666666664</ele><time>2026-04-26T13:18:46.485Z</time></trkpt><trkpt lat="40.5436783" lon="16.6209583"><ele>52.0</ele><time>2026-04-26T13:18:47.486Z</time></trkpt><trkpt lat="40.5437083" lon="16.6208383"><ele>53.0</ele><time>2026-04-26T13:18:48.485Z</time></trkpt><trkpt lat="40.54375" lon="16.620705"><ele>54.0</ele><time>2026-04-26T13:18:49.486Z</time></trkpt><trkpt lat="40.5437867" lon="16.6205483"><ele>55.0</ele><time>2026-04-26T13:18:50.485Z</time></trkpt><trkpt lat="40.5438183" lon="16.620365"><ele>56.0</ele><time>2026-04-26T13:18:51.486Z</time></trkpt><trkpt lat="40.5438567" lon="16.6201717"><ele>56.0</ele><time>2026-04-26T13:18:52.485Z</time></trkpt><trkpt lat="40.5439017" lon="16.6199683"><ele>56.0</ele><time>2026-04-26T13:18:53.485Z</time></trkpt><trkpt lat="40.5439483" lon="16.6197617"><ele>56.0</ele><time>2026-04-26T13:18:54.485Z</time></trkpt><trkpt lat="40.543995" lon="16.6195517"><ele>55.333333333333336</ele><time>2026-04-26T13:18:55.491Z</time></trkpt><trkpt lat="40.5440417" lon="16.6193367"><ele>54.66666666666667</ele><time>2026-04-26T13:18:56.485Z</time></trkpt><trkpt lat="40.54409" lon="16.6191233"><ele>54.0</ele><time>2026-04-26T13:18:57.485Z</time></trkpt><trkpt lat="40.5441367" lon="16.618915"><ele>54.0</ele><time>2026-04-26T13:18:58.485Z</time></trkpt><trkpt lat="40.54418" lon="16.618715"><ele>54.0</ele><time>2026-04-26T13:18:59.487Z</time></trkpt><trkpt lat="40.54422" lon="16.6185283"><ele>54.0</ele><time>2026-04-26T13:19:00.485Z</time></trkpt><trkpt lat="40.5442567" lon="16.6183583"><ele>54.0</ele><time>2026-04-26T13:19:01.486Z</time></trkpt><trkpt lat="40.5442933" lon="16.6182"><ele>54.5</ele><time>2026-04-26T13:19:02.486Z</time></trkpt><trkpt lat="40.5443283" lon="16.6180467"><ele>55.0</ele><time>2026-04-26T13:19:03.485Z</time></trkpt><trkpt lat="40.5443617" lon="16.6178967"><ele>55.5</ele><time>2026-04-26T13:19:04.485Z</time></trkpt><trkpt lat="40.5443967" lon="16.617745"><ele>56.0</ele><time>2026-04-26T13:19:05.485Z</time></trkpt><trkpt lat="40.5444333" lon="16.6175883"><ele>56.25</ele><time>2026-04-26T13:19:06.485Z</time></trkpt><trkpt lat="40.5444683" lon="16.6174317"><ele>56.5</ele><time>2026-04-26T13:19:07.485Z</time></trkpt><trkpt lat="40.5445017" lon="16.617275"><ele>56.75</ele><time>2026-04-26T13:19:08.487Z</time></trkpt><trkpt lat="40.5445317" lon="16.61712"><ele>57.0</ele><time>2026-04-26T13:19:09.484Z</time></trkpt><trkpt lat="40.544565" lon="16.6169667"><ele>55.75</ele><time>2026-04-26T13:19:10.485Z</time></trkpt><trkpt lat="40.5445967" lon="16.6168133"><ele>54.5</ele><time>2026-04-26T13:19:11.485Z</time></trkpt><trkpt lat="40.5446283" lon="16.6166583"><ele>53.25</ele><time>2026-04-26T13:19:12.485Z</time></trkpt><trkpt lat="40.54466" lon="16.616495"><ele>52.0</ele><time>2026-04-26T13:19:13.485Z</time></trkpt><trkpt lat="40.5446933" lon="16.6163233"><ele>53.0</ele><time>2026-04-26T13:19:14.486Z</time></trkpt><trkpt lat="40.5447283" lon="16.6161467"><ele>54.0</ele><time>2026-04-26T13:19:15.485Z</time></trkpt><trkpt lat="40.5447667" lon="16.6159683"><ele>55.0</ele><time>2026-04-26T13:19:16.485Z</time></trkpt><trkpt lat="40.5448067" lon="16.6157933"><ele>56.0</ele><time>2026-04-26T13:19:17.485Z</time></trkpt><trkpt lat="40.5448433" lon="16.6156217"><ele>56.0</ele><time>2026-04-26T13:19:18.485Z</time></trkpt><trkpt lat="40.54488" lon="16.6154533"><ele>56.0</ele><time>2026-04-26T13:19:19.485Z</time></trkpt><trkpt lat="40.5449133" lon="16.615285"><ele>56.0</ele><time>2026-04-26T13:19:20.486Z</time></trkpt><trkpt lat="40.5449483" lon="16.6151217"><ele>56.0</ele><time>2026-04-26T13:19:21.485Z</time></trkpt><trkpt lat="40.544985" lon="16.61496"><ele>56.25</ele><time>2026-04-26T13:19:22.485Z</time></trkpt><trkpt lat="40.5450217" lon="16.6147967"><ele>56.5</ele><time>2026-04-26T13:19:23.485Z</time></trkpt><trkpt lat="40.5450583" lon="16.614635"><ele>56.75</ele><time>2026-04-26T13:19:24.486Z</time></trkpt><trkpt lat="40.5450933" lon="16.614475"><ele>57.0</ele><time>2026-04-26T13:19:25.485Z</time></trkpt><trkpt lat="40.5451267" lon="16.6143133"><ele>57.0</ele><time>2026-04-26T13:19:26.486Z</time></trkpt><trkpt lat="40.5451617" lon="16.6141533"><ele>57.0</ele><time>2026-04-26T13:19:27.485Z</time></trkpt><trkpt lat="40.545195" lon="16.613995"><ele>57.0</ele><time>2026-04-26T13:19:28.485Z</time></trkpt><trkpt lat="40.5452317" lon="16.6138383"><ele>57.0</ele><time>2026-04-26T13:19:29.487Z</time></trkpt><trkpt lat="40.545265" lon="16.61368"><ele>57.25</ele><time>2026-04-26T13:19:30.485Z</time></trkpt><trkpt lat="40.5452983" lon="16.61352"><ele>57.5</ele><time>2026-04-26T13:19:31.486Z</time></trkpt><trkpt lat="40.545335" lon="16.61336"><ele>57.75</ele><time>2026-04-26T13:19:32.486Z</time></trkpt><trkpt lat="40.54537" lon="16.6131983"><ele>58.0</ele><time>2026-04-26T13:19:33.487Z</time></trkpt><trkpt lat="40.5454033" lon="16.6130333"><ele>58.0</ele><time>2026-04-26T13:19:34.487Z</time></trkpt><trkpt lat="40.5454383" lon="16.6128683"><ele>58.0</ele><time>2026-04-26T13:19:35.489Z</time></trkpt><trkpt lat="40.5454717" lon="16.6127033"><ele>58.0</ele><time>2026-04-26T13:19:36.486Z</time></trkpt><trkpt lat="40.5455067" lon="16.61254"><ele>58.0</ele><time>2026-04-26T13:19:37.485Z</time></trkpt><trkpt lat="40.54554" lon="16.6123833"><ele>58.0</ele><time>2026-04-26T13:19:38.486Z</time></trkpt><trkpt lat="40.54557" lon="16.6122383"><ele>58.0</ele><time>2026-04-26T13:19:39.487Z</time></trkpt><trkpt lat="40.5456017" lon="16.612105"><ele>58.0</ele><time>2026-04-26T13:19:40.485Z</time></trkpt><trkpt lat="40.5456217" lon="16.6119717"><ele>58.0</ele><time>2026-04-26T13:19:41.485Z</time></trkpt><trkpt lat="40.54562" lon="16.6118367"><ele>58.0</ele><time>2026-04-26T13:19:42.486Z</time></trkpt><trkpt lat="40.5455983" lon="16.6117067"><ele>57.599999999999994</ele><time>2026-04-26T13:19:43.489Z</time></trkpt><trkpt lat="40.5455567" lon="16.6115817"><ele>57.199999999999996</ele><time>2026-04-26T13:19:44.486Z</time></trkpt><trkpt lat="40.5455017" lon="16.6114533"><ele>56.8</ele><time>2026-04-26T13:19:45.485Z</time></trkpt><trkpt lat="40.5454467" lon="16.6113183"><ele>56.4</ele><time>2026-04-26T13:19:46.486Z</time></trkpt><trkpt lat="40.5453883" lon="16.6111933"><ele>56.0</ele><time>2026-04-26T13:19:47.485Z</time></trkpt><trkpt lat="40.5453233" lon="16.6110817"><ele>58.8</ele><time>2026-04-26T13:19:48.486Z</time></trkpt><trkpt lat="40.5452517" lon="16.6109833"><ele>61.599999999999994</ele><time>2026-04-26T13:19:49.486Z</time></trkpt><trkpt lat="40.54519" lon="16.6108867"><ele>64.4</ele><time>2026-04-26T13:19:50.485Z</time></trkpt><trkpt lat="40.5451417" lon="16.61078"><ele>67.2</ele><time>2026-04-26T13:19:51.486Z</time></trkpt><trkpt lat="40.5451117" lon="16.6106683"><ele>70.0</ele><time>2026-04-26T13:19:52.485Z</time></trkpt><trkpt lat="40.5451017" lon="16.610545"><ele>70.0</ele><time>2026-04-26T13:19:53.485Z</time></trkpt><trkpt lat="40.545115" lon="16.6104033"><ele>70.0</ele><time>2026-04-26T13:19:54.485Z</time></trkpt><trkpt lat="40.545155" lon="16.610265"><ele>70.0</ele><time>2026-04-26T13:19:55.486Z</time></trkpt><trkpt lat="40.5452117" lon="16.610135"><ele>70.0</ele><time>2026-04-26T13:19:56.485Z</time></trkpt><trkpt lat="40.5452867" lon="16.6100017"><ele>70.5</ele><time>2026-04-26T13:19:57.485Z</time></trkpt><trkpt lat="40.5453683" lon="16.60986"><ele>71.0</ele><time>2026-04-26T13:19:58.485Z</time></trkpt><trkpt lat="40.5454417" lon="16.6097033"><ele>71.5</ele><time>2026-04-26T13:19:59.487Z</time></trkpt><trkpt lat="40.5455083" lon="16.609535"><ele>72.0</ele><time>2026-04-26T13:20:00.485Z</time></trkpt><trkpt lat="40.545565" lon="16.60937"><ele>69.0</ele><time>2026-04-26T13:20:01.485Z</time></trkpt><trkpt lat="40.5456117" lon="16.609215"><ele>66.0</ele><time>2026-04-26T13:20:02.486Z</time></trkpt><trkpt lat="40.5456467" lon="16.609065"><ele>63.0</ele><time>2026-04-26T13:20:03.485Z</time></trkpt><trkpt lat="40.54567" lon="16.6089117"><ele>60.0</ele><time>2026-04-26T13:20:04.485Z</time></trkpt><trkpt lat="40.545675" lon="16.6087467"><ele>59.5</ele><time>2026-04-26T13:20:05.485Z</time></trkpt><trkpt lat="40.5456617" lon="16.6085667"><ele>59.0</ele><time>2026-04-26T13:20:06.486Z</time></trkpt><trkpt lat="40.54563" lon="16.608375"><ele>58.5</ele><time>2026-04-26T13:20:07.486Z</time></trkpt><trkpt lat="40.5455833" lon="16.6081817"><ele>58.0</ele><time>2026-04-26T13:20:08.486Z</time></trkpt><trkpt lat="40.5455267" lon="16.6079933"><ele>58.5</ele><time>2026-04-26T13:20:09.485Z</time></trkpt><trkpt lat="40.5454667" lon="16.6078117"><ele>59.0</ele><time>2026-04-26T13:20:10.485Z</time></trkpt><trkpt lat="40.5454" lon="16.6076383"><ele>59.5</ele><time>2026-04-26T13:20:11.485Z</time></trkpt><trkpt lat="40.5453283" lon="16.6074733"><ele>60.0</ele><time>2026-04-26T13:20:12.485Z</time></trkpt><trkpt lat="40.5452533" lon="16.6073233"><ele>61.0</ele><time>2026-04-26T13:20:13.497Z</time></trkpt><trkpt lat="40.54519" lon="16.6071767"><ele>62.0</ele><time>2026-04-26T13:20:14.484Z</time></trkpt><trkpt lat="40.5451467" lon="16.6070183"><ele>63.0</ele><time>2026-04-26T13:20:15.485Z</time></trkpt><trkpt lat="40.5451267" lon="16.6068483"><ele>64.0</ele><time>2026-04-26T13:20:16.486Z</time></trkpt><trkpt lat="40.545125" lon="16.6066667"><ele>64.25</ele><time>2026-04-26T13:20:17.485Z</time></trkpt><trkpt lat="40.5451333" lon="16.6064883"><ele>64.5</ele><time>2026-04-26T13:20:18.485Z</time></trkpt><trkpt lat="40.5451367" lon="16.606325"><ele>64.75</ele><time>2026-04-26T13:20:19.487Z</time></trkpt><trkpt lat="40.5451217" lon="16.6061683"><ele>65.0</ele><time>2026-04-26T13:20:20.485Z</time></trkpt><trkpt lat="40.5450967" lon="16.6060117"><ele>65.25</ele><time>2026-04-26T13:20:21.485Z</time></trkpt><trkpt lat="40.54506" lon="16.6058633"><ele>65.5</ele><time>2026-04-26T13:20:22.485Z</time></trkpt><trkpt lat="40.5450117" lon="16.6057233"><ele>65.75</ele><time>2026-04-26T13:20:23.486Z</time></trkpt><trkpt lat="40.544945" lon="16.6055917"><ele>66.0</ele><time>2026-04-26T13:20:24.485Z</time></trkpt><trkpt lat="40.5448633" lon="16.605465"><ele>66.0</ele><time>2026-04-26T13:20:25.485Z</time></trkpt><trkpt lat="40.544775" lon="16.60535"><ele>66.0</ele><time>2026-04-26T13:20:26.486Z</time></trkpt><trkpt lat="40.5446783" lon="16.6052417"><ele>66.0</ele><time>2026-04-26T13:20:27.486Z</time></trkpt><trkpt lat="40.54457" lon="16.605145"><ele>66.0</ele><time>2026-04-26T13:20:28.485Z</time></trkpt><trkpt lat="40.5444583" lon="16.60506"><ele>66.5</ele><time>2026-04-26T13:20:29.486Z</time></trkpt><trkpt lat="40.5443533" lon="16.60498"><ele>67.0</ele><time>2026-04-26T13:20:30.486Z</time></trkpt><trkpt lat="40.5442617" lon="16.6048867"><ele>67.5</ele><time>2026-04-26T13:20:31.486Z</time></trkpt><trkpt lat="40.5441867" lon="16.6047767"><ele>68.0</ele><time>2026-04-26T13:20:32.486Z</time></trkpt><trkpt lat="40.5441333" lon="16.604645"><ele>66.75</ele><time>2026-04-26T13:20:33.485Z</time></trkpt><trkpt lat="40.5441017" lon="16.604495"><ele>65.5</ele><time>2026-04-26T13:20:34.486Z</time></trkpt><trkpt lat="40.5440867" lon="16.60434"><ele>64.25</ele><time>2026-04-26T13:20:35.488Z</time></trkpt><trkpt lat="40.5440917" lon="16.6041867"><ele>63.0</ele><time>2026-04-26T13:20:36.486Z</time></trkpt><trkpt lat="40.5441183" lon="16.6040317"><ele>63.0</ele><time>2026-04-26T13:20:37.485Z</time></trkpt><trkpt lat="40.5441683" lon="16.6038833"><ele>63.0</ele><time>2026-04-26T13:20:38.486Z</time></trkpt><trkpt lat="40.54424" lon="16.6037467"><ele>63.0</ele><time>2026-04-26T13:20:39.485Z</time></trkpt><trkpt lat="40.5443217" lon="16.603615"><ele>63.0</ele><time>2026-04-26T13:20:40.485Z</time></trkpt><trkpt lat="40.5444" lon="16.6034833"><ele>63.0</ele><time>2026-04-26T13:20:41.487Z</time></trkpt><trkpt lat="40.544465" lon="16.6033533"><ele>63.0</ele><time>2026-04-26T13:20:42.485Z</time></trkpt><trkpt lat="40.5445183" lon="16.603215"><ele>63.0</ele><time>2026-04-26T13:20:43.485Z</time></trkpt><trkpt lat="40.5445417" lon="16.603065"><ele>63.0</ele><time>2026-04-26T13:20:44.486Z</time></trkpt><trkpt lat="40.5445383" lon="16.6029033"><ele>62.75</ele><time>2026-04-26T13:20:45.486Z</time></trkpt><trkpt lat="40.54452" lon="16.602735"><ele>62.5</ele><time>2026-04-26T13:20:46.486Z</time></trkpt><trkpt lat="40.5444917" lon="16.602565"><ele>62.25</ele><time>2026-04-26T13:20:47.485Z</time></trkpt><trkpt lat="40.5444583" lon="16.6023917"><ele>62.0</ele><time>2026-04-26T13:20:48.489Z</time></trkpt><trkpt lat="40.54442" lon="16.6022167"><ele>62.0</ele><time>2026-04-26T13:20:49.486Z</time></trkpt><trkpt lat="40.54438" lon="16.602045"><ele>62.0</ele><time>2026-04-26T13:20:50.486Z</time></trkpt><trkpt lat="40.5443367" lon="16.60188"><ele>62.0</ele><time>2026-04-26T13:20:51.485Z</time></trkpt><trkpt lat="40.5442967" lon="16.6017233"><ele>62.0</ele><time>2026-04-26T13:20:52.486Z</time></trkpt><trkpt lat="40.5442617" lon="16.6015717"><ele>62.5</ele><time>2026-04-26T13:20:53.485Z</time></trkpt><trkpt lat="40.5442333" lon="16.601425"><ele>63.0</ele><time>2026-04-26T13:20:54.487Z</time></trkpt><trkpt lat="40.5442" lon="16.6012767"><ele>63.5</ele><time>2026-04-26T13:20:55.487Z</time></trkpt><trkpt lat="40.5441617" lon="16.60112"><ele>64.0</ele><time>2026-04-26T13:20:56.486Z</time></trkpt><trkpt lat="40.5441233" lon="16.6009767"><ele>64.0</ele><time>2026-04-26T13:20:57.49Z</time></trkpt><trkpt lat="40.5440817" lon="16.6008483"><ele>64.0</ele><time>2026-04-26T13:20:58.487Z</time></trkpt><trkpt lat="40.5440233" lon="16.600735"><ele>64.0</ele><time>2026-04-26T13:20:59.485Z</time></trkpt><trkpt lat="40.5439417" lon="16.6006283"><ele>64.0</ele><time>2026-04-26T13:21:00.485Z</time></trkpt><trkpt lat="40.5438367" lon="16.600525"><ele>64.0</ele><time>2026-04-26T13:21:01.486Z</time></trkpt><trkpt lat="40.5437217" lon="16.6004233"><ele>64.0</ele><time>2026-04-26T13:21:02.486Z</time></trkpt><trkpt lat="40.5436067" lon="16.600325"><ele>64.0</ele><time>2026-04-26T13:21:03.485Z</time></trkpt><trkpt lat="40.5434883" lon="16.6002267"><ele>64.0</ele><time>2026-04-26T13:21:04.486Z</time></trkpt><trkpt lat="40.5433733" lon="16.6001283"><ele>64.25</ele><time>2026-04-26T13:21:05.485Z</time></trkpt><trkpt lat="40.5432583" lon="16.600025"><ele>64.5</ele><time>2026-04-26T13:21:06.485Z</time></trkpt><trkpt lat="40.5431433" lon="16.59992"><ele>64.75</ele><time>2026-04-26T13:21:07.486Z</time></trkpt><trkpt lat="40.5430317" lon="16.599815"><ele>65.0</ele><time>2026-04-26T13:21:08.486Z</time></trkpt><trkpt lat="40.5429233" lon="16.5997167"><ele>66.0</ele><time>2026-04-26T13:21:09.485Z</time></trkpt><trkpt lat="40.5428233" lon="16.599625"><ele>67.0</ele><time>2026-04-26T13:21:10.487Z</time></trkpt><trkpt lat="40.5427333" lon="16.5995383"><ele>68.0</ele><time>2026-04-26T13:21:11.485Z</time></trkpt><trkpt lat="40.5426533" lon="16.5994517"><ele>69.0</ele><time>2026-04-26T13:21:12.487Z</time></trkpt><trkpt lat="40.5425917" lon="16.5993567"><ele>70.0</ele><time>2026-04-26T13:21:13.485Z</time></trkpt><trkpt lat="40.542555" lon="16.5992567"><ele>70.16666666666666</ele><time>2026-04-26T13:21:14.485Z</time></trkpt><trkpt lat="40.5425433" lon="16.5991567"><ele>70.33333333333333</ele><time>2026-04-26T13:21:15.485Z</time></trkpt><trkpt lat="40.5425617" lon="16.59905"><ele>70.5</ele><time>2026-04-26T13:21:16.485Z</time></trkpt><trkpt lat="40.542615" lon="16.598965"><ele>70.66666666666667</ele><time>2026-04-26T13:21:17.484Z</time></trkpt><trkpt lat="40.542685" lon="16.5988983"><ele>70.83333333333334</ele><time>2026-04-26T13:21:18.484Z</time></trkpt><trkpt lat="40.542785" lon="16.5988533"><ele>71.0</ele><time>2026-04-26T13:21:19.484Z</time></trkpt><trkpt lat="40.5428983" lon="16.59883"><ele>70.39999999999999</ele><time>2026-04-26T13:21:20.485Z</time></trkpt><trkpt lat="40.5429933" lon="16.5987983"><ele>69.8</ele><time>2026-04-26T13:21:21.485Z</time></trkpt><trkpt lat="40.54307" lon="16.598745"><ele>69.19999999999999</ele><time>2026-04-26T13:21:22.486Z</time></trkpt><trkpt lat="40.5430967" lon="16.5986433"><ele>68.6</ele><time>2026-04-26T13:21:23.484Z</time></trkpt><trkpt lat="40.543095" lon="16.598505"><ele>68.0</ele><time>2026-04-26T13:21:24.484Z</time></trkpt><trkpt lat="40.5430733" lon="16.598345"><ele>68.0</ele><time>2026-04-26T13:21:25.484Z</time></trkpt><trkpt lat="40.5430417" lon="16.59817"><ele>68.0</ele><time>2026-04-26T13:21:26.486Z</time></trkpt><trkpt lat="40.543015" lon="16.5979833"><ele>68.0</ele><time>2026-04-26T13:21:27.485Z</time></trkpt><trkpt lat="40.5429917" lon="16.5977933"><ele>68.0</ele><time>2026-04-26T13:21:28.485Z</time></trkpt><trkpt lat="40.542975" lon="16.5976083"><ele>68.25</ele><time>2026-04-26T13:21:29.484Z</time></trkpt><trkpt lat="40.5429683" lon="16.5974283"><ele>68.5</ele><time>2026-04-26T13:21:30.484Z</time></trkpt><trkpt lat="40.5429583" lon="16.5972483"><ele>68.75</ele><time>2026-04-26T13:21:31.484Z</time></trkpt><trkpt lat="40.5429433" lon="16.5970733"><ele>69.0</ele><time>2026-04-26T13:21:32.485Z</time></trkpt><trkpt lat="40.5429217" lon="16.5969033"><ele>69.0</ele><time>2026-04-26T13:21:33.484Z</time></trkpt><trkpt lat="40.542895" lon="16.596735"><ele>69.0</ele><time>2026-04-26T13:21:34.486Z</time></trkpt><trkpt lat="40.5428667" lon="16.5965667"><ele>69.0</ele><time>2026-04-26T13:21:35.486Z</time></trkpt><trkpt lat="40.5428383" lon="16.5963967"><ele>69.0</ele><time>2026-04-26T13:21:36.486Z</time></trkpt><trkpt lat="40.5428117" lon="16.59623"><ele>70.0</ele><time>2026-04-26T13:21:37.485Z</time></trkpt><trkpt lat="40.5427883" lon="16.596065"><ele>71.0</ele><time>2026-04-26T13:21:38.485Z</time></trkpt><trkpt lat="40.542765" lon="16.5959017"><ele>72.0</ele><time>2026-04-26T13:21:39.484Z</time></trkpt><trkpt lat="40.54274" lon="16.5957367"><ele>73.0</ele><time>2026-04-26T13:21:40.484Z</time></trkpt><trkpt lat="40.5427133" lon="16.5955733"><ele>73.0</ele><time>2026-04-26T13:21:41.486Z</time></trkpt><trkpt lat="40.54269" lon="16.59541"><ele>73.0</ele><time>2026-04-26T13:21:42.485Z</time></trkpt><trkpt lat="40.5426667" lon="16.5952467"><ele>73.0</ele><time>2026-04-26T13:21:43.485Z</time></trkpt><trkpt lat="40.542645" lon="16.5950833"><ele>73.0</ele><time>2026-04-26T13:21:44.485Z</time></trkpt><trkpt lat="40.5426183" lon="16.59492"><ele>73.0</ele><time>2026-04-26T13:21:45.485Z</time></trkpt><trkpt lat="40.5425867" lon="16.594755"><ele>73.0</ele><time>2026-04-26T13:21:46.484Z</time></trkpt><trkpt lat="40.5425533" lon="16.5945917"><ele>73.0</ele><time>2026-04-26T13:21:47.485Z</time></trkpt><trkpt lat="40.5425117" lon="16.5944333"><ele>73.0</ele><time>2026-04-26T13:21:48.484Z</time></trkpt><trkpt lat="40.5424633" lon="16.5942767"><ele>73.0</ele><time>2026-04-26T13:21:49.485Z</time></trkpt><trkpt lat="40.542415" lon="16.5941267"><ele>73.0</ele><time>2026-04-26T13:21:50.485Z</time></trkpt><trkpt lat="40.5423683" lon="16.59398"><ele>73.0</ele><time>2026-04-26T13:21:51.485Z</time></trkpt><trkpt lat="40.5423217" lon="16.59384"><ele>73.0</ele><time>2026-04-26T13:21:52.485Z</time></trkpt><trkpt lat="40.5422767" lon="16.5937117"><ele>73.4</ele><time>2026-04-26T13:21:53.485Z</time></trkpt><trkpt lat="40.5422317" lon="16.5935867"><ele>73.8</ele><time>2026-04-26T13:21:54.485Z</time></trkpt><trkpt lat="40.5421867" lon="16.5934617"><ele>74.2</ele><time>2026-04-26T13:21:55.484Z</time></trkpt><trkpt lat="40.5421433" lon="16.5933233"><ele>74.6</ele><time>2026-04-26T13:21:56.486Z</time></trkpt><trkpt lat="40.5421" lon="16.5931683"><ele>75.0</ele><time>2026-04-26T13:21:57.485Z</time></trkpt><trkpt lat="40.5420633" lon="16.5930017"><ele>75.0</ele><time>2026-04-26T13:21:58.485Z</time></trkpt><trkpt lat="40.54203" lon="16.5928317"><ele>75.0</ele><time>2026-04-26T13:21:59.484Z</time></trkpt><trkpt lat="40.542" lon="16.5926617"><ele>75.0</ele><time>2026-04-26T13:22:00.484Z</time></trkpt><trkpt lat="40.54197" lon="16.5924983"><ele>75.0</ele><time>2026-04-26T13:22:01.484Z</time></trkpt><trkpt lat="40.5419367" lon="16.5923367"><ele>75.0</ele><time>2026-04-26T13:22:02.487Z</time></trkpt><trkpt lat="40.5419017" lon="16.5921767"><ele>75.0</ele><time>2026-04-26T13:22:03.484Z</time></trkpt><trkpt lat="40.5418583" lon="16.59202"><ele>75.0</ele><time>2026-04-26T13:22:04.484Z</time></trkpt><trkpt lat="40.5418117" lon="16.59187"><ele>75.0</ele><time>2026-04-26T13:22:05.484Z</time></trkpt><trkpt lat="40.54176" lon="16.5917217"><ele>75.75</ele><time>2026-04-26T13:22:06.485Z</time></trkpt><trkpt lat="40.5417067" lon="16.5915733"><ele>76.5</ele><time>2026-04-26T13:22:07.484Z</time></trkpt><trkpt lat="40.5416467" lon="16.5914267"><ele>77.25</ele><time>2026-04-26T13:22:08.485Z</time></trkpt><trkpt lat="40.5415783" lon="16.591285"><ele>78.0</ele><time>2026-04-26T13:22:09.484Z</time></trkpt><trkpt lat="40.5415033" lon="16.5911433"><ele>78.5</ele><time>2026-04-26T13:22:10.484Z</time></trkpt><trkpt lat="40.54142" lon="16.5910017"><ele>79.0</ele><time>2026-04-26T13:22:11.484Z</time></trkpt><trkpt lat="40.5413317" lon="16.5908633"><ele>79.5</ele><time>2026-04-26T13:22:12.484Z</time></trkpt><trkpt lat="40.5412367" lon="16.5907283"><ele>80.0</ele><time>2026-04-26T13:22:13.484Z</time></trkpt><trkpt lat="40.5411367" lon="16.5906017"><ele>80.0</ele><time>2026-04-26T13:22:14.485Z</time></trkpt><trkpt lat="40.5410383" lon="16.59048"><ele>80.0</ele><time>2026-04-26T13:22:15.486Z</time></trkpt><trkpt lat="40.5409417" lon="16.59035"><ele>80.0</ele><time>2026-04-26T13:22:16.484Z</time></trkpt><trkpt lat="40.54084" lon="16.5902333"><ele>80.0</ele><time>2026-04-26T13:22:17.486Z</time></trkpt><trkpt lat="40.5407417" lon="16.59012"><ele>80.0</ele><time>2026-04-26T13:22:18.485Z</time></trkpt><trkpt lat="40.5406483" lon="16.5900017"><ele>80.0</ele><time>2026-04-26T13:22:19.484Z</time></trkpt><trkpt lat="40.5405583" lon="16.5898783"><ele>80.0</ele><time>2026-04-26T13:22:20.486Z</time></trkpt><trkpt lat="40.5404767" lon="16.58975"><ele>80.0</ele><time>2026-04-26T13:22:21.484Z</time></trkpt><trkpt lat="40.5404017" lon="16.5896183"><ele>80.0</ele><time>2026-04-26T13:22:22.487Z</time></trkpt><trkpt lat="40.5403417" lon="16.5895033"><ele>80.0</ele><time>2026-04-26T13:22:23.485Z</time></trkpt><trkpt lat="40.5403083" lon="16.5894183"><ele>80.0</ele><time>2026-04-26T13:22:24.484Z</time></trkpt><trkpt lat="40.5403233" lon="16.5893167"><ele>80.0</ele><time>2026-04-26T13:22:26.485Z</time></trkpt><trkpt lat="40.54039" lon="16.58927"><ele>80.0</ele><time>2026-04-26T13:22:28.486Z</time></trkpt><trkpt lat="40.5404967" lon="16.5892267"><ele>80.0</ele><time>2026-04-26T13:22:30.485Z</time></trkpt><trkpt lat="40.5405717" lon="16.5891917"><ele>80.0</ele><time>2026-04-26T13:22:31.485Z</time></trkpt><trkpt lat="40.5406517" lon="16.58915"><ele>80.0</ele><time>2026-04-26T13:22:32.485Z</time></trkpt><trkpt lat="40.54074" lon="16.5891067"><ele>80.0</ele><time>2026-04-26T13:22:33.484Z</time></trkpt><trkpt lat="40.5408383" lon="16.58907"><ele>80.0</ele><time>2026-04-26T13:22:34.485Z</time></trkpt><trkpt lat="40.5409467" lon="16.5890483"><ele>80.0</ele><time>2026-04-26T13:22:35.484Z</time></trkpt><trkpt lat="40.5410617" lon="16.5890417"><ele>80.0</ele><time>2026-04-26T13:22:36.485Z</time></trkpt><trkpt lat="40.5411783" lon="16.58904"><ele>80.0</ele><time>2026-04-26T13:22:37.485Z</time></trkpt><trkpt lat="40.5412933" lon="16.589035"><ele>80.0</ele><time>2026-04-26T13:22:38.486Z</time></trkpt><trkpt lat="40.5414083" lon="16.5890217"><ele>80.0</ele><time>2026-04-26T13:22:39.485Z</time></trkpt><trkpt lat="40.5415217" lon="16.5889917"><ele>80.25</ele><time>2026-04-26T13:22:40.485Z</time></trkpt><trkpt lat="40.5416367" lon="16.588935"><ele>80.5</ele><time>2026-04-26T13:22:41.485Z</time></trkpt><trkpt lat="40.5417467" lon="16.58886"><ele>80.75</ele><time>2026-04-26T13:22:42.484Z</time></trkpt><trkpt lat="40.5418417" lon="16.588765"><ele>81.0</ele><time>2026-04-26T13:22:43.484Z</time></trkpt><trkpt lat="40.5419217" lon="16.5886517"><ele>81.25</ele><time>2026-04-26T13:22:44.485Z</time></trkpt><trkpt lat="40.5419933" lon="16.58853"><ele>81.5</ele><time>2026-04-26T13:22:45.484Z</time></trkpt><trkpt lat="40.5420467" lon="16.588385"><ele>81.75</ele><time>2026-04-26T13:22:46.486Z</time></trkpt><trkpt lat="40.5420883" lon="16.5882317"><ele>82.0</ele><time>2026-04-26T13:22:47.485Z</time></trkpt><trkpt lat="40.5421267" lon="16.58807"><ele>83.0</ele><time>2026-04-26T13:22:48.485Z</time></trkpt><trkpt lat="40.54216" lon="16.5879133"><ele>84.0</ele><time>2026-04-26T13:22:49.485Z</time></trkpt><trkpt lat="40.5421967" lon="16.5877533"><ele>85.0</ele><time>2026-04-26T13:22:50.485Z</time></trkpt><trkpt lat="40.5422317" lon="16.5875967"><ele>86.0</ele><time>2026-04-26T13:22:51.484Z</time></trkpt><trkpt lat="40.5422667" lon="16.58745"><ele>86.0</ele><time>2026-04-26T13:22:52.484Z</time></trkpt><trkpt lat="40.5423017" lon="16.587305"><ele>86.0</ele><time>2026-04-26T13:22:53.484Z</time></trkpt><trkpt lat="40.5423367" lon="16.587155"><ele>86.0</ele><time>2026-04-26T13:22:54.484Z</time></trkpt><trkpt lat="40.54237" lon="16.5870067"><ele>86.0</ele><time>2026-04-26T13:22:55.487Z</time></trkpt><trkpt lat="40.5424033" lon="16.58686"><ele>86.75</ele><time>2026-04-26T13:22:56.486Z</time></trkpt><trkpt lat="40.54244" lon="16.586715"><ele>87.5</ele><time>2026-04-26T13:22:57.485Z</time></trkpt><trkpt lat="40.542475" lon="16.58657"><ele>88.25</ele><time>2026-04-26T13:22:58.488Z</time></trkpt><trkpt lat="40.54251" lon="16.5864283"><ele>89.0</ele><time>2026-04-26T13:22:59.485Z</time></trkpt><trkpt lat="40.5425467" lon="16.5862917"><ele>90.0</ele><time>2026-04-26T13:23:00.485Z</time></trkpt><trkpt lat="40.54259" lon="16.5861583"><ele>91.0</ele><time>2026-04-26T13:23:01.486Z</time></trkpt><trkpt lat="40.542645" lon="16.586035"><ele>92.0</ele><time>2026-04-26T13:23:02.485Z</time></trkpt><trkpt lat="40.5427133" lon="16.5859283"><ele>93.0</ele><time>2026-04-26T13:23:03.484Z</time></trkpt><trkpt lat="40.54279" lon="16.5858433"><ele>94.0</ele><time>2026-04-26T13:23:04.485Z</time></trkpt><trkpt lat="40.54288" lon="16.585785"><ele>94.0</ele><time>2026-04-26T13:23:05.485Z</time></trkpt><trkpt lat="40.5429583" lon="16.585755"><ele>94.0</ele><time>2026-04-26T13:23:06.489Z</time></trkpt><trkpt lat="40.5430267" lon="16.5857333"><ele>94.0</ele><time>2026-04-26T13:23:08.485Z</time></trkpt><trkpt lat="40.5429417" lon="16.58572"><ele>94.0</ele><time>2026-04-26T13:23:15.49Z</time></trkpt><trkpt lat="40.5428283" lon="16.5858017"><ele>94.0</ele><time>2026-04-26T13:23:17.489Z</time></trkpt><trkpt lat="40.54275" lon="16.5858767"><ele>94.0</ele><time>2026-04-26T13:23:18.485Z</time></trkpt><trkpt lat="40.542675" lon="16.5859783"><ele>94.0</ele><time>2026-04-26T13:23:19.485Z</time></trkpt><trkpt lat="40.5426133" lon="16.5860983"><ele>94.0</ele><time>2026-04-26T13:23:20.485Z</time></trkpt><trkpt lat="40.5425633" lon="16.5862333"><ele>94.0</ele><time>2026-04-26T13:23:21.484Z</time></trkpt><trkpt lat="40.54252" lon="16.5863783"><ele>92.75</ele><time>2026-04-26T13:23:22.485Z</time></trkpt><trkpt lat="40.542475" lon="16.5865317"><ele>91.5</ele><time>2026-04-26T13:23:23.485Z</time></trkpt><trkpt lat="40.5424317" lon="16.5866867"><ele>90.25</ele><time>2026-04-26T13:23:24.485Z</time></trkpt><trkpt lat="40.5423917" lon="16.5868467"><ele>89.0</ele><time>2026-04-26T13:23:25.484Z</time></trkpt><trkpt lat="40.5423533" lon="16.5870117"><ele>88.25</ele><time>2026-04-26T13:23:26.485Z</time></trkpt><trkpt lat="40.5423183" lon="16.5871783"><ele>87.5</ele><time>2026-04-26T13:23:27.488Z</time></trkpt><trkpt lat="40.542285" lon="16.5873383"><ele>86.75</ele><time>2026-04-26T13:23:28.485Z</time></trkpt><trkpt lat="40.5422517" lon="16.5874933"><ele>86.0</ele><time>2026-04-26T13:23:29.485Z</time></trkpt><trkpt lat="40.5422167" lon="16.5876367"><ele>86.0</ele><time>2026-04-26T13:23:30.485Z</time></trkpt><trkpt lat="40.542185" lon="16.5877733"><ele>86.0</ele><time>2026-04-26T13:23:31.486Z</time></trkpt><trkpt lat="40.54215" lon="16.5879033"><ele>86.0</ele><time>2026-04-26T13:23:32.485Z</time></trkpt><trkpt lat="40.542115" lon="16.5880383"><ele>86.0</ele><time>2026-04-26T13:23:33.485Z</time></trkpt><trkpt lat="40.5420783" lon="16.5881817"><ele>86.0</ele><time>2026-04-26T13:23:34.486Z</time></trkpt><trkpt lat="40.5420417" lon="16.588325"><ele>85.0</ele><time>2026-04-26T13:23:35.485Z</time></trkpt><trkpt lat="40.542" lon="16.5884617"><ele>84.0</ele><time>2026-04-26T13:23:36.484Z</time></trkpt><trkpt lat="40.5419483" lon="16.5885933"><ele>83.0</ele><time>2026-04-26T13:23:37.485Z</time></trkpt><trkpt lat="40.5418783" lon="16.5887167"><ele>82.0</ele><time>2026-04-26T13:23:38.486Z</time></trkpt><trkpt lat="40.54179" lon="16.588825"><ele>81.8</ele><time>2026-04-26T13:23:39.485Z</time></trkpt><trkpt lat="40.54169" lon="16.5889067"><ele>81.6</ele><time>2026-04-26T13:23:40.485Z</time></trkpt><trkpt lat="40.541585" lon="16.588965"><ele>81.39999999999999</ele><time>2026-04-26T13:23:41.485Z</time></trkpt><trkpt lat="40.5414817" lon="16.58901"><ele>81.19999999999999</ele><time>2026-04-26T13:23:42.485Z</time></trkpt><trkpt lat="40.541375" lon="16.5890383"><ele>81.0</ele><time>2026-04-26T13:23:43.485Z</time></trkpt><trkpt lat="40.5412683" lon="16.5890483"><ele>80.8</ele><time>2026-04-26T13:23:44.486Z</time></trkpt><trkpt lat="40.5411617" lon="16.589045"><ele>80.6</ele><time>2026-04-26T13:23:45.485Z</time></trkpt><trkpt lat="40.5410583" lon="16.5890467"><ele>80.4</ele><time>2026-04-26T13:23:46.485Z</time></trkpt><trkpt lat="40.5409517" lon="16.58906"><ele>80.2</ele><time>2026-04-26T13:23:47.486Z</time></trkpt><trkpt lat="40.5408433" lon="16.58908"><ele>80.0</ele><time>2026-04-26T13:23:48.485Z</time></trkpt><trkpt lat="40.5407383" lon="16.5891117"><ele>80.0</ele><time>2026-04-26T13:23:49.486Z</time></trkpt><trkpt lat="40.540635" lon="16.5891517"><ele>80.0</ele><time>2026-04-26T13:23:50.486Z</time></trkpt><trkpt lat="40.540535" lon="16.5892017"><ele>80.0</ele><time>2026-04-26T13:23:51.485Z</time></trkpt><trkpt lat="40.5404417" lon="16.5892617"><ele>80.0</ele><time>2026-04-26T13:23:52.485Z</time></trkpt><trkpt lat="40.5403617" lon="16.58931"><ele>80.0</ele><time>2026-04-26T13:23:53.487Z</time></trkpt><trkpt lat="40.5402967" lon="16.589325"><ele>80.16666666666667</ele><time>2026-04-26T13:23:54.485Z</time></trkpt><trkpt lat="40.5401967" lon="16.5892783"><ele>80.33333333333334</ele><time>2026-04-26T13:23:56.487Z</time></trkpt><trkpt lat="40.5401133" lon="16.5892733"><ele>80.5</ele><time>2026-04-26T13:23:58.485Z</time></trkpt><trkpt lat="40.540105" lon="16.5893933"><ele>80.66666666666667</ele><time>2026-04-26T13:24:00.485Z</time></trkpt><trkpt lat="40.5401233" lon="16.5894767"><ele>80.83333333333333</ele><time>2026-04-26T13:24:01.485Z</time></trkpt><trkpt lat="40.540125" lon="16.5895683"><ele>81.0</ele><time>2026-04-26T13:24:02.489Z</time></trkpt><trkpt lat="40.5401083" lon="16.5896633"><ele>81.0</ele><time>2026-04-26T13:24:03.485Z</time></trkpt><trkpt lat="40.5400933" lon="16.5897467"><ele>81.0</ele><time>2026-04-26T13:24:04.485Z</time></trkpt><trkpt lat="40.5401433" lon="16.5898467"><ele>81.0</ele><time>2026-04-26T13:24:06.486Z</time></trkpt><trkpt lat="40.5402533" lon="16.589805"><ele>81.0</ele><time>2026-04-26T13:24:08.486Z</time></trkpt><trkpt lat="40.5403217" lon="16.5898117"><ele>81.0</ele><time>2026-04-26T13:24:09.485Z</time></trkpt><trkpt lat="40.540405" lon="16.5898367"><ele>81.0</ele><time>2026-04-26T13:24:10.485Z</time></trkpt><trkpt lat="40.540495" lon="16.5898983"><ele>80.75</ele><time>2026-04-26T13:24:11.485Z</time></trkpt><trkpt lat="40.5405817" lon="16.5899867"><ele>80.5</ele><time>2026-04-26T13:24:12.486Z</time></trkpt><trkpt lat="40.540665" lon="16.5900867"><ele>80.25</ele><time>2026-04-26T13:24:13.485Z</time></trkpt><trkpt lat="40.5407517" lon="16.590185"><ele>80.0</ele><time>2026-04-26T13:24:14.487Z</time></trkpt><trkpt lat="40.5408417" lon="16.5902833"><ele>80.25</ele><time>2026-04-26T13:24:15.485Z</time></trkpt><trkpt lat="40.5409333" lon="16.5903833"><ele>80.5</ele><time>2026-04-26T13:24:16.485Z</time></trkpt><trkpt lat="40.541025" lon="16.5904867"><ele>80.75</ele><time>2026-04-26T13:24:17.485Z</time></trkpt><trkpt lat="40.541115" lon="16.5905983"><ele>81.0</ele><time>2026-04-26T13:24:18.485Z</time></trkpt><trkpt lat="40.5412083" lon="16.5907217"><ele>80.75</ele><time>2026-04-26T13:24:19.486Z</time></trkpt><trkpt lat="40.5413017" lon="16.59086"><ele>80.5</ele><time>2026-04-26T13:24:20.486Z</time></trkpt><trkpt lat="40.5413917" lon="16.5910067"><ele>80.25</ele><time>2026-04-26T13:24:21.486Z</time></trkpt><trkpt lat="40.5414767" lon="16.591155"><ele>80.0</ele><time>2026-04-26T13:24:22.487Z</time></trkpt><trkpt lat="40.5415567" lon="16.5913083"><ele>79.5</ele><time>2026-04-26T13:24:23.487Z</time></trkpt><trkpt lat="40.5416333" lon="16.5914667"><ele>79.0</ele><time>2026-04-26T13:24:24.485Z</time></trkpt><trkpt lat="40.5417033" lon="16.5916317"><ele>78.5</ele><time>2026-04-26T13:24:25.485Z</time></trkpt><trkpt lat="40.5417667" lon="16.5917983"><ele>78.0</ele><time>2026-04-26T13:24:26.487Z</time></trkpt><trkpt lat="40.5418217" lon="16.5919717"><ele>77.25</ele><time>2026-04-26T13:24:27.485Z</time></trkpt><trkpt lat="40.54187" lon="16.5921467"><ele>76.5</ele><time>2026-04-26T13:24:28.488Z</time></trkpt><trkpt lat="40.5419133" lon="16.59232"><ele>75.75</ele><time>2026-04-26T13:24:29.485Z</time></trkpt><trkpt lat="40.5419533" lon="16.5924917"><ele>75.0</ele><time>2026-04-26T13:24:30.486Z</time></trkpt><trkpt lat="40.5419883" lon="16.5926617"><ele>75.0</ele><time>2026-04-26T13:24:31.484Z</time></trkpt><trkpt lat="40.5420217" lon="16.5928333"><ele>75.0</ele><time>2026-04-26T13:24:32.485Z</time></trkpt><trkpt lat="40.5420567" lon="16.593005"><ele>75.0</ele><time>2026-04-26T13:24:33.486Z</time></trkpt><trkpt lat="40.5420967" lon="16.5931767"><ele>75.0</ele><time>2026-04-26T13:24:34.485Z</time></trkpt><trkpt lat="40.5421417" lon="16.5933467"><ele>75.0</ele><time>2026-04-26T13:24:35.485Z</time></trkpt><trkpt lat="40.5421967" lon="16.5935117"><ele>75.0</ele><time>2026-04-26T13:24:36.485Z</time></trkpt><trkpt lat="40.5422567" lon="16.593675"><ele>75.0</ele><time>2026-04-26T13:24:37.485Z</time></trkpt><trkpt lat="40.5423167" lon="16.59384"><ele>75.0</ele><time>2026-04-26T13:24:38.486Z</time></trkpt><trkpt lat="40.542375" lon="16.5940067"><ele>75.0</ele><time>2026-04-26T13:24:39.486Z</time></trkpt><trkpt lat="40.5424283" lon="16.5941717"><ele>75.0</ele><time>2026-04-26T13:24:40.485Z</time></trkpt><trkpt lat="40.5424783" lon="16.59434"><ele>75.0</ele><time>2026-04-26T13:24:41.485Z</time></trkpt><trkpt lat="40.5425233" lon="16.594515"><ele>75.0</ele><time>2026-04-26T13:24:42.485Z</time></trkpt><trkpt lat="40.5425633" lon="16.5946883"><ele>75.0</ele><time>2026-04-26T13:24:43.485Z</time></trkpt><trkpt lat="40.5426007" lon="16.594863"><ele>75.0</ele><time>2026-04-26T13:24:44.486Z</time></trkpt><trkpt lat="40.5426312" lon="16.5950381"><ele>75.0</ele><time>2026-04-26T13:24:45.485Z</time></trkpt><trkpt lat="40.5426577" lon="16.5952148"><ele>75.0</ele><time>2026-04-26T13:24:46.486Z</time></trkpt><trkpt lat="40.5426842" lon="16.5953941"><ele>74.5</ele><time>2026-04-26T13:24:47.485Z</time></trkpt><trkpt lat="40.542708" lon="16.5955762"><ele>74.0</ele><time>2026-04-26T13:24:48.49Z</time></trkpt><trkpt lat="40.5427308" lon="16.5957608"><ele>73.5</ele><time>2026-04-26T13:24:49.485Z</time></trkpt><trkpt lat="40.5427552" lon="16.5959464"><ele>73.0</ele><time>2026-04-26T13:24:50.486Z</time></trkpt><trkpt lat="40.5427831" lon="16.5961327"><ele>72.5</ele><time>2026-04-26T13:24:51.485Z</time></trkpt><trkpt lat="40.5428109" lon="16.5963158"><ele>72.0</ele><time>2026-04-26T13:24:52.485Z</time></trkpt><trkpt lat="40.542839" lon="16.5964945"><ele>71.5</ele><time>2026-04-26T13:24:53.485Z</time></trkpt><trkpt lat="40.5428698" lon="16.5966661"><ele>71.0</ele><time>2026-04-26T13:24:54.485Z</time></trkpt><trkpt lat="40.5428995" lon="16.5968345"><ele>70.75</ele><time>2026-04-26T13:24:55.486Z</time></trkpt><trkpt lat="40.5429251" lon="16.5970063"><ele>70.5</ele><time>2026-04-26T13:24:56.486Z</time></trkpt><trkpt lat="40.5429463" lon="16.5971855"><ele>70.25</ele><time>2026-04-26T13:24:57.485Z</time></trkpt><trkpt lat="40.5429606" lon="16.597369"><ele>70.0</ele><time>2026-04-26T13:24:58.485Z</time></trkpt><trkpt lat="40.5429728" lon="16.5975516"><ele>70.0</ele><time>2026-04-26T13:24:59.485Z</time></trkpt><trkpt lat="40.5429839" lon="16.5977332"><ele>70.0</ele><time>2026-04-26T13:25:00.485Z</time></trkpt><trkpt lat="40.5429996" lon="16.5979162"><ele>70.0</ele><time>2026-04-26T13:25:01.485Z</time></trkpt><trkpt lat="40.5430245" lon="16.5980944"><ele>70.0</ele><time>2026-04-26T13:25:02.486Z</time></trkpt><trkpt lat="40.5430545" lon="16.5982628"><ele>69.6</ele><time>2026-04-26T13:25:03.485Z</time></trkpt><trkpt lat="40.5430739" lon="16.5984235"><ele>69.2</ele><time>2026-04-26T13:25:04.485Z</time></trkpt><trkpt lat="40.5430798" lon="16.5985719"><ele>68.8</ele><time>2026-04-26T13:25:05.485Z</time></trkpt><trkpt lat="40.5430707" lon="16.5986941"><ele>68.4</ele><time>2026-04-26T13:25:06.484Z</time></trkpt><trkpt lat="40.5430445" lon="16.5987849"><ele>68.0</ele><time>2026-04-26T13:25:07.486Z</time></trkpt><trkpt lat="40.5429383" lon="16.5988767"><ele>68.5</ele><time>2026-04-26T13:25:09.486Z</time></trkpt><trkpt lat="40.5428568" lon="16.5988953"><ele>69.0</ele><time>2026-04-26T13:25:10.486Z</time></trkpt><trkpt lat="40.5427632" lon="16.5989177"><ele>69.5</ele><time>2026-04-26T13:25:11.489Z</time></trkpt><trkpt lat="40.5426758" lon="16.5989574"><ele>70.0</ele><time>2026-04-26T13:25:12.485Z</time></trkpt><trkpt lat="40.5426043" lon="16.5990206"><ele>70.5</ele><time>2026-04-26T13:25:13.485Z</time></trkpt><trkpt lat="40.5425562" lon="16.5991085"><ele>71.0</ele><time>2026-04-26T13:25:14.486Z</time></trkpt><trkpt lat="40.5425413" lon="16.5992124"><ele>71.0</ele><time>2026-04-26T13:25:15.485Z</time></trkpt><trkpt lat="40.5425658" lon="16.5993231"><ele>71.0</ele><time>2026-04-26T13:25:16.486Z</time></trkpt><trkpt lat="40.54265" lon="16.5994467"><ele>71.0</ele><time>2026-04-26T13:25:17.485Z</time></trkpt><trkpt lat="40.5427467" lon="16.5995617"><ele>71.0</ele><time>2026-04-26T13:25:18.486Z</time></trkpt><trkpt lat="40.5428567" lon="16.5996617"><ele>69.5</ele><time>2026-04-26T13:25:19.485Z</time></trkpt><trkpt lat="40.54297" lon="16.5997567"><ele>68.0</ele><time>2026-04-26T13:25:20.485Z</time></trkpt><trkpt lat="40.5430833" lon="16.59986"><ele>66.5</ele><time>2026-04-26T13:25:21.485Z</time></trkpt><trkpt lat="40.5431967" lon="16.599965"><ele>65.0</ele><time>2026-04-26T13:25:22.486Z</time></trkpt><trkpt lat="40.5433117" lon="16.6000683"><ele>65.0</ele><time>2026-04-26T13:25:23.486Z</time></trkpt><trkpt lat="40.5434283" lon="16.60017"><ele>65.0</ele><time>2026-04-26T13:25:24.485Z</time></trkpt><trkpt lat="40.5435433" lon="16.6002717"><ele>65.0</ele><time>2026-04-26T13:25:25.485Z</time></trkpt><trkpt lat="40.5436517" lon="16.6003683"><ele>65.0</ele><time>2026-04-26T13:25:26.486Z</time></trkpt><trkpt lat="40.5437467" lon="16.60046"><ele>64.83333333333334</ele><time>2026-04-26T13:25:27.486Z</time></trkpt><trkpt lat="40.5438267" lon="16.60054"><ele>64.66666666666667</ele><time>2026-04-26T13:25:28.485Z</time></trkpt><trkpt lat="40.543895" lon="16.6006067"><ele>64.5</ele><time>2026-04-26T13:25:29.486Z</time></trkpt><trkpt lat="40.5439467" lon="16.6006567"><ele>64.33333333333333</ele><time>2026-04-26T13:25:30.487Z</time></trkpt><trkpt lat="40.544035" lon="16.6006883"><ele>64.16666666666666</ele><time>2026-04-26T13:25:32.486Z</time></trkpt><trkpt lat="40.54413" lon="16.600645"><ele>64.0</ele><time>2026-04-26T13:25:34.487Z</time></trkpt><trkpt lat="40.5442567" lon="16.6006017"><ele>63.99999999999999</ele><time>2026-04-26T13:25:36.485Z</time></trkpt><trkpt lat="40.5443267" lon="16.600595"><ele>64.0</ele><time>2026-04-26T13:25:37.487Z</time></trkpt><trkpt lat="40.544405" lon="16.6005933"><ele>64.0</ele><time>2026-04-26T13:25:38.486Z</time></trkpt><trkpt lat="40.5444833" lon="16.6005917"><ele>64.0</ele><time>2026-04-26T13:25:39.487Z</time></trkpt><trkpt lat="40.5445617" lon="16.6005933"><ele>63.99999999999999</ele><time>2026-04-26T13:25:40.485Z</time></trkpt><trkpt lat="40.54463" lon="16.600605"><ele>64.0</ele><time>2026-04-26T13:25:41.485Z</time></trkpt><trkpt lat="40.544745" lon="16.6006867"><ele>63.83333333333333</ele><time>2026-04-26T13:25:43.485Z</time></trkpt><trkpt lat="40.54481" lon="16.60075"><ele>63.666666666666664</ele><time>2026-04-26T13:25:44.486Z</time></trkpt><trkpt lat="40.5448833" lon="16.600815"><ele>63.5</ele><time>2026-04-26T13:25:45.485Z</time></trkpt><trkpt lat="40.544965" lon="16.60088"><ele>63.33333333333333</ele><time>2026-04-26T13:25:46.485Z</time></trkpt><trkpt lat="40.5450483" lon="16.6009367"><ele>63.166666666666664</ele><time>2026-04-26T13:25:47.485Z</time></trkpt><trkpt lat="40.5451267" lon="16.6009883"><ele>63.0</ele><time>2026-04-26T13:25:48.485Z</time></trkpt><trkpt lat="40.5452033" lon="16.6010317"><ele>63.0</ele><time>2026-04-26T13:25:49.488Z</time></trkpt><trkpt lat="40.5452817" lon="16.6010683"><ele>63.0</ele><time>2026-04-26T13:25:50.486Z</time></trkpt><trkpt lat="40.545365" lon="16.6010983"><ele>63.0</ele><time>2026-04-26T13:25:51.485Z</time></trkpt><trkpt lat="40.5454517" lon="16.6011217"><ele>63.0</ele><time>2026-04-26T13:25:52.486Z</time></trkpt><trkpt lat="40.54554" lon="16.60114"><ele>63.0</ele><time>2026-04-26T13:25:53.486Z</time></trkpt><trkpt lat="40.5456283" lon="16.6011567"><ele>63.0</ele><time>2026-04-26T13:25:54.485Z</time></trkpt><trkpt lat="40.5457183" lon="16.6011767"><ele>63.166666666666664</ele><time>2026-04-26T13:25:55.485Z</time></trkpt><trkpt lat="40.5458083" lon="16.6012017"><ele>63.33333333333333</ele><time>2026-04-26T13:25:56.486Z</time></trkpt><trkpt lat="40.5458967" lon="16.601225"><ele>63.5</ele><time>2026-04-26T13:25:57.485Z</time></trkpt><trkpt lat="40.54598" lon="16.6012467"><ele>63.666666666666664</ele><time>2026-04-26T13:25:58.485Z</time></trkpt><trkpt lat="40.5460583" lon="16.6012733"><ele>63.83333333333333</ele><time>2026-04-26T13:25:59.486Z</time></trkpt><trkpt lat="40.5461333" lon="16.60131"><ele>64.0</ele><time>2026-04-26T13:26:00.486Z</time></trkpt><trkpt lat="40.5462017" lon="16.6013617"><ele>65.0</ele><time>2026-04-26T13:26:01.486Z</time></trkpt><trkpt lat="40.5462617" lon="16.60143"><ele>66.0</ele><time>2026-04-26T13:26:02.486Z</time></trkpt><trkpt lat="40.546325" lon="16.6015133"><ele>67.0</ele><time>2026-04-26T13:26:03.485Z</time></trkpt><trkpt lat="40.5463917" lon="16.601605"><ele>68.0</ele><time>2026-04-26T13:26:04.484Z</time></trkpt><trkpt lat="40.546455" lon="16.6016917"><ele>69.0</ele><time>2026-04-26T13:26:05.484Z</time></trkpt><trkpt lat="40.5465233" lon="16.6017717"><ele>70.0</ele><time>2026-04-26T13:26:06.485Z</time></trkpt><trkpt lat="40.5465883" lon="16.6018467"><ele>70.0</ele><time>2026-04-26T13:26:07.485Z</time></trkpt><trkpt lat="40.546655" lon="16.6019233"><ele>70.0</ele><time>2026-04-26T13:26:08.485Z</time></trkpt><trkpt lat="40.5467217" lon="16.6020033"><ele>70.0</ele><time>2026-04-26T13:26:09.484Z</time></trkpt><trkpt lat="40.54679" lon="16.60208"><ele>70.0</ele><time>2026-04-26T13:26:10.484Z</time></trkpt><trkpt lat="40.5468583" lon="16.6021517"><ele>70.0</ele><time>2026-04-26T13:26:11.484Z</time></trkpt><trkpt lat="40.546925" lon="16.6022217"><ele>70.0</ele><time>2026-04-26T13:26:12.486Z</time></trkpt><trkpt lat="40.5469883" lon="16.6022933"><ele>70.0</ele><time>2026-04-26T13:26:13.485Z</time></trkpt><trkpt lat="40.547045" lon="16.6023617"><ele>70.0</ele><time>2026-04-26T13:26:14.485Z</time></trkpt><trkpt lat="40.5471" lon="16.6024267"><ele>70.0</ele><time>2026-04-26T13:26:15.484Z</time></trkpt><trkpt lat="40.54715" lon="16.602485"><ele>70.0</ele><time>2026-04-26T13:26:16.484Z</time></trkpt><trkpt lat="40.5471983" lon="16.6025417"><ele>70.0</ele><time>2026-04-26T13:26:17.484Z</time></trkpt><trkpt lat="40.547265" lon="16.6026633"><ele>70.0</ele><time>2026-04-26T13:26:19.485Z</time></trkpt><trkpt lat="40.547295" lon="16.6028217"><ele>69.33333333333333</ele><time>2026-04-26T13:26:21.485Z</time></trkpt><trkpt lat="40.5473017" lon="16.602905"><ele>68.66666666666666</ele><time>2026-04-26T13:26:22.485Z</time></trkpt><trkpt lat="40.5473083" lon="16.60306"><ele>68.0</ele><time>2026-04-26T13:26:24.485Z</time></trkpt><trkpt lat="40.5473133" lon="16.6031733"><ele>67.33333333333333</ele><time>2026-04-26T13:26:26.485Z</time></trkpt><trkpt lat="40.547315" lon="16.603085"><ele>66.66666666666667</ele><time>2026-04-26T13:26:58.484Z</time></trkpt><trkpt lat="40.5473033" lon="16.6030017"><ele>66.0</ele><time>2026-04-26T13:26:59.484Z</time></trkpt><trkpt lat="40.5472917" lon="16.6029"><ele>65.66666666666667</ele><time>2026-04-26T13:27:00.485Z</time></trkpt><trkpt lat="40.54728" lon="16.6027933"><ele>65.33333333333333</ele><time>2026-04-26T13:27:01.484Z</time></trkpt><trkpt lat="40.5472667" lon="16.6027"><ele>65.0</ele><time>2026-04-26T13:27:02.487Z</time></trkpt><trkpt lat="40.5472367" lon="16.6026183"><ele>64.66666666666666</ele><time>2026-04-26T13:27:03.485Z</time></trkpt><trkpt lat="40.54719" lon="16.6025367"><ele>64.33333333333333</ele><time>2026-04-26T13:27:04.485Z</time></trkpt><trkpt lat="40.5471233" lon="16.6024567"><ele>64.0</ele><time>2026-04-26T13:27:05.485Z</time></trkpt><trkpt lat="40.5470417" lon="16.6023667"><ele>64.0</ele><time>2026-04-26T13:27:06.485Z</time></trkpt><trkpt lat="40.54695" lon="16.602265"><ele>64.0</ele><time>2026-04-26T13:27:07.485Z</time></trkpt><trkpt lat="40.5468617" lon="16.6021667"><ele>64.0</ele><time>2026-04-26T13:27:08.485Z</time></trkpt><trkpt lat="40.54678" lon="16.60208"><ele>64.0</ele><time>2026-04-26T13:27:09.486Z</time></trkpt><trkpt lat="40.5467033" lon="16.601995"><ele>64.0</ele><time>2026-04-26T13:27:10.485Z</time></trkpt><trkpt lat="40.5466283" lon="16.6019117"><ele>65.2</ele><time>2026-04-26T13:27:11.485Z</time></trkpt><trkpt lat="40.5465533" lon="16.6018217"><ele>66.4</ele><time>2026-04-26T13:27:12.485Z</time></trkpt><trkpt lat="40.5464767" lon="16.6017267"><ele>67.6</ele><time>2026-04-26T13:27:13.487Z</time></trkpt><trkpt lat="40.546405" lon="16.6016383"><ele>68.8</ele><time>2026-04-26T13:27:14.485Z</time></trkpt><trkpt lat="40.5463433" lon="16.601555"><ele>70.0</ele><time>2026-04-26T13:27:15.486Z</time></trkpt><trkpt lat="40.5462817" lon="16.6014767"><ele>70.0</ele><time>2026-04-26T13:27:16.485Z</time></trkpt><trkpt lat="40.5462217" lon="16.6014033"><ele>70.0</ele><time>2026-04-26T13:27:17.485Z</time></trkpt><trkpt lat="40.5461583" lon="16.6013417"><ele>70.0</ele><time>2026-04-26T13:27:18.485Z</time></trkpt><trkpt lat="40.546085" lon="16.601295"><ele>70.0</ele><time>2026-04-26T13:27:19.484Z</time></trkpt><trkpt lat="40.546" lon="16.6012633"><ele>70.0</ele><time>2026-04-26T13:27:20.486Z</time></trkpt><trkpt lat="40.5459033" lon="16.6012367"><ele>70.0</ele><time>2026-04-26T13:27:21.485Z</time></trkpt><trkpt lat="40.5458067" lon="16.6012083"><ele>69.4</ele><time>2026-04-26T13:27:22.485Z</time></trkpt><trkpt lat="40.5457117" lon="16.6011833"><ele>68.8</ele><time>2026-04-26T13:27:23.484Z</time></trkpt><trkpt lat="40.5456233" lon="16.6011567"><ele>68.2</ele><time>2026-04-26T13:27:24.485Z</time></trkpt><trkpt lat="40.545535" lon="16.6011283"><ele>67.6</ele><time>2026-04-26T13:27:25.485Z</time></trkpt><trkpt lat="40.5454467" lon="16.6011017"><ele>67.0</ele><time>2026-04-26T13:27:26.485Z</time></trkpt><trkpt lat="40.5453617" lon="16.601075"><ele>66.2</ele><time>2026-04-26T13:27:27.486Z</time></trkpt><trkpt lat="40.545275" lon="16.6010467"><ele>65.4</ele><time>2026-04-26T13:27:28.486Z</time></trkpt><trkpt lat="40.54519" lon="16.6010067"><ele>64.6</ele><time>2026-04-26T13:27:29.485Z</time></trkpt><trkpt lat="40.545105" lon="16.6009567"><ele>63.8</ele><time>2026-04-26T13:27:30.485Z</time></trkpt><trkpt lat="40.5450217" lon="16.6009017"><ele>63.0</ele><time>2026-04-26T13:27:31.485Z</time></trkpt><trkpt lat="40.54494" lon="16.6008467"><ele>63.0</ele><time>2026-04-26T13:27:32.486Z</time></trkpt><trkpt lat="40.544865" lon="16.60079"><ele>63.0</ele><time>2026-04-26T13:27:33.485Z</time></trkpt><trkpt lat="40.544795" lon="16.6007367"><ele>63.0</ele><time>2026-04-26T13:27:34.487Z</time></trkpt><trkpt lat="40.5447333" lon="16.6006917"><ele>63.0</ele><time>2026-04-26T13:27:35.485Z</time></trkpt><trkpt lat="40.5446783" lon="16.6006467"><ele>63.0</ele><time>2026-04-26T13:27:36.485Z</time></trkpt><trkpt lat="40.544575" lon="16.6005783"><ele>63.0</ele><time>2026-04-26T13:27:38.485Z</time></trkpt><trkpt lat="40.54451" lon="16.6005733"><ele>63.166666666666664</ele><time>2026-04-26T13:27:39.484Z</time></trkpt><trkpt lat="40.544435" lon="16.6005783"><ele>63.33333333333333</ele><time>2026-04-26T13:27:40.485Z</time></trkpt><trkpt lat="40.5443517" lon="16.600585"><ele>63.5</ele><time>2026-04-26T13:27:41.486Z</time></trkpt><trkpt lat="40.5442667" lon="16.6005917"><ele>63.666666666666664</ele><time>2026-04-26T13:27:42.485Z</time></trkpt><trkpt lat="40.5441833" lon="16.600605"><ele>63.83333333333333</ele><time>2026-04-26T13:27:43.489Z</time></trkpt><trkpt lat="40.5441117" lon="16.6006333"><ele>64.0</ele><time>2026-04-26T13:27:44.496Z</time></trkpt><trkpt lat="40.5440317" lon="16.6006983"><ele>64.0</ele><time>2026-04-26T13:27:46.486Z</time></trkpt><trkpt lat="40.5440483" lon="16.6008233"><ele>64.0</ele><time>2026-04-26T13:27:49.485Z</time></trkpt><trkpt lat="40.5440817" lon="16.6009017"><ele>64.0</ele><time>2026-04-26T13:27:50.485Z</time></trkpt><trkpt lat="40.544125" lon="16.6010117"><ele>64.0</ele><time>2026-04-26T13:27:51.485Z</time></trkpt><trkpt lat="40.5441617" lon="16.6011517"><ele>64.0</ele><time>2026-04-26T13:27:52.485Z</time></trkpt><trkpt lat="40.544195" lon="16.6013017"><ele>64.0</ele><time>2026-04-26T13:27:53.484Z</time></trkpt><trkpt lat="40.5442317" lon="16.6014517"><ele>64.0</ele><time>2026-04-26T13:27:54.485Z</time></trkpt><trkpt lat="40.544265" lon="16.6015933"><ele>64.0</ele><time>2026-04-26T13:27:55.485Z</time></trkpt><trkpt lat="40.544295" lon="16.6017317"><ele>64.0</ele><time>2026-04-26T13:27:56.488Z</time></trkpt><trkpt lat="40.5443267" lon="16.6018683"><ele>63.6</ele><time>2026-04-26T13:27:57.485Z</time></trkpt><trkpt lat="40.5443617" lon="16.6020017"><ele>63.2</ele><time>2026-04-26T13:27:58.485Z</time></trkpt><trkpt lat="40.5443983" lon="16.602135"><ele>62.800000000000004</ele><time>2026-04-26T13:27:59.486Z</time></trkpt><trkpt lat="40.5444317" lon="16.6022767"><ele>62.400000000000006</ele><time>2026-04-26T13:28:00.485Z</time></trkpt><trkpt lat="40.5444583" lon="16.60242"><ele>62.0</ele><time>2026-04-26T13:28:01.485Z</time></trkpt><trkpt lat="40.5444867" lon="16.602565"><ele>62.0</ele><time>2026-04-26T13:28:02.486Z</time></trkpt><trkpt lat="40.5445133" lon="16.6027133"><ele>62.0</ele><time>2026-04-26T13:28:03.487Z</time></trkpt><trkpt lat="40.5445317" lon="16.602855"><ele>62.0</ele><time>2026-04-26T13:28:04.486Z</time></trkpt><trkpt lat="40.54454" lon="16.6029933"><ele>62.0</ele><time>2026-04-26T13:28:05.486Z</time></trkpt><trkpt lat="40.5445333" lon="16.6031267"><ele>62.0</ele><time>2026-04-26T13:28:06.486Z</time></trkpt><trkpt lat="40.5445017" lon="16.6032617"><ele>62.25</ele><time>2026-04-26T13:28:07.485Z</time></trkpt><trkpt lat="40.544445" lon="16.6034017"><ele>62.5</ele><time>2026-04-26T13:28:08.486Z</time></trkpt><trkpt lat="40.54437" lon="16.6035383"><ele>62.75</ele><time>2026-04-26T13:28:09.485Z</time></trkpt><trkpt lat="40.5442933" lon="16.60367"><ele>63.0</ele><time>2026-04-26T13:28:10.485Z</time></trkpt><trkpt lat="40.54422" lon="16.6037933"><ele>63.0</ele><time>2026-04-26T13:28:11.485Z</time></trkpt><trkpt lat="40.544155" lon="16.6039133"><ele>63.0</ele><time>2026-04-26T13:28:12.485Z</time></trkpt><trkpt lat="40.5441083" lon="16.60404"><ele>63.0</ele><time>2026-04-26T13:28:13.486Z</time></trkpt><trkpt lat="40.54408" lon="16.604175"><ele>63.0</ele><time>2026-04-26T13:28:14.486Z</time></trkpt><trkpt lat="40.544075" lon="16.6043183"><ele>63.0</ele><time>2026-04-26T13:28:15.485Z</time></trkpt><trkpt lat="40.5440867" lon="16.604465"><ele>64.25</ele><time>2026-04-26T13:28:16.485Z</time></trkpt><trkpt lat="40.5441133" lon="16.60461"><ele>65.5</ele><time>2026-04-26T13:28:17.485Z</time></trkpt><trkpt lat="40.5441667" lon="16.604745"><ele>66.75</ele><time>2026-04-26T13:28:18.485Z</time></trkpt><trkpt lat="40.5442417" lon="16.6048683"><ele>68.0</ele><time>2026-04-26T13:28:19.486Z</time></trkpt><trkpt lat="40.544335" lon="16.6049717"><ele>68.0</ele><time>2026-04-26T13:28:20.486Z</time></trkpt><trkpt lat="40.54444" lon="16.605055"><ele>68.0</ele><time>2026-04-26T13:28:21.488Z</time></trkpt><trkpt lat="40.5445467" lon="16.60513"><ele>68.0</ele><time>2026-04-26T13:28:22.486Z</time></trkpt><trkpt lat="40.5446467" lon="16.6052117"><ele>68.0</ele><time>2026-04-26T13:28:23.485Z</time></trkpt><trkpt lat="40.544735" lon="16.6053067"><ele>67.5</ele><time>2026-04-26T13:28:24.485Z</time></trkpt><trkpt lat="40.5448167" lon="16.6054133"><ele>67.0</ele><time>2026-04-26T13:28:25.485Z</time></trkpt><trkpt lat="40.5448933" lon="16.605525"><ele>66.5</ele><time>2026-04-26T13:28:26.485Z</time></trkpt><trkpt lat="40.5449633" lon="16.6056417"><ele>66.0</ele><time>2026-04-26T13:28:27.485Z</time></trkpt><trkpt lat="40.545025" lon="16.6057633"><ele>66.0</ele><time>2026-04-26T13:28:28.485Z</time></trkpt><trkpt lat="40.54508" lon="16.6058967"><ele>66.0</ele><time>2026-04-26T13:28:29.485Z</time></trkpt><trkpt lat="40.545115" lon="16.6060417"><ele>66.0</ele><time>2026-04-26T13:28:30.486Z</time></trkpt><trkpt lat="40.5451367" lon="16.6061867"><ele>66.0</ele><time>2026-04-26T13:28:31.486Z</time></trkpt><trkpt lat="40.5451467" lon="16.6063317"><ele>65.8</ele><time>2026-04-26T13:28:32.485Z</time></trkpt><trkpt lat="40.545145" lon="16.60648"><ele>65.6</ele><time>2026-04-26T13:28:33.486Z</time></trkpt><trkpt lat="40.545135" lon="16.6066267"><ele>65.4</ele><time>2026-04-26T13:28:34.485Z</time></trkpt><trkpt lat="40.5451283" lon="16.6067733"><ele>65.2</ele><time>2026-04-26T13:28:35.485Z</time></trkpt><trkpt lat="40.5451317" lon="16.6069183"><ele>65.0</ele><time>2026-04-26T13:28:36.485Z</time></trkpt><trkpt lat="40.545155" lon="16.607065"><ele>64.75</ele><time>2026-04-26T13:28:37.485Z</time></trkpt><trkpt lat="40.5452033" lon="16.607215"><ele>64.5</ele><time>2026-04-26T13:28:38.485Z</time></trkpt><trkpt lat="40.54527" lon="16.607365"><ele>64.25</ele><time>2026-04-26T13:28:39.488Z</time></trkpt><trkpt lat="40.5453433" lon="16.6075117"><ele>64.0</ele><time>2026-04-26T13:28:40.485Z</time></trkpt><trkpt lat="40.54541" lon="16.6076567"><ele>63.0</ele><time>2026-04-26T13:28:41.485Z</time></trkpt><trkpt lat="40.5454667" lon="16.6078017"><ele>62.0</ele><time>2026-04-26T13:28:42.485Z</time></trkpt><trkpt lat="40.5455167" lon="16.60795"><ele>61.0</ele><time>2026-04-26T13:28:43.485Z</time></trkpt><trkpt lat="40.5455617" lon="16.6080933"><ele>60.0</ele><time>2026-04-26T13:28:44.485Z</time></trkpt><trkpt lat="40.5456017" lon="16.6082367"><ele>60.0</ele><time>2026-04-26T13:28:45.485Z</time></trkpt><trkpt lat="40.5456367" lon="16.6083817"><ele>60.0</ele><time>2026-04-26T13:28:46.485Z</time></trkpt><trkpt lat="40.5456583" lon="16.6085283"><ele>60.0</ele><time>2026-04-26T13:28:47.486Z</time></trkpt><trkpt lat="40.54567" lon="16.608675"><ele>60.0</ele><time>2026-04-26T13:28:48.485Z</time></trkpt><trkpt lat="40.5456717" lon="16.60882"><ele>60.0</ele><time>2026-04-26T13:28:49.485Z</time></trkpt><trkpt lat="40.54566" lon="16.60897"><ele>60.0</ele><time>2026-04-26T13:28:50.485Z</time></trkpt><trkpt lat="40.5456333" lon="16.6091283"><ele>60.0</ele><time>2026-04-26T13:28:51.486Z</time></trkpt><trkpt lat="40.5455917" lon="16.6092867"><ele>60.0</ele><time>2026-04-26T13:28:52.485Z</time></trkpt><trkpt lat="40.5455417" lon="16.6094417"><ele>59.5</ele><time>2026-04-26T13:28:53.485Z</time></trkpt><trkpt lat="40.5454917" lon="16.6095917"><ele>59.0</ele><time>2026-04-26T13:28:54.485Z</time></trkpt><trkpt lat="40.5454333" lon="16.6097333"><ele>58.5</ele><time>2026-04-26T13:28:55.485Z</time></trkpt><trkpt lat="40.54537" lon="16.6098633"><ele>58.0</ele><time>2026-04-26T13:28:56.487Z</time></trkpt><trkpt lat="40.5453017" lon="16.609975"><ele>60.4</ele><time>2026-04-26T13:28:57.485Z</time></trkpt><trkpt lat="40.5452367" lon="16.6100783"><ele>62.8</ele><time>2026-04-26T13:28:58.485Z</time></trkpt><trkpt lat="40.5451783" lon="16.610185"><ele>65.2</ele><time>2026-04-26T13:28:59.486Z</time></trkpt><trkpt lat="40.5451383" lon="16.6103033"><ele>67.6</ele><time>2026-04-26T13:29:00.485Z</time></trkpt><trkpt lat="40.545115" lon="16.6104233"><ele>70.0</ele><time>2026-04-26T13:29:01.485Z</time></trkpt><trkpt lat="40.5451067" lon="16.61054"><ele>70.0</ele><time>2026-04-26T13:29:02.486Z</time></trkpt><trkpt lat="40.545115" lon="16.6106583"><ele>70.0</ele><time>2026-04-26T13:29:03.486Z</time></trkpt><trkpt lat="40.5451417" lon="16.6107733"><ele>70.0</ele><time>2026-04-26T13:29:04.485Z</time></trkpt><trkpt lat="40.54519" lon="16.6108817"><ele>70.0</ele><time>2026-04-26T13:29:05.485Z</time></trkpt><trkpt lat="40.545255" lon="16.6109867"><ele>70.0</ele><time>2026-04-26T13:29:06.486Z</time></trkpt><trkpt lat="40.5453233" lon="16.611095"><ele>67.2</ele><time>2026-04-26T13:29:07.485Z</time></trkpt><trkpt lat="40.545385" lon="16.6112083"><ele>64.4</ele><time>2026-04-26T13:29:08.485Z</time></trkpt><trkpt lat="40.5454367" lon="16.6113267"><ele>61.599999999999994</ele><time>2026-04-26T13:29:09.487Z</time></trkpt><trkpt lat="40.545485" lon="16.6114467"><ele>58.8</ele><time>2026-04-26T13:29:10.485Z</time></trkpt><trkpt lat="40.54553" lon="16.6115683"><ele>56.0</ele><time>2026-04-26T13:29:11.486Z</time></trkpt><trkpt lat="40.5455733" lon="16.6116883"><ele>56.00000000000001</ele><time>2026-04-26T13:29:12.485Z</time></trkpt><trkpt lat="40.545605" lon="16.611805"><ele>56.0</ele><time>2026-04-26T13:29:13.485Z</time></trkpt><trkpt lat="40.5456117" lon="16.61192"><ele>56.0</ele><time>2026-04-26T13:29:14.486Z</time></trkpt><trkpt lat="40.5456033" lon="16.6120233"><ele>56.0</ele><time>2026-04-26T13:29:15.485Z</time></trkpt><trkpt lat="40.5455883" lon="16.6121117"><ele>56.00000000000001</ele><time>2026-04-26T13:29:16.485Z</time></trkpt><trkpt lat="40.5455667" lon="16.612195"><ele>56.0</ele><time>2026-04-26T13:29:17.485Z</time></trkpt><trkpt lat="40.545545" lon="16.61228"><ele>56.333333333333336</ele><time>2026-04-26T13:29:18.486Z</time></trkpt><trkpt lat="40.545525" lon="16.6123717"><ele>56.66666666666667</ele><time>2026-04-26T13:29:19.485Z</time></trkpt><trkpt lat="40.545505" lon="16.6124717"><ele>57.0</ele><time>2026-04-26T13:29:20.488Z</time></trkpt><trkpt lat="40.5454867" lon="16.6125783"><ele>57.33333333333333</ele><time>2026-04-26T13:29:21.485Z</time></trkpt><trkpt lat="40.545465" lon="16.6126917"><ele>57.666666666666664</ele><time>2026-04-26T13:29:22.486Z</time></trkpt><trkpt lat="40.54544" lon="16.61281"><ele>58.0</ele><time>2026-04-26T13:29:23.485Z</time></trkpt><trkpt lat="40.5454117" lon="16.6129283"><ele>58.0</ele><time>2026-04-26T13:29:24.486Z</time></trkpt><trkpt lat="40.5453867" lon="16.6130483"><ele>58.0</ele><time>2026-04-26T13:29:25.485Z</time></trkpt><trkpt lat="40.54536" lon="16.6131733"><ele>58.0</ele><time>2026-04-26T13:29:26.487Z</time></trkpt><trkpt lat="40.5453333" lon="16.6132983"><ele>58.0</ele><time>2026-04-26T13:29:27.486Z</time></trkpt><trkpt lat="40.5453083" lon="16.61342"><ele>58.0</ele><time>2026-04-26T13:29:28.485Z</time></trkpt><trkpt lat="40.5452817" lon="16.6135433"><ele>57.8</ele><time>2026-04-26T13:29:29.488Z</time></trkpt><trkpt lat="40.5452567" lon="16.613665"><ele>57.599999999999994</ele><time>2026-04-26T13:29:30.485Z</time></trkpt><trkpt lat="40.54523" lon="16.6137867"><ele>57.400000000000006</ele><time>2026-04-26T13:29:31.485Z</time></trkpt><trkpt lat="40.5452033" lon="16.6139083"><ele>57.2</ele><time>2026-04-26T13:29:32.486Z</time></trkpt><trkpt lat="40.5451783" lon="16.6140267"><ele>57.0</ele><time>2026-04-26T13:29:33.486Z</time></trkpt><trkpt lat="40.5451517" lon="16.6141417"><ele>57.0</ele><time>2026-04-26T13:29:34.486Z</time></trkpt><trkpt lat="40.5451267" lon="16.6142583"><ele>57.0</ele><time>2026-04-26T13:29:35.485Z</time></trkpt><trkpt lat="40.5451067" lon="16.6143817"><ele>57.0</ele><time>2026-04-26T13:29:36.487Z</time></trkpt><trkpt lat="40.5450783" lon="16.6145183"><ele>57.0</ele><time>2026-04-26T13:29:37.486Z</time></trkpt><trkpt lat="40.545045" lon="16.6146667"><ele>57.0</ele><time>2026-04-26T13:29:38.486Z</time></trkpt><trkpt lat="40.5450133" lon="16.61481"><ele>57.0</ele><time>2026-04-26T13:29:39.485Z</time></trkpt><trkpt lat="40.5449833" lon="16.6149483"><ele>57.0</ele><time>2026-04-26T13:29:40.485Z</time></trkpt><trkpt lat="40.5449533" lon="16.6150867"><ele>57.0</ele><time>2026-04-26T13:29:41.485Z</time></trkpt><trkpt lat="40.54492" lon="16.6152433"><ele>57.0</ele><time>2026-04-26T13:29:42.487Z</time></trkpt><trkpt lat="40.5448867" lon="16.61541"><ele>56.75</ele><time>2026-04-26T13:29:43.486Z</time></trkpt><trkpt lat="40.5448517" lon="16.6155717"><ele>56.5</ele><time>2026-04-26T13:29:44.486Z</time></trkpt><trkpt lat="40.54482" lon="16.615725"><ele>56.25</ele><time>2026-04-26T13:29:45.485Z</time></trkpt><trkpt lat="40.5447883" lon="16.6158733"><ele>56.0</ele><time>2026-04-26T13:29:46.485Z</time></trkpt><trkpt lat="40.544755" lon="16.6160283"><ele>55.0</ele><time>2026-04-26T13:29:47.487Z</time></trkpt><trkpt lat="40.54472" lon="16.61619"><ele>54.0</ele><time>2026-04-26T13:29:48.488Z</time></trkpt><trkpt lat="40.5446833" lon="16.6163633"><ele>53.0</ele><time>2026-04-26T13:29:49.485Z</time></trkpt><trkpt lat="40.5446433" lon="16.6165533"><ele>52.0</ele><time>2026-04-26T13:29:50.486Z</time></trkpt><trkpt lat="40.544605" lon="16.6167383"><ele>52.0</ele><time>2026-04-26T13:29:51.485Z</time></trkpt><trkpt lat="40.5445633" lon="16.616915"><ele>52.0</ele><time>2026-04-26T13:29:52.485Z</time></trkpt><trkpt lat="40.5445267" lon="16.6170867"><ele>52.0</ele><time>2026-04-26T13:29:53.485Z</time></trkpt><trkpt lat="40.5444917" lon="16.6172567"><ele>52.0</ele><time>2026-04-26T13:29:54.485Z</time></trkpt><trkpt lat="40.544455" lon="16.61742"><ele>53.0</ele><time>2026-04-26T13:29:55.486Z</time></trkpt><trkpt lat="40.54442" lon="16.61758"><ele>54.0</ele><time>2026-04-26T13:29:56.487Z</time></trkpt><trkpt lat="40.5443833" lon="16.6177433"><ele>55.0</ele><time>2026-04-26T13:29:57.485Z</time></trkpt><trkpt lat="40.544345" lon="16.6179083"><ele>56.0</ele><time>2026-04-26T13:29:58.489Z</time></trkpt><trkpt lat="40.54431" lon="16.6180733"><ele>56.0</ele><time>2026-04-26T13:29:59.485Z</time></trkpt><trkpt lat="40.544275" lon="16.6182383"><ele>56.0</ele><time>2026-04-26T13:30:00.486Z</time></trkpt><trkpt lat="40.5442367" lon="16.6184083"><ele>56.0</ele><time>2026-04-26T13:30:01.488Z</time></trkpt><trkpt lat="40.5442" lon="16.6185783"><ele>56.0</ele><time>2026-04-26T13:30:02.486Z</time></trkpt><trkpt lat="40.544163" lon="16.6187525"><ele>56.0</ele><time>2026-04-26T13:30:03.485Z</time></trkpt><trkpt lat="40.5441257" lon="16.6189282"><ele>56.0</ele><time>2026-04-26T13:30:04.486Z</time></trkpt><trkpt lat="40.5440876" lon="16.619105"><ele>56.0</ele><time>2026-04-26T13:30:05.486Z</time></trkpt><trkpt lat="40.5440505" lon="16.6192817"><ele>56.0</ele><time>2026-04-26T13:30:06.486Z</time></trkpt><trkpt lat="40.5439756" lon="16.619629"><ele>56.0</ele><time>2026-04-26T13:30:08.486Z</time></trkpt><trkpt lat="40.5439379" lon="16.6197991"><ele>56.0</ele><time>2026-04-26T13:30:09.486Z</time></trkpt><trkpt lat="40.5438991" lon="16.6199712"><ele>56.0</ele><time>2026-04-26T13:30:10.486Z</time></trkpt><trkpt lat="40.54386" lon="16.6201486"><ele>56.0</ele><time>2026-04-26T13:30:11.486Z</time></trkpt><trkpt lat="40.5438253" lon="16.6203173"><ele>56.0</ele><time>2026-04-26T13:30:12.485Z</time></trkpt><trkpt lat="40.5437941" lon="16.6204752"><ele>55.99999999999999</ele><time>2026-04-26T13:30:13.485Z</time></trkpt><trkpt lat="40.5437626" lon="16.6206222"><ele>55.99999999999999</ele><time>2026-04-26T13:30:14.487Z</time></trkpt><trkpt lat="40.5437347" lon="16.6207549"><ele>56.0</ele><time>2026-04-26T13:30:15.486Z</time></trkpt><trkpt lat="40.5437057" lon="16.6208731"><ele>56.0</ele><time>2026-04-26T13:30:16.486Z</time></trkpt><trkpt lat="40.5436789" lon="16.6209722"><ele>56.0</ele><time>2026-04-26T13:30:17.485Z</time></trkpt><trkpt lat="40.5436649" lon="16.6210609"><ele>55.99999999999999</ele><time>2026-04-26T13:30:18.486Z</time></trkpt><trkpt lat="40.5436779" lon="16.6211652"><ele>55.99999999999999</ele><time>2026-04-26T13:30:19.485Z</time></trkpt><trkpt lat="40.5437208" lon="16.621295"><ele>56.0</ele><time>2026-04-26T13:30:20.486Z</time></trkpt><trkpt lat="40.5437771" lon="16.6214426"><ele>56.0</ele><time>2026-04-26T13:30:21.486Z</time></trkpt><trkpt lat="40.543828" lon="16.6215928"><ele>55.199999999999996</ele><time>2026-04-26T13:30:22.486Z</time></trkpt><trkpt lat="40.5438686" lon="16.621733"><ele>54.39999999999999</ele><time>2026-04-26T13:30:23.485Z</time></trkpt><trkpt lat="40.5438973" lon="16.6218643"><ele>53.6</ele><time>2026-04-26T13:30:24.486Z</time></trkpt><trkpt lat="40.5439082" lon="16.6219852"><ele>52.8</ele><time>2026-04-26T13:30:25.484Z</time></trkpt><trkpt lat="40.54391" lon="16.622097"><ele>52.0</ele><time>2026-04-26T13:30:26.485Z</time></trkpt><trkpt lat="40.5439049" lon="16.6222106"><ele>50.666666666666664</ele><time>2026-04-26T13:30:27.485Z</time></trkpt><trkpt lat="40.5438918" lon="16.6223252"><ele>49.33333333333333</ele><time>2026-04-26T13:30:28.485Z</time></trkpt><trkpt lat="40.5438752" lon="16.622437"><ele>48.0</ele><time>2026-04-26T13:30:29.485Z</time></trkpt><trkpt lat="40.5438573" lon="16.622546"><ele>46.666666666666664</ele><time>2026-04-26T13:30:30.486Z</time></trkpt><trkpt lat="40.5438401" lon="16.6226545"><ele>45.33333333333333</ele><time>2026-04-26T13:30:31.486Z</time></trkpt><trkpt lat="40.5438231" lon="16.6227673"><ele>44.0</ele><time>2026-04-26T13:30:32.486Z</time></trkpt><trkpt lat="40.5438023" lon="16.6228862"><ele>43.400000000000006</ele><time>2026-04-26T13:30:33.487Z</time></trkpt><trkpt lat="40.543782" lon="16.6230113"><ele>42.8</ele><time>2026-04-26T13:30:34.486Z</time></trkpt><trkpt lat="40.5437617" lon="16.6231413"><ele>42.2</ele><time>2026-04-26T13:30:35.486Z</time></trkpt><trkpt lat="40.5437444" lon="16.6232767"><ele>41.599999999999994</ele><time>2026-04-26T13:30:36.485Z</time></trkpt><trkpt lat="40.5437279" lon="16.6234097"><ele>41.0</ele><time>2026-04-26T13:30:37.485Z</time></trkpt><trkpt lat="40.5437101" lon="16.6235375"><ele>41.0</ele><time>2026-04-26T13:30:38.485Z</time></trkpt><trkpt lat="40.5436932" lon="16.6236639"><ele>41.0</ele><time>2026-04-26T13:30:39.485Z</time></trkpt><trkpt lat="40.5436757" lon="16.6237892"><ele>41.0</ele><time>2026-04-26T13:30:40.485Z</time></trkpt><trkpt lat="40.543656" lon="16.6239167"><ele>41.0</ele><time>2026-04-26T13:30:41.485Z</time></trkpt><trkpt lat="40.543637" lon="16.6240449"><ele>41.0</ele><time>2026-04-26T13:30:42.485Z</time></trkpt><trkpt lat="40.5436199" lon="16.6241747"><ele>41.0</ele><time>2026-04-26T13:30:43.487Z</time></trkpt><trkpt lat="40.5436005" lon="16.624305"><ele>41.0</ele><time>2026-04-26T13:30:44.485Z</time></trkpt><trkpt lat="40.5435803" lon="16.6244396"><ele>41.0</ele><time>2026-04-26T13:30:45.488Z</time></trkpt><trkpt lat="40.5435589" lon="16.6245764"><ele>41.0</ele><time>2026-04-26T13:30:46.486Z</time></trkpt><trkpt lat="40.5435388" lon="16.6247162"><ele>41.0</ele><time>2026-04-26T13:30:47.484Z</time></trkpt><trkpt lat="40.5435188" lon="16.624854"><ele>41.599999999999994</ele><time>2026-04-26T13:30:48.485Z</time></trkpt><trkpt lat="40.5434986" lon="16.6249933"><ele>42.2</ele><time>2026-04-26T13:30:49.484Z</time></trkpt><trkpt lat="40.5434787" lon="16.6251304"><ele>42.8</ele><time>2026-04-26T13:30:50.487Z</time></trkpt><trkpt lat="40.5434589" lon="16.6252656"><ele>43.400000000000006</ele><time>2026-04-26T13:30:51.485Z</time></trkpt><trkpt lat="40.5434402" lon="16.6254038"><ele>44.0</ele><time>2026-04-26T13:30:52.485Z</time></trkpt><trkpt lat="40.5434233" lon="16.6255476"><ele>45.75</ele><time>2026-04-26T13:30:53.485Z</time></trkpt><trkpt lat="40.5434153" lon="16.6256958"><ele>47.5</ele><time>2026-04-26T13:30:54.485Z</time></trkpt><trkpt lat="40.5434209" lon="16.6258528"><ele>49.25</ele><time>2026-04-26T13:30:55.484Z</time></trkpt><trkpt lat="40.543436" lon="16.626016"><ele>51.0</ele><time>2026-04-26T13:30:56.485Z</time></trkpt><trkpt lat="40.5434541" lon="16.6261829"><ele>52.0</ele><time>2026-04-26T13:30:57.484Z</time></trkpt><trkpt lat="40.5434715" lon="16.6263504"><ele>53.0</ele><time>2026-04-26T13:30:58.486Z</time></trkpt><trkpt lat="40.5434856" lon="16.6265101"><ele>54.0</ele><time>2026-04-26T13:30:59.485Z</time></trkpt><trkpt lat="40.5434988" lon="16.6266638"><ele>55.0</ele><time>2026-04-26T13:31:00.485Z</time></trkpt><trkpt lat="40.543512" lon="16.6268153"><ele>55.0</ele><time>2026-04-26T13:31:01.486Z</time></trkpt><trkpt lat="40.5435253" lon="16.6269678"><ele>55.0</ele><time>2026-04-26T13:31:02.486Z</time></trkpt><trkpt lat="40.5435398" lon="16.6271224"><ele>55.0</ele><time>2026-04-26T13:31:03.485Z</time></trkpt><trkpt lat="40.5435532" lon="16.6272794"><ele>55.0</ele><time>2026-04-26T13:31:04.486Z</time></trkpt><trkpt lat="40.54357" lon="16.6274393"><ele>55.0</ele><time>2026-04-26T13:31:05.486Z</time></trkpt><trkpt lat="40.5435898" lon="16.6276013"><ele>55.0</ele><time>2026-04-26T13:31:06.485Z</time></trkpt><trkpt lat="40.5436116" lon="16.6277676"><ele>55.0</ele><time>2026-04-26T13:31:07.485Z</time></trkpt><trkpt lat="40.5436318" lon="16.6279393"><ele>55.0</ele><time>2026-04-26T13:31:08.486Z</time></trkpt><trkpt lat="40.543649" lon="16.628116"><ele>55.0</ele><time>2026-04-26T13:31:09.485Z</time></trkpt><trkpt lat="40.5436654" lon="16.6283001"><ele>55.0</ele><time>2026-04-26T13:31:10.485Z</time></trkpt><trkpt lat="40.5436822" lon="16.6284975"><ele>55.0</ele><time>2026-04-26T13:31:11.485Z</time></trkpt><trkpt lat="40.5437016" lon="16.6286971"><ele>55.0</ele><time>2026-04-26T13:31:12.486Z</time></trkpt><trkpt lat="40.5437218" lon="16.6288917"><ele>55.0</ele><time>2026-04-26T13:31:13.485Z</time></trkpt><trkpt lat="40.5437391" lon="16.6290821"><ele>55.0</ele><time>2026-04-26T13:31:14.486Z</time></trkpt><trkpt lat="40.5437512" lon="16.6292689"><ele>55.0</ele><time>2026-04-26T13:31:15.485Z</time></trkpt><trkpt lat="40.5437597" lon="16.6294553"><ele>55.0</ele><time>2026-04-26T13:31:16.485Z</time></trkpt><trkpt lat="40.5437618" lon="16.6296462"><ele>55.0</ele><time>2026-04-26T13:31:17.485Z</time></trkpt><trkpt lat="40.5437566" lon="16.6298369"><ele>55.0</ele><time>2026-04-26T13:31:18.485Z</time></trkpt><trkpt lat="40.5437494" lon="16.6300139"><ele>55.0</ele><time>2026-04-26T13:31:19.485Z</time></trkpt><trkpt lat="40.5437434" lon="16.6301781"><ele>55.0</ele><time>2026-04-26T13:31:20.485Z</time></trkpt><trkpt lat="40.5437402" lon="16.6303272"><ele>54.99999999999999</ele><time>2026-04-26T13:31:21.488Z</time></trkpt><trkpt lat="40.5437442" lon="16.6304447"><ele>55.0</ele><time>2026-04-26T13:31:22.485Z</time></trkpt><trkpt lat="40.5437513" lon="16.630542"><ele>55.0</ele><time>2026-04-26T13:31:23.485Z</time></trkpt><trkpt lat="40.5437683" lon="16.6306345"><ele>55.0</ele><time>2026-04-26T13:31:24.485Z</time></trkpt><trkpt lat="40.543795" lon="16.6307342"><ele>54.99999999999999</ele><time>2026-04-26T13:31:25.485Z</time></trkpt><trkpt lat="40.5438288" lon="16.6308476"><ele>55.0</ele><time>2026-04-26T13:31:26.487Z</time></trkpt><trkpt lat="40.5438672" lon="16.630971"><ele>55.0</ele><time>2026-04-26T13:31:27.484Z</time></trkpt><trkpt lat="40.54391" lon="16.6310918"><ele>55.0</ele><time>2026-04-26T13:31:28.485Z</time></trkpt><trkpt lat="40.5439554" lon="16.6312069"><ele>55.0</ele><time>2026-04-26T13:31:29.484Z</time></trkpt><trkpt lat="40.5439969" lon="16.6313223"><ele>55.0</ele><time>2026-04-26T13:31:30.486Z</time></trkpt><trkpt lat="40.5440294" lon="16.6314446"><ele>55.0</ele><time>2026-04-26T13:31:31.487Z</time></trkpt><trkpt lat="40.5440533" lon="16.6315653"><ele>55.6</ele><time>2026-04-26T13:31:32.485Z</time></trkpt><trkpt lat="40.5440714" lon="16.6316702"><ele>56.2</ele><time>2026-04-26T13:31:33.487Z</time></trkpt><trkpt lat="40.5440899" lon="16.6318096"><ele>56.8</ele><time>2026-04-26T13:31:35.485Z</time></trkpt><trkpt lat="40.5441283" lon="16.6318967"><ele>57.4</ele><time>2026-04-26T13:31:38.486Z</time></trkpt><trkpt lat="40.5442333" lon="16.63188"><ele>58.0</ele><time>2026-04-26T13:31:40.485Z</time></trkpt><trkpt lat="40.544315" lon="16.63185"><ele>58.0</ele><time>2026-04-26T13:31:41.485Z</time></trkpt><trkpt lat="40.5444083" lon="16.6318133"><ele>58.0</ele><time>2026-04-26T13:31:42.485Z</time></trkpt><trkpt lat="40.544525" lon="16.6317733"><ele>58.0</ele><time>2026-04-26T13:31:43.486Z</time></trkpt><trkpt lat="40.5446517" lon="16.6317367"><ele>58.0</ele><time>2026-04-26T13:31:44.485Z</time></trkpt><trkpt lat="40.5447833" lon="16.6317067"><ele>58.0</ele><time>2026-04-26T13:31:45.485Z</time></trkpt><trkpt lat="40.544915" lon="16.631685"><ele>58.0</ele><time>2026-04-26T13:31:46.486Z</time></trkpt><trkpt lat="40.54506" lon="16.6316817"><ele>58.0</ele><time>2026-04-26T13:31:47.485Z</time></trkpt><trkpt lat="40.545215" lon="16.6317067"><ele>58.0</ele><time>2026-04-26T13:31:48.485Z</time></trkpt><trkpt lat="40.5453717" lon="16.6317483"><ele>57.666666666666664</ele><time>2026-04-26T13:31:49.485Z</time></trkpt><trkpt lat="40.54553" lon="16.631795"><ele>57.33333333333333</ele><time>2026-04-26T13:31:50.485Z</time></trkpt><trkpt lat="40.54569" lon="16.631845"><ele>57.0</ele><time>2026-04-26T13:31:51.485Z</time></trkpt><trkpt lat="40.5458483" lon="16.6318967"><ele>57.0</ele><time>2026-04-26T13:31:52.485Z</time></trkpt><trkpt lat="40.546005" lon="16.631955"><ele>57.0</ele><time>2026-04-26T13:31:53.485Z</time></trkpt><trkpt lat="40.5461617" lon="16.63202"><ele>57.0</ele><time>2026-04-26T13:31:54.485Z</time></trkpt><trkpt lat="40.5463183" lon="16.6320867"><ele>58.66666666666667</ele><time>2026-04-26T13:31:55.485Z</time></trkpt><trkpt lat="40.54647" lon="16.6321567"><ele>60.333333333333336</ele><time>2026-04-26T13:31:56.485Z</time></trkpt><trkpt lat="40.54662" lon="16.632225"><ele>62.0</ele><time>2026-04-26T13:31:57.486Z</time></trkpt><trkpt lat="40.54677" lon="16.6322833"><ele>62.0</ele><time>2026-04-26T13:31:58.485Z</time></trkpt><trkpt lat="40.5469233" lon="16.6323133"><ele>62.0</ele><time>2026-04-26T13:31:59.485Z</time></trkpt><trkpt lat="40.547085" lon="16.6323117"><ele>62.0</ele><time>2026-04-26T13:32:00.486Z</time></trkpt><trkpt lat="40.547245" lon="16.6322833"><ele>61.0</ele><time>2026-04-26T13:32:01.485Z</time></trkpt><trkpt lat="40.547405" lon="16.6322417"><ele>60.0</ele><time>2026-04-26T13:32:02.486Z</time></trkpt><trkpt lat="40.5475633" lon="16.6322033"><ele>59.0</ele><time>2026-04-26T13:32:03.486Z</time></trkpt><trkpt lat="40.54772" lon="16.632165"><ele>59.66666666666667</ele><time>2026-04-26T13:32:04.485Z</time></trkpt><trkpt lat="40.54788" lon="16.6321283"><ele>60.33333333333333</ele><time>2026-04-26T13:32:05.487Z</time></trkpt><trkpt lat="40.5480433" lon="16.6320933"><ele>61.0</ele><time>2026-04-26T13:32:06.485Z</time></trkpt><trkpt lat="40.54821" lon="16.6320567"><ele>61.0</ele><time>2026-04-26T13:32:07.485Z</time></trkpt><trkpt lat="40.54838" lon="16.63202"><ele>61.0</ele><time>2026-04-26T13:32:08.485Z</time></trkpt><trkpt lat="40.5485517" lon="16.631985"><ele>61.0</ele><time>2026-04-26T13:32:09.486Z</time></trkpt><trkpt lat="40.5487233" lon="16.6319467"><ele>60.0</ele><time>2026-04-26T13:32:10.487Z</time></trkpt><trkpt lat="40.5488933" lon="16.63191"><ele>59.0</ele><time>2026-04-26T13:32:11.485Z</time></trkpt><trkpt lat="40.54906" lon="16.6318717"><ele>58.0</ele><time>2026-04-26T13:32:12.485Z</time></trkpt><trkpt lat="40.549225" lon="16.6318333"><ele>58.0</ele><time>2026-04-26T13:32:13.485Z</time></trkpt><trkpt lat="40.5493867" lon="16.631795"><ele>58.0</ele><time>2026-04-26T13:32:14.486Z</time></trkpt><trkpt lat="40.549545" lon="16.6317533"><ele>58.0</ele><time>2026-04-26T13:32:15.485Z</time></trkpt><trkpt lat="40.5497033" lon="16.6317133"><ele>59.0</ele><time>2026-04-26T13:32:16.485Z</time></trkpt><trkpt lat="40.5498583" lon="16.6316683"><ele>60.0</ele><time>2026-04-26T13:32:17.485Z</time></trkpt><trkpt lat="40.5500133" lon="16.631615"><ele>61.0</ele><time>2026-04-26T13:32:18.487Z</time></trkpt><trkpt lat="40.5501667" lon="16.63155"><ele>61.0</ele><time>2026-04-26T13:32:19.488Z</time></trkpt><trkpt lat="40.55032" lon="16.631475"><ele>61.0</ele><time>2026-04-26T13:32:20.486Z</time></trkpt><trkpt lat="40.5504783" lon="16.6313967"><ele>61.0</ele><time>2026-04-26T13:32:21.485Z</time></trkpt><trkpt lat="40.5506367" lon="16.6313133"><ele>60.33333333333333</ele><time>2026-04-26T13:32:22.485Z</time></trkpt><trkpt lat="40.5507983" lon="16.63123"><ele>59.66666666666667</ele><time>2026-04-26T13:32:23.485Z</time></trkpt><trkpt lat="40.55096" lon="16.6311483"><ele>59.0</ele><time>2026-04-26T13:32:24.488Z</time></trkpt><trkpt lat="40.5511183" lon="16.6310683"><ele>60.0</ele><time>2026-04-26T13:32:25.485Z</time></trkpt><trkpt lat="40.5512783" lon="16.63099"><ele>61.0</ele><time>2026-04-26T13:32:26.486Z</time></trkpt><trkpt lat="40.5514367" lon="16.63091"><ele>62.0</ele><time>2026-04-26T13:32:27.485Z</time></trkpt><trkpt lat="40.5515933" lon="16.6308317"><ele>62.0</ele><time>2026-04-26T13:32:28.485Z</time></trkpt><trkpt lat="40.5517517" lon="16.630755"><ele>62.0</ele><time>2026-04-26T13:32:29.485Z</time></trkpt><trkpt lat="40.5519083" lon="16.630675"><ele>62.0</ele><time>2026-04-26T13:32:30.485Z</time></trkpt><trkpt lat="40.552065" lon="16.630595"><ele>63.66666666666667</ele><time>2026-04-26T13:32:31.487Z</time></trkpt><trkpt lat="40.5522217" lon="16.630515"><ele>65.33333333333333</ele><time>2026-04-26T13:32:32.486Z</time></trkpt><trkpt lat="40.552385" lon="16.6304467"><ele>67.0</ele><time>2026-04-26T13:32:33.485Z</time></trkpt><trkpt lat="40.552555" lon="16.630395"><ele>67.0</ele><time>2026-04-26T13:32:34.485Z</time></trkpt><trkpt lat="40.5527267" lon="16.6303617"><ele>67.0</ele><time>2026-04-26T13:32:35.485Z</time></trkpt><trkpt lat="40.5528983" lon="16.6303467"><ele>67.0</ele><time>2026-04-26T13:32:36.485Z</time></trkpt><trkpt lat="40.5530717" lon="16.6303433"><ele>66.33333333333333</ele><time>2026-04-26T13:32:37.485Z</time></trkpt><trkpt lat="40.553245" lon="16.6303433"><ele>65.66666666666667</ele><time>2026-04-26T13:32:38.486Z</time></trkpt><trkpt lat="40.55342" lon="16.6303483"><ele>65.0</ele><time>2026-04-26T13:32:39.486Z</time></trkpt><trkpt lat="40.5535983" lon="16.6303517"><ele>65.0</ele><time>2026-04-26T13:32:40.486Z</time></trkpt><trkpt lat="40.5537767" lon="16.630355"><ele>65.0</ele><time>2026-04-26T13:32:41.485Z</time></trkpt><trkpt lat="40.5539567" lon="16.6303567"><ele>65.0</ele><time>2026-04-26T13:32:42.485Z</time></trkpt><trkpt lat="40.554135" lon="16.6303617"><ele>65.0</ele><time>2026-04-26T13:32:43.486Z</time></trkpt><trkpt lat="40.5543117" lon="16.630375"><ele>65.0</ele><time>2026-04-26T13:32:44.486Z</time></trkpt><trkpt lat="40.5544915" lon="16.6303868"><ele>65.0</ele><time>2026-04-26T13:32:45.487Z</time></trkpt><trkpt lat="40.5546689" lon="16.6303922"><ele>64.66666666666667</ele><time>2026-04-26T13:32:46.486Z</time></trkpt><trkpt lat="40.5548455" lon="16.6303783"><ele>64.33333333333333</ele><time>2026-04-26T13:32:47.485Z</time></trkpt><trkpt lat="40.5550205" lon="16.630342"><ele>64.0</ele><time>2026-04-26T13:32:48.486Z</time></trkpt><trkpt lat="40.5551921" lon="16.6302763"><ele>63.666666666666664</ele><time>2026-04-26T13:32:49.485Z</time></trkpt><trkpt lat="40.5553604" lon="16.630189"><ele>63.33333333333333</ele><time>2026-04-26T13:32:50.487Z</time></trkpt><trkpt lat="40.5555251" lon="16.6300941"><ele>63.0</ele><time>2026-04-26T13:32:51.487Z</time></trkpt><trkpt lat="40.5556882" lon="16.6299987"><ele>63.0</ele><time>2026-04-26T13:32:52.485Z</time></trkpt><trkpt lat="40.5558475" lon="16.629907"><ele>63.0</ele><time>2026-04-26T13:32:53.485Z</time></trkpt><trkpt lat="40.5559983" lon="16.629819"><ele>63.0</ele><time>2026-04-26T13:32:54.485Z</time></trkpt><trkpt lat="40.5561474" lon="16.6297338"><ele>62.66666666666667</ele><time>2026-04-26T13:32:55.485Z</time></trkpt><trkpt lat="40.556297" lon="16.6296509"><ele>62.333333333333336</ele><time>2026-04-26T13:32:56.485Z</time></trkpt><trkpt lat="40.5564424" lon="16.6295629"><ele>62.0</ele><time>2026-04-26T13:32:57.485Z</time></trkpt><trkpt lat="40.5565872" lon="16.6294734"><ele>62.0</ele><time>2026-04-26T13:32:58.485Z</time></trkpt><trkpt lat="40.5567342" lon="16.629386"><ele>62.0</ele><time>2026-04-26T13:32:59.485Z</time></trkpt><trkpt lat="40.5568839" lon="16.6292988"><ele>62.0</ele><time>2026-04-26T13:33:00.485Z</time></trkpt><trkpt lat="40.5570342" lon="16.6292138"><ele>62.333333333333336</ele><time>2026-04-26T13:33:01.485Z</time></trkpt><trkpt lat="40.5571841" lon="16.6291256"><ele>62.66666666666667</ele><time>2026-04-26T13:33:02.486Z</time></trkpt><trkpt lat="40.5573328" lon="16.6290384"><ele>63.0</ele><time>2026-04-26T13:33:03.485Z</time></trkpt><trkpt lat="40.5574823" lon="16.6289528"><ele>63.0</ele><time>2026-04-26T13:33:04.485Z</time></trkpt><trkpt lat="40.5576312" lon="16.6288676"><ele>63.0</ele><time>2026-04-26T13:33:05.486Z</time></trkpt><trkpt lat="40.5577807" lon="16.6287816"><ele>63.0</ele><time>2026-04-26T13:33:06.485Z</time></trkpt><trkpt lat="40.5579336" lon="16.6287063"><ele>63.33333333333333</ele><time>2026-04-26T13:33:07.485Z</time></trkpt><trkpt lat="40.558092" lon="16.6286515"><ele>63.666666666666664</ele><time>2026-04-26T13:33:08.486Z</time></trkpt><trkpt lat="40.5582569" lon="16.6286224"><ele>64.0</ele><time>2026-04-26T13:33:09.485Z</time></trkpt><trkpt lat="40.5584215" lon="16.6286123"><ele>63.0</ele><time>2026-04-26T13:33:10.485Z</time></trkpt><trkpt lat="40.5585864" lon="16.6286162"><ele>62.0</ele><time>2026-04-26T13:33:11.485Z</time></trkpt><trkpt lat="40.5587513" lon="16.6286256"><ele>61.0</ele><time>2026-04-26T13:33:12.485Z</time></trkpt><trkpt lat="40.5589152" lon="16.6286344"><ele>61.0</ele><time>2026-04-26T13:33:13.485Z</time></trkpt><trkpt lat="40.5590795" lon="16.6286394"><ele>61.0</ele><time>2026-04-26T13:33:14.485Z</time></trkpt><trkpt lat="40.5592434" lon="16.6286432"><ele>61.0</ele><time>2026-04-26T13:33:15.485Z</time></trkpt><trkpt lat="40.5594069" lon="16.6286445"><ele>63.0</ele><time>2026-04-26T13:33:16.487Z</time></trkpt><trkpt lat="40.5595713" lon="16.6286484"><ele>65.0</ele><time>2026-04-26T13:33:17.485Z</time></trkpt><trkpt lat="40.5597364" lon="16.6286528"><ele>67.0</ele><time>2026-04-26T13:33:18.486Z</time></trkpt><trkpt lat="40.5599014" lon="16.6286556"><ele>67.0</ele><time>2026-04-26T13:33:19.486Z</time></trkpt><trkpt lat="40.5600665" lon="16.6286597"><ele>67.0</ele><time>2026-04-26T13:33:20.485Z</time></trkpt><trkpt lat="40.5602315" lon="16.6286634"><ele>67.0</ele><time>2026-04-26T13:33:21.485Z</time></trkpt><trkpt lat="40.560395" lon="16.6286725"><ele>65.66666666666666</ele><time>2026-04-26T13:33:22.486Z</time></trkpt><trkpt lat="40.5605566" lon="16.628681"><ele>64.33333333333333</ele><time>2026-04-26T13:33:23.486Z</time></trkpt><trkpt lat="40.560718" lon="16.6286861"><ele>63.0</ele><time>2026-04-26T13:33:24.485Z</time></trkpt><trkpt lat="40.5608802" lon="16.6286934"><ele>63.0</ele><time>2026-04-26T13:33:25.486Z</time></trkpt><trkpt lat="40.5610422" lon="16.6287037"><ele>63.0</ele><time>2026-04-26T13:33:26.486Z</time></trkpt><trkpt lat="40.5612035" lon="16.6287149"><ele>63.0</ele><time>2026-04-26T13:33:27.485Z</time></trkpt><trkpt lat="40.5613652" lon="16.6287242"><ele>62.66666666666667</ele><time>2026-04-26T13:33:28.485Z</time></trkpt><trkpt lat="40.5615268" lon="16.6287352"><ele>62.333333333333336</ele><time>2026-04-26T13:33:29.485Z</time></trkpt><trkpt lat="40.5616897" lon="16.6287512"><ele>62.0</ele><time>2026-04-26T13:33:30.485Z</time></trkpt><trkpt lat="40.5618517" lon="16.6287768"><ele>62.0</ele><time>2026-04-26T13:33:31.485Z</time></trkpt><trkpt lat="40.562011" lon="16.6288112"><ele>62.0</ele><time>2026-04-26T13:33:32.487Z</time></trkpt><trkpt lat="40.5621684" lon="16.6288502"><ele>62.0</ele><time>2026-04-26T13:33:33.485Z</time></trkpt><trkpt lat="40.5623238" lon="16.6288854"><ele>62.333333333333336</ele><time>2026-04-26T13:33:34.485Z</time></trkpt><trkpt lat="40.5624785" lon="16.6289136"><ele>62.66666666666667</ele><time>2026-04-26T13:33:35.486Z</time></trkpt><trkpt lat="40.562629" lon="16.6289384"><ele>63.0</ele><time>2026-04-26T13:33:36.485Z</time></trkpt><trkpt lat="40.5627784" lon="16.6289642"><ele>63.0</ele><time>2026-04-26T13:33:37.486Z</time></trkpt><trkpt lat="40.5629295" lon="16.6289918"><ele>63.0</ele><time>2026-04-26T13:33:38.486Z</time></trkpt><trkpt lat="40.5630816" lon="16.6290247"><ele>63.0</ele><time>2026-04-26T13:33:39.485Z</time></trkpt><trkpt lat="40.5632336" lon="16.6290692"><ele>63.0</ele><time>2026-04-26T13:33:40.486Z</time></trkpt><trkpt lat="40.5633864" lon="16.629129"><ele>63.0</ele><time>2026-04-26T13:33:41.485Z</time></trkpt><trkpt lat="40.5635369" lon="16.6292045"><ele>63.0</ele><time>2026-04-26T13:33:42.486Z</time></trkpt><trkpt lat="40.563684" lon="16.629288"><ele>63.0</ele><time>2026-04-26T13:33:43.486Z</time></trkpt><trkpt lat="40.5638263" lon="16.629386"><ele>63.0</ele><time>2026-04-26T13:33:44.486Z</time></trkpt><trkpt lat="40.5639619" lon="16.6294962"><ele>63.0</ele><time>2026-04-26T13:33:45.485Z</time></trkpt><trkpt lat="40.5640932" lon="16.6296158"><ele>63.0</ele><time>2026-04-26T13:33:46.486Z</time></trkpt><trkpt lat="40.5642199" lon="16.6297385"><ele>63.0</ele><time>2026-04-26T13:33:47.485Z</time></trkpt><trkpt lat="40.5643461" lon="16.6298627"><ele>63.0</ele><time>2026-04-26T13:33:48.486Z</time></trkpt><trkpt lat="40.5644706" lon="16.6299842"><ele>63.0</ele><time>2026-04-26T13:33:49.486Z</time></trkpt><trkpt lat="40.564593" lon="16.6300992"><ele>63.0</ele><time>2026-04-26T13:33:50.486Z</time></trkpt><trkpt lat="40.5647155" lon="16.6302122"><ele>63.0</ele><time>2026-04-26T13:33:51.485Z</time></trkpt><trkpt lat="40.5648373" lon="16.6303252"><ele>63.0</ele><time>2026-04-26T13:33:52.485Z</time></trkpt><trkpt lat="40.5649589" lon="16.6304381"><ele>63.0</ele><time>2026-04-26T13:33:53.485Z</time></trkpt><trkpt lat="40.5650805" lon="16.630551"><ele>63.0</ele><time>2026-04-26T13:33:54.484Z</time></trkpt><trkpt lat="40.5652049" lon="16.6306631"><ele>63.0</ele><time>2026-04-26T13:33:55.485Z</time></trkpt><trkpt lat="40.5653343" lon="16.6307717"><ele>63.0</ele><time>2026-04-26T13:33:56.486Z</time></trkpt><trkpt lat="40.5654688" lon="16.6308739"><ele>63.0</ele><time>2026-04-26T13:33:57.485Z</time></trkpt><trkpt lat="40.5656101" lon="16.6309623"><ele>63.0</ele><time>2026-04-26T13:33:58.486Z</time></trkpt><trkpt lat="40.5657571" lon="16.6310341"><ele>63.0</ele><time>2026-04-26T13:33:59.489Z</time></trkpt><trkpt lat="40.5659073" lon="16.6310903"><ele>63.0</ele><time>2026-04-26T13:34:00.486Z</time></trkpt><trkpt lat="40.5660608" lon="16.6311308"><ele>63.0</ele><time>2026-04-26T13:34:01.486Z</time></trkpt><trkpt lat="40.5662174" lon="16.6311545"><ele>62.66666666666667</ele><time>2026-04-26T13:34:02.486Z</time></trkpt><trkpt lat="40.5663745" lon="16.6311602"><ele>62.333333333333336</ele><time>2026-04-26T13:34:03.486Z</time></trkpt><trkpt lat="40.5665315" lon="16.6311521"><ele>62.0</ele><time>2026-04-26T13:34:04.486Z</time></trkpt><trkpt lat="40.5666881" lon="16.6311364"><ele>62.0</ele><time>2026-04-26T13:34:05.486Z</time></trkpt><trkpt lat="40.5668435" lon="16.6311161"><ele>62.0</ele><time>2026-04-26T13:34:06.485Z</time></trkpt><trkpt lat="40.5669975" lon="16.6310966"><ele>62.0</ele><time>2026-04-26T13:34:07.486Z</time></trkpt><trkpt lat="40.5671522" lon="16.631077"><ele>62.333333333333336</ele><time>2026-04-26T13:34:08.486Z</time></trkpt><trkpt lat="40.5673058" lon="16.6310541"><ele>62.66666666666667</ele><time>2026-04-26T13:34:09.486Z</time></trkpt><trkpt lat="40.5674603" lon="16.6310305"><ele>63.0</ele><time>2026-04-26T13:34:10.485Z</time></trkpt><trkpt lat="40.5676164" lon="16.6310078"><ele>63.0</ele><time>2026-04-26T13:34:11.484Z</time></trkpt><trkpt lat="40.5677729" lon="16.6309888"><ele>63.0</ele><time>2026-04-26T13:34:12.486Z</time></trkpt><trkpt lat="40.567927" lon="16.6309706"><ele>63.0</ele><time>2026-04-26T13:34:13.487Z</time></trkpt><trkpt lat="40.56808" lon="16.630953"><ele>62.75</ele><time>2026-04-26T13:34:14.486Z</time></trkpt><trkpt lat="40.5682303" lon="16.630935"><ele>62.5</ele><time>2026-04-26T13:34:15.485Z</time></trkpt><trkpt lat="40.5683788" lon="16.630915"><ele>62.25</ele><time>2026-04-26T13:34:16.485Z</time></trkpt><trkpt lat="40.5685271" lon="16.6308949"><ele>62.0</ele><time>2026-04-26T13:34:17.487Z</time></trkpt><trkpt lat="40.568675" lon="16.6308735"><ele>62.25</ele><time>2026-04-26T13:34:18.485Z</time></trkpt><trkpt lat="40.568822" lon="16.6308515"><ele>62.5</ele><time>2026-04-26T13:34:19.487Z</time></trkpt><trkpt lat="40.5689712" lon="16.6308313"><ele>62.75</ele><time>2026-04-26T13:34:20.486Z</time></trkpt><trkpt lat="40.5691199" lon="16.6308095"><ele>63.0</ele><time>2026-04-26T13:34:21.485Z</time></trkpt><trkpt lat="40.5692698" lon="16.6307875"><ele>63.0</ele><time>2026-04-26T13:34:22.486Z</time></trkpt><trkpt lat="40.569421" lon="16.6307683"><ele>63.0</ele><time>2026-04-26T13:34:23.485Z</time></trkpt><trkpt lat="40.5695716" lon="16.6307492"><ele>63.0</ele><time>2026-04-26T13:34:24.486Z</time></trkpt><trkpt lat="40.569725" lon="16.6307333"><ele>62.66666666666667</ele><time>2026-04-26T13:34:25.485Z</time></trkpt><trkpt lat="40.5698783" lon="16.63072"><ele>62.333333333333336</ele><time>2026-04-26T13:34:26.486Z</time></trkpt><trkpt lat="40.5700317" lon="16.6307033"><ele>62.0</ele><time>2026-04-26T13:34:27.485Z</time></trkpt><trkpt lat="40.5701833" lon="16.63069"><ele>62.0</ele><time>2026-04-26T13:34:28.487Z</time></trkpt><trkpt lat="40.570335" lon="16.630675"><ele>62.0</ele><time>2026-04-26T13:34:29.485Z</time></trkpt><trkpt lat="40.5704867" lon="16.630665"><ele>62.0</ele><time>2026-04-26T13:34:30.485Z</time></trkpt><trkpt lat="40.57064" lon="16.6306583"><ele>61.66666666666667</ele><time>2026-04-26T13:34:31.485Z</time></trkpt><trkpt lat="40.5707917" lon="16.6306533"><ele>61.33333333333333</ele><time>2026-04-26T13:34:32.486Z</time></trkpt><trkpt lat="40.5709467" lon="16.6306433"><ele>61.0</ele><time>2026-04-26T13:34:33.485Z</time></trkpt><trkpt lat="40.571105" lon="16.6306283"><ele>61.33333333333333</ele><time>2026-04-26T13:34:34.485Z</time></trkpt><trkpt lat="40.5712617" lon="16.630615"><ele>61.66666666666667</ele><time>2026-04-26T13:34:35.486Z</time></trkpt><trkpt lat="40.57142" lon="16.6306083"><ele>62.0</ele><time>2026-04-26T13:34:36.485Z</time></trkpt><trkpt lat="40.5715767" lon="16.6306"><ele>62.0</ele><time>2026-04-26T13:34:37.485Z</time></trkpt><trkpt lat="40.5717317" lon="16.6305917"><ele>62.0</ele><time>2026-04-26T13:34:38.486Z</time></trkpt><trkpt lat="40.5718883" lon="16.6305833"><ele>62.0</ele><time>2026-04-26T13:34:39.485Z</time></trkpt><trkpt lat="40.572045" lon="16.63058"><ele>61.66666666666667</ele><time>2026-04-26T13:34:40.486Z</time></trkpt><trkpt lat="40.5722033" lon="16.630575"><ele>61.33333333333333</ele><time>2026-04-26T13:34:41.485Z</time></trkpt><trkpt lat="40.5723617" lon="16.6305683"><ele>61.0</ele><time>2026-04-26T13:34:42.485Z</time></trkpt><trkpt lat="40.5725183" lon="16.6305617"><ele>61.0</ele><time>2026-04-26T13:34:43.486Z</time></trkpt><trkpt lat="40.5726767" lon="16.630555"><ele>61.0</ele><time>2026-04-26T13:34:44.486Z</time></trkpt><trkpt lat="40.5728333" lon="16.6305483"><ele>61.0</ele><time>2026-04-26T13:34:45.485Z</time></trkpt><trkpt lat="40.57299" lon="16.6305433"><ele>61.666666666666664</ele><time>2026-04-26T13:34:46.485Z</time></trkpt><trkpt lat="40.5731467" lon="16.6305367"><ele>62.33333333333333</ele><time>2026-04-26T13:34:47.486Z</time></trkpt><trkpt lat="40.5733033" lon="16.63053"><ele>63.0</ele><time>2026-04-26T13:34:48.486Z</time></trkpt><trkpt lat="40.57346" lon="16.630525"><ele>63.0</ele><time>2026-04-26T13:34:49.486Z</time></trkpt><trkpt lat="40.573615" lon="16.6305233"><ele>63.0</ele><time>2026-04-26T13:34:50.486Z</time></trkpt><trkpt lat="40.5737717" lon="16.630525"><ele>63.0</ele><time>2026-04-26T13:34:51.486Z</time></trkpt><trkpt lat="40.5739267" lon="16.630535"><ele>63.33333333333333</ele><time>2026-04-26T13:34:52.486Z</time></trkpt><trkpt lat="40.574085" lon="16.63056"><ele>63.666666666666664</ele><time>2026-04-26T13:34:53.486Z</time></trkpt><trkpt lat="40.5742417" lon="16.630595"><ele>64.0</ele><time>2026-04-26T13:34:54.486Z</time></trkpt><trkpt lat="40.5743983" lon="16.630635"><ele>65.0</ele><time>2026-04-26T13:34:55.486Z</time></trkpt><trkpt lat="40.5745567" lon="16.6306767"><ele>66.0</ele><time>2026-04-26T13:34:56.485Z</time></trkpt><trkpt lat="40.5747167" lon="16.6307167"><ele>67.0</ele><time>2026-04-26T13:34:57.484Z</time></trkpt><trkpt lat="40.5748767" lon="16.6307567"><ele>67.0</ele><time>2026-04-26T13:34:58.485Z</time></trkpt><trkpt lat="40.5750367" lon="16.6307967"><ele>67.0</ele><time>2026-04-26T13:34:59.485Z</time></trkpt><trkpt lat="40.5751967" lon="16.6308383"><ele>67.0</ele><time>2026-04-26T13:35:00.485Z</time></trkpt><trkpt lat="40.575355" lon="16.63088"><ele>66.0</ele><time>2026-04-26T13:35:01.486Z</time></trkpt><trkpt lat="40.5755133" lon="16.63092"><ele>65.0</ele><time>2026-04-26T13:35:02.485Z</time></trkpt><trkpt lat="40.5756733" lon="16.6309583"><ele>64.0</ele><time>2026-04-26T13:35:03.486Z</time></trkpt><trkpt lat="40.5758333" lon="16.6309967"><ele>64.0</ele><time>2026-04-26T13:35:04.484Z</time></trkpt><trkpt lat="40.5759917" lon="16.631035"><ele>64.0</ele><time>2026-04-26T13:35:05.486Z</time></trkpt><trkpt lat="40.5761467" lon="16.6310717"><ele>64.0</ele><time>2026-04-26T13:35:06.484Z</time></trkpt><trkpt lat="40.5763017" lon="16.6311083"><ele>65.0</ele><time>2026-04-26T13:35:07.486Z</time></trkpt><trkpt lat="40.5764533" lon="16.6311467"><ele>66.0</ele><time>2026-04-26T13:35:08.485Z</time></trkpt><trkpt lat="40.5766017" lon="16.6311833"><ele>67.0</ele><time>2026-04-26T13:35:09.485Z</time></trkpt><trkpt lat="40.5767517" lon="16.631215"><ele>67.0</ele><time>2026-04-26T13:35:10.484Z</time></trkpt><trkpt lat="40.5769017" lon="16.63125"><ele>67.0</ele><time>2026-04-26T13:35:11.484Z</time></trkpt><trkpt lat="40.57705" lon="16.6312867"><ele>67.0</ele><time>2026-04-26T13:35:12.484Z</time></trkpt><trkpt lat="40.5772017" lon="16.6313267"><ele>67.66666666666666</ele><time>2026-04-26T13:35:13.484Z</time></trkpt><trkpt lat="40.5773517" lon="16.631365"><ele>68.33333333333333</ele><time>2026-04-26T13:35:14.486Z</time></trkpt><trkpt lat="40.5775017" lon="16.6314017"><ele>69.0</ele><time>2026-04-26T13:35:15.485Z</time></trkpt><trkpt lat="40.5776533" lon="16.6314417"><ele>69.0</ele><time>2026-04-26T13:35:16.484Z</time></trkpt><trkpt lat="40.5778017" lon="16.6314967"><ele>69.0</ele><time>2026-04-26T13:35:17.486Z</time></trkpt><trkpt lat="40.5779467" lon="16.631575"><ele>69.0</ele><time>2026-04-26T13:35:18.485Z</time></trkpt><trkpt lat="40.5780833" lon="16.631685"><ele>69.33333333333333</ele><time>2026-04-26T13:35:19.487Z</time></trkpt><trkpt lat="40.5782133" lon="16.6318133"><ele>69.66666666666666</ele><time>2026-04-26T13:35:20.485Z</time></trkpt><trkpt lat="40.5783383" lon="16.63195"><ele>70.0</ele><time>2026-04-26T13:35:21.486Z</time></trkpt><trkpt lat="40.57846" lon="16.632085"><ele>70.0</ele><time>2026-04-26T13:35:22.484Z</time></trkpt><trkpt lat="40.57858" lon="16.6322183"><ele>70.0</ele><time>2026-04-26T13:35:23.484Z</time></trkpt><trkpt lat="40.5786983" lon="16.6323467"><ele>70.0</ele><time>2026-04-26T13:35:24.485Z</time></trkpt><trkpt lat="40.5788133" lon="16.63247"><ele>70.5</ele><time>2026-04-26T13:35:25.485Z</time></trkpt><trkpt lat="40.57893" lon="16.6325817"><ele>71.0</ele><time>2026-04-26T13:35:26.485Z</time></trkpt><trkpt lat="40.579055" lon="16.6326717"><ele>71.5</ele><time>2026-04-26T13:35:27.485Z</time></trkpt><trkpt lat="40.57919" lon="16.6327267"><ele>72.0</ele><time>2026-04-26T13:35:28.484Z</time></trkpt><trkpt lat="40.5793333" lon="16.6327317"><ele>72.0</ele><time>2026-04-26T13:35:29.485Z</time></trkpt><trkpt lat="40.579475" lon="16.6326867"><ele>72.0</ele><time>2026-04-26T13:35:30.485Z</time></trkpt><trkpt lat="40.5796083" lon="16.6325883"><ele>72.0</ele><time>2026-04-26T13:35:31.485Z</time></trkpt><trkpt lat="40.579735" lon="16.6324617"><ele>73.66666666666667</ele><time>2026-04-26T13:35:32.488Z</time></trkpt><trkpt lat="40.5798617" lon="16.63232"><ele>75.33333333333334</ele><time>2026-04-26T13:35:33.484Z</time></trkpt><trkpt lat="40.5799867" lon="16.6321733"><ele>77.0</ele><time>2026-04-26T13:35:34.485Z</time></trkpt><trkpt lat="40.5801117" lon="16.6320233"><ele>77.0</ele><time>2026-04-26T13:35:35.485Z</time></trkpt><trkpt lat="40.5802367" lon="16.6318767"><ele>77.0</ele><time>2026-04-26T13:35:36.484Z</time></trkpt><trkpt lat="40.5803633" lon="16.6317333"><ele>77.0</ele><time>2026-04-26T13:35:37.485Z</time></trkpt><trkpt lat="40.58049" lon="16.6315917"><ele>78.33333333333334</ele><time>2026-04-26T13:35:38.487Z</time></trkpt><trkpt lat="40.580615" lon="16.6314467"><ele>79.66666666666667</ele><time>2026-04-26T13:35:39.484Z</time></trkpt><trkpt lat="40.5807367" lon="16.6313017"><ele>81.0</ele><time>2026-04-26T13:35:40.486Z</time></trkpt><trkpt lat="40.58086" lon="16.63116"><ele>81.66666666666667</ele><time>2026-04-26T13:35:41.484Z</time></trkpt><trkpt lat="40.5809817" lon="16.63102"><ele>82.33333333333334</ele><time>2026-04-26T13:35:42.484Z</time></trkpt><trkpt lat="40.5811017" lon="16.6308817"><ele>83.0</ele><time>2026-04-26T13:35:43.485Z</time></trkpt><trkpt lat="40.5812217" lon="16.63074"><ele>84.33333333333334</ele><time>2026-04-26T13:35:44.484Z</time></trkpt><trkpt lat="40.5813417" lon="16.6306"><ele>85.66666666666667</ele><time>2026-04-26T13:35:45.486Z</time></trkpt><trkpt lat="40.58146" lon="16.6304633"><ele>87.0</ele><time>2026-04-26T13:35:46.485Z</time></trkpt><trkpt lat="40.5815783" lon="16.63033"><ele>87.0</ele><time>2026-04-26T13:35:47.485Z</time></trkpt><trkpt lat="40.581695" lon="16.6302067"><ele>87.0</ele><time>2026-04-26T13:35:48.485Z</time></trkpt><trkpt lat="40.5818067" lon="16.6301083"><ele>87.0</ele><time>2026-04-26T13:35:49.484Z</time></trkpt><trkpt lat="40.5819183" lon="16.6300383"><ele>87.0</ele><time>2026-04-26T13:35:50.486Z</time></trkpt><trkpt lat="40.5820333" lon="16.630005"><ele>87.0</ele><time>2026-04-26T13:35:51.484Z</time></trkpt><trkpt lat="40.582145" lon="16.6300233"><ele>87.0</ele><time>2026-04-26T13:35:52.485Z</time></trkpt><trkpt lat="40.5822517" lon="16.6300983"><ele>87.0</ele><time>2026-04-26T13:35:53.485Z</time></trkpt><trkpt lat="40.5823417" lon="16.63022"><ele>87.0</ele><time>2026-04-26T13:35:54.487Z</time></trkpt><trkpt lat="40.58242" lon="16.6303767"><ele>87.5</ele><time>2026-04-26T13:35:55.485Z</time></trkpt><trkpt lat="40.5824933" lon="16.6305433"><ele>88.0</ele><time>2026-04-26T13:35:56.489Z</time></trkpt><trkpt lat="40.5825717" lon="16.63071"><ele>88.5</ele><time>2026-04-26T13:35:57.485Z</time></trkpt><trkpt lat="40.5826517" lon="16.6308767"><ele>89.0</ele><time>2026-04-26T13:35:58.485Z</time></trkpt><trkpt lat="40.5827383" lon="16.631045"><ele>89.66666666666667</ele><time>2026-04-26T13:35:59.484Z</time></trkpt><trkpt lat="40.5828267" lon="16.6312183"><ele>90.33333333333333</ele><time>2026-04-26T13:36:00.485Z</time></trkpt><trkpt lat="40.5829133" lon="16.6313933"><ele>91.0</ele><time>2026-04-26T13:36:01.486Z</time></trkpt><trkpt lat="40.5829967" lon="16.63157"><ele>92.33333333333333</ele><time>2026-04-26T13:36:02.485Z</time></trkpt><trkpt lat="40.58308" lon="16.6317467"><ele>93.66666666666667</ele><time>2026-04-26T13:36:03.485Z</time></trkpt><trkpt lat="40.5831717" lon="16.63192"><ele>95.0</ele><time>2026-04-26T13:36:04.486Z</time></trkpt><trkpt lat="40.58327" lon="16.632085"><ele>95.33333333333334</ele><time>2026-04-26T13:36:05.485Z</time></trkpt><trkpt lat="40.583375" lon="16.6322483"><ele>95.66666666666667</ele><time>2026-04-26T13:36:06.485Z</time></trkpt><trkpt lat="40.583485" lon="16.63241"><ele>96.0</ele><time>2026-04-26T13:36:07.485Z</time></trkpt><trkpt lat="40.5835968" lon="16.6325712"><ele>96.0</ele><time>2026-04-26T13:36:08.489Z</time></trkpt><trkpt lat="40.5837111" lon="16.6327314"><ele>96.0</ele><time>2026-04-26T13:36:09.485Z</time></trkpt><trkpt lat="40.5838257" lon="16.6328913"><ele>96.0</ele><time>2026-04-26T13:36:10.485Z</time></trkpt><trkpt lat="40.5839393" lon="16.6330511"><ele>96.66666666666666</ele><time>2026-04-26T13:36:11.485Z</time></trkpt><trkpt lat="40.5840497" lon="16.6332127"><ele>97.33333333333333</ele><time>2026-04-26T13:36:12.485Z</time></trkpt><trkpt lat="40.584159" lon="16.6333748"><ele>98.0</ele><time>2026-04-26T13:36:13.485Z</time></trkpt><trkpt lat="40.5842673" lon="16.6335351"><ele>98.0</ele><time>2026-04-26T13:36:14.487Z</time></trkpt><trkpt lat="40.5843725" lon="16.6336979"><ele>98.0</ele><time>2026-04-26T13:36:15.487Z</time></trkpt><trkpt lat="40.5844719" lon="16.6338665"><ele>98.0</ele><time>2026-04-26T13:36:16.487Z</time></trkpt><trkpt lat="40.5845635" lon="16.634044"><ele>98.0</ele><time>2026-04-26T13:36:17.485Z</time></trkpt><trkpt lat="40.58465" lon="16.634221"><ele>98.0</ele><time>2026-04-26T13:36:18.485Z</time></trkpt><trkpt lat="40.5847308" lon="16.6343993"><ele>98.0</ele><time>2026-04-26T13:36:19.486Z</time></trkpt><trkpt lat="40.5847988" lon="16.6345852"><ele>98.25</ele><time>2026-04-26T13:36:20.486Z</time></trkpt><trkpt lat="40.5848466" lon="16.6347757"><ele>98.5</ele><time>2026-04-26T13:36:21.485Z</time></trkpt><trkpt lat="40.584875" lon="16.634951"><ele>98.75</ele><time>2026-04-26T13:36:22.485Z</time></trkpt><trkpt lat="40.5848986" lon="16.6350978"><ele>99.0</ele><time>2026-04-26T13:36:23.485Z</time></trkpt><trkpt lat="40.5849301" lon="16.6352349"><ele>99.25</ele><time>2026-04-26T13:36:24.485Z</time></trkpt><trkpt lat="40.5849658" lon="16.6353792"><ele>99.5</ele><time>2026-04-26T13:36:25.485Z</time></trkpt><trkpt lat="40.584998" lon="16.6355359"><ele>99.75</ele><time>2026-04-26T13:36:26.485Z</time></trkpt><trkpt lat="40.5850328" lon="16.6357029"><ele>100.0</ele><time>2026-04-26T13:36:27.485Z</time></trkpt><trkpt lat="40.5850698" lon="16.6358734"><ele>100.0</ele><time>2026-04-26T13:36:28.486Z</time></trkpt><trkpt lat="40.5851061" lon="16.6360442"><ele>100.0</ele><time>2026-04-26T13:36:29.484Z</time></trkpt><trkpt lat="40.5851313" lon="16.6362106"><ele>100.0</ele><time>2026-04-26T13:36:30.485Z</time></trkpt><trkpt lat="40.5851428" lon="16.6363721"><ele>100.0</ele><time>2026-04-26T13:36:31.486Z</time></trkpt><trkpt lat="40.5851381" lon="16.6365348"><ele>101.0</ele><time>2026-04-26T13:36:32.486Z</time></trkpt><trkpt lat="40.5851144" lon="16.6367005"><ele>102.0</ele><time>2026-04-26T13:36:33.485Z</time></trkpt><trkpt lat="40.5850802" lon="16.6368694"><ele>103.0</ele><time>2026-04-26T13:36:34.485Z</time></trkpt><trkpt lat="40.585037" lon="16.6370414"><ele>104.0</ele><time>2026-04-26T13:36:35.485Z</time></trkpt><trkpt lat="40.5849849" lon="16.6372135"><ele>105.0</ele><time>2026-04-26T13:36:36.485Z</time></trkpt><trkpt lat="40.5849217" lon="16.6373868"><ele>106.0</ele><time>2026-04-26T13:36:37.484Z</time></trkpt><trkpt lat="40.5848467" lon="16.6375644"><ele>107.0</ele><time>2026-04-26T13:36:38.485Z</time></trkpt><trkpt lat="40.5847636" lon="16.6377439"><ele>106.66666666666666</ele><time>2026-04-26T13:36:39.485Z</time></trkpt><trkpt lat="40.5846812" lon="16.6379187"><ele>106.33333333333334</ele><time>2026-04-26T13:36:40.484Z</time></trkpt><trkpt lat="40.5845963" lon="16.6380965"><ele>106.0</ele><time>2026-04-26T13:36:41.485Z</time></trkpt><trkpt lat="40.5845094" lon="16.6382732"><ele>106.0</ele><time>2026-04-26T13:36:42.485Z</time></trkpt><trkpt lat="40.5844183" lon="16.6384476"><ele>106.0</ele><time>2026-04-26T13:36:43.487Z</time></trkpt><trkpt lat="40.5843262" lon="16.6386209"><ele>106.0</ele><time>2026-04-26T13:36:44.485Z</time></trkpt><trkpt lat="40.5842316" lon="16.6387943"><ele>107.0</ele><time>2026-04-26T13:36:45.486Z</time></trkpt><trkpt lat="40.5841375" lon="16.6389702"><ele>108.0</ele><time>2026-04-26T13:36:46.485Z</time></trkpt><trkpt lat="40.5840438" lon="16.6391469"><ele>109.0</ele><time>2026-04-26T13:36:47.488Z</time></trkpt><trkpt lat="40.5839491" lon="16.6393235"><ele>108.66666666666667</ele><time>2026-04-26T13:36:48.485Z</time></trkpt><trkpt lat="40.5838543" lon="16.6395034"><ele>108.33333333333334</ele><time>2026-04-26T13:36:49.486Z</time></trkpt><trkpt lat="40.5837608" lon="16.6396851"><ele>108.0</ele><time>2026-04-26T13:36:50.485Z</time></trkpt><trkpt lat="40.5836659" lon="16.6398683"><ele>108.0</ele><time>2026-04-26T13:36:51.485Z</time></trkpt><trkpt lat="40.5835709" lon="16.6400507"><ele>108.0</ele><time>2026-04-26T13:36:52.485Z</time></trkpt><trkpt lat="40.5834754" lon="16.6402324"><ele>108.0</ele><time>2026-04-26T13:36:53.485Z</time></trkpt><trkpt lat="40.5833775" lon="16.6404098"><ele>109.33333333333334</ele><time>2026-04-26T13:36:54.485Z</time></trkpt><trkpt lat="40.5832802" lon="16.6405851"><ele>110.66666666666667</ele><time>2026-04-26T13:36:55.485Z</time></trkpt><trkpt lat="40.583185" lon="16.640765"><ele>112.0</ele><time>2026-04-26T13:36:56.486Z</time></trkpt><trkpt lat="40.5830931" lon="16.6409438"><ele>112.0</ele><time>2026-04-26T13:36:57.485Z</time></trkpt><trkpt lat="40.5830019" lon="16.641121"><ele>112.0</ele><time>2026-04-26T13:36:58.485Z</time></trkpt><trkpt lat="40.582913" lon="16.6413006"><ele>112.0</ele><time>2026-04-26T13:36:59.489Z</time></trkpt><trkpt lat="40.5828323" lon="16.6414847"><ele>112.0</ele><time>2026-04-26T13:37:00.486Z</time></trkpt><trkpt lat="40.582763" lon="16.6416758"><ele>112.0</ele><time>2026-04-26T13:37:01.485Z</time></trkpt><trkpt lat="40.5827098" lon="16.641874"><ele>112.0</ele><time>2026-04-26T13:37:02.486Z</time></trkpt><trkpt lat="40.5826744" lon="16.6420828"><ele>113.0</ele><time>2026-04-26T13:37:03.486Z</time></trkpt><trkpt lat="40.5826601" lon="16.6422952"><ele>114.0</ele><time>2026-04-26T13:37:04.486Z</time></trkpt><trkpt lat="40.5826672" lon="16.64251"><ele>115.0</ele><time>2026-04-26T13:37:05.485Z</time></trkpt><trkpt lat="40.5826961" lon="16.6427213"><ele>115.66666666666667</ele><time>2026-04-26T13:37:06.486Z</time></trkpt><trkpt lat="40.5827405" lon="16.6429286"><ele>116.33333333333334</ele><time>2026-04-26T13:37:07.485Z</time></trkpt><trkpt lat="40.5827923" lon="16.6431307"><ele>117.0</ele><time>2026-04-26T13:37:08.487Z</time></trkpt><trkpt lat="40.5828441" lon="16.6433194"><ele>117.75</ele><time>2026-04-26T13:37:09.485Z</time></trkpt><trkpt lat="40.5828816" lon="16.64349"><ele>118.5</ele><time>2026-04-26T13:37:10.485Z</time></trkpt><trkpt lat="40.5828919" lon="16.6436531"><ele>119.25</ele><time>2026-04-26T13:37:11.485Z</time></trkpt><trkpt lat="40.5828704" lon="16.6438206"><ele>120.0</ele><time>2026-04-26T13:37:12.485Z</time></trkpt><trkpt lat="40.5828246" lon="16.6439825"><ele>120.0</ele><time>2026-04-26T13:37:13.485Z</time></trkpt><trkpt lat="40.5827576" lon="16.6441249"><ele>120.0</ele><time>2026-04-26T13:37:14.485Z</time></trkpt><trkpt lat="40.5826729" lon="16.6442477"><ele>120.0</ele><time>2026-04-26T13:37:15.485Z</time></trkpt><trkpt lat="40.5825621" lon="16.6443335"><ele>120.0</ele><time>2026-04-26T13:37:16.485Z</time></trkpt><trkpt lat="40.5824352" lon="16.6443779"><ele>120.0</ele><time>2026-04-26T13:37:17.488Z</time></trkpt><trkpt lat="40.5823008" lon="16.6443854"><ele>120.0</ele><time>2026-04-26T13:37:18.485Z</time></trkpt><trkpt lat="40.5821663" lon="16.6443662"><ele>120.0</ele><time>2026-04-26T13:37:19.486Z</time></trkpt><trkpt lat="40.5820347" lon="16.6443288"><ele>120.0</ele><time>2026-04-26T13:37:20.485Z</time></trkpt><trkpt lat="40.5819041" lon="16.6442821"><ele>120.0</ele><time>2026-04-26T13:37:21.486Z</time></trkpt><trkpt lat="40.5817781" lon="16.6442374"><ele>120.0</ele><time>2026-04-26T13:37:22.485Z</time></trkpt><trkpt lat="40.5816521" lon="16.6442049"><ele>120.0</ele><time>2026-04-26T13:37:23.488Z</time></trkpt><trkpt lat="40.5815225" lon="16.6441897"><ele>120.0</ele><time>2026-04-26T13:37:24.486Z</time></trkpt><trkpt lat="40.5813921" lon="16.6441966"><ele>120.0</ele><time>2026-04-26T13:37:25.486Z</time></trkpt><trkpt lat="40.5812593" lon="16.6442193"><ele>120.0</ele><time>2026-04-26T13:37:26.485Z</time></trkpt><trkpt lat="40.5811282" lon="16.6442604"><ele>120.0</ele><time>2026-04-26T13:37:27.488Z</time></trkpt><trkpt lat="40.5810039" lon="16.644329"><ele>120.0</ele><time>2026-04-26T13:37:28.485Z</time></trkpt><trkpt lat="40.5808871" lon="16.6444239"><ele>122.0</ele><time>2026-04-26T13:37:29.485Z</time></trkpt><trkpt lat="40.5807811" lon="16.6445404"><ele>124.0</ele><time>2026-04-26T13:37:30.486Z</time></trkpt><trkpt lat="40.5806894" lon="16.6446722"><ele>126.0</ele><time>2026-04-26T13:37:31.485Z</time></trkpt><trkpt lat="40.5806054" lon="16.644823"><ele>128.0</ele><time>2026-04-26T13:37:32.485Z</time></trkpt><trkpt lat="40.5805241" lon="16.6449846"><ele>128.0</ele><time>2026-04-26T13:37:33.486Z</time></trkpt><trkpt lat="40.5804457" lon="16.6451466"><ele>128.0</ele><time>2026-04-26T13:37:34.485Z</time></trkpt><trkpt lat="40.5803691" lon="16.6453203"><ele>128.0</ele><time>2026-04-26T13:37:35.487Z</time></trkpt><trkpt lat="40.5802977" lon="16.6455055"><ele>128.33333333333331</ele><time>2026-04-26T13:37:36.485Z</time></trkpt><trkpt lat="40.5802324" lon="16.6457035"><ele>128.66666666666666</ele><time>2026-04-26T13:37:37.485Z</time></trkpt><trkpt lat="40.5801755" lon="16.6459082"><ele>129.0</ele><time>2026-04-26T13:37:38.485Z</time></trkpt><trkpt lat="40.580124" lon="16.6461168"><ele>131.0</ele><time>2026-04-26T13:37:39.485Z</time></trkpt><trkpt lat="40.5800804" lon="16.6463305"><ele>133.0</ele><time>2026-04-26T13:37:40.485Z</time></trkpt><trkpt lat="40.5800434" lon="16.6465474"><ele>135.0</ele><time>2026-04-26T13:37:41.485Z</time></trkpt><trkpt lat="40.5800174" lon="16.6467676"><ele>135.66666666666666</ele><time>2026-04-26T13:37:42.486Z</time></trkpt><trkpt lat="40.5800132" lon="16.6469898"><ele>136.33333333333331</ele><time>2026-04-26T13:37:43.485Z</time></trkpt><trkpt lat="40.5800272" lon="16.6472121"><ele>137.0</ele><time>2026-04-26T13:37:44.486Z</time></trkpt><trkpt lat="40.5800491" lon="16.6474337"><ele>137.0</ele><time>2026-04-26T13:37:45.485Z</time></trkpt><trkpt lat="40.580076" lon="16.6476518"><ele>137.0</ele><time>2026-04-26T13:37:46.485Z</time></trkpt><trkpt lat="40.5800987" lon="16.6478713"><ele>137.0</ele><time>2026-04-26T13:37:47.487Z</time></trkpt><trkpt lat="40.5801153" lon="16.6480885"><ele>136.33333333333331</ele><time>2026-04-26T13:37:48.488Z</time></trkpt><trkpt lat="40.5801289" lon="16.6482979"><ele>135.66666666666666</ele><time>2026-04-26T13:37:49.486Z</time></trkpt><trkpt lat="40.5801381" lon="16.6485009"><ele>135.0</ele><time>2026-04-26T13:37:50.485Z</time></trkpt><trkpt lat="40.5801419" lon="16.6486837"><ele>133.75</ele><time>2026-04-26T13:37:51.485Z</time></trkpt><trkpt lat="40.5801354" lon="16.6488511"><ele>132.5</ele><time>2026-04-26T13:37:52.485Z</time></trkpt><trkpt lat="40.5801008" lon="16.6490141"><ele>131.25</ele><time>2026-04-26T13:37:53.485Z</time></trkpt><trkpt lat="40.5800374" lon="16.6491699"><ele>130.0</ele><time>2026-04-26T13:37:54.485Z</time></trkpt><trkpt lat="40.5799533" lon="16.6493149"><ele>130.0</ele><time>2026-04-26T13:37:55.485Z</time></trkpt><trkpt lat="40.5798586" lon="16.649453"><ele>130.0</ele><time>2026-04-26T13:37:56.486Z</time></trkpt><trkpt lat="40.5797649" lon="16.6495809"><ele>130.0</ele><time>2026-04-26T13:37:57.485Z</time></trkpt><trkpt lat="40.579682" lon="16.6497084"><ele>130.0</ele><time>2026-04-26T13:37:58.485Z</time></trkpt><trkpt lat="40.5796207" lon="16.6498503"><ele>127.75</ele><time>2026-04-26T13:37:59.486Z</time></trkpt><trkpt lat="40.5795906" lon="16.6500149"><ele>125.5</ele><time>2026-04-26T13:38:00.485Z</time></trkpt><trkpt lat="40.5795834" lon="16.6501915"><ele>123.25</ele><time>2026-04-26T13:38:01.485Z</time></trkpt><trkpt lat="40.5795814" lon="16.6503664"><ele>121.0</ele><time>2026-04-26T13:38:02.485Z</time></trkpt><trkpt lat="40.5795676" lon="16.6505336"><ele>121.75</ele><time>2026-04-26T13:38:03.485Z</time></trkpt><trkpt lat="40.5795266" lon="16.6506947"><ele>122.5</ele><time>2026-04-26T13:38:04.485Z</time></trkpt><trkpt lat="40.5794583" lon="16.6508459"><ele>123.25</ele><time>2026-04-26T13:38:05.485Z</time></trkpt><trkpt lat="40.5793695" lon="16.6509833"><ele>124.0</ele><time>2026-04-26T13:38:06.485Z</time></trkpt><trkpt lat="40.579263" lon="16.651097"><ele>121.75</ele><time>2026-04-26T13:38:07.486Z</time></trkpt><trkpt lat="40.5791413" lon="16.6511785"><ele>119.5</ele><time>2026-04-26T13:38:08.487Z</time></trkpt><trkpt lat="40.579013" lon="16.6512218"><ele>117.25</ele><time>2026-04-26T13:38:09.485Z</time></trkpt><trkpt lat="40.578885" lon="16.6512318"><ele>115.0</ele><time>2026-04-26T13:38:10.485Z</time></trkpt><trkpt lat="40.5787685" lon="16.6512286"><ele>116.0</ele><time>2026-04-26T13:38:11.488Z</time></trkpt><trkpt lat="40.5786676" lon="16.6512452"><ele>117.0</ele><time>2026-04-26T13:38:12.487Z</time></trkpt><trkpt lat="40.5785815" lon="16.6513004"><ele>118.0</ele><time>2026-04-26T13:38:13.485Z</time></trkpt><trkpt lat="40.578518" lon="16.6513951"><ele>119.0</ele><time>2026-04-26T13:38:14.485Z</time></trkpt><trkpt lat="40.5784844" lon="16.6515149"><ele>120.0</ele><time>2026-04-26T13:38:15.485Z</time></trkpt><trkpt lat="40.5784843" lon="16.6516367"><ele>120.0</ele><time>2026-04-26T13:38:16.485Z</time></trkpt><trkpt lat="40.5785139" lon="16.6517425"><ele>120.0</ele><time>2026-04-26T13:38:17.485Z</time></trkpt><trkpt lat="40.5785669" lon="16.6518234"><ele>120.0</ele><time>2026-04-26T13:38:18.486Z</time></trkpt><trkpt lat="40.5786425" lon="16.6518731"><ele>120.0</ele><time>2026-04-26T13:38:19.485Z</time></trkpt><trkpt lat="40.5787328" lon="16.6518869"><ele>120.0</ele><time>2026-04-26T13:38:20.485Z</time></trkpt><trkpt lat="40.5788291" lon="16.6518984"><ele>120.0</ele><time>2026-04-26T13:38:21.485Z</time></trkpt><trkpt lat="40.5789263" lon="16.6519149"><ele>118.6</ele><time>2026-04-26T13:38:22.485Z</time></trkpt><trkpt lat="40.5790201" lon="16.6519637"><ele>117.2</ele><time>2026-04-26T13:38:23.485Z</time></trkpt><trkpt lat="40.5791043" lon="16.6520398"><ele>115.80000000000001</ele><time>2026-04-26T13:38:24.485Z</time></trkpt><trkpt lat="40.5791479" lon="16.652147"><ele>114.4</ele><time>2026-04-26T13:38:25.485Z</time></trkpt><trkpt lat="40.5791455" lon="16.6522751"><ele>113.0</ele><time>2026-04-26T13:38:26.485Z</time></trkpt><trkpt lat="40.5791007" lon="16.6524134"><ele>113.0</ele><time>2026-04-26T13:38:27.486Z</time></trkpt><trkpt lat="40.5790243" lon="16.6525546"><ele>113.0</ele><time>2026-04-26T13:38:28.485Z</time></trkpt><trkpt lat="40.5789439" lon="16.6526959"><ele>113.0</ele><time>2026-04-26T13:38:29.487Z</time></trkpt><trkpt lat="40.5788846" lon="16.6528524"><ele>113.0</ele><time>2026-04-26T13:38:30.485Z</time></trkpt><trkpt lat="40.5788547" lon="16.6530337"><ele>111.66666666666666</ele><time>2026-04-26T13:38:31.485Z</time></trkpt><trkpt lat="40.5788554" lon="16.6532354"><ele>110.33333333333334</ele><time>2026-04-26T13:38:32.485Z</time></trkpt><trkpt lat="40.5788797" lon="16.6534415"><ele>109.0</ele><time>2026-04-26T13:38:33.485Z</time></trkpt><trkpt lat="40.5789188" lon="16.6536475"><ele>108.5</ele><time>2026-04-26T13:38:34.486Z</time></trkpt><trkpt lat="40.5789629" lon="16.6538467"><ele>108.0</ele><time>2026-04-26T13:38:35.485Z</time></trkpt><trkpt lat="40.5790021" lon="16.6540301"><ele>107.5</ele><time>2026-04-26T13:38:36.486Z</time></trkpt><trkpt lat="40.579018" lon="16.6542001"><ele>107.0</ele><time>2026-04-26T13:38:37.485Z</time></trkpt><trkpt lat="40.5790032" lon="16.6543609"><ele>106.25</ele><time>2026-04-26T13:38:38.486Z</time></trkpt><trkpt lat="40.5789541" lon="16.6545083"><ele>105.5</ele><time>2026-04-26T13:38:39.485Z</time></trkpt><trkpt lat="40.5788874" lon="16.6546537"><ele>104.75</ele><time>2026-04-26T13:38:40.485Z</time></trkpt><trkpt lat="40.578834" lon="16.6548186"><ele>104.0</ele><time>2026-04-26T13:38:41.567Z</time></trkpt><trkpt lat="40.5788098" lon="16.6549962"><ele>104.0</ele><time>2026-04-26T13:38:42.485Z</time></trkpt><trkpt lat="40.5787906" lon="16.6552013"><ele>104.0</ele><time>2026-04-26T13:38:43.486Z</time></trkpt><trkpt lat="40.578754" lon="16.6554066"><ele>104.0</ele><time>2026-04-26T13:38:44.486Z</time></trkpt><trkpt lat="40.5786967" lon="16.6556102"><ele>105.33333333333333</ele><time>2026-04-26T13:38:45.485Z</time></trkpt><trkpt lat="40.5786338" lon="16.6558215"><ele>106.66666666666666</ele><time>2026-04-26T13:38:46.485Z</time></trkpt><trkpt lat="40.5785795" lon="16.6560468"><ele>108.0</ele><time>2026-04-26T13:38:47.487Z</time></trkpt><trkpt lat="40.5785435" lon="16.6562788"><ele>108.0</ele><time>2026-04-26T13:38:48.486Z</time></trkpt><trkpt lat="40.5785169" lon="16.6565148"><ele>108.0</ele><time>2026-04-26T13:38:49.486Z</time></trkpt><trkpt lat="40.5784925" lon="16.6567508"><ele>108.0</ele><time>2026-04-26T13:38:50.486Z</time></trkpt><trkpt lat="40.5784692" lon="16.656985"><ele>106.0</ele><time>2026-04-26T13:38:51.485Z</time></trkpt><trkpt lat="40.578445" lon="16.6572158"><ele>104.0</ele><time>2026-04-26T13:38:52.485Z</time></trkpt><trkpt lat="40.578422" lon="16.6574417"><ele>102.0</ele><time>2026-04-26T13:38:53.486Z</time></trkpt><trkpt lat="40.5784002" lon="16.657666"><ele>101.66666666666666</ele><time>2026-04-26T13:38:54.485Z</time></trkpt><trkpt lat="40.5783822" lon="16.6578849"><ele>101.33333333333333</ele><time>2026-04-26T13:38:55.485Z</time></trkpt><trkpt lat="40.5783653" lon="16.6581003"><ele>101.0</ele><time>2026-04-26T13:38:56.486Z</time></trkpt><trkpt lat="40.5783501" lon="16.6583071"><ele>101.0</ele><time>2026-04-26T13:38:57.485Z</time></trkpt><trkpt lat="40.5783299" lon="16.6585125"><ele>101.0</ele><time>2026-04-26T13:38:58.485Z</time></trkpt><trkpt lat="40.5783025" lon="16.6587157"><ele>101.0</ele><time>2026-04-26T13:38:59.486Z</time></trkpt><trkpt lat="40.5782693" lon="16.6589173"><ele>100.0</ele><time>2026-04-26T13:39:00.485Z</time></trkpt><trkpt lat="40.5782234" lon="16.6591105"><ele>99.0</ele><time>2026-04-26T13:39:01.485Z</time></trkpt><trkpt lat="40.578158" lon="16.6592927"><ele>98.0</ele><time>2026-04-26T13:39:02.486Z</time></trkpt><trkpt lat="40.5780765" lon="16.6594589"><ele>97.75</ele><time>2026-04-26T13:39:03.485Z</time></trkpt><trkpt lat="40.5779862" lon="16.6596038"><ele>97.5</ele><time>2026-04-26T13:39:04.485Z</time></trkpt><trkpt lat="40.5778844" lon="16.6597225"><ele>97.25</ele><time>2026-04-26T13:39:05.485Z</time></trkpt><trkpt lat="40.5777723" lon="16.6598117"><ele>97.0</ele><time>2026-04-26T13:39:06.486Z</time></trkpt><trkpt lat="40.5776523" lon="16.6598668"><ele>97.0</ele><time>2026-04-26T13:39:07.485Z</time></trkpt><trkpt lat="40.5775272" lon="16.6598871"><ele>97.0</ele><time>2026-04-26T13:39:08.486Z</time></trkpt><trkpt lat="40.5774009" lon="16.6598726"><ele>97.0</ele><time>2026-04-26T13:39:09.49Z</time></trkpt><trkpt lat="40.5772782" lon="16.6598266"><ele>97.0</ele><time>2026-04-26T13:39:10.485Z</time></trkpt><trkpt lat="40.5771634" lon="16.6597567"><ele>97.0</ele><time>2026-04-26T13:39:11.485Z</time></trkpt><trkpt lat="40.5770564" lon="16.6596812"><ele>97.0</ele><time>2026-04-26T13:39:12.485Z</time></trkpt><trkpt lat="40.5769555" lon="16.6596275"><ele>97.0</ele><time>2026-04-26T13:39:13.485Z</time></trkpt><trkpt lat="40.5768575" lon="16.6596259"><ele>97.0</ele><time>2026-04-26T13:39:14.486Z</time></trkpt><trkpt lat="40.5767741" lon="16.6596723"><ele>97.0</ele><time>2026-04-26T13:39:15.485Z</time></trkpt><trkpt lat="40.5767122" lon="16.6597601"><ele>96.8</ele><time>2026-04-26T13:39:16.485Z</time></trkpt><trkpt lat="40.5766758" lon="16.6598735"><ele>96.6</ele><time>2026-04-26T13:39:17.485Z</time></trkpt><trkpt lat="40.5766695" lon="16.6599972"><ele>96.39999999999999</ele><time>2026-04-26T13:39:18.485Z</time></trkpt><trkpt lat="40.5766977" lon="16.6601256"><ele>96.19999999999999</ele><time>2026-04-26T13:39:19.485Z</time></trkpt><trkpt lat="40.5767603" lon="16.6602541"><ele>96.0</ele><time>2026-04-26T13:39:20.487Z</time></trkpt><trkpt lat="40.5768482" lon="16.6603815"><ele>95.75</ele><time>2026-04-26T13:39:21.484Z</time></trkpt><trkpt lat="40.5769451" lon="16.6605032"><ele>95.5</ele><time>2026-04-26T13:39:22.485Z</time></trkpt><trkpt lat="40.5770449" lon="16.6606301"><ele>95.25</ele><time>2026-04-26T13:39:23.485Z</time></trkpt><trkpt lat="40.5771417" lon="16.6607632"><ele>95.0</ele><time>2026-04-26T13:39:24.484Z</time></trkpt><trkpt lat="40.5772331" lon="16.6609008"><ele>95.0</ele><time>2026-04-26T13:39:25.485Z</time></trkpt><trkpt lat="40.5773251" lon="16.6610339"><ele>95.0</ele><time>2026-04-26T13:39:26.485Z</time></trkpt><trkpt lat="40.5774184" lon="16.6611654"><ele>95.0</ele><time>2026-04-26T13:39:27.503Z</time></trkpt><trkpt lat="40.5775127" lon="16.6612941"><ele>95.0</ele><time>2026-04-26T13:39:28.486Z</time></trkpt><trkpt lat="40.577607" lon="16.6614186"><ele>94.25</ele><time>2026-04-26T13:39:29.484Z</time></trkpt><trkpt lat="40.5776973" lon="16.6615411"><ele>93.5</ele><time>2026-04-26T13:39:30.484Z</time></trkpt><trkpt lat="40.5777824" lon="16.6616633"><ele>92.75</ele><time>2026-04-26T13:39:31.484Z</time></trkpt><trkpt lat="40.5778558" lon="16.6617911"><ele>92.0</ele><time>2026-04-26T13:39:32.489Z</time></trkpt><trkpt lat="40.5779147" lon="16.6619325"><ele>92.0</ele><time>2026-04-26T13:39:33.484Z</time></trkpt><trkpt lat="40.5779614" lon="16.6620868"><ele>92.0</ele><time>2026-04-26T13:39:34.485Z</time></trkpt><trkpt lat="40.5779979" lon="16.6622444"><ele>92.0</ele><time>2026-04-26T13:39:35.484Z</time></trkpt><trkpt lat="40.5780248" lon="16.6624021"><ele>92.0</ele><time>2026-04-26T13:39:36.484Z</time></trkpt><trkpt lat="40.5780411" lon="16.6625655"><ele>92.0</ele><time>2026-04-26T13:39:37.49Z</time></trkpt><trkpt lat="40.5780392" lon="16.6627346"><ele>92.0</ele><time>2026-04-26T13:39:38.485Z</time></trkpt><trkpt lat="40.578021" lon="16.6629011"><ele>92.0</ele><time>2026-04-26T13:39:39.484Z</time></trkpt><trkpt lat="40.577989" lon="16.6630566"><ele>92.0</ele><time>2026-04-26T13:39:40.485Z</time></trkpt><trkpt lat="40.5779385" lon="16.6631897"><ele>91.5</ele><time>2026-04-26T13:39:41.484Z</time></trkpt><trkpt lat="40.5778656" lon="16.6633001"><ele>91.0</ele><time>2026-04-26T13:39:42.483Z</time></trkpt><trkpt lat="40.5777724" lon="16.6633841"><ele>90.5</ele><time>2026-04-26T13:39:43.485Z</time></trkpt><trkpt lat="40.5776653" lon="16.6634424"><ele>90.0</ele><time>2026-04-26T13:39:44.485Z</time></trkpt><trkpt lat="40.5775559" lon="16.6634784"><ele>90.33333333333333</ele><time>2026-04-26T13:39:45.484Z</time></trkpt><trkpt lat="40.5774559" lon="16.6634986"><ele>90.66666666666667</ele><time>2026-04-26T13:39:46.484Z</time></trkpt><trkpt lat="40.5773766" lon="16.6635138"><ele>91.0</ele><time>2026-04-26T13:39:47.484Z</time></trkpt><trkpt lat="40.5772953" lon="16.6635445"><ele>91.33333333333334</ele><time>2026-04-26T13:39:49.485Z</time></trkpt><trkpt lat="40.5772909" lon="16.6636312"><ele>91.66666666666667</ele><time>2026-04-26T13:39:53.484Z</time></trkpt><trkpt lat="40.5773933" lon="16.6636467"><ele>92.0</ele><time>2026-04-26T13:39:55.485Z</time></trkpt><trkpt lat="40.5774617" lon="16.6636417"><ele>92.0</ele><time>2026-04-26T13:39:56.485Z</time></trkpt><trkpt lat="40.577555" lon="16.66364"><ele>92.0</ele><time>2026-04-26T13:39:57.485Z</time></trkpt><trkpt lat="40.577665" lon="16.6636433"><ele>92.0</ele><time>2026-04-26T13:39:58.484Z</time></trkpt><trkpt lat="40.57778" lon="16.6636467"><ele>92.0</ele><time>2026-04-26T13:39:59.485Z</time></trkpt><trkpt lat="40.5778983" lon="16.6636467"><ele>92.0</ele><time>2026-04-26T13:40:00.485Z</time></trkpt><trkpt lat="40.5780233" lon="16.663645"><ele>91.0</ele><time>2026-04-26T13:40:01.484Z</time></trkpt><trkpt lat="40.5781583" lon="16.6636417"><ele>90.0</ele><time>2026-04-26T13:40:02.485Z</time></trkpt><trkpt lat="40.5782967" lon="16.663635"><ele>89.0</ele><time>2026-04-26T13:40:03.485Z</time></trkpt><trkpt lat="40.5784317" lon="16.66363"><ele>88.0</ele><time>2026-04-26T13:40:04.485Z</time></trkpt><trkpt lat="40.578565" lon="16.663625"><ele>89.25</ele><time>2026-04-26T13:40:05.485Z</time></trkpt><trkpt lat="40.578695" lon="16.6636267"><ele>90.5</ele><time>2026-04-26T13:40:06.486Z</time></trkpt><trkpt lat="40.5788233" lon="16.6636117"><ele>91.75</ele><time>2026-04-26T13:40:07.484Z</time></trkpt><trkpt lat="40.5789567" lon="16.6635817"><ele>93.0</ele><time>2026-04-26T13:40:08.485Z</time></trkpt><trkpt lat="40.5790917" lon="16.6635617"><ele>93.5</ele><time>2026-04-26T13:40:09.484Z</time></trkpt><trkpt lat="40.5792267" lon="16.663565"><ele>94.0</ele><time>2026-04-26T13:40:10.484Z</time></trkpt><trkpt lat="40.579355" lon="16.6635833"><ele>94.5</ele><time>2026-04-26T13:40:11.484Z</time></trkpt><trkpt lat="40.5794633" lon="16.6636133"><ele>95.0</ele><time>2026-04-26T13:40:12.485Z</time></trkpt><trkpt lat="40.57955" lon="16.6636633"><ele>96.0</ele><time>2026-04-26T13:40:13.484Z</time></trkpt><trkpt lat="40.5796167" lon="16.66372"><ele>97.0</ele><time>2026-04-26T13:40:14.485Z</time></trkpt><trkpt lat="40.5797167" lon="16.6637683"><ele>98.0</ele><time>2026-04-26T13:40:16.485Z</time></trkpt><trkpt lat="40.5798283" lon="16.6637067"><ele>99.0</ele><time>2026-04-26T13:40:18.485Z</time></trkpt><trkpt lat="40.5799" lon="16.66366"><ele>100.0</ele><time>2026-04-26T13:40:19.487Z</time></trkpt><trkpt lat="40.5799817" lon="16.6636083"><ele>100.4</ele><time>2026-04-26T13:40:20.485Z</time></trkpt><trkpt lat="40.5800683" lon="16.6635583"><ele>100.8</ele><time>2026-04-26T13:40:21.484Z</time></trkpt><trkpt lat="40.5801567" lon="16.663515"><ele>101.19999999999999</ele><time>2026-04-26T13:40:22.484Z</time></trkpt><trkpt lat="40.5802433" lon="16.66346"><ele>101.6</ele><time>2026-04-26T13:40:23.485Z</time></trkpt><trkpt lat="40.5803233" lon="16.6633867"><ele>102.0</ele><time>2026-04-26T13:40:24.485Z</time></trkpt><trkpt lat="40.5804033" lon="16.6633"><ele>102.39999999999999</ele><time>2026-04-26T13:40:25.484Z</time></trkpt><trkpt lat="40.5804817" lon="16.66321"><ele>102.8</ele><time>2026-04-26T13:40:26.485Z</time></trkpt><trkpt lat="40.5805633" lon="16.6631167"><ele>103.2</ele><time>2026-04-26T13:40:27.485Z</time></trkpt><trkpt lat="40.5806433" lon="16.663025"><ele>103.6</ele><time>2026-04-26T13:40:28.485Z</time></trkpt><trkpt lat="40.5807233" lon="16.662935"><ele>104.0</ele><time>2026-04-26T13:40:29.484Z</time></trkpt><trkpt lat="40.5808015" lon="16.6628484"><ele>104.80000000000001</ele><time>2026-04-26T13:40:30.484Z</time></trkpt><trkpt lat="40.5808717" lon="16.6627689"><ele>105.60000000000001</ele><time>2026-04-26T13:40:31.486Z</time></trkpt><trkpt lat="40.580942" lon="16.6626894"><ele>106.4</ele><time>2026-04-26T13:40:32.485Z</time></trkpt><trkpt lat="40.5810161" lon="16.6626077"><ele>107.2</ele><time>2026-04-26T13:40:33.484Z</time></trkpt><trkpt lat="40.5810943" lon="16.6625256"><ele>108.0</ele><time>2026-04-26T13:40:34.485Z</time></trkpt><trkpt lat="40.5811745" lon="16.6624445"><ele>108.0</ele><time>2026-04-26T13:40:35.486Z</time></trkpt><trkpt lat="40.5812547" lon="16.6623619"><ele>108.00000000000001</ele><time>2026-04-26T13:40:36.485Z</time></trkpt><trkpt lat="40.5813359" lon="16.6622794"><ele>108.00000000000001</ele><time>2026-04-26T13:40:37.486Z</time></trkpt><trkpt lat="40.5814176" lon="16.6622002"><ele>108.0</ele><time>2026-04-26T13:40:38.485Z</time></trkpt><trkpt lat="40.5814967" lon="16.662125"><ele>108.0</ele><time>2026-04-26T13:40:39.485Z</time></trkpt><trkpt lat="40.5815734" lon="16.6620506"><ele>108.0</ele><time>2026-04-26T13:40:40.485Z</time></trkpt><trkpt lat="40.5816481" lon="16.6619729"><ele>108.00000000000001</ele><time>2026-04-26T13:40:41.485Z</time></trkpt><trkpt lat="40.5817226" lon="16.6618986"><ele>108.00000000000001</ele><time>2026-04-26T13:40:42.485Z</time></trkpt><trkpt lat="40.581798" lon="16.6618258"><ele>108.0</ele><time>2026-04-26T13:40:43.484Z</time></trkpt><trkpt lat="40.5818748" lon="16.6617493"><ele>108.0</ele><time>2026-04-26T13:40:44.487Z</time></trkpt><trkpt lat="40.5819562" lon="16.6616733"><ele>108.4</ele><time>2026-04-26T13:40:45.485Z</time></trkpt><trkpt lat="40.582035" lon="16.6615979"><ele>108.80000000000001</ele><time>2026-04-26T13:40:46.485Z</time></trkpt><trkpt lat="40.5821119" lon="16.6615215"><ele>109.2</ele><time>2026-04-26T13:40:47.485Z</time></trkpt><trkpt lat="40.5821882" lon="16.6614426"><ele>109.6</ele><time>2026-04-26T13:40:48.485Z</time></trkpt><trkpt lat="40.5822634" lon="16.6613662"><ele>110.0</ele><time>2026-04-26T13:40:49.485Z</time></trkpt><trkpt lat="40.5823399" lon="16.6612913"><ele>110.0</ele><time>2026-04-26T13:40:50.486Z</time></trkpt><trkpt lat="40.582419" lon="16.661217"><ele>110.0</ele><time>2026-04-26T13:40:51.483Z</time></trkpt><trkpt lat="40.5824994" lon="16.6611384"><ele>110.0</ele><time>2026-04-26T13:40:52.485Z</time></trkpt><trkpt lat="40.5825825" lon="16.6610558"><ele>110.0</ele><time>2026-04-26T13:40:53.484Z</time></trkpt><trkpt lat="40.5826704" lon="16.6609729"><ele>110.0</ele><time>2026-04-26T13:40:54.488Z</time></trkpt><trkpt lat="40.5827619" lon="16.6608881"><ele>110.25</ele><time>2026-04-26T13:40:55.485Z</time></trkpt><trkpt lat="40.5828526" lon="16.6608011"><ele>110.5</ele><time>2026-04-26T13:40:56.485Z</time></trkpt><trkpt lat="40.5829442" lon="16.6607141"><ele>110.75</ele><time>2026-04-26T13:40:57.485Z</time></trkpt><trkpt lat="40.5830387" lon="16.6606232"><ele>111.0</ele><time>2026-04-26T13:40:58.485Z</time></trkpt><trkpt lat="40.5831331" lon="16.6605297"><ele>111.0</ele><time>2026-04-26T13:40:59.485Z</time></trkpt><trkpt lat="40.5832249" lon="16.6604344"><ele>111.0</ele><time>2026-04-26T13:41:00.485Z</time></trkpt><trkpt lat="40.583319" lon="16.6603415"><ele>111.0</ele><time>2026-04-26T13:41:01.484Z</time></trkpt><trkpt lat="40.5834218" lon="16.6602458"><ele>111.0</ele><time>2026-04-26T13:41:02.485Z</time></trkpt><trkpt lat="40.5835233" lon="16.660145"><ele>111.5</ele><time>2026-04-26T13:41:03.485Z</time></trkpt><trkpt lat="40.5836267" lon="16.66005"><ele>112.0</ele><time>2026-04-26T13:41:04.484Z</time></trkpt><trkpt lat="40.5837283" lon="16.6599583"><ele>112.5</ele><time>2026-04-26T13:41:05.489Z</time></trkpt><trkpt lat="40.5838267" lon="16.6598667"><ele>113.0</ele><time>2026-04-26T13:41:06.484Z</time></trkpt><trkpt lat="40.5839217" lon="16.6597783"><ele>113.25</ele><time>2026-04-26T13:41:07.485Z</time></trkpt><trkpt lat="40.5840183" lon="16.65969"><ele>113.5</ele><time>2026-04-26T13:41:08.485Z</time></trkpt><trkpt lat="40.5841167" lon="16.6595983"><ele>113.75</ele><time>2026-04-26T13:41:09.485Z</time></trkpt><trkpt lat="40.584215" lon="16.6595067"><ele>114.0</ele><time>2026-04-26T13:41:10.484Z</time></trkpt><trkpt lat="40.5843133" lon="16.65942"><ele>115.5</ele><time>2026-04-26T13:41:11.486Z</time></trkpt><trkpt lat="40.5844117" lon="16.6593333"><ele>117.0</ele><time>2026-04-26T13:41:12.487Z</time></trkpt><trkpt lat="40.5845083" lon="16.6592483"><ele>118.5</ele><time>2026-04-26T13:41:13.484Z</time></trkpt><trkpt lat="40.5846017" lon="16.6591633"><ele>120.0</ele><time>2026-04-26T13:41:14.486Z</time></trkpt><trkpt lat="40.584685" lon="16.659085"><ele>120.33333333333333</ele><time>2026-04-26T13:41:15.484Z</time></trkpt><trkpt lat="40.5847633" lon="16.6590117"><ele>120.66666666666666</ele><time>2026-04-26T13:41:16.485Z</time></trkpt><trkpt lat="40.5848367" lon="16.658945"><ele>121.0</ele><time>2026-04-26T13:41:17.485Z</time></trkpt><trkpt lat="40.5849" lon="16.658885"><ele>121.33333333333333</ele><time>2026-04-26T13:41:18.486Z</time></trkpt><trkpt lat="40.5849583" lon="16.65883"><ele>121.66666666666666</ele><time>2026-04-26T13:41:19.486Z</time></trkpt><trkpt lat="40.58501" lon="16.65878"><ele>122.0</ele><time>2026-04-26T13:41:20.485Z</time></trkpt><trkpt lat="40.5850817" lon="16.6586983"><ele>122.0</ele><time>2026-04-26T13:41:22.485Z</time></trkpt><trkpt lat="40.58502" lon="16.658795"><ele>121.99999999999999</ele><time>2026-04-26T13:41:35.486Z</time></trkpt><trkpt lat="40.584945" lon="16.658875"><ele>121.99999999999999</ele><time>2026-04-26T13:41:37.485Z</time></trkpt><trkpt lat="40.5848433" lon="16.6589683"><ele>122.0</ele><time>2026-04-26T13:41:39.485Z</time></trkpt><trkpt lat="40.58478" lon="16.65903"><ele>122.0</ele><time>2026-04-26T13:41:40.486Z</time></trkpt><trkpt lat="40.584715" lon="16.659095"><ele>121.99999999999999</ele><time>2026-04-26T13:41:41.485Z</time></trkpt><trkpt lat="40.5846467" lon="16.65916"><ele>122.0</ele><time>2026-04-26T13:41:42.485Z</time></trkpt><trkpt lat="40.5845733" lon="16.659225"><ele>122.0</ele><time>2026-04-26T13:41:43.485Z</time></trkpt><trkpt lat="40.584495" lon="16.65929"><ele>122.0</ele><time>2026-04-26T13:41:44.485Z</time></trkpt><trkpt lat="40.5844183" lon="16.6593517"><ele>121.99999999999999</ele><time>2026-04-26T13:41:45.485Z</time></trkpt><trkpt lat="40.5843383" lon="16.6594133"><ele>122.0</ele><time>2026-04-26T13:41:46.484Z</time></trkpt><trkpt lat="40.58426" lon="16.6594817"><ele>120.39999999999999</ele><time>2026-04-26T13:41:47.485Z</time></trkpt><trkpt lat="40.5841817" lon="16.659555"><ele>118.79999999999998</ele><time>2026-04-26T13:41:48.485Z</time></trkpt><trkpt lat="40.584105" lon="16.6596283"><ele>117.2</ele><time>2026-04-26T13:41:49.485Z</time></trkpt><trkpt lat="40.5840317" lon="16.6597017"><ele>115.6</ele><time>2026-04-26T13:41:50.487Z</time></trkpt><trkpt lat="40.5839567" lon="16.6597733"><ele>114.0</ele><time>2026-04-26T13:41:51.485Z</time></trkpt><trkpt lat="40.58388" lon="16.659845"><ele>114.0</ele><time>2026-04-26T13:41:52.487Z</time></trkpt><trkpt lat="40.583795" lon="16.6599167"><ele>114.0</ele><time>2026-04-26T13:41:53.485Z</time></trkpt><trkpt lat="40.5837033" lon="16.659995"><ele>114.0</ele><time>2026-04-26T13:41:54.485Z</time></trkpt><trkpt lat="40.5836067" lon="16.6600833"><ele>114.0</ele><time>2026-04-26T13:41:55.485Z</time></trkpt><trkpt lat="40.5835083" lon="16.660175"><ele>114.0</ele><time>2026-04-26T13:41:56.485Z</time></trkpt><trkpt lat="40.58341" lon="16.6602667"><ele>113.25</ele><time>2026-04-26T13:41:57.485Z</time></trkpt><trkpt lat="40.5833133" lon="16.6603567"><ele>112.5</ele><time>2026-04-26T13:41:58.485Z</time></trkpt><trkpt lat="40.5832217" lon="16.660445"><ele>111.75</ele><time>2026-04-26T13:41:59.486Z</time></trkpt><trkpt lat="40.5831317" lon="16.6605333"><ele>111.0</ele><time>2026-04-26T13:42:00.485Z</time></trkpt><trkpt lat="40.5830433" lon="16.6606183"><ele>111.0</ele><time>2026-04-26T13:42:01.485Z</time></trkpt><trkpt lat="40.582955" lon="16.6607067"><ele>111.0</ele><time>2026-04-26T13:42:02.485Z</time></trkpt><trkpt lat="40.5828683" lon="16.6607933"><ele>111.0</ele><time>2026-04-26T13:42:03.485Z</time></trkpt><trkpt lat="40.58278" lon="16.6608783"><ele>111.0</ele><time>2026-04-26T13:42:04.488Z</time></trkpt><trkpt lat="40.58269" lon="16.6609633"><ele>111.0</ele><time>2026-04-26T13:42:05.486Z</time></trkpt><trkpt lat="40.5826017" lon="16.6610483"><ele>110.8</ele><time>2026-04-26T13:42:06.485Z</time></trkpt><trkpt lat="40.5825133" lon="16.6611333"><ele>110.6</ele><time>2026-04-26T13:42:07.484Z</time></trkpt><trkpt lat="40.5824217" lon="16.6612167"><ele>110.4</ele><time>2026-04-26T13:42:08.485Z</time></trkpt><trkpt lat="40.5823283" lon="16.6613017"><ele>110.2</ele><time>2026-04-26T13:42:09.485Z</time></trkpt><trkpt lat="40.582235" lon="16.6613883"><ele>110.0</ele><time>2026-04-26T13:42:10.485Z</time></trkpt><trkpt lat="40.5821417" lon="16.6614783"><ele>110.0</ele><time>2026-04-26T13:42:11.485Z</time></trkpt><trkpt lat="40.58205" lon="16.66157"><ele>110.0</ele><time>2026-04-26T13:42:12.484Z</time></trkpt><trkpt lat="40.5819583" lon="16.6616617"><ele>110.0</ele><time>2026-04-26T13:42:13.485Z</time></trkpt><trkpt lat="40.5818683" lon="16.661755"><ele>110.0</ele><time>2026-04-26T13:42:14.485Z</time></trkpt><trkpt lat="40.5817767" lon="16.6618483"><ele>110.25</ele><time>2026-04-26T13:42:15.486Z</time></trkpt><trkpt lat="40.581685" lon="16.66194"><ele>110.5</ele><time>2026-04-26T13:42:16.485Z</time></trkpt><trkpt lat="40.5815933" lon="16.6620283"><ele>110.75</ele><time>2026-04-26T13:42:17.485Z</time></trkpt><trkpt lat="40.5815033" lon="16.6621167"><ele>111.0</ele><time>2026-04-26T13:42:18.485Z</time></trkpt><trkpt lat="40.581415" lon="16.6622033"><ele>110.4</ele><time>2026-04-26T13:42:19.485Z</time></trkpt><trkpt lat="40.5813283" lon="16.66229"><ele>109.8</ele><time>2026-04-26T13:42:20.485Z</time></trkpt><trkpt lat="40.5812367" lon="16.6623783"><ele>109.20000000000002</ele><time>2026-04-26T13:42:21.486Z</time></trkpt><trkpt lat="40.581145" lon="16.6624683"><ele>108.60000000000001</ele><time>2026-04-26T13:42:22.485Z</time></trkpt><trkpt lat="40.5810567" lon="16.6625567"><ele>108.0</ele><time>2026-04-26T13:42:23.485Z</time></trkpt><trkpt lat="40.5809717" lon="16.66265"><ele>108.0</ele><time>2026-04-26T13:42:24.485Z</time></trkpt><trkpt lat="40.5808867" lon="16.662745"><ele>108.00000000000001</ele><time>2026-04-26T13:42:25.485Z</time></trkpt><trkpt lat="40.5808033" lon="16.6628417"><ele>108.00000000000001</ele><time>2026-04-26T13:42:26.485Z</time></trkpt><trkpt lat="40.58072" lon="16.662935"><ele>108.0</ele><time>2026-04-26T13:42:27.485Z</time></trkpt><trkpt lat="40.5806383" lon="16.6630317"><ele>108.0</ele><time>2026-04-26T13:42:28.485Z</time></trkpt><trkpt lat="40.580555" lon="16.66313"><ele>107.2</ele><time>2026-04-26T13:42:29.486Z</time></trkpt><trkpt lat="40.5804733" lon="16.6632233"><ele>106.4</ele><time>2026-04-26T13:42:30.486Z</time></trkpt><trkpt lat="40.5803967" lon="16.66331"><ele>105.60000000000001</ele><time>2026-04-26T13:42:31.485Z</time></trkpt><trkpt lat="40.580325" lon="16.66339"><ele>104.80000000000001</ele><time>2026-04-26T13:42:32.486Z</time></trkpt><trkpt lat="40.58025" lon="16.6634633"><ele>104.0</ele><time>2026-04-26T13:42:33.485Z</time></trkpt><trkpt lat="40.5801717" lon="16.6635217"><ele>103.66666666666666</ele><time>2026-04-26T13:42:34.485Z</time></trkpt><trkpt lat="40.58009" lon="16.6635667"><ele>103.33333333333333</ele><time>2026-04-26T13:42:35.485Z</time></trkpt><trkpt lat="40.5800083" lon="16.663605"><ele>103.0</ele><time>2026-04-26T13:42:36.485Z</time></trkpt><trkpt lat="40.5799283" lon="16.663645"><ele>102.66666666666666</ele><time>2026-04-26T13:42:37.485Z</time></trkpt><trkpt lat="40.5798533" lon="16.66369"><ele>102.33333333333333</ele><time>2026-04-26T13:42:38.485Z</time></trkpt><trkpt lat="40.5797833" lon="16.6637367"><ele>102.0</ele><time>2026-04-26T13:42:39.487Z</time></trkpt><trkpt lat="40.579725" lon="16.663775"><ele>101.66666666666667</ele><time>2026-04-26T13:42:40.485Z</time></trkpt><trkpt lat="40.5796517" lon="16.6637883"><ele>101.33333333333334</ele><time>2026-04-26T13:42:42.487Z</time></trkpt><trkpt lat="40.5795933" lon="16.6637233"><ele>101.0</ele><time>2026-04-26T13:42:44.487Z</time></trkpt><trkpt lat="40.5794967" lon="16.6636317"><ele>100.66666666666667</ele><time>2026-04-26T13:42:46.485Z</time></trkpt><trkpt lat="40.5794233" lon="16.663605"><ele>100.33333333333334</ele><time>2026-04-26T13:42:47.486Z</time></trkpt><trkpt lat="40.5793433" lon="16.6635933"><ele>100.0</ele><time>2026-04-26T13:42:48.485Z</time></trkpt><trkpt lat="40.579265" lon="16.6635833"><ele>99.16666666666667</ele><time>2026-04-26T13:42:49.486Z</time></trkpt><trkpt lat="40.5791917" lon="16.6635733"><ele>98.33333333333334</ele><time>2026-04-26T13:42:50.486Z</time></trkpt><trkpt lat="40.5791283" lon="16.663565"><ele>97.5</ele><time>2026-04-26T13:42:51.485Z</time></trkpt><trkpt lat="40.579045" lon="16.66356"><ele>96.66666666666667</ele><time>2026-04-26T13:42:53.485Z</time></trkpt><trkpt lat="40.57898" lon="16.663555"><ele>95.83333333333334</ele><time>2026-04-26T13:42:58.485Z</time></trkpt><trkpt lat="40.5789383" lon="16.6636283"><ele>95.0</ele><time>2026-04-26T13:43:01.485Z</time></trkpt><trkpt lat="40.5789983" lon="16.6637333"><ele>94.6</ele><time>2026-04-26T13:43:03.485Z</time></trkpt><trkpt lat="40.5790633" lon="16.6637733"><ele>94.2</ele><time>2026-04-26T13:43:04.485Z</time></trkpt><trkpt lat="40.5791483" lon="16.6638067"><ele>93.80000000000001</ele><time>2026-04-26T13:43:05.486Z</time></trkpt><trkpt lat="40.5792317" lon="16.663855"><ele>93.4</ele><time>2026-04-26T13:43:06.485Z</time></trkpt><trkpt lat="40.5793167" lon="16.663945"><ele>93.0</ele><time>2026-04-26T13:43:07.485Z</time></trkpt><trkpt lat="40.579395" lon="16.6640933"><ele>93.0</ele><time>2026-04-26T13:43:08.486Z</time></trkpt><trkpt lat="40.5794633" lon="16.6642567"><ele>93.0</ele><time>2026-04-26T13:43:09.485Z</time></trkpt><trkpt lat="40.5795367" lon="16.66442"><ele>93.0</ele><time>2026-04-26T13:43:10.485Z</time></trkpt><trkpt lat="40.5796333" lon="16.664585"><ele>93.0</ele><time>2026-04-26T13:43:11.486Z</time></trkpt><trkpt lat="40.5797517" lon="16.664735"><ele>94.66666666666666</ele><time>2026-04-26T13:43:12.486Z</time></trkpt><trkpt lat="40.5798783" lon="16.6648667"><ele>96.33333333333333</ele><time>2026-04-26T13:43:13.49Z</time></trkpt><trkpt lat="40.5800083" lon="16.664985"><ele>98.0</ele><time>2026-04-26T13:43:14.486Z</time></trkpt><trkpt lat="40.58014" lon="16.6650917"><ele>98.0</ele><time>2026-04-26T13:43:15.486Z</time></trkpt><trkpt lat="40.58027" lon="16.66519"><ele>98.0</ele><time>2026-04-26T13:43:16.488Z</time></trkpt><trkpt lat="40.5804017" lon="16.6652733"><ele>98.0</ele><time>2026-04-26T13:43:17.485Z</time></trkpt><trkpt lat="40.5805333" lon="16.665345"><ele>98.0</ele><time>2026-04-26T13:43:18.487Z</time></trkpt><trkpt lat="40.5806667" lon="16.6654067"><ele>97.25</ele><time>2026-04-26T13:43:19.485Z</time></trkpt><trkpt lat="40.5808" lon="16.6654633"><ele>96.5</ele><time>2026-04-26T13:43:20.486Z</time></trkpt><trkpt lat="40.5809317" lon="16.665515"><ele>95.75</ele><time>2026-04-26T13:43:21.485Z</time></trkpt><trkpt lat="40.581065" lon="16.6655617"><ele>95.0</ele><time>2026-04-26T13:43:22.485Z</time></trkpt><trkpt lat="40.5811983" lon="16.6656017"><ele>95.0</ele><time>2026-04-26T13:43:23.486Z</time></trkpt><trkpt lat="40.58133" lon="16.6656283"><ele>95.0</ele><time>2026-04-26T13:43:24.485Z</time></trkpt><trkpt lat="40.5814633" lon="16.66563"><ele>95.0</ele><time>2026-04-26T13:43:25.485Z</time></trkpt><trkpt lat="40.5815983" lon="16.6656017"><ele>95.0</ele><time>2026-04-26T13:43:26.486Z</time></trkpt><trkpt lat="40.5817367" lon="16.6655467"><ele>95.0</ele><time>2026-04-26T13:43:27.486Z</time></trkpt><trkpt lat="40.581875" lon="16.665475"><ele>95.0</ele><time>2026-04-26T13:43:28.485Z</time></trkpt><trkpt lat="40.5820133" lon="16.6653967"><ele>95.0</ele><time>2026-04-26T13:43:29.486Z</time></trkpt><trkpt lat="40.5821533" lon="16.6653167"><ele>97.66666666666667</ele><time>2026-04-26T13:43:30.485Z</time></trkpt><trkpt lat="40.582295" lon="16.6652383"><ele>100.33333333333334</ele><time>2026-04-26T13:43:31.485Z</time></trkpt><trkpt lat="40.5824383" lon="16.665165"><ele>103.0</ele><time>2026-04-26T13:43:32.487Z</time></trkpt><trkpt lat="40.5825833" lon="16.6651017"><ele>103.0</ele><time>2026-04-26T13:43:33.485Z</time></trkpt><trkpt lat="40.5827317" lon="16.665055"><ele>103.0</ele><time>2026-04-26T13:43:34.488Z</time></trkpt><trkpt lat="40.5828833" lon="16.6650233"><ele>103.0</ele><time>2026-04-26T13:43:35.485Z</time></trkpt><trkpt lat="40.5830333" lon="16.6649933"><ele>102.66666666666667</ele><time>2026-04-26T13:43:36.485Z</time></trkpt><trkpt lat="40.5831833" lon="16.6649617"><ele>102.33333333333334</ele><time>2026-04-26T13:43:37.485Z</time></trkpt><trkpt lat="40.5833317" lon="16.6649283"><ele>102.0</ele><time>2026-04-26T13:43:38.486Z</time></trkpt><trkpt lat="40.58348" lon="16.6648967"><ele>102.0</ele><time>2026-04-26T13:43:39.485Z</time></trkpt><trkpt lat="40.58363" lon="16.664865"><ele>102.0</ele><time>2026-04-26T13:43:40.485Z</time></trkpt><trkpt lat="40.5837783" lon="16.66483"><ele>102.0</ele><time>2026-04-26T13:43:41.487Z</time></trkpt><trkpt lat="40.5839283" lon="16.6647983"><ele>102.66666666666666</ele><time>2026-04-26T13:43:42.485Z</time></trkpt><trkpt lat="40.58408" lon="16.664765"><ele>103.33333333333333</ele><time>2026-04-26T13:43:43.486Z</time></trkpt><trkpt lat="40.5842317" lon="16.6647217"><ele>104.0</ele><time>2026-04-26T13:43:44.486Z</time></trkpt><trkpt lat="40.58438" lon="16.6646667"><ele>105.33333333333333</ele><time>2026-04-26T13:43:45.485Z</time></trkpt><trkpt lat="40.5845267" lon="16.6646"><ele>106.66666666666666</ele><time>2026-04-26T13:43:46.486Z</time></trkpt><trkpt lat="40.58467" lon="16.66453"><ele>108.0</ele><time>2026-04-26T13:43:47.485Z</time></trkpt><trkpt lat="40.5848133" lon="16.6644583"><ele>109.0</ele><time>2026-04-26T13:43:48.486Z</time></trkpt><trkpt lat="40.5849583" lon="16.66439"><ele>110.0</ele><time>2026-04-26T13:43:49.485Z</time></trkpt><trkpt lat="40.5851033" lon="16.66432"><ele>111.0</ele><time>2026-04-26T13:43:50.486Z</time></trkpt><trkpt lat="40.5852483" lon="16.66425"><ele>110.66666666666666</ele><time>2026-04-26T13:43:51.486Z</time></trkpt><trkpt lat="40.5853983" lon="16.6641717"><ele>110.33333333333333</ele><time>2026-04-26T13:43:52.484Z</time></trkpt><trkpt lat="40.5855467" lon="16.6640867"><ele>110.0</ele><time>2026-04-26T13:43:53.485Z</time></trkpt><trkpt lat="40.58569" lon="16.6640017"><ele>110.0</ele><time>2026-04-26T13:43:54.484Z</time></trkpt><trkpt lat="40.58583" lon="16.66392"><ele>110.0</ele><time>2026-04-26T13:43:55.484Z</time></trkpt><trkpt lat="40.5859583" lon="16.66384"><ele>110.0</ele><time>2026-04-26T13:43:56.485Z</time></trkpt><trkpt lat="40.58608" lon="16.663765"><ele>110.0</ele><time>2026-04-26T13:43:57.484Z</time></trkpt><trkpt lat="40.5861883" lon="16.6636983"><ele>111.0</ele><time>2026-04-26T13:43:58.49Z</time></trkpt><trkpt lat="40.58628" lon="16.6636483"><ele>112.0</ele><time>2026-04-26T13:43:59.484Z</time></trkpt><trkpt lat="40.5863533" lon="16.66363"><ele>113.0</ele><time>2026-04-26T13:44:00.484Z</time></trkpt><trkpt lat="40.5864567" lon="16.663675"><ele>114.0</ele><time>2026-04-26T13:44:02.485Z</time></trkpt><trkpt lat="40.586515" lon="16.66376"><ele>115.0</ele><time>2026-04-26T13:44:04.484Z</time></trkpt><trkpt lat="40.5865983" lon="16.66377"><ele>115.0</ele><time>2026-04-26T13:44:06.484Z</time></trkpt><trkpt lat="40.586725" lon="16.6637267"><ele>115.0</ele><time>2026-04-26T13:44:08.485Z</time></trkpt><trkpt lat="40.5868017" lon="16.6637033"><ele>115.0</ele><time>2026-04-26T13:44:09.486Z</time></trkpt><trkpt lat="40.5868833" lon="16.663685"><ele>115.0</ele><time>2026-04-26T13:44:10.485Z</time></trkpt><trkpt lat="40.5869733" lon="16.663675"><ele>115.0</ele><time>2026-04-26T13:44:11.484Z</time></trkpt><trkpt lat="40.5870667" lon="16.6636733"><ele>116.0</ele><time>2026-04-26T13:44:12.485Z</time></trkpt><trkpt lat="40.5871617" lon="16.663675"><ele>117.0</ele><time>2026-04-26T13:44:13.485Z</time></trkpt><trkpt lat="40.58726" lon="16.6636783"><ele>118.0</ele><time>2026-04-26T13:44:14.485Z</time></trkpt><trkpt lat="40.5873583" lon="16.6636833"><ele>119.0</ele><time>2026-04-26T13:44:15.485Z</time></trkpt><trkpt lat="40.5874533" lon="16.663685"><ele>120.0</ele><time>2026-04-26T13:44:16.484Z</time></trkpt><trkpt lat="40.587545" lon="16.66369"><ele>120.0</ele><time>2026-04-26T13:44:17.485Z</time></trkpt><trkpt lat="40.587635" lon="16.6636917"><ele>120.0</ele><time>2026-04-26T13:44:18.485Z</time></trkpt><trkpt lat="40.5877233" lon="16.6636917"><ele>120.0</ele><time>2026-04-26T13:44:19.485Z</time></trkpt><trkpt lat="40.58781" lon="16.6636833"><ele>120.0</ele><time>2026-04-26T13:44:20.485Z</time></trkpt><trkpt lat="40.5878933" lon="16.6636667"><ele>120.0</ele><time>2026-04-26T13:44:21.484Z</time></trkpt><trkpt lat="40.587975" lon="16.663645"><ele>120.0</ele><time>2026-04-26T13:44:22.485Z</time></trkpt><trkpt lat="40.5880567" lon="16.6636133"><ele>119.83333333333333</ele><time>2026-04-26T13:44:23.484Z</time></trkpt><trkpt lat="40.5881367" lon="16.663575"><ele>119.66666666666666</ele><time>2026-04-26T13:44:24.484Z</time></trkpt><trkpt lat="40.5882133" lon="16.6635267"><ele>119.5</ele><time>2026-04-26T13:44:25.485Z</time></trkpt><trkpt lat="40.58829" lon="16.6634717"><ele>119.33333333333333</ele><time>2026-04-26T13:44:26.485Z</time></trkpt><trkpt lat="40.5883633" lon="16.6634167"><ele>119.16666666666666</ele><time>2026-04-26T13:44:27.484Z</time></trkpt><trkpt lat="40.5884333" lon="16.663355"><ele>119.0</ele><time>2026-04-26T13:44:28.485Z</time></trkpt><trkpt lat="40.5884983" lon="16.6632833"><ele>119.0</ele><time>2026-04-26T13:44:29.485Z</time></trkpt><trkpt lat="40.58857" lon="16.6631933"><ele>119.0</ele><time>2026-04-26T13:44:30.484Z</time></trkpt><trkpt lat="40.5886417" lon="16.6631"><ele>119.0</ele><time>2026-04-26T13:44:31.484Z</time></trkpt><trkpt lat="40.58871" lon="16.6630033"><ele>119.0</ele><time>2026-04-26T13:44:32.485Z</time></trkpt><trkpt lat="40.5887717" lon="16.6629033"><ele>119.0</ele><time>2026-04-26T13:44:33.484Z</time></trkpt><trkpt lat="40.5888317" lon="16.6627983"><ele>120.2</ele><time>2026-04-26T13:44:34.484Z</time></trkpt><trkpt lat="40.58889" lon="16.662685"><ele>121.4</ele><time>2026-04-26T13:44:35.484Z</time></trkpt><trkpt lat="40.5889483" lon="16.66257"><ele>122.6</ele><time>2026-04-26T13:44:36.484Z</time></trkpt><trkpt lat="40.5890033" lon="16.6624533"><ele>123.8</ele><time>2026-04-26T13:44:37.484Z</time></trkpt><trkpt lat="40.5890583" lon="16.6623317"><ele>125.0</ele><time>2026-04-26T13:44:38.487Z</time></trkpt><trkpt lat="40.58911" lon="16.6622117"><ele>125.0</ele><time>2026-04-26T13:44:39.485Z</time></trkpt><trkpt lat="40.5891617" lon="16.6620917"><ele>125.0</ele><time>2026-04-26T13:44:40.484Z</time></trkpt><trkpt lat="40.58922" lon="16.6619733"><ele>125.0</ele><time>2026-04-26T13:44:41.485Z</time></trkpt><trkpt lat="40.5892817" lon="16.6618617"><ele>125.0</ele><time>2026-04-26T13:44:42.484Z</time></trkpt><trkpt lat="40.589345" lon="16.66175"><ele>125.0</ele><time>2026-04-26T13:44:43.484Z</time></trkpt><trkpt lat="40.5894067" lon="16.661635"><ele>124.6</ele><time>2026-04-26T13:44:44.485Z</time></trkpt><trkpt lat="40.5894617" lon="16.6615183"><ele>124.2</ele><time>2026-04-26T13:44:45.485Z</time></trkpt><trkpt lat="40.589515" lon="16.6614067"><ele>123.80000000000001</ele><time>2026-04-26T13:44:46.484Z</time></trkpt><trkpt lat="40.5895733" lon="16.66129"><ele>123.4</ele><time>2026-04-26T13:44:47.486Z</time></trkpt><trkpt lat="40.5896333" lon="16.6611767"><ele>123.0</ele><time>2026-04-26T13:44:48.485Z</time></trkpt><trkpt lat="40.5896967" lon="16.661065"><ele>124.2</ele><time>2026-04-26T13:44:49.484Z</time></trkpt><trkpt lat="40.58976" lon="16.660955"><ele>125.4</ele><time>2026-04-26T13:44:50.485Z</time></trkpt><trkpt lat="40.58983" lon="16.6608533"><ele>126.60000000000001</ele><time>2026-04-26T13:44:51.484Z</time></trkpt><trkpt lat="40.5899033" lon="16.6607517"><ele>127.80000000000001</ele><time>2026-04-26T13:44:52.485Z</time></trkpt><trkpt lat="40.5899817" lon="16.6606483"><ele>129.0</ele><time>2026-04-26T13:44:53.485Z</time></trkpt><trkpt lat="40.59006" lon="16.6605467"><ele>129.0</ele><time>2026-04-26T13:44:54.485Z</time></trkpt><trkpt lat="40.5901383" lon="16.6604433"><ele>129.0</ele><time>2026-04-26T13:44:55.486Z</time></trkpt><trkpt lat="40.59022" lon="16.6603467"><ele>129.0</ele><time>2026-04-26T13:44:56.486Z</time></trkpt><trkpt lat="40.5903017" lon="16.6602517"><ele>129.0</ele><time>2026-04-26T13:44:57.485Z</time></trkpt><trkpt lat="40.590385" lon="16.6601583"><ele>129.0</ele><time>2026-04-26T13:44:58.486Z</time></trkpt><trkpt lat="40.5904683" lon="16.6600633"><ele>130.25</ele><time>2026-04-26T13:44:59.485Z</time></trkpt><trkpt lat="40.5905517" lon="16.659965"><ele>131.5</ele><time>2026-04-26T13:45:00.485Z</time></trkpt><trkpt lat="40.590635" lon="16.6598617"><ele>132.75</ele><time>2026-04-26T13:45:01.484Z</time></trkpt><trkpt lat="40.5907183" lon="16.6597617"><ele>134.0</ele><time>2026-04-26T13:45:02.485Z</time></trkpt><trkpt lat="40.5908" lon="16.6596633"><ele>134.0</ele><time>2026-04-26T13:45:03.485Z</time></trkpt><trkpt lat="40.5908817" lon="16.6595683"><ele>134.0</ele><time>2026-04-26T13:45:04.485Z</time></trkpt><trkpt lat="40.59096" lon="16.65947"><ele>134.0</ele><time>2026-04-26T13:45:05.484Z</time></trkpt><trkpt lat="40.5910383" lon="16.65937"><ele>134.0</ele><time>2026-04-26T13:45:06.484Z</time></trkpt><trkpt lat="40.5911167" lon="16.6592717"><ele>134.0</ele><time>2026-04-26T13:45:07.486Z</time></trkpt><trkpt lat="40.591195" lon="16.6591783"><ele>135.2</ele><time>2026-04-26T13:45:08.486Z</time></trkpt><trkpt lat="40.5912733" lon="16.6590817"><ele>136.4</ele><time>2026-04-26T13:45:09.486Z</time></trkpt><trkpt lat="40.5913533" lon="16.6589817"><ele>137.6</ele><time>2026-04-26T13:45:10.486Z</time></trkpt><trkpt lat="40.5914317" lon="16.65888"><ele>138.8</ele><time>2026-04-26T13:45:11.486Z</time></trkpt><trkpt lat="40.59151" lon="16.6587783"><ele>140.0</ele><time>2026-04-26T13:45:12.485Z</time></trkpt><trkpt lat="40.5915883" lon="16.6586783"><ele>138.8</ele><time>2026-04-26T13:45:13.485Z</time></trkpt><trkpt lat="40.591665" lon="16.6585767"><ele>137.6</ele><time>2026-04-26T13:45:14.484Z</time></trkpt><trkpt lat="40.5917417" lon="16.6584833"><ele>136.4</ele><time>2026-04-26T13:45:15.485Z</time></trkpt><trkpt lat="40.59182" lon="16.65839"><ele>135.2</ele><time>2026-04-26T13:45:16.484Z</time></trkpt><trkpt lat="40.5919017" lon="16.6582967"><ele>134.0</ele><time>2026-04-26T13:45:17.485Z</time></trkpt><trkpt lat="40.59198" lon="16.6582017"><ele>134.6</ele><time>2026-04-26T13:45:18.485Z</time></trkpt><trkpt lat="40.5920583" lon="16.65811"><ele>135.2</ele><time>2026-04-26T13:45:19.485Z</time></trkpt><trkpt lat="40.5921383" lon="16.6580183"><ele>135.79999999999998</ele><time>2026-04-26T13:45:20.485Z</time></trkpt><trkpt lat="40.5922183" lon="16.6579267"><ele>136.4</ele><time>2026-04-26T13:45:21.485Z</time></trkpt><trkpt lat="40.5922933" lon="16.6578367"><ele>137.0</ele><time>2026-04-26T13:45:22.485Z</time></trkpt><trkpt lat="40.592365" lon="16.657745"><ele>137.0</ele><time>2026-04-26T13:45:23.484Z</time></trkpt><trkpt lat="40.592435" lon="16.6576533"><ele>137.0</ele><time>2026-04-26T13:45:24.485Z</time></trkpt><trkpt lat="40.5925067" lon="16.6575617"><ele>137.0</ele><time>2026-04-26T13:45:25.484Z</time></trkpt><trkpt lat="40.5925783" lon="16.6574717"><ele>137.0</ele><time>2026-04-26T13:45:26.485Z</time></trkpt><trkpt lat="40.59265" lon="16.6573817"><ele>137.0</ele><time>2026-04-26T13:45:27.486Z</time></trkpt><trkpt lat="40.59273" lon="16.6572967"><ele>137.0</ele><time>2026-04-26T13:45:28.486Z</time></trkpt><trkpt lat="40.59281" lon="16.65721"><ele>137.0</ele><time>2026-04-26T13:45:29.485Z</time></trkpt><trkpt lat="40.5928817" lon="16.6571333"><ele>137.0</ele><time>2026-04-26T13:45:30.485Z</time></trkpt><trkpt lat="40.5929467" lon="16.6570667"><ele>137.0</ele><time>2026-04-26T13:45:31.485Z</time></trkpt><trkpt lat="40.5930017" lon="16.6570017"><ele>137.0</ele><time>2026-04-26T13:45:32.485Z</time></trkpt><trkpt lat="40.5930483" lon="16.65693"><ele>137.0</ele><time>2026-04-26T13:45:33.485Z</time></trkpt><trkpt lat="40.5930917" lon="16.6568517"><ele>138.0</ele><time>2026-04-26T13:45:34.485Z</time></trkpt><trkpt lat="40.5931383" lon="16.6567833"><ele>139.0</ele><time>2026-04-26T13:45:35.485Z</time></trkpt><trkpt lat="40.593245" lon="16.6567033"><ele>140.0</ele><time>2026-04-26T13:45:37.488Z</time></trkpt><trkpt lat="40.5933533" lon="16.6566883"><ele>141.0</ele><time>2026-04-26T13:45:39.485Z</time></trkpt><trkpt lat="40.593465" lon="16.6566783"><ele>142.0</ele><time>2026-04-26T13:45:41.485Z</time></trkpt><trkpt lat="40.5935333" lon="16.6566517"><ele>142.0</ele><time>2026-04-26T13:45:42.486Z</time></trkpt><trkpt lat="40.5936133" lon="16.6566133"><ele>142.0</ele><time>2026-04-26T13:45:43.485Z</time></trkpt><trkpt lat="40.5936967" lon="16.6565717"><ele>142.0</ele><time>2026-04-26T13:45:44.485Z</time></trkpt><trkpt lat="40.5937833" lon="16.6565333"><ele>142.0</ele><time>2026-04-26T13:45:45.485Z</time></trkpt><trkpt lat="40.5938683" lon="16.6565017"><ele>142.0</ele><time>2026-04-26T13:45:46.485Z</time></trkpt><trkpt lat="40.5939517" lon="16.6564717"><ele>142.0</ele><time>2026-04-26T13:45:47.486Z</time></trkpt><trkpt lat="40.5940333" lon="16.656445"><ele>141.79999999999998</ele><time>2026-04-26T13:45:48.485Z</time></trkpt><trkpt lat="40.594115" lon="16.6564167"><ele>141.6</ele><time>2026-04-26T13:45:49.485Z</time></trkpt><trkpt lat="40.594205" lon="16.656385"><ele>141.39999999999998</ele><time>2026-04-26T13:45:50.485Z</time></trkpt><trkpt lat="40.5943017" lon="16.6563583"><ele>141.2</ele><time>2026-04-26T13:45:51.486Z</time></trkpt><trkpt lat="40.5943983" lon="16.656335"><ele>141.0</ele><time>2026-04-26T13:45:52.486Z</time></trkpt><trkpt lat="40.5944917" lon="16.6563167"><ele>140.4</ele><time>2026-04-26T13:45:53.485Z</time></trkpt><trkpt lat="40.5945833" lon="16.6562983"><ele>139.8</ele><time>2026-04-26T13:45:54.485Z</time></trkpt><trkpt lat="40.5946733" lon="16.6562817"><ele>139.20000000000002</ele><time>2026-04-26T13:45:55.486Z</time></trkpt><trkpt lat="40.594765" lon="16.656265"><ele>138.6</ele><time>2026-04-26T13:45:56.486Z</time></trkpt><trkpt lat="40.594855" lon="16.656245"><ele>138.0</ele><time>2026-04-26T13:45:57.488Z</time></trkpt><trkpt lat="40.5949433" lon="16.656225"><ele>138.0</ele><time>2026-04-26T13:45:58.486Z</time></trkpt><trkpt lat="40.5950283" lon="16.65621"><ele>138.0</ele><time>2026-04-26T13:45:59.487Z</time></trkpt><trkpt lat="40.5951133" lon="16.6561933"><ele>138.0</ele><time>2026-04-26T13:46:00.485Z</time></trkpt><trkpt lat="40.5951983" lon="16.6561783"><ele>138.0</ele><time>2026-04-26T13:46:01.486Z</time></trkpt><trkpt lat="40.5952883" lon="16.6561617"><ele>138.0</ele><time>2026-04-26T13:46:02.486Z</time></trkpt><trkpt lat="40.5953817" lon="16.65614"><ele>138.0</ele><time>2026-04-26T13:46:03.486Z</time></trkpt><trkpt lat="40.595475" lon="16.6561133"><ele>138.0</ele><time>2026-04-26T13:46:04.485Z</time></trkpt><trkpt lat="40.595575" lon="16.6560917"><ele>138.0</ele><time>2026-04-26T13:46:05.486Z</time></trkpt><trkpt lat="40.5956733" lon="16.6560733"><ele>138.0</ele><time>2026-04-26T13:46:06.485Z</time></trkpt><trkpt lat="40.59577" lon="16.6560567"><ele>138.0</ele><time>2026-04-26T13:46:07.485Z</time></trkpt><trkpt lat="40.5958683" lon="16.6560383"><ele>138.0</ele><time>2026-04-26T13:46:08.486Z</time></trkpt><trkpt lat="40.595965" lon="16.65602"><ele>138.0</ele><time>2026-04-26T13:46:09.485Z</time></trkpt><trkpt lat="40.5960567" lon="16.6560017"><ele>138.0</ele><time>2026-04-26T13:46:10.485Z</time></trkpt><trkpt lat="40.596145" lon="16.6559833"><ele>138.0</ele><time>2026-04-26T13:46:11.485Z</time></trkpt><trkpt lat="40.596225" lon="16.655965"><ele>138.0</ele><time>2026-04-26T13:46:12.485Z</time></trkpt><trkpt lat="40.5963017" lon="16.6559467"><ele>138.0</ele><time>2026-04-26T13:46:13.486Z</time></trkpt><trkpt lat="40.59637" lon="16.6559283"><ele>138.0</ele><time>2026-04-26T13:46:14.485Z</time></trkpt><trkpt lat="40.5964317" lon="16.65591"><ele>137.71428571428572</ele><time>2026-04-26T13:46:15.485Z</time></trkpt><trkpt lat="40.5964933" lon="16.655885"><ele>137.42857142857144</ele><time>2026-04-26T13:46:16.485Z</time></trkpt><trkpt lat="40.596555" lon="16.6558667"><ele>137.14285714285714</ele><time>2026-04-26T13:46:17.485Z</time></trkpt><trkpt lat="40.5966183" lon="16.6558517"><ele>136.85714285714286</ele><time>2026-04-26T13:46:18.486Z</time></trkpt><trkpt lat="40.5966817" lon="16.6558317"><ele>136.57142857142856</ele><time>2026-04-26T13:46:19.485Z</time></trkpt><trkpt lat="40.5967467" lon="16.6558067"><ele>136.28571428571428</ele><time>2026-04-26T13:46:20.485Z</time></trkpt><trkpt lat="40.5968133" lon="16.655775"><ele>136.0</ele><time>2026-04-26T13:46:21.485Z</time></trkpt><trkpt lat="40.5968817" lon="16.6557383"><ele>136.0</ele><time>2026-04-26T13:46:22.485Z</time></trkpt><trkpt lat="40.59695" lon="16.6556917"><ele>136.0</ele><time>2026-04-26T13:46:23.485Z</time></trkpt><trkpt lat="40.597015" lon="16.65564"><ele>136.0</ele><time>2026-04-26T13:46:24.485Z</time></trkpt><trkpt lat="40.5970783" lon="16.655585"><ele>136.0</ele><time>2026-04-26T13:46:25.485Z</time></trkpt><trkpt lat="40.5971417" lon="16.6555267"><ele>136.0</ele><time>2026-04-26T13:46:26.485Z</time></trkpt><trkpt lat="40.5972" lon="16.655465"><ele>136.0</ele><time>2026-04-26T13:46:27.485Z</time></trkpt><trkpt lat="40.5972533" lon="16.655405"><ele>135.57142857142856</ele><time>2026-04-26T13:46:28.485Z</time></trkpt><trkpt lat="40.5973017" lon="16.6553417"><ele>135.14285714285714</ele><time>2026-04-26T13:46:29.484Z</time></trkpt><trkpt lat="40.5973467" lon="16.6552683"><ele>134.71428571428572</ele><time>2026-04-26T13:46:30.485Z</time></trkpt><trkpt lat="40.5973867" lon="16.6551867"><ele>134.28571428571428</ele><time>2026-04-26T13:46:31.485Z</time></trkpt><trkpt lat="40.597425" lon="16.6551017"><ele>133.85714285714286</ele><time>2026-04-26T13:46:32.485Z</time></trkpt><trkpt lat="40.5974617" lon="16.655015"><ele>133.42857142857142</ele><time>2026-04-26T13:46:33.485Z</time></trkpt><trkpt lat="40.5974983" lon="16.6549283"><ele>133.0</ele><time>2026-04-26T13:46:34.485Z</time></trkpt><trkpt lat="40.597535" lon="16.65484"><ele>133.0</ele><time>2026-04-26T13:46:35.485Z</time></trkpt><trkpt lat="40.5975667" lon="16.6547517"><ele>133.0</ele><time>2026-04-26T13:46:36.485Z</time></trkpt><trkpt lat="40.597595" lon="16.65466"><ele>133.0</ele><time>2026-04-26T13:46:37.486Z</time></trkpt><trkpt lat="40.5976183" lon="16.6545683"><ele>133.0</ele><time>2026-04-26T13:46:38.486Z</time></trkpt><trkpt lat="40.5976433" lon="16.6544833"><ele>133.0</ele><time>2026-04-26T13:46:39.485Z</time></trkpt><trkpt lat="40.59767" lon="16.6544033"><ele>133.0</ele><time>2026-04-26T13:46:40.485Z</time></trkpt><trkpt lat="40.5977167" lon="16.6542633"><ele>133.0</ele><time>2026-04-26T13:46:42.485Z</time></trkpt><trkpt lat="40.5977617" lon="16.6541383"><ele>133.0</ele><time>2026-04-26T13:46:44.485Z</time></trkpt><trkpt lat="40.5978033" lon="16.65403"><ele>133.0</ele><time>2026-04-26T13:46:46.485Z</time></trkpt><trkpt lat="40.5978433" lon="16.653945"><ele>133.0</ele><time>2026-04-26T13:46:48.485Z</time></trkpt><trkpt lat="40.5978867" lon="16.653865"><ele>133.0</ele><time>2026-04-26T13:46:50.486Z</time></trkpt><trkpt lat="40.5979483" lon="16.6537367"><ele>132.66666666666669</ele><time>2026-04-26T13:46:52.485Z</time></trkpt><trkpt lat="40.5979967" lon="16.653655"><ele>132.33333333333334</ele><time>2026-04-26T13:46:53.486Z</time></trkpt><trkpt lat="40.59806" lon="16.6535633"><ele>132.0</ele><time>2026-04-26T13:46:54.485Z</time></trkpt><trkpt lat="40.598125" lon="16.6534733"><ele>131.66666666666666</ele><time>2026-04-26T13:46:55.485Z</time></trkpt><trkpt lat="40.5981883" lon="16.6533917"><ele>131.33333333333331</ele><time>2026-04-26T13:46:56.486Z</time></trkpt><trkpt lat="40.5982467" lon="16.6533183"><ele>131.0</ele><time>2026-04-26T13:46:57.485Z</time></trkpt><trkpt lat="40.5982983" lon="16.653255"><ele>131.0</ele><time>2026-04-26T13:46:58.484Z</time></trkpt><trkpt lat="40.598385" lon="16.6531767"><ele>131.0</ele><time>2026-04-26T13:47:00.485Z</time></trkpt><trkpt lat="40.598485" lon="16.653175"><ele>131.0</ele><time>2026-04-26T13:47:02.487Z</time></trkpt><trkpt lat="40.59856" lon="16.6531533"><ele>131.0</ele><time>2026-04-26T13:47:03.487Z</time></trkpt><trkpt lat="40.598645" lon="16.6530933"><ele>131.0</ele><time>2026-04-26T13:47:04.485Z</time></trkpt><trkpt lat="40.5987317" lon="16.6529883"><ele>131.25</ele><time>2026-04-26T13:47:05.486Z</time></trkpt><trkpt lat="40.5988167" lon="16.6528667"><ele>131.5</ele><time>2026-04-26T13:47:06.486Z</time></trkpt><trkpt lat="40.5989067" lon="16.6527483"><ele>131.75</ele><time>2026-04-26T13:47:07.485Z</time></trkpt><trkpt lat="40.599005" lon="16.6526517"><ele>132.0</ele><time>2026-04-26T13:47:08.486Z</time></trkpt><trkpt lat="40.5991067" lon="16.652575"><ele>132.0</ele><time>2026-04-26T13:47:09.485Z</time></trkpt><trkpt lat="40.5992083" lon="16.6525083"><ele>132.0</ele><time>2026-04-26T13:47:10.489Z</time></trkpt><trkpt lat="40.5993017" lon="16.6524467"><ele>132.0</ele><time>2026-04-26T13:47:11.485Z</time></trkpt><trkpt lat="40.5993883" lon="16.6523917"><ele>132.0</ele><time>2026-04-26T13:47:12.485Z</time></trkpt><trkpt lat="40.5994667" lon="16.6523467"><ele>132.0</ele><time>2026-04-26T13:47:13.485Z</time></trkpt><trkpt lat="40.5995383" lon="16.6523033"><ele>131.33333333333334</ele><time>2026-04-26T13:47:14.486Z</time></trkpt><trkpt lat="40.599605" lon="16.6522633"><ele>130.66666666666666</ele><time>2026-04-26T13:47:15.485Z</time></trkpt><trkpt lat="40.5996717" lon="16.6522217"><ele>130.0</ele><time>2026-04-26T13:47:16.486Z</time></trkpt><trkpt lat="40.5997483" lon="16.6521767"><ele>129.33333333333331</ele><time>2026-04-26T13:47:17.487Z</time></trkpt><trkpt lat="40.59983" lon="16.6521233"><ele>128.66666666666666</ele><time>2026-04-26T13:47:18.486Z</time></trkpt><trkpt lat="40.5999183" lon="16.6520633"><ele>128.0</ele><time>2026-04-26T13:47:19.487Z</time></trkpt><trkpt lat="40.6000017" lon="16.65199"><ele>128.4</ele><time>2026-04-26T13:47:20.485Z</time></trkpt><trkpt lat="40.6000767" lon="16.6519083"><ele>128.8</ele><time>2026-04-26T13:47:21.485Z</time></trkpt><trkpt lat="40.600135" lon="16.651815"><ele>129.2</ele><time>2026-04-26T13:47:22.485Z</time></trkpt><trkpt lat="40.6001817" lon="16.6517033"><ele>129.6</ele><time>2026-04-26T13:47:23.485Z</time></trkpt><trkpt lat="40.600215" lon="16.651575"><ele>130.0</ele><time>2026-04-26T13:47:24.485Z</time></trkpt><trkpt lat="40.60024" lon="16.651425"><ele>130.0</ele><time>2026-04-26T13:47:25.487Z</time></trkpt><trkpt lat="40.6002617" lon="16.6512683"><ele>130.0</ele><time>2026-04-26T13:47:26.486Z</time></trkpt><trkpt lat="40.6002833" lon="16.6511217"><ele>130.0</ele><time>2026-04-26T13:47:27.486Z</time></trkpt><trkpt lat="40.6003133" lon="16.650985"><ele>130.0</ele><time>2026-04-26T13:47:28.486Z</time></trkpt><trkpt lat="40.6003617" lon="16.65086"><ele>130.0</ele><time>2026-04-26T13:47:29.485Z</time></trkpt><trkpt lat="40.6004333" lon="16.6507567"><ele>129.75</ele><time>2026-04-26T13:47:30.486Z</time></trkpt><trkpt lat="40.6005267" lon="16.6506717"><ele>129.5</ele><time>2026-04-26T13:47:31.485Z</time></trkpt><trkpt lat="40.6006517" lon="16.6506"><ele>129.25</ele><time>2026-04-26T13:47:32.486Z</time></trkpt><trkpt lat="40.6007917" lon="16.6505383"><ele>129.0</ele><time>2026-04-26T13:47:33.485Z</time></trkpt><trkpt lat="40.600925" lon="16.6504833"><ele>129.0</ele><time>2026-04-26T13:47:34.485Z</time></trkpt><trkpt lat="40.6010433" lon="16.6504267"><ele>129.0</ele><time>2026-04-26T13:47:35.489Z</time></trkpt><trkpt lat="40.6011517" lon="16.6503683"><ele>129.0</ele><time>2026-04-26T13:47:36.486Z</time></trkpt><trkpt lat="40.60126" lon="16.6503183"><ele>129.0</ele><time>2026-04-26T13:47:37.485Z</time></trkpt><trkpt lat="40.601375" lon="16.6502733"><ele>130.25</ele><time>2026-04-26T13:47:38.486Z</time></trkpt><trkpt lat="40.60149" lon="16.650235"><ele>131.5</ele><time>2026-04-26T13:47:39.485Z</time></trkpt><trkpt lat="40.6016017" lon="16.6501883"><ele>132.75</ele><time>2026-04-26T13:47:40.486Z</time></trkpt><trkpt lat="40.601715" lon="16.6501333"><ele>134.0</ele><time>2026-04-26T13:47:41.486Z</time></trkpt><trkpt lat="40.6018267" lon="16.6500767"><ele>134.0</ele><time>2026-04-26T13:47:42.487Z</time></trkpt><trkpt lat="40.6019367" lon="16.65003"><ele>134.0</ele><time>2026-04-26T13:47:43.486Z</time></trkpt><trkpt lat="40.602045" lon="16.6499917"><ele>134.0</ele><time>2026-04-26T13:47:44.486Z</time></trkpt><trkpt lat="40.6021533" lon="16.6499633"><ele>134.0</ele><time>2026-04-26T13:47:45.489Z</time></trkpt><trkpt lat="40.6022617" lon="16.6499433"><ele>134.0</ele><time>2026-04-26T13:47:46.485Z</time></trkpt><trkpt lat="40.602365" lon="16.6499267"><ele>133.6</ele><time>2026-04-26T13:47:47.486Z</time></trkpt><trkpt lat="40.6024617" lon="16.6499067"><ele>133.2</ele><time>2026-04-26T13:47:48.485Z</time></trkpt><trkpt lat="40.6025533" lon="16.6498783"><ele>132.79999999999998</ele><time>2026-04-26T13:47:49.49Z</time></trkpt><trkpt lat="40.6026383" lon="16.6498383"><ele>132.4</ele><time>2026-04-26T13:47:50.488Z</time></trkpt><trkpt lat="40.6027183" lon="16.6497633"><ele>132.0</ele><time>2026-04-26T13:47:51.486Z</time></trkpt><trkpt lat="40.60279" lon="16.64966"><ele>132.0</ele><time>2026-04-26T13:47:52.485Z</time></trkpt><trkpt lat="40.6028533" lon="16.6495383"><ele>132.0</ele><time>2026-04-26T13:47:53.487Z</time></trkpt><trkpt lat="40.6029133" lon="16.6494067"><ele>132.0</ele><time>2026-04-26T13:47:54.485Z</time></trkpt><trkpt lat="40.602975" lon="16.649275"><ele>132.0</ele><time>2026-04-26T13:47:55.485Z</time></trkpt><trkpt lat="40.6030417" lon="16.649145"><ele>132.0</ele><time>2026-04-26T13:47:56.486Z</time></trkpt><trkpt lat="40.603105" lon="16.6490133"><ele>132.0</ele><time>2026-04-26T13:47:57.485Z</time></trkpt><trkpt lat="40.60316" lon="16.6488833"><ele>132.0</ele><time>2026-04-26T13:47:58.485Z</time></trkpt><trkpt lat="40.6032233" lon="16.6487633"><ele>132.0</ele><time>2026-04-26T13:47:59.489Z</time></trkpt><trkpt lat="40.603305" lon="16.648675"><ele>132.0</ele><time>2026-04-26T13:48:00.485Z</time></trkpt><trkpt lat="40.603405" lon="16.6486183"><ele>132.0</ele><time>2026-04-26T13:48:01.485Z</time></trkpt><trkpt lat="40.6035083" lon="16.6485767"><ele>132.0</ele><time>2026-04-26T13:48:02.486Z</time></trkpt><trkpt lat="40.6036117" lon="16.64854"><ele>132.0</ele><time>2026-04-26T13:48:03.485Z</time></trkpt><trkpt lat="40.60371" lon="16.64851"><ele>132.0</ele><time>2026-04-26T13:48:04.488Z</time></trkpt><trkpt lat="40.6038033" lon="16.6485133"><ele>132.0</ele><time>2026-04-26T13:48:05.487Z</time></trkpt><trkpt lat="40.6038883" lon="16.648555"><ele>133.2</ele><time>2026-04-26T13:48:06.494Z</time></trkpt><trkpt lat="40.6039567" lon="16.6486433"><ele>134.39999999999998</ele><time>2026-04-26T13:48:07.485Z</time></trkpt><trkpt lat="40.6040117" lon="16.64877"><ele>135.60000000000002</ele><time>2026-04-26T13:48:08.486Z</time></trkpt><trkpt lat="40.6040567" lon="16.64891"><ele>136.8</ele><time>2026-04-26T13:48:09.486Z</time></trkpt><trkpt lat="40.6041" lon="16.6490467"><ele>138.0</ele><time>2026-04-26T13:48:10.486Z</time></trkpt><trkpt lat="40.6041467" lon="16.6491717"><ele>138.0</ele><time>2026-04-26T13:48:11.486Z</time></trkpt><trkpt lat="40.604195" lon="16.6492817"><ele>138.0</ele><time>2026-04-26T13:48:12.486Z</time></trkpt><trkpt lat="40.60425" lon="16.6493733"><ele>138.0</ele><time>2026-04-26T13:48:13.486Z</time></trkpt><trkpt lat="40.6043183" lon="16.6494417"><ele>138.0</ele><time>2026-04-26T13:48:14.485Z</time></trkpt><trkpt lat="40.6044" lon="16.649475"><ele>138.0</ele><time>2026-04-26T13:48:15.485Z</time></trkpt><trkpt lat="40.6044867" lon="16.6494483"><ele>138.0</ele><time>2026-04-26T13:48:16.485Z</time></trkpt><trkpt lat="40.604575" lon="16.6493783"><ele>140.0</ele><time>2026-04-26T13:48:17.486Z</time></trkpt><trkpt lat="40.6046583" lon="16.6492583"><ele>142.0</ele><time>2026-04-26T13:48:18.485Z</time></trkpt><trkpt lat="40.604745" lon="16.6491183"><ele>144.0</ele><time>2026-04-26T13:48:19.486Z</time></trkpt><trkpt lat="40.60484" lon="16.6489733"><ele>146.0</ele><time>2026-04-26T13:48:20.487Z</time></trkpt><trkpt lat="40.6049367" lon="16.6488333"><ele>146.0</ele><time>2026-04-26T13:48:21.485Z</time></trkpt><trkpt lat="40.6050333" lon="16.6486883"><ele>146.0</ele><time>2026-04-26T13:48:22.487Z</time></trkpt><trkpt lat="40.6051283" lon="16.6485433"><ele>146.0</ele><time>2026-04-26T13:48:23.486Z</time></trkpt><trkpt lat="40.6052183" lon="16.6484"><ele>146.0</ele><time>2026-04-26T13:48:24.486Z</time></trkpt><trkpt lat="40.6053067" lon="16.648265"><ele>146.5</ele><time>2026-04-26T13:48:25.486Z</time></trkpt><trkpt lat="40.6053917" lon="16.648135"><ele>147.0</ele><time>2026-04-26T13:48:26.485Z</time></trkpt><trkpt lat="40.6054733" lon="16.6480083"><ele>147.5</ele><time>2026-04-26T13:48:27.485Z</time></trkpt><trkpt lat="40.6055533" lon="16.6478833"><ele>148.0</ele><time>2026-04-26T13:48:28.484Z</time></trkpt><trkpt lat="40.6056233" lon="16.64775"><ele>148.0</ele><time>2026-04-26T13:48:29.484Z</time></trkpt><trkpt lat="40.6056767" lon="16.6476067"><ele>148.0</ele><time>2026-04-26T13:48:30.484Z</time></trkpt><trkpt lat="40.605715" lon="16.6474533"><ele>148.0</ele><time>2026-04-26T13:48:31.486Z</time></trkpt><trkpt lat="40.6057417" lon="16.647305"><ele>148.0</ele><time>2026-04-26T13:48:32.485Z</time></trkpt><trkpt lat="40.605775" lon="16.64718"><ele>148.0</ele><time>2026-04-26T13:48:33.486Z</time></trkpt><trkpt lat="40.60582" lon="16.647095"><ele>148.0</ele><time>2026-04-26T13:48:34.484Z</time></trkpt><trkpt lat="40.6058817" lon="16.64701"><ele>148.0</ele><time>2026-04-26T13:48:36.485Z</time></trkpt><trkpt lat="40.60585" lon="16.646935"><ele>148.0</ele><time>2026-04-26T13:48:38.486Z</time></trkpt><trkpt lat="40.6057883" lon="16.6469083"><ele>148.0</ele><time>2026-04-26T13:48:39.486Z</time></trkpt><trkpt lat="40.6057017" lon="16.6468733"><ele>148.0</ele><time>2026-04-26T13:48:40.483Z</time></trkpt><trkpt lat="40.6056017" lon="16.646825"><ele>147.5</ele><time>2026-04-26T13:48:41.487Z</time></trkpt><trkpt lat="40.60549" lon="16.64676"><ele>147.0</ele><time>2026-04-26T13:48:42.485Z</time></trkpt><trkpt lat="40.60538" lon="16.64666"><ele>146.5</ele><time>2026-04-26T13:48:43.485Z</time></trkpt><trkpt lat="40.6052817" lon="16.6465333"><ele>146.0</ele><time>2026-04-26T13:48:44.485Z</time></trkpt><trkpt lat="40.6052033" lon="16.6463883"><ele>146.0</ele><time>2026-04-26T13:48:45.486Z</time></trkpt><trkpt lat="40.6051367" lon="16.6462317"><ele>146.0</ele><time>2026-04-26T13:48:46.486Z</time></trkpt><trkpt lat="40.60508" lon="16.64607"><ele>146.0</ele><time>2026-04-26T13:48:47.484Z</time></trkpt><trkpt lat="40.605025" lon="16.6459033"><ele>146.0</ele><time>2026-04-26T13:48:48.485Z</time></trkpt><trkpt lat="40.60497" lon="16.64573"><ele>146.4</ele><time>2026-04-26T13:48:49.484Z</time></trkpt><trkpt lat="40.60492" lon="16.645565"><ele>146.8</ele><time>2026-04-26T13:48:50.488Z</time></trkpt><trkpt lat="40.60488" lon="16.64543"><ele>147.20000000000002</ele><time>2026-04-26T13:48:51.485Z</time></trkpt><trkpt lat="40.6048417" lon="16.64531"><ele>147.6</ele><time>2026-04-26T13:48:52.485Z</time></trkpt><trkpt lat="40.604805" lon="16.64519"><ele>148.0</ele><time>2026-04-26T13:48:53.485Z</time></trkpt><trkpt lat="40.6047733" lon="16.645065"><ele>148.0</ele><time>2026-04-26T13:48:54.484Z</time></trkpt><trkpt lat="40.6047483" lon="16.6449317"><ele>148.0</ele><time>2026-04-26T13:48:55.486Z</time></trkpt><trkpt lat="40.6047283" lon="16.6448"><ele>148.0</ele><time>2026-04-26T13:48:56.485Z</time></trkpt><trkpt lat="40.6047067" lon="16.6446667"><ele>148.0</ele><time>2026-04-26T13:48:57.486Z</time></trkpt><trkpt lat="40.6046883" lon="16.6445283"><ele>148.0</ele><time>2026-04-26T13:48:58.485Z</time></trkpt><trkpt lat="40.60467" lon="16.644385"><ele>147.0</ele><time>2026-04-26T13:48:59.485Z</time></trkpt><trkpt lat="40.6046467" lon="16.64423"><ele>146.0</ele><time>2026-04-26T13:49:00.485Z</time></trkpt><trkpt lat="40.60462" lon="16.6440633"><ele>145.0</ele><time>2026-04-26T13:49:01.487Z</time></trkpt><trkpt lat="40.60459" lon="16.6438933"><ele>144.0</ele><time>2026-04-26T13:49:02.484Z</time></trkpt><trkpt lat="40.604565" lon="16.6437217"><ele>144.5</ele><time>2026-04-26T13:49:03.485Z</time></trkpt><trkpt lat="40.6045383" lon="16.6435567"><ele>145.0</ele><time>2026-04-26T13:49:04.484Z</time></trkpt><trkpt lat="40.6045117" lon="16.6434017"><ele>145.5</ele><time>2026-04-26T13:49:05.485Z</time></trkpt><trkpt lat="40.6044867" lon="16.6432533"><ele>146.0</ele><time>2026-04-26T13:49:06.485Z</time></trkpt><trkpt lat="40.6044617" lon="16.64312"><ele>144.8</ele><time>2026-04-26T13:49:07.485Z</time></trkpt><trkpt lat="40.604425" lon="16.6430117"><ele>143.6</ele><time>2026-04-26T13:49:08.485Z</time></trkpt><trkpt lat="40.6043667" lon="16.6429317"><ele>142.4</ele><time>2026-04-26T13:49:09.485Z</time></trkpt><trkpt lat="40.6042917" lon="16.6428933"><ele>141.2</ele><time>2026-04-26T13:49:10.486Z</time></trkpt><trkpt lat="40.6042" lon="16.6429033"><ele>140.0</ele><time>2026-04-26T13:49:11.485Z</time></trkpt><trkpt lat="40.60409" lon="16.6429367"><ele>140.0</ele><time>2026-04-26T13:49:12.483Z</time></trkpt><trkpt lat="40.6039567" lon="16.64296"><ele>140.0</ele><time>2026-04-26T13:49:13.485Z</time></trkpt><trkpt lat="40.6038117" lon="16.6429633"><ele>140.0</ele><time>2026-04-26T13:49:14.491Z</time></trkpt><trkpt lat="40.603665" lon="16.642955"><ele>140.0</ele><time>2026-04-26T13:49:15.485Z</time></trkpt><trkpt lat="40.6035217" lon="16.642945"><ele>139.75</ele><time>2026-04-26T13:49:16.485Z</time></trkpt><trkpt lat="40.603385" lon="16.6429583"><ele>139.5</ele><time>2026-04-26T13:49:17.485Z</time></trkpt><trkpt lat="40.6032533" lon="16.6430183"><ele>139.25</ele><time>2026-04-26T13:49:18.485Z</time></trkpt><trkpt lat="40.6031317" lon="16.6431267"><ele>139.0</ele><time>2026-04-26T13:49:19.485Z</time></trkpt><trkpt lat="40.6030233" lon="16.6432733"><ele>139.0</ele><time>2026-04-26T13:49:20.485Z</time></trkpt><trkpt lat="40.60292" lon="16.6434517"><ele>139.0</ele><time>2026-04-26T13:49:21.485Z</time></trkpt><trkpt lat="40.6028133" lon="16.6436417"><ele>139.0</ele><time>2026-04-26T13:49:22.485Z</time></trkpt><trkpt lat="40.6027067" lon="16.6438267"><ele>140.0</ele><time>2026-04-26T13:49:23.485Z</time></trkpt><trkpt lat="40.6026017" lon="16.6440033"><ele>141.0</ele><time>2026-04-26T13:49:24.485Z</time></trkpt><trkpt lat="40.6024983" lon="16.6441717"><ele>142.0</ele><time>2026-04-26T13:49:25.487Z</time></trkpt><trkpt lat="40.6023967" lon="16.6443383"><ele>142.66666666666669</ele><time>2026-04-26T13:49:26.485Z</time></trkpt><trkpt lat="40.602295" lon="16.6445"><ele>143.33333333333334</ele><time>2026-04-26T13:49:27.486Z</time></trkpt><trkpt lat="40.6021983" lon="16.6446583"><ele>144.0</ele><time>2026-04-26T13:49:28.485Z</time></trkpt><trkpt lat="40.6021017" lon="16.644815"><ele>144.0</ele><time>2026-04-26T13:49:29.485Z</time></trkpt><trkpt lat="40.6020083" lon="16.64497"><ele>144.0</ele><time>2026-04-26T13:49:30.485Z</time></trkpt><trkpt lat="40.6019117" lon="16.6451217"><ele>144.0</ele><time>2026-04-26T13:49:31.487Z</time></trkpt><trkpt lat="40.6018183" lon="16.6452683"><ele>144.0</ele><time>2026-04-26T13:49:32.485Z</time></trkpt><trkpt lat="40.6017117" lon="16.645405"><ele>144.33333333333334</ele><time>2026-04-26T13:49:33.485Z</time></trkpt><trkpt lat="40.6015817" lon="16.6455133"><ele>144.66666666666669</ele><time>2026-04-26T13:49:34.486Z</time></trkpt><trkpt lat="40.6014333" lon="16.64559"><ele>145.0</ele><time>2026-04-26T13:49:35.485Z</time></trkpt><trkpt lat="40.6012733" lon="16.6456533"><ele>145.66666666666669</ele><time>2026-04-26T13:49:36.487Z</time></trkpt><trkpt lat="40.60111" lon="16.6457167"><ele>146.33333333333334</ele><time>2026-04-26T13:49:37.485Z</time></trkpt><trkpt lat="40.6009467" lon="16.6457783"><ele>147.0</ele><time>2026-04-26T13:49:38.486Z</time></trkpt><trkpt lat="40.6007867" lon="16.6458383"><ele>147.0</ele><time>2026-04-26T13:49:39.485Z</time></trkpt><trkpt lat="40.6006283" lon="16.6458983"><ele>147.0</ele><time>2026-04-26T13:49:40.486Z</time></trkpt><trkpt lat="40.60047" lon="16.6459583"><ele>147.0</ele><time>2026-04-26T13:49:41.485Z</time></trkpt><trkpt lat="40.600315" lon="16.646015"><ele>147.33333333333334</ele><time>2026-04-26T13:49:42.485Z</time></trkpt><trkpt lat="40.60016" lon="16.6460733"><ele>147.66666666666669</ele><time>2026-04-26T13:49:43.485Z</time></trkpt><trkpt lat="40.6000033" lon="16.646135"><ele>148.0</ele><time>2026-04-26T13:49:44.485Z</time></trkpt><trkpt lat="40.5998483" lon="16.6461967"><ele>148.0</ele><time>2026-04-26T13:49:45.488Z</time></trkpt><trkpt lat="40.599695" lon="16.6462617"><ele>148.0</ele><time>2026-04-26T13:49:46.485Z</time></trkpt><trkpt lat="40.59954" lon="16.6463317"><ele>148.0</ele><time>2026-04-26T13:49:47.486Z</time></trkpt><trkpt lat="40.599385" lon="16.6464033"><ele>146.66666666666669</ele><time>2026-04-26T13:49:48.485Z</time></trkpt><trkpt lat="40.5992283" lon="16.6464817"><ele>145.33333333333334</ele><time>2026-04-26T13:49:49.485Z</time></trkpt><trkpt lat="40.5990717" lon="16.6465683"><ele>144.0</ele><time>2026-04-26T13:49:50.485Z</time></trkpt><trkpt lat="40.5989167" lon="16.6466683"><ele>144.0</ele><time>2026-04-26T13:49:51.486Z</time></trkpt><trkpt lat="40.59877" lon="16.6467883"><ele>144.0</ele><time>2026-04-26T13:49:52.486Z</time></trkpt><trkpt lat="40.5986267" lon="16.64693"><ele>144.0</ele><time>2026-04-26T13:49:53.486Z</time></trkpt><trkpt lat="40.5984883" lon="16.6470783"><ele>143.0</ele><time>2026-04-26T13:49:54.485Z</time></trkpt><trkpt lat="40.5983533" lon="16.64723"><ele>142.0</ele><time>2026-04-26T13:49:55.486Z</time></trkpt><trkpt lat="40.5982183" lon="16.6473817"><ele>141.0</ele><time>2026-04-26T13:49:56.485Z</time></trkpt><trkpt lat="40.59809" lon="16.6475333"><ele>141.0</ele><time>2026-04-26T13:49:57.485Z</time></trkpt><trkpt lat="40.5979667" lon="16.647675"><ele>141.0</ele><time>2026-04-26T13:49:58.485Z</time></trkpt><trkpt lat="40.597835" lon="16.6477967"><ele>141.0</ele><time>2026-04-26T13:49:59.486Z</time></trkpt><trkpt lat="40.5976917" lon="16.6478983"><ele>141.0</ele><time>2026-04-26T13:50:00.485Z</time></trkpt><trkpt lat="40.5975383" lon="16.6479817"><ele>141.0</ele><time>2026-04-26T13:50:01.487Z</time></trkpt><trkpt lat="40.59738" lon="16.6480533"><ele>141.0</ele><time>2026-04-26T13:50:02.485Z</time></trkpt><trkpt lat="40.59722" lon="16.6481167"><ele>141.0</ele><time>2026-04-26T13:50:03.485Z</time></trkpt><trkpt lat="40.5970617" lon="16.6481817"><ele>141.0</ele><time>2026-04-26T13:50:04.485Z</time></trkpt><trkpt lat="40.5969067" lon="16.648245"><ele>141.0</ele><time>2026-04-26T13:50:05.486Z</time></trkpt><trkpt lat="40.59675" lon="16.6483083"><ele>141.66666666666666</ele><time>2026-04-26T13:50:06.485Z</time></trkpt><trkpt lat="40.5965967" lon="16.6483683"><ele>142.33333333333331</ele><time>2026-04-26T13:50:07.486Z</time></trkpt><trkpt lat="40.596445" lon="16.6484283"><ele>143.0</ele><time>2026-04-26T13:50:08.486Z</time></trkpt><trkpt lat="40.596295" lon="16.64849"><ele>143.33333333333331</ele><time>2026-04-26T13:50:09.485Z</time></trkpt><trkpt lat="40.5961483" lon="16.648555"><ele>143.66666666666666</ele><time>2026-04-26T13:50:10.485Z</time></trkpt><trkpt lat="40.5960017" lon="16.64863"><ele>144.0</ele><time>2026-04-26T13:50:11.485Z</time></trkpt><trkpt lat="40.5958667" lon="16.6487317"><ele>144.0</ele><time>2026-04-26T13:50:12.487Z</time></trkpt><trkpt lat="40.5957483" lon="16.64887"><ele>144.0</ele><time>2026-04-26T13:50:13.485Z</time></trkpt><trkpt lat="40.5956483" lon="16.6490483"><ele>144.0</ele><time>2026-04-26T13:50:14.486Z</time></trkpt><trkpt lat="40.5955733" lon="16.649255"><ele>143.66666666666666</ele><time>2026-04-26T13:50:15.486Z</time></trkpt><trkpt lat="40.5955233" lon="16.6494783"><ele>143.33333333333331</ele><time>2026-04-26T13:50:16.485Z</time></trkpt><trkpt lat="40.5954767" lon="16.6497067"><ele>143.0</ele><time>2026-04-26T13:50:17.484Z</time></trkpt><trkpt lat="40.5954317" lon="16.6499367"><ele>143.0</ele><time>2026-04-26T13:50:18.486Z</time></trkpt><trkpt lat="40.5953833" lon="16.6501633"><ele>143.0</ele><time>2026-04-26T13:50:19.485Z</time></trkpt><trkpt lat="40.5953367" lon="16.6503883"><ele>143.0</ele><time>2026-04-26T13:50:20.486Z</time></trkpt><trkpt lat="40.5952917" lon="16.6506117"><ele>144.33333333333331</ele><time>2026-04-26T13:50:21.485Z</time></trkpt><trkpt lat="40.5952483" lon="16.6508383"><ele>145.66666666666666</ele><time>2026-04-26T13:50:22.486Z</time></trkpt><trkpt lat="40.5952083" lon="16.6510617"><ele>147.0</ele><time>2026-04-26T13:50:23.486Z</time></trkpt><trkpt lat="40.595165" lon="16.651285"><ele>147.0</ele><time>2026-04-26T13:50:24.486Z</time></trkpt><trkpt lat="40.59512" lon="16.651505"><ele>147.0</ele><time>2026-04-26T13:50:25.486Z</time></trkpt><trkpt lat="40.595075" lon="16.6517233"><ele>147.0</ele><time>2026-04-26T13:50:26.486Z</time></trkpt><trkpt lat="40.5950267" lon="16.6519433"><ele>146.66666666666666</ele><time>2026-04-26T13:50:27.485Z</time></trkpt><trkpt lat="40.5949783" lon="16.6521633"><ele>146.33333333333331</ele><time>2026-04-26T13:50:28.486Z</time></trkpt><trkpt lat="40.5949367" lon="16.6523833"><ele>146.0</ele><time>2026-04-26T13:50:29.487Z</time></trkpt><trkpt lat="40.5948983" lon="16.6526033"><ele>145.66666666666666</ele><time>2026-04-26T13:50:30.485Z</time></trkpt><trkpt lat="40.5948567" lon="16.6528233"><ele>145.33333333333334</ele><time>2026-04-26T13:50:31.485Z</time></trkpt><trkpt lat="40.594815" lon="16.6530433"><ele>145.0</ele><time>2026-04-26T13:50:32.485Z</time></trkpt><trkpt lat="40.59477" lon="16.6532617"><ele>145.0</ele><time>2026-04-26T13:50:33.485Z</time></trkpt><trkpt lat="40.594725" lon="16.65348"><ele>145.0</ele><time>2026-04-26T13:50:34.485Z</time></trkpt><trkpt lat="40.59468" lon="16.6536967"><ele>145.0</ele><time>2026-04-26T13:50:35.485Z</time></trkpt><trkpt lat="40.5946317" lon="16.65391"><ele>144.66666666666669</ele><time>2026-04-26T13:50:36.485Z</time></trkpt><trkpt lat="40.59457" lon="16.6541183"><ele>144.33333333333334</ele><time>2026-04-26T13:50:37.485Z</time></trkpt><trkpt lat="40.59449" lon="16.6543217"><ele>144.0</ele><time>2026-04-26T13:50:38.486Z</time></trkpt><trkpt lat="40.5943933" lon="16.6545133"><ele>143.0</ele><time>2026-04-26T13:50:39.487Z</time></trkpt><trkpt lat="40.594285" lon="16.6546933"><ele>142.0</ele><time>2026-04-26T13:50:40.485Z</time></trkpt><trkpt lat="40.59417" lon="16.65487"><ele>141.0</ele><time>2026-04-26T13:50:41.485Z</time></trkpt><trkpt lat="40.5940567" lon="16.655045"><ele>141.0</ele><time>2026-04-26T13:50:42.484Z</time></trkpt><trkpt lat="40.5939417" lon="16.65522"><ele>141.0</ele><time>2026-04-26T13:50:43.486Z</time></trkpt><trkpt lat="40.5938283" lon="16.6553967"><ele>141.0</ele><time>2026-04-26T13:50:44.485Z</time></trkpt><trkpt lat="40.593715" lon="16.6555717"><ele>141.0</ele><time>2026-04-26T13:50:45.486Z</time></trkpt><trkpt lat="40.593605" lon="16.6557417"><ele>141.0</ele><time>2026-04-26T13:50:46.485Z</time></trkpt><trkpt lat="40.5934983" lon="16.6559033"><ele>141.0</ele><time>2026-04-26T13:50:47.485Z</time></trkpt><trkpt lat="40.5934017" lon="16.6560533"><ele>141.25</ele><time>2026-04-26T13:50:48.485Z</time></trkpt><trkpt lat="40.5933117" lon="16.6561967"><ele>141.5</ele><time>2026-04-26T13:50:49.485Z</time></trkpt><trkpt lat="40.5932283" lon="16.65632"><ele>141.75</ele><time>2026-04-26T13:50:50.486Z</time></trkpt><trkpt lat="40.5931517" lon="16.6564083"><ele>142.0</ele><time>2026-04-26T13:50:51.485Z</time></trkpt><trkpt lat="40.5930883" lon="16.656475"><ele>142.0</ele><time>2026-04-26T13:50:52.485Z</time></trkpt><trkpt lat="40.5930476" lon="16.6565392"><ele>142.0</ele><time>2026-04-26T13:50:53.485Z</time></trkpt><trkpt lat="40.5930511" lon="16.6566727"><ele>142.0</ele><time>2026-04-26T13:50:55.485Z</time></trkpt><trkpt lat="40.5930827" lon="16.656819"><ele>142.0</ele><time>2026-04-26T13:50:57.485Z</time></trkpt><trkpt lat="40.593071" lon="16.6569034"><ele>142.0</ele><time>2026-04-26T13:50:58.485Z</time></trkpt><trkpt lat="40.5930318" lon="16.6569923"><ele>142.0</ele><time>2026-04-26T13:50:59.485Z</time></trkpt><trkpt lat="40.5929705" lon="16.6570781"><ele>142.25</ele><time>2026-04-26T13:51:00.485Z</time></trkpt><trkpt lat="40.5928819" lon="16.6571688"><ele>142.5</ele><time>2026-04-26T13:51:01.487Z</time></trkpt><trkpt lat="40.5927834" lon="16.6572674"><ele>142.75</ele><time>2026-04-26T13:51:02.485Z</time></trkpt><trkpt lat="40.592688" lon="16.6573693"><ele>143.0</ele><time>2026-04-26T13:51:03.485Z</time></trkpt><trkpt lat="40.5925998" lon="16.6574732"><ele>142.5</ele><time>2026-04-26T13:51:04.485Z</time></trkpt><trkpt lat="40.5925137" lon="16.6575712"><ele>142.0</ele><time>2026-04-26T13:51:05.485Z</time></trkpt><trkpt lat="40.5924288" lon="16.6576658"><ele>141.5</ele><time>2026-04-26T13:51:06.485Z</time></trkpt><trkpt lat="40.5923452" lon="16.657763"><ele>141.0</ele><time>2026-04-26T13:51:07.485Z</time></trkpt><trkpt lat="40.5922611" lon="16.657863"><ele>141.0</ele><time>2026-04-26T13:51:08.485Z</time></trkpt><trkpt lat="40.5921775" lon="16.6579645"><ele>141.0</ele><time>2026-04-26T13:51:09.485Z</time></trkpt><trkpt lat="40.5920949" lon="16.6580653"><ele>141.0</ele><time>2026-04-26T13:51:10.485Z</time></trkpt><trkpt lat="40.5920144" lon="16.6581631"><ele>141.0</ele><time>2026-04-26T13:51:11.486Z</time></trkpt><trkpt lat="40.5919375" lon="16.6582596"><ele>141.0</ele><time>2026-04-26T13:51:12.486Z</time></trkpt><trkpt lat="40.5918595" lon="16.6583521"><ele>140.8</ele><time>2026-04-26T13:51:13.489Z</time></trkpt><trkpt lat="40.5917819" lon="16.6584426"><ele>140.6</ele><time>2026-04-26T13:51:14.486Z</time></trkpt><trkpt lat="40.5917037" lon="16.6585369"><ele>140.4</ele><time>2026-04-26T13:51:15.485Z</time></trkpt><trkpt lat="40.5916291" lon="16.6586363"><ele>140.2</ele><time>2026-04-26T13:51:16.485Z</time></trkpt><trkpt lat="40.5915577" lon="16.658743"><ele>140.0</ele><time>2026-04-26T13:51:17.485Z</time></trkpt><trkpt lat="40.5914841" lon="16.6588523"><ele>140.0</ele><time>2026-04-26T13:51:18.486Z</time></trkpt><trkpt lat="40.5914049" lon="16.6589562"><ele>140.0</ele><time>2026-04-26T13:51:19.485Z</time></trkpt><trkpt lat="40.5913202" lon="16.6590589"><ele>140.0</ele><time>2026-04-26T13:51:20.486Z</time></trkpt><trkpt lat="40.591236" lon="16.6591598"><ele>140.0</ele><time>2026-04-26T13:51:21.485Z</time></trkpt><trkpt lat="40.5911535" lon="16.6592593"><ele>138.8</ele><time>2026-04-26T13:51:22.485Z</time></trkpt><trkpt lat="40.5910721" lon="16.6593616"><ele>137.6</ele><time>2026-04-26T13:51:23.487Z</time></trkpt><trkpt lat="40.5909878" lon="16.6594629"><ele>136.4</ele><time>2026-04-26T13:51:24.485Z</time></trkpt><trkpt lat="40.5909054" lon="16.6595597"><ele>135.2</ele><time>2026-04-26T13:51:25.485Z</time></trkpt><trkpt lat="40.590821" lon="16.6596558"><ele>134.0</ele><time>2026-04-26T13:51:26.486Z</time></trkpt><trkpt lat="40.5907376" lon="16.659752"><ele>134.0</ele><time>2026-04-26T13:51:27.486Z</time></trkpt><trkpt lat="40.590657" lon="16.6598501"><ele>134.0</ele><time>2026-04-26T13:51:28.485Z</time></trkpt><trkpt lat="40.5905818" lon="16.6599484"><ele>134.0</ele><time>2026-04-26T13:51:29.485Z</time></trkpt><trkpt lat="40.5905044" lon="16.6600475"><ele>134.0</ele><time>2026-04-26T13:51:30.485Z</time></trkpt><trkpt lat="40.5904218" lon="16.6601456"><ele>134.0</ele><time>2026-04-26T13:51:31.486Z</time></trkpt><trkpt lat="40.5903318" lon="16.6602463"><ele>132.75</ele><time>2026-04-26T13:51:32.486Z</time></trkpt><trkpt lat="40.5902433" lon="16.6603503"><ele>131.5</ele><time>2026-04-26T13:51:33.485Z</time></trkpt><trkpt lat="40.5901581" lon="16.6604543"><ele>130.25</ele><time>2026-04-26T13:51:34.486Z</time></trkpt><trkpt lat="40.5900762" lon="16.6605599"><ele>129.0</ele><time>2026-04-26T13:51:35.485Z</time></trkpt><trkpt lat="40.5899935" lon="16.6606659"><ele>129.0</ele><time>2026-04-26T13:51:36.486Z</time></trkpt><trkpt lat="40.5899116" lon="16.6607736"><ele>129.0</ele><time>2026-04-26T13:51:37.485Z</time></trkpt><trkpt lat="40.5898317" lon="16.6608831"><ele>129.0</ele><time>2026-04-26T13:51:38.486Z</time></trkpt><trkpt lat="40.5897548" lon="16.6609933"><ele>129.0</ele><time>2026-04-26T13:51:39.485Z</time></trkpt><trkpt lat="40.589684" lon="16.6611094"><ele>129.8</ele><time>2026-04-26T13:51:40.486Z</time></trkpt><trkpt lat="40.5896192" lon="16.6612297"><ele>130.60000000000002</ele><time>2026-04-26T13:51:41.485Z</time></trkpt><trkpt lat="40.5895591" lon="16.6613526"><ele>131.4</ele><time>2026-04-26T13:51:42.485Z</time></trkpt><trkpt lat="40.5894994" lon="16.6614757"><ele>132.20000000000002</ele><time>2026-04-26T13:51:43.485Z</time></trkpt><trkpt lat="40.5894407" lon="16.6616039"><ele>133.0</ele><time>2026-04-26T13:51:44.575Z</time></trkpt><trkpt lat="40.5893822" lon="16.6617215"><ele>131.0</ele><time>2026-04-26T13:51:45.485Z</time></trkpt><trkpt lat="40.5893162" lon="16.6618476"><ele>129.0</ele><time>2026-04-26T13:51:46.486Z</time></trkpt><trkpt lat="40.5892492" lon="16.6619737"><ele>127.0</ele><time>2026-04-26T13:51:47.485Z</time></trkpt><trkpt lat="40.5891863" lon="16.6620986"><ele>125.0</ele><time>2026-04-26T13:51:48.487Z</time></trkpt><trkpt lat="40.589128" lon="16.6622233"><ele>125.0</ele><time>2026-04-26T13:51:49.485Z</time></trkpt><trkpt lat="40.5890716" lon="16.6623505"><ele>125.0</ele><time>2026-04-26T13:51:50.488Z</time></trkpt><trkpt lat="40.5890157" lon="16.6624785"><ele>125.0</ele><time>2026-04-26T13:51:51.485Z</time></trkpt><trkpt lat="40.5889585" lon="16.6626058"><ele>125.0</ele><time>2026-04-26T13:51:52.486Z</time></trkpt><trkpt lat="40.588899" lon="16.6627285"><ele>125.0</ele><time>2026-04-26T13:51:53.486Z</time></trkpt><trkpt lat="40.5888349" lon="16.6628469"><ele>125.6</ele><time>2026-04-26T13:51:54.486Z</time></trkpt><trkpt lat="40.5887665" lon="16.662957"><ele>126.2</ele><time>2026-04-26T13:51:55.485Z</time></trkpt><trkpt lat="40.5886934" lon="16.6630621"><ele>126.80000000000001</ele><time>2026-04-26T13:51:56.485Z</time></trkpt><trkpt lat="40.5886201" lon="16.6631652"><ele>127.4</ele><time>2026-04-26T13:51:57.486Z</time></trkpt><trkpt lat="40.58855" lon="16.6632591"><ele>128.0</ele><time>2026-04-26T13:51:58.486Z</time></trkpt><trkpt lat="40.588479" lon="16.6633472"><ele>127.2</ele><time>2026-04-26T13:51:59.486Z</time></trkpt><trkpt lat="40.5883938" lon="16.6634297"><ele>126.4</ele><time>2026-04-26T13:52:00.485Z</time></trkpt><trkpt lat="40.5882962" lon="16.6635024"><ele>125.60000000000001</ele><time>2026-04-26T13:52:01.487Z</time></trkpt><trkpt lat="40.5881982" lon="16.6635669"><ele>124.80000000000001</ele><time>2026-04-26T13:52:02.486Z</time></trkpt><trkpt lat="40.5880967" lon="16.663618"><ele>124.0</ele><time>2026-04-26T13:52:03.486Z</time></trkpt><trkpt lat="40.5879913" lon="16.6636539"><ele>124.0</ele><time>2026-04-26T13:52:04.484Z</time></trkpt><trkpt lat="40.5878828" lon="16.6636769"><ele>124.0</ele><time>2026-04-26T13:52:05.486Z</time></trkpt><trkpt lat="40.5877729" lon="16.66369"><ele>124.0</ele><time>2026-04-26T13:52:06.486Z</time></trkpt><trkpt lat="40.5876608" lon="16.6637015"><ele>124.0</ele><time>2026-04-26T13:52:07.487Z</time></trkpt><trkpt lat="40.5875457" lon="16.6637038"><ele>124.0</ele><time>2026-04-26T13:52:08.486Z</time></trkpt><trkpt lat="40.5874304" lon="16.6636999"><ele>123.2</ele><time>2026-04-26T13:52:09.484Z</time></trkpt><trkpt lat="40.5873166" lon="16.6636922"><ele>122.4</ele><time>2026-04-26T13:52:10.485Z</time></trkpt><trkpt lat="40.5872046" lon="16.6636833"><ele>121.6</ele><time>2026-04-26T13:52:11.486Z</time></trkpt><trkpt lat="40.5870987" lon="16.6636786"><ele>120.8</ele><time>2026-04-26T13:52:12.486Z</time></trkpt><trkpt lat="40.5869986" lon="16.6636796"><ele>120.0</ele><time>2026-04-26T13:52:13.486Z</time></trkpt><trkpt lat="40.5869021" lon="16.6636887"><ele>119.16666666666667</ele><time>2026-04-26T13:52:14.485Z</time></trkpt><trkpt lat="40.5868093" lon="16.6637069"><ele>118.33333333333334</ele><time>2026-04-26T13:52:15.485Z</time></trkpt><trkpt lat="40.5867235" lon="16.6637305"><ele>117.5</ele><time>2026-04-26T13:52:16.485Z</time></trkpt><trkpt lat="40.586646" lon="16.6637543"><ele>116.66666666666667</ele><time>2026-04-26T13:52:17.485Z</time></trkpt><trkpt lat="40.5865832" lon="16.6637807"><ele>115.83333333333334</ele><time>2026-04-26T13:52:18.486Z</time></trkpt><trkpt lat="40.5865013" lon="16.6638112"><ele>115.0</ele><time>2026-04-26T13:52:20.486Z</time></trkpt><trkpt lat="40.586455" lon="16.6637467"><ele>115.0</ele><time>2026-04-26T13:52:23.485Z</time></trkpt><trkpt lat="40.5864433" lon="16.6636583"><ele>115.0</ele><time>2026-04-26T13:52:26.486Z</time></trkpt><trkpt lat="40.5863667" lon="16.66361"><ele>115.0</ele><time>2026-04-26T13:52:29.485Z</time></trkpt><trkpt lat="40.5862283" lon="16.6636733"><ele>115.0</ele><time>2026-04-26T13:52:31.485Z</time></trkpt><trkpt lat="40.5861333" lon="16.6637383"><ele>115.0</ele><time>2026-04-26T13:52:32.487Z</time></trkpt><trkpt lat="40.58602" lon="16.6638067"><ele>113.75</ele><time>2026-04-26T13:52:33.486Z</time></trkpt><trkpt lat="40.5858967" lon="16.6638783"><ele>112.5</ele><time>2026-04-26T13:52:34.486Z</time></trkpt><trkpt lat="40.5857667" lon="16.6639567"><ele>111.25</ele><time>2026-04-26T13:52:35.485Z</time></trkpt><trkpt lat="40.5856267" lon="16.6640383"><ele>110.0</ele><time>2026-04-26T13:52:36.485Z</time></trkpt><trkpt lat="40.5854783" lon="16.6641167"><ele>110.33333333333333</ele><time>2026-04-26T13:52:37.486Z</time></trkpt><trkpt lat="40.585325" lon="16.6641967"><ele>110.66666666666666</ele><time>2026-04-26T13:52:38.486Z</time></trkpt><trkpt lat="40.5851667" lon="16.664275"><ele>111.0</ele><time>2026-04-26T13:52:39.485Z</time></trkpt><trkpt lat="40.5850067" lon="16.664355"><ele>111.0</ele><time>2026-04-26T13:52:40.485Z</time></trkpt><trkpt lat="40.5848467" lon="16.6644333"><ele>111.0</ele><time>2026-04-26T13:52:41.49Z</time></trkpt><trkpt lat="40.584685" lon="16.6645067"><ele>111.0</ele><time>2026-04-26T13:52:42.486Z</time></trkpt><trkpt lat="40.5845267" lon="16.6645783"><ele>108.66666666666666</ele><time>2026-04-26T13:52:43.486Z</time></trkpt><trkpt lat="40.5843717" lon="16.6646467"><ele>106.33333333333333</ele><time>2026-04-26T13:52:44.487Z</time></trkpt><trkpt lat="40.5842183" lon="16.6647083"><ele>104.0</ele><time>2026-04-26T13:52:45.485Z</time></trkpt><trkpt lat="40.584065" lon="16.6647567"><ele>104.0</ele><time>2026-04-26T13:52:46.485Z</time></trkpt><trkpt lat="40.5839067" lon="16.6647967"><ele>104.0</ele><time>2026-04-26T13:52:47.487Z</time></trkpt><trkpt lat="40.583745" lon="16.664835"><ele>104.0</ele><time>2026-04-26T13:52:48.485Z</time></trkpt><trkpt lat="40.583585" lon="16.6648717"><ele>103.33333333333333</ele><time>2026-04-26T13:52:49.487Z</time></trkpt><trkpt lat="40.583425" lon="16.6649083"><ele>102.66666666666666</ele><time>2026-04-26T13:52:50.486Z</time></trkpt><trkpt lat="40.5832617" lon="16.6649433"><ele>102.0</ele><time>2026-04-26T13:52:51.487Z</time></trkpt><trkpt lat="40.583095" lon="16.6649783"><ele>102.0</ele><time>2026-04-26T13:52:52.485Z</time></trkpt><trkpt lat="40.5829283" lon="16.6650167"><ele>102.0</ele><time>2026-04-26T13:52:53.486Z</time></trkpt><trkpt lat="40.58276" lon="16.6650583"><ele>102.0</ele><time>2026-04-26T13:52:54.486Z</time></trkpt><trkpt lat="40.582595" lon="16.6651067"><ele>102.33333333333334</ele><time>2026-04-26T13:52:55.486Z</time></trkpt><trkpt lat="40.582435" lon="16.6651733"><ele>102.66666666666667</ele><time>2026-04-26T13:52:56.486Z</time></trkpt><trkpt lat="40.5822817" lon="16.6652517"><ele>103.0</ele><time>2026-04-26T13:52:57.485Z</time></trkpt><trkpt lat="40.5821333" lon="16.66533"><ele>100.33333333333334</ele><time>2026-04-26T13:52:58.488Z</time></trkpt><trkpt lat="40.5819867" lon="16.6654033"><ele>97.66666666666667</ele><time>2026-04-26T13:52:59.485Z</time></trkpt><trkpt lat="40.581845" lon="16.6654733"><ele>95.0</ele><time>2026-04-26T13:53:00.487Z</time></trkpt><trkpt lat="40.581705" lon="16.6655433"><ele>95.0</ele><time>2026-04-26T13:53:01.485Z</time></trkpt><trkpt lat="40.58156" lon="16.665595"><ele>95.0</ele><time>2026-04-26T13:53:02.486Z</time></trkpt><trkpt lat="40.5814067" lon="16.6656117"><ele>95.0</ele><time>2026-04-26T13:53:03.485Z</time></trkpt><trkpt lat="40.5812483" lon="16.66559"><ele>95.0</ele><time>2026-04-26T13:53:04.486Z</time></trkpt><trkpt lat="40.58109" lon="16.665545"><ele>95.0</ele><time>2026-04-26T13:53:05.485Z</time></trkpt><trkpt lat="40.58093" lon="16.6654883"><ele>95.0</ele><time>2026-04-26T13:53:06.486Z</time></trkpt><trkpt lat="40.5807717" lon="16.6654217"><ele>95.0</ele><time>2026-04-26T13:53:07.485Z</time></trkpt><trkpt lat="40.580615" lon="16.6653483"><ele>95.0</ele><time>2026-04-26T13:53:08.486Z</time></trkpt><trkpt lat="40.5804617" lon="16.6652667"><ele>95.0</ele><time>2026-04-26T13:53:09.485Z</time></trkpt><trkpt lat="40.5803117" lon="16.66517"><ele>96.0</ele><time>2026-04-26T13:53:10.486Z</time></trkpt><trkpt lat="40.5801717" lon="16.6650583"><ele>97.0</ele><time>2026-04-26T13:53:11.491Z</time></trkpt><trkpt lat="40.58004" lon="16.66494"><ele>98.0</ele><time>2026-04-26T13:53:12.486Z</time></trkpt><trkpt lat="40.5799117" lon="16.6648117"><ele>98.0</ele><time>2026-04-26T13:53:13.486Z</time></trkpt><trkpt lat="40.5797883" lon="16.66468"><ele>98.0</ele><time>2026-04-26T13:53:14.487Z</time></trkpt><trkpt lat="40.5796733" lon="16.6645367"><ele>98.0</ele><time>2026-04-26T13:53:15.485Z</time></trkpt><trkpt lat="40.5795717" lon="16.6643817"><ele>96.33333333333333</ele><time>2026-04-26T13:53:16.486Z</time></trkpt><trkpt lat="40.57949" lon="16.6642133"><ele>94.66666666666666</ele><time>2026-04-26T13:53:17.486Z</time></trkpt><trkpt lat="40.57941" lon="16.6640433"><ele>93.0</ele><time>2026-04-26T13:53:18.486Z</time></trkpt><trkpt lat="40.5793167" lon="16.6638883"><ele>93.0</ele><time>2026-04-26T13:53:19.486Z</time></trkpt><trkpt lat="40.5792" lon="16.6637583"><ele>93.0</ele><time>2026-04-26T13:53:20.485Z</time></trkpt><trkpt lat="40.579055" lon="16.6636633"><ele>93.0</ele><time>2026-04-26T13:53:21.486Z</time></trkpt><trkpt lat="40.5788917" lon="16.6636033"><ele>93.66666666666667</ele><time>2026-04-26T13:53:22.485Z</time></trkpt><trkpt lat="40.5787133" lon="16.6635867"><ele>94.33333333333334</ele><time>2026-04-26T13:53:23.485Z</time></trkpt><trkpt lat="40.5785267" lon="16.6635917"><ele>95.0</ele><time>2026-04-26T13:53:24.484Z</time></trkpt><trkpt lat="40.5783367" lon="16.6636017"><ele>94.0</ele><time>2026-04-26T13:53:25.485Z</time></trkpt><trkpt lat="40.5781483" lon="16.6636117"><ele>93.0</ele><time>2026-04-26T13:53:26.486Z</time></trkpt><trkpt lat="40.5779617" lon="16.6636217"><ele>92.0</ele><time>2026-04-26T13:53:27.486Z</time></trkpt><trkpt lat="40.5777783" lon="16.6636267"><ele>92.0</ele><time>2026-04-26T13:53:28.485Z</time></trkpt><trkpt lat="40.5776117" lon="16.6636133"><ele>92.0</ele><time>2026-04-26T13:53:29.485Z</time></trkpt><trkpt lat="40.5774783" lon="16.663605"><ele>92.0</ele><time>2026-04-26T13:53:30.485Z</time></trkpt><trkpt lat="40.5773767" lon="16.6636083"><ele>92.0</ele><time>2026-04-26T13:53:31.486Z</time></trkpt><trkpt lat="40.5772917" lon="16.6636433"><ele>92.0</ele><time>2026-04-26T13:53:32.486Z</time></trkpt><trkpt lat="40.5772217" lon="16.66371"><ele>92.0</ele><time>2026-04-26T13:53:33.485Z</time></trkpt><trkpt lat="40.5771567" lon="16.663805"><ele>92.0</ele><time>2026-04-26T13:53:34.485Z</time></trkpt><trkpt lat="40.5771367" lon="16.6639333"><ele>92.0</ele><time>2026-04-26T13:53:35.487Z</time></trkpt><trkpt lat="40.577145" lon="16.6640817"><ele>92.0</ele><time>2026-04-26T13:53:36.492Z</time></trkpt><trkpt lat="40.5771967" lon="16.664215"><ele>92.0</ele><time>2026-04-26T13:53:37.484Z</time></trkpt><trkpt lat="40.577275" lon="16.6643317"><ele>92.0</ele><time>2026-04-26T13:53:38.486Z</time></trkpt><trkpt lat="40.5773783" lon="16.6644283"><ele>92.0</ele><time>2026-04-26T13:53:39.485Z</time></trkpt><trkpt lat="40.5775017" lon="16.6645067"><ele>92.0</ele><time>2026-04-26T13:53:40.485Z</time></trkpt><trkpt lat="40.5776283" lon="16.6645733"><ele>93.25</ele><time>2026-04-26T13:53:41.485Z</time></trkpt><trkpt lat="40.5777417" lon="16.6646517"><ele>94.5</ele><time>2026-04-26T13:53:42.485Z</time></trkpt><trkpt lat="40.577845" lon="16.6647567"><ele>95.75</ele><time>2026-04-26T13:53:43.485Z</time></trkpt><trkpt lat="40.577935" lon="16.6648883"><ele>97.0</ele><time>2026-04-26T13:53:44.486Z</time></trkpt><trkpt lat="40.5780017" lon="16.6650467"><ele>94.5</ele><time>2026-04-26T13:53:45.485Z</time></trkpt><trkpt lat="40.5780367" lon="16.6652267"><ele>92.0</ele><time>2026-04-26T13:53:46.485Z</time></trkpt><trkpt lat="40.57804" lon="16.66542"><ele>89.5</ele><time>2026-04-26T13:53:47.485Z</time></trkpt><trkpt lat="40.578025" lon="16.6656167"><ele>87.0</ele><time>2026-04-26T13:53:48.484Z</time></trkpt><trkpt lat="40.5779933" lon="16.6658167"><ele>86.33333333333333</ele><time>2026-04-26T13:53:49.485Z</time></trkpt><trkpt lat="40.5779517" lon="16.6660117"><ele>85.66666666666666</ele><time>2026-04-26T13:53:50.485Z</time></trkpt><trkpt lat="40.5779117" lon="16.6662117"><ele>85.0</ele><time>2026-04-26T13:53:51.485Z</time></trkpt><trkpt lat="40.5778767" lon="16.6664133"><ele>86.66666666666666</ele><time>2026-04-26T13:53:52.485Z</time></trkpt><trkpt lat="40.57784" lon="16.6666117"><ele>88.33333333333333</ele><time>2026-04-26T13:53:53.485Z</time></trkpt><trkpt lat="40.5778017" lon="16.666805"><ele>90.0</ele><time>2026-04-26T13:53:54.485Z</time></trkpt><trkpt lat="40.5777617" lon="16.6669983"><ele>90.0</ele><time>2026-04-26T13:53:55.485Z</time></trkpt><trkpt lat="40.5777133" lon="16.66719"><ele>90.0</ele><time>2026-04-26T13:53:56.487Z</time></trkpt><trkpt lat="40.5776517" lon="16.6673767"><ele>90.0</ele><time>2026-04-26T13:53:57.485Z</time></trkpt><trkpt lat="40.57758" lon="16.6675583"><ele>90.0</ele><time>2026-04-26T13:53:58.485Z</time></trkpt><trkpt lat="40.5775033" lon="16.667735"><ele>90.0</ele><time>2026-04-26T13:53:59.485Z</time></trkpt><trkpt lat="40.5774233" lon="16.66791"><ele>90.0</ele><time>2026-04-26T13:54:00.489Z</time></trkpt><trkpt lat="40.5773383" lon="16.66808"><ele>88.66666666666667</ele><time>2026-04-26T13:54:01.485Z</time></trkpt><trkpt lat="40.577245" lon="16.668245"><ele>87.33333333333334</ele><time>2026-04-26T13:54:02.485Z</time></trkpt><trkpt lat="40.5771417" lon="16.6684067"><ele>86.0</ele><time>2026-04-26T13:54:03.485Z</time></trkpt><trkpt lat="40.577035" lon="16.668565"><ele>86.33333333333334</ele><time>2026-04-26T13:54:04.485Z</time></trkpt><trkpt lat="40.57693" lon="16.6687283"><ele>86.66666666666667</ele><time>2026-04-26T13:54:05.485Z</time></trkpt><trkpt lat="40.5768233" lon="16.6688933"><ele>87.0</ele><time>2026-04-26T13:54:06.486Z</time></trkpt><trkpt lat="40.57672" lon="16.66906"><ele>87.0</ele><time>2026-04-26T13:54:07.486Z</time></trkpt><trkpt lat="40.5766167" lon="16.6692233"><ele>87.0</ele><time>2026-04-26T13:54:08.486Z</time></trkpt><trkpt lat="40.576515" lon="16.6693883"><ele>87.0</ele><time>2026-04-26T13:54:09.485Z</time></trkpt><trkpt lat="40.5764133" lon="16.6695533"><ele>86.66666666666667</ele><time>2026-04-26T13:54:10.485Z</time></trkpt><trkpt lat="40.5763083" lon="16.6697133"><ele>86.33333333333334</ele><time>2026-04-26T13:54:11.486Z</time></trkpt><trkpt lat="40.5762017" lon="16.66987"><ele>86.0</ele><time>2026-04-26T13:54:12.485Z</time></trkpt><trkpt lat="40.576095" lon="16.6700267"><ele>86.0</ele><time>2026-04-26T13:54:13.485Z</time></trkpt><trkpt lat="40.5759915" lon="16.6701838"><ele>86.0</ele><time>2026-04-26T13:54:14.486Z</time></trkpt><trkpt lat="40.5758952" lon="16.670346"><ele>86.0</ele><time>2026-04-26T13:54:15.485Z</time></trkpt><trkpt lat="40.5758137" lon="16.6705194"><ele>85.66666666666667</ele><time>2026-04-26T13:54:16.485Z</time></trkpt><trkpt lat="40.5757584" lon="16.6707077"><ele>85.33333333333333</ele><time>2026-04-26T13:54:17.485Z</time></trkpt><trkpt lat="40.5757255" lon="16.6709092"><ele>85.0</ele><time>2026-04-26T13:54:18.489Z</time></trkpt><trkpt lat="40.5757186" lon="16.6711165"><ele>86.33333333333333</ele><time>2026-04-26T13:54:19.485Z</time></trkpt><trkpt lat="40.5757479" lon="16.671328"><ele>87.66666666666667</ele><time>2026-04-26T13:54:20.486Z</time></trkpt><trkpt lat="40.5758048" lon="16.6715304"><ele>89.0</ele><time>2026-04-26T13:54:21.485Z</time></trkpt><trkpt lat="40.5758821" lon="16.6717205"><ele>89.0</ele><time>2026-04-26T13:54:22.486Z</time></trkpt><trkpt lat="40.575975" lon="16.6718976"><ele>89.0</ele><time>2026-04-26T13:54:23.485Z</time></trkpt><trkpt lat="40.5760691" lon="16.672063"><ele>89.0</ele><time>2026-04-26T13:54:24.486Z</time></trkpt><trkpt lat="40.5761522" lon="16.6722245"><ele>88.75</ele><time>2026-04-26T13:54:25.486Z</time></trkpt><trkpt lat="40.5762168" lon="16.6723934"><ele>88.5</ele><time>2026-04-26T13:54:26.486Z</time></trkpt><trkpt lat="40.5762588" lon="16.6725756"><ele>88.25</ele><time>2026-04-26T13:54:27.485Z</time></trkpt><trkpt lat="40.576271" lon="16.6727666"><ele>88.0</ele><time>2026-04-26T13:54:28.485Z</time></trkpt><trkpt lat="40.576249" lon="16.6729592"><ele>88.0</ele><time>2026-04-26T13:54:29.485Z</time></trkpt><trkpt lat="40.5761967" lon="16.6731464"><ele>88.0</ele><time>2026-04-26T13:54:30.484Z</time></trkpt><trkpt lat="40.576127" lon="16.6733304"><ele>88.0</ele><time>2026-04-26T13:54:31.486Z</time></trkpt><trkpt lat="40.5760496" lon="16.6735136"><ele>88.66666666666666</ele><time>2026-04-26T13:54:32.486Z</time></trkpt><trkpt lat="40.5759702" lon="16.6736964"><ele>89.33333333333333</ele><time>2026-04-26T13:54:33.485Z</time></trkpt><trkpt lat="40.5758863" lon="16.6738781"><ele>90.0</ele><time>2026-04-26T13:54:34.485Z</time></trkpt><trkpt lat="40.575798" lon="16.6740592"><ele>90.0</ele><time>2026-04-26T13:54:35.487Z</time></trkpt><trkpt lat="40.5757105" lon="16.6742432"><ele>90.0</ele><time>2026-04-26T13:54:36.487Z</time></trkpt><trkpt lat="40.5756239" lon="16.6744309"><ele>90.0</ele><time>2026-04-26T13:54:37.485Z</time></trkpt><trkpt lat="40.5755374" lon="16.6746171"><ele>91.0</ele><time>2026-04-26T13:54:38.486Z</time></trkpt><trkpt lat="40.5754514" lon="16.6747994"><ele>92.0</ele><time>2026-04-26T13:54:39.485Z</time></trkpt><trkpt lat="40.5753612" lon="16.6749789"><ele>93.0</ele><time>2026-04-26T13:54:40.485Z</time></trkpt><trkpt lat="40.5752727" lon="16.6751579"><ele>94.0</ele><time>2026-04-26T13:54:41.487Z</time></trkpt><trkpt lat="40.5751868" lon="16.6753372"><ele>95.0</ele><time>2026-04-26T13:54:42.485Z</time></trkpt><trkpt lat="40.5751015" lon="16.6755174"><ele>96.0</ele><time>2026-04-26T13:54:43.485Z</time></trkpt><trkpt lat="40.5750148" lon="16.6756959"><ele>96.0</ele><time>2026-04-26T13:54:44.486Z</time></trkpt><trkpt lat="40.574929" lon="16.6758724"><ele>96.0</ele><time>2026-04-26T13:54:45.484Z</time></trkpt><trkpt lat="40.574845" lon="16.6760477"><ele>96.0</ele><time>2026-04-26T13:54:46.485Z</time></trkpt><trkpt lat="40.5747645" lon="16.6762266"><ele>96.66666666666666</ele><time>2026-04-26T13:54:47.484Z</time></trkpt><trkpt lat="40.5746918" lon="16.6764123"><ele>97.33333333333333</ele><time>2026-04-26T13:54:48.485Z</time></trkpt><trkpt lat="40.5746284" lon="16.6766054"><ele>98.0</ele><time>2026-04-26T13:54:49.485Z</time></trkpt><trkpt lat="40.5745752" lon="16.6768028"><ele>99.0</ele><time>2026-04-26T13:54:50.485Z</time></trkpt><trkpt lat="40.5745274" lon="16.6770084"><ele>100.0</ele><time>2026-04-26T13:54:51.486Z</time></trkpt><trkpt lat="40.5744818" lon="16.6772171"><ele>101.0</ele><time>2026-04-26T13:54:52.485Z</time></trkpt><trkpt lat="40.574443" lon="16.6774278"><ele>98.66666666666666</ele><time>2026-04-26T13:54:53.486Z</time></trkpt><trkpt lat="40.5744155" lon="16.6776412"><ele>96.33333333333333</ele><time>2026-04-26T13:54:54.485Z</time></trkpt><trkpt lat="40.5744003" lon="16.6778562"><ele>94.0</ele><time>2026-04-26T13:54:55.485Z</time></trkpt><trkpt lat="40.5743951" lon="16.67807"><ele>93.0</ele><time>2026-04-26T13:54:56.485Z</time></trkpt><trkpt lat="40.574401" lon="16.6782819"><ele>92.0</ele><time>2026-04-26T13:54:57.485Z</time></trkpt><trkpt lat="40.5744185" lon="16.678489"><ele>91.0</ele><time>2026-04-26T13:54:58.486Z</time></trkpt><trkpt lat="40.5744497" lon="16.6786911"><ele>91.66666666666666</ele><time>2026-04-26T13:54:59.485Z</time></trkpt><trkpt lat="40.5744912" lon="16.6788895"><ele>92.33333333333333</ele><time>2026-04-26T13:55:00.485Z</time></trkpt><trkpt lat="40.5745403" lon="16.6790848"><ele>93.0</ele><time>2026-04-26T13:55:01.485Z</time></trkpt><trkpt lat="40.5746011" lon="16.6792766"><ele>91.33333333333333</ele><time>2026-04-26T13:55:02.485Z</time></trkpt><trkpt lat="40.5746712" lon="16.6794647"><ele>89.66666666666666</ele><time>2026-04-26T13:55:03.486Z</time></trkpt><trkpt lat="40.5747484" lon="16.6796496"><ele>88.0</ele><time>2026-04-26T13:55:04.485Z</time></trkpt><trkpt lat="40.5748319" lon="16.679831"><ele>88.0</ele><time>2026-04-26T13:55:05.485Z</time></trkpt><trkpt lat="40.5749218" lon="16.6800041"><ele>88.0</ele><time>2026-04-26T13:55:06.487Z</time></trkpt><trkpt lat="40.5750181" lon="16.6801689"><ele>88.0</ele><time>2026-04-26T13:55:07.485Z</time></trkpt><trkpt lat="40.5751187" lon="16.6803271"><ele>86.33333333333333</ele><time>2026-04-26T13:55:08.487Z</time></trkpt><trkpt lat="40.5752222" lon="16.6804803"><ele>84.66666666666667</ele><time>2026-04-26T13:55:09.484Z</time></trkpt><trkpt lat="40.5753234" lon="16.6806301"><ele>83.0</ele><time>2026-04-26T13:55:10.485Z</time></trkpt><trkpt lat="40.575422" lon="16.6807808"><ele>83.0</ele><time>2026-04-26T13:55:11.485Z</time></trkpt><trkpt lat="40.5755117" lon="16.6809378"><ele>83.0</ele><time>2026-04-26T13:55:12.485Z</time></trkpt><trkpt lat="40.5755865" lon="16.6811017"><ele>83.0</ele><time>2026-04-26T13:55:13.486Z</time></trkpt><trkpt lat="40.575647" lon="16.6812666"><ele>83.0</ele><time>2026-04-26T13:55:14.487Z</time></trkpt><trkpt lat="40.5756996" lon="16.6814232"><ele>83.0</ele><time>2026-04-26T13:55:15.486Z</time></trkpt><trkpt lat="40.5757455" lon="16.6815708"><ele>83.0</ele><time>2026-04-26T13:55:16.485Z</time></trkpt><trkpt lat="40.5757724" lon="16.6817131"><ele>83.0</ele><time>2026-04-26T13:55:17.484Z</time></trkpt><trkpt lat="40.5757614" lon="16.6818533"><ele>83.0</ele><time>2026-04-26T13:55:18.485Z</time></trkpt><trkpt lat="40.5757089" lon="16.6819957"><ele>82.75</ele><time>2026-04-26T13:55:19.485Z</time></trkpt><trkpt lat="40.5756142" lon="16.6821328"><ele>82.5</ele><time>2026-04-26T13:55:20.486Z</time></trkpt><trkpt lat="40.5755" lon="16.6822603"><ele>82.25</ele><time>2026-04-26T13:55:21.49Z</time></trkpt><trkpt lat="40.5753868" lon="16.6823822"><ele>82.0</ele><time>2026-04-26T13:55:22.484Z</time></trkpt><trkpt lat="40.5752714" lon="16.6825147"><ele>82.0</ele><time>2026-04-26T13:55:23.485Z</time></trkpt><trkpt lat="40.5751553" lon="16.6826559"><ele>82.0</ele><time>2026-04-26T13:55:24.485Z</time></trkpt><trkpt lat="40.5750411" lon="16.6828007"><ele>82.0</ele><time>2026-04-26T13:55:25.487Z</time></trkpt><trkpt lat="40.5749304" lon="16.6829417"><ele>83.33333333333333</ele><time>2026-04-26T13:55:26.485Z</time></trkpt><trkpt lat="40.5748204" lon="16.6830779"><ele>84.66666666666667</ele><time>2026-04-26T13:55:27.485Z</time></trkpt><trkpt lat="40.5747104" lon="16.6832139"><ele>86.0</ele><time>2026-04-26T13:55:28.486Z</time></trkpt><trkpt lat="40.5745989" lon="16.6833449"><ele>85.66666666666667</ele><time>2026-04-26T13:55:29.485Z</time></trkpt><trkpt lat="40.5744845" lon="16.6834787"><ele>85.33333333333333</ele><time>2026-04-26T13:55:30.485Z</time></trkpt><trkpt lat="40.574372" lon="16.6836126"><ele>85.0</ele><time>2026-04-26T13:55:31.485Z</time></trkpt><trkpt lat="40.574262" lon="16.6837474"><ele>85.0</ele><time>2026-04-26T13:55:32.487Z</time></trkpt><trkpt lat="40.5741649" lon="16.6838852"><ele>85.0</ele><time>2026-04-26T13:55:33.485Z</time></trkpt><trkpt lat="40.5740919" lon="16.6840388"><ele>85.0</ele><time>2026-04-26T13:55:34.485Z</time></trkpt><trkpt lat="40.5740518" lon="16.6842105"><ele>85.0</ele><time>2026-04-26T13:55:35.485Z</time></trkpt><trkpt lat="40.5740458" lon="16.6843953"><ele>83.33333333333333</ele><time>2026-04-26T13:55:36.485Z</time></trkpt><trkpt lat="40.5740836" lon="16.6845836"><ele>81.66666666666667</ele><time>2026-04-26T13:55:37.485Z</time></trkpt><trkpt lat="40.5741615" lon="16.6847583"><ele>80.0</ele><time>2026-04-26T13:55:38.485Z</time></trkpt><trkpt lat="40.5742672" lon="16.684919"><ele>80.0</ele><time>2026-04-26T13:55:39.486Z</time></trkpt><trkpt lat="40.5743835" lon="16.6850637"><ele>80.0</ele><time>2026-04-26T13:55:40.485Z</time></trkpt><trkpt lat="40.5744948" lon="16.6852007"><ele>80.0</ele><time>2026-04-26T13:55:41.485Z</time></trkpt><trkpt lat="40.5745897" lon="16.6853368"><ele>81.75</ele><time>2026-04-26T13:55:42.486Z</time></trkpt><trkpt lat="40.5746646" lon="16.6854798"><ele>83.5</ele><time>2026-04-26T13:55:43.485Z</time></trkpt><trkpt lat="40.5747167" lon="16.6856356"><ele>85.25</ele><time>2026-04-26T13:55:44.486Z</time></trkpt><trkpt lat="40.5747383" lon="16.6858017"><ele>87.0</ele><time>2026-04-26T13:55:45.486Z</time></trkpt><trkpt lat="40.5747313" lon="16.6859736"><ele>87.5</ele><time>2026-04-26T13:55:46.486Z</time></trkpt><trkpt lat="40.574697" lon="16.6861403"><ele>88.0</ele><time>2026-04-26T13:55:47.485Z</time></trkpt><trkpt lat="40.5746392" lon="16.6862913"><ele>88.5</ele><time>2026-04-26T13:55:48.485Z</time></trkpt><trkpt lat="40.5745604" lon="16.6864209"><ele>89.0</ele><time>2026-04-26T13:55:49.485Z</time></trkpt><trkpt lat="40.574461" lon="16.6865259"><ele>87.25</ele><time>2026-04-26T13:55:50.485Z</time></trkpt><trkpt lat="40.5743513" lon="16.6865962"><ele>85.5</ele><time>2026-04-26T13:55:51.485Z</time></trkpt><trkpt lat="40.5742391" lon="16.6866453"><ele>83.75</ele><time>2026-04-26T13:55:52.485Z</time></trkpt><trkpt lat="40.5741286" lon="16.6866937"><ele>82.0</ele><time>2026-04-26T13:55:53.486Z</time></trkpt><trkpt lat="40.5740194" lon="16.686754"><ele>82.0</ele><time>2026-04-26T13:55:54.487Z</time></trkpt><trkpt lat="40.5739167" lon="16.6868333"><ele>82.0</ele><time>2026-04-26T13:55:55.485Z</time></trkpt><trkpt lat="40.5738267" lon="16.6869333"><ele>82.0</ele><time>2026-04-26T13:55:56.487Z</time></trkpt><trkpt lat="40.573755" lon="16.6870583"><ele>82.0</ele><time>2026-04-26T13:55:57.486Z</time></trkpt><trkpt lat="40.5737067" lon="16.6872167"><ele>82.25</ele><time>2026-04-26T13:55:58.485Z</time></trkpt><trkpt lat="40.5736783" lon="16.6874017"><ele>82.5</ele><time>2026-04-26T13:55:59.486Z</time></trkpt><trkpt lat="40.57366" lon="16.6875917"><ele>82.75</ele><time>2026-04-26T13:56:00.485Z</time></trkpt><trkpt lat="40.57363" lon="16.687775"><ele>83.0</ele><time>2026-04-26T13:56:01.486Z</time></trkpt><trkpt lat="40.5735683" lon="16.687945"><ele>83.0</ele><time>2026-04-26T13:56:02.487Z</time></trkpt><trkpt lat="40.573475" lon="16.688095"><ele>83.0</ele><time>2026-04-26T13:56:03.485Z</time></trkpt><trkpt lat="40.5733567" lon="16.688235"><ele>83.0</ele><time>2026-04-26T13:56:04.485Z</time></trkpt><trkpt lat="40.573235" lon="16.6883783"><ele>83.0</ele><time>2026-04-26T13:56:05.486Z</time></trkpt><trkpt lat="40.5731217" lon="16.6885333"><ele>83.0</ele><time>2026-04-26T13:56:06.485Z</time></trkpt><trkpt lat="40.5730217" lon="16.6887083"><ele>83.0</ele><time>2026-04-26T13:56:07.485Z</time></trkpt><trkpt lat="40.572935" lon="16.6888967"><ele>82.33333333333334</ele><time>2026-04-26T13:56:08.486Z</time></trkpt><trkpt lat="40.572855" lon="16.6890883"><ele>81.66666666666667</ele><time>2026-04-26T13:56:09.488Z</time></trkpt><trkpt lat="40.57278" lon="16.68928"><ele>81.0</ele><time>2026-04-26T13:56:10.485Z</time></trkpt><trkpt lat="40.572705" lon="16.6894733"><ele>81.0</ele><time>2026-04-26T13:56:11.493Z</time></trkpt><trkpt lat="40.572625" lon="16.6896633"><ele>81.0</ele><time>2026-04-26T13:56:12.486Z</time></trkpt><trkpt lat="40.57254" lon="16.6898467"><ele>81.0</ele><time>2026-04-26T13:56:13.486Z</time></trkpt><trkpt lat="40.5724483" lon="16.690025"><ele>81.0</ele><time>2026-04-26T13:56:14.487Z</time></trkpt><trkpt lat="40.572355" lon="16.6901983"><ele>81.0</ele><time>2026-04-26T13:56:15.485Z</time></trkpt><trkpt lat="40.5722583" lon="16.6903683"><ele>81.0</ele><time>2026-04-26T13:56:16.485Z</time></trkpt><trkpt lat="40.5721633" lon="16.6905383"><ele>83.0</ele><time>2026-04-26T13:56:17.485Z</time></trkpt><trkpt lat="40.5720667" lon="16.6907033"><ele>85.0</ele><time>2026-04-26T13:56:18.485Z</time></trkpt><trkpt lat="40.5719667" lon="16.69087"><ele>87.0</ele><time>2026-04-26T13:56:19.486Z</time></trkpt><trkpt lat="40.5718667" lon="16.6910367"><ele>85.33333333333333</ele><time>2026-04-26T13:56:20.487Z</time></trkpt><trkpt lat="40.5717683" lon="16.6912083"><ele>83.66666666666666</ele><time>2026-04-26T13:56:21.485Z</time></trkpt><trkpt lat="40.5716733" lon="16.69138"><ele>82.0</ele><time>2026-04-26T13:56:22.487Z</time></trkpt><trkpt lat="40.5715783" lon="16.6915533"><ele>82.0</ele><time>2026-04-26T13:56:23.485Z</time></trkpt><trkpt lat="40.5714817" lon="16.691725"><ele>82.0</ele><time>2026-04-26T13:56:24.487Z</time></trkpt><trkpt lat="40.57139" lon="16.6919"><ele>82.0</ele><time>2026-04-26T13:56:25.486Z</time></trkpt><trkpt lat="40.5713017" lon="16.6920767"><ele>83.33333333333333</ele><time>2026-04-26T13:56:26.487Z</time></trkpt><trkpt lat="40.571225" lon="16.6922633"><ele>84.66666666666667</ele><time>2026-04-26T13:56:27.485Z</time></trkpt><trkpt lat="40.57116" lon="16.692455"><ele>86.0</ele><time>2026-04-26T13:56:28.486Z</time></trkpt><trkpt lat="40.5711033" lon="16.692645"><ele>83.66666666666667</ele><time>2026-04-26T13:56:29.486Z</time></trkpt><trkpt lat="40.5710367" lon="16.6928283"><ele>81.33333333333333</ele><time>2026-04-26T13:56:30.486Z</time></trkpt><trkpt lat="40.5709517" lon="16.693"><ele>79.0</ele><time>2026-04-26T13:56:31.486Z</time></trkpt><trkpt lat="40.5708483" lon="16.6931567"><ele>79.0</ele><time>2026-04-26T13:56:32.486Z</time></trkpt><trkpt lat="40.57073" lon="16.6932917"><ele>79.0</ele><time>2026-04-26T13:56:33.485Z</time></trkpt><trkpt lat="40.570595" lon="16.6934033"><ele>79.0</ele><time>2026-04-26T13:56:34.485Z</time></trkpt><trkpt lat="40.5704517" lon="16.6934933"><ele>77.66666666666666</ele><time>2026-04-26T13:56:35.486Z</time></trkpt><trkpt lat="40.5703017" lon="16.6935583"><ele>76.33333333333333</ele><time>2026-04-26T13:56:36.486Z</time></trkpt><trkpt lat="40.5701433" lon="16.6935933"><ele>75.0</ele><time>2026-04-26T13:56:37.486Z</time></trkpt><trkpt lat="40.5699833" lon="16.6936017"><ele>74.66666666666667</ele><time>2026-04-26T13:56:38.486Z</time></trkpt><trkpt lat="40.56982" lon="16.6935983"><ele>74.33333333333334</ele><time>2026-04-26T13:56:39.486Z</time></trkpt><trkpt lat="40.5696583" lon="16.6935917"><ele>74.0</ele><time>2026-04-26T13:56:40.485Z</time></trkpt><trkpt lat="40.569495" lon="16.693585"><ele>74.0</ele><time>2026-04-26T13:56:41.486Z</time></trkpt><trkpt lat="40.569335" lon="16.69358"><ele>74.0</ele><time>2026-04-26T13:56:42.485Z</time></trkpt><trkpt lat="40.569175" lon="16.693585"><ele>74.0</ele><time>2026-04-26T13:56:43.486Z</time></trkpt><trkpt lat="40.569015" lon="16.693605"><ele>75.0</ele><time>2026-04-26T13:56:44.486Z</time></trkpt><trkpt lat="40.56886" lon="16.6936533"><ele>76.0</ele><time>2026-04-26T13:56:45.486Z</time></trkpt><trkpt lat="40.5687133" lon="16.6937317"><ele>77.0</ele><time>2026-04-26T13:56:46.486Z</time></trkpt><trkpt lat="40.5685717" lon="16.6938367"><ele>77.0</ele><time>2026-04-26T13:56:47.487Z</time></trkpt><trkpt lat="40.5684417" lon="16.69396"><ele>77.0</ele><time>2026-04-26T13:56:48.486Z</time></trkpt><trkpt lat="40.5683183" lon="16.6941"><ele>77.0</ele><time>2026-04-26T13:56:49.486Z</time></trkpt><trkpt lat="40.5682083" lon="16.6942683"><ele>79.0</ele><time>2026-04-26T13:56:50.487Z</time></trkpt><trkpt lat="40.568105" lon="16.6944533"><ele>81.0</ele><time>2026-04-26T13:56:51.487Z</time></trkpt><trkpt lat="40.5680017" lon="16.6946383"><ele>83.0</ele><time>2026-04-26T13:56:52.485Z</time></trkpt><trkpt lat="40.5678967" lon="16.6948217"><ele>80.66666666666667</ele><time>2026-04-26T13:56:53.486Z</time></trkpt><trkpt lat="40.56779" lon="16.6950017"><ele>78.33333333333333</ele><time>2026-04-26T13:56:54.485Z</time></trkpt><trkpt lat="40.5676833" lon="16.695175"><ele>76.0</ele><time>2026-04-26T13:56:55.485Z</time></trkpt><trkpt lat="40.5675817" lon="16.6953433"><ele>76.0</ele><time>2026-04-26T13:56:56.488Z</time></trkpt><trkpt lat="40.5674817" lon="16.6955083"><ele>76.0</ele><time>2026-04-26T13:56:57.485Z</time></trkpt><trkpt lat="40.5673817" lon="16.6956767"><ele>76.0</ele><time>2026-04-26T13:56:58.489Z</time></trkpt><trkpt lat="40.56728" lon="16.6958483"><ele>74.5</ele><time>2026-04-26T13:56:59.485Z</time></trkpt><trkpt lat="40.5670783" lon="16.69618"><ele>73.0</ele><time>2026-04-26T13:57:01.486Z</time></trkpt><trkpt lat="40.56699" lon="16.6963467"><ele>73.0</ele><time>2026-04-26T13:57:02.486Z</time></trkpt><trkpt lat="40.5668967" lon="16.6965117"><ele>73.0</ele><time>2026-04-26T13:57:03.485Z</time></trkpt><trkpt lat="40.5668017" lon="16.6966733"><ele>73.0</ele><time>2026-04-26T13:57:04.487Z</time></trkpt><trkpt lat="40.5667083" lon="16.6968317"><ele>74.33333333333333</ele><time>2026-04-26T13:57:05.487Z</time></trkpt><trkpt lat="40.5666133" lon="16.6969883"><ele>75.66666666666667</ele><time>2026-04-26T13:57:06.485Z</time></trkpt><trkpt lat="40.56652" lon="16.6971433"><ele>77.0</ele><time>2026-04-26T13:57:07.485Z</time></trkpt><trkpt lat="40.5664333" lon="16.6973"><ele>77.0</ele><time>2026-04-26T13:57:08.486Z</time></trkpt><trkpt lat="40.56635" lon="16.6974633"><ele>77.0</ele><time>2026-04-26T13:57:09.486Z</time></trkpt><trkpt lat="40.56627" lon="16.6976333"><ele>77.0</ele><time>2026-04-26T13:57:10.487Z</time></trkpt><trkpt lat="40.5661967" lon="16.69781"><ele>74.33333333333334</ele><time>2026-04-26T13:57:11.485Z</time></trkpt><trkpt lat="40.5661283" lon="16.6979933"><ele>71.66666666666667</ele><time>2026-04-26T13:57:12.485Z</time></trkpt><trkpt lat="40.56606" lon="16.6981767"><ele>69.0</ele><time>2026-04-26T13:57:13.485Z</time></trkpt><trkpt lat="40.56599" lon="16.6983667"><ele>69.0</ele><time>2026-04-26T13:57:14.487Z</time></trkpt><trkpt lat="40.5659233" lon="16.6985483"><ele>69.0</ele><time>2026-04-26T13:57:15.486Z</time></trkpt><trkpt lat="40.5658683" lon="16.69873"><ele>69.0</ele><time>2026-04-26T13:57:16.486Z</time></trkpt><trkpt lat="40.56582" lon="16.6989133"><ele>69.0</ele><time>2026-04-26T13:57:17.485Z</time></trkpt><trkpt lat="40.5657783" lon="16.699095"><ele>69.25</ele><time>2026-04-26T13:57:18.486Z</time></trkpt><trkpt lat="40.5657367" lon="16.6992767"><ele>69.5</ele><time>2026-04-26T13:57:19.485Z</time></trkpt><trkpt lat="40.5656967" lon="16.699465"><ele>69.75</ele><time>2026-04-26T13:57:20.486Z</time></trkpt><trkpt lat="40.565655" lon="16.6996567"><ele>70.0</ele><time>2026-04-26T13:57:21.485Z</time></trkpt><trkpt lat="40.5656133" lon="16.699855"><ele>70.0</ele><time>2026-04-26T13:57:22.487Z</time></trkpt><trkpt lat="40.5655683" lon="16.7000567"><ele>70.0</ele><time>2026-04-26T13:57:23.486Z</time></trkpt><trkpt lat="40.5655233" lon="16.70026"><ele>70.0</ele><time>2026-04-26T13:57:24.486Z</time></trkpt><trkpt lat="40.5654783" lon="16.70046"><ele>69.66666666666666</ele><time>2026-04-26T13:57:25.485Z</time></trkpt><trkpt lat="40.5654317" lon="16.70066"><ele>69.33333333333333</ele><time>2026-04-26T13:57:26.486Z</time></trkpt><trkpt lat="40.5653867" lon="16.7008583"><ele>69.0</ele><time>2026-04-26T13:57:27.49Z</time></trkpt><trkpt lat="40.5653417" lon="16.701055"><ele>68.66666666666667</ele><time>2026-04-26T13:57:28.485Z</time></trkpt><trkpt lat="40.5652983" lon="16.7012567"><ele>68.33333333333334</ele><time>2026-04-26T13:57:29.486Z</time></trkpt><trkpt lat="40.565255" lon="16.7014583"><ele>68.0</ele><time>2026-04-26T13:57:30.486Z</time></trkpt><trkpt lat="40.5652133" lon="16.701655"><ele>68.0</ele><time>2026-04-26T13:57:31.486Z</time></trkpt><trkpt lat="40.5651733" lon="16.701845"><ele>68.0</ele><time>2026-04-26T13:57:32.487Z</time></trkpt><trkpt lat="40.5651367" lon="16.7020217"><ele>68.0</ele><time>2026-04-26T13:57:33.486Z</time></trkpt><trkpt lat="40.5651033" lon="16.702175"><ele>68.0</ele><time>2026-04-26T13:57:34.486Z</time></trkpt><trkpt lat="40.5650833" lon="16.7023033"><ele>68.0</ele><time>2026-04-26T13:57:35.485Z</time></trkpt><trkpt lat="40.565075" lon="16.702415"><ele>68.0</ele><time>2026-04-26T13:57:36.487Z</time></trkpt><trkpt lat="40.5650733" lon="16.70251"><ele>68.0</ele><time>2026-04-26T13:57:37.486Z</time></trkpt><trkpt lat="40.56507" lon="16.702595"><ele>68.0</ele><time>2026-04-26T13:57:38.487Z</time></trkpt><trkpt lat="40.5650333" lon="16.7027183"><ele>68.0</ele><time>2026-04-26T13:57:40.485Z</time></trkpt><trkpt lat="40.5649817" lon="16.7028133"><ele>68.0</ele><time>2026-04-26T13:57:42.484Z</time></trkpt><trkpt lat="40.564945" lon="16.7029"><ele>68.25</ele><time>2026-04-26T13:57:43.486Z</time></trkpt><trkpt lat="40.56491" lon="16.7030133"><ele>68.5</ele><time>2026-04-26T13:57:44.488Z</time></trkpt><trkpt lat="40.56488" lon="16.7031467"><ele>68.75</ele><time>2026-04-26T13:57:45.489Z</time></trkpt><trkpt lat="40.5648467" lon="16.7033067"><ele>69.0</ele><time>2026-04-26T13:57:46.486Z</time></trkpt><trkpt lat="40.5648117" lon="16.7034783"><ele>70.33333333333333</ele><time>2026-04-26T13:57:47.486Z</time></trkpt><trkpt lat="40.5647683" lon="16.7036633"><ele>71.66666666666666</ele><time>2026-04-26T13:57:48.486Z</time></trkpt><trkpt lat="40.5647117" lon="16.7038567"><ele>73.0</ele><time>2026-04-26T13:57:49.485Z</time></trkpt><trkpt lat="40.5646383" lon="16.70405"><ele>73.0</ele><time>2026-04-26T13:57:50.49Z</time></trkpt><trkpt lat="40.5645533" lon="16.7042417"><ele>73.0</ele><time>2026-04-26T13:57:51.486Z</time></trkpt><trkpt lat="40.56446" lon="16.7044333"><ele>73.0</ele><time>2026-04-26T13:57:52.485Z</time></trkpt><trkpt lat="40.5643617" lon="16.70462"><ele>72.0</ele><time>2026-04-26T13:57:53.486Z</time></trkpt><trkpt lat="40.5642567" lon="16.7048017"><ele>71.0</ele><time>2026-04-26T13:57:54.49Z</time></trkpt><trkpt lat="40.5641433" lon="16.704975"><ele>70.0</ele><time>2026-04-26T13:57:55.486Z</time></trkpt><trkpt lat="40.5640217" lon="16.7051367"><ele>69.66666666666666</ele><time>2026-04-26T13:57:56.486Z</time></trkpt><trkpt lat="40.563895" lon="16.70529"><ele>69.33333333333333</ele><time>2026-04-26T13:57:57.486Z</time></trkpt><trkpt lat="40.5637617" lon="16.705435"><ele>69.0</ele><time>2026-04-26T13:57:58.487Z</time></trkpt><trkpt lat="40.5636267" lon="16.7055717"><ele>69.0</ele><time>2026-04-26T13:57:59.486Z</time></trkpt><trkpt lat="40.5634917" lon="16.7057017"><ele>69.0</ele><time>2026-04-26T13:58:00.486Z</time></trkpt><trkpt lat="40.5633567" lon="16.7058283"><ele>69.0</ele><time>2026-04-26T13:58:01.486Z</time></trkpt><trkpt lat="40.5632283" lon="16.705955"><ele>69.0</ele><time>2026-04-26T13:58:02.487Z</time></trkpt><trkpt lat="40.5631033" lon="16.7060767"><ele>69.0</ele><time>2026-04-26T13:58:03.486Z</time></trkpt><trkpt lat="40.56298" lon="16.7062"><ele>69.0</ele><time>2026-04-26T13:58:04.486Z</time></trkpt><trkpt lat="40.5628583" lon="16.7063233"><ele>69.25</ele><time>2026-04-26T13:58:05.488Z</time></trkpt><trkpt lat="40.5627367" lon="16.70644"><ele>69.5</ele><time>2026-04-26T13:58:06.486Z</time></trkpt><trkpt lat="40.562615" lon="16.706555"><ele>69.75</ele><time>2026-04-26T13:58:07.485Z</time></trkpt><trkpt lat="40.5624967" lon="16.706665"><ele>70.0</ele><time>2026-04-26T13:58:08.486Z</time></trkpt><trkpt lat="40.5623817" lon="16.7067767"><ele>70.0</ele><time>2026-04-26T13:58:09.486Z</time></trkpt><trkpt lat="40.5622733" lon="16.7068933"><ele>70.0</ele><time>2026-04-26T13:58:10.486Z</time></trkpt><trkpt lat="40.56218" lon="16.7070183"><ele>70.0</ele><time>2026-04-26T13:58:11.486Z</time></trkpt><trkpt lat="40.5621083" lon="16.7071467"><ele>70.0</ele><time>2026-04-26T13:58:12.485Z</time></trkpt><trkpt lat="40.5620533" lon="16.7072567"><ele>70.4</ele><time>2026-04-26T13:58:13.487Z</time></trkpt><trkpt lat="40.5620067" lon="16.7073317"><ele>70.8</ele><time>2026-04-26T13:58:14.485Z</time></trkpt><trkpt lat="40.56191" lon="16.70736"><ele>71.2</ele><time>2026-04-26T13:58:16.485Z</time></trkpt><trkpt lat="40.5618033" lon="16.7072567"><ele>71.6</ele><time>2026-04-26T13:58:18.486Z</time></trkpt><trkpt lat="40.5617433" lon="16.7071633"><ele>72.0</ele><time>2026-04-26T13:58:19.485Z</time></trkpt><trkpt lat="40.5616767" lon="16.7070517"><ele>72.0</ele><time>2026-04-26T13:58:20.489Z</time></trkpt><trkpt lat="40.5615983" lon="16.7069333"><ele>72.0</ele><time>2026-04-26T13:58:21.484Z</time></trkpt><trkpt lat="40.56152" lon="16.7068067"><ele>72.0</ele><time>2026-04-26T13:58:22.485Z</time></trkpt><trkpt lat="40.56144" lon="16.7066717"><ele>72.0</ele><time>2026-04-26T13:58:23.485Z</time></trkpt><trkpt lat="40.5613583" lon="16.7065283"><ele>70.66666666666667</ele><time>2026-04-26T13:58:24.485Z</time></trkpt><trkpt lat="40.56127" lon="16.70638"><ele>69.33333333333334</ele><time>2026-04-26T13:58:25.485Z</time></trkpt><trkpt lat="40.5611767" lon="16.7062217"><ele>68.0</ele><time>2026-04-26T13:58:26.485Z</time></trkpt><trkpt lat="40.5610817" lon="16.7060583"><ele>67.66666666666667</ele><time>2026-04-26T13:58:27.485Z</time></trkpt><trkpt lat="40.5609867" lon="16.7058967"><ele>67.33333333333333</ele><time>2026-04-26T13:58:28.485Z</time></trkpt><trkpt lat="40.5608917" lon="16.70573"><ele>67.0</ele><time>2026-04-26T13:58:29.484Z</time></trkpt><trkpt lat="40.5607967" lon="16.705565"><ele>67.0</ele><time>2026-04-26T13:58:30.486Z</time></trkpt><trkpt lat="40.5606983" lon="16.7054017"><ele>67.0</ele><time>2026-04-26T13:58:31.485Z</time></trkpt><trkpt lat="40.5605983" lon="16.7052383"><ele>67.0</ele><time>2026-04-26T13:58:32.49Z</time></trkpt><trkpt lat="40.5604933" lon="16.705075"><ele>67.0</ele><time>2026-04-26T13:58:33.485Z</time></trkpt><trkpt lat="40.5603883" lon="16.7049067"><ele>67.0</ele><time>2026-04-26T13:58:34.485Z</time></trkpt><trkpt lat="40.560285" lon="16.7047383"><ele>67.0</ele><time>2026-04-26T13:58:35.485Z</time></trkpt><trkpt lat="40.560185" lon="16.7045683"><ele>66.66666666666666</ele><time>2026-04-26T13:58:36.485Z</time></trkpt><trkpt lat="40.560085" lon="16.7044"><ele>66.33333333333333</ele><time>2026-04-26T13:58:37.486Z</time></trkpt><trkpt lat="40.5599867" lon="16.7042283"><ele>66.0</ele><time>2026-04-26T13:58:38.486Z</time></trkpt><trkpt lat="40.5598867" lon="16.7040567"><ele>66.0</ele><time>2026-04-26T13:58:39.486Z</time></trkpt><trkpt lat="40.5597867" lon="16.7038867"><ele>66.0</ele><time>2026-04-26T13:58:40.485Z</time></trkpt><trkpt lat="40.559685" lon="16.7037217"><ele>66.0</ele><time>2026-04-26T13:58:41.485Z</time></trkpt><trkpt lat="40.5595817" lon="16.7035583"><ele>66.0</ele><time>2026-04-26T13:58:42.485Z</time></trkpt><trkpt lat="40.559485" lon="16.7033883"><ele>66.0</ele><time>2026-04-26T13:58:43.485Z</time></trkpt><trkpt lat="40.559385" lon="16.70322"><ele>66.0</ele><time>2026-04-26T13:58:44.485Z</time></trkpt><trkpt lat="40.559285" lon="16.7030483"><ele>66.0</ele><time>2026-04-26T13:58:45.485Z</time></trkpt><trkpt lat="40.5591867" lon="16.7028733"><ele>66.0</ele><time>2026-04-26T13:58:46.485Z</time></trkpt><trkpt lat="40.5590917" lon="16.70271"><ele>66.0</ele><time>2026-04-26T13:58:47.485Z</time></trkpt><trkpt lat="40.5589967" lon="16.7025483"><ele>65.66666666666667</ele><time>2026-04-26T13:58:48.485Z</time></trkpt><trkpt lat="40.5588967" lon="16.7023917"><ele>65.33333333333334</ele><time>2026-04-26T13:58:49.486Z</time></trkpt><trkpt lat="40.5588067" lon="16.7022317"><ele>65.0</ele><time>2026-04-26T13:58:50.486Z</time></trkpt><trkpt lat="40.5587283" lon="16.7020567"><ele>64.0</ele><time>2026-04-26T13:58:51.486Z</time></trkpt><trkpt lat="40.55867" lon="16.7018633"><ele>63.0</ele><time>2026-04-26T13:58:52.485Z</time></trkpt><trkpt lat="40.55863" lon="16.7016583"><ele>62.0</ele><time>2026-04-26T13:58:53.485Z</time></trkpt><trkpt lat="40.5585933" lon="16.7014533"><ele>62.0</ele><time>2026-04-26T13:58:54.485Z</time></trkpt><trkpt lat="40.5585617" lon="16.70125"><ele>62.0</ele><time>2026-04-26T13:58:55.485Z</time></trkpt><trkpt lat="40.5585317" lon="16.70105"><ele>62.0</ele><time>2026-04-26T13:58:56.485Z</time></trkpt><trkpt lat="40.5585017" lon="16.7008483"><ele>62.333333333333336</ele><time>2026-04-26T13:58:57.487Z</time></trkpt><trkpt lat="40.5584733" lon="16.7006483"><ele>62.66666666666667</ele><time>2026-04-26T13:58:58.489Z</time></trkpt><trkpt lat="40.5584433" lon="16.7004417"><ele>63.0</ele><time>2026-04-26T13:58:59.485Z</time></trkpt><trkpt lat="40.5584117" lon="16.700235"><ele>63.66666666666667</ele><time>2026-04-26T13:59:00.486Z</time></trkpt><trkpt lat="40.5583783" lon="16.7000267"><ele>64.33333333333334</ele><time>2026-04-26T13:59:01.485Z</time></trkpt><trkpt lat="40.558345" lon="16.6998233"><ele>65.0</ele><time>2026-04-26T13:59:02.485Z</time></trkpt><trkpt lat="40.5583133" lon="16.69962"><ele>65.0</ele><time>2026-04-26T13:59:03.485Z</time></trkpt><trkpt lat="40.5582783" lon="16.6994183"><ele>65.0</ele><time>2026-04-26T13:59:04.485Z</time></trkpt><trkpt lat="40.5582433" lon="16.69922"><ele>65.0</ele><time>2026-04-26T13:59:05.485Z</time></trkpt><trkpt lat="40.5582083" lon="16.6990217"><ele>65.66666666666667</ele><time>2026-04-26T13:59:06.485Z</time></trkpt><trkpt lat="40.5581733" lon="16.698825"><ele>66.33333333333333</ele><time>2026-04-26T13:59:07.484Z</time></trkpt><trkpt lat="40.5581383" lon="16.6986267"><ele>67.0</ele><time>2026-04-26T13:59:08.486Z</time></trkpt><trkpt lat="40.5581017" lon="16.698425"><ele>68.0</ele><time>2026-04-26T13:59:09.485Z</time></trkpt><trkpt lat="40.5580683" lon="16.698225"><ele>69.0</ele><time>2026-04-26T13:59:10.486Z</time></trkpt><trkpt lat="40.558035" lon="16.6980233"><ele>70.0</ele><time>2026-04-26T13:59:11.485Z</time></trkpt><trkpt lat="40.5580033" lon="16.69782"><ele>71.0</ele><time>2026-04-26T13:59:12.486Z</time></trkpt><trkpt lat="40.5579717" lon="16.697615"><ele>72.0</ele><time>2026-04-26T13:59:13.485Z</time></trkpt><trkpt lat="40.5579367" lon="16.69741"><ele>73.0</ele><time>2026-04-26T13:59:14.486Z</time></trkpt><trkpt lat="40.5579017" lon="16.697205"><ele>72.75</ele><time>2026-04-26T13:59:15.485Z</time></trkpt><trkpt lat="40.5578683" lon="16.6970017"><ele>72.5</ele><time>2026-04-26T13:59:16.486Z</time></trkpt><trkpt lat="40.55784" lon="16.6968117"><ele>72.25</ele><time>2026-04-26T13:59:17.485Z</time></trkpt><trkpt lat="40.5578117" lon="16.696655"><ele>72.0</ele><time>2026-04-26T13:59:18.486Z</time></trkpt><trkpt lat="40.5577883" lon="16.6965333"><ele>72.0</ele><time>2026-04-26T13:59:19.486Z</time></trkpt><trkpt lat="40.5577567" lon="16.6964517"><ele>72.0</ele><time>2026-04-26T13:59:20.487Z</time></trkpt><trkpt lat="40.5576633" lon="16.6964067"><ele>72.0</ele><time>2026-04-26T13:59:22.485Z</time></trkpt><trkpt lat="40.5576033" lon="16.6964583"><ele>72.0</ele><time>2026-04-26T13:59:23.486Z</time></trkpt><trkpt lat="40.5575483" lon="16.696535"><ele>72.0</ele><time>2026-04-26T13:59:24.485Z</time></trkpt><trkpt lat="40.5574917" lon="16.6966283"><ele>72.0</ele><time>2026-04-26T13:59:25.485Z</time></trkpt><trkpt lat="40.55741" lon="16.696745"><ele>72.0</ele><time>2026-04-26T13:59:26.486Z</time></trkpt><trkpt lat="40.5573033" lon="16.6968733"><ele>72.0</ele><time>2026-04-26T13:59:27.485Z</time></trkpt><trkpt lat="40.557195" lon="16.6970117"><ele>72.0</ele><time>2026-04-26T13:59:28.486Z</time></trkpt><trkpt lat="40.5571017" lon="16.697165"><ele>72.0</ele><time>2026-04-26T13:59:29.485Z</time></trkpt><trkpt lat="40.5570183" lon="16.6973233"><ele>71.5</ele><time>2026-04-26T13:59:30.485Z</time></trkpt><trkpt lat="40.5569367" lon="16.697475"><ele>71.0</ele><time>2026-04-26T13:59:31.485Z</time></trkpt><trkpt lat="40.5568567" lon="16.697625"><ele>70.5</ele><time>2026-04-26T13:59:32.485Z</time></trkpt><trkpt lat="40.5567783" lon="16.6977733"><ele>70.0</ele><time>2026-04-26T13:59:33.487Z</time></trkpt><trkpt lat="40.5566933" lon="16.6979183"><ele>69.25</ele><time>2026-04-26T13:59:34.486Z</time></trkpt><trkpt lat="40.5566083" lon="16.6980567"><ele>68.5</ele><time>2026-04-26T13:59:35.485Z</time></trkpt><trkpt lat="40.5565233" lon="16.6981967"><ele>67.75</ele><time>2026-04-26T13:59:36.485Z</time></trkpt><trkpt lat="40.556435" lon="16.6983317"><ele>67.0</ele><time>2026-04-26T13:59:37.486Z</time></trkpt><trkpt lat="40.5563417" lon="16.6984617"><ele>67.0</ele><time>2026-04-26T13:59:38.486Z</time></trkpt><trkpt lat="40.55624" lon="16.698585"><ele>67.0</ele><time>2026-04-26T13:59:39.486Z</time></trkpt><trkpt lat="40.5561317" lon="16.6986983"><ele>67.0</ele><time>2026-04-26T13:59:40.484Z</time></trkpt><trkpt lat="40.5560183" lon="16.6988017"><ele>67.0</ele><time>2026-04-26T13:59:41.485Z</time></trkpt><trkpt lat="40.5558983" lon="16.6988933"><ele>67.0</ele><time>2026-04-26T13:59:42.486Z</time></trkpt><trkpt lat="40.55577" lon="16.6989767"><ele>67.0</ele><time>2026-04-26T13:59:43.485Z</time></trkpt><trkpt lat="40.555635" lon="16.69905"><ele>67.0</ele><time>2026-04-26T13:59:44.488Z</time></trkpt><trkpt lat="40.5555033" lon="16.6991167"><ele>67.0</ele><time>2026-04-26T13:59:45.485Z</time></trkpt><trkpt lat="40.55537" lon="16.6991817"><ele>67.0</ele><time>2026-04-26T13:59:46.487Z</time></trkpt><trkpt lat="40.5552367" lon="16.6992483"><ele>67.0</ele><time>2026-04-26T13:59:47.485Z</time></trkpt><trkpt lat="40.5550983" lon="16.6993167"><ele>67.0</ele><time>2026-04-26T13:59:48.485Z</time></trkpt><trkpt lat="40.5549533" lon="16.699385"><ele>67.0</ele><time>2026-04-26T13:59:49.486Z</time></trkpt><trkpt lat="40.5548083" lon="16.69945"><ele>66.33333333333333</ele><time>2026-04-26T13:59:50.485Z</time></trkpt><trkpt lat="40.5546633" lon="16.6995183"><ele>65.66666666666667</ele><time>2026-04-26T13:59:51.485Z</time></trkpt><trkpt lat="40.5545167" lon="16.699585"><ele>65.0</ele><time>2026-04-26T13:59:52.485Z</time></trkpt><trkpt lat="40.5543733" lon="16.6996483"><ele>65.0</ele><time>2026-04-26T13:59:53.485Z</time></trkpt><trkpt lat="40.55423" lon="16.6997083"><ele>65.0</ele><time>2026-04-26T13:59:54.485Z</time></trkpt><trkpt lat="40.55409" lon="16.6997683"><ele>65.0</ele><time>2026-04-26T13:59:55.487Z</time></trkpt><trkpt lat="40.553955" lon="16.699825"><ele>65.0</ele><time>2026-04-26T13:59:56.486Z</time></trkpt><trkpt lat="40.5538233" lon="16.6998833"><ele>64.75</ele><time>2026-04-26T13:59:57.486Z</time></trkpt><trkpt lat="40.553695" lon="16.6999383"><ele>64.5</ele><time>2026-04-26T13:59:58.486Z</time></trkpt><trkpt lat="40.55357" lon="16.699985"><ele>64.25</ele><time>2026-04-26T13:59:59.485Z</time></trkpt><trkpt lat="40.55344" lon="16.7000267"><ele>64.0</ele><time>2026-04-26T14:00:00.485Z</time></trkpt><trkpt lat="40.5533017" lon="16.7000667"><ele>64.0</ele><time>2026-04-26T14:00:01.485Z</time></trkpt><trkpt lat="40.5531617" lon="16.7001183"><ele>64.0</ele><time>2026-04-26T14:00:02.487Z</time></trkpt><trkpt lat="40.553015" lon="16.7001767"><ele>64.0</ele><time>2026-04-26T14:00:03.485Z</time></trkpt><trkpt lat="40.5528683" lon="16.7002383"><ele>63.33333333333333</ele><time>2026-04-26T14:00:04.485Z</time></trkpt><trkpt lat="40.5527233" lon="16.7003017"><ele>62.66666666666667</ele><time>2026-04-26T14:00:05.487Z</time></trkpt><trkpt lat="40.55258" lon="16.7003667"><ele>62.0</ele><time>2026-04-26T14:00:06.485Z</time></trkpt><trkpt lat="40.5524417" lon="16.7004333"><ele>62.0</ele><time>2026-04-26T14:00:07.486Z</time></trkpt><trkpt lat="40.5523117" lon="16.7004983"><ele>62.0</ele><time>2026-04-26T14:00:08.486Z</time></trkpt><trkpt lat="40.5521867" lon="16.7005633"><ele>62.0</ele><time>2026-04-26T14:00:09.486Z</time></trkpt><trkpt lat="40.5520667" lon="16.7006233"><ele>62.0</ele><time>2026-04-26T14:00:10.486Z</time></trkpt><trkpt lat="40.5519483" lon="16.7006867"><ele>61.75</ele><time>2026-04-26T14:00:11.487Z</time></trkpt><trkpt lat="40.551835" lon="16.700765"><ele>61.5</ele><time>2026-04-26T14:00:12.485Z</time></trkpt><trkpt lat="40.5517317" lon="16.7008633"><ele>61.25</ele><time>2026-04-26T14:00:13.486Z</time></trkpt><trkpt lat="40.5516283" lon="16.7009767"><ele>61.0</ele><time>2026-04-26T14:00:14.484Z</time></trkpt><trkpt lat="40.551525" lon="16.7010967"><ele>61.0</ele><time>2026-04-26T14:00:15.485Z</time></trkpt><trkpt lat="40.55142" lon="16.70122"><ele>61.0</ele><time>2026-04-26T14:00:16.485Z</time></trkpt><trkpt lat="40.551315" lon="16.701345"><ele>61.0</ele><time>2026-04-26T14:00:17.49Z</time></trkpt><trkpt lat="40.5512167" lon="16.7014717"><ele>61.0</ele><time>2026-04-26T14:00:18.486Z</time></trkpt><trkpt lat="40.5511283" lon="16.70159"><ele>61.0</ele><time>2026-04-26T14:00:19.485Z</time></trkpt><trkpt lat="40.5510417" lon="16.7017117"><ele>61.0</ele><time>2026-04-26T14:00:20.485Z</time></trkpt><trkpt lat="40.5509417" lon="16.7018367"><ele>61.0</ele><time>2026-04-26T14:00:21.485Z</time></trkpt><trkpt lat="40.55084" lon="16.7019717"><ele>61.0</ele><time>2026-04-26T14:00:22.487Z</time></trkpt><trkpt lat="40.5507333" lon="16.7021167"><ele>61.0</ele><time>2026-04-26T14:00:23.485Z</time></trkpt><trkpt lat="40.5506217" lon="16.7022667"><ele>61.0</ele><time>2026-04-26T14:00:24.485Z</time></trkpt><trkpt lat="40.55051" lon="16.7024183"><ele>61.0</ele><time>2026-04-26T14:00:25.486Z</time></trkpt><trkpt lat="40.5504017" lon="16.7025683"><ele>61.666666666666664</ele><time>2026-04-26T14:00:26.489Z</time></trkpt><trkpt lat="40.550295" lon="16.702715"><ele>62.33333333333333</ele><time>2026-04-26T14:00:27.486Z</time></trkpt><trkpt lat="40.5501883" lon="16.7028617"><ele>63.0</ele><time>2026-04-26T14:00:28.486Z</time></trkpt><trkpt lat="40.5500817" lon="16.7030117"><ele>63.0</ele><time>2026-04-26T14:00:29.485Z</time></trkpt><trkpt lat="40.549975" lon="16.7031617"><ele>63.0</ele><time>2026-04-26T14:00:30.486Z</time></trkpt><trkpt lat="40.549875" lon="16.703305"><ele>63.0</ele><time>2026-04-26T14:00:31.486Z</time></trkpt><trkpt lat="40.54978" lon="16.7034383"><ele>63.0</ele><time>2026-04-26T14:00:32.487Z</time></trkpt><trkpt lat="40.549685" lon="16.7035683"><ele>62.75</ele><time>2026-04-26T14:00:33.485Z</time></trkpt><trkpt lat="40.5495917" lon="16.7036967"><ele>62.5</ele><time>2026-04-26T14:00:34.485Z</time></trkpt><trkpt lat="40.5494933" lon="16.7038317"><ele>62.25</ele><time>2026-04-26T14:00:35.485Z</time></trkpt><trkpt lat="40.5493883" lon="16.70399"><ele>62.0</ele><time>2026-04-26T14:00:36.485Z</time></trkpt><trkpt lat="40.5492867" lon="16.704155"><ele>62.0</ele><time>2026-04-26T14:00:37.486Z</time></trkpt><trkpt lat="40.54919" lon="16.704315"><ele>62.0</ele><time>2026-04-26T14:00:38.487Z</time></trkpt><trkpt lat="40.5491" lon="16.7044633"><ele>62.0</ele><time>2026-04-26T14:00:39.485Z</time></trkpt><trkpt lat="40.549015" lon="16.704605"><ele>62.0</ele><time>2026-04-26T14:00:40.486Z</time></trkpt><trkpt lat="40.548935" lon="16.7047433"><ele>62.0</ele><time>2026-04-26T14:00:41.485Z</time></trkpt><trkpt lat="40.5488633" lon="16.7048767"><ele>62.0</ele><time>2026-04-26T14:00:42.487Z</time></trkpt><trkpt lat="40.5487967" lon="16.7049983"><ele>62.0</ele><time>2026-04-26T14:00:43.485Z</time></trkpt><trkpt lat="40.54873" lon="16.7051133"><ele>62.0</ele><time>2026-04-26T14:00:44.487Z</time></trkpt><trkpt lat="40.54867" lon="16.7052183"><ele>62.0</ele><time>2026-04-26T14:00:45.486Z</time></trkpt><trkpt lat="40.5486017" lon="16.7053183"><ele>62.0</ele><time>2026-04-26T14:00:46.486Z</time></trkpt><trkpt lat="40.54853" lon="16.7054117"><ele>62.0</ele><time>2026-04-26T14:00:47.486Z</time></trkpt><trkpt lat="40.5484533" lon="16.7055083"><ele>62.0</ele><time>2026-04-26T14:00:48.488Z</time></trkpt><trkpt lat="40.54838" lon="16.7056067"><ele>62.0</ele><time>2026-04-26T14:00:49.486Z</time></trkpt><trkpt lat="40.5483067" lon="16.7057083"><ele>62.0</ele><time>2026-04-26T14:00:50.486Z</time></trkpt><trkpt lat="40.5482333" lon="16.7058167"><ele>62.0</ele><time>2026-04-26T14:00:51.485Z</time></trkpt><trkpt lat="40.5481617" lon="16.7059417"><ele>62.0</ele><time>2026-04-26T14:00:52.487Z</time></trkpt><trkpt lat="40.5480967" lon="16.7060683"><ele>62.0</ele><time>2026-04-26T14:00:53.486Z</time></trkpt><trkpt lat="40.5480333" lon="16.7062017"><ele>62.0</ele><time>2026-04-26T14:00:54.487Z</time></trkpt><trkpt lat="40.547965" lon="16.706325"><ele>61.5</ele><time>2026-04-26T14:00:55.488Z</time></trkpt><trkpt lat="40.5478967" lon="16.7064333"><ele>61.0</ele><time>2026-04-26T14:00:56.487Z</time></trkpt><trkpt lat="40.5478317" lon="16.7065417"><ele>60.5</ele><time>2026-04-26T14:00:57.486Z</time></trkpt><trkpt lat="40.5477767" lon="16.7066767"><ele>60.0</ele><time>2026-04-26T14:00:58.486Z</time></trkpt><trkpt lat="40.547725" lon="16.7068283"><ele>60.6</ele><time>2026-04-26T14:00:59.487Z</time></trkpt><trkpt lat="40.5476767" lon="16.7069733"><ele>61.2</ele><time>2026-04-26T14:01:00.485Z</time></trkpt><trkpt lat="40.5476333" lon="16.70711"><ele>61.8</ele><time>2026-04-26T14:01:01.486Z</time></trkpt><trkpt lat="40.54759" lon="16.7072317"><ele>62.4</ele><time>2026-04-26T14:01:02.487Z</time></trkpt><trkpt lat="40.5475433" lon="16.707335"><ele>63.0</ele><time>2026-04-26T14:01:03.487Z</time></trkpt><trkpt lat="40.5474933" lon="16.7074283"><ele>63.0</ele><time>2026-04-26T14:01:04.486Z</time></trkpt><trkpt lat="40.547435" lon="16.7075217"><ele>63.0</ele><time>2026-04-26T14:01:05.487Z</time></trkpt><trkpt lat="40.54737" lon="16.7076117"><ele>63.0</ele><time>2026-04-26T14:01:06.486Z</time></trkpt><trkpt lat="40.5472983" lon="16.7077083"><ele>63.0</ele><time>2026-04-26T14:01:07.486Z</time></trkpt><trkpt lat="40.54722" lon="16.7077983"><ele>63.0</ele><time>2026-04-26T14:01:08.486Z</time></trkpt><trkpt lat="40.54714" lon="16.7078733"><ele>63.0</ele><time>2026-04-26T14:01:09.486Z</time></trkpt><trkpt lat="40.5470617" lon="16.7079417"><ele>63.0</ele><time>2026-04-26T14:01:10.486Z</time></trkpt><trkpt lat="40.5469917" lon="16.7080167"><ele>63.0</ele><time>2026-04-26T14:01:11.485Z</time></trkpt><trkpt lat="40.5469183" lon="16.7081183"><ele>63.0</ele><time>2026-04-26T14:01:12.485Z</time></trkpt><trkpt lat="40.5468367" lon="16.7082583"><ele>63.0</ele><time>2026-04-26T14:01:13.487Z</time></trkpt><trkpt lat="40.5467467" lon="16.7084183"><ele>62.5</ele><time>2026-04-26T14:01:14.486Z</time></trkpt><trkpt lat="40.54665" lon="16.7085783"><ele>62.0</ele><time>2026-04-26T14:01:15.485Z</time></trkpt><trkpt lat="40.5465667" lon="16.7087317"><ele>61.5</ele><time>2026-04-26T14:01:16.485Z</time></trkpt><trkpt lat="40.54649" lon="16.7088817"><ele>61.0</ele><time>2026-04-26T14:01:17.485Z</time></trkpt><trkpt lat="40.5464133" lon="16.709035"><ele>61.0</ele><time>2026-04-26T14:01:18.489Z</time></trkpt><trkpt lat="40.5463333" lon="16.709195"><ele>61.0</ele><time>2026-04-26T14:01:19.485Z</time></trkpt><trkpt lat="40.54626" lon="16.7093567"><ele>61.0</ele><time>2026-04-26T14:01:20.486Z</time></trkpt><trkpt lat="40.5461883" lon="16.7095133"><ele>61.0</ele><time>2026-04-26T14:01:21.485Z</time></trkpt><trkpt lat="40.5461183" lon="16.70966"><ele>60.75</ele><time>2026-04-26T14:01:22.485Z</time></trkpt><trkpt lat="40.54605" lon="16.7098"><ele>60.5</ele><time>2026-04-26T14:01:23.486Z</time></trkpt><trkpt lat="40.5459817" lon="16.7099383"><ele>60.25</ele><time>2026-04-26T14:01:24.485Z</time></trkpt><trkpt lat="40.5459183" lon="16.7100883"><ele>60.0</ele><time>2026-04-26T14:01:25.487Z</time></trkpt><trkpt lat="40.5458567" lon="16.7102433"><ele>59.75</ele><time>2026-04-26T14:01:26.486Z</time></trkpt><trkpt lat="40.5457933" lon="16.710395"><ele>59.5</ele><time>2026-04-26T14:01:27.485Z</time></trkpt><trkpt lat="40.5457367" lon="16.7105433"><ele>59.25</ele><time>2026-04-26T14:01:28.486Z</time></trkpt><trkpt lat="40.54568" lon="16.7106917"><ele>59.0</ele><time>2026-04-26T14:01:29.486Z</time></trkpt><trkpt lat="40.54562" lon="16.71085"><ele>59.0</ele><time>2026-04-26T14:01:30.486Z</time></trkpt><trkpt lat="40.545555" lon="16.7110167"><ele>59.0</ele><time>2026-04-26T14:01:31.486Z</time></trkpt><trkpt lat="40.5454867" lon="16.711175"><ele>59.0</ele><time>2026-04-26T14:01:32.486Z</time></trkpt><trkpt lat="40.5454217" lon="16.71133"><ele>59.0</ele><time>2026-04-26T14:01:33.487Z</time></trkpt><trkpt lat="40.5453583" lon="16.71148"><ele>59.75</ele><time>2026-04-26T14:01:34.486Z</time></trkpt><trkpt lat="40.5453017" lon="16.711635"><ele>60.5</ele><time>2026-04-26T14:01:35.486Z</time></trkpt><trkpt lat="40.545245" lon="16.711795"><ele>61.25</ele><time>2026-04-26T14:01:36.485Z</time></trkpt><trkpt lat="40.5451917" lon="16.711965"><ele>62.0</ele><time>2026-04-26T14:01:37.486Z</time></trkpt><trkpt lat="40.5451383" lon="16.712125"><ele>62.0</ele><time>2026-04-26T14:01:38.486Z</time></trkpt><trkpt lat="40.5450883" lon="16.7122717"><ele>62.0</ele><time>2026-04-26T14:01:39.486Z</time></trkpt><trkpt lat="40.54504" lon="16.7124217"><ele>62.0</ele><time>2026-04-26T14:01:40.485Z</time></trkpt><trkpt lat="40.5449917" lon="16.7125717"><ele>62.0</ele><time>2026-04-26T14:01:41.485Z</time></trkpt><trkpt lat="40.544935" lon="16.7127267"><ele>61.25</ele><time>2026-04-26T14:01:42.489Z</time></trkpt><trkpt lat="40.544875" lon="16.7128667"><ele>60.5</ele><time>2026-04-26T14:01:43.485Z</time></trkpt><trkpt lat="40.5448133" lon="16.713"><ele>59.75</ele><time>2026-04-26T14:01:44.488Z</time></trkpt><trkpt lat="40.544735" lon="16.7131317"><ele>59.0</ele><time>2026-04-26T14:01:45.486Z</time></trkpt><trkpt lat="40.54464" lon="16.713265"><ele>59.0</ele><time>2026-04-26T14:01:46.49Z</time></trkpt><trkpt lat="40.544535" lon="16.7134033"><ele>59.0</ele><time>2026-04-26T14:01:47.485Z</time></trkpt><trkpt lat="40.54443" lon="16.7135383"><ele>59.0</ele><time>2026-04-26T14:01:48.488Z</time></trkpt><trkpt lat="40.544325" lon="16.713675"><ele>59.0</ele><time>2026-04-26T14:01:49.486Z</time></trkpt><trkpt lat="40.54423" lon="16.7138067"><ele>59.0</ele><time>2026-04-26T14:01:50.487Z</time></trkpt><trkpt lat="40.54414" lon="16.713935"><ele>59.0</ele><time>2026-04-26T14:01:51.486Z</time></trkpt><trkpt lat="40.5440533" lon="16.714055"><ele>59.0</ele><time>2026-04-26T14:01:52.485Z</time></trkpt><trkpt lat="40.54397" lon="16.7141633"><ele>59.0</ele><time>2026-04-26T14:01:53.487Z</time></trkpt><trkpt lat="40.5438833" lon="16.71427"><ele>59.0</ele><time>2026-04-26T14:01:54.486Z</time></trkpt><trkpt lat="40.5437967" lon="16.7143783"><ele>59.0</ele><time>2026-04-26T14:01:55.489Z</time></trkpt><trkpt lat="40.5437167" lon="16.7144967"><ele>59.0</ele><time>2026-04-26T14:01:56.486Z</time></trkpt><trkpt lat="40.5436417" lon="16.7146167"><ele>59.0</ele><time>2026-04-26T14:01:57.486Z</time></trkpt><trkpt lat="40.5435683" lon="16.7147317"><ele>58.6</ele><time>2026-04-26T14:01:58.486Z</time></trkpt><trkpt lat="40.5434933" lon="16.7148417"><ele>58.2</ele><time>2026-04-26T14:01:59.485Z</time></trkpt><trkpt lat="40.5434133" lon="16.7149383"><ele>57.800000000000004</ele><time>2026-04-26T14:02:00.486Z</time></trkpt><trkpt lat="40.5433283" lon="16.7150283"><ele>57.400000000000006</ele><time>2026-04-26T14:02:01.496Z</time></trkpt><trkpt lat="40.543225" lon="16.7151017"><ele>57.0</ele><time>2026-04-26T14:02:02.487Z</time></trkpt><trkpt lat="40.5431183" lon="16.7151583"><ele>57.0</ele><time>2026-04-26T14:02:03.486Z</time></trkpt><trkpt lat="40.5430017" lon="16.7152033"><ele>57.0</ele><time>2026-04-26T14:02:04.487Z</time></trkpt><trkpt lat="40.5428833" lon="16.7152467"><ele>57.0</ele><time>2026-04-26T14:02:05.486Z</time></trkpt><trkpt lat="40.5427717" lon="16.7152883"><ele>57.0</ele><time>2026-04-26T14:02:06.486Z</time></trkpt><trkpt lat="40.5426617" lon="16.71532"><ele>56.75</ele><time>2026-04-26T14:02:07.486Z</time></trkpt><trkpt lat="40.54255" lon="16.7153417"><ele>56.5</ele><time>2026-04-26T14:02:08.486Z</time></trkpt><trkpt lat="40.5424367" lon="16.7153433"><ele>56.25</ele><time>2026-04-26T14:02:09.486Z</time></trkpt><trkpt lat="40.54232" lon="16.7153417"><ele>56.0</ele><time>2026-04-26T14:02:10.487Z</time></trkpt><trkpt lat="40.5422033" lon="16.7153433"><ele>56.0</ele><time>2026-04-26T14:02:11.486Z</time></trkpt><trkpt lat="40.5420983" lon="16.71535"><ele>55.99999999999999</ele><time>2026-04-26T14:02:12.485Z</time></trkpt><trkpt lat="40.5420033" lon="16.715355"><ele>55.99999999999999</ele><time>2026-04-26T14:02:13.486Z</time></trkpt><trkpt lat="40.54191" lon="16.7153617"><ele>56.0</ele><time>2026-04-26T14:02:14.486Z</time></trkpt><trkpt lat="40.5418183" lon="16.7153783"><ele>56.0</ele><time>2026-04-26T14:02:15.485Z</time></trkpt><trkpt lat="40.5417283" lon="16.715415"><ele>56.599999999999994</ele><time>2026-04-26T14:02:16.485Z</time></trkpt><trkpt lat="40.5416483" lon="16.7154717"><ele>57.199999999999996</ele><time>2026-04-26T14:02:17.486Z</time></trkpt><trkpt lat="40.5415667" lon="16.7155467"><ele>57.800000000000004</ele><time>2026-04-26T14:02:18.486Z</time></trkpt><trkpt lat="40.541485" lon="16.7156317"><ele>58.400000000000006</ele><time>2026-04-26T14:02:19.486Z</time></trkpt><trkpt lat="40.5414017" lon="16.7156933"><ele>59.0</ele><time>2026-04-26T14:02:20.486Z</time></trkpt><trkpt lat="40.5413217" lon="16.71573"><ele>59.00000000000001</ele><time>2026-04-26T14:02:21.485Z</time></trkpt><trkpt lat="40.54124" lon="16.71575"><ele>59.0</ele><time>2026-04-26T14:02:22.485Z</time></trkpt><trkpt lat="40.541155" lon="16.7157317"><ele>59.0</ele><time>2026-04-26T14:02:23.485Z</time></trkpt><trkpt lat="40.54108" lon="16.7156767"><ele>59.0</ele><time>2026-04-26T14:02:24.486Z</time></trkpt><trkpt lat="40.541005" lon="16.71561"><ele>59.00000000000001</ele><time>2026-04-26T14:02:25.488Z</time></trkpt><trkpt lat="40.540935" lon="16.7155633"><ele>59.0</ele><time>2026-04-26T14:02:26.485Z</time></trkpt><trkpt lat="40.54087" lon="16.7155417"><ele>59.0</ele><time>2026-04-26T14:02:27.486Z</time></trkpt><trkpt lat="40.540795" lon="16.7155517"><ele>59.00000000000001</ele><time>2026-04-26T14:02:28.485Z</time></trkpt><trkpt lat="40.5406917" lon="16.7156217"><ele>59.00000000000001</ele><time>2026-04-26T14:02:29.485Z</time></trkpt><trkpt lat="40.5405917" lon="16.7157067"><ele>59.0</ele><time>2026-04-26T14:02:30.486Z</time></trkpt><trkpt lat="40.5405" lon="16.715785"><ele>59.0</ele><time>2026-04-26T14:02:31.485Z</time></trkpt><trkpt lat="40.5404033" lon="16.71585"><ele>59.66666666666667</ele><time>2026-04-26T14:02:32.486Z</time></trkpt><trkpt lat="40.5403067" lon="16.71589"><ele>60.333333333333336</ele><time>2026-04-26T14:02:33.487Z</time></trkpt><trkpt lat="40.5402117" lon="16.7159067"><ele>61.0</ele><time>2026-04-26T14:02:34.485Z</time></trkpt><trkpt lat="40.5401217" lon="16.7159"><ele>61.66666666666667</ele><time>2026-04-26T14:02:35.486Z</time></trkpt><trkpt lat="40.540045" lon="16.715875"><ele>62.333333333333336</ele><time>2026-04-26T14:02:36.485Z</time></trkpt><trkpt lat="40.5399783" lon="16.7158433"><ele>63.0</ele><time>2026-04-26T14:02:37.486Z</time></trkpt><trkpt lat="40.539865" lon="16.7158067"><ele>63.0</ele><time>2026-04-26T14:02:39.486Z</time></trkpt><trkpt lat="40.5397933" lon="16.7158033"><ele>63.0</ele><time>2026-04-26T14:02:40.485Z</time></trkpt><trkpt lat="40.5397117" lon="16.7158183"><ele>63.0</ele><time>2026-04-26T14:02:41.486Z</time></trkpt><trkpt lat="40.5396317" lon="16.7158417"><ele>63.0</ele><time>2026-04-26T14:02:42.486Z</time></trkpt><trkpt lat="40.5395267" lon="16.7158783"><ele>63.0</ele><time>2026-04-26T14:02:43.485Z</time></trkpt><trkpt lat="40.5394117" lon="16.71593"><ele>63.0</ele><time>2026-04-26T14:02:44.487Z</time></trkpt><trkpt lat="40.5393033" lon="16.7159883"><ele>63.0</ele><time>2026-04-26T14:02:45.485Z</time></trkpt><trkpt lat="40.5392017" lon="16.71604"><ele>63.0</ele><time>2026-04-26T14:02:46.485Z</time></trkpt><trkpt lat="40.5390967" lon="16.71608"><ele>63.0</ele><time>2026-04-26T14:02:47.485Z</time></trkpt><trkpt lat="40.5389983" lon="16.7161183"><ele>63.0</ele><time>2026-04-26T14:02:48.486Z</time></trkpt><trkpt lat="40.5389033" lon="16.7161617"><ele>62.4</ele><time>2026-04-26T14:02:49.487Z</time></trkpt><trkpt lat="40.538815" lon="16.716215"><ele>61.8</ele><time>2026-04-26T14:02:50.486Z</time></trkpt><trkpt lat="40.5387233" lon="16.71627"><ele>61.2</ele><time>2026-04-26T14:02:51.485Z</time></trkpt><trkpt lat="40.538625" lon="16.7163167"><ele>60.6</ele><time>2026-04-26T14:02:52.489Z</time></trkpt><trkpt lat="40.5385217" lon="16.716365"><ele>60.0</ele><time>2026-04-26T14:02:53.487Z</time></trkpt><trkpt lat="40.53842" lon="16.716405"><ele>60.0</ele><time>2026-04-26T14:02:54.486Z</time></trkpt><trkpt lat="40.5383183" lon="16.7164433"><ele>60.0</ele><time>2026-04-26T14:02:55.485Z</time></trkpt><trkpt lat="40.5382183" lon="16.7164767"><ele>60.0</ele><time>2026-04-26T14:02:56.485Z</time></trkpt><trkpt lat="40.53812" lon="16.7165083"><ele>60.0</ele><time>2026-04-26T14:02:57.484Z</time></trkpt><trkpt lat="40.538025" lon="16.71655"><ele>60.0</ele><time>2026-04-26T14:02:58.485Z</time></trkpt><trkpt lat="40.537935" lon="16.7166067"><ele>60.2</ele><time>2026-04-26T14:02:59.485Z</time></trkpt><trkpt lat="40.5378383" lon="16.7166583"><ele>60.4</ele><time>2026-04-26T14:03:00.484Z</time></trkpt><trkpt lat="40.53774" lon="16.7167117"><ele>60.599999999999994</ele><time>2026-04-26T14:03:01.485Z</time></trkpt><trkpt lat="40.537645" lon="16.7167683"><ele>60.8</ele><time>2026-04-26T14:03:02.486Z</time></trkpt><trkpt lat="40.5375533" lon="16.71682"><ele>61.0</ele><time>2026-04-26T14:03:03.485Z</time></trkpt><trkpt lat="40.5374667" lon="16.7168733"><ele>60.8</ele><time>2026-04-26T14:03:04.484Z</time></trkpt><trkpt lat="40.5373817" lon="16.7169317"><ele>60.599999999999994</ele><time>2026-04-26T14:03:05.484Z</time></trkpt><trkpt lat="40.5372967" lon="16.7170033"><ele>60.4</ele><time>2026-04-26T14:03:06.485Z</time></trkpt><trkpt lat="40.5372083" lon="16.7170783"><ele>60.2</ele><time>2026-04-26T14:03:07.487Z</time></trkpt><trkpt lat="40.537125" lon="16.7171533"><ele>60.0</ele><time>2026-04-26T14:03:08.485Z</time></trkpt><trkpt lat="40.53704" lon="16.7172317"><ele>60.0</ele><time>2026-04-26T14:03:09.484Z</time></trkpt><trkpt lat="40.5369567" lon="16.7173067"><ele>60.0</ele><time>2026-04-26T14:03:10.485Z</time></trkpt><trkpt lat="40.5368667" lon="16.71737"><ele>60.0</ele><time>2026-04-26T14:03:11.485Z</time></trkpt><trkpt lat="40.5367867" lon="16.7174317"><ele>60.0</ele><time>2026-04-26T14:03:12.484Z</time></trkpt><trkpt lat="40.5367117" lon="16.7174983"><ele>60.0</ele><time>2026-04-26T14:03:13.487Z</time></trkpt><trkpt lat="40.53663" lon="16.7175617"><ele>60.0</ele><time>2026-04-26T14:03:14.487Z</time></trkpt><trkpt lat="40.53655" lon="16.71762"><ele>60.0</ele><time>2026-04-26T14:03:15.485Z</time></trkpt><trkpt lat="40.5364733" lon="16.7176733"><ele>60.0</ele><time>2026-04-26T14:03:16.485Z</time></trkpt><trkpt lat="40.5364" lon="16.7177267"><ele>60.0</ele><time>2026-04-26T14:03:17.484Z</time></trkpt><trkpt lat="40.5363333" lon="16.717775"><ele>60.0</ele><time>2026-04-26T14:03:18.485Z</time></trkpt><trkpt lat="40.5362717" lon="16.7178183"><ele>60.0</ele><time>2026-04-26T14:03:19.485Z</time></trkpt><trkpt lat="40.5362083" lon="16.7178483"><ele>59.666666666666664</ele><time>2026-04-26T14:03:20.486Z</time></trkpt><trkpt lat="40.5361417" lon="16.7178667"><ele>59.33333333333333</ele><time>2026-04-26T14:03:21.485Z</time></trkpt><trkpt lat="40.53607" lon="16.717885"><ele>59.0</ele><time>2026-04-26T14:03:22.484Z</time></trkpt><trkpt lat="40.535995" lon="16.7179033"><ele>58.666666666666664</ele><time>2026-04-26T14:03:23.484Z</time></trkpt><trkpt lat="40.5359167" lon="16.71792"><ele>58.33333333333333</ele><time>2026-04-26T14:03:24.486Z</time></trkpt><trkpt lat="40.53584" lon="16.71793"><ele>58.0</ele><time>2026-04-26T14:03:25.484Z</time></trkpt><trkpt lat="40.5357633" lon="16.71794"><ele>57.99999999999999</ele><time>2026-04-26T14:03:26.486Z</time></trkpt><trkpt lat="40.5356883" lon="16.7179533"><ele>58.0</ele><time>2026-04-26T14:03:27.485Z</time></trkpt><trkpt lat="40.5356133" lon="16.7179667"><ele>58.0</ele><time>2026-04-26T14:03:28.485Z</time></trkpt><trkpt lat="40.5355383" lon="16.717975"><ele>58.0</ele><time>2026-04-26T14:03:29.484Z</time></trkpt><trkpt lat="40.5354633" lon="16.71798"><ele>57.99999999999999</ele><time>2026-04-26T14:03:30.485Z</time></trkpt><trkpt lat="40.53539" lon="16.71798"><ele>58.0</ele><time>2026-04-26T14:03:31.484Z</time></trkpt><trkpt lat="40.5353133" lon="16.7179833"><ele>58.49999999999999</ele><time>2026-04-26T14:03:32.485Z</time></trkpt><trkpt lat="40.5352333" lon="16.71799"><ele>59.0</ele><time>2026-04-26T14:03:33.485Z</time></trkpt><trkpt lat="40.5351517" lon="16.7179983"><ele>59.5</ele><time>2026-04-26T14:03:34.485Z</time></trkpt><trkpt lat="40.5350667" lon="16.7180083"><ele>60.0</ele><time>2026-04-26T14:03:35.486Z</time></trkpt><trkpt lat="40.534985" lon="16.7180183"><ele>60.49999999999999</ele><time>2026-04-26T14:03:36.484Z</time></trkpt><trkpt lat="40.5349033" lon="16.7180367"><ele>61.0</ele><time>2026-04-26T14:03:37.484Z</time></trkpt><trkpt lat="40.5348333" lon="16.7180433"><ele>61.0</ele><time>2026-04-26T14:03:38.485Z</time></trkpt><trkpt lat="40.53472" lon="16.7180817"><ele>60.99999999999999</ele><time>2026-04-26T14:03:40.485Z</time></trkpt><trkpt lat="40.53466" lon="16.7182017"><ele>60.99999999999999</ele><time>2026-04-26T14:03:42.484Z</time></trkpt><trkpt lat="40.53465" lon="16.718295"><ele>61.0</ele><time>2026-04-26T14:03:43.484Z</time></trkpt><trkpt lat="40.5346367" lon="16.7184"><ele>61.0</ele><time>2026-04-26T14:03:44.488Z</time></trkpt><trkpt lat="40.5346183" lon="16.7185133"><ele>60.4</ele><time>2026-04-26T14:03:45.484Z</time></trkpt><trkpt lat="40.5346" lon="16.7186317"><ele>59.8</ele><time>2026-04-26T14:03:46.486Z</time></trkpt><trkpt lat="40.534585" lon="16.7187483"><ele>59.199999999999996</ele><time>2026-04-26T14:03:47.484Z</time></trkpt><trkpt lat="40.53457" lon="16.7188733"><ele>58.599999999999994</ele><time>2026-04-26T14:03:48.483Z</time></trkpt><trkpt lat="40.5345617" lon="16.7189967"><ele>58.0</ele><time>2026-04-26T14:03:49.485Z</time></trkpt><trkpt lat="40.5345567" lon="16.7191117"><ele>59.49999999999999</ele><time>2026-04-26T14:03:50.485Z</time></trkpt><trkpt lat="40.53455" lon="16.7192167"><ele>61.0</ele><time>2026-04-26T14:03:51.485Z</time></trkpt><trkpt lat="40.534545" lon="16.7193217"><ele>62.5</ele><time>2026-04-26T14:03:52.488Z</time></trkpt><trkpt lat="40.5345433" lon="16.71943"><ele>64.0</ele><time>2026-04-26T14:03:53.485Z</time></trkpt><trkpt lat="40.534545" lon="16.71953"><ele>65.5</ele><time>2026-04-26T14:03:54.485Z</time></trkpt><trkpt lat="40.5345467" lon="16.7196317"><ele>67.0</ele><time>2026-04-26T14:03:55.484Z</time></trkpt><trkpt lat="40.5345467" lon="16.7197267"><ele>67.0</ele><time>2026-04-26T14:03:56.485Z</time></trkpt><trkpt lat="40.5345417" lon="16.7198133"><ele>67.0</ele><time>2026-04-26T14:03:57.487Z</time></trkpt><trkpt lat="40.5345283" lon="16.7198983"><ele>67.0</ele><time>2026-04-26T14:03:58.484Z</time></trkpt><trkpt lat="40.534505" lon="16.7199833"><ele>67.0</ele><time>2026-04-26T14:03:59.485Z</time></trkpt><trkpt lat="40.5344733" lon="16.720065"><ele>67.0</ele><time>2026-04-26T14:04:00.485Z</time></trkpt><trkpt lat="40.5344417" lon="16.720145"><ele>67.0</ele><time>2026-04-26T14:04:01.485Z</time></trkpt><trkpt lat="40.5344083" lon="16.7202317"><ele>67.0</ele><time>2026-04-26T14:04:02.485Z</time></trkpt><trkpt lat="40.53438" lon="16.7203217"><ele>65.83333333333333</ele><time>2026-04-26T14:04:03.484Z</time></trkpt><trkpt lat="40.534355" lon="16.7204167"><ele>64.66666666666666</ele><time>2026-04-26T14:04:04.486Z</time></trkpt><trkpt lat="40.5343333" lon="16.7205133"><ele>63.5</ele><time>2026-04-26T14:04:05.484Z</time></trkpt><trkpt lat="40.5343083" lon="16.72061"><ele>62.33333333333333</ele><time>2026-04-26T14:04:06.486Z</time></trkpt><trkpt lat="40.5342833" lon="16.7207017"><ele>61.166666666666664</ele><time>2026-04-26T14:04:07.485Z</time></trkpt><trkpt lat="40.5342583" lon="16.7207967"><ele>60.0</ele><time>2026-04-26T14:04:08.486Z</time></trkpt><trkpt lat="40.5342333" lon="16.7208833"><ele>60.0</ele><time>2026-04-26T14:04:09.486Z</time></trkpt><trkpt lat="40.5342033" lon="16.72096"><ele>60.0</ele><time>2026-04-26T14:04:10.485Z</time></trkpt><trkpt lat="40.5341683" lon="16.721035"><ele>60.0</ele><time>2026-04-26T14:04:11.485Z</time></trkpt><trkpt lat="40.5341333" lon="16.721105"><ele>60.0</ele><time>2026-04-26T14:04:12.486Z</time></trkpt><trkpt lat="40.534065" lon="16.7212267"><ele>60.0</ele><time>2026-04-26T14:04:14.486Z</time></trkpt><trkpt lat="40.53403" lon="16.72133"><ele>60.0</ele><time>2026-04-26T14:04:16.484Z</time></trkpt><trkpt lat="40.533995" lon="16.7214817"><ele>59.5</ele><time>2026-04-26T14:04:18.484Z</time></trkpt><trkpt lat="40.533985" lon="16.72157"><ele>59.0</ele><time>2026-04-26T14:04:19.484Z</time></trkpt><trkpt lat="40.5339683" lon="16.7216517"><ele>58.5</ele><time>2026-04-26T14:04:20.486Z</time></trkpt><trkpt lat="40.53396" lon="16.7217583"><ele>58.0</ele><time>2026-04-26T14:04:22.49Z</time></trkpt><trkpt lat="40.5339567" lon="16.721865"><ele>57.5</ele><time>2026-04-26T14:04:25.485Z</time></trkpt><trkpt lat="40.5339383" lon="16.7219667"><ele>57.0</ele><time>2026-04-26T14:04:27.484Z</time></trkpt><trkpt lat="40.53392" lon="16.7220717"><ele>56.57142857142857</ele><time>2026-04-26T14:04:29.487Z</time></trkpt><trkpt lat="40.5338967" lon="16.72216"><ele>56.14285714285714</ele><time>2026-04-26T14:04:31.485Z</time></trkpt><trkpt lat="40.5338683" lon="16.7222383"><ele>55.71428571428571</ele><time>2026-04-26T14:04:33.486Z</time></trkpt><trkpt lat="40.5339167" lon="16.722315"><ele>55.285714285714285</ele><time>2026-04-26T14:04:36.484Z</time></trkpt><trkpt lat="40.53398" lon="16.7222633"><ele>54.857142857142854</ele><time>2026-04-26T14:04:39.49Z</time></trkpt><trkpt lat="40.534" lon="16.7221817"><ele>54.42857142857143</ele><time>2026-04-26T14:04:41.485Z</time></trkpt><trkpt lat="40.5340317" lon="16.72207"><ele>54.0</ele><time>2026-04-26T14:04:43.485Z</time></trkpt><trkpt lat="40.534" lon="16.7219817"><ele>54.0</ele><time>2026-04-26T14:04:45.485Z</time></trkpt><trkpt lat="40.5339733" lon="16.7220633"><ele>54.0</ele><time>2026-04-26T14:04:57.488Z</time></trkpt><trkpt lat="40.53394" lon="16.7219583"><ele>54.0</ele><time>2026-04-26T14:05:01.485Z</time></trkpt><trkpt lat="40.533965" lon="16.72181"><ele>54.0</ele><time>2026-04-26T14:05:03.489Z</time></trkpt><trkpt lat="40.5339717" lon="16.7217267"><ele>54.0</ele><time>2026-04-26T14:05:04.485Z</time></trkpt><trkpt lat="40.53398" lon="16.7216333"><ele>54.0</ele><time>2026-04-26T14:05:05.485Z</time></trkpt><trkpt lat="40.5339883" lon="16.72154"><ele>54.5</ele><time>2026-04-26T14:05:06.484Z</time></trkpt><trkpt lat="40.534" lon="16.72145"><ele>55.0</ele><time>2026-04-26T14:05:07.485Z</time></trkpt><trkpt lat="40.53402" lon="16.7213667"><ele>55.5</ele><time>2026-04-26T14:05:08.486Z</time></trkpt><trkpt lat="40.534065" lon="16.7212217"><ele>56.0</ele><time>2026-04-26T14:05:10.486Z</time></trkpt><trkpt lat="40.5341" lon="16.721145"><ele>56.5</ele><time>2026-04-26T14:05:11.485Z</time></trkpt><trkpt lat="40.53414" lon="16.7210717"><ele>57.0</ele><time>2026-04-26T14:05:12.486Z</time></trkpt><trkpt lat="40.5341767" lon="16.720995"><ele>57.42857142857142</ele><time>2026-04-26T14:05:13.485Z</time></trkpt><trkpt lat="40.53421" lon="16.7209217"><ele>57.85714285714285</ele><time>2026-04-26T14:05:14.486Z</time></trkpt><trkpt lat="40.534235" lon="16.72084"><ele>58.285714285714285</ele><time>2026-04-26T14:05:15.485Z</time></trkpt><trkpt lat="40.5342583" lon="16.7207467"><ele>58.71428571428571</ele><time>2026-04-26T14:05:16.485Z</time></trkpt><trkpt lat="40.5342833" lon="16.7206533"><ele>59.14285714285714</ele><time>2026-04-26T14:05:17.485Z</time></trkpt><trkpt lat="40.53431" lon="16.7205617"><ele>59.57142857142857</ele><time>2026-04-26T14:05:18.49Z</time></trkpt><trkpt lat="40.53433" lon="16.7204667"><ele>60.0</ele><time>2026-04-26T14:05:19.485Z</time></trkpt><trkpt lat="40.53435" lon="16.7203683"><ele>60.0</ele><time>2026-04-26T14:05:20.488Z</time></trkpt><trkpt lat="40.534375" lon="16.7202717"><ele>60.0</ele><time>2026-04-26T14:05:21.485Z</time></trkpt><trkpt lat="40.5344117" lon="16.7201633"><ele>60.0</ele><time>2026-04-26T14:05:22.486Z</time></trkpt><trkpt lat="40.5344533" lon="16.7200533"><ele>60.0</ele><time>2026-04-26T14:05:23.487Z</time></trkpt><trkpt lat="40.534495" lon="16.719945"><ele>60.0</ele><time>2026-04-26T14:05:24.485Z</time></trkpt><trkpt lat="40.5345267" lon="16.7198367"><ele>60.0</ele><time>2026-04-26T14:05:25.486Z</time></trkpt><trkpt lat="40.53454" lon="16.71972"><ele>61.4</ele><time>2026-04-26T14:05:26.485Z</time></trkpt><trkpt lat="40.53454" lon="16.7195767"><ele>62.8</ele><time>2026-04-26T14:05:27.486Z</time></trkpt><trkpt lat="40.5345367" lon="16.7194217"><ele>64.2</ele><time>2026-04-26T14:05:28.485Z</time></trkpt><trkpt lat="40.534535" lon="16.7192733"><ele>65.6</ele><time>2026-04-26T14:05:29.485Z</time></trkpt><trkpt lat="40.5345433" lon="16.7191317"><ele>67.0</ele><time>2026-04-26T14:05:30.486Z</time></trkpt><trkpt lat="40.5345483" lon="16.719005"><ele>66.0</ele><time>2026-04-26T14:05:31.486Z</time></trkpt><trkpt lat="40.5345533" lon="16.7188883"><ele>65.0</ele><time>2026-04-26T14:05:32.486Z</time></trkpt><trkpt lat="40.5345667" lon="16.7187833"><ele>64.0</ele><time>2026-04-26T14:05:33.485Z</time></trkpt><trkpt lat="40.53458" lon="16.7186783"><ele>63.0</ele><time>2026-04-26T14:05:34.487Z</time></trkpt><trkpt lat="40.5345933" lon="16.7185783"><ele>61.99999999999999</ele><time>2026-04-26T14:05:35.487Z</time></trkpt><trkpt lat="40.5346083" lon="16.71848"><ele>61.0</ele><time>2026-04-26T14:05:36.485Z</time></trkpt><trkpt lat="40.5346283" lon="16.7183867"><ele>61.0</ele><time>2026-04-26T14:05:37.485Z</time></trkpt><trkpt lat="40.53465" lon="16.7183017"><ele>60.99999999999999</ele><time>2026-04-26T14:05:38.486Z</time></trkpt><trkpt lat="40.534665" lon="16.7181417"><ele>60.99999999999999</ele><time>2026-04-26T14:05:40.486Z</time></trkpt><trkpt lat="40.5347383" lon="16.7180567"><ele>61.0</ele><time>2026-04-26T14:05:42.485Z</time></trkpt><trkpt lat="40.5348667" lon="16.7180417"><ele>61.0</ele><time>2026-04-26T14:05:44.486Z</time></trkpt><trkpt lat="40.53494" lon="16.7180333"><ele>60.99999999999999</ele><time>2026-04-26T14:05:45.485Z</time></trkpt><trkpt lat="40.5350117" lon="16.7180183"><ele>61.0</ele><time>2026-04-26T14:05:46.486Z</time></trkpt><trkpt lat="40.5350817" lon="16.7180083"><ele>60.99999999999999</ele><time>2026-04-26T14:05:47.485Z</time></trkpt><trkpt lat="40.53515" lon="16.7180033"><ele>60.99999999999999</ele><time>2026-04-26T14:05:48.485Z</time></trkpt><trkpt lat="40.5352167" lon="16.718005"><ele>61.0</ele><time>2026-04-26T14:05:49.485Z</time></trkpt><trkpt lat="40.5352817" lon="16.7179983"><ele>60.99999999999999</ele><time>2026-04-26T14:05:50.486Z</time></trkpt><trkpt lat="40.535345" lon="16.7179917"><ele>60.99999999999999</ele><time>2026-04-26T14:05:51.486Z</time></trkpt><trkpt lat="40.5354117" lon="16.717985"><ele>60.57142857142856</ele><time>2026-04-26T14:05:52.485Z</time></trkpt><trkpt lat="40.5354767" lon="16.7179817"><ele>60.14285714285714</ele><time>2026-04-26T14:05:53.487Z</time></trkpt><trkpt lat="40.5355433" lon="16.7179767"><ele>59.714285714285715</ele><time>2026-04-26T14:05:54.49Z</time></trkpt><trkpt lat="40.5356117" lon="16.7179683"><ele>59.285714285714285</ele><time>2026-04-26T14:05:55.486Z</time></trkpt><trkpt lat="40.53568" lon="16.71796"><ele>58.85714285714286</ele><time>2026-04-26T14:05:56.485Z</time></trkpt><trkpt lat="40.5357483" lon="16.7179467"><ele>58.42857142857144</ele><time>2026-04-26T14:05:57.485Z</time></trkpt><trkpt lat="40.5358167" lon="16.7179317"><ele>58.00000000000001</ele><time>2026-04-26T14:05:58.488Z</time></trkpt><trkpt lat="40.5358867" lon="16.7179233"><ele>57.99999999999999</ele><time>2026-04-26T14:05:59.486Z</time></trkpt><trkpt lat="40.5359533" lon="16.71792"><ele>58.0</ele><time>2026-04-26T14:06:00.485Z</time></trkpt><trkpt lat="40.53602" lon="16.7179133"><ele>58.0</ele><time>2026-04-26T14:06:01.485Z</time></trkpt><trkpt lat="40.5360917" lon="16.7178967"><ele>58.0</ele><time>2026-04-26T14:06:02.485Z</time></trkpt><trkpt lat="40.5361583" lon="16.71788"><ele>57.99999999999999</ele><time>2026-04-26T14:06:03.485Z</time></trkpt><trkpt lat="40.5362217" lon="16.7178683"><ele>58.0</ele><time>2026-04-26T14:06:04.489Z</time></trkpt><trkpt lat="40.5363367" lon="16.7177983"><ele>57.666666666666664</ele><time>2026-04-26T14:06:06.485Z</time></trkpt><trkpt lat="40.5363983" lon="16.71775"><ele>57.33333333333333</ele><time>2026-04-26T14:06:07.485Z</time></trkpt><trkpt lat="40.5364633" lon="16.7176917"><ele>57.0</ele><time>2026-04-26T14:06:08.486Z</time></trkpt><trkpt lat="40.5365333" lon="16.71763"><ele>56.66666666666667</ele><time>2026-04-26T14:06:09.485Z</time></trkpt><trkpt lat="40.5365983" lon="16.7175667"><ele>56.333333333333336</ele><time>2026-04-26T14:06:10.485Z</time></trkpt><trkpt lat="40.5366717" lon="16.7175083"><ele>56.0</ele><time>2026-04-26T14:06:11.487Z</time></trkpt><trkpt lat="40.5367433" lon="16.7174467"><ele>55.8</ele><time>2026-04-26T14:06:12.486Z</time></trkpt><trkpt lat="40.5368183" lon="16.7173833"><ele>55.599999999999994</ele><time>2026-04-26T14:06:13.487Z</time></trkpt><trkpt lat="40.5369017" lon="16.7173167"><ele>55.4</ele><time>2026-04-26T14:06:14.487Z</time></trkpt><trkpt lat="40.5369883" lon="16.7172467"><ele>55.2</ele><time>2026-04-26T14:06:15.485Z</time></trkpt><trkpt lat="40.5370733" lon="16.7171767"><ele>55.0</ele><time>2026-04-26T14:06:16.485Z</time></trkpt><trkpt lat="40.5371567" lon="16.717105"><ele>55.0</ele><time>2026-04-26T14:06:17.486Z</time></trkpt><trkpt lat="40.5372417" lon="16.7170333"><ele>55.0</ele><time>2026-04-26T14:06:18.486Z</time></trkpt><trkpt lat="40.5373283" lon="16.7169667"><ele>55.0</ele><time>2026-04-26T14:06:19.486Z</time></trkpt><trkpt lat="40.53742" lon="16.7169033"><ele>55.0</ele><time>2026-04-26T14:06:20.485Z</time></trkpt><trkpt lat="40.53751" lon="16.716845"><ele>55.0</ele><time>2026-04-26T14:06:21.488Z</time></trkpt><trkpt lat="40.5375933" lon="16.716795"><ele>55.83333333333333</ele><time>2026-04-26T14:06:22.485Z</time></trkpt><trkpt lat="40.5376733" lon="16.71675"><ele>56.666666666666664</ele><time>2026-04-26T14:06:23.485Z</time></trkpt><trkpt lat="40.5377483" lon="16.71671"><ele>57.5</ele><time>2026-04-26T14:06:24.486Z</time></trkpt><trkpt lat="40.537825" lon="16.71667"><ele>58.33333333333333</ele><time>2026-04-26T14:06:25.488Z</time></trkpt><trkpt lat="40.5379017" lon="16.7166267"><ele>59.166666666666664</ele><time>2026-04-26T14:06:26.486Z</time></trkpt><trkpt lat="40.5379667" lon="16.7165833"><ele>60.0</ele><time>2026-04-26T14:06:27.485Z</time></trkpt><trkpt lat="40.5380683" lon="16.7165283"><ele>60.0</ele><time>2026-04-26T14:06:29.485Z</time></trkpt><trkpt lat="40.5381633" lon="16.7164867"><ele>60.0</ele><time>2026-04-26T14:06:31.486Z</time></trkpt><trkpt lat="40.5382767" lon="16.7164517"><ele>60.0</ele><time>2026-04-26T14:06:33.485Z</time></trkpt><trkpt lat="40.5383467" lon="16.7164333"><ele>60.0</ele><time>2026-04-26T14:06:34.485Z</time></trkpt><trkpt lat="40.5384283" lon="16.7164033"><ele>60.0</ele><time>2026-04-26T14:06:35.486Z</time></trkpt><trkpt lat="40.5385133" lon="16.7163667"><ele>60.0</ele><time>2026-04-26T14:06:36.486Z</time></trkpt><trkpt lat="40.538605" lon="16.7163333"><ele>60.0</ele><time>2026-04-26T14:06:37.485Z</time></trkpt><trkpt lat="40.5387033" lon="16.7162933"><ele>60.0</ele><time>2026-04-26T14:06:38.488Z</time></trkpt><trkpt lat="40.5388083" lon="16.7162367"><ele>60.0</ele><time>2026-04-26T14:06:39.485Z</time></trkpt><trkpt lat="40.5389133" lon="16.7161767"><ele>60.0</ele><time>2026-04-26T14:06:40.485Z</time></trkpt><trkpt lat="40.5390217" lon="16.7161217"><ele>60.75</ele><time>2026-04-26T14:06:41.487Z</time></trkpt><trkpt lat="40.5391333" lon="16.7160767"><ele>61.5</ele><time>2026-04-26T14:06:42.485Z</time></trkpt><trkpt lat="40.5392433" lon="16.7160267"><ele>62.25</ele><time>2026-04-26T14:06:43.486Z</time></trkpt><trkpt lat="40.53935" lon="16.7159733"><ele>63.0</ele><time>2026-04-26T14:06:44.488Z</time></trkpt><trkpt lat="40.5394533" lon="16.7159267"><ele>63.0</ele><time>2026-04-26T14:06:45.485Z</time></trkpt><trkpt lat="40.5395517" lon="16.71589"><ele>63.0</ele><time>2026-04-26T14:06:46.487Z</time></trkpt><trkpt lat="40.539645" lon="16.715865"><ele>63.0</ele><time>2026-04-26T14:06:47.485Z</time></trkpt><trkpt lat="40.539735" lon="16.715845"><ele>63.0</ele><time>2026-04-26T14:06:48.486Z</time></trkpt><trkpt lat="40.5398183" lon="16.7158333"><ele>63.0</ele><time>2026-04-26T14:06:49.487Z</time></trkpt><trkpt lat="40.5399" lon="16.7158367"><ele>63.0</ele><time>2026-04-26T14:06:50.485Z</time></trkpt><trkpt lat="40.539975" lon="16.7158567"><ele>63.0</ele><time>2026-04-26T14:06:51.486Z</time></trkpt><trkpt lat="40.5400517" lon="16.71588"><ele>63.0</ele><time>2026-04-26T14:06:52.485Z</time></trkpt><trkpt lat="40.540125" lon="16.7158967"><ele>63.0</ele><time>2026-04-26T14:06:53.485Z</time></trkpt><trkpt lat="40.5402" lon="16.7159033"><ele>63.0</ele><time>2026-04-26T14:06:54.484Z</time></trkpt><trkpt lat="40.5402833" lon="16.7158917"><ele>63.0</ele><time>2026-04-26T14:06:55.485Z</time></trkpt><trkpt lat="40.5403667" lon="16.7158617"><ele>62.333333333333336</ele><time>2026-04-26T14:06:56.486Z</time></trkpt><trkpt lat="40.5404467" lon="16.71582"><ele>61.66666666666667</ele><time>2026-04-26T14:06:57.486Z</time></trkpt><trkpt lat="40.5405267" lon="16.7157683"><ele>61.0</ele><time>2026-04-26T14:06:58.487Z</time></trkpt><trkpt lat="40.5406017" lon="16.7157083"><ele>60.333333333333336</ele><time>2026-04-26T14:06:59.485Z</time></trkpt><trkpt lat="40.5406733" lon="16.7156567"><ele>59.66666666666667</ele><time>2026-04-26T14:07:00.485Z</time></trkpt><trkpt lat="40.5407433" lon="16.7156133"><ele>59.0</ele><time>2026-04-26T14:07:01.487Z</time></trkpt><trkpt lat="40.5408183" lon="16.7155783"><ele>59.00000000000001</ele><time>2026-04-26T14:07:02.485Z</time></trkpt><trkpt lat="40.5408967" lon="16.7155633"><ele>59.0</ele><time>2026-04-26T14:07:03.486Z</time></trkpt><trkpt lat="40.5409717" lon="16.7155833"><ele>59.0</ele><time>2026-04-26T14:07:04.485Z</time></trkpt><trkpt lat="40.54105" lon="16.7156333"><ele>59.0</ele><time>2026-04-26T14:07:05.486Z</time></trkpt><trkpt lat="40.5411267" lon="16.7156883"><ele>59.00000000000001</ele><time>2026-04-26T14:07:06.485Z</time></trkpt><trkpt lat="40.5411983" lon="16.7157217"><ele>59.0</ele><time>2026-04-26T14:07:07.485Z</time></trkpt><trkpt lat="40.5412767" lon="16.7157317"><ele>59.0</ele><time>2026-04-26T14:07:08.487Z</time></trkpt><trkpt lat="40.5413583" lon="16.7157167"><ele>59.00000000000001</ele><time>2026-04-26T14:07:09.486Z</time></trkpt><trkpt lat="40.5414483" lon="16.7156717"><ele>59.00000000000001</ele><time>2026-04-26T14:07:10.485Z</time></trkpt><trkpt lat="40.541535" lon="16.7156033"><ele>59.0</ele><time>2026-04-26T14:07:11.485Z</time></trkpt><trkpt lat="40.541615" lon="16.7155133"><ele>59.0</ele><time>2026-04-26T14:07:12.485Z</time></trkpt><trkpt lat="40.5416867" lon="16.7154333"><ele>59.0</ele><time>2026-04-26T14:07:13.485Z</time></trkpt><trkpt lat="40.541765" lon="16.7153733"><ele>59.00000000000001</ele><time>2026-04-26T14:07:14.485Z</time></trkpt><trkpt lat="40.5418633" lon="16.715345"><ele>59.00000000000001</ele><time>2026-04-26T14:07:15.486Z</time></trkpt><trkpt lat="40.541975" lon="16.7153483"><ele>59.0</ele><time>2026-04-26T14:07:16.485Z</time></trkpt><trkpt lat="40.5420983" lon="16.7153533"><ele>59.0</ele><time>2026-04-26T14:07:17.485Z</time></trkpt><trkpt lat="40.5422233" lon="16.7153517"><ele>58.400000000000006</ele><time>2026-04-26T14:07:18.485Z</time></trkpt><trkpt lat="40.5423383" lon="16.7153467"><ele>57.800000000000004</ele><time>2026-04-26T14:07:19.486Z</time></trkpt><trkpt lat="40.5424417" lon="16.7153417"><ele>57.199999999999996</ele><time>2026-04-26T14:07:20.486Z</time></trkpt><trkpt lat="40.5425417" lon="16.7153333"><ele>56.599999999999994</ele><time>2026-04-26T14:07:21.486Z</time></trkpt><trkpt lat="40.5426383" lon="16.7153217"><ele>56.0</ele><time>2026-04-26T14:07:22.486Z</time></trkpt><trkpt lat="40.5427367" lon="16.7152983"><ele>56.0</ele><time>2026-04-26T14:07:23.485Z</time></trkpt><trkpt lat="40.5428383" lon="16.7152633"><ele>55.99999999999999</ele><time>2026-04-26T14:07:24.485Z</time></trkpt><trkpt lat="40.542935" lon="16.715225"><ele>55.99999999999999</ele><time>2026-04-26T14:07:25.485Z</time></trkpt><trkpt lat="40.54303" lon="16.715185"><ele>56.0</ele><time>2026-04-26T14:07:26.485Z</time></trkpt><trkpt lat="40.5431217" lon="16.7151417"><ele>56.0</ele><time>2026-04-26T14:07:27.486Z</time></trkpt><trkpt lat="40.5432117" lon="16.71509"><ele>56.199999999999996</ele><time>2026-04-26T14:07:28.485Z</time></trkpt><trkpt lat="40.5433" lon="16.7150267"><ele>56.39999999999999</ele><time>2026-04-26T14:07:29.486Z</time></trkpt><trkpt lat="40.5433833" lon="16.714955"><ele>56.6</ele><time>2026-04-26T14:07:30.486Z</time></trkpt><trkpt lat="40.5434583" lon="16.7148733"><ele>56.8</ele><time>2026-04-26T14:07:31.486Z</time></trkpt><trkpt lat="40.5435317" lon="16.7147817"><ele>57.0</ele><time>2026-04-26T14:07:32.486Z</time></trkpt><trkpt lat="40.5436017" lon="16.7146833"><ele>57.0</ele><time>2026-04-26T14:07:33.486Z</time></trkpt><trkpt lat="40.5436683" lon="16.71458"><ele>57.0</ele><time>2026-04-26T14:07:34.486Z</time></trkpt><trkpt lat="40.543735" lon="16.7144767"><ele>57.0</ele><time>2026-04-26T14:07:35.485Z</time></trkpt><trkpt lat="40.543805" lon="16.7143767"><ele>57.0</ele><time>2026-04-26T14:07:36.485Z</time></trkpt><trkpt lat="40.5438833" lon="16.7142833"><ele>57.0</ele><time>2026-04-26T14:07:37.484Z</time></trkpt><trkpt lat="40.5439633" lon="16.714185"><ele>57.5</ele><time>2026-04-26T14:07:38.486Z</time></trkpt><trkpt lat="40.5440483" lon="16.71408"><ele>58.0</ele><time>2026-04-26T14:07:39.485Z</time></trkpt><trkpt lat="40.5441317" lon="16.7139717"><ele>58.5</ele><time>2026-04-26T14:07:40.49Z</time></trkpt><trkpt lat="40.54421" lon="16.713865"><ele>59.0</ele><time>2026-04-26T14:07:41.485Z</time></trkpt><trkpt lat="40.5442833" lon="16.7137633"><ele>59.0</ele><time>2026-04-26T14:07:42.484Z</time></trkpt><trkpt lat="40.5443567" lon="16.71366"><ele>59.00000000000001</ele><time>2026-04-26T14:07:43.486Z</time></trkpt><trkpt lat="40.5444333" lon="16.71356"><ele>59.00000000000001</ele><time>2026-04-26T14:07:44.486Z</time></trkpt><trkpt lat="40.5445067" lon="16.713465"><ele>59.0</ele><time>2026-04-26T14:07:45.484Z</time></trkpt><trkpt lat="40.54458" lon="16.7133733"><ele>59.0</ele><time>2026-04-26T14:07:46.485Z</time></trkpt><trkpt lat="40.5446533" lon="16.7132817"><ele>59.0</ele><time>2026-04-26T14:07:47.485Z</time></trkpt><trkpt lat="40.544725" lon="16.7131833"><ele>59.00000000000001</ele><time>2026-04-26T14:07:48.484Z</time></trkpt><trkpt lat="40.5447917" lon="16.71308"><ele>59.00000000000001</ele><time>2026-04-26T14:07:49.485Z</time></trkpt><trkpt lat="40.54485" lon="16.7129717"><ele>59.0</ele><time>2026-04-26T14:07:50.485Z</time></trkpt><trkpt lat="40.5449067" lon="16.71285"><ele>59.0</ele><time>2026-04-26T14:07:51.484Z</time></trkpt><trkpt lat="40.544955" lon="16.7127133"><ele>59.75</ele><time>2026-04-26T14:07:52.486Z</time></trkpt><trkpt lat="40.5449967" lon="16.712565"><ele>60.5</ele><time>2026-04-26T14:07:53.484Z</time></trkpt><trkpt lat="40.5450417" lon="16.712415"><ele>61.25</ele><time>2026-04-26T14:07:54.485Z</time></trkpt><trkpt lat="40.5450883" lon="16.712275"><ele>62.0</ele><time>2026-04-26T14:07:55.484Z</time></trkpt><trkpt lat="40.5451317" lon="16.7121417"><ele>62.0</ele><time>2026-04-26T14:07:56.487Z</time></trkpt><trkpt lat="40.5451833" lon="16.7120067"><ele>62.0</ele><time>2026-04-26T14:07:57.484Z</time></trkpt><trkpt lat="40.5452317" lon="16.71187"><ele>62.0</ele><time>2026-04-26T14:07:58.485Z</time></trkpt><trkpt lat="40.5452767" lon="16.7117317"><ele>62.0</ele><time>2026-04-26T14:07:59.484Z</time></trkpt><trkpt lat="40.5453217" lon="16.7116"><ele>62.2</ele><time>2026-04-26T14:08:00.485Z</time></trkpt><trkpt lat="40.5453683" lon="16.7114717"><ele>62.400000000000006</ele><time>2026-04-26T14:08:01.485Z</time></trkpt><trkpt lat="40.545415" lon="16.7113433"><ele>62.599999999999994</ele><time>2026-04-26T14:08:02.488Z</time></trkpt><trkpt lat="40.5454633" lon="16.7112133"><ele>62.8</ele><time>2026-04-26T14:08:03.484Z</time></trkpt><trkpt lat="40.5455083" lon="16.7110883"><ele>63.0</ele><time>2026-04-26T14:08:04.484Z</time></trkpt><trkpt lat="40.54556" lon="16.7109667"><ele>62.0</ele><time>2026-04-26T14:08:05.486Z</time></trkpt><trkpt lat="40.5456133" lon="16.7108417"><ele>61.0</ele><time>2026-04-26T14:08:06.485Z</time></trkpt><trkpt lat="40.5456667" lon="16.7107083"><ele>60.0</ele><time>2026-04-26T14:08:07.484Z</time></trkpt><trkpt lat="40.5457217" lon="16.7105617"><ele>59.0</ele><time>2026-04-26T14:08:08.485Z</time></trkpt><trkpt lat="40.54578" lon="16.7104183"><ele>59.0</ele><time>2026-04-26T14:08:09.485Z</time></trkpt><trkpt lat="40.545835" lon="16.7102817"><ele>59.0</ele><time>2026-04-26T14:08:10.484Z</time></trkpt><trkpt lat="40.5458883" lon="16.7101417"><ele>59.0</ele><time>2026-04-26T14:08:11.484Z</time></trkpt><trkpt lat="40.5459433" lon="16.7100033"><ele>59.0</ele><time>2026-04-26T14:08:12.485Z</time></trkpt><trkpt lat="40.5459983" lon="16.709875"><ele>59.25</ele><time>2026-04-26T14:08:13.484Z</time></trkpt><trkpt lat="40.5460583" lon="16.7097533"><ele>59.5</ele><time>2026-04-26T14:08:14.485Z</time></trkpt><trkpt lat="40.5461217" lon="16.709635"><ele>59.75</ele><time>2026-04-26T14:08:15.489Z</time></trkpt><trkpt lat="40.546185" lon="16.7095083"><ele>60.0</ele><time>2026-04-26T14:08:16.485Z</time></trkpt><trkpt lat="40.5462517" lon="16.7093667"><ele>60.25</ele><time>2026-04-26T14:08:17.485Z</time></trkpt><trkpt lat="40.54632" lon="16.7092267"><ele>60.5</ele><time>2026-04-26T14:08:18.485Z</time></trkpt><trkpt lat="40.5463917" lon="16.7090833"><ele>60.75</ele><time>2026-04-26T14:08:19.485Z</time></trkpt><trkpt lat="40.5464617" lon="16.7089433"><ele>61.0</ele><time>2026-04-26T14:08:20.485Z</time></trkpt><trkpt lat="40.5465333" lon="16.70881"><ele>61.0</ele><time>2026-04-26T14:08:21.485Z</time></trkpt><trkpt lat="40.5466033" lon="16.7086783"><ele>61.0</ele><time>2026-04-26T14:08:22.485Z</time></trkpt><trkpt lat="40.5466717" lon="16.7085517"><ele>61.0</ele><time>2026-04-26T14:08:23.485Z</time></trkpt><trkpt lat="40.5467367" lon="16.7084333"><ele>61.0</ele><time>2026-04-26T14:08:24.485Z</time></trkpt><trkpt lat="40.5468" lon="16.70832"><ele>61.199999999999996</ele><time>2026-04-26T14:08:25.486Z</time></trkpt><trkpt lat="40.5468633" lon="16.7082117"><ele>61.39999999999999</ele><time>2026-04-26T14:08:26.486Z</time></trkpt><trkpt lat="40.54693" lon="16.70811"><ele>61.6</ele><time>2026-04-26T14:08:27.485Z</time></trkpt><trkpt lat="40.547" lon="16.7080133"><ele>61.8</ele><time>2026-04-26T14:08:28.487Z</time></trkpt><trkpt lat="40.5470767" lon="16.707925"><ele>62.0</ele><time>2026-04-26T14:08:29.485Z</time></trkpt><trkpt lat="40.5471617" lon="16.7078383"><ele>62.25</ele><time>2026-04-26T14:08:30.484Z</time></trkpt><trkpt lat="40.5472533" lon="16.7077433"><ele>62.5</ele><time>2026-04-26T14:08:31.486Z</time></trkpt><trkpt lat="40.5473433" lon="16.7076417"><ele>62.75</ele><time>2026-04-26T14:08:32.488Z</time></trkpt><trkpt lat="40.5474283" lon="16.70754"><ele>63.0</ele><time>2026-04-26T14:08:33.485Z</time></trkpt><trkpt lat="40.5475017" lon="16.7074217"><ele>63.0</ele><time>2026-04-26T14:08:34.486Z</time></trkpt><trkpt lat="40.5475717" lon="16.7072917"><ele>63.0</ele><time>2026-04-26T14:08:35.486Z</time></trkpt><trkpt lat="40.5476233" lon="16.7071483"><ele>63.0</ele><time>2026-04-26T14:08:36.484Z</time></trkpt><trkpt lat="40.5476683" lon="16.7070033"><ele>63.0</ele><time>2026-04-26T14:08:37.485Z</time></trkpt><trkpt lat="40.5477083" lon="16.706865"><ele>63.166666666666664</ele><time>2026-04-26T14:08:38.486Z</time></trkpt><trkpt lat="40.5477517" lon="16.7067467"><ele>63.33333333333333</ele><time>2026-04-26T14:08:39.485Z</time></trkpt><trkpt lat="40.547795" lon="16.7066383"><ele>63.5</ele><time>2026-04-26T14:08:40.485Z</time></trkpt><trkpt lat="40.5478417" lon="16.706545"><ele>63.666666666666664</ele><time>2026-04-26T14:08:41.485Z</time></trkpt><trkpt lat="40.54789" lon="16.7064567"><ele>63.83333333333333</ele><time>2026-04-26T14:08:42.485Z</time></trkpt><trkpt lat="40.5479417" lon="16.7063633"><ele>64.0</ele><time>2026-04-26T14:08:43.485Z</time></trkpt><trkpt lat="40.5479917" lon="16.70628"><ele>63.6</ele><time>2026-04-26T14:08:44.486Z</time></trkpt><trkpt lat="40.5480467" lon="16.7061883"><ele>63.2</ele><time>2026-04-26T14:08:45.484Z</time></trkpt><trkpt lat="40.5480967" lon="16.7060817"><ele>62.800000000000004</ele><time>2026-04-26T14:08:46.485Z</time></trkpt><trkpt lat="40.5481467" lon="16.7059667"><ele>62.400000000000006</ele><time>2026-04-26T14:08:47.486Z</time></trkpt><trkpt lat="40.5482" lon="16.7058533"><ele>62.0</ele><time>2026-04-26T14:08:48.486Z</time></trkpt><trkpt lat="40.5482667" lon="16.705745"><ele>62.0</ele><time>2026-04-26T14:08:49.485Z</time></trkpt><trkpt lat="40.5483417" lon="16.7056367"><ele>62.0</ele><time>2026-04-26T14:08:50.485Z</time></trkpt><trkpt lat="40.5484217" lon="16.7055317"><ele>62.0</ele><time>2026-04-26T14:08:51.485Z</time></trkpt><trkpt lat="40.5485083" lon="16.7054367"><ele>62.0</ele><time>2026-04-26T14:08:52.485Z</time></trkpt><trkpt lat="40.54859" lon="16.7053383"><ele>62.0</ele><time>2026-04-26T14:08:53.484Z</time></trkpt><trkpt lat="40.5486683" lon="16.7052333"><ele>62.0</ele><time>2026-04-26T14:08:54.487Z</time></trkpt><trkpt lat="40.5487433" lon="16.7051133"><ele>62.0</ele><time>2026-04-26T14:08:55.486Z</time></trkpt><trkpt lat="40.5488217" lon="16.7049683"><ele>62.0</ele><time>2026-04-26T14:08:56.485Z</time></trkpt><trkpt lat="40.5489067" lon="16.7048067"><ele>62.0</ele><time>2026-04-26T14:08:57.485Z</time></trkpt><trkpt lat="40.5490017" lon="16.7046333"><ele>62.0</ele><time>2026-04-26T14:08:58.485Z</time></trkpt><trkpt lat="40.549105" lon="16.7044583"><ele>62.0</ele><time>2026-04-26T14:08:59.485Z</time></trkpt><trkpt lat="40.549205" lon="16.7042917"><ele>62.0</ele><time>2026-04-26T14:09:00.485Z</time></trkpt><trkpt lat="40.549305" lon="16.7041333"><ele>62.0</ele><time>2026-04-26T14:09:01.484Z</time></trkpt><trkpt lat="40.5494067" lon="16.7039767"><ele>62.0</ele><time>2026-04-26T14:09:02.485Z</time></trkpt><trkpt lat="40.5495117" lon="16.7038233"><ele>62.0</ele><time>2026-04-26T14:09:03.488Z</time></trkpt><trkpt lat="40.54962" lon="16.70367"><ele>62.333333333333336</ele><time>2026-04-26T14:09:04.486Z</time></trkpt><trkpt lat="40.5497317" lon="16.703515"><ele>62.66666666666667</ele><time>2026-04-26T14:09:05.486Z</time></trkpt><trkpt lat="40.549845" lon="16.7033583"><ele>63.0</ele><time>2026-04-26T14:09:06.485Z</time></trkpt><trkpt lat="40.5499567" lon="16.703205"><ele>63.0</ele><time>2026-04-26T14:09:07.486Z</time></trkpt><trkpt lat="40.550065" lon="16.7030517"><ele>63.0</ele><time>2026-04-26T14:09:08.485Z</time></trkpt><trkpt lat="40.5501667" lon="16.7029017"><ele>63.0</ele><time>2026-04-26T14:09:09.487Z</time></trkpt><trkpt lat="40.5502717" lon="16.7027517"><ele>62.33333333333333</ele><time>2026-04-26T14:09:10.484Z</time></trkpt><trkpt lat="40.5503783" lon="16.702605"><ele>61.666666666666664</ele><time>2026-04-26T14:09:11.486Z</time></trkpt><trkpt lat="40.550485" lon="16.70246"><ele>61.0</ele><time>2026-04-26T14:09:12.486Z</time></trkpt><trkpt lat="40.5505917" lon="16.7023167"><ele>61.0</ele><time>2026-04-26T14:09:13.486Z</time></trkpt><trkpt lat="40.5507033" lon="16.7021733"><ele>61.0</ele><time>2026-04-26T14:09:14.489Z</time></trkpt><trkpt lat="40.55082" lon="16.7020217"><ele>61.0</ele><time>2026-04-26T14:09:15.485Z</time></trkpt><trkpt lat="40.550935" lon="16.7018717"><ele>61.0</ele><time>2026-04-26T14:09:16.485Z</time></trkpt><trkpt lat="40.5510483" lon="16.701715"><ele>61.0</ele><time>2026-04-26T14:09:17.485Z</time></trkpt><trkpt lat="40.55116" lon="16.7015583"><ele>61.0</ele><time>2026-04-26T14:09:18.485Z</time></trkpt><trkpt lat="40.5512783" lon="16.7014"><ele>61.0</ele><time>2026-04-26T14:09:19.485Z</time></trkpt><trkpt lat="40.5514033" lon="16.70125"><ele>61.0</ele><time>2026-04-26T14:09:20.486Z</time></trkpt><trkpt lat="40.55153" lon="16.70111"><ele>61.0</ele><time>2026-04-26T14:09:21.487Z</time></trkpt><trkpt lat="40.5516517" lon="16.7009767"><ele>61.25</ele><time>2026-04-26T14:09:22.485Z</time></trkpt><trkpt lat="40.5517683" lon="16.70085"><ele>61.5</ele><time>2026-04-26T14:09:23.486Z</time></trkpt><trkpt lat="40.5518867" lon="16.7007467"><ele>61.75</ele><time>2026-04-26T14:09:24.486Z</time></trkpt><trkpt lat="40.5520183" lon="16.7006583"><ele>62.0</ele><time>2026-04-26T14:09:25.485Z</time></trkpt><trkpt lat="40.5521633" lon="16.700575"><ele>62.0</ele><time>2026-04-26T14:09:26.485Z</time></trkpt><trkpt lat="40.552315" lon="16.7004967"><ele>62.0</ele><time>2026-04-26T14:09:27.485Z</time></trkpt><trkpt lat="40.55247" lon="16.7004217"><ele>62.0</ele><time>2026-04-26T14:09:28.488Z</time></trkpt><trkpt lat="40.5526333" lon="16.7003417"><ele>62.0</ele><time>2026-04-26T14:09:29.486Z</time></trkpt><trkpt lat="40.5527983" lon="16.7002717"><ele>62.0</ele><time>2026-04-26T14:09:30.486Z</time></trkpt><trkpt lat="40.5529667" lon="16.7002033"><ele>62.0</ele><time>2026-04-26T14:09:31.486Z</time></trkpt><trkpt lat="40.5531383" lon="16.7001367"><ele>62.66666666666667</ele><time>2026-04-26T14:09:32.486Z</time></trkpt><trkpt lat="40.5533083" lon="16.7000733"><ele>63.33333333333333</ele><time>2026-04-26T14:09:33.486Z</time></trkpt><trkpt lat="40.55348" lon="16.7000067"><ele>64.0</ele><time>2026-04-26T14:09:34.485Z</time></trkpt><trkpt lat="40.5536517" lon="16.6999383"><ele>64.33333333333333</ele><time>2026-04-26T14:09:35.485Z</time></trkpt><trkpt lat="40.55382" lon="16.6998683"><ele>64.66666666666667</ele><time>2026-04-26T14:09:36.485Z</time></trkpt><trkpt lat="40.55399" lon="16.6998"><ele>65.0</ele><time>2026-04-26T14:09:37.485Z</time></trkpt><trkpt lat="40.5541633" lon="16.69973"><ele>65.0</ele><time>2026-04-26T14:09:38.486Z</time></trkpt><trkpt lat="40.5543333" lon="16.6996617"><ele>65.0</ele><time>2026-04-26T14:09:39.487Z</time></trkpt><trkpt lat="40.55451" lon="16.6995833"><ele>65.0</ele><time>2026-04-26T14:09:40.485Z</time></trkpt><trkpt lat="40.5546833" lon="16.6995033"><ele>65.0</ele><time>2026-04-26T14:09:41.486Z</time></trkpt><trkpt lat="40.55485" lon="16.699425"><ele>65.0</ele><time>2026-04-26T14:09:42.485Z</time></trkpt><trkpt lat="40.5550167" lon="16.699345"><ele>65.0</ele><time>2026-04-26T14:09:43.486Z</time></trkpt><trkpt lat="40.55518" lon="16.699265"><ele>65.33333333333334</ele><time>2026-04-26T14:09:44.486Z</time></trkpt><trkpt lat="40.5553417" lon="16.699185"><ele>65.66666666666667</ele><time>2026-04-26T14:09:45.485Z</time></trkpt><trkpt lat="40.5555017" lon="16.6991083"><ele>66.0</ele><time>2026-04-26T14:09:46.485Z</time></trkpt><trkpt lat="40.5556583" lon="16.6990283"><ele>66.0</ele><time>2026-04-26T14:09:47.485Z</time></trkpt><trkpt lat="40.5558117" lon="16.6989433"><ele>66.0</ele><time>2026-04-26T14:09:48.486Z</time></trkpt><trkpt lat="40.55596" lon="16.698845"><ele>66.0</ele><time>2026-04-26T14:09:49.485Z</time></trkpt><trkpt lat="40.5561017" lon="16.6987233"><ele>66.33333333333333</ele><time>2026-04-26T14:09:50.486Z</time></trkpt><trkpt lat="40.5562367" lon="16.6985767"><ele>66.66666666666666</ele><time>2026-04-26T14:09:51.485Z</time></trkpt><trkpt lat="40.5563683" lon="16.6984217"><ele>67.0</ele><time>2026-04-26T14:09:52.485Z</time></trkpt><trkpt lat="40.5564917" lon="16.6982567"><ele>67.0</ele><time>2026-04-26T14:09:53.485Z</time></trkpt><trkpt lat="40.5566" lon="16.69808"><ele>67.0</ele><time>2026-04-26T14:09:54.485Z</time></trkpt><trkpt lat="40.5567033" lon="16.6978933"><ele>67.0</ele><time>2026-04-26T14:09:55.485Z</time></trkpt><trkpt lat="40.5568067" lon="16.697705"><ele>68.0</ele><time>2026-04-26T14:09:56.486Z</time></trkpt><trkpt lat="40.5569117" lon="16.6975233"><ele>69.0</ele><time>2026-04-26T14:09:57.486Z</time></trkpt><trkpt lat="40.5570167" lon="16.697345"><ele>70.0</ele><time>2026-04-26T14:09:58.485Z</time></trkpt><trkpt lat="40.557125" lon="16.69717"><ele>70.0</ele><time>2026-04-26T14:09:59.486Z</time></trkpt><trkpt lat="40.55723" lon="16.69701"><ele>70.0</ele><time>2026-04-26T14:10:00.486Z</time></trkpt><trkpt lat="40.55733" lon="16.6968683"><ele>70.0</ele><time>2026-04-26T14:10:01.485Z</time></trkpt><trkpt lat="40.55742" lon="16.6967467"><ele>70.0</ele><time>2026-04-26T14:10:02.485Z</time></trkpt><trkpt lat="40.5574967" lon="16.6966433"><ele>70.33333333333333</ele><time>2026-04-26T14:10:03.485Z</time></trkpt><trkpt lat="40.5575667" lon="16.696555"><ele>70.66666666666666</ele><time>2026-04-26T14:10:04.486Z</time></trkpt><trkpt lat="40.5576317" lon="16.6964883"><ele>71.0</ele><time>2026-04-26T14:10:05.486Z</time></trkpt><trkpt lat="40.5576967" lon="16.69643"><ele>71.33333333333333</ele><time>2026-04-26T14:10:07.485Z</time></trkpt><trkpt lat="40.557735" lon="16.6963533"><ele>71.66666666666667</ele><time>2026-04-26T14:10:12.485Z</time></trkpt><trkpt lat="40.5577567" lon="16.6962733"><ele>72.0</ele><time>2026-04-26T14:10:14.485Z</time></trkpt><trkpt lat="40.557805" lon="16.6961133"><ele>72.33333333333333</ele><time>2026-04-26T14:10:16.486Z</time></trkpt><trkpt lat="40.557835" lon="16.6960167"><ele>72.66666666666667</ele><time>2026-04-26T14:10:17.485Z</time></trkpt><trkpt lat="40.5578633" lon="16.69591"><ele>73.0</ele><time>2026-04-26T14:10:18.485Z</time></trkpt><trkpt lat="40.5578883" lon="16.695795"><ele>73.33333333333334</ele><time>2026-04-26T14:10:19.486Z</time></trkpt><trkpt lat="40.5579117" lon="16.6956783"><ele>73.66666666666667</ele><time>2026-04-26T14:10:20.487Z</time></trkpt><trkpt lat="40.5579383" lon="16.69556"><ele>74.0</ele><time>2026-04-26T14:10:21.485Z</time></trkpt><trkpt lat="40.557965" lon="16.6954383"><ele>74.2</ele><time>2026-04-26T14:10:22.485Z</time></trkpt><trkpt lat="40.5579967" lon="16.6953183"><ele>74.4</ele><time>2026-04-26T14:10:23.485Z</time></trkpt><trkpt lat="40.5580317" lon="16.6951983"><ele>74.6</ele><time>2026-04-26T14:10:24.485Z</time></trkpt><trkpt lat="40.558065" lon="16.6950783"><ele>74.8</ele><time>2026-04-26T14:10:25.486Z</time></trkpt><trkpt lat="40.5580983" lon="16.6949567"><ele>75.0</ele><time>2026-04-26T14:10:26.487Z</time></trkpt><trkpt lat="40.5581417" lon="16.69484"><ele>75.6</ele><time>2026-04-26T14:10:27.485Z</time></trkpt><trkpt lat="40.5581817" lon="16.6947283"><ele>76.2</ele><time>2026-04-26T14:10:28.486Z</time></trkpt><trkpt lat="40.5582217" lon="16.6946167"><ele>76.8</ele><time>2026-04-26T14:10:29.485Z</time></trkpt><trkpt lat="40.5582567" lon="16.694505"><ele>77.4</ele><time>2026-04-26T14:10:30.485Z</time></trkpt><trkpt lat="40.5582917" lon="16.6943983"><ele>78.0</ele><time>2026-04-26T14:10:31.485Z</time></trkpt><trkpt lat="40.558325" lon="16.6942867"><ele>78.0</ele><time>2026-04-26T14:10:32.485Z</time></trkpt><trkpt lat="40.5583567" lon="16.6941717"><ele>78.0</ele><time>2026-04-26T14:10:33.486Z</time></trkpt><trkpt lat="40.5583883" lon="16.69406"><ele>78.0</ele><time>2026-04-26T14:10:34.486Z</time></trkpt><trkpt lat="40.55842" lon="16.69395"><ele>78.0</ele><time>2026-04-26T14:10:35.486Z</time></trkpt><trkpt lat="40.5584517" lon="16.69384"><ele>78.0</ele><time>2026-04-26T14:10:36.486Z</time></trkpt><trkpt lat="40.5584867" lon="16.693735"><ele>78.0</ele><time>2026-04-26T14:10:37.486Z</time></trkpt><trkpt lat="40.55852" lon="16.6936367"><ele>78.33333333333333</ele><time>2026-04-26T14:10:38.487Z</time></trkpt><trkpt lat="40.5585417" lon="16.6935283"><ele>78.66666666666667</ele><time>2026-04-26T14:10:39.485Z</time></trkpt><trkpt lat="40.5585417" lon="16.693405"><ele>79.0</ele><time>2026-04-26T14:10:40.485Z</time></trkpt><trkpt lat="40.55853" lon="16.6932883"><ele>79.33333333333334</ele><time>2026-04-26T14:10:41.485Z</time></trkpt><trkpt lat="40.5585167" lon="16.6931883"><ele>79.66666666666667</ele><time>2026-04-26T14:10:42.485Z</time></trkpt><trkpt lat="40.5585117" lon="16.693105"><ele>80.0</ele><time>2026-04-26T14:10:43.486Z</time></trkpt><trkpt lat="40.5585483" lon="16.6930283"><ele>80.0</ele><time>2026-04-26T14:10:46.486Z</time></trkpt><trkpt lat="40.5586317" lon="16.6929433"><ele>80.0</ele><time>2026-04-26T14:10:49.485Z</time></trkpt><trkpt lat="40.558705" lon="16.69283"><ele>80.0</ele><time>2026-04-26T14:10:51.485Z</time></trkpt><trkpt lat="40.55874" lon="16.6927533"><ele>80.0</ele><time>2026-04-26T14:10:52.487Z</time></trkpt><trkpt lat="40.5587733" lon="16.6926683"><ele>80.0</ele><time>2026-04-26T14:10:53.486Z</time></trkpt><trkpt lat="40.5588067" lon="16.6925817"><ele>80.0</ele><time>2026-04-26T14:10:54.485Z</time></trkpt><trkpt lat="40.5588433" lon="16.6924967"><ele>81.0</ele><time>2026-04-26T14:10:55.486Z</time></trkpt><trkpt lat="40.5588783" lon="16.69241"><ele>82.0</ele><time>2026-04-26T14:10:56.486Z</time></trkpt><trkpt lat="40.5589133" lon="16.6923183"><ele>83.0</ele><time>2026-04-26T14:10:57.486Z</time></trkpt><trkpt lat="40.558945" lon="16.692225"><ele>84.0</ele><time>2026-04-26T14:10:58.486Z</time></trkpt><trkpt lat="40.55898" lon="16.6921383"><ele>85.0</ele><time>2026-04-26T14:10:59.486Z</time></trkpt><trkpt lat="40.5590167" lon="16.6920517"><ele>86.0</ele><time>2026-04-26T14:11:00.486Z</time></trkpt><trkpt lat="40.5590517" lon="16.691965"><ele>85.71428571428572</ele><time>2026-04-26T14:11:01.486Z</time></trkpt><trkpt lat="40.5590867" lon="16.6918767"><ele>85.42857142857143</ele><time>2026-04-26T14:11:02.486Z</time></trkpt><trkpt lat="40.55912" lon="16.69179"><ele>85.14285714285714</ele><time>2026-04-26T14:11:03.486Z</time></trkpt><trkpt lat="40.5591533" lon="16.6917017"><ele>84.85714285714286</ele><time>2026-04-26T14:11:04.486Z</time></trkpt><trkpt lat="40.559185" lon="16.691615"><ele>84.57142857142857</ele><time>2026-04-26T14:11:05.485Z</time></trkpt><trkpt lat="40.5592183" lon="16.6915267"><ele>84.28571428571429</ele><time>2026-04-26T14:11:06.486Z</time></trkpt><trkpt lat="40.55925" lon="16.69144"><ele>84.0</ele><time>2026-04-26T14:11:07.485Z</time></trkpt><trkpt lat="40.55928" lon="16.691355"><ele>84.0</ele><time>2026-04-26T14:11:08.486Z</time></trkpt><trkpt lat="40.55931" lon="16.69127"><ele>84.0</ele><time>2026-04-26T14:11:09.487Z</time></trkpt><trkpt lat="40.5593383" lon="16.6911833"><ele>84.0</ele><time>2026-04-26T14:11:10.485Z</time></trkpt><trkpt lat="40.559365" lon="16.6910983"><ele>84.0</ele><time>2026-04-26T14:11:11.487Z</time></trkpt><trkpt lat="40.5593933" lon="16.69102"><ele>84.0</ele><time>2026-04-26T14:11:12.485Z</time></trkpt><trkpt lat="40.5594583" lon="16.6909167"><ele>84.0</ele><time>2026-04-26T14:11:14.486Z</time></trkpt><trkpt lat="40.5595267" lon="16.6909033"><ele>84.80000000000001</ele><time>2026-04-26T14:11:16.484Z</time></trkpt><trkpt lat="40.5596233" lon="16.69101"><ele>85.60000000000001</ele><time>2026-04-26T14:11:18.485Z</time></trkpt><trkpt lat="40.559685" lon="16.6911033"><ele>86.4</ele><time>2026-04-26T14:11:19.485Z</time></trkpt><trkpt lat="40.5597567" lon="16.6911917"><ele>87.2</ele><time>2026-04-26T14:11:20.487Z</time></trkpt><trkpt lat="40.55983" lon="16.6912667"><ele>88.0</ele><time>2026-04-26T14:11:21.486Z</time></trkpt><trkpt lat="40.55991" lon="16.6913383"><ele>88.0</ele><time>2026-04-26T14:11:22.485Z</time></trkpt><trkpt lat="40.5599933" lon="16.691395"><ele>88.0</ele><time>2026-04-26T14:11:23.487Z</time></trkpt><trkpt lat="40.5600867" lon="16.69144"><ele>88.0</ele><time>2026-04-26T14:11:24.486Z</time></trkpt><trkpt lat="40.5601883" lon="16.69147"><ele>88.0</ele><time>2026-04-26T14:11:25.486Z</time></trkpt><trkpt lat="40.5602883" lon="16.6914883"><ele>88.0</ele><time>2026-04-26T14:11:26.485Z</time></trkpt><trkpt lat="40.56038" lon="16.6914983"><ele>88.0</ele><time>2026-04-26T14:11:27.485Z</time></trkpt><trkpt lat="40.56045" lon="16.6915017"><ele>88.0</ele><time>2026-04-26T14:11:28.486Z</time></trkpt><trkpt lat="40.56052" lon="16.6915083"><ele>88.0</ele><time>2026-04-26T14:11:30.486Z</time></trkpt><trkpt lat="40.5605583" lon="16.6914333"><ele>88.0</ele><time>2026-04-26T14:11:45.486Z</time></trkpt><trkpt lat="40.56059" lon="16.6913533"><ele>88.0</ele><time>2026-04-26T14:11:46.485Z</time></trkpt><trkpt lat="40.5606283" lon="16.69126"><ele>88.0</ele><time>2026-04-26T14:11:47.486Z</time></trkpt><trkpt lat="40.5606717" lon="16.6911583"><ele>88.0</ele><time>2026-04-26T14:11:48.486Z</time></trkpt><trkpt lat="40.5607133" lon="16.691065"><ele>88.33333333333333</ele><time>2026-04-26T14:11:49.488Z</time></trkpt><trkpt lat="40.5607517" lon="16.6909717"><ele>88.66666666666666</ele><time>2026-04-26T14:11:50.486Z</time></trkpt><trkpt lat="40.5607867" lon="16.690875"><ele>89.0</ele><time>2026-04-26T14:11:51.486Z</time></trkpt><trkpt lat="40.5608233" lon="16.69077"><ele>89.33333333333333</ele><time>2026-04-26T14:11:52.485Z</time></trkpt><trkpt lat="40.5608617" lon="16.6906617"><ele>89.66666666666667</ele><time>2026-04-26T14:11:53.485Z</time></trkpt><trkpt lat="40.560905" lon="16.69055"><ele>90.0</ele><time>2026-04-26T14:11:54.485Z</time></trkpt><trkpt lat="40.5609533" lon="16.69044"><ele>90.0</ele><time>2026-04-26T14:11:55.486Z</time></trkpt><trkpt lat="40.561" lon="16.6903317"><ele>90.0</ele><time>2026-04-26T14:11:56.486Z</time></trkpt><trkpt lat="40.5610467" lon="16.69022"><ele>90.0</ele><time>2026-04-26T14:11:57.486Z</time></trkpt><trkpt lat="40.561095" lon="16.690105"><ele>90.0</ele><time>2026-04-26T14:11:58.486Z</time></trkpt><trkpt lat="40.5611433" lon="16.6899917"><ele>90.0</ele><time>2026-04-26T14:11:59.485Z</time></trkpt><trkpt lat="40.5611933" lon="16.6898867"><ele>89.33333333333333</ele><time>2026-04-26T14:12:00.485Z</time></trkpt><trkpt lat="40.5612383" lon="16.6897883"><ele>88.66666666666667</ele><time>2026-04-26T14:12:01.486Z</time></trkpt><trkpt lat="40.5612767" lon="16.6896883"><ele>88.0</ele><time>2026-04-26T14:12:02.486Z</time></trkpt><trkpt lat="40.56131" lon="16.689585"><ele>87.33333333333334</ele><time>2026-04-26T14:12:03.485Z</time></trkpt><trkpt lat="40.5613433" lon="16.6894733"><ele>86.66666666666667</ele><time>2026-04-26T14:12:04.486Z</time></trkpt><trkpt lat="40.5613817" lon="16.689355"><ele>86.0</ele><time>2026-04-26T14:12:05.487Z</time></trkpt><trkpt lat="40.5614217" lon="16.68924"><ele>87.6</ele><time>2026-04-26T14:12:06.485Z</time></trkpt><trkpt lat="40.5614633" lon="16.6891283"><ele>89.19999999999999</ele><time>2026-04-26T14:12:07.486Z</time></trkpt><trkpt lat="40.5615117" lon="16.6890217"><ele>90.80000000000001</ele><time>2026-04-26T14:12:08.487Z</time></trkpt><trkpt lat="40.56156" lon="16.6889167"><ele>92.4</ele><time>2026-04-26T14:12:09.486Z</time></trkpt><trkpt lat="40.5616117" lon="16.6888133"><ele>94.0</ele><time>2026-04-26T14:12:10.486Z</time></trkpt><trkpt lat="40.5616567" lon="16.688705"><ele>95.16666666666666</ele><time>2026-04-26T14:12:11.485Z</time></trkpt><trkpt lat="40.5617" lon="16.68859"><ele>96.33333333333333</ele><time>2026-04-26T14:12:12.487Z</time></trkpt><trkpt lat="40.561735" lon="16.6884767"><ele>97.5</ele><time>2026-04-26T14:12:13.486Z</time></trkpt><trkpt lat="40.561765" lon="16.6883667"><ele>98.66666666666666</ele><time>2026-04-26T14:12:14.49Z</time></trkpt><trkpt lat="40.56178" lon="16.6882717"><ele>99.83333333333333</ele><time>2026-04-26T14:12:15.485Z</time></trkpt><trkpt lat="40.56179" lon="16.688185"><ele>101.0</ele><time>2026-04-26T14:12:16.485Z</time></trkpt><trkpt lat="40.56179" lon="16.6880383"><ele>100.99999999999999</ele><time>2026-04-26T14:12:18.485Z</time></trkpt><trkpt lat="40.5618517" lon="16.688"><ele>101.0</ele><time>2026-04-26T14:12:24.485Z</time></trkpt><trkpt lat="40.5618717" lon="16.6881133"><ele>101.0</ele><time>2026-04-26T14:12:28.487Z</time></trkpt><trkpt lat="40.5618317" lon="16.6882033"><ele>101.0</ele><time>2026-04-26T14:12:30.485Z</time></trkpt><trkpt lat="40.5617783" lon="16.6883017"><ele>100.99999999999999</ele><time>2026-04-26T14:12:32.49Z</time></trkpt><trkpt lat="40.5617533" lon="16.6884333"><ele>101.0</ele><time>2026-04-26T14:12:34.486Z</time></trkpt><trkpt lat="40.5617133" lon="16.6885817"><ele>99.83333333333333</ele><time>2026-04-26T14:12:36.485Z</time></trkpt><trkpt lat="40.5616833" lon="16.6886567"><ele>98.66666666666666</ele><time>2026-04-26T14:12:37.485Z</time></trkpt><trkpt lat="40.561625" lon="16.68881"><ele>97.5</ele><time>2026-04-26T14:12:39.485Z</time></trkpt><trkpt lat="40.5615967" lon="16.68889"><ele>96.33333333333333</ele><time>2026-04-26T14:12:40.485Z</time></trkpt><trkpt lat="40.561555" lon="16.68896"><ele>95.16666666666666</ele><time>2026-04-26T14:12:41.485Z</time></trkpt><trkpt lat="40.5615117" lon="16.6890383"><ele>94.0</ele><time>2026-04-26T14:12:42.485Z</time></trkpt><trkpt lat="40.5614717" lon="16.6891217"><ele>94.0</ele><time>2026-04-26T14:12:43.487Z</time></trkpt><trkpt lat="40.5614317" lon="16.689215"><ele>94.0</ele><time>2026-04-26T14:12:44.486Z</time></trkpt><trkpt lat="40.5613933" lon="16.689315"><ele>94.0</ele><time>2026-04-26T14:12:45.486Z</time></trkpt><trkpt lat="40.5613567" lon="16.6894233"><ele>94.0</ele><time>2026-04-26T14:12:46.485Z</time></trkpt><trkpt lat="40.561325" lon="16.689525"><ele>94.0</ele><time>2026-04-26T14:12:47.486Z</time></trkpt><trkpt lat="40.5612983" lon="16.6896233"><ele>94.0</ele><time>2026-04-26T14:12:48.485Z</time></trkpt><trkpt lat="40.5612667" lon="16.6897167"><ele>93.83333333333333</ele><time>2026-04-26T14:12:49.485Z</time></trkpt><trkpt lat="40.561235" lon="16.6898183"><ele>93.66666666666666</ele><time>2026-04-26T14:12:50.485Z</time></trkpt><trkpt lat="40.5612017" lon="16.6899117"><ele>93.5</ele><time>2026-04-26T14:12:51.485Z</time></trkpt><trkpt lat="40.56116" lon="16.6900017"><ele>93.33333333333333</ele><time>2026-04-26T14:12:52.485Z</time></trkpt><trkpt lat="40.5611133" lon="16.6901017"><ele>93.16666666666667</ele><time>2026-04-26T14:12:53.486Z</time></trkpt><trkpt lat="40.5610683" lon="16.6902017"><ele>93.0</ele><time>2026-04-26T14:12:54.486Z</time></trkpt><trkpt lat="40.5610267" lon="16.6902983"><ele>92.5</ele><time>2026-04-26T14:12:55.485Z</time></trkpt><trkpt lat="40.560985" lon="16.690395"><ele>92.0</ele><time>2026-04-26T14:12:56.485Z</time></trkpt><trkpt lat="40.5609433" lon="16.6904917"><ele>91.5</ele><time>2026-04-26T14:12:57.485Z</time></trkpt><trkpt lat="40.5609033" lon="16.690585"><ele>91.0</ele><time>2026-04-26T14:12:58.485Z</time></trkpt><trkpt lat="40.560865" lon="16.69068"><ele>90.5</ele><time>2026-04-26T14:12:59.486Z</time></trkpt><trkpt lat="40.560825" lon="16.6907767"><ele>90.0</ele><time>2026-04-26T14:13:00.487Z</time></trkpt><trkpt lat="40.5607833" lon="16.6908767"><ele>90.0</ele><time>2026-04-26T14:13:01.485Z</time></trkpt><trkpt lat="40.5607417" lon="16.69098"><ele>90.0</ele><time>2026-04-26T14:13:02.486Z</time></trkpt><trkpt lat="40.5606983" lon="16.691085"><ele>90.0</ele><time>2026-04-26T14:13:03.485Z</time></trkpt><trkpt lat="40.560655" lon="16.69119"><ele>90.0</ele><time>2026-04-26T14:13:04.486Z</time></trkpt><trkpt lat="40.560615" lon="16.69129"><ele>90.0</ele><time>2026-04-26T14:13:05.485Z</time></trkpt><trkpt lat="40.5605767" lon="16.6913783"><ele>90.0</ele><time>2026-04-26T14:13:06.485Z</time></trkpt><trkpt lat="40.5605367" lon="16.6914517"><ele>89.66666666666667</ele><time>2026-04-26T14:13:07.485Z</time></trkpt><trkpt lat="40.5604467" lon="16.69153"><ele>89.33333333333333</ele><time>2026-04-26T14:13:09.485Z</time></trkpt><trkpt lat="40.5603233" lon="16.6915183"><ele>89.0</ele><time>2026-04-26T14:13:11.486Z</time></trkpt><trkpt lat="40.5602517" lon="16.691505"><ele>88.66666666666666</ele><time>2026-04-26T14:13:12.485Z</time></trkpt><trkpt lat="40.5601817" lon="16.691485"><ele>88.33333333333333</ele><time>2026-04-26T14:13:13.486Z</time></trkpt><trkpt lat="40.560115" lon="16.691465"><ele>88.0</ele><time>2026-04-26T14:13:14.486Z</time></trkpt><trkpt lat="40.5600533" lon="16.6914417"><ele>88.0</ele><time>2026-04-26T14:13:15.486Z</time></trkpt><trkpt lat="40.55999" lon="16.6914083"><ele>88.0</ele><time>2026-04-26T14:13:16.485Z</time></trkpt><trkpt lat="40.5599267" lon="16.6913767"><ele>88.0</ele><time>2026-04-26T14:13:17.485Z</time></trkpt><trkpt lat="40.5598667" lon="16.6913283"><ele>88.0</ele><time>2026-04-26T14:13:18.485Z</time></trkpt><trkpt lat="40.55981" lon="16.69127"><ele>88.0</ele><time>2026-04-26T14:13:19.49Z</time></trkpt><trkpt lat="40.5597567" lon="16.69121"><ele>88.0</ele><time>2026-04-26T14:13:20.485Z</time></trkpt><trkpt lat="40.5597033" lon="16.6911467"><ele>88.0</ele><time>2026-04-26T14:13:21.486Z</time></trkpt><trkpt lat="40.5596533" lon="16.6910833"><ele>88.0</ele><time>2026-04-26T14:13:22.485Z</time></trkpt><trkpt lat="40.5596067" lon="16.6910217"><ele>88.0</ele><time>2026-04-26T14:13:23.485Z</time></trkpt><trkpt lat="40.5595183" lon="16.6909317"><ele>88.0</ele><time>2026-04-26T14:13:25.485Z</time></trkpt><trkpt lat="40.5594267" lon="16.6909467"><ele>88.0</ele><time>2026-04-26T14:13:27.485Z</time></trkpt><trkpt lat="40.5593567" lon="16.6910633"><ele>88.0</ele><time>2026-04-26T14:13:29.485Z</time></trkpt><trkpt lat="40.5593283" lon="16.6911467"><ele>87.33333333333333</ele><time>2026-04-26T14:13:30.486Z</time></trkpt><trkpt lat="40.5592967" lon="16.6912467"><ele>86.66666666666666</ele><time>2026-04-26T14:13:31.487Z</time></trkpt><trkpt lat="40.55926" lon="16.691355"><ele>86.0</ele><time>2026-04-26T14:13:32.486Z</time></trkpt><trkpt lat="40.55922" lon="16.6914633"><ele>85.33333333333333</ele><time>2026-04-26T14:13:33.486Z</time></trkpt><trkpt lat="40.5591833" lon="16.6915733"><ele>84.66666666666667</ele><time>2026-04-26T14:13:34.488Z</time></trkpt><trkpt lat="40.5591467" lon="16.69168"><ele>84.0</ele><time>2026-04-26T14:13:35.485Z</time></trkpt><trkpt lat="40.5591117" lon="16.6917867"><ele>84.0</ele><time>2026-04-26T14:13:36.486Z</time></trkpt><trkpt lat="40.559075" lon="16.6918917"><ele>84.0</ele><time>2026-04-26T14:13:37.486Z</time></trkpt><trkpt lat="40.559035" lon="16.6919967"><ele>84.0</ele><time>2026-04-26T14:13:38.487Z</time></trkpt><trkpt lat="40.558995" lon="16.6921033"><ele>84.0</ele><time>2026-04-26T14:13:39.486Z</time></trkpt><trkpt lat="40.558955" lon="16.69221"><ele>84.0</ele><time>2026-04-26T14:13:40.485Z</time></trkpt><trkpt lat="40.558915" lon="16.6923117"><ele>84.0</ele><time>2026-04-26T14:13:41.485Z</time></trkpt><trkpt lat="40.558875" lon="16.69241"><ele>84.33333333333333</ele><time>2026-04-26T14:13:42.486Z</time></trkpt><trkpt lat="40.5588367" lon="16.692505"><ele>84.66666666666667</ele><time>2026-04-26T14:13:43.486Z</time></trkpt><trkpt lat="40.5588" lon="16.6926"><ele>85.0</ele><time>2026-04-26T14:13:44.485Z</time></trkpt><trkpt lat="40.5587617" lon="16.6926933"><ele>85.33333333333334</ele><time>2026-04-26T14:13:45.485Z</time></trkpt><trkpt lat="40.55872" lon="16.6927817"><ele>85.66666666666667</ele><time>2026-04-26T14:13:46.485Z</time></trkpt><trkpt lat="40.5586783" lon="16.6928633"><ele>86.0</ele><time>2026-04-26T14:13:47.486Z</time></trkpt><trkpt lat="40.5586333" lon="16.6929383"><ele>84.8</ele><time>2026-04-26T14:13:48.485Z</time></trkpt><trkpt lat="40.5585883" lon="16.6929967"><ele>83.6</ele><time>2026-04-26T14:13:49.485Z</time></trkpt><trkpt lat="40.55851" lon="16.6931"><ele>82.4</ele><time>2026-04-26T14:13:51.485Z</time></trkpt><trkpt lat="40.5584917" lon="16.6932433"><ele>81.2</ele><time>2026-04-26T14:13:53.485Z</time></trkpt><trkpt lat="40.558505" lon="16.6933433"><ele>80.0</ele><time>2026-04-26T14:13:54.487Z</time></trkpt><trkpt lat="40.5585217" lon="16.69346"><ele>80.0</ele><time>2026-04-26T14:13:55.485Z</time></trkpt><trkpt lat="40.5585217" lon="16.6935733"><ele>80.0</ele><time>2026-04-26T14:13:56.486Z</time></trkpt><trkpt lat="40.558505" lon="16.6936817"><ele>80.0</ele><time>2026-04-26T14:13:57.485Z</time></trkpt><trkpt lat="40.5584733" lon="16.6938083"><ele>80.0</ele><time>2026-04-26T14:13:58.485Z</time></trkpt><trkpt lat="40.5584233" lon="16.6939567"><ele>80.0</ele><time>2026-04-26T14:13:59.486Z</time></trkpt><trkpt lat="40.5583733" lon="16.6941183"><ele>79.5</ele><time>2026-04-26T14:14:00.485Z</time></trkpt><trkpt lat="40.5583233" lon="16.69429"><ele>79.0</ele><time>2026-04-26T14:14:01.486Z</time></trkpt><trkpt lat="40.5582783" lon="16.6944483"><ele>78.5</ele><time>2026-04-26T14:14:02.485Z</time></trkpt><trkpt lat="40.558235" lon="16.6945967"><ele>78.0</ele><time>2026-04-26T14:14:03.485Z</time></trkpt><trkpt lat="40.55819" lon="16.69474"><ele>78.0</ele><time>2026-04-26T14:14:04.485Z</time></trkpt><trkpt lat="40.558145" lon="16.6948817"><ele>78.0</ele><time>2026-04-26T14:14:05.485Z</time></trkpt><trkpt lat="40.5581067" lon="16.6950217"><ele>78.0</ele><time>2026-04-26T14:14:06.484Z</time></trkpt><trkpt lat="40.5580717" lon="16.6951583"><ele>78.0</ele><time>2026-04-26T14:14:07.487Z</time></trkpt><trkpt lat="40.5580367" lon="16.69528"><ele>78.0</ele><time>2026-04-26T14:14:08.485Z</time></trkpt><trkpt lat="40.5580033" lon="16.6954"><ele>77.4</ele><time>2026-04-26T14:14:09.485Z</time></trkpt><trkpt lat="40.5579667" lon="16.69552"><ele>76.8</ele><time>2026-04-26T14:14:10.486Z</time></trkpt><trkpt lat="40.557935" lon="16.6956383"><ele>76.2</ele><time>2026-04-26T14:14:11.487Z</time></trkpt><trkpt lat="40.5579067" lon="16.6957517"><ele>75.6</ele><time>2026-04-26T14:14:12.485Z</time></trkpt><trkpt lat="40.5578833" lon="16.6958617"><ele>75.0</ele><time>2026-04-26T14:14:13.485Z</time></trkpt><trkpt lat="40.5578617" lon="16.6959617"><ele>74.83333333333333</ele><time>2026-04-26T14:14:14.486Z</time></trkpt><trkpt lat="40.5578367" lon="16.69604"><ele>74.66666666666667</ele><time>2026-04-26T14:14:15.485Z</time></trkpt><trkpt lat="40.5577767" lon="16.6961433"><ele>74.5</ele><time>2026-04-26T14:14:17.487Z</time></trkpt><trkpt lat="40.5577017" lon="16.69611"><ele>74.33333333333334</ele><time>2026-04-26T14:14:21.485Z</time></trkpt><trkpt lat="40.557665" lon="16.6959633"><ele>74.16666666666667</ele><time>2026-04-26T14:14:23.485Z</time></trkpt><trkpt lat="40.5576467" lon="16.6958483"><ele>74.0</ele><time>2026-04-26T14:14:24.485Z</time></trkpt><trkpt lat="40.5576183" lon="16.69571"><ele>74.0</ele><time>2026-04-26T14:14:25.485Z</time></trkpt><trkpt lat="40.5575767" lon="16.695545"><ele>74.0</ele><time>2026-04-26T14:14:26.488Z</time></trkpt><trkpt lat="40.5575317" lon="16.6953667"><ele>74.0</ele><time>2026-04-26T14:14:27.485Z</time></trkpt><trkpt lat="40.5574867" lon="16.695185"><ele>74.0</ele><time>2026-04-26T14:14:28.485Z</time></trkpt><trkpt lat="40.55744" lon="16.69499"><ele>75.33333333333334</ele><time>2026-04-26T14:14:29.486Z</time></trkpt><trkpt lat="40.5573867" lon="16.6947883"><ele>76.66666666666667</ele><time>2026-04-26T14:14:30.487Z</time></trkpt><trkpt lat="40.5573317" lon="16.6945783"><ele>78.0</ele><time>2026-04-26T14:14:31.485Z</time></trkpt><trkpt lat="40.55728" lon="16.694365"><ele>78.0</ele><time>2026-04-26T14:14:32.486Z</time></trkpt><trkpt lat="40.55723" lon="16.6941483"><ele>78.0</ele><time>2026-04-26T14:14:33.486Z</time></trkpt><trkpt lat="40.55718" lon="16.6939333"><ele>78.0</ele><time>2026-04-26T14:14:34.484Z</time></trkpt><trkpt lat="40.55713" lon="16.69372"><ele>79.0</ele><time>2026-04-26T14:14:35.485Z</time></trkpt><trkpt lat="40.55708" lon="16.6935067"><ele>80.0</ele><time>2026-04-26T14:14:36.485Z</time></trkpt><trkpt lat="40.55703" lon="16.6933"><ele>81.0</ele><time>2026-04-26T14:14:37.487Z</time></trkpt><trkpt lat="40.5569783" lon="16.6930933"><ele>83.66666666666667</ele><time>2026-04-26T14:14:38.485Z</time></trkpt><trkpt lat="40.5569267" lon="16.6928883"><ele>86.33333333333334</ele><time>2026-04-26T14:14:39.485Z</time></trkpt><trkpt lat="40.5568767" lon="16.6926867"><ele>89.0</ele><time>2026-04-26T14:14:40.485Z</time></trkpt><trkpt lat="40.5568283" lon="16.6924833"><ele>89.66666666666667</ele><time>2026-04-26T14:14:41.485Z</time></trkpt><trkpt lat="40.55678" lon="16.6922817"><ele>90.33333333333333</ele><time>2026-04-26T14:14:42.486Z</time></trkpt><trkpt lat="40.5567267" lon="16.6920867"><ele>91.0</ele><time>2026-04-26T14:14:43.485Z</time></trkpt><trkpt lat="40.55667" lon="16.69189"><ele>92.0</ele><time>2026-04-26T14:14:44.487Z</time></trkpt><trkpt lat="40.5566017" lon="16.6916933"><ele>93.0</ele><time>2026-04-26T14:14:45.485Z</time></trkpt><trkpt lat="40.5565317" lon="16.6914967"><ele>94.0</ele><time>2026-04-26T14:14:46.486Z</time></trkpt><trkpt lat="40.55646" lon="16.691305"><ele>94.0</ele><time>2026-04-26T14:14:47.485Z</time></trkpt><trkpt lat="40.5563883" lon="16.69111"><ele>94.0</ele><time>2026-04-26T14:14:48.486Z</time></trkpt><trkpt lat="40.556315" lon="16.6909167"><ele>94.0</ele><time>2026-04-26T14:14:49.485Z</time></trkpt><trkpt lat="40.5562417" lon="16.6907367"><ele>97.0</ele><time>2026-04-26T14:14:50.485Z</time></trkpt><trkpt lat="40.55615" lon="16.690575"><ele>100.0</ele><time>2026-04-26T14:14:51.485Z</time></trkpt><trkpt lat="40.55603" lon="16.6904333"><ele>103.0</ele><time>2026-04-26T14:14:52.485Z</time></trkpt><trkpt lat="40.5558867" lon="16.69031"><ele>101.0</ele><time>2026-04-26T14:14:53.486Z</time></trkpt><trkpt lat="40.5557367" lon="16.6901983"><ele>99.0</ele><time>2026-04-26T14:14:54.485Z</time></trkpt><trkpt lat="40.555585" lon="16.69009"><ele>97.0</ele><time>2026-04-26T14:14:55.485Z</time></trkpt><trkpt lat="40.5554317" lon="16.6899833"><ele>100.66666666666667</ele><time>2026-04-26T14:14:56.486Z</time></trkpt><trkpt lat="40.555275" lon="16.6898767"><ele>104.33333333333334</ele><time>2026-04-26T14:14:57.485Z</time></trkpt><trkpt lat="40.5551167" lon="16.6897817"><ele>108.0</ele><time>2026-04-26T14:14:58.486Z</time></trkpt><trkpt lat="40.5549617" lon="16.6896983"><ele>108.0</ele><time>2026-04-26T14:14:59.485Z</time></trkpt><trkpt lat="40.5548183" lon="16.6896067"><ele>108.0</ele><time>2026-04-26T14:15:00.486Z</time></trkpt><trkpt lat="40.5546883" lon="16.6894933"><ele>108.0</ele><time>2026-04-26T14:15:01.486Z</time></trkpt><trkpt lat="40.5545767" lon="16.6893433"><ele>108.0</ele><time>2026-04-26T14:15:02.486Z</time></trkpt><trkpt lat="40.5544867" lon="16.6891517"><ele>108.0</ele><time>2026-04-26T14:15:03.485Z</time></trkpt><trkpt lat="40.554415" lon="16.6889483"><ele>108.0</ele><time>2026-04-26T14:15:04.487Z</time></trkpt><trkpt lat="40.5543567" lon="16.6887467"><ele>108.75</ele><time>2026-04-26T14:15:05.486Z</time></trkpt><trkpt lat="40.5543067" lon="16.6885517"><ele>109.5</ele><time>2026-04-26T14:15:06.486Z</time></trkpt><trkpt lat="40.55426" lon="16.6883783"><ele>110.25</ele><time>2026-04-26T14:15:07.485Z</time></trkpt><trkpt lat="40.5542033" lon="16.6882317"><ele>111.0</ele><time>2026-04-26T14:15:08.486Z</time></trkpt><trkpt lat="40.5541233" lon="16.6881483"><ele>111.0</ele><time>2026-04-26T14:15:09.485Z</time></trkpt><trkpt lat="40.5540133" lon="16.6881183"><ele>111.0</ele><time>2026-04-26T14:15:10.487Z</time></trkpt><trkpt lat="40.5538833" lon="16.6881333"><ele>111.0</ele><time>2026-04-26T14:15:11.484Z</time></trkpt><trkpt lat="40.5537517" lon="16.68817"><ele>111.0</ele><time>2026-04-26T14:15:12.485Z</time></trkpt><trkpt lat="40.553635" lon="16.68822"><ele>111.75</ele><time>2026-04-26T14:15:13.485Z</time></trkpt><trkpt lat="40.5535517" lon="16.68831"><ele>112.5</ele><time>2026-04-26T14:15:14.488Z</time></trkpt><trkpt lat="40.5534983" lon="16.6884467"><ele>113.25</ele><time>2026-04-26T14:15:15.485Z</time></trkpt><trkpt lat="40.5534667" lon="16.688615"><ele>114.0</ele><time>2026-04-26T14:15:16.487Z</time></trkpt><trkpt lat="40.5534317" lon="16.6887833"><ele>114.0</ele><time>2026-04-26T14:15:17.485Z</time></trkpt><trkpt lat="40.5533733" lon="16.6889283"><ele>114.0</ele><time>2026-04-26T14:15:18.49Z</time></trkpt><trkpt lat="40.55329" lon="16.6890367"><ele>114.0</ele><time>2026-04-26T14:15:19.485Z</time></trkpt><trkpt lat="40.553185" lon="16.6890917"><ele>114.0</ele><time>2026-04-26T14:15:20.485Z</time></trkpt><trkpt lat="40.5530783" lon="16.6890833"><ele>114.0</ele><time>2026-04-26T14:15:21.485Z</time></trkpt><trkpt lat="40.5529783" lon="16.68907"><ele>114.0</ele><time>2026-04-26T14:15:22.485Z</time></trkpt><trkpt lat="40.5528867" lon="16.6891017"><ele>114.0</ele><time>2026-04-26T14:15:23.486Z</time></trkpt><trkpt lat="40.552815" lon="16.68919"><ele>114.0</ele><time>2026-04-26T14:15:24.486Z</time></trkpt><trkpt lat="40.55279" lon="16.6893283"><ele>114.0</ele><time>2026-04-26T14:15:25.485Z</time></trkpt><trkpt lat="40.55281" lon="16.6895033"><ele>116.5</ele><time>2026-04-26T14:15:26.486Z</time></trkpt><trkpt lat="40.552825" lon="16.6896733"><ele>119.0</ele><time>2026-04-26T14:15:27.485Z</time></trkpt><trkpt lat="40.5528067" lon="16.6898367"><ele>121.5</ele><time>2026-04-26T14:15:28.485Z</time></trkpt><trkpt lat="40.5527383" lon="16.6899633"><ele>124.0</ele><time>2026-04-26T14:15:29.485Z</time></trkpt><trkpt lat="40.5526433" lon="16.6900733"><ele>124.0</ele><time>2026-04-26T14:15:30.485Z</time></trkpt><trkpt lat="40.5525467" lon="16.6901717"><ele>124.0</ele><time>2026-04-26T14:15:31.486Z</time></trkpt><trkpt lat="40.5524533" lon="16.6902517"><ele>124.0</ele><time>2026-04-26T14:15:32.486Z</time></trkpt><trkpt lat="40.5523767" lon="16.6902917"><ele>124.0</ele><time>2026-04-26T14:15:33.485Z</time></trkpt><trkpt lat="40.5523083" lon="16.6902833"><ele>124.0</ele><time>2026-04-26T14:15:34.485Z</time></trkpt><trkpt lat="40.5522933" lon="16.6901017"><ele>124.0</ele><time>2026-04-26T14:15:36.487Z</time></trkpt><trkpt lat="40.5523283" lon="16.6899683"><ele>124.0</ele><time>2026-04-26T14:15:37.485Z</time></trkpt><trkpt lat="40.5523733" lon="16.6898033"><ele>124.0</ele><time>2026-04-26T14:15:38.486Z</time></trkpt><trkpt lat="40.55239" lon="16.6896383"><ele>124.0</ele><time>2026-04-26T14:15:39.485Z</time></trkpt><trkpt lat="40.552365" lon="16.6894633"><ele>126.5</ele><time>2026-04-26T14:15:40.485Z</time></trkpt><trkpt lat="40.5523117" lon="16.6892783"><ele>129.0</ele><time>2026-04-26T14:15:41.487Z</time></trkpt><trkpt lat="40.5522767" lon="16.68911"><ele>131.5</ele><time>2026-04-26T14:15:42.486Z</time></trkpt><trkpt lat="40.552275" lon="16.68895"><ele>134.0</ele><time>2026-04-26T14:15:43.485Z</time></trkpt><trkpt lat="40.552325" lon="16.6888133"><ele>134.0</ele><time>2026-04-26T14:15:44.487Z</time></trkpt><trkpt lat="40.5524317" lon="16.6887083"><ele>134.0</ele><time>2026-04-26T14:15:45.493Z</time></trkpt><trkpt lat="40.55254" lon="16.6885983"><ele>134.0</ele><time>2026-04-26T14:15:46.485Z</time></trkpt><trkpt lat="40.5526233" lon="16.6884533"><ele>134.0</ele><time>2026-04-26T14:15:47.485Z</time></trkpt><trkpt lat="40.5526733" lon="16.688265"><ele>136.33333333333331</ele><time>2026-04-26T14:15:48.486Z</time></trkpt><trkpt lat="40.5527067" lon="16.6880583"><ele>138.66666666666666</ele><time>2026-04-26T14:15:49.485Z</time></trkpt><trkpt lat="40.5527433" lon="16.687845"><ele>141.0</ele><time>2026-04-26T14:15:50.486Z</time></trkpt><trkpt lat="40.5527967" lon="16.68763"><ele>141.0</ele><time>2026-04-26T14:15:51.486Z</time></trkpt><trkpt lat="40.5528767" lon="16.6874333"><ele>141.0</ele><time>2026-04-26T14:15:52.485Z</time></trkpt><trkpt lat="40.5529733" lon="16.687255"><ele>141.0</ele><time>2026-04-26T14:15:53.486Z</time></trkpt><trkpt lat="40.553085" lon="16.6871"><ele>141.0</ele><time>2026-04-26T14:15:54.486Z</time></trkpt><trkpt lat="40.5532" lon="16.6869717"><ele>141.0</ele><time>2026-04-26T14:15:55.485Z</time></trkpt><trkpt lat="40.5532917" lon="16.6868467"><ele>141.0</ele><time>2026-04-26T14:15:56.486Z</time></trkpt><trkpt lat="40.5533433" lon="16.686695"><ele>141.0</ele><time>2026-04-26T14:15:57.485Z</time></trkpt><trkpt lat="40.553355" lon="16.6865067"><ele>144.33333333333334</ele><time>2026-04-26T14:15:58.485Z</time></trkpt><trkpt lat="40.5533383" lon="16.6863067"><ele>147.66666666666669</ele><time>2026-04-26T14:15:59.486Z</time></trkpt><trkpt lat="40.5533" lon="16.6861133"><ele>151.0</ele><time>2026-04-26T14:16:00.485Z</time></trkpt><trkpt lat="40.553235" lon="16.6859367"><ele>152.0</ele><time>2026-04-26T14:16:01.489Z</time></trkpt><trkpt lat="40.5531833" lon="16.6857783"><ele>153.0</ele><time>2026-04-26T14:16:02.486Z</time></trkpt><trkpt lat="40.5531517" lon="16.68564"><ele>154.0</ele><time>2026-04-26T14:16:03.486Z</time></trkpt><trkpt lat="40.55311" lon="16.685545"><ele>155.0</ele><time>2026-04-26T14:16:04.486Z</time></trkpt><trkpt lat="40.553055" lon="16.6855"><ele>156.0</ele><time>2026-04-26T14:16:05.486Z</time></trkpt><trkpt lat="40.552975" lon="16.6855383"><ele>156.0</ele><time>2026-04-26T14:16:06.486Z</time></trkpt><trkpt lat="40.55291" lon="16.6856217"><ele>156.0</ele><time>2026-04-26T14:16:07.486Z</time></trkpt><trkpt lat="40.55284" lon="16.685735"><ele>156.0</ele><time>2026-04-26T14:16:08.486Z</time></trkpt><trkpt lat="40.5527433" lon="16.6858333"><ele>156.0</ele><time>2026-04-26T14:16:09.485Z</time></trkpt><trkpt lat="40.5526167" lon="16.6859167"><ele>154.66666666666666</ele><time>2026-04-26T14:16:10.487Z</time></trkpt><trkpt lat="40.5524733" lon="16.6860067"><ele>153.33333333333331</ele><time>2026-04-26T14:16:11.486Z</time></trkpt><trkpt lat="40.5523367" lon="16.6861117"><ele>152.0</ele><time>2026-04-26T14:16:12.485Z</time></trkpt><trkpt lat="40.5522" lon="16.6862233"><ele>152.0</ele><time>2026-04-26T14:16:13.485Z</time></trkpt><trkpt lat="40.55207" lon="16.6863233"><ele>152.0</ele><time>2026-04-26T14:16:14.486Z</time></trkpt><trkpt lat="40.551955" lon="16.6863917"><ele>152.0</ele><time>2026-04-26T14:16:15.485Z</time></trkpt><trkpt lat="40.55185" lon="16.6864283"><ele>152.0</ele><time>2026-04-26T14:16:16.486Z</time></trkpt><trkpt lat="40.5517517" lon="16.6864383"><ele>154.0</ele><time>2026-04-26T14:16:17.486Z</time></trkpt><trkpt lat="40.5516733" lon="16.6864217"><ele>156.0</ele><time>2026-04-26T14:16:18.486Z</time></trkpt><trkpt lat="40.551615" lon="16.68638"><ele>158.0</ele><time>2026-04-26T14:16:19.485Z</time></trkpt><trkpt lat="40.5516533" lon="16.6862567"><ele>160.0</ele><time>2026-04-26T14:16:21.485Z</time></trkpt><trkpt lat="40.5517367" lon="16.68621"><ele>162.0</ele><time>2026-04-26T14:16:22.484Z</time></trkpt><trkpt lat="40.5518567" lon="16.6861783"><ele>162.0</ele><time>2026-04-26T14:16:23.485Z</time></trkpt><trkpt lat="40.5519817" lon="16.686115"><ele>162.0</ele><time>2026-04-26T14:16:24.486Z</time></trkpt><trkpt lat="40.552105" lon="16.686005"><ele>162.0</ele><time>2026-04-26T14:16:25.486Z</time></trkpt><trkpt lat="40.5522133" lon="16.68588"><ele>162.0</ele><time>2026-04-26T14:16:26.488Z</time></trkpt><trkpt lat="40.5523" lon="16.6857683"><ele>164.0</ele><time>2026-04-26T14:16:27.485Z</time></trkpt><trkpt lat="40.55235" lon="16.685675"><ele>166.0</ele><time>2026-04-26T14:16:28.488Z</time></trkpt><trkpt lat="40.55236" lon="16.6855733"><ele>168.0</ele><time>2026-04-26T14:16:29.486Z</time></trkpt><trkpt lat="40.5523233" lon="16.6855"><ele>170.0</ele><time>2026-04-26T14:16:30.486Z</time></trkpt><trkpt lat="40.552245" lon="16.68546"><ele>172.0</ele><time>2026-04-26T14:16:31.486Z</time></trkpt><trkpt lat="40.5521383" lon="16.68545"><ele>174.0</ele><time>2026-04-26T14:16:32.486Z</time></trkpt><trkpt lat="40.5520183" lon="16.685455"><ele>175.75</ele><time>2026-04-26T14:16:33.486Z</time></trkpt><trkpt lat="40.551895" lon="16.6854483"><ele>177.5</ele><time>2026-04-26T14:16:34.487Z</time></trkpt><trkpt lat="40.55178" lon="16.6854167"><ele>179.25</ele><time>2026-04-26T14:16:35.487Z</time></trkpt><trkpt lat="40.5516733" lon="16.6853567"><ele>181.0</ele><time>2026-04-26T14:16:36.486Z</time></trkpt><trkpt lat="40.5515867" lon="16.6852567"><ele>183.5</ele><time>2026-04-26T14:16:37.486Z</time></trkpt><trkpt lat="40.551525" lon="16.68512"><ele>186.0</ele><time>2026-04-26T14:16:38.487Z</time></trkpt><trkpt lat="40.551475" lon="16.6849617"><ele>188.5</ele><time>2026-04-26T14:16:39.486Z</time></trkpt><trkpt lat="40.55142" lon="16.684785"><ele>191.0</ele><time>2026-04-26T14:16:40.485Z</time></trkpt><trkpt lat="40.5513683" lon="16.6846"><ele>192.0</ele><time>2026-04-26T14:16:41.485Z</time></trkpt><trkpt lat="40.5513133" lon="16.6844067"><ele>193.0</ele><time>2026-04-26T14:16:42.485Z</time></trkpt><trkpt lat="40.55126" lon="16.68421"><ele>194.0</ele><time>2026-04-26T14:16:43.49Z</time></trkpt><trkpt lat="40.5512117" lon="16.6840083"><ele>193.5</ele><time>2026-04-26T14:16:44.487Z</time></trkpt><trkpt lat="40.5511733" lon="16.6838133"><ele>193.0</ele><time>2026-04-26T14:16:45.485Z</time></trkpt><trkpt lat="40.5511417" lon="16.683625"><ele>192.5</ele><time>2026-04-26T14:16:46.486Z</time></trkpt><trkpt lat="40.5511233" lon="16.683445"><ele>192.0</ele><time>2026-04-26T14:16:47.486Z</time></trkpt><trkpt lat="40.5511283" lon="16.6832833"><ele>192.0</ele><time>2026-04-26T14:16:48.486Z</time></trkpt><trkpt lat="40.5511667" lon="16.68314"><ele>192.0</ele><time>2026-04-26T14:16:49.486Z</time></trkpt><trkpt lat="40.55125" lon="16.68302"><ele>192.0</ele><time>2026-04-26T14:16:50.486Z</time></trkpt><trkpt lat="40.5513683" lon="16.6829233"><ele>192.0</ele><time>2026-04-26T14:16:51.486Z</time></trkpt><trkpt lat="40.5515083" lon="16.6828383"><ele>193.66666666666669</ele><time>2026-04-26T14:16:52.485Z</time></trkpt><trkpt lat="40.5516567" lon="16.6827517"><ele>195.33333333333334</ele><time>2026-04-26T14:16:53.487Z</time></trkpt><trkpt lat="40.5518" lon="16.6826633"><ele>197.0</ele><time>2026-04-26T14:16:54.489Z</time></trkpt><trkpt lat="40.55193" lon="16.682565"><ele>197.0</ele><time>2026-04-26T14:16:55.485Z</time></trkpt><trkpt lat="40.5520367" lon="16.6824567"><ele>197.0</ele><time>2026-04-26T14:16:56.486Z</time></trkpt><trkpt lat="40.552115" lon="16.68232"><ele>197.0</ele><time>2026-04-26T14:16:57.486Z</time></trkpt><trkpt lat="40.5521733" lon="16.6821433"><ele>197.0</ele><time>2026-04-26T14:16:58.485Z</time></trkpt><trkpt lat="40.5522217" lon="16.6819383"><ele>199.66666666666669</ele><time>2026-04-26T14:16:59.485Z</time></trkpt><trkpt lat="40.5522717" lon="16.6817267"><ele>202.33333333333331</ele><time>2026-04-26T14:17:00.486Z</time></trkpt><trkpt lat="40.5523217" lon="16.6815233"><ele>205.0</ele><time>2026-04-26T14:17:01.486Z</time></trkpt><trkpt lat="40.5523733" lon="16.6813233"><ele>205.0</ele><time>2026-04-26T14:17:02.486Z</time></trkpt><trkpt lat="40.552425" lon="16.6811167"><ele>205.0</ele><time>2026-04-26T14:17:03.486Z</time></trkpt><trkpt lat="40.5524817" lon="16.6809033"><ele>205.0</ele><time>2026-04-26T14:17:04.486Z</time></trkpt><trkpt lat="40.5525333" lon="16.6806883"><ele>206.66666666666666</ele><time>2026-04-26T14:17:05.486Z</time></trkpt><trkpt lat="40.5525833" lon="16.6804783"><ele>208.33333333333331</ele><time>2026-04-26T14:17:06.487Z</time></trkpt><trkpt lat="40.5526317" lon="16.6802767"><ele>210.0</ele><time>2026-04-26T14:17:07.487Z</time></trkpt><trkpt lat="40.5526817" lon="16.6800867"><ele>212.66666666666669</ele><time>2026-04-26T14:17:08.491Z</time></trkpt><trkpt lat="40.55275" lon="16.679915"><ele>215.33333333333334</ele><time>2026-04-26T14:17:09.486Z</time></trkpt><trkpt lat="40.5528467" lon="16.6797667"><ele>218.0</ele><time>2026-04-26T14:17:10.487Z</time></trkpt><trkpt lat="40.552975" lon="16.6796517"><ele>218.75</ele><time>2026-04-26T14:17:11.486Z</time></trkpt><trkpt lat="40.55311" lon="16.679575"><ele>219.5</ele><time>2026-04-26T14:17:12.488Z</time></trkpt><trkpt lat="40.5532417" lon="16.6795517"><ele>220.25</ele><time>2026-04-26T14:17:13.485Z</time></trkpt><trkpt lat="40.5533617" lon="16.6795833"><ele>221.0</ele><time>2026-04-26T14:17:14.486Z</time></trkpt><trkpt lat="40.5534683" lon="16.6796583"><ele>221.0</ele><time>2026-04-26T14:17:15.486Z</time></trkpt><trkpt lat="40.55358" lon="16.679775"><ele>221.0</ele><time>2026-04-26T14:17:16.488Z</time></trkpt><trkpt lat="40.5536883" lon="16.679895"><ele>221.0</ele><time>2026-04-26T14:17:17.488Z</time></trkpt><trkpt lat="40.553805" lon="16.680005"><ele>221.0</ele><time>2026-04-26T14:17:18.486Z</time></trkpt><trkpt lat="40.5539417" lon="16.680095"><ele>223.25</ele><time>2026-04-26T14:17:19.485Z</time></trkpt><trkpt lat="40.554085" lon="16.680165"><ele>225.5</ele><time>2026-04-26T14:17:20.486Z</time></trkpt><trkpt lat="40.5542167" lon="16.6802267"><ele>227.75</ele><time>2026-04-26T14:17:21.485Z</time></trkpt><trkpt lat="40.55433" lon="16.6802617"><ele>230.0</ele><time>2026-04-26T14:17:22.486Z</time></trkpt><trkpt lat="40.5544333" lon="16.6802483"><ele>230.0</ele><time>2026-04-26T14:17:23.485Z</time></trkpt><trkpt lat="40.5545283" lon="16.6801683"><ele>230.0</ele><time>2026-04-26T14:17:24.486Z</time></trkpt><trkpt lat="40.5545967" lon="16.6800317"><ele>230.0</ele><time>2026-04-26T14:17:25.486Z</time></trkpt><trkpt lat="40.5546567" lon="16.6798567"><ele>230.0</ele><time>2026-04-26T14:17:26.486Z</time></trkpt><trkpt lat="40.5547133" lon="16.6796717"><ele>231.0</ele><time>2026-04-26T14:17:27.486Z</time></trkpt><trkpt lat="40.5547783" lon="16.6795033"><ele>232.0</ele><time>2026-04-26T14:17:28.485Z</time></trkpt><trkpt lat="40.554845" lon="16.679355"><ele>233.0</ele><time>2026-04-26T14:17:29.484Z</time></trkpt><trkpt lat="40.55492" lon="16.679235"><ele>234.0</ele><time>2026-04-26T14:17:30.485Z</time></trkpt><trkpt lat="40.5550183" lon="16.6791517"><ele>235.5</ele><time>2026-04-26T14:17:31.485Z</time></trkpt><trkpt lat="40.5551467" lon="16.6791117"><ele>237.0</ele><time>2026-04-26T14:17:32.485Z</time></trkpt><trkpt lat="40.5553" lon="16.6790983"><ele>238.5</ele><time>2026-04-26T14:17:33.485Z</time></trkpt><trkpt lat="40.5554583" lon="16.6791067"><ele>240.0</ele><time>2026-04-26T14:17:34.488Z</time></trkpt><trkpt lat="40.55562" lon="16.67914"><ele>241.0</ele><time>2026-04-26T14:17:35.485Z</time></trkpt><trkpt lat="40.55579" lon="16.67918"><ele>242.0</ele><time>2026-04-26T14:17:36.485Z</time></trkpt><trkpt lat="40.5559617" lon="16.679215"><ele>243.0</ele><time>2026-04-26T14:17:37.485Z</time></trkpt><trkpt lat="40.5561317" lon="16.6792317"><ele>243.66666666666669</ele><time>2026-04-26T14:17:38.487Z</time></trkpt><trkpt lat="40.5563017" lon="16.6792217"><ele>244.33333333333334</ele><time>2026-04-26T14:17:39.484Z</time></trkpt><trkpt lat="40.556475" lon="16.67918"><ele>245.0</ele><time>2026-04-26T14:17:40.484Z</time></trkpt><trkpt lat="40.556645" lon="16.67913"><ele>245.0</ele><time>2026-04-26T14:17:41.485Z</time></trkpt><trkpt lat="40.5568083" lon="16.679085"><ele>245.0</ele><time>2026-04-26T14:17:42.486Z</time></trkpt><trkpt lat="40.5569567" lon="16.6790433"><ele>245.0</ele><time>2026-04-26T14:17:43.486Z</time></trkpt><trkpt lat="40.5570917" lon="16.6789933"><ele>246.5</ele><time>2026-04-26T14:17:44.486Z</time></trkpt><trkpt lat="40.5572067" lon="16.6789117"><ele>248.0</ele><time>2026-04-26T14:17:45.485Z</time></trkpt><trkpt lat="40.5572883" lon="16.6787833"><ele>249.5</ele><time>2026-04-26T14:17:46.485Z</time></trkpt><trkpt lat="40.557325" lon="16.6786283"><ele>251.0</ele><time>2026-04-26T14:17:47.485Z</time></trkpt><trkpt lat="40.5573167" lon="16.6784483"><ele>255.33333333333334</ele><time>2026-04-26T14:17:48.485Z</time></trkpt><trkpt lat="40.5572683" lon="16.67826"><ele>259.6666666666667</ele><time>2026-04-26T14:17:49.487Z</time></trkpt><trkpt lat="40.5571967" lon="16.6780633"><ele>264.0</ele><time>2026-04-26T14:17:50.487Z</time></trkpt><trkpt lat="40.5571267" lon="16.6778583"><ele>265.6666666666667</ele><time>2026-04-26T14:17:51.485Z</time></trkpt><trkpt lat="40.5570567" lon="16.6776567"><ele>267.33333333333337</ele><time>2026-04-26T14:17:52.485Z</time></trkpt><trkpt lat="40.5569767" lon="16.6774583"><ele>269.0</ele><time>2026-04-26T14:17:53.484Z</time></trkpt><trkpt lat="40.556885" lon="16.6772617"><ele>268.6666666666667</ele><time>2026-04-26T14:17:54.488Z</time></trkpt><trkpt lat="40.5567867" lon="16.67707"><ele>268.3333333333333</ele><time>2026-04-26T14:17:55.485Z</time></trkpt><trkpt lat="40.5566717" lon="16.67689"><ele>268.0</ele><time>2026-04-26T14:17:56.486Z</time></trkpt><trkpt lat="40.55655" lon="16.6767267"><ele>268.0</ele><time>2026-04-26T14:17:57.485Z</time></trkpt><trkpt lat="40.55642" lon="16.6765817"><ele>268.0</ele><time>2026-04-26T14:17:58.484Z</time></trkpt><trkpt lat="40.5562883" lon="16.6764433"><ele>268.0</ele><time>2026-04-26T14:17:59.485Z</time></trkpt><trkpt lat="40.55616" lon="16.676315"><ele>266.66666666666663</ele><time>2026-04-26T14:18:00.485Z</time></trkpt><trkpt lat="40.5560317" lon="16.6762"><ele>265.3333333333333</ele><time>2026-04-26T14:18:01.485Z</time></trkpt><trkpt lat="40.5558917" lon="16.6761267"><ele>264.0</ele><time>2026-04-26T14:18:02.486Z</time></trkpt><trkpt lat="40.555735" lon="16.6760983"><ele>264.0</ele><time>2026-04-26T14:18:03.484Z</time></trkpt><trkpt lat="40.5555683" lon="16.6760967"><ele>264.0</ele><time>2026-04-26T14:18:04.487Z</time></trkpt><trkpt lat="40.5553967" lon="16.676105"><ele>264.0</ele><time>2026-04-26T14:18:05.485Z</time></trkpt><trkpt lat="40.5552233" lon="16.6761183"><ele>269.3333333333333</ele><time>2026-04-26T14:18:06.484Z</time></trkpt><trkpt lat="40.55506" lon="16.6760967"><ele>274.66666666666663</ele><time>2026-04-26T14:18:07.488Z</time></trkpt><trkpt lat="40.554895" lon="16.6760617"><ele>280.0</ele><time>2026-04-26T14:18:08.485Z</time></trkpt><trkpt lat="40.5547267" lon="16.6760033"><ele>280.0</ele><time>2026-04-26T14:18:09.484Z</time></trkpt><trkpt lat="40.5545667" lon="16.6759333"><ele>280.0</ele><time>2026-04-26T14:18:10.485Z</time></trkpt><trkpt lat="40.5544133" lon="16.6758517"><ele>280.0</ele><time>2026-04-26T14:18:11.488Z</time></trkpt><trkpt lat="40.5542617" lon="16.6757683"><ele>279.66666666666663</ele><time>2026-04-26T14:18:12.485Z</time></trkpt><trkpt lat="40.5541117" lon="16.675675"><ele>279.3333333333333</ele><time>2026-04-26T14:18:13.485Z</time></trkpt><trkpt lat="40.5539633" lon="16.6755767"><ele>279.0</ele><time>2026-04-26T14:18:14.486Z</time></trkpt><trkpt lat="40.5538217" lon="16.67546"><ele>280.0</ele><time>2026-04-26T14:18:15.485Z</time></trkpt><trkpt lat="40.5536917" lon="16.6753067"><ele>281.0</ele><time>2026-04-26T14:18:16.485Z</time></trkpt><trkpt lat="40.5535733" lon="16.675135"><ele>282.0</ele><time>2026-04-26T14:18:17.485Z</time></trkpt><trkpt lat="40.55346" lon="16.6749583"><ele>282.0</ele><time>2026-04-26T14:18:18.488Z</time></trkpt><trkpt lat="40.553345" lon="16.6748"><ele>282.0</ele><time>2026-04-26T14:18:19.484Z</time></trkpt><trkpt lat="40.553215" lon="16.6746633"><ele>282.0</ele><time>2026-04-26T14:18:20.486Z</time></trkpt><trkpt lat="40.5530867" lon="16.6745283"><ele>281.6666666666667</ele><time>2026-04-26T14:18:21.485Z</time></trkpt><trkpt lat="40.5529833" lon="16.674375"><ele>281.33333333333337</ele><time>2026-04-26T14:18:22.486Z</time></trkpt><trkpt lat="40.55291" lon="16.674195"><ele>281.0</ele><time>2026-04-26T14:18:23.485Z</time></trkpt><trkpt lat="40.5528617" lon="16.6740017"><ele>281.0</ele><time>2026-04-26T14:18:24.484Z</time></trkpt><trkpt lat="40.552835" lon="16.6738117"><ele>281.0</ele><time>2026-04-26T14:18:25.486Z</time></trkpt><trkpt lat="40.5528167" lon="16.6736433"><ele>281.0</ele><time>2026-04-26T14:18:26.485Z</time></trkpt><trkpt lat="40.5527867" lon="16.6735083"><ele>281.0</ele><time>2026-04-26T14:18:27.486Z</time></trkpt><trkpt lat="40.55273" lon="16.67341"><ele>287.5</ele><time>2026-04-26T14:18:28.486Z</time></trkpt><trkpt lat="40.5526283" lon="16.6733667"><ele>294.0</ele><time>2026-04-26T14:18:29.484Z</time></trkpt><trkpt lat="40.5524983" lon="16.6733517"><ele>300.5</ele><time>2026-04-26T14:18:30.485Z</time></trkpt><trkpt lat="40.5523417" lon="16.6733783"><ele>307.0</ele><time>2026-04-26T14:18:31.486Z</time></trkpt><trkpt lat="40.552185" lon="16.6733833"><ele>305.25</ele><time>2026-04-26T14:18:32.485Z</time></trkpt><trkpt lat="40.5520283" lon="16.67338"><ele>303.5</ele><time>2026-04-26T14:18:33.488Z</time></trkpt><trkpt lat="40.5518767" lon="16.67337"><ele>301.75</ele><time>2026-04-26T14:18:34.487Z</time></trkpt><trkpt lat="40.5517383" lon="16.6733417"><ele>300.0</ele><time>2026-04-26T14:18:35.485Z</time></trkpt><trkpt lat="40.551615" lon="16.67328"><ele>300.0</ele><time>2026-04-26T14:18:36.484Z</time></trkpt><trkpt lat="40.55151" lon="16.6731783"><ele>300.0</ele><time>2026-04-26T14:18:37.486Z</time></trkpt><trkpt lat="40.551435" lon="16.6730283"><ele>300.0</ele><time>2026-04-26T14:18:38.486Z</time></trkpt><trkpt lat="40.5513983" lon="16.6728467"><ele>300.0</ele><time>2026-04-26T14:18:39.485Z</time></trkpt><trkpt lat="40.5514067" lon="16.6726583"><ele>302.75</ele><time>2026-04-26T14:18:40.486Z</time></trkpt><trkpt lat="40.551445" lon="16.6724717"><ele>305.5</ele><time>2026-04-26T14:18:41.485Z</time></trkpt><trkpt lat="40.55151" lon="16.672295"><ele>308.25</ele><time>2026-04-26T14:18:42.485Z</time></trkpt><trkpt lat="40.5515633" lon="16.67213"><ele>311.0</ele><time>2026-04-26T14:18:43.485Z</time></trkpt><trkpt lat="40.5515767" lon="16.6719617"><ele>312.5</ele><time>2026-04-26T14:18:44.485Z</time></trkpt><trkpt lat="40.55155" lon="16.6717967"><ele>314.0</ele><time>2026-04-26T14:18:45.484Z</time></trkpt><trkpt lat="40.5514917" lon="16.6716483"><ele>315.5</ele><time>2026-04-26T14:18:46.486Z</time></trkpt><trkpt lat="40.5514367" lon="16.6715133"><ele>317.0</ele><time>2026-04-26T14:18:47.487Z</time></trkpt><trkpt lat="40.5514117" lon="16.6713767"><ele>317.0</ele><time>2026-04-26T14:18:48.485Z</time></trkpt><trkpt lat="40.5514283" lon="16.6712383"><ele>317.0</ele><time>2026-04-26T14:18:49.485Z</time></trkpt><trkpt lat="40.55148" lon="16.6711067"><ele>317.0</ele><time>2026-04-26T14:18:50.485Z</time></trkpt><trkpt lat="40.551555" lon="16.6709683"><ele>317.0</ele><time>2026-04-26T14:18:51.486Z</time></trkpt><trkpt lat="40.55163" lon="16.6708183"><ele>317.33333333333337</ele><time>2026-04-26T14:18:52.486Z</time></trkpt><trkpt lat="40.55171" lon="16.67066"><ele>317.6666666666667</ele><time>2026-04-26T14:18:53.486Z</time></trkpt><trkpt lat="40.5517917" lon="16.6704883"><ele>318.0</ele><time>2026-04-26T14:18:54.485Z</time></trkpt><trkpt lat="40.5518733" lon="16.6703117"><ele>317.3333333333333</ele><time>2026-04-26T14:18:55.484Z</time></trkpt><trkpt lat="40.551935" lon="16.67012"><ele>316.66666666666663</ele><time>2026-04-26T14:18:56.485Z</time></trkpt><trkpt lat="40.5519767" lon="16.6699267"><ele>316.0</ele><time>2026-04-26T14:18:57.485Z</time></trkpt><trkpt lat="40.5520083" lon="16.6697333"><ele>320.25</ele><time>2026-04-26T14:18:58.486Z</time></trkpt><trkpt lat="40.5520467" lon="16.6695433"><ele>324.5</ele><time>2026-04-26T14:18:59.485Z</time></trkpt><trkpt lat="40.552075" lon="16.66936"><ele>328.75</ele><time>2026-04-26T14:19:00.485Z</time></trkpt><trkpt lat="40.5521133" lon="16.6691867"><ele>333.0</ele><time>2026-04-26T14:19:01.486Z</time></trkpt><trkpt lat="40.55215" lon="16.669025"><ele>333.0</ele><time>2026-04-26T14:19:02.488Z</time></trkpt><trkpt lat="40.5521967" lon="16.6688667"><ele>333.0</ele><time>2026-04-26T14:19:03.485Z</time></trkpt><trkpt lat="40.552255" lon="16.6687233"><ele>333.0</ele><time>2026-04-26T14:19:04.485Z</time></trkpt><trkpt lat="40.5523283" lon="16.6686"><ele>333.0</ele><time>2026-04-26T14:19:05.486Z</time></trkpt><trkpt lat="40.552415" lon="16.6684783"><ele>332.5</ele><time>2026-04-26T14:19:06.486Z</time></trkpt><trkpt lat="40.552515" lon="16.6683683"><ele>332.0</ele><time>2026-04-26T14:19:07.485Z</time></trkpt><trkpt lat="40.5526267" lon="16.6682817"><ele>331.5</ele><time>2026-04-26T14:19:08.486Z</time></trkpt><trkpt lat="40.5527383" lon="16.6681967"><ele>331.0</ele><time>2026-04-26T14:19:09.485Z</time></trkpt><trkpt lat="40.55285" lon="16.66812"><ele>333.5</ele><time>2026-04-26T14:19:10.486Z</time></trkpt><trkpt lat="40.5529633" lon="16.6680567"><ele>336.0</ele><time>2026-04-26T14:19:11.485Z</time></trkpt><trkpt lat="40.5530767" lon="16.667995"><ele>338.5</ele><time>2026-04-26T14:19:12.499Z</time></trkpt><trkpt lat="40.553185" lon="16.6679517"><ele>341.0</ele><time>2026-04-26T14:19:13.497Z</time></trkpt><trkpt lat="40.5532867" lon="16.667925"><ele>341.0</ele><time>2026-04-26T14:19:14.5Z</time></trkpt><trkpt lat="40.5533917" lon="16.6679117"><ele>341.0</ele><time>2026-04-26T14:19:15.499Z</time></trkpt><trkpt lat="40.553495" lon="16.6679067"><ele>341.0</ele><time>2026-04-26T14:19:16.498Z</time></trkpt><trkpt lat="40.5535917" lon="16.6678917"><ele>341.0</ele><time>2026-04-26T14:19:17.502Z</time></trkpt><trkpt lat="40.5536917" lon="16.6678867"><ele>341.0</ele><time>2026-04-26T14:19:18.499Z</time></trkpt><trkpt lat="40.5537867" lon="16.6678683"><ele>340.8</ele><time>2026-04-26T14:19:19.501Z</time></trkpt><trkpt lat="40.55388" lon="16.6678133"><ele>340.6</ele><time>2026-04-26T14:19:20.496Z</time></trkpt><trkpt lat="40.553965" lon="16.6677383"><ele>340.4</ele><time>2026-04-26T14:19:21.497Z</time></trkpt><trkpt lat="40.5540417" lon="16.66766"><ele>340.2</ele><time>2026-04-26T14:19:22.497Z</time></trkpt><trkpt lat="40.5541067" lon="16.6675933"><ele>340.0</ele><time>2026-04-26T14:19:23.499Z</time></trkpt><trkpt lat="40.554175" lon="16.6675433"><ele>340.0</ele><time>2026-04-26T14:19:24.496Z</time></trkpt><trkpt lat="40.5542467" lon="16.6675217"><ele>340.0</ele><time>2026-04-26T14:19:25.495Z</time></trkpt><trkpt lat="40.55432" lon="16.6675117"><ele>340.0</ele><time>2026-04-26T14:19:26.501Z</time></trkpt><trkpt lat="40.5543933" lon="16.6675233"><ele>340.0</ele><time>2026-04-26T14:19:27.5Z</time></trkpt><trkpt lat="40.5544967" lon="16.667545"><ele>340.0</ele><time>2026-04-26T14:19:28.497Z</time></trkpt><trkpt lat="40.554615" lon="16.667565"><ele>340.0</ele><time>2026-04-26T14:19:29.496Z</time></trkpt><trkpt lat="40.5547333" lon="16.667585"><ele>341.2</ele><time>2026-04-26T14:19:30.498Z</time></trkpt><trkpt lat="40.55484" lon="16.6676"><ele>342.4</ele><time>2026-04-26T14:19:31.499Z</time></trkpt><trkpt lat="40.554955" lon="16.6676217"><ele>343.6</ele><time>2026-04-26T14:19:32.5Z</time></trkpt><trkpt lat="40.55505" lon="16.667635"><ele>344.8</ele><time>2026-04-26T14:19:33.499Z</time></trkpt><trkpt lat="40.5551233" lon="16.66763"><ele>346.0</ele><time>2026-04-26T14:19:34.499Z</time></trkpt><trkpt lat="40.5552317" lon="16.6675717"><ele>346.0</ele><time>2026-04-26T14:19:36.501Z</time></trkpt><trkpt lat="40.5552733" lon="16.667475"><ele>346.0</ele><time>2026-04-26T14:19:37.494Z</time></trkpt><trkpt lat="40.5553217" lon="16.6673583"><ele>346.0</ele><time>2026-04-26T14:19:38.499Z</time></trkpt><trkpt lat="40.55536" lon="16.6671883"><ele>346.0</ele><time>2026-04-26T14:19:39.496Z</time></trkpt><trkpt lat="40.5554067" lon="16.66704"><ele>346.0</ele><time>2026-04-26T14:19:40.499Z</time></trkpt><trkpt lat="40.55545" lon="16.6668883"><ele>346.0</ele><time>2026-04-26T14:19:41.499Z</time></trkpt><trkpt lat="40.5554817" lon="16.66671"><ele>346.0</ele><time>2026-04-26T14:19:42.5Z</time></trkpt><trkpt lat="40.55551" lon="16.6665333"><ele>346.0</ele><time>2026-04-26T14:19:43.499Z</time></trkpt><trkpt lat="40.5555467" lon="16.6663633"><ele>346.0</ele><time>2026-04-26T14:19:44.5Z</time></trkpt><trkpt lat="40.5555883" lon="16.6662117"><ele>347.20000000000005</ele><time>2026-04-26T14:19:45.499Z</time></trkpt><trkpt lat="40.5556267" lon="16.6660683"><ele>348.40000000000003</ele><time>2026-04-26T14:19:46.5Z</time></trkpt><trkpt lat="40.5556583" lon="16.6659417"><ele>349.6</ele><time>2026-04-26T14:19:47.496Z</time></trkpt><trkpt lat="40.5556933" lon="16.6658317"><ele>350.8</ele><time>2026-04-26T14:19:48.498Z</time></trkpt><trkpt lat="40.5557267" lon="16.6657217"><ele>352.0</ele><time>2026-04-26T14:19:49.494Z</time></trkpt><trkpt lat="40.5557517" lon="16.66562"><ele>352.0</ele><time>2026-04-26T14:19:50.502Z</time></trkpt><trkpt lat="40.5557767" lon="16.6655133"><ele>352.0</ele><time>2026-04-26T14:19:51.498Z</time></trkpt><trkpt lat="40.55581" lon="16.665405"><ele>352.0</ele><time>2026-04-26T14:19:52.499Z</time></trkpt><trkpt lat="40.555865" lon="16.6653067"><ele>352.0</ele><time>2026-04-26T14:19:53.498Z</time></trkpt><trkpt lat="40.5559333" lon="16.66522"><ele>352.0</ele><time>2026-04-26T14:19:54.495Z</time></trkpt><trkpt lat="40.556005" lon="16.6651283"><ele>353.0</ele><time>2026-04-26T14:19:55.499Z</time></trkpt><trkpt lat="40.5560833" lon="16.66504"><ele>354.0</ele><time>2026-04-26T14:19:56.501Z</time></trkpt><trkpt lat="40.55617" lon="16.66495"><ele>355.0</ele><time>2026-04-26T14:19:57.496Z</time></trkpt><trkpt lat="40.5562533" lon="16.6648633"><ele>356.0</ele><time>2026-04-26T14:19:58.496Z</time></trkpt><trkpt lat="40.5563333" lon="16.6647717"><ele>357.0</ele><time>2026-04-26T14:19:59.5Z</time></trkpt><trkpt lat="40.5564183" lon="16.6646867"><ele>357.20000000000005</ele><time>2026-04-26T14:20:00.498Z</time></trkpt><trkpt lat="40.5565083" lon="16.6646117"><ele>357.4</ele><time>2026-04-26T14:20:01.501Z</time></trkpt><trkpt lat="40.556595" lon="16.6645283"><ele>357.6</ele><time>2026-04-26T14:20:02.501Z</time></trkpt><trkpt lat="40.5566867" lon="16.66445"><ele>357.79999999999995</ele><time>2026-04-26T14:20:03.499Z</time></trkpt><trkpt lat="40.5567767" lon="16.6643683"><ele>358.0</ele><time>2026-04-26T14:20:04.499Z</time></trkpt><trkpt lat="40.5568567" lon="16.6642717"><ele>358.59999999999997</ele><time>2026-04-26T14:20:05.5Z</time></trkpt><trkpt lat="40.556925" lon="16.664165"><ele>359.2</ele><time>2026-04-26T14:20:06.497Z</time></trkpt><trkpt lat="40.5569967" lon="16.6640583"><ele>359.8</ele><time>2026-04-26T14:20:07.5Z</time></trkpt><trkpt lat="40.5570867" lon="16.6639783"><ele>360.4</ele><time>2026-04-26T14:20:08.504Z</time></trkpt><trkpt lat="40.557175" lon="16.6638983"><ele>361.0</ele><time>2026-04-26T14:20:09.5Z</time></trkpt><trkpt lat="40.55725" lon="16.6638"><ele>361.4</ele><time>2026-04-26T14:20:10.499Z</time></trkpt><trkpt lat="40.5573383" lon="16.6637267"><ele>361.8</ele><time>2026-04-26T14:20:11.5Z</time></trkpt><trkpt lat="40.55743" lon="16.6636533"><ele>362.2</ele><time>2026-04-26T14:20:12.501Z</time></trkpt><trkpt lat="40.5575117" lon="16.6635783"><ele>362.59999999999997</ele><time>2026-04-26T14:20:13.5Z</time></trkpt><trkpt lat="40.5575933" lon="16.6635117"><ele>363.0</ele><time>2026-04-26T14:20:14.501Z</time></trkpt><trkpt lat="40.55767" lon="16.6634567"><ele>363.0</ele><time>2026-04-26T14:20:15.5Z</time></trkpt><trkpt lat="40.55773" lon="16.6633983"><ele>363.0</ele><time>2026-04-26T14:20:16.498Z</time></trkpt><trkpt lat="40.557785" lon="16.6633333"><ele>363.0</ele><time>2026-04-26T14:20:17.497Z</time></trkpt><trkpt lat="40.557835" lon="16.6632767"><ele>363.0</ele><time>2026-04-26T14:20:18.5Z</time></trkpt><trkpt lat="40.557925" lon="16.6632433"><ele>363.0</ele><time>2026-04-26T14:20:20.501Z</time></trkpt><trkpt lat="40.5580083" lon="16.663365"><ele>363.0</ele><time>2026-04-26T14:20:22.496Z</time></trkpt><trkpt lat="40.5580467" lon="16.6634533"><ele>363.0</ele><time>2026-04-26T14:20:23.495Z</time></trkpt><trkpt lat="40.5580767" lon="16.6635633"><ele>363.0</ele><time>2026-04-26T14:20:24.501Z</time></trkpt><trkpt lat="40.5581067" lon="16.6636433"><ele>363.0</ele><time>2026-04-26T14:20:25.496Z</time></trkpt><trkpt lat="40.558185" lon="16.6637167"><ele>363.0</ele><time>2026-04-26T14:20:27.499Z</time></trkpt><trkpt lat="40.5582967" lon="16.6636667"><ele>363.0</ele><time>2026-04-26T14:20:29.499Z</time></trkpt><trkpt lat="40.5584067" lon="16.6636017"><ele>363.0</ele><time>2026-04-26T14:20:31.498Z</time></trkpt><trkpt lat="40.5584983" lon="16.663575"><ele>363.0</ele><time>2026-04-26T14:20:33.496Z</time></trkpt><trkpt lat="40.5585317" lon="16.6636683"><ele>363.0</ele><time>2026-04-26T14:20:36.501Z</time></trkpt><trkpt lat="40.5584283" lon="16.66373"><ele>363.0</ele><time>2026-04-26T14:20:38.503Z</time></trkpt><trkpt lat="40.55836" lon="16.6637633"><ele>363.0</ele><time>2026-04-26T14:20:39.5Z</time></trkpt><trkpt lat="40.558295" lon="16.6637967"><ele>363.0</ele><time>2026-04-26T14:20:40.497Z</time></trkpt><trkpt lat="40.5581883" lon="16.66381"><ele>363.0</ele><time>2026-04-26T14:20:42.497Z</time></trkpt><trkpt lat="40.55808" lon="16.6637417"><ele>363.0</ele><time>2026-04-26T14:20:44.501Z</time></trkpt><trkpt lat="40.558045" lon="16.6636683"><ele>363.0</ele><time>2026-04-26T14:20:45.497Z</time></trkpt><trkpt lat="40.5579967" lon="16.6635767"><ele>363.0</ele><time>2026-04-26T14:20:46.5Z</time></trkpt><trkpt lat="40.5579617" lon="16.6634783"><ele>363.0</ele><time>2026-04-26T14:20:47.497Z</time></trkpt><trkpt lat="40.5579417" lon="16.6633917"><ele>363.0</ele><time>2026-04-26T14:20:48.497Z</time></trkpt><trkpt lat="40.5579183" lon="16.6633133"><ele>363.1666666666667</ele><time>2026-04-26T14:20:49.497Z</time></trkpt><trkpt lat="40.5578433" lon="16.6632933"><ele>363.3333333333333</ele><time>2026-04-26T14:20:51.496Z</time></trkpt><trkpt lat="40.55774" lon="16.66337"><ele>363.5</ele><time>2026-04-26T14:20:53.499Z</time></trkpt><trkpt lat="40.5576783" lon="16.663415"><ele>363.66666666666663</ele><time>2026-04-26T14:20:54.499Z</time></trkpt><trkpt lat="40.5576183" lon="16.6634667"><ele>363.8333333333333</ele><time>2026-04-26T14:20:55.496Z</time></trkpt><trkpt lat="40.5575533" lon="16.6635267"><ele>364.0</ele><time>2026-04-26T14:20:56.499Z</time></trkpt><trkpt lat="40.5574917" lon="16.6635983"><ele>363.8333333333333</ele><time>2026-04-26T14:20:57.5Z</time></trkpt><trkpt lat="40.557425" lon="16.66367"><ele>363.66666666666663</ele><time>2026-04-26T14:20:58.499Z</time></trkpt><trkpt lat="40.55736" lon="16.6637467"><ele>363.5</ele><time>2026-04-26T14:20:59.502Z</time></trkpt><trkpt lat="40.5572917" lon="16.663815"><ele>363.3333333333333</ele><time>2026-04-26T14:21:00.502Z</time></trkpt><trkpt lat="40.55723" lon="16.663885"><ele>363.1666666666667</ele><time>2026-04-26T14:21:01.499Z</time></trkpt><trkpt lat="40.5571667" lon="16.6639467"><ele>363.0</ele><time>2026-04-26T14:21:02.501Z</time></trkpt><trkpt lat="40.5570967" lon="16.6640067"><ele>362.6666666666667</ele><time>2026-04-26T14:21:03.497Z</time></trkpt><trkpt lat="40.557025" lon="16.6640717"><ele>362.3333333333333</ele><time>2026-04-26T14:21:04.5Z</time></trkpt><trkpt lat="40.5569583" lon="16.6641383"><ele>362.0</ele><time>2026-04-26T14:21:05.501Z</time></trkpt><trkpt lat="40.5568917" lon="16.6642033"><ele>361.66666666666663</ele><time>2026-04-26T14:21:06.5Z</time></trkpt><trkpt lat="40.5568317" lon="16.6642733"><ele>361.3333333333333</ele><time>2026-04-26T14:21:07.498Z</time></trkpt><trkpt lat="40.55677" lon="16.6643483"><ele>361.0</ele><time>2026-04-26T14:21:08.498Z</time></trkpt><trkpt lat="40.5567083" lon="16.664415"><ele>360.5</ele><time>2026-04-26T14:21:09.494Z</time></trkpt><trkpt lat="40.5566417" lon="16.664475"><ele>360.0</ele><time>2026-04-26T14:21:10.486Z</time></trkpt><trkpt lat="40.5565767" lon="16.6645467"><ele>359.5</ele><time>2026-04-26T14:21:11.486Z</time></trkpt><trkpt lat="40.55652" lon="16.66462"><ele>359.0</ele><time>2026-04-26T14:21:12.485Z</time></trkpt><trkpt lat="40.55646" lon="16.6646967"><ele>358.5</ele><time>2026-04-26T14:21:13.485Z</time></trkpt><trkpt lat="40.5563983" lon="16.6647617"><ele>358.0</ele><time>2026-04-26T14:21:14.487Z</time></trkpt><trkpt lat="40.556335" lon="16.6648267"><ele>358.0</ele><time>2026-04-26T14:21:15.485Z</time></trkpt><trkpt lat="40.5562717" lon="16.66489"><ele>358.0</ele><time>2026-04-26T14:21:16.487Z</time></trkpt><trkpt lat="40.5562083" lon="16.66496"><ele>358.0</ele><time>2026-04-26T14:21:17.486Z</time></trkpt><trkpt lat="40.5561433" lon="16.6650183"><ele>358.0</ele><time>2026-04-26T14:21:18.486Z</time></trkpt><trkpt lat="40.5560833" lon="16.66508"><ele>358.0</ele><time>2026-04-26T14:21:19.488Z</time></trkpt><trkpt lat="40.55602" lon="16.6651433"><ele>358.0</ele><time>2026-04-26T14:21:20.488Z</time></trkpt><trkpt lat="40.5559633" lon="16.6652083"><ele>357.14285714285717</ele><time>2026-04-26T14:21:21.496Z</time></trkpt><trkpt lat="40.555915" lon="16.6652833"><ele>356.2857142857143</ele><time>2026-04-26T14:21:22.499Z</time></trkpt><trkpt lat="40.5558717" lon="16.6653583"><ele>355.42857142857144</ele><time>2026-04-26T14:21:23.501Z</time></trkpt><trkpt lat="40.5558233" lon="16.665425"><ele>354.57142857142856</ele><time>2026-04-26T14:21:24.502Z</time></trkpt><trkpt lat="40.5557733" lon="16.6654833"><ele>353.7142857142857</ele><time>2026-04-26T14:21:25.501Z</time></trkpt><trkpt lat="40.5557133" lon="16.665525"><ele>352.8571428571429</ele><time>2026-04-26T14:21:26.5Z</time></trkpt><trkpt lat="40.5556483" lon="16.6655683"><ele>352.0</ele><time>2026-04-26T14:21:27.499Z</time></trkpt><trkpt lat="40.555585" lon="16.665615"><ele>352.0</ele><time>2026-04-26T14:21:28.498Z</time></trkpt><trkpt lat="40.5555233" lon="16.66567"><ele>352.0</ele><time>2026-04-26T14:21:29.499Z</time></trkpt><trkpt lat="40.5554583" lon="16.6657167"><ele>352.0</ele><time>2026-04-26T14:21:30.499Z</time></trkpt><trkpt lat="40.5553883" lon="16.66576"><ele>352.0</ele><time>2026-04-26T14:21:31.501Z</time></trkpt><trkpt lat="40.555305" lon="16.66579"><ele>352.0</ele><time>2026-04-26T14:21:32.504Z</time></trkpt><trkpt lat="40.5552217" lon="16.6658233"><ele>352.0</ele><time>2026-04-26T14:21:33.502Z</time></trkpt><trkpt lat="40.5551383" lon="16.66586"><ele>351.16666666666663</ele><time>2026-04-26T14:21:34.501Z</time></trkpt><trkpt lat="40.55506" lon="16.6658883"><ele>350.3333333333333</ele><time>2026-04-26T14:21:35.502Z</time></trkpt><trkpt lat="40.55499" lon="16.6659167"><ele>349.5</ele><time>2026-04-26T14:21:36.502Z</time></trkpt><trkpt lat="40.5549317" lon="16.665965"><ele>348.6666666666667</ele><time>2026-04-26T14:21:37.502Z</time></trkpt><trkpt lat="40.5548883" lon="16.6660383"><ele>347.83333333333337</ele><time>2026-04-26T14:21:38.502Z</time></trkpt><trkpt lat="40.5548367" lon="16.6661133"><ele>347.0</ele><time>2026-04-26T14:21:39.502Z</time></trkpt><trkpt lat="40.5547783" lon="16.6661883"><ele>346.6666666666667</ele><time>2026-04-26T14:21:40.498Z</time></trkpt><trkpt lat="40.5547233" lon="16.6662717"><ele>346.33333333333337</ele><time>2026-04-26T14:21:41.501Z</time></trkpt><trkpt lat="40.554665" lon="16.66635"><ele>346.0</ele><time>2026-04-26T14:21:42.501Z</time></trkpt><trkpt lat="40.55461" lon="16.6664283"><ele>345.6666666666667</ele><time>2026-04-26T14:21:43.496Z</time></trkpt><trkpt lat="40.5545583" lon="16.6665117"><ele>345.3333333333333</ele><time>2026-04-26T14:21:44.501Z</time></trkpt><trkpt lat="40.5545033" lon="16.6665917"><ele>345.0</ele><time>2026-04-26T14:21:45.498Z</time></trkpt><trkpt lat="40.5544633" lon="16.6666733"><ele>344.1666666666667</ele><time>2026-04-26T14:21:46.498Z</time></trkpt><trkpt lat="40.55438" lon="16.6667983"><ele>343.3333333333333</ele><time>2026-04-26T14:21:48.496Z</time></trkpt><trkpt lat="40.5543267" lon="16.6668583"><ele>342.5</ele><time>2026-04-26T14:21:49.5Z</time></trkpt><trkpt lat="40.5542667" lon="16.6669017"><ele>341.66666666666663</ele><time>2026-04-26T14:21:50.501Z</time></trkpt><trkpt lat="40.5541833" lon="16.6669583"><ele>340.8333333333333</ele><time>2026-04-26T14:21:52.498Z</time></trkpt><trkpt lat="40.5541267" lon="16.6670067"><ele>340.0</ele><time>2026-04-26T14:21:58.495Z</time></trkpt><trkpt lat="40.554185" lon="16.6671017"><ele>340.0</ele><time>2026-04-26T14:22:01.502Z</time></trkpt><trkpt lat="40.55424" lon="16.66716"><ele>340.0</ele><time>2026-04-26T14:22:04.5Z</time></trkpt><trkpt lat="40.55426" lon="16.667245"><ele>340.0</ele><time>2026-04-26T14:22:13.498Z</time></trkpt><trkpt lat="40.5541867" lon="16.6673"><ele>340.0</ele><time>2026-04-26T14:22:16.486Z</time></trkpt><trkpt lat="40.5541417" lon="16.6673783"><ele>340.0</ele><time>2026-04-26T14:22:20.501Z</time></trkpt><trkpt lat="40.5540433" lon="16.6673967"><ele>340.0</ele><time>2026-04-26T14:22:23.496Z</time></trkpt><trkpt lat="40.5539117" lon="16.66737"><ele>340.0</ele><time>2026-04-26T14:22:25.498Z</time></trkpt><trkpt lat="40.553815" lon="16.667365"><ele>340.0</ele><time>2026-04-26T14:22:26.501Z</time></trkpt><trkpt lat="40.5536967" lon="16.6673617"><ele>340.0</ele><time>2026-04-26T14:22:27.498Z</time></trkpt><trkpt lat="40.553575" lon="16.6673383"><ele>340.0</ele><time>2026-04-26T14:22:28.498Z</time></trkpt><trkpt lat="40.55345" lon="16.6673067"><ele>338.75</ele><time>2026-04-26T14:22:29.496Z</time></trkpt><trkpt lat="40.5533217" lon="16.667275"><ele>337.5</ele><time>2026-04-26T14:22:30.497Z</time></trkpt><trkpt lat="40.5531967" lon="16.6672533"><ele>336.25</ele><time>2026-04-26T14:22:31.499Z</time></trkpt><trkpt lat="40.5530833" lon="16.6672117"><ele>335.0</ele><time>2026-04-26T14:22:32.497Z</time></trkpt><trkpt lat="40.5529717" lon="16.667175"><ele>334.8</ele><time>2026-04-26T14:22:33.495Z</time></trkpt><trkpt lat="40.5528683" lon="16.6671267"><ele>334.6</ele><time>2026-04-26T14:22:34.499Z</time></trkpt><trkpt lat="40.5527683" lon="16.667065"><ele>334.4</ele><time>2026-04-26T14:22:35.499Z</time></trkpt><trkpt lat="40.552675" lon="16.6669867"><ele>334.2</ele><time>2026-04-26T14:22:36.5Z</time></trkpt><trkpt lat="40.5525883" lon="16.6668867"><ele>334.0</ele><time>2026-04-26T14:22:37.501Z</time></trkpt><trkpt lat="40.5525133" lon="16.6667733"><ele>334.0</ele><time>2026-04-26T14:22:38.501Z</time></trkpt><trkpt lat="40.55245" lon="16.6666533"><ele>334.0</ele><time>2026-04-26T14:22:39.502Z</time></trkpt><trkpt lat="40.5523883" lon="16.6665367"><ele>334.0</ele><time>2026-04-26T14:22:40.496Z</time></trkpt><trkpt lat="40.5523267" lon="16.666435"><ele>334.0</ele><time>2026-04-26T14:22:41.499Z</time></trkpt><trkpt lat="40.552275" lon="16.666335"><ele>334.0</ele><time>2026-04-26T14:22:42.499Z</time></trkpt><trkpt lat="40.5522367" lon="16.6662417"><ele>334.0</ele><time>2026-04-26T14:22:43.499Z</time></trkpt><trkpt lat="40.5522167" lon="16.66615"><ele>334.0</ele><time>2026-04-26T14:22:44.501Z</time></trkpt><trkpt lat="40.5521433" lon="16.66604"><ele>334.0</ele><time>2026-04-26T14:22:46.496Z</time></trkpt><trkpt lat="40.55203" lon="16.666045"><ele>334.0</ele><time>2026-04-26T14:22:48.499Z</time></trkpt><trkpt lat="40.55196" lon="16.66605"><ele>334.0</ele><time>2026-04-26T14:22:49.495Z</time></trkpt><trkpt lat="40.551875" lon="16.6660717"><ele>333.2</ele><time>2026-04-26T14:22:50.503Z</time></trkpt><trkpt lat="40.5517817" lon="16.6660833"><ele>332.4</ele><time>2026-04-26T14:22:51.499Z</time></trkpt><trkpt lat="40.551675" lon="16.66611"><ele>331.6</ele><time>2026-04-26T14:22:52.502Z</time></trkpt><trkpt lat="40.5515617" lon="16.66614"><ele>330.8</ele><time>2026-04-26T14:22:53.497Z</time></trkpt><trkpt lat="40.55145" lon="16.6661567"><ele>330.0</ele><time>2026-04-26T14:22:54.501Z</time></trkpt><trkpt lat="40.551345" lon="16.6661817"><ele>330.0</ele><time>2026-04-26T14:22:55.503Z</time></trkpt><trkpt lat="40.5512383" lon="16.6662117"><ele>330.0</ele><time>2026-04-26T14:22:56.503Z</time></trkpt><trkpt lat="40.5511217" lon="16.6662317"><ele>330.0</ele><time>2026-04-26T14:22:57.5Z</time></trkpt><trkpt lat="40.551005" lon="16.66624"><ele>330.0</ele><time>2026-04-26T14:22:58.499Z</time></trkpt><trkpt lat="40.5508883" lon="16.66624"><ele>329.6</ele><time>2026-04-26T14:22:59.5Z</time></trkpt><trkpt lat="40.55078" lon="16.6662467"><ele>329.2</ele><time>2026-04-26T14:23:00.503Z</time></trkpt><trkpt lat="40.5506683" lon="16.666255"><ele>328.79999999999995</ele><time>2026-04-26T14:23:01.502Z</time></trkpt><trkpt lat="40.5505567" lon="16.6662583"><ele>328.4</ele><time>2026-04-26T14:23:02.505Z</time></trkpt><trkpt lat="40.5504517" lon="16.6662517"><ele>328.0</ele><time>2026-04-26T14:23:03.502Z</time></trkpt><trkpt lat="40.5503517" lon="16.666255"><ele>328.0</ele><time>2026-04-26T14:23:04.502Z</time></trkpt><trkpt lat="40.550255" lon="16.66626"><ele>328.0</ele><time>2026-04-26T14:23:05.501Z</time></trkpt><trkpt lat="40.550155" lon="16.6662567"><ele>328.0</ele><time>2026-04-26T14:23:06.501Z</time></trkpt><trkpt lat="40.5500567" lon="16.6662583"><ele>328.0</ele><time>2026-04-26T14:23:07.498Z</time></trkpt><trkpt lat="40.5499633" lon="16.6662617"><ele>328.0</ele><time>2026-04-26T14:23:08.499Z</time></trkpt><trkpt lat="40.5498683" lon="16.66626"><ele>328.0</ele><time>2026-04-26T14:23:09.501Z</time></trkpt><trkpt lat="40.54978" lon="16.6662617"><ele>328.0</ele><time>2026-04-26T14:23:10.497Z</time></trkpt><trkpt lat="40.5496883" lon="16.66625"><ele>328.0</ele><time>2026-04-26T14:23:11.501Z</time></trkpt><trkpt lat="40.54959" lon="16.6662333"><ele>328.0</ele><time>2026-04-26T14:23:12.5Z</time></trkpt><trkpt lat="40.5494983" lon="16.6662483"><ele>328.0</ele><time>2026-04-26T14:23:13.498Z</time></trkpt><trkpt lat="40.54941" lon="16.6662883"><ele>326.4</ele><time>2026-04-26T14:23:14.502Z</time></trkpt><trkpt lat="40.54932" lon="16.666325"><ele>324.79999999999995</ele><time>2026-04-26T14:23:15.496Z</time></trkpt><trkpt lat="40.5492267" lon="16.6663617"><ele>323.2</ele><time>2026-04-26T14:23:16.498Z</time></trkpt><trkpt lat="40.54913" lon="16.666405"><ele>321.6</ele><time>2026-04-26T14:23:17.498Z</time></trkpt><trkpt lat="40.5490333" lon="16.6664417"><ele>320.0</ele><time>2026-04-26T14:23:18.495Z</time></trkpt><trkpt lat="40.548935" lon="16.6664667"><ele>320.0</ele><time>2026-04-26T14:23:19.5Z</time></trkpt><trkpt lat="40.54884" lon="16.6664933"><ele>320.0</ele><time>2026-04-26T14:23:20.5Z</time></trkpt><trkpt lat="40.5487483" lon="16.666515"><ele>320.0</ele><time>2026-04-26T14:23:21.499Z</time></trkpt><trkpt lat="40.548665" lon="16.6665383"><ele>320.0</ele><time>2026-04-26T14:23:22.5Z</time></trkpt><trkpt lat="40.5485867" lon="16.66656"><ele>320.0</ele><time>2026-04-26T14:23:23.502Z</time></trkpt><trkpt lat="40.5485117" lon="16.6665833"><ele>320.0</ele><time>2026-04-26T14:23:24.501Z</time></trkpt><trkpt lat="40.54844" lon="16.66661"><ele>318.83333333333337</ele><time>2026-04-26T14:23:25.503Z</time></trkpt><trkpt lat="40.54837" lon="16.6666467"><ele>317.6666666666667</ele><time>2026-04-26T14:23:26.504Z</time></trkpt><trkpt lat="40.54831" lon="16.6666783"><ele>316.5</ele><time>2026-04-26T14:23:27.5Z</time></trkpt><trkpt lat="40.548195" lon="16.66672"><ele>315.3333333333333</ele><time>2026-04-26T14:23:29.495Z</time></trkpt><trkpt lat="40.5481333" lon="16.6667433"><ele>314.16666666666663</ele><time>2026-04-26T14:23:30.498Z</time></trkpt><trkpt lat="40.5480633" lon="16.66676"><ele>313.0</ele><time>2026-04-26T14:23:31.499Z</time></trkpt><trkpt lat="40.547995" lon="16.6667783"><ele>313.0</ele><time>2026-04-26T14:23:32.501Z</time></trkpt><trkpt lat="40.5479283" lon="16.666795"><ele>313.0</ele><time>2026-04-26T14:23:33.499Z</time></trkpt><trkpt lat="40.5478617" lon="16.666805"><ele>313.0</ele><time>2026-04-26T14:23:34.495Z</time></trkpt><trkpt lat="40.54775" lon="16.66684"><ele>313.0</ele><time>2026-04-26T14:23:36.5Z</time></trkpt><trkpt lat="40.54769" lon="16.6668667"><ele>313.0</ele><time>2026-04-26T14:23:37.499Z</time></trkpt><trkpt lat="40.5476217" lon="16.6669"><ele>313.0</ele><time>2026-04-26T14:23:38.496Z</time></trkpt><trkpt lat="40.54755" lon="16.666925"><ele>313.5</ele><time>2026-04-26T14:23:39.496Z</time></trkpt><trkpt lat="40.5474783" lon="16.6669517"><ele>314.0</ele><time>2026-04-26T14:23:40.496Z</time></trkpt><trkpt lat="40.5474083" lon="16.6669767"><ele>314.5</ele><time>2026-04-26T14:23:41.496Z</time></trkpt><trkpt lat="40.547335" lon="16.6670017"><ele>315.0</ele><time>2026-04-26T14:23:42.5Z</time></trkpt><trkpt lat="40.5472683" lon="16.6670217"><ele>315.5</ele><time>2026-04-26T14:23:43.502Z</time></trkpt><trkpt lat="40.5471467" lon="16.6670467"><ele>316.0</ele><time>2026-04-26T14:23:45.499Z</time></trkpt><trkpt lat="40.5470433" lon="16.6670617"><ele>314.0</ele><time>2026-04-26T14:23:47.5Z</time></trkpt><trkpt lat="40.5469367" lon="16.6670767"><ele>312.0</ele><time>2026-04-26T14:23:49.501Z</time></trkpt><trkpt lat="40.5468233" lon="16.6670967"><ele>310.0</ele><time>2026-04-26T14:23:51.503Z</time></trkpt><trkpt lat="40.546705" lon="16.6670983"><ele>308.0</ele><time>2026-04-26T14:23:53.499Z</time></trkpt><trkpt lat="40.5465883" lon="16.667095"><ele>308.0</ele><time>2026-04-26T14:23:55.5Z</time></trkpt><trkpt lat="40.5464617" lon="16.6670683"><ele>308.0</ele><time>2026-04-26T14:23:57.495Z</time></trkpt><trkpt lat="40.5463917" lon="16.6670533"><ele>308.0</ele><time>2026-04-26T14:23:58.498Z</time></trkpt><trkpt lat="40.546325" lon="16.6670383"><ele>308.0</ele><time>2026-04-26T14:23:59.501Z</time></trkpt><trkpt lat="40.5462517" lon="16.6670217"><ele>308.0</ele><time>2026-04-26T14:24:00.502Z</time></trkpt><trkpt lat="40.546175" lon="16.667005"><ele>308.0</ele><time>2026-04-26T14:24:01.499Z</time></trkpt><trkpt lat="40.5460933" lon="16.66699"><ele>307.83333333333337</ele><time>2026-04-26T14:24:02.501Z</time></trkpt><trkpt lat="40.5460133" lon="16.6669817"><ele>307.6666666666667</ele><time>2026-04-26T14:24:03.496Z</time></trkpt><trkpt lat="40.545935" lon="16.66698"><ele>307.5</ele><time>2026-04-26T14:24:04.499Z</time></trkpt><trkpt lat="40.5458533" lon="16.6669867"><ele>307.3333333333333</ele><time>2026-04-26T14:24:05.496Z</time></trkpt><trkpt lat="40.54577" lon="16.6670117"><ele>307.16666666666663</ele><time>2026-04-26T14:24:06.496Z</time></trkpt><trkpt lat="40.545685" lon="16.66705"><ele>307.0</ele><time>2026-04-26T14:24:07.497Z</time></trkpt><trkpt lat="40.545595" lon="16.6671"><ele>307.0</ele><time>2026-04-26T14:24:08.503Z</time></trkpt><trkpt lat="40.5455017" lon="16.6671583"><ele>307.0</ele><time>2026-04-26T14:24:09.498Z</time></trkpt><trkpt lat="40.54541" lon="16.66722"><ele>307.0</ele><time>2026-04-26T14:24:10.499Z</time></trkpt><trkpt lat="40.5453233" lon="16.66728"><ele>307.0</ele><time>2026-04-26T14:24:11.499Z</time></trkpt><trkpt lat="40.54524" lon="16.6673433"><ele>307.0</ele><time>2026-04-26T14:24:12.499Z</time></trkpt><trkpt lat="40.545155" lon="16.6674067"><ele>306.8333333333333</ele><time>2026-04-26T14:24:13.496Z</time></trkpt><trkpt lat="40.5450733" lon="16.6674667"><ele>306.66666666666663</ele><time>2026-04-26T14:24:14.499Z</time></trkpt><trkpt lat="40.5449967" lon="16.6675367"><ele>306.5</ele><time>2026-04-26T14:24:15.495Z</time></trkpt><trkpt lat="40.5449333" lon="16.6676183"><ele>306.3333333333333</ele><time>2026-04-26T14:24:16.496Z</time></trkpt><trkpt lat="40.544885" lon="16.6677017"><ele>306.1666666666667</ele><time>2026-04-26T14:24:17.496Z</time></trkpt><trkpt lat="40.5448433" lon="16.667785"><ele>306.0</ele><time>2026-04-26T14:24:18.499Z</time></trkpt><trkpt lat="40.5448117" lon="16.6678667"><ele>306.8333333333333</ele><time>2026-04-26T14:24:19.501Z</time></trkpt><trkpt lat="40.5447817" lon="16.6679533"><ele>307.6666666666667</ele><time>2026-04-26T14:24:20.5Z</time></trkpt><trkpt lat="40.5447517" lon="16.668045"><ele>308.5</ele><time>2026-04-26T14:24:21.499Z</time></trkpt><trkpt lat="40.5447183" lon="16.6681383"><ele>309.33333333333337</ele><time>2026-04-26T14:24:22.497Z</time></trkpt><trkpt lat="40.5446817" lon="16.6682333"><ele>310.1666666666667</ele><time>2026-04-26T14:24:23.491Z</time></trkpt><trkpt lat="40.5446417" lon="16.668325"><ele>311.0</ele><time>2026-04-26T14:24:24.5Z</time></trkpt><trkpt lat="40.5445983" lon="16.66841"><ele>311.0</ele><time>2026-04-26T14:24:25.5Z</time></trkpt><trkpt lat="40.5445517" lon="16.6684917"><ele>311.0</ele><time>2026-04-26T14:24:26.5Z</time></trkpt><trkpt lat="40.544505" lon="16.6685767"><ele>311.0</ele><time>2026-04-26T14:24:27.498Z</time></trkpt><trkpt lat="40.544465" lon="16.6686733"><ele>311.0</ele><time>2026-04-26T14:24:28.496Z</time></trkpt><trkpt lat="40.5444267" lon="16.6687767"><ele>311.0</ele><time>2026-04-26T14:24:29.497Z</time></trkpt><trkpt lat="40.54438" lon="16.66888"><ele>311.0</ele><time>2026-04-26T14:24:30.499Z</time></trkpt><trkpt lat="40.5443283" lon="16.66898"><ele>309.5</ele><time>2026-04-26T14:24:31.497Z</time></trkpt><trkpt lat="40.5442733" lon="16.669075"><ele>308.0</ele><time>2026-04-26T14:24:32.498Z</time></trkpt><trkpt lat="40.544215" lon="16.6691683"><ele>306.5</ele><time>2026-04-26T14:24:33.496Z</time></trkpt><trkpt lat="40.54416" lon="16.669255"><ele>305.0</ele><time>2026-04-26T14:24:34.495Z</time></trkpt><trkpt lat="40.5441067" lon="16.6693383"><ele>303.5</ele><time>2026-04-26T14:24:35.498Z</time></trkpt><trkpt lat="40.54406" lon="16.66942"><ele>302.0</ele><time>2026-04-26T14:24:36.498Z</time></trkpt><trkpt lat="40.54402" lon="16.669495"><ele>301.2</ele><time>2026-04-26T14:24:37.499Z</time></trkpt><trkpt lat="40.54395" lon="16.669625"><ele>300.4</ele><time>2026-04-26T14:24:39.497Z</time></trkpt><trkpt lat="40.54391" lon="16.6696983"><ele>299.6</ele><time>2026-04-26T14:24:40.495Z</time></trkpt><trkpt lat="40.54386" lon="16.66978"><ele>298.8</ele><time>2026-04-26T14:24:41.5Z</time></trkpt><trkpt lat="40.543805" lon="16.6698683"><ele>298.0</ele><time>2026-04-26T14:24:42.501Z</time></trkpt><trkpt lat="40.5437417" lon="16.669965"><ele>296.75</ele><time>2026-04-26T14:24:43.5Z</time></trkpt><trkpt lat="40.543675" lon="16.6700767"><ele>295.5</ele><time>2026-04-26T14:24:44.502Z</time></trkpt><trkpt lat="40.5436017" lon="16.6701917"><ele>294.25</ele><time>2026-04-26T14:24:45.496Z</time></trkpt><trkpt lat="40.5435233" lon="16.67031"><ele>293.0</ele><time>2026-04-26T14:24:46.501Z</time></trkpt><trkpt lat="40.54345" lon="16.6704267"><ele>292.2</ele><time>2026-04-26T14:24:47.499Z</time></trkpt><trkpt lat="40.5433817" lon="16.67054"><ele>291.4</ele><time>2026-04-26T14:24:48.499Z</time></trkpt><trkpt lat="40.543315" lon="16.6706533"><ele>290.59999999999997</ele><time>2026-04-26T14:24:49.498Z</time></trkpt><trkpt lat="40.5432467" lon="16.670765"><ele>289.8</ele><time>2026-04-26T14:24:50.502Z</time></trkpt><trkpt lat="40.5431767" lon="16.6708783"><ele>289.0</ele><time>2026-04-26T14:24:51.498Z</time></trkpt><trkpt lat="40.543105" lon="16.670995"><ele>288.4</ele><time>2026-04-26T14:24:52.497Z</time></trkpt><trkpt lat="40.5430367" lon="16.6711167"><ele>287.79999999999995</ele><time>2026-04-26T14:24:53.501Z</time></trkpt><trkpt lat="40.5429683" lon="16.6712333"><ele>287.20000000000005</ele><time>2026-04-26T14:24:54.5Z</time></trkpt><trkpt lat="40.5429017" lon="16.6713467"><ele>286.6</ele><time>2026-04-26T14:24:55.499Z</time></trkpt><trkpt lat="40.542835" lon="16.67146"><ele>286.0</ele><time>2026-04-26T14:24:56.501Z</time></trkpt><trkpt lat="40.5427667" lon="16.6715783"><ele>286.0</ele><time>2026-04-26T14:24:57.498Z</time></trkpt><trkpt lat="40.5426983" lon="16.6717"><ele>286.0</ele><time>2026-04-26T14:24:58.498Z</time></trkpt><trkpt lat="40.5426283" lon="16.6718183"><ele>286.0</ele><time>2026-04-26T14:24:59.5Z</time></trkpt><trkpt lat="40.5425567" lon="16.6719367"><ele>286.0</ele><time>2026-04-26T14:25:00.498Z</time></trkpt><trkpt lat="40.542485" lon="16.67205"><ele>286.66666666666663</ele><time>2026-04-26T14:25:01.5Z</time></trkpt><trkpt lat="40.5424217" lon="16.6721483"><ele>287.3333333333333</ele><time>2026-04-26T14:25:02.5Z</time></trkpt><trkpt lat="40.54237" lon="16.6722333"><ele>288.0</ele><time>2026-04-26T14:25:03.499Z</time></trkpt><trkpt lat="40.5423267" lon="16.67231"><ele>288.6666666666667</ele><time>2026-04-26T14:25:04.499Z</time></trkpt><trkpt lat="40.542285" lon="16.6723883"><ele>289.33333333333337</ele><time>2026-04-26T14:25:05.499Z</time></trkpt><trkpt lat="40.5422383" lon="16.67247"><ele>290.0</ele><time>2026-04-26T14:25:06.499Z</time></trkpt><trkpt lat="40.5421867" lon="16.6725517"><ele>290.0</ele><time>2026-04-26T14:25:07.496Z</time></trkpt><trkpt lat="40.54213" lon="16.6726367"><ele>290.0</ele><time>2026-04-26T14:25:08.499Z</time></trkpt><trkpt lat="40.5420733" lon="16.6727267"><ele>290.0</ele><time>2026-04-26T14:25:09.5Z</time></trkpt><trkpt lat="40.5420217" lon="16.6728217"><ele>290.0</ele><time>2026-04-26T14:25:10.501Z</time></trkpt><trkpt lat="40.541965" lon="16.672915"><ele>290.0</ele><time>2026-04-26T14:25:11.5Z</time></trkpt><trkpt lat="40.541905" lon="16.6730083"><ele>290.0</ele><time>2026-04-26T14:25:12.499Z</time></trkpt><trkpt lat="40.5418483" lon="16.6731033"><ele>288.2</ele><time>2026-04-26T14:25:13.502Z</time></trkpt><trkpt lat="40.541795" lon="16.6732033"><ele>286.4</ele><time>2026-04-26T14:25:14.502Z</time></trkpt><trkpt lat="40.5417533" lon="16.6733117"><ele>284.6</ele><time>2026-04-26T14:25:15.497Z</time></trkpt><trkpt lat="40.54172" lon="16.6734317"><ele>282.8</ele><time>2026-04-26T14:25:16.5Z</time></trkpt><trkpt lat="40.541695" lon="16.6735583"><ele>281.0</ele><time>2026-04-26T14:25:17.498Z</time></trkpt><trkpt lat="40.5416767" lon="16.6736833"><ele>281.0</ele><time>2026-04-26T14:25:18.496Z</time></trkpt><trkpt lat="40.5416667" lon="16.6738117"><ele>281.0</ele><time>2026-04-26T14:25:19.498Z</time></trkpt><trkpt lat="40.5416583" lon="16.673935"><ele>281.0</ele><time>2026-04-26T14:25:20.502Z</time></trkpt><trkpt lat="40.541655" lon="16.674055"><ele>281.0</ele><time>2026-04-26T14:25:21.498Z</time></trkpt><trkpt lat="40.54166" lon="16.674175"><ele>281.0</ele><time>2026-04-26T14:25:22.499Z</time></trkpt><trkpt lat="40.5416683" lon="16.6742917"><ele>281.0</ele><time>2026-04-26T14:25:23.498Z</time></trkpt><trkpt lat="40.5416733" lon="16.6744083"><ele>281.0</ele><time>2026-04-26T14:25:24.501Z</time></trkpt><trkpt lat="40.54167" lon="16.6745183"><ele>281.0</ele><time>2026-04-26T14:25:25.5Z</time></trkpt><trkpt lat="40.5416517" lon="16.6746117"><ele>281.0</ele><time>2026-04-26T14:25:26.501Z</time></trkpt><trkpt lat="40.5416217" lon="16.6746867"><ele>281.0</ele><time>2026-04-26T14:25:27.5Z</time></trkpt><trkpt lat="40.5416033" lon="16.6747983"><ele>281.0</ele><time>2026-04-26T14:25:29.499Z</time></trkpt><trkpt lat="40.5416717" lon="16.674825"><ele>281.0</ele><time>2026-04-26T14:25:32.487Z</time></trkpt><trkpt lat="40.54171" lon="16.67471"><ele>281.0</ele><time>2026-04-26T14:25:35.496Z</time></trkpt><trkpt lat="40.5417" lon="16.6745233"><ele>281.0</ele><time>2026-04-26T14:25:37.5Z</time></trkpt><trkpt lat="40.541695" lon="16.6743833"><ele>281.0</ele><time>2026-04-26T14:25:38.502Z</time></trkpt><trkpt lat="40.5416917" lon="16.674235"><ele>281.0</ele><time>2026-04-26T14:25:39.495Z</time></trkpt><trkpt lat="40.54169" lon="16.6740833"><ele>281.0</ele><time>2026-04-26T14:25:40.497Z</time></trkpt><trkpt lat="40.5416867" lon="16.6739317"><ele>281.0</ele><time>2026-04-26T14:25:41.501Z</time></trkpt><trkpt lat="40.5416883" lon="16.6737817"><ele>281.0</ele><time>2026-04-26T14:25:42.499Z</time></trkpt><trkpt lat="40.5417033" lon="16.6736283"><ele>280.5</ele><time>2026-04-26T14:25:43.498Z</time></trkpt><trkpt lat="40.54174" lon="16.67347"><ele>280.0</ele><time>2026-04-26T14:25:44.503Z</time></trkpt><trkpt lat="40.541795" lon="16.6733117"><ele>279.5</ele><time>2026-04-26T14:25:45.5Z</time></trkpt><trkpt lat="40.5418617" lon="16.6731583"><ele>279.0</ele><time>2026-04-26T14:25:46.499Z</time></trkpt><trkpt lat="40.5419383" lon="16.6730167"><ele>279.0</ele><time>2026-04-26T14:25:47.499Z</time></trkpt><trkpt lat="40.5420167" lon="16.672875"><ele>279.0</ele><time>2026-04-26T14:25:48.496Z</time></trkpt><trkpt lat="40.5420967" lon="16.672735"><ele>279.0</ele><time>2026-04-26T14:25:49.5Z</time></trkpt><trkpt lat="40.5421783" lon="16.6726"><ele>279.0</ele><time>2026-04-26T14:25:50.502Z</time></trkpt><trkpt lat="40.5422583" lon="16.67247"><ele>281.75</ele><time>2026-04-26T14:25:51.501Z</time></trkpt><trkpt lat="40.5423383" lon="16.6723483"><ele>284.5</ele><time>2026-04-26T14:25:52.5Z</time></trkpt><trkpt lat="40.5424133" lon="16.6722233"><ele>287.25</ele><time>2026-04-26T14:25:53.5Z</time></trkpt><trkpt lat="40.5424817" lon="16.6720967"><ele>290.0</ele><time>2026-04-26T14:25:54.497Z</time></trkpt><trkpt lat="40.542555" lon="16.6719683"><ele>289.0</ele><time>2026-04-26T14:25:55.5Z</time></trkpt><trkpt lat="40.5426367" lon="16.6718333"><ele>288.0</ele><time>2026-04-26T14:25:56.502Z</time></trkpt><trkpt lat="40.5427167" lon="16.6717"><ele>287.0</ele><time>2026-04-26T14:25:57.5Z</time></trkpt><trkpt lat="40.5427967" lon="16.6715633"><ele>286.0</ele><time>2026-04-26T14:25:58.5Z</time></trkpt><trkpt lat="40.542875" lon="16.67143"><ele>286.75</ele><time>2026-04-26T14:25:59.498Z</time></trkpt><trkpt lat="40.5429567" lon="16.6712933"><ele>287.5</ele><time>2026-04-26T14:26:00.504Z</time></trkpt><trkpt lat="40.543035" lon="16.6711617"><ele>288.25</ele><time>2026-04-26T14:26:01.499Z</time></trkpt><trkpt lat="40.5431133" lon="16.67103"><ele>289.0</ele><time>2026-04-26T14:26:02.502Z</time></trkpt><trkpt lat="40.5431933" lon="16.6709033"><ele>289.0</ele><time>2026-04-26T14:26:03.5Z</time></trkpt><trkpt lat="40.5432733" lon="16.67078"><ele>289.0</ele><time>2026-04-26T14:26:04.496Z</time></trkpt><trkpt lat="40.54335" lon="16.6706533"><ele>289.0</ele><time>2026-04-26T14:26:05.501Z</time></trkpt><trkpt lat="40.543425" lon="16.6705267"><ele>289.0</ele><time>2026-04-26T14:26:06.497Z</time></trkpt><trkpt lat="40.5435017" lon="16.6704017"><ele>290.0</ele><time>2026-04-26T14:26:07.498Z</time></trkpt><trkpt lat="40.5435783" lon="16.6702733"><ele>291.0</ele><time>2026-04-26T14:26:08.502Z</time></trkpt><trkpt lat="40.5436567" lon="16.6701467"><ele>292.0</ele><time>2026-04-26T14:26:09.5Z</time></trkpt><trkpt lat="40.5437333" lon="16.6700183"><ele>293.0</ele><time>2026-04-26T14:26:10.5Z</time></trkpt><trkpt lat="40.54381" lon="16.669885"><ele>294.25</ele><time>2026-04-26T14:26:11.498Z</time></trkpt><trkpt lat="40.5438883" lon="16.66976"><ele>295.5</ele><time>2026-04-26T14:26:12.499Z</time></trkpt><trkpt lat="40.543965" lon="16.669635"><ele>296.75</ele><time>2026-04-26T14:26:13.5Z</time></trkpt><trkpt lat="40.54404" lon="16.6695117"><ele>298.0</ele><time>2026-04-26T14:26:14.502Z</time></trkpt><trkpt lat="40.544115" lon="16.6693883"><ele>299.0</ele><time>2026-04-26T14:26:15.496Z</time></trkpt><trkpt lat="40.5441867" lon="16.6692617"><ele>300.0</ele><time>2026-04-26T14:26:16.5Z</time></trkpt><trkpt lat="40.54426" lon="16.6691367"><ele>301.0</ele><time>2026-04-26T14:26:17.498Z</time></trkpt><trkpt lat="40.5443367" lon="16.669015"><ele>302.0</ele><time>2026-04-26T14:26:18.497Z</time></trkpt><trkpt lat="40.5444167" lon="16.6688983"><ele>302.0</ele><time>2026-04-26T14:26:19.498Z</time></trkpt><trkpt lat="40.544495" lon="16.66879"><ele>302.0</ele><time>2026-04-26T14:26:20.5Z</time></trkpt><trkpt lat="40.5445667" lon="16.6686717"><ele>302.0</ele><time>2026-04-26T14:26:21.499Z</time></trkpt><trkpt lat="40.5446217" lon="16.66854"><ele>302.0</ele><time>2026-04-26T14:26:22.499Z</time></trkpt><trkpt lat="40.5446617" lon="16.6683983"><ele>304.25</ele><time>2026-04-26T14:26:23.499Z</time></trkpt><trkpt lat="40.5447083" lon="16.6682533"><ele>306.5</ele><time>2026-04-26T14:26:24.498Z</time></trkpt><trkpt lat="40.5447633" lon="16.6681117"><ele>308.75</ele><time>2026-04-26T14:26:25.496Z</time></trkpt><trkpt lat="40.54482" lon="16.6679733"><ele>311.0</ele><time>2026-04-26T14:26:26.502Z</time></trkpt><trkpt lat="40.5448733" lon="16.667845"><ele>310.0</ele><time>2026-04-26T14:26:27.497Z</time></trkpt><trkpt lat="40.5449267" lon="16.6677217"><ele>309.0</ele><time>2026-04-26T14:26:28.497Z</time></trkpt><trkpt lat="40.5449867" lon="16.6676117"><ele>308.0</ele><time>2026-04-26T14:26:29.496Z</time></trkpt><trkpt lat="40.5450633" lon="16.66751"><ele>307.0</ele><time>2026-04-26T14:26:30.5Z</time></trkpt><trkpt lat="40.545155" lon="16.66742"><ele>306.0</ele><time>2026-04-26T14:26:31.499Z</time></trkpt><trkpt lat="40.5452583" lon="16.6673433"><ele>306.0</ele><time>2026-04-26T14:26:32.502Z</time></trkpt><trkpt lat="40.545365" lon="16.6672767"><ele>306.0</ele><time>2026-04-26T14:26:33.498Z</time></trkpt><trkpt lat="40.5454717" lon="16.6672217"><ele>306.0</ele><time>2026-04-26T14:26:34.499Z</time></trkpt><trkpt lat="40.5455717" lon="16.6671667"><ele>306.0</ele><time>2026-04-26T14:26:35.498Z</time></trkpt><trkpt lat="40.5456683" lon="16.6671167"><ele>306.0</ele><time>2026-04-26T14:26:36.499Z</time></trkpt><trkpt lat="40.5457667" lon="16.6670733"><ele>306.2</ele><time>2026-04-26T14:26:37.498Z</time></trkpt><trkpt lat="40.5458683" lon="16.66704"><ele>306.40000000000003</ele><time>2026-04-26T14:26:38.499Z</time></trkpt><trkpt lat="40.5459733" lon="16.66702"><ele>306.6</ele><time>2026-04-26T14:26:39.499Z</time></trkpt><trkpt lat="40.54608" lon="16.6670183"><ele>306.8</ele><time>2026-04-26T14:26:40.498Z</time></trkpt><trkpt lat="40.5461917" lon="16.667035"><ele>307.0</ele><time>2026-04-26T14:26:41.498Z</time></trkpt><trkpt lat="40.5463" lon="16.66707"><ele>307.25</ele><time>2026-04-26T14:26:42.499Z</time></trkpt><trkpt lat="40.546415" lon="16.6671017"><ele>307.5</ele><time>2026-04-26T14:26:43.5Z</time></trkpt><trkpt lat="40.546535" lon="16.6671267"><ele>307.75</ele><time>2026-04-26T14:26:44.501Z</time></trkpt><trkpt lat="40.5466517" lon="16.6671533"><ele>308.0</ele><time>2026-04-26T14:26:45.499Z</time></trkpt><trkpt lat="40.5467633" lon="16.6671733"><ele>308.0</ele><time>2026-04-26T14:26:46.501Z</time></trkpt><trkpt lat="40.5468667" lon="16.66718"><ele>308.0</ele><time>2026-04-26T14:26:47.494Z</time></trkpt><trkpt lat="40.5469683" lon="16.6671783"><ele>308.0</ele><time>2026-04-26T14:26:48.494Z</time></trkpt><trkpt lat="40.5470683" lon="16.667165"><ele>308.0</ele><time>2026-04-26T14:26:49.495Z</time></trkpt><trkpt lat="40.5471667" lon="16.667145"><ele>308.0</ele><time>2026-04-26T14:26:50.498Z</time></trkpt><trkpt lat="40.5472617" lon="16.667125"><ele>308.1666666666667</ele><time>2026-04-26T14:26:51.498Z</time></trkpt><trkpt lat="40.547355" lon="16.6670967"><ele>308.33333333333337</ele><time>2026-04-26T14:26:52.497Z</time></trkpt><trkpt lat="40.54744" lon="16.6670667"><ele>308.5</ele><time>2026-04-26T14:26:53.494Z</time></trkpt><trkpt lat="40.5475167" lon="16.6670333"><ele>308.6666666666667</ele><time>2026-04-26T14:26:54.496Z</time></trkpt><trkpt lat="40.54759" lon="16.667005"><ele>308.8333333333333</ele><time>2026-04-26T14:26:55.498Z</time></trkpt><trkpt lat="40.547655" lon="16.6669833"><ele>309.0</ele><time>2026-04-26T14:26:56.501Z</time></trkpt><trkpt lat="40.5477717" lon="16.666935"><ele>309.0</ele><time>2026-04-26T14:26:58.497Z</time></trkpt><trkpt lat="40.547845" lon="16.6669083"><ele>309.0</ele><time>2026-04-26T14:26:59.499Z</time></trkpt><trkpt lat="40.54793" lon="16.6668817"><ele>309.0</ele><time>2026-04-26T14:27:00.5Z</time></trkpt><trkpt lat="40.5480167" lon="16.666855"><ele>309.0</ele><time>2026-04-26T14:27:01.5Z</time></trkpt><trkpt lat="40.5481067" lon="16.66683"><ele>309.0</ele><time>2026-04-26T14:27:02.497Z</time></trkpt><trkpt lat="40.5482083" lon="16.6668033"><ele>309.0</ele><time>2026-04-26T14:27:03.501Z</time></trkpt><trkpt lat="40.548315" lon="16.6667817"><ele>310.0</ele><time>2026-04-26T14:27:04.495Z</time></trkpt><trkpt lat="40.5484233" lon="16.6667417"><ele>311.0</ele><time>2026-04-26T14:27:05.5Z</time></trkpt><trkpt lat="40.5485367" lon="16.6667033"><ele>312.0</ele><time>2026-04-26T14:27:06.497Z</time></trkpt><trkpt lat="40.5486583" lon="16.6666533"><ele>313.0</ele><time>2026-04-26T14:27:07.5Z</time></trkpt><trkpt lat="40.548785" lon="16.66661"><ele>314.75</ele><time>2026-04-26T14:27:08.498Z</time></trkpt><trkpt lat="40.548915" lon="16.6665733"><ele>316.5</ele><time>2026-04-26T14:27:09.498Z</time></trkpt><trkpt lat="40.54904" lon="16.66653"><ele>318.25</ele><time>2026-04-26T14:27:10.496Z</time></trkpt><trkpt lat="40.5491617" lon="16.6664867"><ele>320.0</ele><time>2026-04-26T14:27:11.497Z</time></trkpt><trkpt lat="40.5492783" lon="16.6664483"><ele>320.0</ele><time>2026-04-26T14:27:12.5Z</time></trkpt><trkpt lat="40.549395" lon="16.6664083"><ele>320.0</ele><time>2026-04-26T14:27:13.5Z</time></trkpt><trkpt lat="40.549505" lon="16.6663717"><ele>320.0</ele><time>2026-04-26T14:27:14.5Z</time></trkpt><trkpt lat="40.54961" lon="16.6663317"><ele>320.0</ele><time>2026-04-26T14:27:15.499Z</time></trkpt><trkpt lat="40.5497117" lon="16.6663"><ele>320.0</ele><time>2026-04-26T14:27:16.498Z</time></trkpt><trkpt lat="40.54982" lon="16.6662867"><ele>322.0</ele><time>2026-04-26T14:27:17.497Z</time></trkpt><trkpt lat="40.5499333" lon="16.6662817"><ele>324.0</ele><time>2026-04-26T14:27:18.499Z</time></trkpt><trkpt lat="40.550055" lon="16.6662733"><ele>326.0</ele><time>2026-04-26T14:27:19.5Z</time></trkpt><trkpt lat="40.5501817" lon="16.6662683"><ele>328.0</ele><time>2026-04-26T14:27:20.497Z</time></trkpt><trkpt lat="40.5503017" lon="16.666265"><ele>328.0</ele><time>2026-04-26T14:27:21.499Z</time></trkpt><trkpt lat="40.55042" lon="16.6662567"><ele>328.0</ele><time>2026-04-26T14:27:22.498Z</time></trkpt><trkpt lat="40.5505333" lon="16.666245"><ele>328.0</ele><time>2026-04-26T14:27:23.496Z</time></trkpt><trkpt lat="40.55064" lon="16.6662317"><ele>328.0</ele><time>2026-04-26T14:27:24.5Z</time></trkpt><trkpt lat="40.550745" lon="16.666225"><ele>328.0</ele><time>2026-04-26T14:27:25.499Z</time></trkpt><trkpt lat="40.55086" lon="16.6662117"><ele>328.0</ele><time>2026-04-26T14:27:26.497Z</time></trkpt><trkpt lat="40.5509867" lon="16.6661917"><ele>328.0</ele><time>2026-04-26T14:27:27.498Z</time></trkpt><trkpt lat="40.551125" lon="16.6661783"><ele>328.0</ele><time>2026-04-26T14:27:28.495Z</time></trkpt><trkpt lat="40.551275" lon="16.6661683"><ele>328.0</ele><time>2026-04-26T14:27:29.498Z</time></trkpt><trkpt lat="40.5514267" lon="16.6661567"><ele>328.5</ele><time>2026-04-26T14:27:30.501Z</time></trkpt><trkpt lat="40.5515667" lon="16.6661417"><ele>329.0</ele><time>2026-04-26T14:27:31.497Z</time></trkpt><trkpt lat="40.551695" lon="16.66613"><ele>329.5</ele><time>2026-04-26T14:27:32.502Z</time></trkpt><trkpt lat="40.5518117" lon="16.6661083"><ele>330.0</ele><time>2026-04-26T14:27:33.496Z</time></trkpt><trkpt lat="40.5519167" lon="16.6660983"><ele>329.6</ele><time>2026-04-26T14:27:34.499Z</time></trkpt><trkpt lat="40.5520133" lon="16.6661017"><ele>329.2</ele><time>2026-04-26T14:27:35.499Z</time></trkpt><trkpt lat="40.5521067" lon="16.6661083"><ele>328.79999999999995</ele><time>2026-04-26T14:27:36.502Z</time></trkpt><trkpt lat="40.5521867" lon="16.666165"><ele>328.4</ele><time>2026-04-26T14:27:37.498Z</time></trkpt><trkpt lat="40.5522533" lon="16.6662867"><ele>328.0</ele><time>2026-04-26T14:27:38.499Z</time></trkpt><trkpt lat="40.5523233" lon="16.6664183"><ele>329.5</ele><time>2026-04-26T14:27:39.5Z</time></trkpt><trkpt lat="40.5523917" lon="16.6665517"><ele>331.0</ele><time>2026-04-26T14:27:40.499Z</time></trkpt><trkpt lat="40.5524567" lon="16.66669"><ele>332.5</ele><time>2026-04-26T14:27:41.496Z</time></trkpt><trkpt lat="40.5525233" lon="16.666815"><ele>334.0</ele><time>2026-04-26T14:27:42.495Z</time></trkpt><trkpt lat="40.5525983" lon="16.66692"><ele>333.79999999999995</ele><time>2026-04-26T14:27:43.496Z</time></trkpt><trkpt lat="40.5526883" lon="16.6670067"><ele>333.59999999999997</ele><time>2026-04-26T14:27:44.5Z</time></trkpt><trkpt lat="40.5527833" lon="16.6670717"><ele>333.4</ele><time>2026-04-26T14:27:45.497Z</time></trkpt><trkpt lat="40.5528817" lon="16.6671217"><ele>333.2</ele><time>2026-04-26T14:27:46.497Z</time></trkpt><trkpt lat="40.55298" lon="16.6671633"><ele>333.0</ele><time>2026-04-26T14:27:47.499Z</time></trkpt><trkpt lat="40.5530767" lon="16.6672067"><ele>333.4</ele><time>2026-04-26T14:27:48.498Z</time></trkpt><trkpt lat="40.5531783" lon="16.6672417"><ele>333.79999999999995</ele><time>2026-04-26T14:27:49.497Z</time></trkpt><trkpt lat="40.5532817" lon="16.66727"><ele>334.2</ele><time>2026-04-26T14:27:50.498Z</time></trkpt><trkpt lat="40.553385" lon="16.6673017"><ele>334.6</ele><time>2026-04-26T14:27:51.496Z</time></trkpt><trkpt lat="40.55349" lon="16.66733"><ele>335.0</ele><time>2026-04-26T14:27:52.498Z</time></trkpt><trkpt lat="40.5535967" lon="16.6673567"><ele>335.0</ele><time>2026-04-26T14:27:53.498Z</time></trkpt><trkpt lat="40.5537033" lon="16.667375"><ele>335.0</ele><time>2026-04-26T14:27:54.494Z</time></trkpt><trkpt lat="40.5538083" lon="16.66739"><ele>335.0</ele><time>2026-04-26T14:27:55.5Z</time></trkpt><trkpt lat="40.5539117" lon="16.6673917"><ele>335.0</ele><time>2026-04-26T14:27:56.5Z</time></trkpt><trkpt lat="40.5540067" lon="16.667405"><ele>335.0</ele><time>2026-04-26T14:27:57.498Z</time></trkpt><trkpt lat="40.5541017" lon="16.6674167"><ele>336.0</ele><time>2026-04-26T14:27:58.502Z</time></trkpt><trkpt lat="40.554195" lon="16.6674183"><ele>337.0</ele><time>2026-04-26T14:27:59.502Z</time></trkpt><trkpt lat="40.5542883" lon="16.66743"><ele>338.0</ele><time>2026-04-26T14:28:00.498Z</time></trkpt><trkpt lat="40.55439" lon="16.66744"><ele>339.0</ele><time>2026-04-26T14:28:01.496Z</time></trkpt><trkpt lat="40.5545033" lon="16.6674533"><ele>340.0</ele><time>2026-04-26T14:28:02.5Z</time></trkpt><trkpt lat="40.5546183" lon="16.6674767"><ele>341.2</ele><time>2026-04-26T14:28:03.502Z</time></trkpt><trkpt lat="40.554725" lon="16.6675"><ele>342.4</ele><time>2026-04-26T14:28:04.498Z</time></trkpt><trkpt lat="40.5548283" lon="16.6675183"><ele>343.6</ele><time>2026-04-26T14:28:05.499Z</time></trkpt><trkpt lat="40.5549317" lon="16.66753"><ele>344.8</ele><time>2026-04-26T14:28:06.499Z</time></trkpt><trkpt lat="40.5550183" lon="16.6675533"><ele>346.0</ele><time>2026-04-26T14:28:07.501Z</time></trkpt><trkpt lat="40.5550883" lon="16.6675683"><ele>346.0</ele><time>2026-04-26T14:28:08.5Z</time></trkpt><trkpt lat="40.5551533" lon="16.6675817"><ele>346.0</ele><time>2026-04-26T14:28:09.498Z</time></trkpt><trkpt lat="40.5552233" lon="16.6674883"><ele>346.0</ele><time>2026-04-26T14:28:11.499Z</time></trkpt><trkpt lat="40.555275" lon="16.667335"><ele>346.0</ele><time>2026-04-26T14:28:13.498Z</time></trkpt><trkpt lat="40.5553017" lon="16.66723"><ele>346.0</ele><time>2026-04-26T14:28:14.5Z</time></trkpt><trkpt lat="40.5553333" lon="16.6671117"><ele>346.0</ele><time>2026-04-26T14:28:15.497Z</time></trkpt><trkpt lat="40.5553683" lon="16.667"><ele>346.0</ele><time>2026-04-26T14:28:16.494Z</time></trkpt><trkpt lat="40.5554083" lon="16.6668767"><ele>346.0</ele><time>2026-04-26T14:28:17.498Z</time></trkpt><trkpt lat="40.55545" lon="16.6667483"><ele>346.0</ele><time>2026-04-26T14:28:18.499Z</time></trkpt><trkpt lat="40.5555" lon="16.6666017"><ele>346.0</ele><time>2026-04-26T14:28:19.501Z</time></trkpt><trkpt lat="40.55555" lon="16.6664383"><ele>346.0</ele><time>2026-04-26T14:28:20.501Z</time></trkpt><trkpt lat="40.5556017" lon="16.666265"><ele>346.0</ele><time>2026-04-26T14:28:21.498Z</time></trkpt><trkpt lat="40.5556433" lon="16.666105"><ele>346.0</ele><time>2026-04-26T14:28:22.494Z</time></trkpt><trkpt lat="40.5556733" lon="16.6659583"><ele>346.0</ele><time>2026-04-26T14:28:23.497Z</time></trkpt><trkpt lat="40.5556933" lon="16.66583"><ele>347.0</ele><time>2026-04-26T14:28:24.496Z</time></trkpt><trkpt lat="40.5557083" lon="16.6657183"><ele>348.0</ele><time>2026-04-26T14:28:25.495Z</time></trkpt><trkpt lat="40.55573" lon="16.6656267"><ele>349.0</ele><time>2026-04-26T14:28:26.498Z</time></trkpt><trkpt lat="40.5557683" lon="16.6654917"><ele>350.0</ele><time>2026-04-26T14:28:28.495Z</time></trkpt><trkpt lat="40.555785" lon="16.66539"><ele>351.0</ele><time>2026-04-26T14:28:30.485Z</time></trkpt><trkpt lat="40.5556889" lon="16.6654259"><ele>352.0</ele><time>2026-04-26T14:30:41.952Z</time></trkpt><trkpt lat="40.5556117" lon="16.665605"><ele>352.0</ele><time>2026-04-26T14:30:45.486Z</time></trkpt><trkpt lat="40.5555567" lon="16.66555"><ele>352.0</ele><time>2026-04-26T14:30:46.486Z</time></trkpt><trkpt lat="40.55565" lon="16.6655667"><ele>352.0</ele><time>2026-04-26T14:31:24.497Z</time></trkpt><trkpt lat="40.5557017" lon="16.6655183"><ele>352.0</ele><time>2026-04-26T14:31:28.498Z</time></trkpt><trkpt lat="40.55578" lon="16.6654267"><ele>352.0</ele><time>2026-04-26T14:31:29.499Z</time></trkpt><trkpt lat="40.555775" lon="16.665295"><ele>352.0</ele><time>2026-04-26T14:32:30.498Z</time></trkpt><trkpt lat="40.5558083" lon="16.66539"><ele>352.0</ele><time>2026-04-26T14:32:34.486Z</time></trkpt><trkpt lat="40.555735" lon="16.6654683"><ele>352.0</ele><time>2026-04-26T14:32:36.5Z</time></trkpt><trkpt lat="40.5556333" lon="16.6655517"><ele>352.0</ele><time>2026-04-26T14:32:38.502Z</time></trkpt><trkpt lat="40.5555783" lon="16.665595"><ele>352.0</ele><time>2026-04-26T14:32:39.501Z</time></trkpt><trkpt lat="40.555515" lon="16.6656417"><ele>352.0</ele><time>2026-04-26T14:32:40.497Z</time></trkpt><trkpt lat="40.5553967" lon="16.6657117"><ele>351.0</ele><time>2026-04-26T14:32:42.495Z</time></trkpt><trkpt lat="40.55529" lon="16.6657783"><ele>350.0</ele><time>2026-04-26T14:32:44.489Z</time></trkpt><trkpt lat="40.5551767" lon="16.6658467"><ele>349.0</ele><time>2026-04-26T14:32:46.498Z</time></trkpt><trkpt lat="40.5551117" lon="16.6658833"><ele>348.0</ele><time>2026-04-26T14:32:47.499Z</time></trkpt><trkpt lat="40.5550383" lon="16.6659267"><ele>347.0</ele><time>2026-04-26T14:32:48.501Z</time></trkpt><trkpt lat="40.5549167" lon="16.665975"><ele>347.0</ele><time>2026-04-26T14:32:50.501Z</time></trkpt><trkpt lat="40.55485" lon="16.665965"><ele>347.0</ele><time>2026-04-26T14:32:51.495Z</time></trkpt><trkpt lat="40.554785" lon="16.6659367"><ele>347.0</ele><time>2026-04-26T14:32:52.497Z</time></trkpt><trkpt lat="40.5547333" lon="16.6658717"><ele>347.0</ele><time>2026-04-26T14:32:53.496Z</time></trkpt><trkpt lat="40.5546867" lon="16.6657867"><ele>347.0</ele><time>2026-04-26T14:32:54.5Z</time></trkpt><trkpt lat="40.55465" lon="16.6657"><ele>347.0</ele><time>2026-04-26T14:32:55.498Z</time></trkpt><trkpt lat="40.5546117" lon="16.6656183"><ele>347.0</ele><time>2026-04-26T14:32:56.501Z</time></trkpt><trkpt lat="40.5545833" lon="16.66554"><ele>347.0</ele><time>2026-04-26T14:32:57.499Z</time></trkpt><trkpt lat="40.55456" lon="16.66546"><ele>347.0</ele><time>2026-04-26T14:32:58.498Z</time></trkpt><trkpt lat="40.5545417" lon="16.6653467"><ele>347.0</ele><time>2026-04-26T14:33:00.498Z</time></trkpt><trkpt lat="40.5544717" lon="16.665315"><ele>347.0</ele><time>2026-04-26T14:33:03.501Z</time></trkpt><trkpt lat="40.55439" lon="16.6653333"><ele>347.0</ele><time>2026-04-26T14:33:05.499Z</time></trkpt><trkpt lat="40.5542633" lon="16.6653433"><ele>347.0</ele><time>2026-04-26T14:33:07.499Z</time></trkpt><trkpt lat="40.5541817" lon="16.6653367"><ele>346.0</ele><time>2026-04-26T14:33:08.499Z</time></trkpt><trkpt lat="40.5541" lon="16.6653333"><ele>345.0</ele><time>2026-04-26T14:33:09.499Z</time></trkpt><trkpt lat="40.5540267" lon="16.66531"><ele>344.0</ele><time>2026-04-26T14:33:10.499Z</time></trkpt><trkpt lat="40.55396" lon="16.6652567"><ele>343.0</ele><time>2026-04-26T14:33:11.5Z</time></trkpt><trkpt lat="40.5539117" lon="16.665185"><ele>342.0</ele><time>2026-04-26T14:33:12.501Z</time></trkpt><trkpt lat="40.5538667" lon="16.66511"><ele>341.0</ele><time>2026-04-26T14:33:13.501Z</time></trkpt><trkpt lat="40.553835" lon="16.6650167"><ele>340.6</ele><time>2026-04-26T14:33:14.504Z</time></trkpt><trkpt lat="40.5538067" lon="16.6649"><ele>340.20000000000005</ele><time>2026-04-26T14:33:15.498Z</time></trkpt><trkpt lat="40.5537817" lon="16.6647667"><ele>339.79999999999995</ele><time>2026-04-26T14:33:16.498Z</time></trkpt><trkpt lat="40.5537567" lon="16.6646383"><ele>339.4</ele><time>2026-04-26T14:33:17.496Z</time></trkpt><trkpt lat="40.553735" lon="16.6645117"><ele>339.0</ele><time>2026-04-26T14:33:18.502Z</time></trkpt><trkpt lat="40.5537117" lon="16.6643917"><ele>336.6666666666667</ele><time>2026-04-26T14:33:19.501Z</time></trkpt><trkpt lat="40.5536933" lon="16.6642767"><ele>334.3333333333333</ele><time>2026-04-26T14:33:20.502Z</time></trkpt><trkpt lat="40.5536683" lon="16.664165"><ele>332.0</ele><time>2026-04-26T14:33:21.5Z</time></trkpt><trkpt lat="40.553645" lon="16.6640517"><ele>329.66666666666663</ele><time>2026-04-26T14:33:22.499Z</time></trkpt><trkpt lat="40.5536183" lon="16.6639483"><ele>327.3333333333333</ele><time>2026-04-26T14:33:23.5Z</time></trkpt><trkpt lat="40.5535817" lon="16.6638417"><ele>325.0</ele><time>2026-04-26T14:33:24.5Z</time></trkpt><trkpt lat="40.5535367" lon="16.6637383"><ele>325.0</ele><time>2026-04-26T14:33:25.497Z</time></trkpt><trkpt lat="40.5534933" lon="16.6636267"><ele>325.0</ele><time>2026-04-26T14:33:26.502Z</time></trkpt><trkpt lat="40.5534483" lon="16.6635217"><ele>325.0</ele><time>2026-04-26T14:33:27.5Z</time></trkpt><trkpt lat="40.5533967" lon="16.66342"><ele>325.0</ele><time>2026-04-26T14:33:28.5Z</time></trkpt><trkpt lat="40.5533467" lon="16.66332"><ele>325.0</ele><time>2026-04-26T14:33:29.5Z</time></trkpt><trkpt lat="40.5532983" lon="16.6632183"><ele>324.0</ele><time>2026-04-26T14:33:30.5Z</time></trkpt><trkpt lat="40.5532433" lon="16.6631233"><ele>323.0</ele><time>2026-04-26T14:33:31.497Z</time></trkpt><trkpt lat="40.5531933" lon="16.663035"><ele>322.0</ele><time>2026-04-26T14:33:32.501Z</time></trkpt><trkpt lat="40.55316" lon="16.6629467"><ele>321.0</ele><time>2026-04-26T14:33:33.499Z</time></trkpt><trkpt lat="40.5531317" lon="16.6628483"><ele>320.0</ele><time>2026-04-26T14:33:34.502Z</time></trkpt><trkpt lat="40.5530883" lon="16.6627417"><ele>319.0</ele><time>2026-04-26T14:33:35.5Z</time></trkpt><trkpt lat="40.5530267" lon="16.6626333"><ele>317.0</ele><time>2026-04-26T14:33:36.503Z</time></trkpt><trkpt lat="40.5529533" lon="16.6625333"><ele>315.0</ele><time>2026-04-26T14:33:37.503Z</time></trkpt><trkpt lat="40.552875" lon="16.662435"><ele>313.0</ele><time>2026-04-26T14:33:38.502Z</time></trkpt><trkpt lat="40.5528017" lon="16.6623383"><ele>311.0</ele><time>2026-04-26T14:33:39.497Z</time></trkpt><trkpt lat="40.55273" lon="16.6622383"><ele>309.0</ele><time>2026-04-26T14:33:40.5Z</time></trkpt><trkpt lat="40.5526567" lon="16.662145"><ele>307.59999999999997</ele><time>2026-04-26T14:33:41.5Z</time></trkpt><trkpt lat="40.5525767" lon="16.6620467"><ele>306.2</ele><time>2026-04-26T14:33:42.5Z</time></trkpt><trkpt lat="40.5525" lon="16.661955"><ele>304.79999999999995</ele><time>2026-04-26T14:33:43.5Z</time></trkpt><trkpt lat="40.55242" lon="16.6618617"><ele>303.4</ele><time>2026-04-26T14:33:44.502Z</time></trkpt><trkpt lat="40.552345" lon="16.6617683"><ele>302.0</ele><time>2026-04-26T14:33:45.5Z</time></trkpt><trkpt lat="40.5522717" lon="16.6616733"><ele>300.0</ele><time>2026-04-26T14:33:46.499Z</time></trkpt><trkpt lat="40.5522083" lon="16.6615667"><ele>298.0</ele><time>2026-04-26T14:33:47.5Z</time></trkpt><trkpt lat="40.5521633" lon="16.6614433"><ele>296.0</ele><time>2026-04-26T14:33:48.501Z</time></trkpt><trkpt lat="40.5521433" lon="16.6613117"><ele>294.0</ele><time>2026-04-26T14:33:49.499Z</time></trkpt><trkpt lat="40.5521467" lon="16.6611733"><ele>292.0</ele><time>2026-04-26T14:33:50.498Z</time></trkpt><trkpt lat="40.5521683" lon="16.6610417"><ele>289.6</ele><time>2026-04-26T14:33:51.5Z</time></trkpt><trkpt lat="40.5521967" lon="16.66091"><ele>287.2</ele><time>2026-04-26T14:33:52.5Z</time></trkpt><trkpt lat="40.5522233" lon="16.6607833"><ele>284.8</ele><time>2026-04-26T14:33:53.497Z</time></trkpt><trkpt lat="40.5522433" lon="16.6606583"><ele>282.4</ele><time>2026-04-26T14:33:54.503Z</time></trkpt><trkpt lat="40.5522417" lon="16.6605383"><ele>280.0</ele><time>2026-04-26T14:33:55.498Z</time></trkpt><trkpt lat="40.55221" lon="16.6604267"><ele>280.0</ele><time>2026-04-26T14:33:56.501Z</time></trkpt><trkpt lat="40.552155" lon="16.6603283"><ele>280.0</ele><time>2026-04-26T14:33:57.5Z</time></trkpt><trkpt lat="40.5520817" lon="16.66025"><ele>280.0</ele><time>2026-04-26T14:33:58.5Z</time></trkpt><trkpt lat="40.5519983" lon="16.6601817"><ele>280.0</ele><time>2026-04-26T14:33:59.5Z</time></trkpt><trkpt lat="40.5519133" lon="16.660115"><ele>280.0</ele><time>2026-04-26T14:34:00.501Z</time></trkpt><trkpt lat="40.551825" lon="16.66005"><ele>279.0</ele><time>2026-04-26T14:34:01.502Z</time></trkpt><trkpt lat="40.5517367" lon="16.65999"><ele>278.0</ele><time>2026-04-26T14:34:02.502Z</time></trkpt><trkpt lat="40.5516467" lon="16.6599317"><ele>277.0</ele><time>2026-04-26T14:34:03.502Z</time></trkpt><trkpt lat="40.551555" lon="16.659875"><ele>276.0</ele><time>2026-04-26T14:34:04.498Z</time></trkpt><trkpt lat="40.55147" lon="16.6598117"><ele>275.0</ele><time>2026-04-26T14:34:05.498Z</time></trkpt><trkpt lat="40.5513833" lon="16.6597467"><ele>275.0</ele><time>2026-04-26T14:34:06.5Z</time></trkpt><trkpt lat="40.5513033" lon="16.6596717"><ele>275.0</ele><time>2026-04-26T14:34:07.503Z</time></trkpt><trkpt lat="40.55123" lon="16.659585"><ele>275.0</ele><time>2026-04-26T14:34:08.499Z</time></trkpt><trkpt lat="40.5511617" lon="16.6594883"><ele>275.0</ele><time>2026-04-26T14:34:09.498Z</time></trkpt><trkpt lat="40.551105" lon="16.6593767"><ele>275.0</ele><time>2026-04-26T14:34:10.499Z</time></trkpt><trkpt lat="40.5510567" lon="16.6592617"><ele>273.4</ele><time>2026-04-26T14:34:11.499Z</time></trkpt><trkpt lat="40.5510183" lon="16.6591367"><ele>271.8</ele><time>2026-04-26T14:34:12.5Z</time></trkpt><trkpt lat="40.5509833" lon="16.6590133"><ele>270.2</ele><time>2026-04-26T14:34:13.502Z</time></trkpt><trkpt lat="40.5509483" lon="16.65889"><ele>268.6</ele><time>2026-04-26T14:34:14.5Z</time></trkpt><trkpt lat="40.5509117" lon="16.658755"><ele>267.0</ele><time>2026-04-26T14:34:15.501Z</time></trkpt><trkpt lat="40.5508717" lon="16.65863"><ele>266.4</ele><time>2026-04-26T14:34:16.498Z</time></trkpt><trkpt lat="40.5508283" lon="16.6585083"><ele>265.79999999999995</ele><time>2026-04-26T14:34:17.5Z</time></trkpt><trkpt lat="40.5507867" lon="16.658385"><ele>265.2</ele><time>2026-04-26T14:34:18.501Z</time></trkpt><trkpt lat="40.5507467" lon="16.6582667"><ele>264.59999999999997</ele><time>2026-04-26T14:34:19.498Z</time></trkpt><trkpt lat="40.5507083" lon="16.6581517"><ele>264.0</ele><time>2026-04-26T14:34:20.498Z</time></trkpt><trkpt lat="40.5506717" lon="16.6580417"><ele>264.0</ele><time>2026-04-26T14:34:21.497Z</time></trkpt><trkpt lat="40.5506367" lon="16.65793"><ele>264.0</ele><time>2026-04-26T14:34:22.495Z</time></trkpt><trkpt lat="40.5506133" lon="16.657815"><ele>264.0</ele><time>2026-04-26T14:34:23.501Z</time></trkpt><trkpt lat="40.5505917" lon="16.6577067"><ele>264.0</ele><time>2026-04-26T14:34:24.5Z</time></trkpt><trkpt lat="40.55057" lon="16.6576017"><ele>264.0</ele><time>2026-04-26T14:34:25.503Z</time></trkpt><trkpt lat="40.5505383" lon="16.6575183"><ele>264.0</ele><time>2026-04-26T14:34:26.502Z</time></trkpt><trkpt lat="40.5504567" lon="16.6574317"><ele>264.0</ele><time>2026-04-26T14:34:28.497Z</time></trkpt><trkpt lat="40.550395" lon="16.6575017"><ele>264.0</ele><time>2026-04-26T14:34:30.498Z</time></trkpt><trkpt lat="40.550445" lon="16.6576733"><ele>264.0</ele><time>2026-04-26T14:34:32.5Z</time></trkpt><trkpt lat="40.5504933" lon="16.65777"><ele>264.0</ele><time>2026-04-26T14:34:33.498Z</time></trkpt><trkpt lat="40.5505417" lon="16.657865"><ele>264.0</ele><time>2026-04-26T14:34:34.499Z</time></trkpt><trkpt lat="40.5505883" lon="16.6579683"><ele>264.0</ele><time>2026-04-26T14:34:35.5Z</time></trkpt><trkpt lat="40.5506383" lon="16.6580767"><ele>264.0</ele><time>2026-04-26T14:34:36.501Z</time></trkpt><trkpt lat="40.5506883" lon="16.658185"><ele>264.0</ele><time>2026-04-26T14:34:37.499Z</time></trkpt><trkpt lat="40.550735" lon="16.6582967"><ele>264.0</ele><time>2026-04-26T14:34:38.503Z</time></trkpt><trkpt lat="40.550785" lon="16.6584133"><ele>264.0</ele><time>2026-04-26T14:34:39.502Z</time></trkpt><trkpt lat="40.550835" lon="16.6585367"><ele>264.59999999999997</ele><time>2026-04-26T14:34:40.499Z</time></trkpt><trkpt lat="40.55088" lon="16.6586583"><ele>265.2</ele><time>2026-04-26T14:34:41.497Z</time></trkpt><trkpt lat="40.55092" lon="16.6587817"><ele>265.79999999999995</ele><time>2026-04-26T14:34:42.501Z</time></trkpt><trkpt lat="40.5509517" lon="16.6589033"><ele>266.4</ele><time>2026-04-26T14:34:43.499Z</time></trkpt><trkpt lat="40.5509833" lon="16.65903"><ele>267.0</ele><time>2026-04-26T14:34:44.502Z</time></trkpt><trkpt lat="40.5510183" lon="16.659155"><ele>267.0</ele><time>2026-04-26T14:34:45.504Z</time></trkpt><trkpt lat="40.5510583" lon="16.65927"><ele>267.0</ele><time>2026-04-26T14:34:46.5Z</time></trkpt><trkpt lat="40.55111" lon="16.6593883"><ele>267.0</ele><time>2026-04-26T14:34:47.498Z</time></trkpt><trkpt lat="40.5511717" lon="16.6595"><ele>267.0</ele><time>2026-04-26T14:34:48.501Z</time></trkpt><trkpt lat="40.551245" lon="16.6596033"><ele>267.0</ele><time>2026-04-26T14:34:49.5Z</time></trkpt><trkpt lat="40.5513233" lon="16.6596933"><ele>268.6</ele><time>2026-04-26T14:34:50.502Z</time></trkpt><trkpt lat="40.5514083" lon="16.6597683"><ele>270.2</ele><time>2026-04-26T14:34:51.5Z</time></trkpt><trkpt lat="40.5514967" lon="16.6598417"><ele>271.8</ele><time>2026-04-26T14:34:52.503Z</time></trkpt><trkpt lat="40.5515967" lon="16.6599"><ele>273.4</ele><time>2026-04-26T14:34:53.501Z</time></trkpt><trkpt lat="40.5516933" lon="16.6599683"><ele>275.0</ele><time>2026-04-26T14:34:54.502Z</time></trkpt><trkpt lat="40.5517917" lon="16.66003"><ele>275.0</ele><time>2026-04-26T14:34:55.5Z</time></trkpt><trkpt lat="40.5518867" lon="16.6600917"><ele>275.0</ele><time>2026-04-26T14:34:56.502Z</time></trkpt><trkpt lat="40.5519767" lon="16.660155"><ele>275.0</ele><time>2026-04-26T14:34:57.498Z</time></trkpt><trkpt lat="40.5520567" lon="16.6602183"><ele>275.0</ele><time>2026-04-26T14:34:58.496Z</time></trkpt><trkpt lat="40.552115" lon="16.6602967"><ele>275.0</ele><time>2026-04-26T14:34:59.501Z</time></trkpt><trkpt lat="40.5521517" lon="16.6603917"><ele>275.8</ele><time>2026-04-26T14:35:00.498Z</time></trkpt><trkpt lat="40.5521417" lon="16.6605033"><ele>276.6</ele><time>2026-04-26T14:35:01.497Z</time></trkpt><trkpt lat="40.5521067" lon="16.660615"><ele>277.4</ele><time>2026-04-26T14:35:02.504Z</time></trkpt><trkpt lat="40.5520367" lon="16.6607233"><ele>278.2</ele><time>2026-04-26T14:35:03.501Z</time></trkpt><trkpt lat="40.5519583" lon="16.660825"><ele>279.0</ele><time>2026-04-26T14:35:04.501Z</time></trkpt><trkpt lat="40.55188" lon="16.6609317"><ele>279.0</ele><time>2026-04-26T14:35:05.502Z</time></trkpt><trkpt lat="40.55181" lon="16.6610333"><ele>279.0</ele><time>2026-04-26T14:35:06.501Z</time></trkpt><trkpt lat="40.551745" lon="16.6611417"><ele>279.0</ele><time>2026-04-26T14:35:07.5Z</time></trkpt><trkpt lat="40.5516883" lon="16.6612583"><ele>279.0</ele><time>2026-04-26T14:35:08.502Z</time></trkpt><trkpt lat="40.5516433" lon="16.6613817"><ele>279.0</ele><time>2026-04-26T14:35:09.501Z</time></trkpt><trkpt lat="40.5516083" lon="16.66151"><ele>281.0</ele><time>2026-04-26T14:35:10.5Z</time></trkpt><trkpt lat="40.5515767" lon="16.661635"><ele>283.0</ele><time>2026-04-26T14:35:11.501Z</time></trkpt><trkpt lat="40.5515467" lon="16.6617583"><ele>285.0</ele><time>2026-04-26T14:35:12.502Z</time></trkpt><trkpt lat="40.551515" lon="16.66188"><ele>287.0</ele><time>2026-04-26T14:35:13.5Z</time></trkpt><trkpt lat="40.5514883" lon="16.66201"><ele>289.0</ele><time>2026-04-26T14:35:14.499Z</time></trkpt><trkpt lat="40.55146" lon="16.6621317"><ele>290.4</ele><time>2026-04-26T14:35:15.5Z</time></trkpt><trkpt lat="40.55143" lon="16.66225"><ele>291.79999999999995</ele><time>2026-04-26T14:35:16.497Z</time></trkpt><trkpt lat="40.55139" lon="16.6623667"><ele>293.20000000000005</ele><time>2026-04-26T14:35:17.496Z</time></trkpt><trkpt lat="40.5513483" lon="16.6624817"><ele>294.6</ele><time>2026-04-26T14:35:18.498Z</time></trkpt><trkpt lat="40.5513083" lon="16.6625967"><ele>296.0</ele><time>2026-04-26T14:35:19.501Z</time></trkpt><trkpt lat="40.5512667" lon="16.6627117"><ele>295.2</ele><time>2026-04-26T14:35:20.502Z</time></trkpt><trkpt lat="40.551225" lon="16.66283"><ele>294.40000000000003</ele><time>2026-04-26T14:35:21.499Z</time></trkpt><trkpt lat="40.5511833" lon="16.6629467"><ele>293.6</ele><time>2026-04-26T14:35:22.502Z</time></trkpt><trkpt lat="40.5511433" lon="16.663065"><ele>292.8</ele><time>2026-04-26T14:35:23.503Z</time></trkpt><trkpt lat="40.55111" lon="16.6631867"><ele>292.0</ele><time>2026-04-26T14:35:24.504Z</time></trkpt><trkpt lat="40.55108" lon="16.6633117"><ele>292.0</ele><time>2026-04-26T14:35:25.499Z</time></trkpt><trkpt lat="40.5510533" lon="16.6634367"><ele>292.0</ele><time>2026-04-26T14:35:26.496Z</time></trkpt><trkpt lat="40.5510233" lon="16.66356"><ele>292.0</ele><time>2026-04-26T14:35:27.499Z</time></trkpt><trkpt lat="40.551" lon="16.663685"><ele>292.0</ele><time>2026-04-26T14:35:28.501Z</time></trkpt><trkpt lat="40.5509783" lon="16.663815"><ele>292.0</ele><time>2026-04-26T14:35:29.503Z</time></trkpt><trkpt lat="40.5509583" lon="16.6639417"><ele>292.8</ele><time>2026-04-26T14:35:30.501Z</time></trkpt><trkpt lat="40.5509467" lon="16.66407"><ele>293.6</ele><time>2026-04-26T14:35:31.499Z</time></trkpt><trkpt lat="40.5509383" lon="16.6641983"><ele>294.40000000000003</ele><time>2026-04-26T14:35:32.499Z</time></trkpt><trkpt lat="40.5509333" lon="16.664325"><ele>295.2</ele><time>2026-04-26T14:35:33.499Z</time></trkpt><trkpt lat="40.550935" lon="16.66445"><ele>296.0</ele><time>2026-04-26T14:35:34.501Z</time></trkpt><trkpt lat="40.5509383" lon="16.6645767"><ele>297.2</ele><time>2026-04-26T14:35:35.499Z</time></trkpt><trkpt lat="40.5509417" lon="16.6647033"><ele>298.40000000000003</ele><time>2026-04-26T14:35:36.502Z</time></trkpt><trkpt lat="40.5509467" lon="16.6648267"><ele>299.6</ele><time>2026-04-26T14:35:37.501Z</time></trkpt><trkpt lat="40.5509533" lon="16.6649483"><ele>300.8</ele><time>2026-04-26T14:35:38.503Z</time></trkpt><trkpt lat="40.5509567" lon="16.6650717"><ele>302.0</ele><time>2026-04-26T14:35:39.496Z</time></trkpt><trkpt lat="40.5509433" lon="16.665195"><ele>304.6</ele><time>2026-04-26T14:35:40.5Z</time></trkpt><trkpt lat="40.550905" lon="16.665305"><ele>307.2</ele><time>2026-04-26T14:35:41.499Z</time></trkpt><trkpt lat="40.5508533" lon="16.6653983"><ele>309.8</ele><time>2026-04-26T14:35:42.501Z</time></trkpt><trkpt lat="40.550775" lon="16.6654667"><ele>312.4</ele><time>2026-04-26T14:35:43.499Z</time></trkpt><trkpt lat="40.550675" lon="16.665505"><ele>315.0</ele><time>2026-04-26T14:35:44.498Z</time></trkpt><trkpt lat="40.5505767" lon="16.665535"><ele>315.0</ele><time>2026-04-26T14:35:45.499Z</time></trkpt><trkpt lat="40.5504767" lon="16.6655583"><ele>315.0</ele><time>2026-04-26T14:35:46.497Z</time></trkpt><trkpt lat="40.550375" lon="16.6655767"><ele>315.0</ele><time>2026-04-26T14:35:47.498Z</time></trkpt><trkpt lat="40.550275" lon="16.6655933"><ele>315.0</ele><time>2026-04-26T14:35:48.496Z</time></trkpt><trkpt lat="40.5501783" lon="16.6656133"><ele>315.0</ele><time>2026-04-26T14:35:49.5Z</time></trkpt><trkpt lat="40.5500783" lon="16.6656283"><ele>315.0</ele><time>2026-04-26T14:35:50.5Z</time></trkpt><trkpt lat="40.5499817" lon="16.66563"><ele>315.0</ele><time>2026-04-26T14:35:51.499Z</time></trkpt><trkpt lat="40.54989" lon="16.6656267"><ele>315.0</ele><time>2026-04-26T14:35:52.499Z</time></trkpt><trkpt lat="40.549805" lon="16.665605"><ele>315.0</ele><time>2026-04-26T14:35:53.5Z</time></trkpt><trkpt lat="40.549725" lon="16.665585"><ele>315.0</ele><time>2026-04-26T14:35:54.503Z</time></trkpt><trkpt lat="40.5496467" lon="16.66558"><ele>315.0</ele><time>2026-04-26T14:35:55.499Z</time></trkpt><trkpt lat="40.549575" lon="16.665605"><ele>314.3333333333333</ele><time>2026-04-26T14:35:56.501Z</time></trkpt><trkpt lat="40.5495133" lon="16.6656617"><ele>313.6666666666667</ele><time>2026-04-26T14:35:57.499Z</time></trkpt><trkpt lat="40.549485" lon="16.6657567"><ele>313.0</ele><time>2026-04-26T14:35:58.498Z</time></trkpt><trkpt lat="40.5494817" lon="16.6658733"><ele>312.33333333333337</ele><time>2026-04-26T14:35:59.499Z</time></trkpt><trkpt lat="40.549485" lon="16.66599"><ele>311.6666666666667</ele><time>2026-04-26T14:36:00.495Z</time></trkpt><trkpt lat="40.54949" lon="16.6660883"><ele>311.0</ele><time>2026-04-26T14:36:01.499Z</time></trkpt><trkpt lat="40.54949" lon="16.6661733"><ele>312.8</ele><time>2026-04-26T14:36:02.5Z</time></trkpt><trkpt lat="40.5494633" lon="16.6663083"><ele>314.6</ele><time>2026-04-26T14:36:04.5Z</time></trkpt><trkpt lat="40.5493583" lon="16.6663783"><ele>316.4</ele><time>2026-04-26T14:36:06.501Z</time></trkpt><trkpt lat="40.5492883" lon="16.6663967"><ele>318.2</ele><time>2026-04-26T14:36:07.5Z</time></trkpt><trkpt lat="40.5492133" lon="16.6664217"><ele>320.0</ele><time>2026-04-26T14:36:08.503Z</time></trkpt><trkpt lat="40.5491317" lon="16.6664483"><ele>320.0</ele><time>2026-04-26T14:36:09.5Z</time></trkpt><trkpt lat="40.5490533" lon="16.6664767"><ele>320.0</ele><time>2026-04-26T14:36:10.501Z</time></trkpt><trkpt lat="40.54897" lon="16.6665067"><ele>320.0</ele><time>2026-04-26T14:36:11.499Z</time></trkpt><trkpt lat="40.5488933" lon="16.6665367"><ele>320.0</ele><time>2026-04-26T14:36:12.501Z</time></trkpt><trkpt lat="40.5488167" lon="16.6665683"><ele>320.0</ele><time>2026-04-26T14:36:13.5Z</time></trkpt><trkpt lat="40.5487383" lon="16.6665967"><ele>320.0</ele><time>2026-04-26T14:36:14.504Z</time></trkpt><trkpt lat="40.5486633" lon="16.666625"><ele>318.83333333333337</ele><time>2026-04-26T14:36:15.497Z</time></trkpt><trkpt lat="40.5485883" lon="16.6666517"><ele>317.6666666666667</ele><time>2026-04-26T14:36:16.497Z</time></trkpt><trkpt lat="40.548515" lon="16.6666733"><ele>316.5</ele><time>2026-04-26T14:36:17.499Z</time></trkpt><trkpt lat="40.5484383" lon="16.6666967"><ele>315.3333333333333</ele><time>2026-04-26T14:36:18.5Z</time></trkpt><trkpt lat="40.54836" lon="16.6667233"><ele>314.16666666666663</ele><time>2026-04-26T14:36:19.498Z</time></trkpt><trkpt lat="40.5482833" lon="16.66675"><ele>313.0</ele><time>2026-04-26T14:36:20.501Z</time></trkpt><trkpt lat="40.5482067" lon="16.6667733"><ele>313.0</ele><time>2026-04-26T14:36:21.498Z</time></trkpt><trkpt lat="40.5481283" lon="16.6667967"><ele>313.0</ele><time>2026-04-26T14:36:22.495Z</time></trkpt><trkpt lat="40.5480533" lon="16.66682"><ele>313.0</ele><time>2026-04-26T14:36:23.5Z</time></trkpt><trkpt lat="40.5479783" lon="16.66685"><ele>313.0</ele><time>2026-04-26T14:36:24.499Z</time></trkpt><trkpt lat="40.5478967" lon="16.6668733"><ele>313.0</ele><time>2026-04-26T14:36:25.502Z</time></trkpt><trkpt lat="40.54782" lon="16.666895"><ele>313.0</ele><time>2026-04-26T14:36:26.503Z</time></trkpt><trkpt lat="40.5477383" lon="16.6669183"><ele>313.5</ele><time>2026-04-26T14:36:27.501Z</time></trkpt><trkpt lat="40.5476617" lon="16.6669417"><ele>314.0</ele><time>2026-04-26T14:36:28.5Z</time></trkpt><trkpt lat="40.5475867" lon="16.666965"><ele>314.5</ele><time>2026-04-26T14:36:29.501Z</time></trkpt><trkpt lat="40.547515" lon="16.6669883"><ele>315.0</ele><time>2026-04-26T14:36:30.502Z</time></trkpt><trkpt lat="40.54744" lon="16.6670133"><ele>315.5</ele><time>2026-04-26T14:36:31.501Z</time></trkpt><trkpt lat="40.5473667" lon="16.6670383"><ele>316.0</ele><time>2026-04-26T14:36:32.501Z</time></trkpt><trkpt lat="40.5472917" lon="16.6670667"><ele>316.00000000000006</ele><time>2026-04-26T14:36:33.502Z</time></trkpt><trkpt lat="40.547215" lon="16.6670883"><ele>316.0</ele><time>2026-04-26T14:36:34.498Z</time></trkpt><trkpt lat="40.5471367" lon="16.6671033"><ele>316.0</ele><time>2026-04-26T14:36:35.496Z</time></trkpt><trkpt lat="40.54706" lon="16.6671117"><ele>316.0</ele><time>2026-04-26T14:36:36.499Z</time></trkpt><trkpt lat="40.54699" lon="16.6671183"><ele>316.0</ele><time>2026-04-26T14:36:37.499Z</time></trkpt><trkpt lat="40.5469217" lon="16.66712"><ele>316.00000000000006</ele><time>2026-04-26T14:36:38.502Z</time></trkpt><trkpt lat="40.546855" lon="16.6671183"><ele>316.0</ele><time>2026-04-26T14:36:39.498Z</time></trkpt><trkpt lat="40.5467817" lon="16.66711"><ele>314.66666666666663</ele><time>2026-04-26T14:36:40.501Z</time></trkpt><trkpt lat="40.54671" lon="16.6671017"><ele>313.3333333333333</ele><time>2026-04-26T14:36:41.5Z</time></trkpt><trkpt lat="40.5466367" lon="16.6670917"><ele>312.0</ele><time>2026-04-26T14:36:42.501Z</time></trkpt><trkpt lat="40.54656" lon="16.6670783"><ele>310.6666666666667</ele><time>2026-04-26T14:36:43.498Z</time></trkpt><trkpt lat="40.5464817" lon="16.66706"><ele>309.33333333333337</ele><time>2026-04-26T14:36:44.503Z</time></trkpt><trkpt lat="40.5463983" lon="16.6670433"><ele>308.0</ele><time>2026-04-26T14:36:45.497Z</time></trkpt><trkpt lat="40.546315" lon="16.667025"><ele>308.0</ele><time>2026-04-26T14:36:46.499Z</time></trkpt><trkpt lat="40.5462333" lon="16.6670083"><ele>308.0</ele><time>2026-04-26T14:36:47.501Z</time></trkpt><trkpt lat="40.5461567" lon="16.666985"><ele>308.0</ele><time>2026-04-26T14:36:48.5Z</time></trkpt><trkpt lat="40.5460817" lon="16.6669567"><ele>308.0</ele><time>2026-04-26T14:36:49.496Z</time></trkpt><trkpt lat="40.5460117" lon="16.66693"><ele>308.0</ele><time>2026-04-26T14:36:50.502Z</time></trkpt><trkpt lat="40.5459433" lon="16.6669033"><ele>308.0</ele><time>2026-04-26T14:36:51.497Z</time></trkpt><trkpt lat="40.545875" lon="16.6668783"><ele>307.0</ele><time>2026-04-26T14:36:52.496Z</time></trkpt><trkpt lat="40.545805" lon="16.6668583"><ele>306.0</ele><time>2026-04-26T14:36:53.498Z</time></trkpt><trkpt lat="40.5457333" lon="16.6668383"><ele>305.0</ele><time>2026-04-26T14:36:54.497Z</time></trkpt><trkpt lat="40.545665" lon="16.6668133"><ele>304.0</ele><time>2026-04-26T14:36:55.501Z</time></trkpt><trkpt lat="40.5455917" lon="16.66678"><ele>303.0</ele><time>2026-04-26T14:36:56.504Z</time></trkpt><trkpt lat="40.545525" lon="16.66674"><ele>302.0</ele><time>2026-04-26T14:36:57.498Z</time></trkpt><trkpt lat="40.5454583" lon="16.6666967"><ele>301.0</ele><time>2026-04-26T14:36:58.5Z</time></trkpt><trkpt lat="40.5453917" lon="16.6666517"><ele>300.8333333333333</ele><time>2026-04-26T14:36:59.501Z</time></trkpt><trkpt lat="40.54532" lon="16.6666133"><ele>300.66666666666663</ele><time>2026-04-26T14:37:00.497Z</time></trkpt><trkpt lat="40.5452517" lon="16.6665733"><ele>300.5</ele><time>2026-04-26T14:37:01.498Z</time></trkpt><trkpt lat="40.545185" lon="16.6665333"><ele>300.3333333333333</ele><time>2026-04-26T14:37:02.5Z</time></trkpt><trkpt lat="40.545115" lon="16.6664883"><ele>300.1666666666667</ele><time>2026-04-26T14:37:03.497Z</time></trkpt><trkpt lat="40.5450383" lon="16.66644"><ele>300.0</ele><time>2026-04-26T14:37:04.499Z</time></trkpt><trkpt lat="40.54496" lon="16.666395"><ele>300.0</ele><time>2026-04-26T14:37:05.499Z</time></trkpt><trkpt lat="40.5448867" lon="16.66635"><ele>300.0</ele><time>2026-04-26T14:37:06.5Z</time></trkpt><trkpt lat="40.54482" lon="16.666295"><ele>300.0</ele><time>2026-04-26T14:37:07.499Z</time></trkpt><trkpt lat="40.5447433" lon="16.6662483"><ele>300.0</ele><time>2026-04-26T14:37:08.501Z</time></trkpt><trkpt lat="40.54467" lon="16.6661983"><ele>300.0</ele><time>2026-04-26T14:37:09.5Z</time></trkpt><trkpt lat="40.5446" lon="16.6661483"><ele>300.0</ele><time>2026-04-26T14:37:10.501Z</time></trkpt><trkpt lat="40.544535" lon="16.6660883"><ele>299.1666666666667</ele><time>2026-04-26T14:37:11.498Z</time></trkpt><trkpt lat="40.5444783" lon="16.66603"><ele>298.3333333333333</ele><time>2026-04-26T14:37:12.498Z</time></trkpt><trkpt lat="40.5444217" lon="16.665975"><ele>297.5</ele><time>2026-04-26T14:37:13.499Z</time></trkpt><trkpt lat="40.5443683" lon="16.6659267"><ele>296.66666666666663</ele><time>2026-04-26T14:37:14.5Z</time></trkpt><trkpt lat="40.5443167" lon="16.6658133"><ele>295.8333333333333</ele><time>2026-04-26T14:37:16.502Z</time></trkpt><trkpt lat="40.5443483" lon="16.665715"><ele>295.0</ele><time>2026-04-26T14:37:18.5Z</time></trkpt><trkpt lat="40.54444" lon="16.6656617"><ele>295.0</ele><time>2026-04-26T14:37:20.504Z</time></trkpt><trkpt lat="40.5445167" lon="16.665685"><ele>295.0</ele><time>2026-04-26T14:37:21.499Z</time></trkpt><trkpt lat="40.5445933" lon="16.6657067"><ele>295.0</ele><time>2026-04-26T14:37:22.499Z</time></trkpt><trkpt lat="40.5446667" lon="16.66572"><ele>295.0</ele><time>2026-04-26T14:37:23.5Z</time></trkpt><trkpt lat="40.5447467" lon="16.665735"><ele>295.0</ele><time>2026-04-26T14:37:24.501Z</time></trkpt><trkpt lat="40.5448283" lon="16.6657567"><ele>295.0</ele><time>2026-04-26T14:37:25.497Z</time></trkpt><trkpt lat="40.5449117" lon="16.6658033"><ele>295.0</ele><time>2026-04-26T14:37:26.501Z</time></trkpt><trkpt lat="40.5449967" lon="16.6658517"><ele>295.0</ele><time>2026-04-26T14:37:27.502Z</time></trkpt><trkpt lat="40.5450933" lon="16.66592"><ele>295.0</ele><time>2026-04-26T14:37:28.5Z</time></trkpt><trkpt lat="40.5451867" lon="16.6659917"><ele>295.0</ele><time>2026-04-26T14:37:29.499Z</time></trkpt><trkpt lat="40.5452783" lon="16.66605"><ele>295.0</ele><time>2026-04-26T14:37:30.5Z</time></trkpt><trkpt lat="40.5453667" lon="16.6661033"><ele>296.0</ele><time>2026-04-26T14:37:31.495Z</time></trkpt><trkpt lat="40.5454517" lon="16.666155"><ele>297.0</ele><time>2026-04-26T14:37:32.5Z</time></trkpt><trkpt lat="40.5455283" lon="16.6662083"><ele>298.0</ele><time>2026-04-26T14:37:33.498Z</time></trkpt><trkpt lat="40.5456" lon="16.6662467"><ele>299.0</ele><time>2026-04-26T14:37:34.502Z</time></trkpt><trkpt lat="40.5456667" lon="16.6662917"><ele>300.0</ele><time>2026-04-26T14:37:35.496Z</time></trkpt><trkpt lat="40.54573" lon="16.6663167"><ele>301.0</ele><time>2026-04-26T14:37:36.502Z</time></trkpt><trkpt lat="40.5458517" lon="16.666305"><ele>301.0</ele><time>2026-04-26T14:37:38.501Z</time></trkpt><trkpt lat="40.545975" lon="16.66629"><ele>301.0</ele><time>2026-04-26T14:37:40.498Z</time></trkpt><trkpt lat="40.54604" lon="16.6663083"><ele>301.0</ele><time>2026-04-26T14:37:41.503Z</time></trkpt><trkpt lat="40.546115" lon="16.6663217"><ele>301.0</ele><time>2026-04-26T14:37:42.5Z</time></trkpt><trkpt lat="40.546185" lon="16.6663467"><ele>301.0</ele><time>2026-04-26T14:37:43.497Z</time></trkpt><trkpt lat="40.54627" lon="16.66637"><ele>301.0</ele><time>2026-04-26T14:37:44.501Z</time></trkpt><trkpt lat="40.5463367" lon="16.66639"><ele>301.16666666666663</ele><time>2026-04-26T14:37:45.497Z</time></trkpt><trkpt lat="40.5463983" lon="16.6664117"><ele>301.3333333333333</ele><time>2026-04-26T14:37:46.5Z</time></trkpt><trkpt lat="40.5464667" lon="16.6664217"><ele>301.5</ele><time>2026-04-26T14:37:47.5Z</time></trkpt><trkpt lat="40.5465333" lon="16.666445"><ele>301.6666666666667</ele><time>2026-04-26T14:37:48.499Z</time></trkpt><trkpt lat="40.5466" lon="16.66646"><ele>301.83333333333337</ele><time>2026-04-26T14:37:49.5Z</time></trkpt><trkpt lat="40.5467067" lon="16.6665083"><ele>302.0</ele><time>2026-04-26T14:37:51.503Z</time></trkpt><trkpt lat="40.546805" lon="16.6665667"><ele>302.0</ele><time>2026-04-26T14:37:53.501Z</time></trkpt><trkpt lat="40.54692" lon="16.6665783"><ele>302.0</ele><time>2026-04-26T14:37:55.503Z</time></trkpt><trkpt lat="40.5470317" lon="16.6665433"><ele>302.0</ele><time>2026-04-26T14:37:57.501Z</time></trkpt><trkpt lat="40.547155" lon="16.6664967"><ele>302.0</ele><time>2026-04-26T14:37:59.501Z</time></trkpt><trkpt lat="40.5472217" lon="16.6664733"><ele>302.0</ele><time>2026-04-26T14:38:00.502Z</time></trkpt><trkpt lat="40.5472917" lon="16.6664567"><ele>303.00000000000006</ele><time>2026-04-26T14:38:01.5Z</time></trkpt><trkpt lat="40.547365" lon="16.6664367"><ele>304.0</ele><time>2026-04-26T14:38:02.503Z</time></trkpt><trkpt lat="40.5474367" lon="16.6664183"><ele>305.0</ele><time>2026-04-26T14:38:03.5Z</time></trkpt><trkpt lat="40.5475" lon="16.6664017"><ele>306.0</ele><time>2026-04-26T14:38:04.496Z</time></trkpt><trkpt lat="40.5475633" lon="16.6663883"><ele>307.0</ele><time>2026-04-26T14:38:05.497Z</time></trkpt><trkpt lat="40.5476383" lon="16.6663783"><ele>308.00000000000006</ele><time>2026-04-26T14:38:06.5Z</time></trkpt><trkpt lat="40.5477017" lon="16.6663583"><ele>309.0</ele><time>2026-04-26T14:38:07.498Z</time></trkpt><trkpt lat="40.5477683" lon="16.6663433"><ele>309.8</ele><time>2026-04-26T14:38:08.503Z</time></trkpt><trkpt lat="40.5478783" lon="16.6663233"><ele>310.59999999999997</ele><time>2026-04-26T14:38:10.498Z</time></trkpt><trkpt lat="40.5479833" lon="16.666295"><ele>311.4</ele><time>2026-04-26T14:38:12.503Z</time></trkpt><trkpt lat="40.54807" lon="16.6662633"><ele>312.2</ele><time>2026-04-26T14:38:14.488Z</time></trkpt><trkpt lat="40.5481783" lon="16.66622"><ele>313.0</ele><time>2026-04-26T14:38:16.499Z</time></trkpt><trkpt lat="40.54824" lon="16.6661983"><ele>313.0</ele><time>2026-04-26T14:38:17.501Z</time></trkpt><trkpt lat="40.54836" lon="16.6661617"><ele>313.0</ele><time>2026-04-26T14:38:19.499Z</time></trkpt><trkpt lat="40.5484267" lon="16.6661483"><ele>313.0</ele><time>2026-04-26T14:38:20.498Z</time></trkpt><trkpt lat="40.5484933" lon="16.6661367"><ele>313.0</ele><time>2026-04-26T14:38:21.499Z</time></trkpt><trkpt lat="40.5485583" lon="16.6661183"><ele>313.0</ele><time>2026-04-26T14:38:22.498Z</time></trkpt><trkpt lat="40.54863" lon="16.6661"><ele>313.0</ele><time>2026-04-26T14:38:23.499Z</time></trkpt><trkpt lat="40.54875" lon="16.6660617"><ele>312.6</ele><time>2026-04-26T14:38:25.5Z</time></trkpt><trkpt lat="40.5488617" lon="16.6660233"><ele>312.20000000000005</ele><time>2026-04-26T14:38:27.499Z</time></trkpt><trkpt lat="40.5489667" lon="16.665965"><ele>311.8</ele><time>2026-04-26T14:38:29.501Z</time></trkpt><trkpt lat="40.5490183" lon="16.6658767"><ele>311.40000000000003</ele><time>2026-04-26T14:38:31.5Z</time></trkpt><trkpt lat="40.5490017" lon="16.6657517"><ele>311.0</ele><time>2026-04-26T14:38:34.496Z</time></trkpt><trkpt lat="40.5489733" lon="16.6656583"><ele>311.0</ele><time>2026-04-26T14:38:36.499Z</time></trkpt><trkpt lat="40.5490483" lon="16.6655667"><ele>311.0</ele><time>2026-04-26T14:38:39.496Z</time></trkpt><trkpt lat="40.549145" lon="16.6655483"><ele>311.0</ele><time>2026-04-26T14:38:41.501Z</time></trkpt><trkpt lat="40.5492717" lon="16.66555"><ele>311.0</ele><time>2026-04-26T14:38:43.5Z</time></trkpt><trkpt lat="40.5493383" lon="16.6655567"><ele>311.0</ele><time>2026-04-26T14:38:44.502Z</time></trkpt><trkpt lat="40.5494333" lon="16.6655983"><ele>311.0</ele><time>2026-04-26T14:38:46.501Z</time></trkpt><trkpt lat="40.5494767" lon="16.6656983"><ele>311.0</ele><time>2026-04-26T14:38:48.499Z</time></trkpt><trkpt lat="40.54948" lon="16.6658533"><ele>311.0</ele><time>2026-04-26T14:38:50.503Z</time></trkpt><trkpt lat="40.5494717" lon="16.666015"><ele>311.0</ele><time>2026-04-26T14:38:52.5Z</time></trkpt><trkpt lat="40.5494683" lon="16.6661367"><ele>311.0</ele><time>2026-04-26T14:38:54.5Z</time></trkpt><trkpt lat="40.5495217" lon="16.66621"><ele>314.4</ele><time>2026-04-26T14:39:04.498Z</time></trkpt><trkpt lat="40.54961" lon="16.6661867"><ele>317.8</ele><time>2026-04-26T14:39:06.503Z</time></trkpt><trkpt lat="40.549735" lon="16.6661733"><ele>321.2</ele><time>2026-04-26T14:39:08.5Z</time></trkpt><trkpt lat="40.549815" lon="16.6661733"><ele>324.59999999999997</ele><time>2026-04-26T14:39:09.499Z</time></trkpt><trkpt lat="40.5498983" lon="16.6661683"><ele>328.0</ele><time>2026-04-26T14:39:10.496Z</time></trkpt><trkpt lat="40.5499933" lon="16.666165"><ele>328.0</ele><time>2026-04-26T14:39:11.498Z</time></trkpt><trkpt lat="40.5500967" lon="16.6661567"><ele>328.0</ele><time>2026-04-26T14:39:12.501Z</time></trkpt><trkpt lat="40.5502117" lon="16.666155"><ele>328.0</ele><time>2026-04-26T14:39:13.501Z</time></trkpt><trkpt lat="40.5503333" lon="16.6661583"><ele>328.0</ele><time>2026-04-26T14:39:14.503Z</time></trkpt><trkpt lat="40.5504583" lon="16.6661633"><ele>328.0</ele><time>2026-04-26T14:39:15.499Z</time></trkpt><trkpt lat="40.5505733" lon="16.6661583"><ele>328.0</ele><time>2026-04-26T14:39:16.498Z</time></trkpt><trkpt lat="40.5506933" lon="16.6661483"><ele>328.0</ele><time>2026-04-26T14:39:17.496Z</time></trkpt><trkpt lat="40.5507967" lon="16.6661433"><ele>328.0</ele><time>2026-04-26T14:39:18.503Z</time></trkpt><trkpt lat="40.5508867" lon="16.666145"><ele>328.0</ele><time>2026-04-26T14:39:19.499Z</time></trkpt><trkpt lat="40.5509717" lon="16.6661433"><ele>328.0</ele><time>2026-04-26T14:39:20.503Z</time></trkpt><trkpt lat="40.551055" lon="16.6661433"><ele>328.0</ele><time>2026-04-26T14:39:21.501Z</time></trkpt><trkpt lat="40.55114" lon="16.6661433"><ele>328.0</ele><time>2026-04-26T14:39:22.499Z</time></trkpt><trkpt lat="40.55122" lon="16.6661383"><ele>328.0</ele><time>2026-04-26T14:39:23.501Z</time></trkpt><trkpt lat="40.5513017" lon="16.6661283"><ele>328.0</ele><time>2026-04-26T14:39:24.501Z</time></trkpt><trkpt lat="40.5513933" lon="16.666115"><ele>328.0</ele><time>2026-04-26T14:39:25.501Z</time></trkpt><trkpt lat="40.5514883" lon="16.6660983"><ele>326.59999999999997</ele><time>2026-04-26T14:39:26.501Z</time></trkpt><trkpt lat="40.551585" lon="16.6660867"><ele>325.2</ele><time>2026-04-26T14:39:27.501Z</time></trkpt><trkpt lat="40.55168" lon="16.66608"><ele>323.8</ele><time>2026-04-26T14:39:28.499Z</time></trkpt><trkpt lat="40.551775" lon="16.6660783"><ele>322.4</ele><time>2026-04-26T14:39:29.5Z</time></trkpt><trkpt lat="40.5518667" lon="16.6660767"><ele>321.0</ele><time>2026-04-26T14:39:30.5Z</time></trkpt><trkpt lat="40.5519467" lon="16.666075"><ele>321.0</ele><time>2026-04-26T14:39:31.502Z</time></trkpt><trkpt lat="40.5520217" lon="16.6660767"><ele>321.0</ele><time>2026-04-26T14:39:32.501Z</time></trkpt><trkpt lat="40.552095" lon="16.6661083"><ele>321.0</ele><time>2026-04-26T14:39:33.5Z</time></trkpt><trkpt lat="40.5521567" lon="16.6661367"><ele>321.0</ele><time>2026-04-26T14:39:34.498Z</time></trkpt><trkpt lat="40.5522133" lon="16.6661983"><ele>321.0</ele><time>2026-04-26T14:39:35.495Z</time></trkpt><trkpt lat="40.552265" lon="16.6662783"><ele>321.0</ele><time>2026-04-26T14:39:36.498Z</time></trkpt><trkpt lat="40.5523217" lon="16.6663667"><ele>323.6</ele><time>2026-04-26T14:39:37.499Z</time></trkpt><trkpt lat="40.552385" lon="16.6664667"><ele>326.20000000000005</ele><time>2026-04-26T14:39:38.503Z</time></trkpt><trkpt lat="40.5524533" lon="16.6665783"><ele>328.79999999999995</ele><time>2026-04-26T14:39:39.499Z</time></trkpt><trkpt lat="40.5525217" lon="16.6666933"><ele>331.4</ele><time>2026-04-26T14:39:40.501Z</time></trkpt><trkpt lat="40.5526083" lon="16.666805"><ele>334.0</ele><time>2026-04-26T14:39:41.5Z</time></trkpt><trkpt lat="40.5527083" lon="16.6669167"><ele>333.75</ele><time>2026-04-26T14:39:42.503Z</time></trkpt><trkpt lat="40.5528167" lon="16.6670267"><ele>333.5</ele><time>2026-04-26T14:39:43.5Z</time></trkpt><trkpt lat="40.552945" lon="16.6670983"><ele>333.25</ele><time>2026-04-26T14:39:44.501Z</time></trkpt><trkpt lat="40.553085" lon="16.6671617"><ele>333.0</ele><time>2026-04-26T14:39:45.497Z</time></trkpt><trkpt lat="40.55322" lon="16.66721"><ele>333.4</ele><time>2026-04-26T14:39:46.496Z</time></trkpt><trkpt lat="40.553345" lon="16.667245"><ele>333.79999999999995</ele><time>2026-04-26T14:39:47.5Z</time></trkpt><trkpt lat="40.55345" lon="16.66727"><ele>334.2</ele><time>2026-04-26T14:39:48.499Z</time></trkpt><trkpt lat="40.5535383" lon="16.6672833"><ele>334.6</ele><time>2026-04-26T14:39:49.499Z</time></trkpt><trkpt lat="40.5536117" lon="16.66729"><ele>335.0</ele><time>2026-04-26T14:39:50.504Z</time></trkpt><trkpt lat="40.5536817" lon="16.6672717"><ele>336.0</ele><time>2026-04-26T14:39:51.501Z</time></trkpt><trkpt lat="40.55377" lon="16.6672333"><ele>337.0</ele><time>2026-04-26T14:39:52.502Z</time></trkpt><trkpt lat="40.553865" lon="16.6671733"><ele>338.0</ele><time>2026-04-26T14:39:53.499Z</time></trkpt><trkpt lat="40.553935" lon="16.6670733"><ele>339.0</ele><time>2026-04-26T14:39:54.502Z</time></trkpt><trkpt lat="40.5540033" lon="16.6669883"><ele>340.0</ele><time>2026-04-26T14:39:55.499Z</time></trkpt><trkpt lat="40.5540633" lon="16.6669317"><ele>340.0</ele><time>2026-04-26T14:39:56.501Z</time></trkpt><trkpt lat="40.554145" lon="16.6668617"><ele>340.0</ele><time>2026-04-26T14:39:58.5Z</time></trkpt><trkpt lat="40.5540833" lon="16.6666683"><ele>340.0</ele><time>2026-04-26T14:40:00.501Z</time></trkpt><trkpt lat="40.5540267" lon="16.6665233"><ele>340.0</ele><time>2026-04-26T14:40:01.502Z</time></trkpt><trkpt lat="40.5539783" lon="16.66636"><ele>340.0</ele><time>2026-04-26T14:40:02.498Z</time></trkpt><trkpt lat="40.553925" lon="16.6661783"><ele>340.0</ele><time>2026-04-26T14:40:03.498Z</time></trkpt><trkpt lat="40.55387" lon="16.666"><ele>340.0</ele><time>2026-04-26T14:40:04.498Z</time></trkpt><trkpt lat="40.5538167" lon="16.66584"><ele>340.0</ele><time>2026-04-26T14:40:05.499Z</time></trkpt><trkpt lat="40.5537733" lon="16.66571"><ele>340.16666666666663</ele><time>2026-04-26T14:40:06.501Z</time></trkpt><trkpt lat="40.5537367" lon="16.665605"><ele>340.3333333333333</ele><time>2026-04-26T14:40:07.5Z</time></trkpt><trkpt lat="40.5536967" lon="16.6655233"><ele>340.5</ele><time>2026-04-26T14:40:08.503Z</time></trkpt><trkpt lat="40.55359" lon="16.6655"><ele>340.6666666666667</ele><time>2026-04-26T14:40:10.499Z</time></trkpt><trkpt lat="40.553525" lon="16.6655417"><ele>340.83333333333337</ele><time>2026-04-26T14:40:11.501Z</time></trkpt><trkpt lat="40.55345" lon="16.66559"><ele>341.0</ele><time>2026-04-26T14:40:12.501Z</time></trkpt><trkpt lat="40.553365" lon="16.66565"><ele>341.4</ele><time>2026-04-26T14:40:13.5Z</time></trkpt><trkpt lat="40.553275" lon="16.6657133"><ele>341.8</ele><time>2026-04-26T14:40:14.498Z</time></trkpt><trkpt lat="40.5532017" lon="16.6657667"><ele>342.2</ele><time>2026-04-26T14:40:15.499Z</time></trkpt><trkpt lat="40.5531467" lon="16.6658183"><ele>342.59999999999997</ele><time>2026-04-26T14:40:16.498Z</time></trkpt><trkpt lat="40.5530767" lon="16.66596"><ele>343.0</ele><time>2026-04-26T14:40:18.497Z</time></trkpt><trkpt lat="40.553075" lon="16.666095"><ele>342.8333333333333</ele><time>2026-04-26T14:40:19.503Z</time></trkpt><trkpt lat="40.5530767" lon="16.666215"><ele>342.66666666666663</ele><time>2026-04-26T14:40:20.502Z</time></trkpt><trkpt lat="40.5530817" lon="16.6663183"><ele>342.5</ele><time>2026-04-26T14:40:21.499Z</time></trkpt><trkpt lat="40.5531033" lon="16.6664233"><ele>342.3333333333333</ele><time>2026-04-26T14:40:22.5Z</time></trkpt><trkpt lat="40.5531383" lon="16.666515"><ele>342.1666666666667</ele><time>2026-04-26T14:40:23.501Z</time></trkpt><trkpt lat="40.55319" lon="16.66657"><ele>342.0</ele><time>2026-04-26T14:40:24.503Z</time></trkpt><trkpt lat="40.5532517" lon="16.666595"><ele>342.0</ele><time>2026-04-26T14:40:25.499Z</time></trkpt><trkpt lat="40.55332" lon="16.6665867"><ele>342.0</ele><time>2026-04-26T14:40:26.501Z</time></trkpt><trkpt lat="40.55339" lon="16.6665817"><ele>342.0</ele><time>2026-04-26T14:40:27.499Z</time></trkpt><trkpt lat="40.553485" lon="16.666565"><ele>342.0</ele><time>2026-04-26T14:40:29.5Z</time></trkpt><trkpt lat="40.5534667" lon="16.6664083"><ele>342.0</ele><time>2026-04-26T14:40:31.5Z</time></trkpt><trkpt lat="40.5534567" lon="16.666315"><ele>342.0</ele><time>2026-04-26T14:40:32.503Z</time></trkpt><trkpt lat="40.55345" lon="16.6662083"><ele>342.0</ele><time>2026-04-26T14:40:33.498Z</time></trkpt><trkpt lat="40.553445" lon="16.666105"><ele>342.0</ele><time>2026-04-26T14:40:34.5Z</time></trkpt><trkpt lat="40.5534417" lon="16.6660133"><ele>342.0</ele><time>2026-04-26T14:40:35.499Z</time></trkpt><trkpt lat="40.5534367" lon="16.6659283"><ele>342.0</ele><time>2026-04-26T14:40:36.502Z</time></trkpt><trkpt lat="40.5534217" lon="16.6658017"><ele>342.0</ele><time>2026-04-26T14:40:38.5Z</time></trkpt><trkpt lat="40.5535455" lon="16.6661127"><ele>342.0</ele><time>2026-04-26T14:41:10.324Z</time></trkpt><trkpt lat="40.5534433" lon="16.6660367"><ele>343.0</ele><time>2026-04-26T14:43:34.484Z</time></trkpt></trkseg></trk></gpx>